<?xml version="1.0" encoding="UTF-8" standalone="no" ?>
<gpx xmlns="http://www.topografix.com/GPX/1/1" xmlns:xsi="http://www.w3.org/2001/XMLSchema-instance" xsi:schemaLocation="http://www.topografix.com/GPX/1/1 http://www.topografix.com/GPX/1/1/gpx.xsd" version="1.1" creator="VisuGPX - https://www.visugpx.com">
  <metadata>
    <name>Trip 10/22  Jour 3</name>
  </metadata>
  <trk>
    <name><![CDATA[2022-10-10 10:27:54 Jour]]></name>
    <trkseg>
      <trkpt lat="43.99045" lon="7.22532">
        <ele>1393.02</ele>
        <time>2022-10-10T08:27:54Z</time>
      </trkpt>
      <trkpt lat="43.99051" lon="7.22534">
        <ele>1391.75</ele>
        <time>2022-10-10T08:27:55Z</time>
      </trkpt>
      <trkpt lat="43.99057" lon="7.22538">
        <ele>1391.7</ele>
        <time>2022-10-10T08:27:56Z</time>
      </trkpt>
      <trkpt lat="43.9907" lon="7.22547">
        <ele>1388.56</ele>
        <time>2022-10-10T08:27:58Z</time>
      </trkpt>
      <trkpt lat="43.99075" lon="7.22552">
        <ele>1388.56</ele>
        <time>2022-10-10T08:27:59Z</time>
      </trkpt>
      <trkpt lat="43.9908" lon="7.2256">
        <ele>1387.08</ele>
        <time>2022-10-10T08:28:00Z</time>
      </trkpt>
      <trkpt lat="43.99085" lon="7.22568">
        <ele>1386.94</ele>
        <time>2022-10-10T08:28:01Z</time>
      </trkpt>
      <trkpt lat="43.99093" lon="7.22586">
        <ele>1384.6</ele>
        <time>2022-10-10T08:28:03Z</time>
      </trkpt>
      <trkpt lat="43.99096" lon="7.22595">
        <ele>1384.64</ele>
        <time>2022-10-10T08:28:04Z</time>
      </trkpt>
      <trkpt lat="43.991" lon="7.22615">
        <ele>1382.33</ele>
        <time>2022-10-10T08:28:06Z</time>
      </trkpt>
      <trkpt lat="43.99102" lon="7.22636">
        <ele>1381.55</ele>
        <time>2022-10-10T08:28:08Z</time>
      </trkpt>
      <trkpt lat="43.99102" lon="7.22646">
        <ele>1381.17</ele>
        <time>2022-10-10T08:28:09Z</time>
      </trkpt>
      <trkpt lat="43.991" lon="7.22678">
        <ele>1378.84</ele>
        <time>2022-10-10T08:28:12Z</time>
      </trkpt>
      <trkpt lat="43.99101" lon="7.22687">
        <ele>1377.87</ele>
        <time>2022-10-10T08:28:13Z</time>
      </trkpt>
      <trkpt lat="43.99103" lon="7.22697">
        <ele>1377.87</ele>
        <time>2022-10-10T08:28:14Z</time>
      </trkpt>
      <trkpt lat="43.99105" lon="7.22705">
        <ele>1376.43</ele>
        <time>2022-10-10T08:28:15Z</time>
      </trkpt>
      <trkpt lat="43.99108" lon="7.22715">
        <ele>1375.64</ele>
        <time>2022-10-10T08:28:16Z</time>
      </trkpt>
      <trkpt lat="43.9911" lon="7.22725">
        <ele>1374.3</ele>
        <time>2022-10-10T08:28:17Z</time>
      </trkpt>
      <trkpt lat="43.99111" lon="7.22736">
        <ele>1373.23</ele>
        <time>2022-10-10T08:28:18Z</time>
      </trkpt>
      <trkpt lat="43.99111" lon="7.22748">
        <ele>1373.25</ele>
        <time>2022-10-10T08:28:19Z</time>
      </trkpt>
      <trkpt lat="43.99111" lon="7.22786">
        <ele>1369.24</ele>
        <time>2022-10-10T08:28:22Z</time>
      </trkpt>
      <trkpt lat="43.99111" lon="7.22798">
        <ele>1369.23</ele>
        <time>2022-10-10T08:28:23Z</time>
      </trkpt>
      <trkpt lat="43.9911" lon="7.2281">
        <ele>1367.7</ele>
        <time>2022-10-10T08:28:24Z</time>
      </trkpt>
      <trkpt lat="43.99108" lon="7.2282">
        <ele>1366.76</ele>
        <time>2022-10-10T08:28:25Z</time>
      </trkpt>
      <trkpt lat="43.99104" lon="7.22831">
        <ele>1365.76</ele>
        <time>2022-10-10T08:28:26Z</time>
      </trkpt>
      <trkpt lat="43.99098" lon="7.22839">
        <ele>1365.03</ele>
        <time>2022-10-10T08:28:27Z</time>
      </trkpt>
      <trkpt lat="43.99093" lon="7.22847">
        <ele>1364.94</ele>
        <time>2022-10-10T08:28:28Z</time>
      </trkpt>
      <trkpt lat="43.9909" lon="7.22857">
        <ele>1363.45</ele>
        <time>2022-10-10T08:28:29Z</time>
      </trkpt>
      <trkpt lat="43.99088" lon="7.22868">
        <ele>1362.64</ele>
        <time>2022-10-10T08:28:30Z</time>
      </trkpt>
      <trkpt lat="43.99087" lon="7.22879">
        <ele>1361.76</ele>
        <time>2022-10-10T08:28:31Z</time>
      </trkpt>
      <trkpt lat="43.99083" lon="7.22889">
        <ele>1361.08</ele>
        <time>2022-10-10T08:28:32Z</time>
      </trkpt>
      <trkpt lat="43.99078" lon="7.22898">
        <ele>1359.99</ele>
        <time>2022-10-10T08:28:33Z</time>
      </trkpt>
      <trkpt lat="43.99072" lon="7.22905">
        <ele>1358.83</ele>
        <time>2022-10-10T08:28:34Z</time>
      </trkpt>
      <trkpt lat="43.99064" lon="7.22913">
        <ele>1358.74</ele>
        <time>2022-10-10T08:28:35Z</time>
      </trkpt>
      <trkpt lat="43.99055" lon="7.2292">
        <ele>1356.32</ele>
        <time>2022-10-10T08:28:36Z</time>
      </trkpt>
      <trkpt lat="43.9904" lon="7.22934">
        <ele>1354.89</ele>
        <time>2022-10-10T08:28:38Z</time>
      </trkpt>
      <trkpt lat="43.99033" lon="7.22942">
        <ele>1353.31</ele>
        <time>2022-10-10T08:28:39Z</time>
      </trkpt>
      <trkpt lat="43.99026" lon="7.2295">
        <ele>1352.44</ele>
        <time>2022-10-10T08:28:40Z</time>
      </trkpt>
      <trkpt lat="43.99021" lon="7.2296">
        <ele>1352.32</ele>
        <time>2022-10-10T08:28:41Z</time>
      </trkpt>
      <trkpt lat="43.99009" lon="7.22976">
        <ele>1349.51</ele>
        <time>2022-10-10T08:28:43Z</time>
      </trkpt>
      <trkpt lat="43.99002" lon="7.22981">
        <ele>1348.66</ele>
        <time>2022-10-10T08:28:44Z</time>
      </trkpt>
      <trkpt lat="43.98995" lon="7.22984">
        <ele>1347.76</ele>
        <time>2022-10-10T08:28:45Z</time>
      </trkpt>
      <trkpt lat="43.98978" lon="7.2299">
        <ele>1346.45</ele>
        <time>2022-10-10T08:28:47Z</time>
      </trkpt>
      <trkpt lat="43.98971" lon="7.22995">
        <ele>1344.4</ele>
        <time>2022-10-10T08:28:48Z</time>
      </trkpt>
      <trkpt lat="43.98964" lon="7.23001">
        <ele>1344.34</ele>
        <time>2022-10-10T08:28:49Z</time>
      </trkpt>
      <trkpt lat="43.98959" lon="7.23008">
        <ele>1343.11</ele>
        <time>2022-10-10T08:28:50Z</time>
      </trkpt>
      <trkpt lat="43.98953" lon="7.23014">
        <ele>1342.24</ele>
        <time>2022-10-10T08:28:51Z</time>
      </trkpt>
      <trkpt lat="43.98947" lon="7.23018">
        <ele>1341.39</ele>
        <time>2022-10-10T08:28:52Z</time>
      </trkpt>
      <trkpt lat="43.9894" lon="7.23019">
        <ele>1340.31</ele>
        <time>2022-10-10T08:28:53Z</time>
      </trkpt>
      <trkpt lat="43.98934" lon="7.2302">
        <ele>1340.22</ele>
        <time>2022-10-10T08:28:54Z</time>
      </trkpt>
      <trkpt lat="43.98926" lon="7.23022">
        <ele>1338.97</ele>
        <time>2022-10-10T08:28:55Z</time>
      </trkpt>
      <trkpt lat="43.98911" lon="7.23027">
        <ele>1338</ele>
        <time>2022-10-10T08:28:57Z</time>
      </trkpt>
      <trkpt lat="43.98894" lon="7.2303">
        <ele>1336.17</ele>
        <time>2022-10-10T08:28:59Z</time>
      </trkpt>
      <trkpt lat="43.98884" lon="7.2303">
        <ele>1334.97</ele>
        <time>2022-10-10T08:29:00Z</time>
      </trkpt>
      <trkpt lat="43.98875" lon="7.2303">
        <ele>1333.73</ele>
        <time>2022-10-10T08:29:01Z</time>
      </trkpt>
      <trkpt lat="43.98858" lon="7.23029">
        <ele>1331.59</ele>
        <time>2022-10-10T08:29:03Z</time>
      </trkpt>
      <trkpt lat="43.9885" lon="7.2303">
        <ele>1330.17</ele>
        <time>2022-10-10T08:29:04Z</time>
      </trkpt>
      <trkpt lat="43.98841" lon="7.23033">
        <ele>1330.2</ele>
        <time>2022-10-10T08:29:05Z</time>
      </trkpt>
      <trkpt lat="43.98811" lon="7.23039">
        <ele>1326.45</ele>
        <time>2022-10-10T08:29:08Z</time>
      </trkpt>
      <trkpt lat="43.98802" lon="7.23042">
        <ele>1326.36</ele>
        <time>2022-10-10T08:29:09Z</time>
      </trkpt>
      <trkpt lat="43.98793" lon="7.23047">
        <ele>1324.54</ele>
        <time>2022-10-10T08:29:10Z</time>
      </trkpt>
      <trkpt lat="43.98784" lon="7.23053">
        <ele>1323.77</ele>
        <time>2022-10-10T08:29:11Z</time>
      </trkpt>
      <trkpt lat="43.98758" lon="7.23077">
        <ele>1320.66</ele>
        <time>2022-10-10T08:29:14Z</time>
      </trkpt>
      <trkpt lat="43.9873" lon="7.23099">
        <ele>1318.49</ele>
        <time>2022-10-10T08:29:17Z</time>
      </trkpt>
      <trkpt lat="43.98709" lon="7.23111">
        <ele>1316.44</ele>
        <time>2022-10-10T08:29:19Z</time>
      </trkpt>
      <trkpt lat="43.98688" lon="7.23124">
        <ele>1312.62</ele>
        <time>2022-10-10T08:29:21Z</time>
      </trkpt>
      <trkpt lat="43.98677" lon="7.23129">
        <ele>1312.61</ele>
        <time>2022-10-10T08:29:22Z</time>
      </trkpt>
      <trkpt lat="43.98653" lon="7.23137">
        <ele>1309.24</ele>
        <time>2022-10-10T08:29:24Z</time>
      </trkpt>
      <trkpt lat="43.98619" lon="7.23151">
        <ele>1304.37</ele>
        <time>2022-10-10T08:29:27Z</time>
      </trkpt>
      <trkpt lat="43.98609" lon="7.23157">
        <ele>1303.39</ele>
        <time>2022-10-10T08:29:28Z</time>
      </trkpt>
      <trkpt lat="43.98592" lon="7.23167">
        <ele>1302.11</ele>
        <time>2022-10-10T08:29:30Z</time>
      </trkpt>
      <trkpt lat="43.98583" lon="7.2317">
        <ele>1300.58</ele>
        <time>2022-10-10T08:29:31Z</time>
      </trkpt>
      <trkpt lat="43.98574" lon="7.23171">
        <ele>1299.7</ele>
        <time>2022-10-10T08:29:32Z</time>
      </trkpt>
      <trkpt lat="43.98566" lon="7.2317">
        <ele>1298.73</ele>
        <time>2022-10-10T08:29:33Z</time>
      </trkpt>
      <trkpt lat="43.98557" lon="7.23165">
        <ele>1297.57</ele>
        <time>2022-10-10T08:29:34Z</time>
      </trkpt>
      <trkpt lat="43.98547" lon="7.2316">
        <ele>1296.76</ele>
        <time>2022-10-10T08:29:35Z</time>
      </trkpt>
      <trkpt lat="43.98527" lon="7.23151">
        <ele>1295.48</ele>
        <time>2022-10-10T08:29:37Z</time>
      </trkpt>
      <trkpt lat="43.98518" lon="7.2315">
        <ele>1292.88</ele>
        <time>2022-10-10T08:29:38Z</time>
      </trkpt>
      <trkpt lat="43.98509" lon="7.2315">
        <ele>1292.1</ele>
        <time>2022-10-10T08:29:39Z</time>
      </trkpt>
      <trkpt lat="43.98501" lon="7.23151">
        <ele>1290.85</ele>
        <time>2022-10-10T08:29:40Z</time>
      </trkpt>
      <trkpt lat="43.98496" lon="7.23149">
        <ele>1290</ele>
        <time>2022-10-10T08:29:41Z</time>
      </trkpt>
      <trkpt lat="43.98492" lon="7.23146">
        <ele>1290.13</ele>
        <time>2022-10-10T08:29:42Z</time>
      </trkpt>
      <trkpt lat="43.98488" lon="7.23138">
        <ele>1289.13</ele>
        <time>2022-10-10T08:29:43Z</time>
      </trkpt>
      <trkpt lat="43.98489" lon="7.23132">
        <ele>1288.16</ele>
        <time>2022-10-10T08:29:44Z</time>
      </trkpt>
      <trkpt lat="43.98492" lon="7.23129">
        <ele>1288.07</ele>
        <time>2022-10-10T08:29:45Z</time>
      </trkpt>
      <trkpt lat="43.98496" lon="7.23128">
        <ele>1287.32</ele>
        <time>2022-10-10T08:29:46Z</time>
      </trkpt>
      <trkpt lat="43.985" lon="7.23128">
        <ele>1287.35</ele>
        <time>2022-10-10T08:29:47Z</time>
      </trkpt>
      <trkpt lat="43.98504" lon="7.23127">
        <ele>1287.05</ele>
        <time>2022-10-10T08:29:48Z</time>
      </trkpt>
      <trkpt lat="43.98508" lon="7.23125">
        <ele>1286.97</ele>
        <time>2022-10-10T08:29:49Z</time>
      </trkpt>
      <trkpt lat="43.98522" lon="7.23123">
        <ele>1286.18</ele>
        <time>2022-10-10T08:29:52Z</time>
      </trkpt>
      <trkpt lat="43.98527" lon="7.23125">
        <ele>1285.56</ele>
        <time>2022-10-10T08:29:53Z</time>
      </trkpt>
      <trkpt lat="43.98533" lon="7.23126">
        <ele>1285.34</ele>
        <time>2022-10-10T08:29:54Z</time>
      </trkpt>
      <trkpt lat="43.98545" lon="7.23128">
        <ele>1284.51</ele>
        <time>2022-10-10T08:29:56Z</time>
      </trkpt>
      <trkpt lat="43.98575" lon="7.23122">
        <ele>1280.9</ele>
        <time>2022-10-10T08:30:00Z</time>
      </trkpt>
      <trkpt lat="43.98583" lon="7.23118">
        <ele>1280.82</ele>
        <time>2022-10-10T08:30:01Z</time>
      </trkpt>
      <trkpt lat="43.98598" lon="7.23108">
        <ele>1279.25</ele>
        <time>2022-10-10T08:30:03Z</time>
      </trkpt>
      <trkpt lat="43.9862" lon="7.23088">
        <ele>1275.85</ele>
        <time>2022-10-10T08:30:06Z</time>
      </trkpt>
      <trkpt lat="43.98627" lon="7.2308">
        <ele>1274.95</ele>
        <time>2022-10-10T08:30:07Z</time>
      </trkpt>
      <trkpt lat="43.98634" lon="7.23073">
        <ele>1273.74</ele>
        <time>2022-10-10T08:30:08Z</time>
      </trkpt>
      <trkpt lat="43.98643" lon="7.23066">
        <ele>1272.31</ele>
        <time>2022-10-10T08:30:09Z</time>
      </trkpt>
      <trkpt lat="43.98652" lon="7.23061">
        <ele>1272.37</ele>
        <time>2022-10-10T08:30:10Z</time>
      </trkpt>
      <trkpt lat="43.98662" lon="7.23055">
        <ele>1271.17</ele>
        <time>2022-10-10T08:30:11Z</time>
      </trkpt>
      <trkpt lat="43.98677" lon="7.23042">
        <ele>1269.97</ele>
        <time>2022-10-10T08:30:13Z</time>
      </trkpt>
      <trkpt lat="43.98709" lon="7.23004">
        <ele>1265.98</ele>
        <time>2022-10-10T08:30:17Z</time>
      </trkpt>
      <trkpt lat="43.98716" lon="7.22993">
        <ele>1263.87</ele>
        <time>2022-10-10T08:30:18Z</time>
      </trkpt>
      <trkpt lat="43.98721" lon="7.22982">
        <ele>1262.54</ele>
        <time>2022-10-10T08:30:19Z</time>
      </trkpt>
      <trkpt lat="43.98726" lon="7.22971">
        <ele>1261.44</ele>
        <time>2022-10-10T08:30:20Z</time>
      </trkpt>
      <trkpt lat="43.98735" lon="7.22949">
        <ele>1259.92</ele>
        <time>2022-10-10T08:30:22Z</time>
      </trkpt>
      <trkpt lat="43.98747" lon="7.22928">
        <ele>1257.45</ele>
        <time>2022-10-10T08:30:24Z</time>
      </trkpt>
      <trkpt lat="43.98754" lon="7.22919">
        <ele>1257.4</ele>
        <time>2022-10-10T08:30:25Z</time>
      </trkpt>
      <trkpt lat="43.9876" lon="7.22912">
        <ele>1254.8</ele>
        <time>2022-10-10T08:30:26Z</time>
      </trkpt>
      <trkpt lat="43.98766" lon="7.22906">
        <ele>1254.8</ele>
        <time>2022-10-10T08:30:27Z</time>
      </trkpt>
      <trkpt lat="43.98772" lon="7.22902">
        <ele>1253.45</ele>
        <time>2022-10-10T08:30:28Z</time>
      </trkpt>
      <trkpt lat="43.98779" lon="7.22898">
        <ele>1253.37</ele>
        <time>2022-10-10T08:30:29Z</time>
      </trkpt>
      <trkpt lat="43.98787" lon="7.22895">
        <ele>1252.16</ele>
        <time>2022-10-10T08:30:30Z</time>
      </trkpt>
      <trkpt lat="43.98795" lon="7.2289">
        <ele>1252.15</ele>
        <time>2022-10-10T08:30:31Z</time>
      </trkpt>
      <trkpt lat="43.98802" lon="7.22883">
        <ele>1250.84</ele>
        <time>2022-10-10T08:30:32Z</time>
      </trkpt>
      <trkpt lat="43.98809" lon="7.22875">
        <ele>1250.71</ele>
        <time>2022-10-10T08:30:33Z</time>
      </trkpt>
      <trkpt lat="43.98824" lon="7.22863">
        <ele>1247.9</ele>
        <time>2022-10-10T08:30:35Z</time>
      </trkpt>
      <trkpt lat="43.9883" lon="7.22859">
        <ele>1247.94</ele>
        <time>2022-10-10T08:30:36Z</time>
      </trkpt>
      <trkpt lat="43.98837" lon="7.22856">
        <ele>1246.46</ele>
        <time>2022-10-10T08:30:37Z</time>
      </trkpt>
      <trkpt lat="43.98845" lon="7.22854">
        <ele>1246.47</ele>
        <time>2022-10-10T08:30:38Z</time>
      </trkpt>
      <trkpt lat="43.98852" lon="7.22855">
        <ele>1245.31</ele>
        <time>2022-10-10T08:30:39Z</time>
      </trkpt>
      <trkpt lat="43.98859" lon="7.22856">
        <ele>1245.34</ele>
        <time>2022-10-10T08:30:40Z</time>
      </trkpt>
      <trkpt lat="43.98868" lon="7.22856">
        <ele>1245.35</ele>
        <time>2022-10-10T08:30:41Z</time>
      </trkpt>
      <trkpt lat="43.98875" lon="7.22852">
        <ele>1243.67</ele>
        <time>2022-10-10T08:30:42Z</time>
      </trkpt>
      <trkpt lat="43.9888" lon="7.22846">
        <ele>1243.23</ele>
        <time>2022-10-10T08:30:43Z</time>
      </trkpt>
      <trkpt lat="43.98886" lon="7.2284">
        <ele>1243.23</ele>
        <time>2022-10-10T08:30:44Z</time>
      </trkpt>
      <trkpt lat="43.98892" lon="7.22836">
        <ele>1243.17</ele>
        <time>2022-10-10T08:30:45Z</time>
      </trkpt>
      <trkpt lat="43.98899" lon="7.22833">
        <ele>1243.17</ele>
        <time>2022-10-10T08:30:46Z</time>
      </trkpt>
      <trkpt lat="43.98905" lon="7.22831">
        <ele>1242.3</ele>
        <time>2022-10-10T08:30:47Z</time>
      </trkpt>
      <trkpt lat="43.9891" lon="7.22828">
        <ele>1242.19</ele>
        <time>2022-10-10T08:30:48Z</time>
      </trkpt>
      <trkpt lat="43.98914" lon="7.22824">
        <ele>1242.2</ele>
        <time>2022-10-10T08:30:49Z</time>
      </trkpt>
      <trkpt lat="43.98916" lon="7.22819">
        <ele>1242.21</ele>
        <time>2022-10-10T08:30:50Z</time>
      </trkpt>
      <trkpt lat="43.9892" lon="7.22814">
        <ele>1242.18</ele>
        <time>2022-10-10T08:30:51Z</time>
      </trkpt>
      <trkpt lat="43.98924" lon="7.2281">
        <ele>1242.26</ele>
        <time>2022-10-10T08:30:52Z</time>
      </trkpt>
      <trkpt lat="43.98928" lon="7.22808">
        <ele>1241.44</ele>
        <time>2022-10-10T08:30:53Z</time>
      </trkpt>
      <trkpt lat="43.98931" lon="7.22805">
        <ele>1241.43</ele>
        <time>2022-10-10T08:30:54Z</time>
      </trkpt>
      <trkpt lat="43.98935" lon="7.228">
        <ele>1241.44</ele>
        <time>2022-10-10T08:30:55Z</time>
      </trkpt>
      <trkpt lat="43.98938" lon="7.22796">
        <ele>1241.42</ele>
        <time>2022-10-10T08:30:56Z</time>
      </trkpt>
      <trkpt lat="43.98941" lon="7.22791">
        <ele>1241.42</ele>
        <time>2022-10-10T08:30:57Z</time>
      </trkpt>
      <trkpt lat="43.98942" lon="7.22785">
        <ele>1241.43</ele>
        <time>2022-10-10T08:30:58Z</time>
      </trkpt>
      <trkpt lat="43.9894" lon="7.22781">
        <ele>1241.41</ele>
        <time>2022-10-10T08:30:59Z</time>
      </trkpt>
      <trkpt lat="43.98937" lon="7.22777">
        <ele>1241.41</ele>
        <time>2022-10-10T08:31:00Z</time>
      </trkpt>
      <trkpt lat="43.98933" lon="7.22772">
        <ele>1241.4</ele>
        <time>2022-10-10T08:31:01Z</time>
      </trkpt>
      <trkpt lat="43.98925" lon="7.22763">
        <ele>1239.37</ele>
        <time>2022-10-10T08:31:03Z</time>
      </trkpt>
      <trkpt lat="43.98922" lon="7.22757">
        <ele>1238.48</ele>
        <time>2022-10-10T08:31:04Z</time>
      </trkpt>
      <trkpt lat="43.98919" lon="7.2275">
        <ele>1238.52</ele>
        <time>2022-10-10T08:31:05Z</time>
      </trkpt>
      <trkpt lat="43.98913" lon="7.22733">
        <ele>1236.57</ele>
        <time>2022-10-10T08:31:07Z</time>
      </trkpt>
      <trkpt lat="43.98907" lon="7.22725">
        <ele>1236.08</ele>
        <time>2022-10-10T08:31:08Z</time>
      </trkpt>
      <trkpt lat="43.9889" lon="7.22703">
        <ele>1233.71</ele>
        <time>2022-10-10T08:31:11Z</time>
      </trkpt>
      <trkpt lat="43.98865" lon="7.22677">
        <ele>1231.34</ele>
        <time>2022-10-10T08:31:15Z</time>
      </trkpt>
      <trkpt lat="43.98859" lon="7.22669">
        <ele>1230.1</ele>
        <time>2022-10-10T08:31:16Z</time>
      </trkpt>
      <trkpt lat="43.98853" lon="7.22661">
        <ele>1228.55</ele>
        <time>2022-10-10T08:31:17Z</time>
      </trkpt>
      <trkpt lat="43.98848" lon="7.22652">
        <ele>1228.45</ele>
        <time>2022-10-10T08:31:18Z</time>
      </trkpt>
      <trkpt lat="43.98833" lon="7.22627">
        <ele>1226.52</ele>
        <time>2022-10-10T08:31:21Z</time>
      </trkpt>
      <trkpt lat="43.98824" lon="7.22608">
        <ele>1223.37</ele>
        <time>2022-10-10T08:31:23Z</time>
      </trkpt>
      <trkpt lat="43.98817" lon="7.22598">
        <ele>1223.37</ele>
        <time>2022-10-10T08:31:24Z</time>
      </trkpt>
      <trkpt lat="43.98794" lon="7.22568">
        <ele>1220.29</ele>
        <time>2022-10-10T08:31:27Z</time>
      </trkpt>
      <trkpt lat="43.98772" lon="7.22536">
        <ele>1216.4</ele>
        <time>2022-10-10T08:31:30Z</time>
      </trkpt>
      <trkpt lat="43.98767" lon="7.22525">
        <ele>1215.57</ele>
        <time>2022-10-10T08:31:31Z</time>
      </trkpt>
      <trkpt lat="43.98762" lon="7.22514">
        <ele>1214.25</ele>
        <time>2022-10-10T08:31:32Z</time>
      </trkpt>
      <trkpt lat="43.98756" lon="7.22501">
        <ele>1213.27</ele>
        <time>2022-10-10T08:31:33Z</time>
      </trkpt>
      <trkpt lat="43.9875" lon="7.2249">
        <ele>1212.26</ele>
        <time>2022-10-10T08:31:34Z</time>
      </trkpt>
      <trkpt lat="43.98745" lon="7.22479">
        <ele>1212.26</ele>
        <time>2022-10-10T08:31:35Z</time>
      </trkpt>
      <trkpt lat="43.98739" lon="7.22466">
        <ele>1211.16</ele>
        <time>2022-10-10T08:31:36Z</time>
      </trkpt>
      <trkpt lat="43.98734" lon="7.22453">
        <ele>1209.72</ele>
        <time>2022-10-10T08:31:37Z</time>
      </trkpt>
      <trkpt lat="43.98722" lon="7.22418">
        <ele>1206.82</ele>
        <time>2022-10-10T08:31:40Z</time>
      </trkpt>
      <trkpt lat="43.9872" lon="7.22407">
        <ele>1205.35</ele>
        <time>2022-10-10T08:31:41Z</time>
      </trkpt>
      <trkpt lat="43.98717" lon="7.22396">
        <ele>1205.33</ele>
        <time>2022-10-10T08:31:42Z</time>
      </trkpt>
      <trkpt lat="43.98713" lon="7.22388">
        <ele>1205.3</ele>
        <time>2022-10-10T08:31:43Z</time>
      </trkpt>
      <trkpt lat="43.98706" lon="7.22382">
        <ele>1203.68</ele>
        <time>2022-10-10T08:31:44Z</time>
      </trkpt>
      <trkpt lat="43.987" lon="7.22376">
        <ele>1203.53</ele>
        <time>2022-10-10T08:31:45Z</time>
      </trkpt>
      <trkpt lat="43.98694" lon="7.22367">
        <ele>1203.56</ele>
        <time>2022-10-10T08:31:46Z</time>
      </trkpt>
      <trkpt lat="43.9869" lon="7.22358">
        <ele>1201.96</ele>
        <time>2022-10-10T08:31:47Z</time>
      </trkpt>
      <trkpt lat="43.98687" lon="7.22349">
        <ele>1202.02</ele>
        <time>2022-10-10T08:31:48Z</time>
      </trkpt>
      <trkpt lat="43.98684" lon="7.22341">
        <ele>1201.88</ele>
        <time>2022-10-10T08:31:49Z</time>
      </trkpt>
      <trkpt lat="43.9868" lon="7.22336">
        <ele>1200.76</ele>
        <time>2022-10-10T08:31:50Z</time>
      </trkpt>
      <trkpt lat="43.98674" lon="7.22331">
        <ele>1200.81</ele>
        <time>2022-10-10T08:31:51Z</time>
      </trkpt>
      <trkpt lat="43.98667" lon="7.22327">
        <ele>1200.92</ele>
        <time>2022-10-10T08:31:52Z</time>
      </trkpt>
      <trkpt lat="43.98654" lon="7.22317">
        <ele>1199.64</ele>
        <time>2022-10-10T08:31:54Z</time>
      </trkpt>
      <trkpt lat="43.98641" lon="7.22305">
        <ele>1198.06</ele>
        <time>2022-10-10T08:31:56Z</time>
      </trkpt>
      <trkpt lat="43.98636" lon="7.22297">
        <ele>1196.87</ele>
        <time>2022-10-10T08:31:57Z</time>
      </trkpt>
      <trkpt lat="43.98631" lon="7.22289">
        <ele>1196.91</ele>
        <time>2022-10-10T08:31:58Z</time>
      </trkpt>
      <trkpt lat="43.98622" lon="7.22271">
        <ele>1195.19</ele>
        <time>2022-10-10T08:32:00Z</time>
      </trkpt>
      <trkpt lat="43.98618" lon="7.22262">
        <ele>1194.15</ele>
        <time>2022-10-10T08:32:01Z</time>
      </trkpt>
      <trkpt lat="43.98613" lon="7.22255">
        <ele>1194.21</ele>
        <time>2022-10-10T08:32:02Z</time>
      </trkpt>
      <trkpt lat="43.98607" lon="7.22248">
        <ele>1192.77</ele>
        <time>2022-10-10T08:32:03Z</time>
      </trkpt>
      <trkpt lat="43.98601" lon="7.22243">
        <ele>1192.67</ele>
        <time>2022-10-10T08:32:04Z</time>
      </trkpt>
      <trkpt lat="43.98594" lon="7.22239">
        <ele>1192.69</ele>
        <time>2022-10-10T08:32:05Z</time>
      </trkpt>
      <trkpt lat="43.98586" lon="7.22235">
        <ele>1191.46</ele>
        <time>2022-10-10T08:32:06Z</time>
      </trkpt>
      <trkpt lat="43.98579" lon="7.22231">
        <ele>1191.45</ele>
        <time>2022-10-10T08:32:07Z</time>
      </trkpt>
      <trkpt lat="43.98565" lon="7.22222">
        <ele>1190.2</ele>
        <time>2022-10-10T08:32:09Z</time>
      </trkpt>
      <trkpt lat="43.98558" lon="7.22219">
        <ele>1188.96</ele>
        <time>2022-10-10T08:32:10Z</time>
      </trkpt>
      <trkpt lat="43.98549" lon="7.22217">
        <ele>1188.96</ele>
        <time>2022-10-10T08:32:11Z</time>
      </trkpt>
      <trkpt lat="43.98541" lon="7.22217">
        <ele>1187.39</ele>
        <time>2022-10-10T08:32:12Z</time>
      </trkpt>
      <trkpt lat="43.98533" lon="7.22218">
        <ele>1187.39</ele>
        <time>2022-10-10T08:32:13Z</time>
      </trkpt>
      <trkpt lat="43.98527" lon="7.22218">
        <ele>1185.8</ele>
        <time>2022-10-10T08:32:14Z</time>
      </trkpt>
      <trkpt lat="43.9852" lon="7.22218">
        <ele>1185.79</ele>
        <time>2022-10-10T08:32:15Z</time>
      </trkpt>
      <trkpt lat="43.98515" lon="7.22214">
        <ele>1184.09</ele>
        <time>2022-10-10T08:32:16Z</time>
      </trkpt>
      <trkpt lat="43.9851" lon="7.22209">
        <ele>1183.2</ele>
        <time>2022-10-10T08:32:17Z</time>
      </trkpt>
      <trkpt lat="43.98507" lon="7.22201">
        <ele>1183.2</ele>
        <time>2022-10-10T08:32:18Z</time>
      </trkpt>
      <trkpt lat="43.98505" lon="7.22191">
        <ele>1181.26</ele>
        <time>2022-10-10T08:32:19Z</time>
      </trkpt>
      <trkpt lat="43.98502" lon="7.22182">
        <ele>1181.27</ele>
        <time>2022-10-10T08:32:20Z</time>
      </trkpt>
      <trkpt lat="43.98499" lon="7.22173">
        <ele>1180.46</ele>
        <time>2022-10-10T08:32:21Z</time>
      </trkpt>
      <trkpt lat="43.98494" lon="7.22164">
        <ele>1179.32</ele>
        <time>2022-10-10T08:32:22Z</time>
      </trkpt>
      <trkpt lat="43.98489" lon="7.22156">
        <ele>1179.17</ele>
        <time>2022-10-10T08:32:23Z</time>
      </trkpt>
      <trkpt lat="43.98484" lon="7.22149">
        <ele>1178.16</ele>
        <time>2022-10-10T08:32:24Z</time>
      </trkpt>
      <trkpt lat="43.98478" lon="7.22143">
        <ele>1178.02</ele>
        <time>2022-10-10T08:32:25Z</time>
      </trkpt>
      <trkpt lat="43.9847" lon="7.22137">
        <ele>1176.93</ele>
        <time>2022-10-10T08:32:26Z</time>
      </trkpt>
      <trkpt lat="43.98461" lon="7.22133">
        <ele>1175.73</ele>
        <time>2022-10-10T08:32:27Z</time>
      </trkpt>
      <trkpt lat="43.98451" lon="7.22131">
        <ele>1174.66</ele>
        <time>2022-10-10T08:32:28Z</time>
      </trkpt>
      <trkpt lat="43.98432" lon="7.22125">
        <ele>1173.54</ele>
        <time>2022-10-10T08:32:30Z</time>
      </trkpt>
      <trkpt lat="43.98413" lon="7.22117">
        <ele>1170.21</ele>
        <time>2022-10-10T08:32:32Z</time>
      </trkpt>
      <trkpt lat="43.98386" lon="7.22102">
        <ele>1168.05</ele>
        <time>2022-10-10T08:32:35Z</time>
      </trkpt>
      <trkpt lat="43.98359" lon="7.22087">
        <ele>1164.38</ele>
        <time>2022-10-10T08:32:38Z</time>
      </trkpt>
      <trkpt lat="43.9835" lon="7.22084">
        <ele>1164.38</ele>
        <time>2022-10-10T08:32:39Z</time>
      </trkpt>
      <trkpt lat="43.98341" lon="7.22081">
        <ele>1162.98</ele>
        <time>2022-10-10T08:32:40Z</time>
      </trkpt>
      <trkpt lat="43.98332" lon="7.22079">
        <ele>1161.79</ele>
        <time>2022-10-10T08:32:41Z</time>
      </trkpt>
      <trkpt lat="43.98314" lon="7.22076">
        <ele>1159.82</ele>
        <time>2022-10-10T08:32:43Z</time>
      </trkpt>
      <trkpt lat="43.98304" lon="7.22075">
        <ele>1158.53</ele>
        <time>2022-10-10T08:32:44Z</time>
      </trkpt>
      <trkpt lat="43.98295" lon="7.22076">
        <ele>1158.44</ele>
        <time>2022-10-10T08:32:45Z</time>
      </trkpt>
      <trkpt lat="43.98277" lon="7.22079">
        <ele>1157.31</ele>
        <time>2022-10-10T08:32:47Z</time>
      </trkpt>
      <trkpt lat="43.98243" lon="7.22089">
        <ele>1154.36</ele>
        <time>2022-10-10T08:32:51Z</time>
      </trkpt>
      <trkpt lat="43.98235" lon="7.22089">
        <ele>1152.73</ele>
        <time>2022-10-10T08:32:52Z</time>
      </trkpt>
      <trkpt lat="43.98218" lon="7.22086">
        <ele>1151.79</ele>
        <time>2022-10-10T08:32:54Z</time>
      </trkpt>
      <trkpt lat="43.98201" lon="7.22084">
        <ele>1150.31</ele>
        <time>2022-10-10T08:32:56Z</time>
      </trkpt>
      <trkpt lat="43.98172" lon="7.22082">
        <ele>1146.46</ele>
        <time>2022-10-10T08:32:59Z</time>
      </trkpt>
      <trkpt lat="43.98162" lon="7.22082">
        <ele>1146.52</ele>
        <time>2022-10-10T08:33:00Z</time>
      </trkpt>
      <trkpt lat="43.98133" lon="7.22082">
        <ele>1144.68</ele>
        <time>2022-10-10T08:33:03Z</time>
      </trkpt>
      <trkpt lat="43.98127" lon="7.22081">
        <ele>1143.21</ele>
        <time>2022-10-10T08:33:04Z</time>
      </trkpt>
      <trkpt lat="43.98123" lon="7.22077">
        <ele>1143.17</ele>
        <time>2022-10-10T08:33:05Z</time>
      </trkpt>
      <trkpt lat="43.98122" lon="7.2207">
        <ele>1142.01</ele>
        <time>2022-10-10T08:33:06Z</time>
      </trkpt>
      <trkpt lat="43.98123" lon="7.22063">
        <ele>1141.91</ele>
        <time>2022-10-10T08:33:07Z</time>
      </trkpt>
      <trkpt lat="43.98127" lon="7.22054">
        <ele>1141.16</ele>
        <time>2022-10-10T08:33:08Z</time>
      </trkpt>
      <trkpt lat="43.98132" lon="7.22046">
        <ele>1141.16</ele>
        <time>2022-10-10T08:33:09Z</time>
      </trkpt>
      <trkpt lat="43.98138" lon="7.2204">
        <ele>1141.19</ele>
        <time>2022-10-10T08:33:10Z</time>
      </trkpt>
      <trkpt lat="43.98144" lon="7.22035">
        <ele>1140.36</ele>
        <time>2022-10-10T08:33:11Z</time>
      </trkpt>
      <trkpt lat="43.98151" lon="7.22033">
        <ele>1140.38</ele>
        <time>2022-10-10T08:33:12Z</time>
      </trkpt>
      <trkpt lat="43.98159" lon="7.22031">
        <ele>1139.93</ele>
        <time>2022-10-10T08:33:13Z</time>
      </trkpt>
      <trkpt lat="43.98167" lon="7.22027">
        <ele>1138.52</ele>
        <time>2022-10-10T08:33:14Z</time>
      </trkpt>
      <trkpt lat="43.98175" lon="7.22023">
        <ele>1138.4</ele>
        <time>2022-10-10T08:33:15Z</time>
      </trkpt>
      <trkpt lat="43.98183" lon="7.22018">
        <ele>1137.07</ele>
        <time>2022-10-10T08:33:16Z</time>
      </trkpt>
      <trkpt lat="43.98191" lon="7.22013">
        <ele>1136.19</ele>
        <time>2022-10-10T08:33:17Z</time>
      </trkpt>
      <trkpt lat="43.98207" lon="7.22002">
        <ele>1135.31</ele>
        <time>2022-10-10T08:33:19Z</time>
      </trkpt>
      <trkpt lat="43.9823" lon="7.21986">
        <ele>1131.96</ele>
        <time>2022-10-10T08:33:22Z</time>
      </trkpt>
      <trkpt lat="43.98238" lon="7.2198">
        <ele>1131.03</ele>
        <time>2022-10-10T08:33:23Z</time>
      </trkpt>
      <trkpt lat="43.98244" lon="7.21973">
        <ele>1129.98</ele>
        <time>2022-10-10T08:33:24Z</time>
      </trkpt>
      <trkpt lat="43.98249" lon="7.21964">
        <ele>1128.85</ele>
        <time>2022-10-10T08:33:25Z</time>
      </trkpt>
      <trkpt lat="43.98253" lon="7.21955">
        <ele>1127.83</ele>
        <time>2022-10-10T08:33:26Z</time>
      </trkpt>
      <trkpt lat="43.98254" lon="7.21945">
        <ele>1127.86</ele>
        <time>2022-10-10T08:33:27Z</time>
      </trkpt>
      <trkpt lat="43.98252" lon="7.21935">
        <ele>1126.56</ele>
        <time>2022-10-10T08:33:28Z</time>
      </trkpt>
      <trkpt lat="43.98248" lon="7.21925">
        <ele>1125.78</ele>
        <time>2022-10-10T08:33:29Z</time>
      </trkpt>
      <trkpt lat="43.98244" lon="7.21916">
        <ele>1125.67</ele>
        <time>2022-10-10T08:33:30Z</time>
      </trkpt>
      <trkpt lat="43.98241" lon="7.21906">
        <ele>1124.58</ele>
        <time>2022-10-10T08:33:31Z</time>
      </trkpt>
      <trkpt lat="43.98239" lon="7.21896">
        <ele>1123.63</ele>
        <time>2022-10-10T08:33:32Z</time>
      </trkpt>
      <trkpt lat="43.98238" lon="7.21887">
        <ele>1122.34</ele>
        <time>2022-10-10T08:33:33Z</time>
      </trkpt>
      <trkpt lat="43.98237" lon="7.21879">
        <ele>1122.46</ele>
        <time>2022-10-10T08:33:34Z</time>
      </trkpt>
      <trkpt lat="43.98239" lon="7.2187">
        <ele>1120.54</ele>
        <time>2022-10-10T08:33:35Z</time>
      </trkpt>
      <trkpt lat="43.98241" lon="7.21863">
        <ele>1120.5</ele>
        <time>2022-10-10T08:33:36Z</time>
      </trkpt>
      <trkpt lat="43.98245" lon="7.21859">
        <ele>1119.26</ele>
        <time>2022-10-10T08:33:37Z</time>
      </trkpt>
      <trkpt lat="43.9825" lon="7.21856">
        <ele>1119.32</ele>
        <time>2022-10-10T08:33:38Z</time>
      </trkpt>
      <trkpt lat="43.98255" lon="7.21854">
        <ele>1117.94</ele>
        <time>2022-10-10T08:33:39Z</time>
      </trkpt>
      <trkpt lat="43.98261" lon="7.21852">
        <ele>1117.95</ele>
        <time>2022-10-10T08:33:40Z</time>
      </trkpt>
      <trkpt lat="43.98267" lon="7.21851">
        <ele>1118.15</ele>
        <time>2022-10-10T08:33:41Z</time>
      </trkpt>
      <trkpt lat="43.98273" lon="7.21849">
        <ele>1116.59</ele>
        <time>2022-10-10T08:33:42Z</time>
      </trkpt>
      <trkpt lat="43.98279" lon="7.21846">
        <ele>1116.04</ele>
        <time>2022-10-10T08:33:43Z</time>
      </trkpt>
      <trkpt lat="43.98285" lon="7.21842">
        <ele>1116.05</ele>
        <time>2022-10-10T08:33:44Z</time>
      </trkpt>
      <trkpt lat="43.98291" lon="7.21838">
        <ele>1115.11</ele>
        <time>2022-10-10T08:33:45Z</time>
      </trkpt>
      <trkpt lat="43.98311" lon="7.21826">
        <ele>1113.1</ele>
        <time>2022-10-10T08:33:48Z</time>
      </trkpt>
      <trkpt lat="43.98318" lon="7.21824">
        <ele>1111.66</ele>
        <time>2022-10-10T08:33:49Z</time>
      </trkpt>
      <trkpt lat="43.98325" lon="7.21822">
        <ele>1111.71</ele>
        <time>2022-10-10T08:33:50Z</time>
      </trkpt>
      <trkpt lat="43.98331" lon="7.21815">
        <ele>1110.81</ele>
        <time>2022-10-10T08:33:51Z</time>
      </trkpt>
      <trkpt lat="43.98336" lon="7.21807">
        <ele>1110.09</ele>
        <time>2022-10-10T08:33:52Z</time>
      </trkpt>
      <trkpt lat="43.98339" lon="7.21797">
        <ele>1108.95</ele>
        <time>2022-10-10T08:33:53Z</time>
      </trkpt>
      <trkpt lat="43.98342" lon="7.21788">
        <ele>1108.11</ele>
        <time>2022-10-10T08:33:54Z</time>
      </trkpt>
      <trkpt lat="43.98345" lon="7.21779">
        <ele>1107.33</ele>
        <time>2022-10-10T08:33:55Z</time>
      </trkpt>
      <trkpt lat="43.98347" lon="7.21768">
        <ele>1107.13</ele>
        <time>2022-10-10T08:33:56Z</time>
      </trkpt>
      <trkpt lat="43.98349" lon="7.21759">
        <ele>1106.12</ele>
        <time>2022-10-10T08:33:57Z</time>
      </trkpt>
      <trkpt lat="43.98352" lon="7.21749">
        <ele>1104.94</ele>
        <time>2022-10-10T08:33:58Z</time>
      </trkpt>
      <trkpt lat="43.98355" lon="7.21738">
        <ele>1103.78</ele>
        <time>2022-10-10T08:33:59Z</time>
      </trkpt>
      <trkpt lat="43.98358" lon="7.21728">
        <ele>1103.8</ele>
        <time>2022-10-10T08:34:00Z</time>
      </trkpt>
      <trkpt lat="43.98362" lon="7.21719">
        <ele>1101.56</ele>
        <time>2022-10-10T08:34:01Z</time>
      </trkpt>
      <trkpt lat="43.98366" lon="7.21712">
        <ele>1101.6</ele>
        <time>2022-10-10T08:34:02Z</time>
      </trkpt>
      <trkpt lat="43.98372" lon="7.21707">
        <ele>1101.5</ele>
        <time>2022-10-10T08:34:03Z</time>
      </trkpt>
      <trkpt lat="43.98378" lon="7.21703">
        <ele>1099.93</ele>
        <time>2022-10-10T08:34:04Z</time>
      </trkpt>
      <trkpt lat="43.98384" lon="7.21699">
        <ele>1099.05</ele>
        <time>2022-10-10T08:34:05Z</time>
      </trkpt>
      <trkpt lat="43.98404" lon="7.21691">
        <ele>1096.65</ele>
        <time>2022-10-10T08:34:08Z</time>
      </trkpt>
      <trkpt lat="43.98412" lon="7.21691">
        <ele>1096.56</ele>
        <time>2022-10-10T08:34:09Z</time>
      </trkpt>
      <trkpt lat="43.9842" lon="7.21691">
        <ele>1095.79</ele>
        <time>2022-10-10T08:34:10Z</time>
      </trkpt>
      <trkpt lat="43.98427" lon="7.21692">
        <ele>1094.55</ele>
        <time>2022-10-10T08:34:11Z</time>
      </trkpt>
      <trkpt lat="43.98435" lon="7.21694">
        <ele>1094.6</ele>
        <time>2022-10-10T08:34:12Z</time>
      </trkpt>
      <trkpt lat="43.98443" lon="7.21694">
        <ele>1093.5</ele>
        <time>2022-10-10T08:34:13Z</time>
      </trkpt>
      <trkpt lat="43.98451" lon="7.21695">
        <ele>1092.52</ele>
        <time>2022-10-10T08:34:14Z</time>
      </trkpt>
      <trkpt lat="43.98458" lon="7.21696">
        <ele>1092.51</ele>
        <time>2022-10-10T08:34:15Z</time>
      </trkpt>
      <trkpt lat="43.98468" lon="7.217">
        <ele>1092.49</ele>
        <time>2022-10-10T08:34:16Z</time>
      </trkpt>
      <trkpt lat="43.98477" lon="7.21704">
        <ele>1090.26</ele>
        <time>2022-10-10T08:34:17Z</time>
      </trkpt>
      <trkpt lat="43.98487" lon="7.21708">
        <ele>1090.26</ele>
        <time>2022-10-10T08:34:18Z</time>
      </trkpt>
      <trkpt lat="43.98517" lon="7.2172">
        <ele>1086.9</ele>
        <time>2022-10-10T08:34:21Z</time>
      </trkpt>
      <trkpt lat="43.98537" lon="7.21726">
        <ele>1086.08</ele>
        <time>2022-10-10T08:34:23Z</time>
      </trkpt>
      <trkpt lat="43.98561" lon="7.21731">
        <ele>1082.81</ele>
        <time>2022-10-10T08:34:25Z</time>
      </trkpt>
      <trkpt lat="43.98583" lon="7.21737">
        <ele>1081.03</ele>
        <time>2022-10-10T08:34:27Z</time>
      </trkpt>
      <trkpt lat="43.98593" lon="7.2174">
        <ele>1078.88</ele>
        <time>2022-10-10T08:34:28Z</time>
      </trkpt>
      <trkpt lat="43.98603" lon="7.21743">
        <ele>1077.88</ele>
        <time>2022-10-10T08:34:29Z</time>
      </trkpt>
      <trkpt lat="43.9861" lon="7.21747">
        <ele>1075.88</ele>
        <time>2022-10-10T08:34:30Z</time>
      </trkpt>
      <trkpt lat="43.98617" lon="7.21748">
        <ele>1075.87</ele>
        <time>2022-10-10T08:34:31Z</time>
      </trkpt>
      <trkpt lat="43.98625" lon="7.21747">
        <ele>1075.09</ele>
        <time>2022-10-10T08:34:32Z</time>
      </trkpt>
      <trkpt lat="43.98631" lon="7.21741">
        <ele>1074.56</ele>
        <time>2022-10-10T08:34:33Z</time>
      </trkpt>
      <trkpt lat="43.98637" lon="7.21734">
        <ele>1073.64</ele>
        <time>2022-10-10T08:34:34Z</time>
      </trkpt>
      <trkpt lat="43.98642" lon="7.21727">
        <ele>1073.64</ele>
        <time>2022-10-10T08:34:35Z</time>
      </trkpt>
      <trkpt lat="43.98647" lon="7.21717">
        <ele>1072.1</ele>
        <time>2022-10-10T08:34:36Z</time>
      </trkpt>
      <trkpt lat="43.98649" lon="7.21707">
        <ele>1072.1</ele>
        <time>2022-10-10T08:34:37Z</time>
      </trkpt>
      <trkpt lat="43.9865" lon="7.21687">
        <ele>1069.93</ele>
        <time>2022-10-10T08:34:39Z</time>
      </trkpt>
      <trkpt lat="43.98652" lon="7.21675">
        <ele>1069.95</ele>
        <time>2022-10-10T08:34:40Z</time>
      </trkpt>
      <trkpt lat="43.98654" lon="7.21665">
        <ele>1068.73</ele>
        <time>2022-10-10T08:34:41Z</time>
      </trkpt>
      <trkpt lat="43.98657" lon="7.21654">
        <ele>1067.73</ele>
        <time>2022-10-10T08:34:42Z</time>
      </trkpt>
      <trkpt lat="43.9866" lon="7.21644">
        <ele>1066.72</ele>
        <time>2022-10-10T08:34:43Z</time>
      </trkpt>
      <trkpt lat="43.98664" lon="7.21636">
        <ele>1065.91</ele>
        <time>2022-10-10T08:34:44Z</time>
      </trkpt>
      <trkpt lat="43.9867" lon="7.2163">
        <ele>1065.06</ele>
        <time>2022-10-10T08:34:45Z</time>
      </trkpt>
      <trkpt lat="43.98676" lon="7.21622">
        <ele>1065.08</ele>
        <time>2022-10-10T08:34:46Z</time>
      </trkpt>
      <trkpt lat="43.9868" lon="7.21614">
        <ele>1064.16</ele>
        <time>2022-10-10T08:34:47Z</time>
      </trkpt>
      <trkpt lat="43.98681" lon="7.21604">
        <ele>1063.01</ele>
        <time>2022-10-10T08:34:48Z</time>
      </trkpt>
      <trkpt lat="43.98679" lon="7.21593">
        <ele>1063.04</ele>
        <time>2022-10-10T08:34:49Z</time>
      </trkpt>
      <trkpt lat="43.98674" lon="7.21582">
        <ele>1062.11</ele>
        <time>2022-10-10T08:34:50Z</time>
      </trkpt>
      <trkpt lat="43.98668" lon="7.21572">
        <ele>1062.05</ele>
        <time>2022-10-10T08:34:51Z</time>
      </trkpt>
      <trkpt lat="43.98662" lon="7.21564">
        <ele>1061.1</ele>
        <time>2022-10-10T08:34:52Z</time>
      </trkpt>
      <trkpt lat="43.98658" lon="7.21555">
        <ele>1060.2</ele>
        <time>2022-10-10T08:34:53Z</time>
      </trkpt>
      <trkpt lat="43.98655" lon="7.21544">
        <ele>1059</ele>
        <time>2022-10-10T08:34:54Z</time>
      </trkpt>
      <trkpt lat="43.98653" lon="7.21518">
        <ele>1057.95</ele>
        <time>2022-10-10T08:34:56Z</time>
      </trkpt>
      <trkpt lat="43.98651" lon="7.21505">
        <ele>1057.5</ele>
        <time>2022-10-10T08:34:57Z</time>
      </trkpt>
      <trkpt lat="43.98648" lon="7.21482">
        <ele>1053.86</ele>
        <time>2022-10-10T08:34:59Z</time>
      </trkpt>
      <trkpt lat="43.98649" lon="7.21474">
        <ele>1052.35</ele>
        <time>2022-10-10T08:35:00Z</time>
      </trkpt>
      <trkpt lat="43.98653" lon="7.21466">
        <ele>1052.27</ele>
        <time>2022-10-10T08:35:01Z</time>
      </trkpt>
      <trkpt lat="43.9866" lon="7.2146">
        <ele>1052.27</ele>
        <time>2022-10-10T08:35:02Z</time>
      </trkpt>
      <trkpt lat="43.98668" lon="7.21455">
        <ele>1050.94</ele>
        <time>2022-10-10T08:35:03Z</time>
      </trkpt>
      <trkpt lat="43.98678" lon="7.21451">
        <ele>1050.86</ele>
        <time>2022-10-10T08:35:04Z</time>
      </trkpt>
      <trkpt lat="43.98689" lon="7.21448">
        <ele>1049.11</ele>
        <time>2022-10-10T08:35:05Z</time>
      </trkpt>
      <trkpt lat="43.98719" lon="7.2144">
        <ele>1046</ele>
        <time>2022-10-10T08:35:08Z</time>
      </trkpt>
      <trkpt lat="43.98728" lon="7.21436">
        <ele>1045.88</ele>
        <time>2022-10-10T08:35:09Z</time>
      </trkpt>
      <trkpt lat="43.98748" lon="7.21429">
        <ele>1042.74</ele>
        <time>2022-10-10T08:35:11Z</time>
      </trkpt>
      <trkpt lat="43.98758" lon="7.21428">
        <ele>1041.93</ele>
        <time>2022-10-10T08:35:12Z</time>
      </trkpt>
      <trkpt lat="43.98767" lon="7.21428">
        <ele>1041.01</ele>
        <time>2022-10-10T08:35:13Z</time>
      </trkpt>
      <trkpt lat="43.98777" lon="7.2143">
        <ele>1040.92</ele>
        <time>2022-10-10T08:35:14Z</time>
      </trkpt>
      <trkpt lat="43.98786" lon="7.21434">
        <ele>1038.83</ele>
        <time>2022-10-10T08:35:15Z</time>
      </trkpt>
      <trkpt lat="43.98795" lon="7.21439">
        <ele>1037.35</ele>
        <time>2022-10-10T08:35:16Z</time>
      </trkpt>
      <trkpt lat="43.98803" lon="7.21444">
        <ele>1037.36</ele>
        <time>2022-10-10T08:35:17Z</time>
      </trkpt>
      <trkpt lat="43.98814" lon="7.21458">
        <ele>1034.89</ele>
        <time>2022-10-10T08:35:19Z</time>
      </trkpt>
      <trkpt lat="43.98823" lon="7.21461">
        <ele>1034.81</ele>
        <time>2022-10-10T08:35:20Z</time>
      </trkpt>
      <trkpt lat="43.98831" lon="7.21461">
        <ele>1034.32</ele>
        <time>2022-10-10T08:35:21Z</time>
      </trkpt>
      <trkpt lat="43.98839" lon="7.21459">
        <ele>1033.16</ele>
        <time>2022-10-10T08:35:22Z</time>
      </trkpt>
      <trkpt lat="43.98847" lon="7.21457">
        <ele>1033.16</ele>
        <time>2022-10-10T08:35:23Z</time>
      </trkpt>
      <trkpt lat="43.98855" lon="7.21456">
        <ele>1031.78</ele>
        <time>2022-10-10T08:35:24Z</time>
      </trkpt>
      <trkpt lat="43.98864" lon="7.21455">
        <ele>1030.04</ele>
        <time>2022-10-10T08:35:25Z</time>
      </trkpt>
      <trkpt lat="43.98873" lon="7.21456">
        <ele>1029.24</ele>
        <time>2022-10-10T08:35:26Z</time>
      </trkpt>
      <trkpt lat="43.98881" lon="7.21458">
        <ele>1028.17</ele>
        <time>2022-10-10T08:35:27Z</time>
      </trkpt>
      <trkpt lat="43.9889" lon="7.21462">
        <ele>1027.34</ele>
        <time>2022-10-10T08:35:28Z</time>
      </trkpt>
      <trkpt lat="43.98899" lon="7.21464">
        <ele>1027.3</ele>
        <time>2022-10-10T08:35:29Z</time>
      </trkpt>
      <trkpt lat="43.98918" lon="7.21469">
        <ele>1024.22</ele>
        <time>2022-10-10T08:35:31Z</time>
      </trkpt>
      <trkpt lat="43.98934" lon="7.21476">
        <ele>1022.79</ele>
        <time>2022-10-10T08:35:33Z</time>
      </trkpt>
      <trkpt lat="43.98941" lon="7.21481">
        <ele>1021.32</ele>
        <time>2022-10-10T08:35:34Z</time>
      </trkpt>
      <trkpt lat="43.98948" lon="7.21489">
        <ele>1020.44</ele>
        <time>2022-10-10T08:35:35Z</time>
      </trkpt>
      <trkpt lat="43.98954" lon="7.215">
        <ele>1019.16</ele>
        <time>2022-10-10T08:35:36Z</time>
      </trkpt>
      <trkpt lat="43.9896" lon="7.21509">
        <ele>1019.18</ele>
        <time>2022-10-10T08:35:37Z</time>
      </trkpt>
      <trkpt lat="43.98967" lon="7.21518">
        <ele>1017.24</ele>
        <time>2022-10-10T08:35:38Z</time>
      </trkpt>
      <trkpt lat="43.98973" lon="7.21524">
        <ele>1016.42</ele>
        <time>2022-10-10T08:35:39Z</time>
      </trkpt>
      <trkpt lat="43.98979" lon="7.21528">
        <ele>1015.26</ele>
        <time>2022-10-10T08:35:40Z</time>
      </trkpt>
      <trkpt lat="43.98986" lon="7.2153">
        <ele>1015.12</ele>
        <time>2022-10-10T08:35:41Z</time>
      </trkpt>
      <trkpt lat="43.98992" lon="7.21528">
        <ele>1015.14</ele>
        <time>2022-10-10T08:35:42Z</time>
      </trkpt>
      <trkpt lat="43.98996" lon="7.21524">
        <ele>1014.28</ele>
        <time>2022-10-10T08:35:43Z</time>
      </trkpt>
      <trkpt lat="43.98999" lon="7.21519">
        <ele>1014.31</ele>
        <time>2022-10-10T08:35:44Z</time>
      </trkpt>
      <trkpt lat="43.99001" lon="7.21513">
        <ele>1015.05</ele>
        <time>2022-10-10T08:35:45Z</time>
      </trkpt>
      <trkpt lat="43.99005" lon="7.2151">
        <ele>1014.32</ele>
        <time>2022-10-10T08:35:46Z</time>
      </trkpt>
      <trkpt lat="43.99009" lon="7.21507">
        <ele>1014.16</ele>
        <time>2022-10-10T08:35:47Z</time>
      </trkpt>
      <trkpt lat="43.99013" lon="7.21507">
        <ele>1014.16</ele>
        <time>2022-10-10T08:35:48Z</time>
      </trkpt>
      <trkpt lat="43.99018" lon="7.21507">
        <ele>1014.09</ele>
        <time>2022-10-10T08:35:49Z</time>
      </trkpt>
      <trkpt lat="43.99026" lon="7.2151">
        <ele>1014.11</ele>
        <time>2022-10-10T08:35:50Z</time>
      </trkpt>
      <trkpt lat="43.99033" lon="7.21514">
        <ele>1012.93</ele>
        <time>2022-10-10T08:35:51Z</time>
      </trkpt>
      <trkpt lat="43.9904" lon="7.21519">
        <ele>1012.09</ele>
        <time>2022-10-10T08:35:52Z</time>
      </trkpt>
      <trkpt lat="43.99046" lon="7.21525">
        <ele>1012.11</ele>
        <time>2022-10-10T08:35:53Z</time>
      </trkpt>
      <trkpt lat="43.99051" lon="7.21532">
        <ele>1010.77</ele>
        <time>2022-10-10T08:35:54Z</time>
      </trkpt>
      <trkpt lat="43.99057" lon="7.21538">
        <ele>1010.79</ele>
        <time>2022-10-10T08:35:55Z</time>
      </trkpt>
      <trkpt lat="43.99064" lon="7.21539">
        <ele>1009.72</ele>
        <time>2022-10-10T08:35:56Z</time>
      </trkpt>
      <trkpt lat="43.9907" lon="7.21537">
        <ele>1009.66</ele>
        <time>2022-10-10T08:35:57Z</time>
      </trkpt>
      <trkpt lat="43.99072" lon="7.21532">
        <ele>1008.75</ele>
        <time>2022-10-10T08:35:58Z</time>
      </trkpt>
      <trkpt lat="43.99074" lon="7.21519">
        <ele>1008.77</ele>
        <time>2022-10-10T08:36:00Z</time>
      </trkpt>
      <trkpt lat="43.99073" lon="7.21511">
        <ele>1007.91</ele>
        <time>2022-10-10T08:36:01Z</time>
      </trkpt>
      <trkpt lat="43.9907" lon="7.21504">
        <ele>1007.93</ele>
        <time>2022-10-10T08:36:02Z</time>
      </trkpt>
      <trkpt lat="43.9905" lon="7.21469">
        <ele>1006.33</ele>
        <time>2022-10-10T08:36:07Z</time>
      </trkpt>
      <trkpt lat="43.99045" lon="7.21464">
        <ele>1006.34</ele>
        <time>2022-10-10T08:36:08Z</time>
      </trkpt>
      <trkpt lat="43.9904" lon="7.21459">
        <ele>1005.79</ele>
        <time>2022-10-10T08:36:09Z</time>
      </trkpt>
      <trkpt lat="43.99026" lon="7.21441">
        <ele>1005.8</ele>
        <time>2022-10-10T08:36:12Z</time>
      </trkpt>
      <trkpt lat="43.99021" lon="7.21434">
        <ele>1004.62</ele>
        <time>2022-10-10T08:36:13Z</time>
      </trkpt>
      <trkpt lat="43.99017" lon="7.21425">
        <ele>1004.63</ele>
        <time>2022-10-10T08:36:14Z</time>
      </trkpt>
      <trkpt lat="43.99014" lon="7.21416">
        <ele>1004.6</ele>
        <time>2022-10-10T08:36:15Z</time>
      </trkpt>
      <trkpt lat="43.99013" lon="7.21407">
        <ele>1004.62</ele>
        <time>2022-10-10T08:36:16Z</time>
      </trkpt>
      <trkpt lat="43.99011" lon="7.21397">
        <ele>1002.99</ele>
        <time>2022-10-10T08:36:17Z</time>
      </trkpt>
      <trkpt lat="43.99009" lon="7.21386">
        <ele>1002.97</ele>
        <time>2022-10-10T08:36:18Z</time>
      </trkpt>
      <trkpt lat="43.99007" lon="7.21375">
        <ele>1001.92</ele>
        <time>2022-10-10T08:36:19Z</time>
      </trkpt>
      <trkpt lat="43.99004" lon="7.21367">
        <ele>1001.92</ele>
        <time>2022-10-10T08:36:20Z</time>
      </trkpt>
      <trkpt lat="43.99" lon="7.21358">
        <ele>1001.93</ele>
        <time>2022-10-10T08:36:21Z</time>
      </trkpt>
      <trkpt lat="43.98994" lon="7.2135">
        <ele>1001.93</ele>
        <time>2022-10-10T08:36:22Z</time>
      </trkpt>
      <trkpt lat="43.98985" lon="7.21333">
        <ele>1001.95</ele>
        <time>2022-10-10T08:36:24Z</time>
      </trkpt>
      <trkpt lat="43.98982" lon="7.21324">
        <ele>1001.98</ele>
        <time>2022-10-10T08:36:25Z</time>
      </trkpt>
      <trkpt lat="43.98975" lon="7.21308">
        <ele>1002</ele>
        <time>2022-10-10T08:36:27Z</time>
      </trkpt>
      <trkpt lat="43.9897" lon="7.21299">
        <ele>1002.01</ele>
        <time>2022-10-10T08:36:28Z</time>
      </trkpt>
      <trkpt lat="43.9896" lon="7.21285">
        <ele>1002.03</ele>
        <time>2022-10-10T08:36:30Z</time>
      </trkpt>
      <trkpt lat="43.98954" lon="7.2128">
        <ele>1002.05</ele>
        <time>2022-10-10T08:36:31Z</time>
      </trkpt>
      <trkpt lat="43.98916" lon="7.2124">
        <ele>1002.12</ele>
        <time>2022-10-10T08:36:38Z</time>
      </trkpt>
      <trkpt lat="43.98913" lon="7.21235">
        <ele>1002.13</ele>
        <time>2022-10-10T08:36:39Z</time>
      </trkpt>
      <trkpt lat="43.98911" lon="7.21229">
        <ele>1002.15</ele>
        <time>2022-10-10T08:36:40Z</time>
      </trkpt>
      <trkpt lat="43.9891" lon="7.21222">
        <ele>1002.15</ele>
        <time>2022-10-10T08:36:41Z</time>
      </trkpt>
      <trkpt lat="43.98909" lon="7.21214">
        <ele>1002.15</ele>
        <time>2022-10-10T08:36:42Z</time>
      </trkpt>
      <trkpt lat="43.98909" lon="7.21207">
        <ele>1002.16</ele>
        <time>2022-10-10T08:36:43Z</time>
      </trkpt>
      <trkpt lat="43.9891" lon="7.212">
        <ele>1002.15</ele>
        <time>2022-10-10T08:36:44Z</time>
      </trkpt>
      <trkpt lat="43.98911" lon="7.21191">
        <ele>1002.18</ele>
        <time>2022-10-10T08:36:45Z</time>
      </trkpt>
      <trkpt lat="43.98913" lon="7.21183">
        <ele>1001.18</ele>
        <time>2022-10-10T08:36:46Z</time>
      </trkpt>
      <trkpt lat="43.98917" lon="7.21177">
        <ele>1001.15</ele>
        <time>2022-10-10T08:36:47Z</time>
      </trkpt>
      <trkpt lat="43.98922" lon="7.2117">
        <ele>1000.1</ele>
        <time>2022-10-10T08:36:48Z</time>
      </trkpt>
      <trkpt lat="43.98928" lon="7.21165">
        <ele>1000.08</ele>
        <time>2022-10-10T08:36:49Z</time>
      </trkpt>
      <trkpt lat="43.98936" lon="7.21159">
        <ele>1000.06</ele>
        <time>2022-10-10T08:36:50Z</time>
      </trkpt>
      <trkpt lat="43.98944" lon="7.21154">
        <ele>1000.04</ele>
        <time>2022-10-10T08:36:51Z</time>
      </trkpt>
      <trkpt lat="43.98951" lon="7.21149">
        <ele>999.11</ele>
        <time>2022-10-10T08:36:52Z</time>
      </trkpt>
      <trkpt lat="43.98959" lon="7.21145">
        <ele>999.11</ele>
        <time>2022-10-10T08:36:53Z</time>
      </trkpt>
      <trkpt lat="43.98967" lon="7.21139">
        <ele>999.09</ele>
        <time>2022-10-10T08:36:54Z</time>
      </trkpt>
      <trkpt lat="43.98975" lon="7.21131">
        <ele>999.07</ele>
        <time>2022-10-10T08:36:55Z</time>
      </trkpt>
      <trkpt lat="43.98982" lon="7.21122">
        <ele>999.07</ele>
        <time>2022-10-10T08:36:56Z</time>
      </trkpt>
      <trkpt lat="43.99002" lon="7.21093">
        <ele>997.78</ele>
        <time>2022-10-10T08:36:59Z</time>
      </trkpt>
      <trkpt lat="43.99021" lon="7.21071">
        <ele>996.45</ele>
        <time>2022-10-10T08:37:02Z</time>
      </trkpt>
      <trkpt lat="43.99026" lon="7.21063">
        <ele>996.41</ele>
        <time>2022-10-10T08:37:03Z</time>
      </trkpt>
      <trkpt lat="43.99031" lon="7.21055">
        <ele>996.42</ele>
        <time>2022-10-10T08:37:04Z</time>
      </trkpt>
      <trkpt lat="43.99035" lon="7.21047">
        <ele>996.39</ele>
        <time>2022-10-10T08:37:05Z</time>
      </trkpt>
      <trkpt lat="43.9904" lon="7.2104">
        <ele>996.41</ele>
        <time>2022-10-10T08:37:06Z</time>
      </trkpt>
      <trkpt lat="43.99045" lon="7.21034">
        <ele>995.64</ele>
        <time>2022-10-10T08:37:07Z</time>
      </trkpt>
      <trkpt lat="43.9905" lon="7.2103">
        <ele>995.63</ele>
        <time>2022-10-10T08:37:08Z</time>
      </trkpt>
      <trkpt lat="43.99055" lon="7.21026">
        <ele>995.64</ele>
        <time>2022-10-10T08:37:09Z</time>
      </trkpt>
      <trkpt lat="43.99059" lon="7.21021">
        <ele>995.63</ele>
        <time>2022-10-10T08:37:10Z</time>
      </trkpt>
      <trkpt lat="43.99061" lon="7.21016">
        <ele>995.63</ele>
        <time>2022-10-10T08:37:11Z</time>
      </trkpt>
      <trkpt lat="43.9906" lon="7.2101">
        <ele>994.84</ele>
        <time>2022-10-10T08:37:12Z</time>
      </trkpt>
      <trkpt lat="43.99058" lon="7.21006">
        <ele>994.84</ele>
        <time>2022-10-10T08:37:13Z</time>
      </trkpt>
      <trkpt lat="43.99054" lon="7.21003">
        <ele>994.86</ele>
        <time>2022-10-10T08:37:14Z</time>
      </trkpt>
      <trkpt lat="43.99048" lon="7.21002">
        <ele>994.84</ele>
        <time>2022-10-10T08:37:15Z</time>
      </trkpt>
      <trkpt lat="43.99042" lon="7.21">
        <ele>994.85</ele>
        <time>2022-10-10T08:37:16Z</time>
      </trkpt>
      <trkpt lat="43.99035" lon="7.21001">
        <ele>994.84</ele>
        <time>2022-10-10T08:37:17Z</time>
      </trkpt>
      <trkpt lat="43.99028" lon="7.21">
        <ele>994.91</ele>
        <time>2022-10-10T08:37:18Z</time>
      </trkpt>
      <trkpt lat="43.9902" lon="7.21">
        <ele>994.93</ele>
        <time>2022-10-10T08:37:19Z</time>
      </trkpt>
      <trkpt lat="43.99012" lon="7.21002">
        <ele>994.93</ele>
        <time>2022-10-10T08:37:20Z</time>
      </trkpt>
      <trkpt lat="43.99004" lon="7.21007">
        <ele>994.96</ele>
        <time>2022-10-10T08:37:21Z</time>
      </trkpt>
      <trkpt lat="43.98997" lon="7.21011">
        <ele>994.92</ele>
        <time>2022-10-10T08:37:22Z</time>
      </trkpt>
      <trkpt lat="43.98985" lon="7.21017">
        <ele>993.93</ele>
        <time>2022-10-10T08:37:24Z</time>
      </trkpt>
      <trkpt lat="43.98979" lon="7.21018">
        <ele>993.93</ele>
        <time>2022-10-10T08:37:25Z</time>
      </trkpt>
      <trkpt lat="43.98972" lon="7.21016">
        <ele>993.91</ele>
        <time>2022-10-10T08:37:26Z</time>
      </trkpt>
      <trkpt lat="43.98965" lon="7.21014">
        <ele>993.97</ele>
        <time>2022-10-10T08:37:27Z</time>
      </trkpt>
      <trkpt lat="43.98958" lon="7.2101">
        <ele>993.93</ele>
        <time>2022-10-10T08:37:28Z</time>
      </trkpt>
      <trkpt lat="43.98952" lon="7.21005">
        <ele>994.03</ele>
        <time>2022-10-10T08:37:29Z</time>
      </trkpt>
      <trkpt lat="43.98947" lon="7.20997">
        <ele>993</ele>
        <time>2022-10-10T08:37:30Z</time>
      </trkpt>
      <trkpt lat="43.98943" lon="7.2099">
        <ele>993.01</ele>
        <time>2022-10-10T08:37:31Z</time>
      </trkpt>
      <trkpt lat="43.98932" lon="7.20972">
        <ele>991.69</ele>
        <time>2022-10-10T08:37:34Z</time>
      </trkpt>
      <trkpt lat="43.98928" lon="7.20968">
        <ele>991.89</ele>
        <time>2022-10-10T08:37:35Z</time>
      </trkpt>
      <trkpt lat="43.98923" lon="7.20966">
        <ele>991.87</ele>
        <time>2022-10-10T08:37:36Z</time>
      </trkpt>
      <trkpt lat="43.9892" lon="7.2097">
        <ele>991.87</ele>
        <time>2022-10-10T08:37:37Z</time>
      </trkpt>
      <trkpt lat="43.98917" lon="7.20973">
        <ele>991.84</ele>
        <time>2022-10-10T08:37:38Z</time>
      </trkpt>
      <trkpt lat="43.98916" lon="7.20978">
        <ele>991.84</ele>
        <time>2022-10-10T08:37:39Z</time>
      </trkpt>
      <trkpt lat="43.98915" lon="7.20984">
        <ele>991.85</ele>
        <time>2022-10-10T08:37:40Z</time>
      </trkpt>
      <trkpt lat="43.98912" lon="7.21006">
        <ele>991.82</ele>
        <time>2022-10-10T08:37:44Z</time>
      </trkpt>
      <trkpt lat="43.98911" lon="7.21011">
        <ele>991.81</ele>
        <time>2022-10-10T08:37:45Z</time>
      </trkpt>
      <trkpt lat="43.98909" lon="7.21015">
        <ele>991.78</ele>
        <time>2022-10-10T08:37:46Z</time>
      </trkpt>
      <trkpt lat="43.98907" lon="7.21019">
        <ele>991.78</ele>
        <time>2022-10-10T08:37:47Z</time>
      </trkpt>
      <trkpt lat="43.98903" lon="7.21021">
        <ele>991.76</ele>
        <time>2022-10-10T08:37:48Z</time>
      </trkpt>
      <trkpt lat="43.98897" lon="7.21022">
        <ele>991.8</ele>
        <time>2022-10-10T08:37:49Z</time>
      </trkpt>
      <trkpt lat="43.98892" lon="7.21022">
        <ele>991.86</ele>
        <time>2022-10-10T08:37:50Z</time>
      </trkpt>
      <trkpt lat="43.98886" lon="7.2102">
        <ele>991.85</ele>
        <time>2022-10-10T08:37:51Z</time>
      </trkpt>
      <trkpt lat="43.9888" lon="7.21017">
        <ele>991.89</ele>
        <time>2022-10-10T08:37:52Z</time>
      </trkpt>
      <trkpt lat="43.98873" lon="7.21013">
        <ele>991.86</ele>
        <time>2022-10-10T08:37:53Z</time>
      </trkpt>
      <trkpt lat="43.98867" lon="7.2101">
        <ele>991.9</ele>
        <time>2022-10-10T08:37:54Z</time>
      </trkpt>
      <trkpt lat="43.9886" lon="7.21007">
        <ele>991.88</ele>
        <time>2022-10-10T08:37:55Z</time>
      </trkpt>
      <trkpt lat="43.98852" lon="7.21006">
        <ele>991.87</ele>
        <time>2022-10-10T08:37:56Z</time>
      </trkpt>
      <trkpt lat="43.98844" lon="7.21008">
        <ele>991.88</ele>
        <time>2022-10-10T08:37:57Z</time>
      </trkpt>
      <trkpt lat="43.98836" lon="7.21009">
        <ele>991.88</ele>
        <time>2022-10-10T08:37:58Z</time>
      </trkpt>
      <trkpt lat="43.98829" lon="7.21009">
        <ele>991.83</ele>
        <time>2022-10-10T08:37:59Z</time>
      </trkpt>
      <trkpt lat="43.98822" lon="7.21009">
        <ele>991.75</ele>
        <time>2022-10-10T08:38:00Z</time>
      </trkpt>
      <trkpt lat="43.98809" lon="7.21009">
        <ele>991.75</ele>
        <time>2022-10-10T08:38:02Z</time>
      </trkpt>
      <trkpt lat="43.98803" lon="7.21007">
        <ele>991.74</ele>
        <time>2022-10-10T08:38:03Z</time>
      </trkpt>
      <trkpt lat="43.98796" lon="7.21004">
        <ele>991.73</ele>
        <time>2022-10-10T08:38:04Z</time>
      </trkpt>
      <trkpt lat="43.9879" lon="7.20999">
        <ele>991.72</ele>
        <time>2022-10-10T08:38:05Z</time>
      </trkpt>
      <trkpt lat="43.98785" lon="7.20994">
        <ele>991.72</ele>
        <time>2022-10-10T08:38:06Z</time>
      </trkpt>
      <trkpt lat="43.9878" lon="7.20988">
        <ele>991.71</ele>
        <time>2022-10-10T08:38:07Z</time>
      </trkpt>
      <trkpt lat="43.98732" lon="7.20952">
        <ele>991.62</ele>
        <time>2022-10-10T08:38:15Z</time>
      </trkpt>
      <trkpt lat="43.9872" lon="7.20948">
        <ele>991.57</ele>
        <time>2022-10-10T08:38:17Z</time>
      </trkpt>
      <trkpt lat="43.98676" lon="7.20947">
        <ele>991.44</ele>
        <time>2022-10-10T08:38:24Z</time>
      </trkpt>
      <trkpt lat="43.9867" lon="7.20949">
        <ele>991.42</ele>
        <time>2022-10-10T08:38:25Z</time>
      </trkpt>
      <trkpt lat="43.98654" lon="7.20957">
        <ele>991.38</ele>
        <time>2022-10-10T08:38:28Z</time>
      </trkpt>
      <trkpt lat="43.98635" lon="7.20971">
        <ele>991.32</ele>
        <time>2022-10-10T08:38:31Z</time>
      </trkpt>
      <trkpt lat="43.98627" lon="7.20975">
        <ele>991.3</ele>
        <time>2022-10-10T08:38:32Z</time>
      </trkpt>
      <trkpt lat="43.9861" lon="7.20982">
        <ele>990.06</ele>
        <time>2022-10-10T08:38:34Z</time>
      </trkpt>
      <trkpt lat="43.98602" lon="7.20984">
        <ele>990.05</ele>
        <time>2022-10-10T08:38:35Z</time>
      </trkpt>
      <trkpt lat="43.98594" lon="7.20984">
        <ele>990.01</ele>
        <time>2022-10-10T08:38:36Z</time>
      </trkpt>
      <trkpt lat="43.98587" lon="7.20986">
        <ele>990.01</ele>
        <time>2022-10-10T08:38:37Z</time>
      </trkpt>
      <trkpt lat="43.9858" lon="7.20987">
        <ele>990</ele>
        <time>2022-10-10T08:38:38Z</time>
      </trkpt>
      <trkpt lat="43.98574" lon="7.20985">
        <ele>989.98</ele>
        <time>2022-10-10T08:38:39Z</time>
      </trkpt>
      <trkpt lat="43.98569" lon="7.20982">
        <ele>989.04</ele>
        <time>2022-10-10T08:38:40Z</time>
      </trkpt>
      <trkpt lat="43.98566" lon="7.20976">
        <ele>989.04</ele>
        <time>2022-10-10T08:38:41Z</time>
      </trkpt>
      <trkpt lat="43.98564" lon="7.20967">
        <ele>989.06</ele>
        <time>2022-10-10T08:38:42Z</time>
      </trkpt>
      <trkpt lat="43.98565" lon="7.20959">
        <ele>989.03</ele>
        <time>2022-10-10T08:38:43Z</time>
      </trkpt>
      <trkpt lat="43.98565" lon="7.20951">
        <ele>989.02</ele>
        <time>2022-10-10T08:38:44Z</time>
      </trkpt>
      <trkpt lat="43.98567" lon="7.20931">
        <ele>989</ele>
        <time>2022-10-10T08:38:46Z</time>
      </trkpt>
      <trkpt lat="43.98566" lon="7.2092">
        <ele>989.04</ele>
        <time>2022-10-10T08:38:47Z</time>
      </trkpt>
      <trkpt lat="43.98564" lon="7.20909">
        <ele>989.03</ele>
        <time>2022-10-10T08:38:48Z</time>
      </trkpt>
      <trkpt lat="43.9856" lon="7.20898">
        <ele>989</ele>
        <time>2022-10-10T08:38:49Z</time>
      </trkpt>
      <trkpt lat="43.98556" lon="7.20889">
        <ele>989.02</ele>
        <time>2022-10-10T08:38:50Z</time>
      </trkpt>
      <trkpt lat="43.9855" lon="7.20881">
        <ele>991.93</ele>
        <time>2022-10-10T08:38:51Z</time>
      </trkpt>
      <trkpt lat="43.98544" lon="7.20875">
        <ele>991.91</ele>
        <time>2022-10-10T08:38:52Z</time>
      </trkpt>
      <trkpt lat="43.98511" lon="7.20841">
        <ele>992.83</ele>
        <time>2022-10-10T08:38:58Z</time>
      </trkpt>
      <trkpt lat="43.98502" lon="7.20828">
        <ele>992.86</ele>
        <time>2022-10-10T08:39:00Z</time>
      </trkpt>
      <trkpt lat="43.98495" lon="7.20824">
        <ele>992.87</ele>
        <time>2022-10-10T08:39:01Z</time>
      </trkpt>
      <trkpt lat="43.98471" lon="7.20816">
        <ele>993.89</ele>
        <time>2022-10-10T08:39:04Z</time>
      </trkpt>
      <trkpt lat="43.98462" lon="7.20814">
        <ele>993.91</ele>
        <time>2022-10-10T08:39:05Z</time>
      </trkpt>
      <trkpt lat="43.98452" lon="7.20815">
        <ele>993.88</ele>
        <time>2022-10-10T08:39:06Z</time>
      </trkpt>
      <trkpt lat="43.98442" lon="7.20816">
        <ele>995.27</ele>
        <time>2022-10-10T08:39:07Z</time>
      </trkpt>
      <trkpt lat="43.98432" lon="7.20815">
        <ele>995.32</ele>
        <time>2022-10-10T08:39:08Z</time>
      </trkpt>
      <trkpt lat="43.98422" lon="7.20813">
        <ele>995.37</ele>
        <time>2022-10-10T08:39:09Z</time>
      </trkpt>
      <trkpt lat="43.98342" lon="7.20819">
        <ele>996.86</ele>
        <time>2022-10-10T08:39:17Z</time>
      </trkpt>
      <trkpt lat="43.98335" lon="7.20818">
        <ele>996.85</ele>
        <time>2022-10-10T08:39:18Z</time>
      </trkpt>
      <trkpt lat="43.9833" lon="7.20813">
        <ele>996.85</ele>
        <time>2022-10-10T08:39:19Z</time>
      </trkpt>
      <trkpt lat="43.98326" lon="7.20805">
        <ele>996.86</ele>
        <time>2022-10-10T08:39:20Z</time>
      </trkpt>
      <trkpt lat="43.98324" lon="7.20793">
        <ele>996.87</ele>
        <time>2022-10-10T08:39:21Z</time>
      </trkpt>
      <trkpt lat="43.98324" lon="7.20779">
        <ele>996.86</ele>
        <time>2022-10-10T08:39:22Z</time>
      </trkpt>
      <trkpt lat="43.98324" lon="7.20763">
        <ele>996.87</ele>
        <time>2022-10-10T08:39:23Z</time>
      </trkpt>
      <trkpt lat="43.98322" lon="7.20693">
        <ele>996.79</ele>
        <time>2022-10-10T08:39:28Z</time>
      </trkpt>
      <trkpt lat="43.9832" lon="7.20682">
        <ele>996.77</ele>
        <time>2022-10-10T08:39:29Z</time>
      </trkpt>
      <trkpt lat="43.98318" lon="7.20671">
        <ele>996.76</ele>
        <time>2022-10-10T08:39:30Z</time>
      </trkpt>
      <trkpt lat="43.98317" lon="7.2066">
        <ele>996.75</ele>
        <time>2022-10-10T08:39:31Z</time>
      </trkpt>
      <trkpt lat="43.98317" lon="7.20649">
        <ele>996.75</ele>
        <time>2022-10-10T08:39:32Z</time>
      </trkpt>
      <trkpt lat="43.98318" lon="7.20638">
        <ele>996.74</ele>
        <time>2022-10-10T08:39:33Z</time>
      </trkpt>
      <trkpt lat="43.98319" lon="7.20627">
        <ele>996.75</ele>
        <time>2022-10-10T08:39:34Z</time>
      </trkpt>
      <trkpt lat="43.9832" lon="7.20615">
        <ele>996.76</ele>
        <time>2022-10-10T08:39:35Z</time>
      </trkpt>
      <trkpt lat="43.98321" lon="7.20602">
        <ele>996.73</ele>
        <time>2022-10-10T08:39:36Z</time>
      </trkpt>
      <trkpt lat="43.9832" lon="7.20591">
        <ele>996.73</ele>
        <time>2022-10-10T08:39:37Z</time>
      </trkpt>
      <trkpt lat="43.98318" lon="7.2058">
        <ele>996.74</ele>
        <time>2022-10-10T08:39:38Z</time>
      </trkpt>
      <trkpt lat="43.98316" lon="7.20569">
        <ele>997.7</ele>
        <time>2022-10-10T08:39:39Z</time>
      </trkpt>
      <trkpt lat="43.98314" lon="7.20557">
        <ele>997.69</ele>
        <time>2022-10-10T08:39:40Z</time>
      </trkpt>
      <trkpt lat="43.98313" lon="7.20545">
        <ele>999.21</ele>
        <time>2022-10-10T08:39:41Z</time>
      </trkpt>
      <trkpt lat="43.98312" lon="7.20532">
        <ele>999.22</ele>
        <time>2022-10-10T08:39:42Z</time>
      </trkpt>
      <trkpt lat="43.98311" lon="7.2052">
        <ele>1000.02</ele>
        <time>2022-10-10T08:39:43Z</time>
      </trkpt>
      <trkpt lat="43.9831" lon="7.20508">
        <ele>1000.03</ele>
        <time>2022-10-10T08:39:44Z</time>
      </trkpt>
      <trkpt lat="43.98302" lon="7.20456">
        <ele>1002.55</ele>
        <time>2022-10-10T08:39:48Z</time>
      </trkpt>
      <trkpt lat="43.98296" lon="7.20419">
        <ele>1004.33</ele>
        <time>2022-10-10T08:39:51Z</time>
      </trkpt>
      <trkpt lat="43.98295" lon="7.20406">
        <ele>1004.35</ele>
        <time>2022-10-10T08:39:52Z</time>
      </trkpt>
      <trkpt lat="43.98294" lon="7.20393">
        <ele>1005.53</ele>
        <time>2022-10-10T08:39:53Z</time>
      </trkpt>
      <trkpt lat="43.98294" lon="7.20381">
        <ele>1005.57</ele>
        <time>2022-10-10T08:39:54Z</time>
      </trkpt>
      <trkpt lat="43.98291" lon="7.20349">
        <ele>1006.44</ele>
        <time>2022-10-10T08:39:57Z</time>
      </trkpt>
      <trkpt lat="43.98291" lon="7.2034">
        <ele>1007.48</ele>
        <time>2022-10-10T08:39:58Z</time>
      </trkpt>
      <trkpt lat="43.98291" lon="7.20331">
        <ele>1007.47</ele>
        <time>2022-10-10T08:39:59Z</time>
      </trkpt>
      <trkpt lat="43.9829" lon="7.20323">
        <ele>1007.47</ele>
        <time>2022-10-10T08:40:00Z</time>
      </trkpt>
      <trkpt lat="43.98287" lon="7.20318">
        <ele>1008.2</ele>
        <time>2022-10-10T08:40:01Z</time>
      </trkpt>
      <trkpt lat="43.98283" lon="7.20313">
        <ele>1008.28</ele>
        <time>2022-10-10T08:40:02Z</time>
      </trkpt>
      <trkpt lat="43.98279" lon="7.20311">
        <ele>1008.21</ele>
        <time>2022-10-10T08:40:03Z</time>
      </trkpt>
      <trkpt lat="43.98274" lon="7.20311">
        <ele>1008.69</ele>
        <time>2022-10-10T08:40:04Z</time>
      </trkpt>
      <trkpt lat="43.98269" lon="7.20311">
        <ele>1008.69</ele>
        <time>2022-10-10T08:40:05Z</time>
      </trkpt>
      <trkpt lat="43.98263" lon="7.2031">
        <ele>1009.05</ele>
        <time>2022-10-10T08:40:06Z</time>
      </trkpt>
      <trkpt lat="43.98258" lon="7.20308">
        <ele>1008.99</ele>
        <time>2022-10-10T08:40:07Z</time>
      </trkpt>
      <trkpt lat="43.98253" lon="7.20305">
        <ele>1010.03</ele>
        <time>2022-10-10T08:40:08Z</time>
      </trkpt>
      <trkpt lat="43.98249" lon="7.20301">
        <ele>1009.74</ele>
        <time>2022-10-10T08:40:09Z</time>
      </trkpt>
      <trkpt lat="43.98244" lon="7.20296">
        <ele>1010.02</ele>
        <time>2022-10-10T08:40:10Z</time>
      </trkpt>
      <trkpt lat="43.98239" lon="7.2029">
        <ele>1010.71</ele>
        <time>2022-10-10T08:40:11Z</time>
      </trkpt>
      <trkpt lat="43.98234" lon="7.20286">
        <ele>1010.74</ele>
        <time>2022-10-10T08:40:12Z</time>
      </trkpt>
      <trkpt lat="43.98228" lon="7.20283">
        <ele>1011.65</ele>
        <time>2022-10-10T08:40:13Z</time>
      </trkpt>
      <trkpt lat="43.98222" lon="7.20281">
        <ele>1011.64</ele>
        <time>2022-10-10T08:40:14Z</time>
      </trkpt>
      <trkpt lat="43.98215" lon="7.20282">
        <ele>1011.69</ele>
        <time>2022-10-10T08:40:15Z</time>
      </trkpt>
      <trkpt lat="43.98209" lon="7.20284">
        <ele>1011.65</ele>
        <time>2022-10-10T08:40:16Z</time>
      </trkpt>
      <trkpt lat="43.98203" lon="7.20289">
        <ele>1012.51</ele>
        <time>2022-10-10T08:40:17Z</time>
      </trkpt>
      <trkpt lat="43.98199" lon="7.20295">
        <ele>1012.5</ele>
        <time>2022-10-10T08:40:18Z</time>
      </trkpt>
      <trkpt lat="43.98195" lon="7.20301">
        <ele>1012.47</ele>
        <time>2022-10-10T08:40:19Z</time>
      </trkpt>
      <trkpt lat="43.98193" lon="7.2031">
        <ele>1012.49</ele>
        <time>2022-10-10T08:40:20Z</time>
      </trkpt>
      <trkpt lat="43.9819" lon="7.20319">
        <ele>1012.51</ele>
        <time>2022-10-10T08:40:21Z</time>
      </trkpt>
      <trkpt lat="43.98188" lon="7.20327">
        <ele>1012.52</ele>
        <time>2022-10-10T08:40:22Z</time>
      </trkpt>
      <trkpt lat="43.9818" lon="7.20357">
        <ele>1012.52</ele>
        <time>2022-10-10T08:40:26Z</time>
      </trkpt>
      <trkpt lat="43.98176" lon="7.20364">
        <ele>1012.52</ele>
        <time>2022-10-10T08:40:27Z</time>
      </trkpt>
      <trkpt lat="43.98172" lon="7.2037">
        <ele>1012.51</ele>
        <time>2022-10-10T08:40:28Z</time>
      </trkpt>
      <trkpt lat="43.98168" lon="7.20376">
        <ele>1012.47</ele>
        <time>2022-10-10T08:40:29Z</time>
      </trkpt>
      <trkpt lat="43.98165" lon="7.20384">
        <ele>1012.48</ele>
        <time>2022-10-10T08:40:30Z</time>
      </trkpt>
      <trkpt lat="43.98162" lon="7.20392">
        <ele>1012.46</ele>
        <time>2022-10-10T08:40:31Z</time>
      </trkpt>
      <trkpt lat="43.98158" lon="7.204">
        <ele>1012.44</ele>
        <time>2022-10-10T08:40:32Z</time>
      </trkpt>
      <trkpt lat="43.98154" lon="7.20407">
        <ele>1012.4</ele>
        <time>2022-10-10T08:40:33Z</time>
      </trkpt>
      <trkpt lat="43.98149" lon="7.20414">
        <ele>1012.35</ele>
        <time>2022-10-10T08:40:34Z</time>
      </trkpt>
      <trkpt lat="43.98143" lon="7.2042">
        <ele>1012.31</ele>
        <time>2022-10-10T08:40:35Z</time>
      </trkpt>
      <trkpt lat="43.98136" lon="7.20425">
        <ele>1012.3</ele>
        <time>2022-10-10T08:40:36Z</time>
      </trkpt>
      <trkpt lat="43.98129" lon="7.20432">
        <ele>1012.29</ele>
        <time>2022-10-10T08:40:37Z</time>
      </trkpt>
      <trkpt lat="43.98123" lon="7.20439">
        <ele>1012.29</ele>
        <time>2022-10-10T08:40:38Z</time>
      </trkpt>
      <trkpt lat="43.98106" lon="7.20463">
        <ele>1012.24</ele>
        <time>2022-10-10T08:40:41Z</time>
      </trkpt>
      <trkpt lat="43.98102" lon="7.20471">
        <ele>1012.24</ele>
        <time>2022-10-10T08:40:42Z</time>
      </trkpt>
      <trkpt lat="43.98099" lon="7.20477">
        <ele>1012.24</ele>
        <time>2022-10-10T08:40:43Z</time>
      </trkpt>
      <trkpt lat="43.98083" lon="7.20511">
        <ele>1012.13</ele>
        <time>2022-10-10T08:40:50Z</time>
      </trkpt>
      <trkpt lat="43.98043" lon="7.20574">
        <ele>1012.07</ele>
        <time>2022-10-10T08:40:57Z</time>
      </trkpt>
      <trkpt lat="43.98031" lon="7.20593">
        <ele>1012.1</ele>
        <time>2022-10-10T08:40:59Z</time>
      </trkpt>
      <trkpt lat="43.98025" lon="7.20601">
        <ele>1009.64</ele>
        <time>2022-10-10T08:41:00Z</time>
      </trkpt>
      <trkpt lat="43.98018" lon="7.20609">
        <ele>1009.63</ele>
        <time>2022-10-10T08:41:01Z</time>
      </trkpt>
      <trkpt lat="43.97976" lon="7.20662">
        <ele>1009.56</ele>
        <time>2022-10-10T08:41:06Z</time>
      </trkpt>
      <trkpt lat="43.97959" lon="7.20691">
        <ele>1009.51</ele>
        <time>2022-10-10T08:41:09Z</time>
      </trkpt>
      <trkpt lat="43.97952" lon="7.20697">
        <ele>1009.5</ele>
        <time>2022-10-10T08:41:10Z</time>
      </trkpt>
      <trkpt lat="43.97945" lon="7.207">
        <ele>1009.5</ele>
        <time>2022-10-10T08:41:11Z</time>
      </trkpt>
      <trkpt lat="43.97937" lon="7.20699">
        <ele>1009.48</ele>
        <time>2022-10-10T08:41:12Z</time>
      </trkpt>
      <trkpt lat="43.97928" lon="7.20696">
        <ele>1009.48</ele>
        <time>2022-10-10T08:41:13Z</time>
      </trkpt>
      <trkpt lat="43.97917" lon="7.20692">
        <ele>1009.46</ele>
        <time>2022-10-10T08:41:14Z</time>
      </trkpt>
      <trkpt lat="43.97906" lon="7.20689">
        <ele>1009.45</ele>
        <time>2022-10-10T08:41:15Z</time>
      </trkpt>
      <trkpt lat="43.97895" lon="7.20687">
        <ele>1009.46</ele>
        <time>2022-10-10T08:41:16Z</time>
      </trkpt>
      <trkpt lat="43.97884" lon="7.20686">
        <ele>1009.44</ele>
        <time>2022-10-10T08:41:17Z</time>
      </trkpt>
      <trkpt lat="43.97874" lon="7.20689">
        <ele>1011.87</ele>
        <time>2022-10-10T08:41:18Z</time>
      </trkpt>
      <trkpt lat="43.97864" lon="7.20694">
        <ele>1011.86</ele>
        <time>2022-10-10T08:41:19Z</time>
      </trkpt>
      <trkpt lat="43.97854" lon="7.20698">
        <ele>1011.85</ele>
        <time>2022-10-10T08:41:20Z</time>
      </trkpt>
      <trkpt lat="43.97844" lon="7.20701">
        <ele>1011.87</ele>
        <time>2022-10-10T08:41:21Z</time>
      </trkpt>
      <trkpt lat="43.97835" lon="7.20706">
        <ele>1011.86</ele>
        <time>2022-10-10T08:41:22Z</time>
      </trkpt>
      <trkpt lat="43.97812" lon="7.20721">
        <ele>1011.77</ele>
        <time>2022-10-10T08:41:25Z</time>
      </trkpt>
      <trkpt lat="43.97807" lon="7.20726">
        <ele>1011.76</ele>
        <time>2022-10-10T08:41:26Z</time>
      </trkpt>
      <trkpt lat="43.97801" lon="7.2073">
        <ele>1011.75</ele>
        <time>2022-10-10T08:41:27Z</time>
      </trkpt>
      <trkpt lat="43.97795" lon="7.20732">
        <ele>1011.73</ele>
        <time>2022-10-10T08:41:28Z</time>
      </trkpt>
      <trkpt lat="43.9779" lon="7.2073">
        <ele>1011.73</ele>
        <time>2022-10-10T08:41:29Z</time>
      </trkpt>
      <trkpt lat="43.97784" lon="7.20725">
        <ele>1011.71</ele>
        <time>2022-10-10T08:41:30Z</time>
      </trkpt>
      <trkpt lat="43.97778" lon="7.20718">
        <ele>1011.71</ele>
        <time>2022-10-10T08:41:31Z</time>
      </trkpt>
      <trkpt lat="43.97764" lon="7.20701">
        <ele>1012.49</ele>
        <time>2022-10-10T08:41:33Z</time>
      </trkpt>
      <trkpt lat="43.97755" lon="7.20692">
        <ele>1012.45</ele>
        <time>2022-10-10T08:41:34Z</time>
      </trkpt>
      <trkpt lat="43.97745" lon="7.20685">
        <ele>1012.45</ele>
        <time>2022-10-10T08:41:35Z</time>
      </trkpt>
      <trkpt lat="43.97735" lon="7.20679">
        <ele>1012.42</ele>
        <time>2022-10-10T08:41:36Z</time>
      </trkpt>
      <trkpt lat="43.97724" lon="7.20675">
        <ele>1012.44</ele>
        <time>2022-10-10T08:41:37Z</time>
      </trkpt>
      <trkpt lat="43.97714" lon="7.20673">
        <ele>1012.44</ele>
        <time>2022-10-10T08:41:38Z</time>
      </trkpt>
      <trkpt lat="43.97704" lon="7.20673">
        <ele>1012.4</ele>
        <time>2022-10-10T08:41:39Z</time>
      </trkpt>
      <trkpt lat="43.97681" lon="7.20672">
        <ele>1012.38</ele>
        <time>2022-10-10T08:41:42Z</time>
      </trkpt>
      <trkpt lat="43.97675" lon="7.20669">
        <ele>1012.34</ele>
        <time>2022-10-10T08:41:43Z</time>
      </trkpt>
      <trkpt lat="43.9767" lon="7.20662">
        <ele>1012.37</ele>
        <time>2022-10-10T08:41:44Z</time>
      </trkpt>
      <trkpt lat="43.97667" lon="7.20652">
        <ele>1012.37</ele>
        <time>2022-10-10T08:41:45Z</time>
      </trkpt>
      <trkpt lat="43.97664" lon="7.20638">
        <ele>1012.37</ele>
        <time>2022-10-10T08:41:46Z</time>
      </trkpt>
      <trkpt lat="43.97662" lon="7.20625">
        <ele>1012.41</ele>
        <time>2022-10-10T08:41:47Z</time>
      </trkpt>
      <trkpt lat="43.97655" lon="7.2057">
        <ele>1012.32</ele>
        <time>2022-10-10T08:41:51Z</time>
      </trkpt>
      <trkpt lat="43.97655" lon="7.20559">
        <ele>1012.32</ele>
        <time>2022-10-10T08:41:52Z</time>
      </trkpt>
      <trkpt lat="43.97656" lon="7.20548">
        <ele>1012.3</ele>
        <time>2022-10-10T08:41:53Z</time>
      </trkpt>
      <trkpt lat="43.97658" lon="7.20537">
        <ele>1012.3</ele>
        <time>2022-10-10T08:41:54Z</time>
      </trkpt>
      <trkpt lat="43.97659" lon="7.20527">
        <ele>1012.3</ele>
        <time>2022-10-10T08:41:55Z</time>
      </trkpt>
      <trkpt lat="43.97657" lon="7.20518">
        <ele>1012.29</ele>
        <time>2022-10-10T08:41:56Z</time>
      </trkpt>
      <trkpt lat="43.97653" lon="7.2051">
        <ele>1012.29</ele>
        <time>2022-10-10T08:41:57Z</time>
      </trkpt>
      <trkpt lat="43.97645" lon="7.20504">
        <ele>1012.28</ele>
        <time>2022-10-10T08:41:58Z</time>
      </trkpt>
      <trkpt lat="43.97636" lon="7.20499">
        <ele>1012.28</ele>
        <time>2022-10-10T08:41:59Z</time>
      </trkpt>
      <trkpt lat="43.97576" lon="7.20459">
        <ele>1012.22</ele>
        <time>2022-10-10T08:42:05Z</time>
      </trkpt>
      <trkpt lat="43.97567" lon="7.2045">
        <ele>1012.21</ele>
        <time>2022-10-10T08:42:06Z</time>
      </trkpt>
      <trkpt lat="43.9756" lon="7.2044">
        <ele>1008.94</ele>
        <time>2022-10-10T08:42:07Z</time>
      </trkpt>
      <trkpt lat="43.97554" lon="7.20429">
        <ele>1008.96</ele>
        <time>2022-10-10T08:42:08Z</time>
      </trkpt>
      <trkpt lat="43.9755" lon="7.20417">
        <ele>1008.94</ele>
        <time>2022-10-10T08:42:09Z</time>
      </trkpt>
      <trkpt lat="43.97546" lon="7.20403">
        <ele>1008.94</ele>
        <time>2022-10-10T08:42:10Z</time>
      </trkpt>
      <trkpt lat="43.97523" lon="7.20343">
        <ele>1009.03</ele>
        <time>2022-10-10T08:42:15Z</time>
      </trkpt>
      <trkpt lat="43.97514" lon="7.20322">
        <ele>1008.24</ele>
        <time>2022-10-10T08:42:17Z</time>
      </trkpt>
      <trkpt lat="43.97508" lon="7.20312">
        <ele>1008.22</ele>
        <time>2022-10-10T08:42:18Z</time>
      </trkpt>
      <trkpt lat="43.97492" lon="7.20281">
        <ele>1006.12</ele>
        <time>2022-10-10T08:42:21Z</time>
      </trkpt>
      <trkpt lat="43.97484" lon="7.20261">
        <ele>1003.83</ele>
        <time>2022-10-10T08:42:23Z</time>
      </trkpt>
      <trkpt lat="43.9748" lon="7.20255">
        <ele>1002.69</ele>
        <time>2022-10-10T08:42:24Z</time>
      </trkpt>
      <trkpt lat="43.97475" lon="7.20252">
        <ele>1002.65</ele>
        <time>2022-10-10T08:42:25Z</time>
      </trkpt>
      <trkpt lat="43.9747" lon="7.2025">
        <ele>1002.62</ele>
        <time>2022-10-10T08:42:26Z</time>
      </trkpt>
      <trkpt lat="43.97464" lon="7.2025">
        <ele>1002.65</ele>
        <time>2022-10-10T08:42:27Z</time>
      </trkpt>
      <trkpt lat="43.97457" lon="7.20252">
        <ele>1001.16</ele>
        <time>2022-10-10T08:42:28Z</time>
      </trkpt>
      <trkpt lat="43.97449" lon="7.20256">
        <ele>1001.11</ele>
        <time>2022-10-10T08:42:29Z</time>
      </trkpt>
      <trkpt lat="43.97441" lon="7.20262">
        <ele>1001.11</ele>
        <time>2022-10-10T08:42:30Z</time>
      </trkpt>
      <trkpt lat="43.97434" lon="7.20268">
        <ele>1001.06</ele>
        <time>2022-10-10T08:42:31Z</time>
      </trkpt>
      <trkpt lat="43.97416" lon="7.20284">
        <ele>1001.02</ele>
        <time>2022-10-10T08:42:34Z</time>
      </trkpt>
      <trkpt lat="43.97408" lon="7.20288">
        <ele>1000.99</ele>
        <time>2022-10-10T08:42:35Z</time>
      </trkpt>
      <trkpt lat="43.97401" lon="7.20293">
        <ele>1001.03</ele>
        <time>2022-10-10T08:42:36Z</time>
      </trkpt>
      <trkpt lat="43.97393" lon="7.20299">
        <ele>1001.08</ele>
        <time>2022-10-10T08:42:37Z</time>
      </trkpt>
      <trkpt lat="43.97386" lon="7.20307">
        <ele>1001.06</ele>
        <time>2022-10-10T08:42:38Z</time>
      </trkpt>
      <trkpt lat="43.9738" lon="7.20315">
        <ele>1001.27</ele>
        <time>2022-10-10T08:42:39Z</time>
      </trkpt>
      <trkpt lat="43.97374" lon="7.20324">
        <ele>1001.28</ele>
        <time>2022-10-10T08:42:40Z</time>
      </trkpt>
      <trkpt lat="43.97371" lon="7.20334">
        <ele>1001.27</ele>
        <time>2022-10-10T08:42:41Z</time>
      </trkpt>
      <trkpt lat="43.97367" lon="7.20342">
        <ele>1001.28</ele>
        <time>2022-10-10T08:42:42Z</time>
      </trkpt>
      <trkpt lat="43.97363" lon="7.2035">
        <ele>1001.27</ele>
        <time>2022-10-10T08:42:43Z</time>
      </trkpt>
      <trkpt lat="43.97358" lon="7.20358">
        <ele>1001.27</ele>
        <time>2022-10-10T08:42:44Z</time>
      </trkpt>
      <trkpt lat="43.97352" lon="7.20364">
        <ele>1001.29</ele>
        <time>2022-10-10T08:42:45Z</time>
      </trkpt>
      <trkpt lat="43.97345" lon="7.20368">
        <ele>1001.29</ele>
        <time>2022-10-10T08:42:46Z</time>
      </trkpt>
      <trkpt lat="43.97339" lon="7.20371">
        <ele>1003.75</ele>
        <time>2022-10-10T08:42:47Z</time>
      </trkpt>
      <trkpt lat="43.97333" lon="7.20375">
        <ele>1003.75</ele>
        <time>2022-10-10T08:42:48Z</time>
      </trkpt>
      <trkpt lat="43.97327" lon="7.20381">
        <ele>1003.74</ele>
        <time>2022-10-10T08:42:49Z</time>
      </trkpt>
      <trkpt lat="43.97321" lon="7.20387">
        <ele>1003.73</ele>
        <time>2022-10-10T08:42:50Z</time>
      </trkpt>
      <trkpt lat="43.97315" lon="7.20393">
        <ele>1003.74</ele>
        <time>2022-10-10T08:42:51Z</time>
      </trkpt>
      <trkpt lat="43.97257" lon="7.20439">
        <ele>1001.13</ele>
        <time>2022-10-10T08:42:58Z</time>
      </trkpt>
      <trkpt lat="43.97249" lon="7.20446">
        <ele>1001.09</ele>
        <time>2022-10-10T08:42:59Z</time>
      </trkpt>
      <trkpt lat="43.97243" lon="7.20455">
        <ele>999.9</ele>
        <time>2022-10-10T08:43:00Z</time>
      </trkpt>
      <trkpt lat="43.97236" lon="7.20462">
        <ele>999.81</ele>
        <time>2022-10-10T08:43:01Z</time>
      </trkpt>
      <trkpt lat="43.97229" lon="7.20469">
        <ele>998.31</ele>
        <time>2022-10-10T08:43:02Z</time>
      </trkpt>
      <trkpt lat="43.97223" lon="7.20474">
        <ele>998.24</ele>
        <time>2022-10-10T08:43:03Z</time>
      </trkpt>
      <trkpt lat="43.97207" lon="7.20493">
        <ele>996.35</ele>
        <time>2022-10-10T08:43:06Z</time>
      </trkpt>
      <trkpt lat="43.97202" lon="7.20496">
        <ele>996.3</ele>
        <time>2022-10-10T08:43:07Z</time>
      </trkpt>
      <trkpt lat="43.97196" lon="7.20498">
        <ele>995.13</ele>
        <time>2022-10-10T08:43:08Z</time>
      </trkpt>
      <trkpt lat="43.97191" lon="7.20494">
        <ele>995.07</ele>
        <time>2022-10-10T08:43:09Z</time>
      </trkpt>
      <trkpt lat="43.97185" lon="7.20487">
        <ele>994.08</ele>
        <time>2022-10-10T08:43:10Z</time>
      </trkpt>
      <trkpt lat="43.9718" lon="7.20479">
        <ele>994.06</ele>
        <time>2022-10-10T08:43:11Z</time>
      </trkpt>
      <trkpt lat="43.97176" lon="7.20469">
        <ele>993.02</ele>
        <time>2022-10-10T08:43:12Z</time>
      </trkpt>
      <trkpt lat="43.97173" lon="7.20457">
        <ele>993.02</ele>
        <time>2022-10-10T08:43:13Z</time>
      </trkpt>
      <trkpt lat="43.9717" lon="7.20444">
        <ele>992.96</ele>
        <time>2022-10-10T08:43:14Z</time>
      </trkpt>
      <trkpt lat="43.97167" lon="7.20431">
        <ele>992.91</ele>
        <time>2022-10-10T08:43:15Z</time>
      </trkpt>
      <trkpt lat="43.97162" lon="7.20418">
        <ele>991.86</ele>
        <time>2022-10-10T08:43:16Z</time>
      </trkpt>
      <trkpt lat="43.97158" lon="7.20405">
        <ele>991.81</ele>
        <time>2022-10-10T08:43:17Z</time>
      </trkpt>
      <trkpt lat="43.97144" lon="7.20371">
        <ele>991.82</ele>
        <time>2022-10-10T08:43:20Z</time>
      </trkpt>
      <trkpt lat="43.97137" lon="7.2036">
        <ele>991.81</ele>
        <time>2022-10-10T08:43:21Z</time>
      </trkpt>
      <trkpt lat="43.97129" lon="7.2035">
        <ele>991.81</ele>
        <time>2022-10-10T08:43:22Z</time>
      </trkpt>
      <trkpt lat="43.97121" lon="7.20341">
        <ele>991.8</ele>
        <time>2022-10-10T08:43:23Z</time>
      </trkpt>
      <trkpt lat="43.97112" lon="7.20333">
        <ele>991.84</ele>
        <time>2022-10-10T08:43:24Z</time>
      </trkpt>
      <trkpt lat="43.97104" lon="7.20325">
        <ele>991.85</ele>
        <time>2022-10-10T08:43:25Z</time>
      </trkpt>
      <trkpt lat="43.97096" lon="7.20317">
        <ele>991.86</ele>
        <time>2022-10-10T08:43:26Z</time>
      </trkpt>
      <trkpt lat="43.97089" lon="7.20308">
        <ele>991.87</ele>
        <time>2022-10-10T08:43:27Z</time>
      </trkpt>
      <trkpt lat="43.97081" lon="7.20301">
        <ele>991.88</ele>
        <time>2022-10-10T08:43:28Z</time>
      </trkpt>
      <trkpt lat="43.97073" lon="7.20291">
        <ele>992.01</ele>
        <time>2022-10-10T08:43:29Z</time>
      </trkpt>
      <trkpt lat="43.97067" lon="7.2028">
        <ele>992.01</ele>
        <time>2022-10-10T08:43:30Z</time>
      </trkpt>
      <trkpt lat="43.97054" lon="7.2026">
        <ele>992.02</ele>
        <time>2022-10-10T08:43:32Z</time>
      </trkpt>
      <trkpt lat="43.97046" lon="7.2025">
        <ele>994.32</ele>
        <time>2022-10-10T08:43:33Z</time>
      </trkpt>
      <trkpt lat="43.97039" lon="7.20242">
        <ele>994.34</ele>
        <time>2022-10-10T08:43:34Z</time>
      </trkpt>
      <trkpt lat="43.97033" lon="7.20232">
        <ele>994.33</ele>
        <time>2022-10-10T08:43:35Z</time>
      </trkpt>
      <trkpt lat="43.97029" lon="7.20223">
        <ele>994.33</ele>
        <time>2022-10-10T08:43:36Z</time>
      </trkpt>
      <trkpt lat="43.97024" lon="7.20215">
        <ele>994.34</ele>
        <time>2022-10-10T08:43:37Z</time>
      </trkpt>
      <trkpt lat="43.97019" lon="7.2021">
        <ele>994.34</ele>
        <time>2022-10-10T08:43:38Z</time>
      </trkpt>
      <trkpt lat="43.97013" lon="7.20206">
        <ele>994.35</ele>
        <time>2022-10-10T08:43:39Z</time>
      </trkpt>
      <trkpt lat="43.97006" lon="7.20205">
        <ele>994.35</ele>
        <time>2022-10-10T08:43:40Z</time>
      </trkpt>
      <trkpt lat="43.96999" lon="7.20206">
        <ele>994.34</ele>
        <time>2022-10-10T08:43:41Z</time>
      </trkpt>
      <trkpt lat="43.96991" lon="7.20208">
        <ele>994.34</ele>
        <time>2022-10-10T08:43:42Z</time>
      </trkpt>
      <trkpt lat="43.96983" lon="7.2021">
        <ele>994.34</ele>
        <time>2022-10-10T08:43:43Z</time>
      </trkpt>
      <trkpt lat="43.96957" lon="7.20219">
        <ele>995.28</ele>
        <time>2022-10-10T08:43:46Z</time>
      </trkpt>
      <trkpt lat="43.96949" lon="7.20225">
        <ele>995.26</ele>
        <time>2022-10-10T08:43:47Z</time>
      </trkpt>
      <trkpt lat="43.96922" lon="7.20246">
        <ele>995.26</ele>
        <time>2022-10-10T08:43:51Z</time>
      </trkpt>
      <trkpt lat="43.96915" lon="7.20247">
        <ele>995.25</ele>
        <time>2022-10-10T08:43:52Z</time>
      </trkpt>
      <trkpt lat="43.96894" lon="7.20245">
        <ele>996.04</ele>
        <time>2022-10-10T08:43:55Z</time>
      </trkpt>
      <trkpt lat="43.96888" lon="7.20244">
        <ele>996.04</ele>
        <time>2022-10-10T08:43:56Z</time>
      </trkpt>
      <trkpt lat="43.96884" lon="7.20237">
        <ele>996.04</ele>
        <time>2022-10-10T08:43:57Z</time>
      </trkpt>
      <trkpt lat="43.96883" lon="7.20228">
        <ele>996.05</ele>
        <time>2022-10-10T08:43:58Z</time>
      </trkpt>
      <trkpt lat="43.96881" lon="7.20218">
        <ele>996.04</ele>
        <time>2022-10-10T08:43:59Z</time>
      </trkpt>
      <trkpt lat="43.9688" lon="7.20207">
        <ele>996.06</ele>
        <time>2022-10-10T08:44:00Z</time>
      </trkpt>
      <trkpt lat="43.96875" lon="7.202">
        <ele>996.06</ele>
        <time>2022-10-10T08:44:01Z</time>
      </trkpt>
      <trkpt lat="43.96869" lon="7.20194">
        <ele>997.46</ele>
        <time>2022-10-10T08:44:02Z</time>
      </trkpt>
      <trkpt lat="43.96862" lon="7.20188">
        <ele>997.47</ele>
        <time>2022-10-10T08:44:03Z</time>
      </trkpt>
      <trkpt lat="43.96853" lon="7.20184">
        <ele>997.47</ele>
        <time>2022-10-10T08:44:04Z</time>
      </trkpt>
      <trkpt lat="43.96845" lon="7.20182">
        <ele>997.46</ele>
        <time>2022-10-10T08:44:05Z</time>
      </trkpt>
      <trkpt lat="43.96837" lon="7.20181">
        <ele>997.49</ele>
        <time>2022-10-10T08:44:06Z</time>
      </trkpt>
      <trkpt lat="43.9683" lon="7.20179">
        <ele>997.47</ele>
        <time>2022-10-10T08:44:07Z</time>
      </trkpt>
      <trkpt lat="43.96824" lon="7.20175">
        <ele>997.5</ele>
        <time>2022-10-10T08:44:08Z</time>
      </trkpt>
      <trkpt lat="43.96819" lon="7.20168">
        <ele>997.47</ele>
        <time>2022-10-10T08:44:09Z</time>
      </trkpt>
      <trkpt lat="43.96816" lon="7.20159">
        <ele>997.52</ele>
        <time>2022-10-10T08:44:10Z</time>
      </trkpt>
      <trkpt lat="43.96814" lon="7.20149">
        <ele>997.5</ele>
        <time>2022-10-10T08:44:11Z</time>
      </trkpt>
      <trkpt lat="43.96811" lon="7.20139">
        <ele>997.48</ele>
        <time>2022-10-10T08:44:12Z</time>
      </trkpt>
      <trkpt lat="43.96807" lon="7.2013">
        <ele>997.48</ele>
        <time>2022-10-10T08:44:13Z</time>
      </trkpt>
      <trkpt lat="43.96802" lon="7.20122">
        <ele>997.51</ele>
        <time>2022-10-10T08:44:14Z</time>
      </trkpt>
      <trkpt lat="43.96797" lon="7.20114">
        <ele>997.55</ele>
        <time>2022-10-10T08:44:15Z</time>
      </trkpt>
      <trkpt lat="43.96789" lon="7.20107">
        <ele>997.6</ele>
        <time>2022-10-10T08:44:16Z</time>
      </trkpt>
      <trkpt lat="43.9678" lon="7.20104">
        <ele>997.57</ele>
        <time>2022-10-10T08:44:17Z</time>
      </trkpt>
      <trkpt lat="43.9677" lon="7.20103">
        <ele>997.52</ele>
        <time>2022-10-10T08:44:18Z</time>
      </trkpt>
      <trkpt lat="43.96761" lon="7.20103">
        <ele>997.52</ele>
        <time>2022-10-10T08:44:19Z</time>
      </trkpt>
      <trkpt lat="43.96752" lon="7.20102">
        <ele>997.53</ele>
        <time>2022-10-10T08:44:20Z</time>
      </trkpt>
      <trkpt lat="43.96744" lon="7.20099">
        <ele>997.54</ele>
        <time>2022-10-10T08:44:21Z</time>
      </trkpt>
      <trkpt lat="43.96735" lon="7.20095">
        <ele>997.55</ele>
        <time>2022-10-10T08:44:22Z</time>
      </trkpt>
      <trkpt lat="43.96717" lon="7.20088">
        <ele>997.56</ele>
        <time>2022-10-10T08:44:24Z</time>
      </trkpt>
      <trkpt lat="43.96708" lon="7.20085">
        <ele>997.59</ele>
        <time>2022-10-10T08:44:25Z</time>
      </trkpt>
      <trkpt lat="43.96693" lon="7.20077">
        <ele>998.59</ele>
        <time>2022-10-10T08:44:27Z</time>
      </trkpt>
      <trkpt lat="43.96668" lon="7.20053">
        <ele>998.64</ele>
        <time>2022-10-10T08:44:31Z</time>
      </trkpt>
      <trkpt lat="43.96664" lon="7.20044">
        <ele>998.65</ele>
        <time>2022-10-10T08:44:32Z</time>
      </trkpt>
      <trkpt lat="43.96661" lon="7.20033">
        <ele>998.61</ele>
        <time>2022-10-10T08:44:33Z</time>
      </trkpt>
      <trkpt lat="43.96657" lon="7.20022">
        <ele>998.62</ele>
        <time>2022-10-10T08:44:34Z</time>
      </trkpt>
      <trkpt lat="43.96652" lon="7.20013">
        <ele>998.66</ele>
        <time>2022-10-10T08:44:35Z</time>
      </trkpt>
      <trkpt lat="43.96647" lon="7.20003">
        <ele>998.64</ele>
        <time>2022-10-10T08:44:36Z</time>
      </trkpt>
      <trkpt lat="43.96635" lon="7.19987">
        <ele>998.69</ele>
        <time>2022-10-10T08:44:38Z</time>
      </trkpt>
      <trkpt lat="43.96628" lon="7.19981">
        <ele>999.49</ele>
        <time>2022-10-10T08:44:39Z</time>
      </trkpt>
      <trkpt lat="43.96619" lon="7.19978">
        <ele>999.52</ele>
        <time>2022-10-10T08:44:40Z</time>
      </trkpt>
      <trkpt lat="43.96611" lon="7.19979">
        <ele>999.5</ele>
        <time>2022-10-10T08:44:41Z</time>
      </trkpt>
      <trkpt lat="43.96603" lon="7.19982">
        <ele>999.43</ele>
        <time>2022-10-10T08:44:42Z</time>
      </trkpt>
      <trkpt lat="43.96595" lon="7.19985">
        <ele>999.43</ele>
        <time>2022-10-10T08:44:43Z</time>
      </trkpt>
      <trkpt lat="43.96587" lon="7.19988">
        <ele>999.44</ele>
        <time>2022-10-10T08:44:44Z</time>
      </trkpt>
      <trkpt lat="43.9658" lon="7.19989">
        <ele>999.45</ele>
        <time>2022-10-10T08:44:45Z</time>
      </trkpt>
      <trkpt lat="43.96575" lon="7.19989">
        <ele>999.46</ele>
        <time>2022-10-10T08:44:46Z</time>
      </trkpt>
      <trkpt lat="43.9657" lon="7.19986">
        <ele>999.46</ele>
        <time>2022-10-10T08:44:47Z</time>
      </trkpt>
      <trkpt lat="43.96568" lon="7.1998">
        <ele>999.47</ele>
        <time>2022-10-10T08:44:48Z</time>
      </trkpt>
      <trkpt lat="43.96566" lon="7.19971">
        <ele>999.47</ele>
        <time>2022-10-10T08:44:49Z</time>
      </trkpt>
      <trkpt lat="43.96565" lon="7.19961">
        <ele>999.46</ele>
        <time>2022-10-10T08:44:50Z</time>
      </trkpt>
      <trkpt lat="43.96564" lon="7.1995">
        <ele>999.49</ele>
        <time>2022-10-10T08:44:51Z</time>
      </trkpt>
      <trkpt lat="43.96561" lon="7.19896">
        <ele>1000.32</ele>
        <time>2022-10-10T08:44:56Z</time>
      </trkpt>
      <trkpt lat="43.96557" lon="7.19887">
        <ele>1000.32</ele>
        <time>2022-10-10T08:44:57Z</time>
      </trkpt>
      <trkpt lat="43.96552" lon="7.1988">
        <ele>1000.31</ele>
        <time>2022-10-10T08:44:58Z</time>
      </trkpt>
      <trkpt lat="43.96545" lon="7.19874">
        <ele>1000.33</ele>
        <time>2022-10-10T08:44:59Z</time>
      </trkpt>
      <trkpt lat="43.96536" lon="7.1987">
        <ele>1000.35</ele>
        <time>2022-10-10T08:45:00Z</time>
      </trkpt>
      <trkpt lat="43.9651" lon="7.19857">
        <ele>1000.3</ele>
        <time>2022-10-10T08:45:03Z</time>
      </trkpt>
      <trkpt lat="43.96493" lon="7.19854">
        <ele>997.64</ele>
        <time>2022-10-10T08:45:05Z</time>
      </trkpt>
      <trkpt lat="43.96476" lon="7.19847">
        <ele>995.78</ele>
        <time>2022-10-10T08:45:07Z</time>
      </trkpt>
      <trkpt lat="43.96467" lon="7.19841">
        <ele>995.75</ele>
        <time>2022-10-10T08:45:08Z</time>
      </trkpt>
      <trkpt lat="43.96426" lon="7.19813">
        <ele>993.5</ele>
        <time>2022-10-10T08:45:12Z</time>
      </trkpt>
      <trkpt lat="43.96417" lon="7.19805">
        <ele>993.47</ele>
        <time>2022-10-10T08:45:13Z</time>
      </trkpt>
      <trkpt lat="43.96408" lon="7.19799">
        <ele>991.66</ele>
        <time>2022-10-10T08:45:14Z</time>
      </trkpt>
      <trkpt lat="43.96397" lon="7.19797">
        <ele>991.67</ele>
        <time>2022-10-10T08:45:15Z</time>
      </trkpt>
      <trkpt lat="43.96386" lon="7.19797">
        <ele>991.63</ele>
        <time>2022-10-10T08:45:16Z</time>
      </trkpt>
      <trkpt lat="43.96343" lon="7.19794">
        <ele>989.63</ele>
        <time>2022-10-10T08:45:20Z</time>
      </trkpt>
      <trkpt lat="43.96322" lon="7.1979">
        <ele>987.89</ele>
        <time>2022-10-10T08:45:22Z</time>
      </trkpt>
      <trkpt lat="43.96312" lon="7.1979">
        <ele>986.3</ele>
        <time>2022-10-10T08:45:23Z</time>
      </trkpt>
      <trkpt lat="43.96302" lon="7.19793">
        <ele>984.92</ele>
        <time>2022-10-10T08:45:24Z</time>
      </trkpt>
      <trkpt lat="43.96292" lon="7.19797">
        <ele>984</ele>
        <time>2022-10-10T08:45:25Z</time>
      </trkpt>
      <trkpt lat="43.96274" lon="7.19808">
        <ele>982.8</ele>
        <time>2022-10-10T08:45:27Z</time>
      </trkpt>
      <trkpt lat="43.96256" lon="7.19817">
        <ele>980.23</ele>
        <time>2022-10-10T08:45:29Z</time>
      </trkpt>
      <trkpt lat="43.96246" lon="7.19819">
        <ele>980.18</ele>
        <time>2022-10-10T08:45:30Z</time>
      </trkpt>
      <trkpt lat="43.96212" lon="7.19826">
        <ele>976.68</ele>
        <time>2022-10-10T08:45:33Z</time>
      </trkpt>
      <trkpt lat="43.96178" lon="7.19835">
        <ele>973.25</ele>
        <time>2022-10-10T08:45:36Z</time>
      </trkpt>
      <trkpt lat="43.96168" lon="7.19837">
        <ele>972.35</ele>
        <time>2022-10-10T08:45:37Z</time>
      </trkpt>
      <trkpt lat="43.96135" lon="7.19839">
        <ele>968.29</ele>
        <time>2022-10-10T08:45:40Z</time>
      </trkpt>
      <trkpt lat="43.96125" lon="7.1984">
        <ele>968.29</ele>
        <time>2022-10-10T08:45:41Z</time>
      </trkpt>
      <trkpt lat="43.96093" lon="7.19848">
        <ele>964.9</ele>
        <time>2022-10-10T08:45:44Z</time>
      </trkpt>
      <trkpt lat="43.96082" lon="7.19851">
        <ele>964.8</ele>
        <time>2022-10-10T08:45:45Z</time>
      </trkpt>
      <trkpt lat="43.96053" lon="7.1986">
        <ele>961.8</ele>
        <time>2022-10-10T08:45:48Z</time>
      </trkpt>
      <trkpt lat="43.96025" lon="7.19874">
        <ele>959.39</ele>
        <time>2022-10-10T08:45:51Z</time>
      </trkpt>
      <trkpt lat="43.96012" lon="7.19884">
        <ele>957.19</ele>
        <time>2022-10-10T08:45:53Z</time>
      </trkpt>
      <trkpt lat="43.96007" lon="7.19887">
        <ele>956.04</ele>
        <time>2022-10-10T08:45:54Z</time>
      </trkpt>
      <trkpt lat="43.96002" lon="7.19886">
        <ele>954.91</ele>
        <time>2022-10-10T08:45:55Z</time>
      </trkpt>
      <trkpt lat="43.96002" lon="7.19879">
        <ele>954.88</ele>
        <time>2022-10-10T08:45:56Z</time>
      </trkpt>
      <trkpt lat="43.96006" lon="7.19871">
        <ele>953.73</ele>
        <time>2022-10-10T08:45:57Z</time>
      </trkpt>
      <trkpt lat="43.96012" lon="7.19861">
        <ele>953.78</ele>
        <time>2022-10-10T08:45:58Z</time>
      </trkpt>
      <trkpt lat="43.96017" lon="7.19848">
        <ele>953.76</ele>
        <time>2022-10-10T08:45:59Z</time>
      </trkpt>
      <trkpt lat="43.96021" lon="7.19833">
        <ele>953.72</ele>
        <time>2022-10-10T08:46:00Z</time>
      </trkpt>
      <trkpt lat="43.96025" lon="7.19819">
        <ele>952.18</ele>
        <time>2022-10-10T08:46:01Z</time>
      </trkpt>
      <trkpt lat="43.9603" lon="7.19805">
        <ele>951.08</ele>
        <time>2022-10-10T08:46:02Z</time>
      </trkpt>
      <trkpt lat="43.96036" lon="7.19793">
        <ele>949.25</ele>
        <time>2022-10-10T08:46:03Z</time>
      </trkpt>
      <trkpt lat="43.96043" lon="7.19781">
        <ele>948.04</ele>
        <time>2022-10-10T08:46:04Z</time>
      </trkpt>
      <trkpt lat="43.96051" lon="7.1977">
        <ele>947.07</ele>
        <time>2022-10-10T08:46:05Z</time>
      </trkpt>
      <trkpt lat="43.96058" lon="7.19761">
        <ele>945.57</ele>
        <time>2022-10-10T08:46:06Z</time>
      </trkpt>
      <trkpt lat="43.96069" lon="7.19745">
        <ele>944.25</ele>
        <time>2022-10-10T08:46:08Z</time>
      </trkpt>
      <trkpt lat="43.96072" lon="7.19737">
        <ele>942.34</ele>
        <time>2022-10-10T08:46:09Z</time>
      </trkpt>
      <trkpt lat="43.96071" lon="7.19731">
        <ele>942.26</ele>
        <time>2022-10-10T08:46:10Z</time>
      </trkpt>
      <trkpt lat="43.96066" lon="7.19729">
        <ele>942.23</ele>
        <time>2022-10-10T08:46:11Z</time>
      </trkpt>
      <trkpt lat="43.96062" lon="7.19734">
        <ele>941.06</ele>
        <time>2022-10-10T08:46:12Z</time>
      </trkpt>
      <trkpt lat="43.96057" lon="7.19742">
        <ele>941.1</ele>
        <time>2022-10-10T08:46:13Z</time>
      </trkpt>
      <trkpt lat="43.96052" lon="7.19753">
        <ele>941.11</ele>
        <time>2022-10-10T08:46:14Z</time>
      </trkpt>
      <trkpt lat="43.96044" lon="7.19762">
        <ele>940.07</ele>
        <time>2022-10-10T08:46:15Z</time>
      </trkpt>
      <trkpt lat="43.96035" lon="7.1977">
        <ele>939.91</ele>
        <time>2022-10-10T08:46:16Z</time>
      </trkpt>
      <trkpt lat="43.96026" lon="7.19777">
        <ele>938.27</ele>
        <time>2022-10-10T08:46:17Z</time>
      </trkpt>
      <trkpt lat="43.96017" lon="7.19786">
        <ele>937.34</ele>
        <time>2022-10-10T08:46:18Z</time>
      </trkpt>
      <trkpt lat="43.96009" lon="7.19796">
        <ele>936.26</ele>
        <time>2022-10-10T08:46:19Z</time>
      </trkpt>
      <trkpt lat="43.95992" lon="7.19818">
        <ele>934.56</ele>
        <time>2022-10-10T08:46:21Z</time>
      </trkpt>
      <trkpt lat="43.95975" lon="7.19836">
        <ele>931.56</ele>
        <time>2022-10-10T08:46:23Z</time>
      </trkpt>
      <trkpt lat="43.95965" lon="7.19843">
        <ele>930.61</ele>
        <time>2022-10-10T08:46:24Z</time>
      </trkpt>
      <trkpt lat="43.95955" lon="7.1985">
        <ele>929.53</ele>
        <time>2022-10-10T08:46:25Z</time>
      </trkpt>
      <trkpt lat="43.95925" lon="7.19868">
        <ele>926.13</ele>
        <time>2022-10-10T08:46:28Z</time>
      </trkpt>
      <trkpt lat="43.95915" lon="7.19873">
        <ele>925.4</ele>
        <time>2022-10-10T08:46:29Z</time>
      </trkpt>
      <trkpt lat="43.95904" lon="7.19877">
        <ele>923.27</ele>
        <time>2022-10-10T08:46:30Z</time>
      </trkpt>
      <trkpt lat="43.95894" lon="7.19878">
        <ele>922.22</ele>
        <time>2022-10-10T08:46:31Z</time>
      </trkpt>
      <trkpt lat="43.95883" lon="7.19878">
        <ele>921.39</ele>
        <time>2022-10-10T08:46:32Z</time>
      </trkpt>
      <trkpt lat="43.95872" lon="7.19877">
        <ele>919.96</ele>
        <time>2022-10-10T08:46:33Z</time>
      </trkpt>
      <trkpt lat="43.9584" lon="7.19871">
        <ele>917.63</ele>
        <time>2022-10-10T08:46:36Z</time>
      </trkpt>
      <trkpt lat="43.95815" lon="7.19861">
        <ele>916.18</ele>
        <time>2022-10-10T08:46:38Z</time>
      </trkpt>
      <trkpt lat="43.95741" lon="7.19822">
        <ele>914.52</ele>
        <time>2022-10-10T08:46:44Z</time>
      </trkpt>
      <trkpt lat="43.95651" lon="7.19792">
        <ele>915.04</ele>
        <time>2022-10-10T08:46:53Z</time>
      </trkpt>
      <trkpt lat="43.95634" lon="7.19784">
        <ele>915.05</ele>
        <time>2022-10-10T08:46:55Z</time>
      </trkpt>
      <trkpt lat="43.95626" lon="7.19777">
        <ele>913.92</ele>
        <time>2022-10-10T08:46:56Z</time>
      </trkpt>
      <trkpt lat="43.9562" lon="7.19768">
        <ele>912.78</ele>
        <time>2022-10-10T08:46:57Z</time>
      </trkpt>
      <trkpt lat="43.95614" lon="7.19757">
        <ele>912.78</ele>
        <time>2022-10-10T08:46:58Z</time>
      </trkpt>
      <trkpt lat="43.95609" lon="7.19743">
        <ele>910.95</ele>
        <time>2022-10-10T08:46:59Z</time>
      </trkpt>
      <trkpt lat="43.95602" lon="7.19729">
        <ele>910.91</ele>
        <time>2022-10-10T08:47:00Z</time>
      </trkpt>
      <trkpt lat="43.95595" lon="7.19716">
        <ele>908.49</ele>
        <time>2022-10-10T08:47:01Z</time>
      </trkpt>
      <trkpt lat="43.95587" lon="7.19705">
        <ele>908.49</ele>
        <time>2022-10-10T08:47:02Z</time>
      </trkpt>
      <trkpt lat="43.95578" lon="7.19694">
        <ele>906.97</ele>
        <time>2022-10-10T08:47:03Z</time>
      </trkpt>
      <trkpt lat="43.95569" lon="7.19684">
        <ele>906.94</ele>
        <time>2022-10-10T08:47:04Z</time>
      </trkpt>
      <trkpt lat="43.9554" lon="7.19656">
        <ele>903.1</ele>
        <time>2022-10-10T08:47:07Z</time>
      </trkpt>
      <trkpt lat="43.9552" lon="7.1964">
        <ele>901.25</ele>
        <time>2022-10-10T08:47:09Z</time>
      </trkpt>
      <trkpt lat="43.95498" lon="7.19629">
        <ele>899.57</ele>
        <time>2022-10-10T08:47:11Z</time>
      </trkpt>
      <trkpt lat="43.95477" lon="7.19618">
        <ele>896.53</ele>
        <time>2022-10-10T08:47:13Z</time>
      </trkpt>
      <trkpt lat="43.95444" lon="7.19602">
        <ele>892.74</ele>
        <time>2022-10-10T08:47:16Z</time>
      </trkpt>
      <trkpt lat="43.9541" lon="7.19589">
        <ele>889.63</ele>
        <time>2022-10-10T08:47:19Z</time>
      </trkpt>
      <trkpt lat="43.95388" lon="7.19583">
        <ele>888.29</ele>
        <time>2022-10-10T08:47:21Z</time>
      </trkpt>
      <trkpt lat="43.95365" lon="7.19577">
        <ele>885.23</ele>
        <time>2022-10-10T08:47:23Z</time>
      </trkpt>
      <trkpt lat="43.95331" lon="7.19568">
        <ele>882.06</ele>
        <time>2022-10-10T08:47:26Z</time>
      </trkpt>
      <trkpt lat="43.95296" lon="7.19558">
        <ele>878.2</ele>
        <time>2022-10-10T08:47:29Z</time>
      </trkpt>
      <trkpt lat="43.95273" lon="7.19551">
        <ele>876.52</ele>
        <time>2022-10-10T08:47:31Z</time>
      </trkpt>
      <trkpt lat="43.95249" lon="7.19544">
        <ele>873.1</ele>
        <time>2022-10-10T08:47:33Z</time>
      </trkpt>
      <trkpt lat="43.95213" lon="7.19536">
        <ele>869.25</ele>
        <time>2022-10-10T08:47:36Z</time>
      </trkpt>
      <trkpt lat="43.95201" lon="7.19533">
        <ele>869.23</ele>
        <time>2022-10-10T08:47:37Z</time>
      </trkpt>
      <trkpt lat="43.95177" lon="7.19527">
        <ele>866.19</ele>
        <time>2022-10-10T08:47:39Z</time>
      </trkpt>
      <trkpt lat="43.95153" lon="7.19524">
        <ele>863.78</ele>
        <time>2022-10-10T08:47:41Z</time>
      </trkpt>
      <trkpt lat="43.95141" lon="7.19525">
        <ele>862.62</ele>
        <time>2022-10-10T08:47:42Z</time>
      </trkpt>
      <trkpt lat="43.95117" lon="7.19529">
        <ele>860.77</ele>
        <time>2022-10-10T08:47:44Z</time>
      </trkpt>
      <trkpt lat="43.95106" lon="7.1953">
        <ele>858.59</ele>
        <time>2022-10-10T08:47:45Z</time>
      </trkpt>
      <trkpt lat="43.95097" lon="7.1953">
        <ele>857.73</ele>
        <time>2022-10-10T08:47:46Z</time>
      </trkpt>
      <trkpt lat="43.95089" lon="7.19528">
        <ele>856.29</ele>
        <time>2022-10-10T08:47:47Z</time>
      </trkpt>
      <trkpt lat="43.95082" lon="7.19526">
        <ele>856.19</ele>
        <time>2022-10-10T08:47:48Z</time>
      </trkpt>
      <trkpt lat="43.95077" lon="7.19527">
        <ele>854.95</ele>
        <time>2022-10-10T08:47:49Z</time>
      </trkpt>
      <trkpt lat="43.95074" lon="7.1953">
        <ele>854.85</ele>
        <time>2022-10-10T08:47:50Z</time>
      </trkpt>
      <trkpt lat="43.95074" lon="7.19535">
        <ele>853.87</ele>
        <time>2022-10-10T08:47:51Z</time>
      </trkpt>
      <trkpt lat="43.95079" lon="7.19538">
        <ele>853.99</ele>
        <time>2022-10-10T08:47:52Z</time>
      </trkpt>
      <trkpt lat="43.95087" lon="7.19539">
        <ele>853.91</ele>
        <time>2022-10-10T08:47:53Z</time>
      </trkpt>
      <trkpt lat="43.95096" lon="7.1954">
        <ele>853.89</ele>
        <time>2022-10-10T08:47:54Z</time>
      </trkpt>
      <trkpt lat="43.95107" lon="7.19542">
        <ele>853.84</ele>
        <time>2022-10-10T08:47:55Z</time>
      </trkpt>
      <trkpt lat="43.95157" lon="7.19559">
        <ele>850.8</ele>
        <time>2022-10-10T08:47:59Z</time>
      </trkpt>
      <trkpt lat="43.95194" lon="7.19584">
        <ele>847.32</ele>
        <time>2022-10-10T08:48:02Z</time>
      </trkpt>
      <trkpt lat="43.95218" lon="7.196">
        <ele>846.02</ele>
        <time>2022-10-10T08:48:04Z</time>
      </trkpt>
      <trkpt lat="43.95241" lon="7.19617">
        <ele>842.3</ele>
        <time>2022-10-10T08:48:06Z</time>
      </trkpt>
      <trkpt lat="43.95274" lon="7.19644">
        <ele>838.78</ele>
        <time>2022-10-10T08:48:09Z</time>
      </trkpt>
      <trkpt lat="43.95307" lon="7.1967">
        <ele>835.2</ele>
        <time>2022-10-10T08:48:12Z</time>
      </trkpt>
      <trkpt lat="43.95328" lon="7.19688">
        <ele>834.02</ele>
        <time>2022-10-10T08:48:14Z</time>
      </trkpt>
      <trkpt lat="43.95358" lon="7.19717">
        <ele>829.92</ele>
        <time>2022-10-10T08:48:17Z</time>
      </trkpt>
      <trkpt lat="43.95375" lon="7.19737">
        <ele>828.36</ele>
        <time>2022-10-10T08:48:19Z</time>
      </trkpt>
      <trkpt lat="43.95382" lon="7.19747">
        <ele>826.17</ele>
        <time>2022-10-10T08:48:20Z</time>
      </trkpt>
      <trkpt lat="43.95387" lon="7.19757">
        <ele>825.03</ele>
        <time>2022-10-10T08:48:21Z</time>
      </trkpt>
      <trkpt lat="43.9539" lon="7.19767">
        <ele>823.81</ele>
        <time>2022-10-10T08:48:22Z</time>
      </trkpt>
      <trkpt lat="43.95391" lon="7.19775">
        <ele>823.06</ele>
        <time>2022-10-10T08:48:23Z</time>
      </trkpt>
      <trkpt lat="43.95387" lon="7.19783">
        <ele>822.99</ele>
        <time>2022-10-10T08:48:24Z</time>
      </trkpt>
      <trkpt lat="43.95381" lon="7.19787">
        <ele>821.78</ele>
        <time>2022-10-10T08:48:25Z</time>
      </trkpt>
      <trkpt lat="43.95374" lon="7.19791">
        <ele>821.73</ele>
        <time>2022-10-10T08:48:26Z</time>
      </trkpt>
      <trkpt lat="43.95355" lon="7.198">
        <ele>819.49</ele>
        <time>2022-10-10T08:48:29Z</time>
      </trkpt>
      <trkpt lat="43.9535" lon="7.198">
        <ele>819.58</ele>
        <time>2022-10-10T08:48:30Z</time>
      </trkpt>
      <trkpt lat="43.95352" lon="7.19791">
        <ele>819.58</ele>
        <time>2022-10-10T08:48:32Z</time>
      </trkpt>
      <trkpt lat="43.95358" lon="7.19787">
        <ele>819.51</ele>
        <time>2022-10-10T08:48:33Z</time>
      </trkpt>
      <trkpt lat="43.95365" lon="7.19784">
        <ele>819.52</ele>
        <time>2022-10-10T08:48:34Z</time>
      </trkpt>
      <trkpt lat="43.95371" lon="7.19779">
        <ele>819.53</ele>
        <time>2022-10-10T08:48:35Z</time>
      </trkpt>
      <trkpt lat="43.95374" lon="7.19771">
        <ele>819.53</ele>
        <time>2022-10-10T08:48:36Z</time>
      </trkpt>
      <trkpt lat="43.95374" lon="7.19763">
        <ele>818.74</ele>
        <time>2022-10-10T08:48:37Z</time>
      </trkpt>
      <trkpt lat="43.9537" lon="7.19755">
        <ele>818.75</ele>
        <time>2022-10-10T08:48:38Z</time>
      </trkpt>
      <trkpt lat="43.95364" lon="7.19747">
        <ele>818.73</ele>
        <time>2022-10-10T08:48:39Z</time>
      </trkpt>
      <trkpt lat="43.95356" lon="7.1974">
        <ele>818.73</ele>
        <time>2022-10-10T08:48:40Z</time>
      </trkpt>
      <trkpt lat="43.95346" lon="7.19732">
        <ele>818.74</ele>
        <time>2022-10-10T08:48:41Z</time>
      </trkpt>
      <trkpt lat="43.95336" lon="7.19726">
        <ele>818.71</ele>
        <time>2022-10-10T08:48:42Z</time>
      </trkpt>
      <trkpt lat="43.95324" lon="7.19719">
        <ele>817.89</ele>
        <time>2022-10-10T08:48:43Z</time>
      </trkpt>
      <trkpt lat="43.95272" lon="7.19697">
        <ele>813.48</ele>
        <time>2022-10-10T08:48:47Z</time>
      </trkpt>
      <trkpt lat="43.95259" lon="7.19693">
        <ele>813.47</ele>
        <time>2022-10-10T08:48:48Z</time>
      </trkpt>
      <trkpt lat="43.95221" lon="7.19681">
        <ele>809.76</ele>
        <time>2022-10-10T08:48:51Z</time>
      </trkpt>
      <trkpt lat="43.95197" lon="7.19672">
        <ele>808.29</ele>
        <time>2022-10-10T08:48:53Z</time>
      </trkpt>
      <trkpt lat="43.95162" lon="7.1966">
        <ele>805.3</ele>
        <time>2022-10-10T08:48:56Z</time>
      </trkpt>
      <trkpt lat="43.95139" lon="7.19651">
        <ele>802.27</ele>
        <time>2022-10-10T08:48:58Z</time>
      </trkpt>
      <trkpt lat="43.95128" lon="7.19648">
        <ele>801.33</ele>
        <time>2022-10-10T08:48:59Z</time>
      </trkpt>
      <trkpt lat="43.95117" lon="7.19647">
        <ele>801.34</ele>
        <time>2022-10-10T08:49:00Z</time>
      </trkpt>
      <trkpt lat="43.95095" lon="7.19648">
        <ele>799.97</ele>
        <time>2022-10-10T08:49:02Z</time>
      </trkpt>
      <trkpt lat="43.95073" lon="7.19651">
        <ele>796.55</ele>
        <time>2022-10-10T08:49:04Z</time>
      </trkpt>
      <trkpt lat="43.95062" lon="7.19652">
        <ele>796.56</ele>
        <time>2022-10-10T08:49:05Z</time>
      </trkpt>
      <trkpt lat="43.9503" lon="7.19654">
        <ele>793.4</ele>
        <time>2022-10-10T08:49:08Z</time>
      </trkpt>
      <trkpt lat="43.95009" lon="7.19655">
        <ele>792.52</ele>
        <time>2022-10-10T08:49:10Z</time>
      </trkpt>
      <trkpt lat="43.94999" lon="7.19654">
        <ele>791.71</ele>
        <time>2022-10-10T08:49:11Z</time>
      </trkpt>
      <trkpt lat="43.9499" lon="7.19652">
        <ele>790.86</ele>
        <time>2022-10-10T08:49:12Z</time>
      </trkpt>
      <trkpt lat="43.94982" lon="7.19648">
        <ele>789.87</ele>
        <time>2022-10-10T08:49:13Z</time>
      </trkpt>
      <trkpt lat="43.94977" lon="7.19641">
        <ele>788.01</ele>
        <time>2022-10-10T08:49:14Z</time>
      </trkpt>
      <trkpt lat="43.94975" lon="7.19632">
        <ele>787.97</ele>
        <time>2022-10-10T08:49:15Z</time>
      </trkpt>
      <trkpt lat="43.94974" lon="7.19622">
        <ele>787.92</ele>
        <time>2022-10-10T08:49:16Z</time>
      </trkpt>
      <trkpt lat="43.94973" lon="7.19613">
        <ele>786.51</ele>
        <time>2022-10-10T08:49:17Z</time>
      </trkpt>
      <trkpt lat="43.94971" lon="7.19606">
        <ele>785.34</ele>
        <time>2022-10-10T08:49:18Z</time>
      </trkpt>
      <trkpt lat="43.94967" lon="7.19603">
        <ele>785.29</ele>
        <time>2022-10-10T08:49:19Z</time>
      </trkpt>
      <trkpt lat="43.94964" lon="7.19605">
        <ele>785.24</ele>
        <time>2022-10-10T08:49:20Z</time>
      </trkpt>
      <trkpt lat="43.94963" lon="7.1961">
        <ele>784.82</ele>
        <time>2022-10-10T08:49:21Z</time>
      </trkpt>
      <trkpt lat="43.94963" lon="7.19619">
        <ele>784.82</ele>
        <time>2022-10-10T08:49:22Z</time>
      </trkpt>
      <trkpt lat="43.94964" lon="7.19629">
        <ele>784.74</ele>
        <time>2022-10-10T08:49:23Z</time>
      </trkpt>
      <trkpt lat="43.94968" lon="7.19649">
        <ele>783.11</ele>
        <time>2022-10-10T08:49:25Z</time>
      </trkpt>
      <trkpt lat="43.94972" lon="7.19657">
        <ele>782.37</ele>
        <time>2022-10-10T08:49:26Z</time>
      </trkpt>
      <trkpt lat="43.94978" lon="7.19664">
        <ele>781.21</ele>
        <time>2022-10-10T08:49:27Z</time>
      </trkpt>
      <trkpt lat="43.94984" lon="7.19669">
        <ele>781.21</ele>
        <time>2022-10-10T08:49:28Z</time>
      </trkpt>
      <trkpt lat="43.94991" lon="7.19673">
        <ele>780.22</ele>
        <time>2022-10-10T08:49:29Z</time>
      </trkpt>
      <trkpt lat="43.94999" lon="7.19676">
        <ele>780.23</ele>
        <time>2022-10-10T08:49:30Z</time>
      </trkpt>
      <trkpt lat="43.95019" lon="7.19684">
        <ele>777.95</ele>
        <time>2022-10-10T08:49:33Z</time>
      </trkpt>
      <trkpt lat="43.95032" lon="7.19687">
        <ele>775.73</ele>
        <time>2022-10-10T08:49:35Z</time>
      </trkpt>
      <trkpt lat="43.95038" lon="7.19687">
        <ele>774.76</ele>
        <time>2022-10-10T08:49:36Z</time>
      </trkpt>
      <trkpt lat="43.95044" lon="7.19686">
        <ele>774.77</ele>
        <time>2022-10-10T08:49:37Z</time>
      </trkpt>
      <trkpt lat="43.95052" lon="7.19685">
        <ele>773.44</ele>
        <time>2022-10-10T08:49:39Z</time>
      </trkpt>
      <trkpt lat="43.95059" lon="7.19685">
        <ele>772.48</ele>
        <time>2022-10-10T08:49:48Z</time>
      </trkpt>
      <trkpt lat="43.95063" lon="7.19685">
        <ele>772.87</ele>
        <time>2022-10-10T08:50:07Z</time>
      </trkpt>
      <trkpt lat="43.95065" lon="7.19686">
        <ele>772.84</ele>
        <time>2022-10-10T08:50:08Z</time>
      </trkpt>
      <trkpt lat="43.95066" lon="7.1969">
        <ele>772.8</ele>
        <time>2022-10-10T08:50:09Z</time>
      </trkpt>
      <trkpt lat="43.95065" lon="7.19693">
        <ele>772.76</ele>
        <time>2022-10-10T08:50:10Z</time>
      </trkpt>
      <trkpt lat="43.95062" lon="7.19695">
        <ele>772.76</ele>
        <time>2022-10-10T08:50:11Z</time>
      </trkpt>
      <trkpt lat="43.95057" lon="7.19696">
        <ele>771.56</ele>
        <time>2022-10-10T08:50:12Z</time>
      </trkpt>
      <trkpt lat="43.95052" lon="7.19695">
        <ele>771.57</ele>
        <time>2022-10-10T08:50:13Z</time>
      </trkpt>
      <trkpt lat="43.95044" lon="7.19694">
        <ele>771.54</ele>
        <time>2022-10-10T08:50:14Z</time>
      </trkpt>
      <trkpt lat="43.95036" lon="7.19694">
        <ele>770.73</ele>
        <time>2022-10-10T08:50:15Z</time>
      </trkpt>
      <trkpt lat="43.94994" lon="7.19694">
        <ele>768.01</ele>
        <time>2022-10-10T08:50:20Z</time>
      </trkpt>
      <trkpt lat="43.9497" lon="7.19689">
        <ele>766.78</ele>
        <time>2022-10-10T08:50:23Z</time>
      </trkpt>
      <trkpt lat="43.94962" lon="7.19685">
        <ele>765.77</ele>
        <time>2022-10-10T08:50:24Z</time>
      </trkpt>
      <trkpt lat="43.94955" lon="7.19681">
        <ele>764.74</ele>
        <time>2022-10-10T08:50:25Z</time>
      </trkpt>
      <trkpt lat="43.94949" lon="7.19675">
        <ele>764.69</ele>
        <time>2022-10-10T08:50:26Z</time>
      </trkpt>
      <trkpt lat="43.94946" lon="7.19667">
        <ele>762.94</ele>
        <time>2022-10-10T08:50:27Z</time>
      </trkpt>
      <trkpt lat="43.94945" lon="7.19658">
        <ele>762.9</ele>
        <time>2022-10-10T08:50:28Z</time>
      </trkpt>
      <trkpt lat="43.94946" lon="7.19646">
        <ele>762.91</ele>
        <time>2022-10-10T08:50:29Z</time>
      </trkpt>
      <trkpt lat="43.94946" lon="7.19634">
        <ele>761.82</ele>
        <time>2022-10-10T08:50:30Z</time>
      </trkpt>
      <trkpt lat="43.94945" lon="7.19622">
        <ele>760.94</ele>
        <time>2022-10-10T08:50:31Z</time>
      </trkpt>
      <trkpt lat="43.94942" lon="7.1961">
        <ele>760.91</ele>
        <time>2022-10-10T08:50:32Z</time>
      </trkpt>
      <trkpt lat="43.94937" lon="7.196">
        <ele>759.42</ele>
        <time>2022-10-10T08:50:33Z</time>
      </trkpt>
      <trkpt lat="43.94931" lon="7.19593">
        <ele>759.43</ele>
        <time>2022-10-10T08:50:34Z</time>
      </trkpt>
      <trkpt lat="43.94924" lon="7.19587">
        <ele>758.03</ele>
        <time>2022-10-10T08:50:35Z</time>
      </trkpt>
      <trkpt lat="43.94916" lon="7.19582">
        <ele>757.97</ele>
        <time>2022-10-10T08:50:36Z</time>
      </trkpt>
      <trkpt lat="43.9491" lon="7.19577">
        <ele>757.19</ele>
        <time>2022-10-10T08:50:37Z</time>
      </trkpt>
      <trkpt lat="43.94906" lon="7.1957">
        <ele>755.79</ele>
        <time>2022-10-10T08:50:38Z</time>
      </trkpt>
      <trkpt lat="43.94904" lon="7.19562">
        <ele>754.62</ele>
        <time>2022-10-10T08:50:39Z</time>
      </trkpt>
      <trkpt lat="43.94904" lon="7.19553">
        <ele>754.6</ele>
        <time>2022-10-10T08:50:40Z</time>
      </trkpt>
      <trkpt lat="43.94906" lon="7.19541">
        <ele>754.17</ele>
        <time>2022-10-10T08:50:41Z</time>
      </trkpt>
      <trkpt lat="43.94908" lon="7.19529">
        <ele>753.31</ele>
        <time>2022-10-10T08:50:42Z</time>
      </trkpt>
      <trkpt lat="43.94907" lon="7.19517">
        <ele>753.23</ele>
        <time>2022-10-10T08:50:43Z</time>
      </trkpt>
      <trkpt lat="43.94905" lon="7.19504">
        <ele>752.25</ele>
        <time>2022-10-10T08:50:44Z</time>
      </trkpt>
      <trkpt lat="43.94903" lon="7.19492">
        <ele>751.24</ele>
        <time>2022-10-10T08:50:45Z</time>
      </trkpt>
      <trkpt lat="43.94898" lon="7.19469">
        <ele>750.09</ele>
        <time>2022-10-10T08:50:47Z</time>
      </trkpt>
      <trkpt lat="43.94896" lon="7.19457">
        <ele>748.76</ele>
        <time>2022-10-10T08:50:48Z</time>
      </trkpt>
      <trkpt lat="43.94895" lon="7.19444">
        <ele>748.71</ele>
        <time>2022-10-10T08:50:49Z</time>
      </trkpt>
      <trkpt lat="43.94893" lon="7.19431">
        <ele>747.65</ele>
        <time>2022-10-10T08:50:50Z</time>
      </trkpt>
      <trkpt lat="43.9489" lon="7.1942">
        <ele>746.49</ele>
        <time>2022-10-10T08:50:51Z</time>
      </trkpt>
      <trkpt lat="43.94885" lon="7.1941">
        <ele>746.47</ele>
        <time>2022-10-10T08:50:52Z</time>
      </trkpt>
      <trkpt lat="43.94881" lon="7.194">
        <ele>745.2</ele>
        <time>2022-10-10T08:50:53Z</time>
      </trkpt>
      <trkpt lat="43.94878" lon="7.1939">
        <ele>744.19</ele>
        <time>2022-10-10T08:50:54Z</time>
      </trkpt>
      <trkpt lat="43.94877" lon="7.1938">
        <ele>744.11</ele>
        <time>2022-10-10T08:50:55Z</time>
      </trkpt>
      <trkpt lat="43.94876" lon="7.19365">
        <ele>742.61</ele>
        <time>2022-10-10T08:50:57Z</time>
      </trkpt>
      <trkpt lat="43.94873" lon="7.19363">
        <ele>741.1</ele>
        <time>2022-10-10T08:50:58Z</time>
      </trkpt>
      <trkpt lat="43.94871" lon="7.19366">
        <ele>741.03</ele>
        <time>2022-10-10T08:50:59Z</time>
      </trkpt>
      <trkpt lat="43.94871" lon="7.19372">
        <ele>741.01</ele>
        <time>2022-10-10T08:51:00Z</time>
      </trkpt>
      <trkpt lat="43.94871" lon="7.19381">
        <ele>741.04</ele>
        <time>2022-10-10T08:51:01Z</time>
      </trkpt>
      <trkpt lat="43.94872" lon="7.19391">
        <ele>740.14</ele>
        <time>2022-10-10T08:51:02Z</time>
      </trkpt>
      <trkpt lat="43.94876" lon="7.19413">
        <ele>740.2</ele>
        <time>2022-10-10T08:51:04Z</time>
      </trkpt>
      <trkpt lat="43.9488" lon="7.19424">
        <ele>739.42</ele>
        <time>2022-10-10T08:51:05Z</time>
      </trkpt>
      <trkpt lat="43.94882" lon="7.19435">
        <ele>737.44</ele>
        <time>2022-10-10T08:51:06Z</time>
      </trkpt>
      <trkpt lat="43.94883" lon="7.19446">
        <ele>737.43</ele>
        <time>2022-10-10T08:51:07Z</time>
      </trkpt>
      <trkpt lat="43.94884" lon="7.19458">
        <ele>737.37</ele>
        <time>2022-10-10T08:51:08Z</time>
      </trkpt>
      <trkpt lat="43.94885" lon="7.1947">
        <ele>735.51</ele>
        <time>2022-10-10T08:51:09Z</time>
      </trkpt>
      <trkpt lat="43.94887" lon="7.19494">
        <ele>734.63</ele>
        <time>2022-10-10T08:51:11Z</time>
      </trkpt>
      <trkpt lat="43.9489" lon="7.19538">
        <ele>731.52</ele>
        <time>2022-10-10T08:51:15Z</time>
      </trkpt>
      <trkpt lat="43.9489" lon="7.19546">
        <ele>731.57</ele>
        <time>2022-10-10T08:51:16Z</time>
      </trkpt>
      <trkpt lat="43.94889" lon="7.19552">
        <ele>729.95</ele>
        <time>2022-10-10T08:51:17Z</time>
      </trkpt>
      <trkpt lat="43.94886" lon="7.19554">
        <ele>728.87</ele>
        <time>2022-10-10T08:51:18Z</time>
      </trkpt>
      <trkpt lat="43.94884" lon="7.1955">
        <ele>728.88</ele>
        <time>2022-10-10T08:51:19Z</time>
      </trkpt>
      <trkpt lat="43.94882" lon="7.19543">
        <ele>728.84</ele>
        <time>2022-10-10T08:51:20Z</time>
      </trkpt>
      <trkpt lat="43.94882" lon="7.19531">
        <ele>728.82</ele>
        <time>2022-10-10T08:51:21Z</time>
      </trkpt>
      <trkpt lat="43.94879" lon="7.19504">
        <ele>727.5</ele>
        <time>2022-10-10T08:51:23Z</time>
      </trkpt>
      <trkpt lat="43.94872" lon="7.19462">
        <ele>724.68</ele>
        <time>2022-10-10T08:51:26Z</time>
      </trkpt>
      <trkpt lat="43.94867" lon="7.19449">
        <ele>723.67</ele>
        <time>2022-10-10T08:51:27Z</time>
      </trkpt>
      <trkpt lat="43.94862" lon="7.19438">
        <ele>722.71</ele>
        <time>2022-10-10T08:51:28Z</time>
      </trkpt>
      <trkpt lat="43.94856" lon="7.19426">
        <ele>721.53</ele>
        <time>2022-10-10T08:51:29Z</time>
      </trkpt>
      <trkpt lat="43.94852" lon="7.19413">
        <ele>719.71</ele>
        <time>2022-10-10T08:51:30Z</time>
      </trkpt>
      <trkpt lat="43.94848" lon="7.194">
        <ele>718.46</ele>
        <time>2022-10-10T08:51:31Z</time>
      </trkpt>
      <trkpt lat="43.94844" lon="7.19373">
        <ele>715.7</ele>
        <time>2022-10-10T08:51:33Z</time>
      </trkpt>
      <trkpt lat="43.94843" lon="7.1936">
        <ele>714.79</ele>
        <time>2022-10-10T08:51:34Z</time>
      </trkpt>
      <trkpt lat="43.94844" lon="7.19346">
        <ele>713.65</ele>
        <time>2022-10-10T08:51:35Z</time>
      </trkpt>
      <trkpt lat="43.94842" lon="7.19332">
        <ele>712.42</ele>
        <time>2022-10-10T08:51:36Z</time>
      </trkpt>
      <trkpt lat="43.94836" lon="7.1932">
        <ele>710.44</ele>
        <time>2022-10-10T08:51:37Z</time>
      </trkpt>
      <trkpt lat="43.94829" lon="7.19311">
        <ele>710.55</ele>
        <time>2022-10-10T08:51:38Z</time>
      </trkpt>
      <trkpt lat="43.94821" lon="7.19304">
        <ele>709.11</ele>
        <time>2022-10-10T08:51:39Z</time>
      </trkpt>
      <trkpt lat="43.94814" lon="7.19295">
        <ele>707.19</ele>
        <time>2022-10-10T08:51:40Z</time>
      </trkpt>
      <trkpt lat="43.94809" lon="7.19284">
        <ele>706.12</ele>
        <time>2022-10-10T08:51:41Z</time>
      </trkpt>
      <trkpt lat="43.94805" lon="7.19272">
        <ele>705.37</ele>
        <time>2022-10-10T08:51:42Z</time>
      </trkpt>
      <trkpt lat="43.94793" lon="7.19233">
        <ele>702.06</ele>
        <time>2022-10-10T08:51:45Z</time>
      </trkpt>
      <trkpt lat="43.9479" lon="7.1922">
        <ele>700.92</ele>
        <time>2022-10-10T08:51:46Z</time>
      </trkpt>
      <trkpt lat="43.94788" lon="7.19206">
        <ele>700.09</ele>
        <time>2022-10-10T08:51:47Z</time>
      </trkpt>
      <trkpt lat="43.94787" lon="7.19192">
        <ele>698.74</ele>
        <time>2022-10-10T08:51:48Z</time>
      </trkpt>
      <trkpt lat="43.94785" lon="7.19152">
        <ele>695.48</ele>
        <time>2022-10-10T08:51:51Z</time>
      </trkpt>
      <trkpt lat="43.94785" lon="7.1913">
        <ele>694.04</ele>
        <time>2022-10-10T08:51:53Z</time>
      </trkpt>
      <trkpt lat="43.94787" lon="7.19118">
        <ele>692.97</ele>
        <time>2022-10-10T08:51:54Z</time>
      </trkpt>
      <trkpt lat="43.94791" lon="7.19097">
        <ele>690.16</ele>
        <time>2022-10-10T08:51:56Z</time>
      </trkpt>
      <trkpt lat="43.94794" lon="7.19088">
        <ele>690.06</ele>
        <time>2022-10-10T08:51:57Z</time>
      </trkpt>
      <trkpt lat="43.94797" lon="7.1908">
        <ele>688.52</ele>
        <time>2022-10-10T08:51:58Z</time>
      </trkpt>
      <trkpt lat="43.94799" lon="7.19074">
        <ele>687.52</ele>
        <time>2022-10-10T08:51:59Z</time>
      </trkpt>
      <trkpt lat="43.94798" lon="7.19067">
        <ele>687.52</ele>
        <time>2022-10-10T08:52:00Z</time>
      </trkpt>
      <trkpt lat="43.94795" lon="7.19064">
        <ele>686.36</ele>
        <time>2022-10-10T08:52:01Z</time>
      </trkpt>
      <trkpt lat="43.94791" lon="7.19065">
        <ele>686.34</ele>
        <time>2022-10-10T08:52:02Z</time>
      </trkpt>
      <trkpt lat="43.94788" lon="7.19072">
        <ele>686.25</ele>
        <time>2022-10-10T08:52:03Z</time>
      </trkpt>
      <trkpt lat="43.94785" lon="7.19082">
        <ele>686.28</ele>
        <time>2022-10-10T08:52:04Z</time>
      </trkpt>
      <trkpt lat="43.94781" lon="7.19093">
        <ele>685.44</ele>
        <time>2022-10-10T08:52:05Z</time>
      </trkpt>
      <trkpt lat="43.94776" lon="7.19104">
        <ele>685.35</ele>
        <time>2022-10-10T08:52:06Z</time>
      </trkpt>
      <trkpt lat="43.94772" lon="7.19117">
        <ele>683.83</ele>
        <time>2022-10-10T08:52:07Z</time>
      </trkpt>
      <trkpt lat="43.94768" lon="7.19129">
        <ele>682.18</ele>
        <time>2022-10-10T08:52:08Z</time>
      </trkpt>
      <trkpt lat="43.94765" lon="7.19142">
        <ele>682.13</ele>
        <time>2022-10-10T08:52:09Z</time>
      </trkpt>
      <trkpt lat="43.94763" lon="7.19156">
        <ele>680.74</ele>
        <time>2022-10-10T08:52:10Z</time>
      </trkpt>
      <trkpt lat="43.94762" lon="7.1917">
        <ele>679.71</ele>
        <time>2022-10-10T08:52:11Z</time>
      </trkpt>
      <trkpt lat="43.94758" lon="7.19212">
        <ele>676.66</ele>
        <time>2022-10-10T08:52:14Z</time>
      </trkpt>
      <trkpt lat="43.94758" lon="7.19225">
        <ele>675.23</ele>
        <time>2022-10-10T08:52:15Z</time>
      </trkpt>
      <trkpt lat="43.94759" lon="7.19236">
        <ele>674.2</ele>
        <time>2022-10-10T08:52:16Z</time>
      </trkpt>
      <trkpt lat="43.9476" lon="7.19246">
        <ele>672.89</ele>
        <time>2022-10-10T08:52:17Z</time>
      </trkpt>
      <trkpt lat="43.94762" lon="7.19255">
        <ele>672.05</ele>
        <time>2022-10-10T08:52:18Z</time>
      </trkpt>
      <trkpt lat="43.94762" lon="7.19262">
        <ele>671.97</ele>
        <time>2022-10-10T08:52:19Z</time>
      </trkpt>
      <trkpt lat="43.9476" lon="7.19267">
        <ele>670.32</ele>
        <time>2022-10-10T08:52:20Z</time>
      </trkpt>
      <trkpt lat="43.94757" lon="7.19268">
        <ele>670.32</ele>
        <time>2022-10-10T08:52:21Z</time>
      </trkpt>
      <trkpt lat="43.94754" lon="7.19264">
        <ele>670.23</ele>
        <time>2022-10-10T08:52:22Z</time>
      </trkpt>
      <trkpt lat="43.94752" lon="7.19255">
        <ele>669</ele>
        <time>2022-10-10T08:52:23Z</time>
      </trkpt>
      <trkpt lat="43.9475" lon="7.19243">
        <ele>668.91</ele>
        <time>2022-10-10T08:52:24Z</time>
      </trkpt>
      <trkpt lat="43.94741" lon="7.19189">
        <ele>664.99</ele>
        <time>2022-10-10T08:52:28Z</time>
      </trkpt>
      <trkpt lat="43.94734" lon="7.19148">
        <ele>661.78</ele>
        <time>2022-10-10T08:52:31Z</time>
      </trkpt>
      <trkpt lat="43.94734" lon="7.19135">
        <ele>660.61</ele>
        <time>2022-10-10T08:52:32Z</time>
      </trkpt>
      <trkpt lat="43.94734" lon="7.19121">
        <ele>659.68</ele>
        <time>2022-10-10T08:52:33Z</time>
      </trkpt>
      <trkpt lat="43.94735" lon="7.19107">
        <ele>658.78</ele>
        <time>2022-10-10T08:52:34Z</time>
      </trkpt>
      <trkpt lat="43.94737" lon="7.19093">
        <ele>657.66</ele>
        <time>2022-10-10T08:52:35Z</time>
      </trkpt>
      <trkpt lat="43.94739" lon="7.19079">
        <ele>656.85</ele>
        <time>2022-10-10T08:52:36Z</time>
      </trkpt>
      <trkpt lat="43.94743" lon="7.19066">
        <ele>656.01</ele>
        <time>2022-10-10T08:52:37Z</time>
      </trkpt>
      <trkpt lat="43.94747" lon="7.19053">
        <ele>655.15</ele>
        <time>2022-10-10T08:52:38Z</time>
      </trkpt>
      <trkpt lat="43.94756" lon="7.1903">
        <ele>653.6</ele>
        <time>2022-10-10T08:52:40Z</time>
      </trkpt>
      <trkpt lat="43.94761" lon="7.1902">
        <ele>652.09</ele>
        <time>2022-10-10T08:52:41Z</time>
      </trkpt>
      <trkpt lat="43.94767" lon="7.19015">
        <ele>650.97</ele>
        <time>2022-10-10T08:52:42Z</time>
      </trkpt>
      <trkpt lat="43.94773" lon="7.19012">
        <ele>650.91</ele>
        <time>2022-10-10T08:52:43Z</time>
      </trkpt>
      <trkpt lat="43.94781" lon="7.1901">
        <ele>650.78</ele>
        <time>2022-10-10T08:52:44Z</time>
      </trkpt>
      <trkpt lat="43.94789" lon="7.19009">
        <ele>649.6</ele>
        <time>2022-10-10T08:52:45Z</time>
      </trkpt>
      <trkpt lat="43.94797" lon="7.19008">
        <ele>648.92</ele>
        <time>2022-10-10T08:52:46Z</time>
      </trkpt>
      <trkpt lat="43.94805" lon="7.19005">
        <ele>648.83</ele>
        <time>2022-10-10T08:52:47Z</time>
      </trkpt>
      <trkpt lat="43.9481" lon="7.18998">
        <ele>647.8</ele>
        <time>2022-10-10T08:52:48Z</time>
      </trkpt>
      <trkpt lat="43.94813" lon="7.18988">
        <ele>647.72</ele>
        <time>2022-10-10T08:52:49Z</time>
      </trkpt>
      <trkpt lat="43.94814" lon="7.18977">
        <ele>646.19</ele>
        <time>2022-10-10T08:52:50Z</time>
      </trkpt>
      <trkpt lat="43.94814" lon="7.18964">
        <ele>646.19</ele>
        <time>2022-10-10T08:52:51Z</time>
      </trkpt>
      <trkpt lat="43.94812" lon="7.1895">
        <ele>644.4</ele>
        <time>2022-10-10T08:52:52Z</time>
      </trkpt>
      <trkpt lat="43.9481" lon="7.18938">
        <ele>643.45</ele>
        <time>2022-10-10T08:52:53Z</time>
      </trkpt>
      <trkpt lat="43.94808" lon="7.18927">
        <ele>642.08</ele>
        <time>2022-10-10T08:52:54Z</time>
      </trkpt>
      <trkpt lat="43.94809" lon="7.18917">
        <ele>642.07</ele>
        <time>2022-10-10T08:52:55Z</time>
      </trkpt>
      <trkpt lat="43.94811" lon="7.18907">
        <ele>641.16</ele>
        <time>2022-10-10T08:52:56Z</time>
      </trkpt>
      <trkpt lat="43.94816" lon="7.18896">
        <ele>640.16</ele>
        <time>2022-10-10T08:52:57Z</time>
      </trkpt>
      <trkpt lat="43.94823" lon="7.18886">
        <ele>640.13</ele>
        <time>2022-10-10T08:52:58Z</time>
      </trkpt>
      <trkpt lat="43.9483" lon="7.18875">
        <ele>638.8</ele>
        <time>2022-10-10T08:52:59Z</time>
      </trkpt>
      <trkpt lat="43.94838" lon="7.18865">
        <ele>637.43</ele>
        <time>2022-10-10T08:53:00Z</time>
      </trkpt>
      <trkpt lat="43.94845" lon="7.18854">
        <ele>636.46</ele>
        <time>2022-10-10T08:53:01Z</time>
      </trkpt>
      <trkpt lat="43.94851" lon="7.18845">
        <ele>634.85</ele>
        <time>2022-10-10T08:53:02Z</time>
      </trkpt>
      <trkpt lat="43.94864" lon="7.18823">
        <ele>631.65</ele>
        <time>2022-10-10T08:53:05Z</time>
      </trkpt>
      <trkpt lat="43.94863" lon="7.18818">
        <ele>631.6</ele>
        <time>2022-10-10T08:53:06Z</time>
      </trkpt>
      <trkpt lat="43.94859" lon="7.18817">
        <ele>630.51</ele>
        <time>2022-10-10T08:53:07Z</time>
      </trkpt>
      <trkpt lat="43.94855" lon="7.18821">
        <ele>630.47</ele>
        <time>2022-10-10T08:53:08Z</time>
      </trkpt>
      <trkpt lat="43.9485" lon="7.18829">
        <ele>630.1</ele>
        <time>2022-10-10T08:53:09Z</time>
      </trkpt>
      <trkpt lat="43.94845" lon="7.18837">
        <ele>630.01</ele>
        <time>2022-10-10T08:53:10Z</time>
      </trkpt>
      <trkpt lat="43.94839" lon="7.18844">
        <ele>630.02</ele>
        <time>2022-10-10T08:53:11Z</time>
      </trkpt>
      <trkpt lat="43.94833" lon="7.18849">
        <ele>628.72</ele>
        <time>2022-10-10T08:53:12Z</time>
      </trkpt>
      <trkpt lat="43.94827" lon="7.18854">
        <ele>628.72</ele>
        <time>2022-10-10T08:53:13Z</time>
      </trkpt>
      <trkpt lat="43.94819" lon="7.18859">
        <ele>627.3</ele>
        <time>2022-10-10T08:53:14Z</time>
      </trkpt>
      <trkpt lat="43.94813" lon="7.18864">
        <ele>626.23</ele>
        <time>2022-10-10T08:53:15Z</time>
      </trkpt>
      <trkpt lat="43.94807" lon="7.18871">
        <ele>625.05</ele>
        <time>2022-10-10T08:53:16Z</time>
      </trkpt>
      <trkpt lat="43.94802" lon="7.18879">
        <ele>624.99</ele>
        <time>2022-10-10T08:53:17Z</time>
      </trkpt>
      <trkpt lat="43.94798" lon="7.18886">
        <ele>624.15</ele>
        <time>2022-10-10T08:53:18Z</time>
      </trkpt>
      <trkpt lat="43.94794" lon="7.18891">
        <ele>622.82</ele>
        <time>2022-10-10T08:53:19Z</time>
      </trkpt>
      <trkpt lat="43.9479" lon="7.18892">
        <ele>622.77</ele>
        <time>2022-10-10T08:53:20Z</time>
      </trkpt>
      <trkpt lat="43.94787" lon="7.18892">
        <ele>622.74</ele>
        <time>2022-10-10T08:53:21Z</time>
      </trkpt>
      <trkpt lat="43.94785" lon="7.18891">
        <ele>622.71</ele>
        <time>2022-10-10T08:53:22Z</time>
      </trkpt>
      <trkpt lat="43.94783" lon="7.1889">
        <ele>622.28</ele>
        <time>2022-10-10T08:53:34Z</time>
      </trkpt>
      <trkpt lat="43.94783" lon="7.18883">
        <ele>622.33</ele>
        <time>2022-10-10T08:54:14Z</time>
      </trkpt>
      <trkpt lat="43.94783" lon="7.18881">
        <ele>622.31</ele>
        <time>2022-10-10T08:54:15Z</time>
      </trkpt>
      <trkpt lat="43.94785" lon="7.1888">
        <ele>622.34</ele>
        <time>2022-10-10T08:54:16Z</time>
      </trkpt>
      <trkpt lat="43.94798" lon="7.18864">
        <ele>622.34</ele>
        <time>2022-10-10T08:54:19Z</time>
      </trkpt>
      <trkpt lat="43.94804" lon="7.18856">
        <ele>620.86</ele>
        <time>2022-10-10T08:54:20Z</time>
      </trkpt>
      <trkpt lat="43.94809" lon="7.18848">
        <ele>619.34</ele>
        <time>2022-10-10T08:54:21Z</time>
      </trkpt>
      <trkpt lat="43.94816" lon="7.18842">
        <ele>619.3</ele>
        <time>2022-10-10T08:54:22Z</time>
      </trkpt>
      <trkpt lat="43.94823" lon="7.18836">
        <ele>618.15</ele>
        <time>2022-10-10T08:54:23Z</time>
      </trkpt>
      <trkpt lat="43.94829" lon="7.18829">
        <ele>618.15</ele>
        <time>2022-10-10T08:54:24Z</time>
      </trkpt>
      <trkpt lat="43.94834" lon="7.1882">
        <ele>616.6</ele>
        <time>2022-10-10T08:54:25Z</time>
      </trkpt>
      <trkpt lat="43.94837" lon="7.1881">
        <ele>616.59</ele>
        <time>2022-10-10T08:54:26Z</time>
      </trkpt>
      <trkpt lat="43.94839" lon="7.188">
        <ele>615.05</ele>
        <time>2022-10-10T08:54:27Z</time>
      </trkpt>
      <trkpt lat="43.94841" lon="7.1879">
        <ele>614.17</ele>
        <time>2022-10-10T08:54:28Z</time>
      </trkpt>
      <trkpt lat="43.94843" lon="7.1878">
        <ele>614.1</ele>
        <time>2022-10-10T08:54:29Z</time>
      </trkpt>
      <trkpt lat="43.94846" lon="7.18772">
        <ele>612.39</ele>
        <time>2022-10-10T08:54:30Z</time>
      </trkpt>
      <trkpt lat="43.9485" lon="7.18763">
        <ele>611.56</ele>
        <time>2022-10-10T08:54:31Z</time>
      </trkpt>
      <trkpt lat="43.94856" lon="7.18755">
        <ele>611.57</ele>
        <time>2022-10-10T08:54:32Z</time>
      </trkpt>
      <trkpt lat="43.94862" lon="7.18746">
        <ele>611.46</ele>
        <time>2022-10-10T08:54:33Z</time>
      </trkpt>
      <trkpt lat="43.94868" lon="7.18737">
        <ele>609.74</ele>
        <time>2022-10-10T08:54:34Z</time>
      </trkpt>
      <trkpt lat="43.94872" lon="7.18725">
        <ele>608.78</ele>
        <time>2022-10-10T08:54:35Z</time>
      </trkpt>
      <trkpt lat="43.94875" lon="7.18713">
        <ele>608.85</ele>
        <time>2022-10-10T08:54:36Z</time>
      </trkpt>
      <trkpt lat="43.9488" lon="7.1868">
        <ele>604.97</ele>
        <time>2022-10-10T08:54:39Z</time>
      </trkpt>
      <trkpt lat="43.94882" lon="7.1867">
        <ele>604.91</ele>
        <time>2022-10-10T08:54:40Z</time>
      </trkpt>
      <trkpt lat="43.94884" lon="7.1866">
        <ele>603.66</ele>
        <time>2022-10-10T08:54:41Z</time>
      </trkpt>
      <trkpt lat="43.94887" lon="7.18652">
        <ele>602.53</ele>
        <time>2022-10-10T08:54:42Z</time>
      </trkpt>
      <trkpt lat="43.94888" lon="7.18644">
        <ele>601.49</ele>
        <time>2022-10-10T08:54:43Z</time>
      </trkpt>
      <trkpt lat="43.94888" lon="7.18635">
        <ele>601.38</ele>
        <time>2022-10-10T08:54:44Z</time>
      </trkpt>
      <trkpt lat="43.94886" lon="7.18627">
        <ele>599.64</ele>
        <time>2022-10-10T08:54:45Z</time>
      </trkpt>
      <trkpt lat="43.94882" lon="7.1862">
        <ele>599.71</ele>
        <time>2022-10-10T08:54:46Z</time>
      </trkpt>
      <trkpt lat="43.94877" lon="7.18614">
        <ele>598.31</ele>
        <time>2022-10-10T08:54:47Z</time>
      </trkpt>
      <trkpt lat="43.94873" lon="7.18609">
        <ele>597.97</ele>
        <time>2022-10-10T08:54:48Z</time>
      </trkpt>
      <trkpt lat="43.94871" lon="7.18604">
        <ele>597.89</ele>
        <time>2022-10-10T08:54:49Z</time>
      </trkpt>
      <trkpt lat="43.94869" lon="7.18599">
        <ele>597.89</ele>
        <time>2022-10-10T08:54:50Z</time>
      </trkpt>
      <trkpt lat="43.94868" lon="7.18595">
        <ele>597.82</ele>
        <time>2022-10-10T08:54:51Z</time>
      </trkpt>
      <trkpt lat="43.94867" lon="7.18592">
        <ele>597.07</ele>
        <time>2022-10-10T08:54:52Z</time>
      </trkpt>
      <trkpt lat="43.94866" lon="7.18589">
        <ele>597</ele>
        <time>2022-10-10T08:54:53Z</time>
      </trkpt>
      <trkpt lat="43.94864" lon="7.18586">
        <ele>597.13</ele>
        <time>2022-10-10T08:55:05Z</time>
      </trkpt>
      <trkpt lat="43.94849" lon="7.18557">
        <ele>599.71</ele>
        <time>2022-10-10T08:55:17Z</time>
      </trkpt>
      <trkpt lat="43.94831" lon="7.18524">
        <ele>603.2</ele>
        <time>2022-10-10T08:55:20Z</time>
      </trkpt>
      <trkpt lat="43.94813" lon="7.18485">
        <ele>605.6</ele>
        <time>2022-10-10T08:55:23Z</time>
      </trkpt>
      <trkpt lat="43.9478" lon="7.1844">
        <ele>609</ele>
        <time>2022-10-10T08:55:28Z</time>
      </trkpt>
      <trkpt lat="43.94773" lon="7.18432">
        <ele>609.03</ele>
        <time>2022-10-10T08:55:29Z</time>
      </trkpt>
      <trkpt lat="43.94747" lon="7.184">
        <ele>612.64</ele>
        <time>2022-10-10T08:55:33Z</time>
      </trkpt>
      <trkpt lat="43.9474" lon="7.18392">
        <ele>612.56</ele>
        <time>2022-10-10T08:55:34Z</time>
      </trkpt>
      <trkpt lat="43.94667" lon="7.18333">
        <ele>614.19</ele>
        <time>2022-10-10T08:55:44Z</time>
      </trkpt>
      <trkpt lat="43.94661" lon="7.18326">
        <ele>614.18</ele>
        <time>2022-10-10T08:55:45Z</time>
      </trkpt>
      <trkpt lat="43.94655" lon="7.18317">
        <ele>614.16</ele>
        <time>2022-10-10T08:55:46Z</time>
      </trkpt>
      <trkpt lat="43.94651" lon="7.18307">
        <ele>614.17</ele>
        <time>2022-10-10T08:55:47Z</time>
      </trkpt>
      <trkpt lat="43.94646" lon="7.18296">
        <ele>614.14</ele>
        <time>2022-10-10T08:55:48Z</time>
      </trkpt>
      <trkpt lat="43.9462" lon="7.1823">
        <ele>610.22</ele>
        <time>2022-10-10T08:55:53Z</time>
      </trkpt>
      <trkpt lat="43.94614" lon="7.18216">
        <ele>610.16</ele>
        <time>2022-10-10T08:55:54Z</time>
      </trkpt>
      <trkpt lat="43.94599" lon="7.18177">
        <ele>607.68</ele>
        <time>2022-10-10T08:55:57Z</time>
      </trkpt>
      <trkpt lat="43.94592" lon="7.18167">
        <ele>605.38</ele>
        <time>2022-10-10T08:55:58Z</time>
      </trkpt>
      <trkpt lat="43.94583" lon="7.18161">
        <ele>605.29</ele>
        <time>2022-10-10T08:55:59Z</time>
      </trkpt>
      <trkpt lat="43.94572" lon="7.18158">
        <ele>605.3</ele>
        <time>2022-10-10T08:56:00Z</time>
      </trkpt>
      <trkpt lat="43.94561" lon="7.18154">
        <ele>605.25</ele>
        <time>2022-10-10T08:56:01Z</time>
      </trkpt>
      <trkpt lat="43.9454" lon="7.18145">
        <ele>601.97</ele>
        <time>2022-10-10T08:56:03Z</time>
      </trkpt>
      <trkpt lat="43.9453" lon="7.18136">
        <ele>601.05</ele>
        <time>2022-10-10T08:56:04Z</time>
      </trkpt>
      <trkpt lat="43.94521" lon="7.18124">
        <ele>600.36</ele>
        <time>2022-10-10T08:56:05Z</time>
      </trkpt>
      <trkpt lat="43.94513" lon="7.1811">
        <ele>600.28</ele>
        <time>2022-10-10T08:56:06Z</time>
      </trkpt>
      <trkpt lat="43.94505" lon="7.18097">
        <ele>598.59</ele>
        <time>2022-10-10T08:56:07Z</time>
      </trkpt>
      <trkpt lat="43.94499" lon="7.18082">
        <ele>597.53</ele>
        <time>2022-10-10T08:56:08Z</time>
      </trkpt>
      <trkpt lat="43.94494" lon="7.18067">
        <ele>596.31</ele>
        <time>2022-10-10T08:56:09Z</time>
      </trkpt>
      <trkpt lat="43.94493" lon="7.18051">
        <ele>596.35</ele>
        <time>2022-10-10T08:56:10Z</time>
      </trkpt>
      <trkpt lat="43.94492" lon="7.18036">
        <ele>594.66</ele>
        <time>2022-10-10T08:56:11Z</time>
      </trkpt>
      <trkpt lat="43.94491" lon="7.18023">
        <ele>593.04</ele>
        <time>2022-10-10T08:56:12Z</time>
      </trkpt>
      <trkpt lat="43.94487" lon="7.18011">
        <ele>593.06</ele>
        <time>2022-10-10T08:56:13Z</time>
      </trkpt>
      <trkpt lat="43.9448" lon="7.18002">
        <ele>591.47</ele>
        <time>2022-10-10T08:56:14Z</time>
      </trkpt>
      <trkpt lat="43.94472" lon="7.17996">
        <ele>591.51</ele>
        <time>2022-10-10T08:56:15Z</time>
      </trkpt>
      <trkpt lat="43.94461" lon="7.17993">
        <ele>590.6</ele>
        <time>2022-10-10T08:56:16Z</time>
      </trkpt>
      <trkpt lat="43.9445" lon="7.17994">
        <ele>590.51</ele>
        <time>2022-10-10T08:56:17Z</time>
      </trkpt>
      <trkpt lat="43.94439" lon="7.17995">
        <ele>589.1</ele>
        <time>2022-10-10T08:56:18Z</time>
      </trkpt>
      <trkpt lat="43.9443" lon="7.17999">
        <ele>587.32</ele>
        <time>2022-10-10T08:56:19Z</time>
      </trkpt>
      <trkpt lat="43.94422" lon="7.18005">
        <ele>587.27</ele>
        <time>2022-10-10T08:56:20Z</time>
      </trkpt>
      <trkpt lat="43.94416" lon="7.18015">
        <ele>586.14</ele>
        <time>2022-10-10T08:56:21Z</time>
      </trkpt>
      <trkpt lat="43.94412" lon="7.18028">
        <ele>586.08</ele>
        <time>2022-10-10T08:56:22Z</time>
      </trkpt>
      <trkpt lat="43.9441" lon="7.18045">
        <ele>586.06</ele>
        <time>2022-10-10T08:56:23Z</time>
      </trkpt>
      <trkpt lat="43.94408" lon="7.18061">
        <ele>586.15</ele>
        <time>2022-10-10T08:56:24Z</time>
      </trkpt>
      <trkpt lat="43.94405" lon="7.1811">
        <ele>585.32</ele>
        <time>2022-10-10T08:56:27Z</time>
      </trkpt>
      <trkpt lat="43.94407" lon="7.18124">
        <ele>583.69</ele>
        <time>2022-10-10T08:56:28Z</time>
      </trkpt>
      <trkpt lat="43.9441" lon="7.18137">
        <ele>583.76</ele>
        <time>2022-10-10T08:56:29Z</time>
      </trkpt>
      <trkpt lat="43.94412" lon="7.18148">
        <ele>582.85</ele>
        <time>2022-10-10T08:56:30Z</time>
      </trkpt>
      <trkpt lat="43.94414" lon="7.18158">
        <ele>582.81</ele>
        <time>2022-10-10T08:56:31Z</time>
      </trkpt>
      <trkpt lat="43.94412" lon="7.18164">
        <ele>581.77</ele>
        <time>2022-10-10T08:56:32Z</time>
      </trkpt>
      <trkpt lat="43.94407" lon="7.18164">
        <ele>581.75</ele>
        <time>2022-10-10T08:56:33Z</time>
      </trkpt>
      <trkpt lat="43.94404" lon="7.18159">
        <ele>581.76</ele>
        <time>2022-10-10T08:56:34Z</time>
      </trkpt>
      <trkpt lat="43.94402" lon="7.18148">
        <ele>580.73</ele>
        <time>2022-10-10T08:56:35Z</time>
      </trkpt>
      <trkpt lat="43.944" lon="7.18133">
        <ele>580.75</ele>
        <time>2022-10-10T08:56:36Z</time>
      </trkpt>
      <trkpt lat="43.94393" lon="7.18053">
        <ele>578.69</ele>
        <time>2022-10-10T08:56:41Z</time>
      </trkpt>
      <trkpt lat="43.94394" lon="7.18036">
        <ele>578.69</ele>
        <time>2022-10-10T08:56:42Z</time>
      </trkpt>
      <trkpt lat="43.944" lon="7.1797">
        <ele>575.87</ele>
        <time>2022-10-10T08:56:46Z</time>
      </trkpt>
      <trkpt lat="43.94404" lon="7.17957">
        <ele>574.19</ele>
        <time>2022-10-10T08:56:47Z</time>
      </trkpt>
      <trkpt lat="43.9441" lon="7.17945">
        <ele>573.18</ele>
        <time>2022-10-10T08:56:48Z</time>
      </trkpt>
      <trkpt lat="43.94417" lon="7.17937">
        <ele>573.13</ele>
        <time>2022-10-10T08:56:49Z</time>
      </trkpt>
      <trkpt lat="43.94421" lon="7.17928">
        <ele>572.03</ele>
        <time>2022-10-10T08:56:50Z</time>
      </trkpt>
      <trkpt lat="43.94422" lon="7.17919">
        <ele>570.96</ele>
        <time>2022-10-10T08:56:51Z</time>
      </trkpt>
      <trkpt lat="43.94418" lon="7.17912">
        <ele>570.99</ele>
        <time>2022-10-10T08:56:52Z</time>
      </trkpt>
      <trkpt lat="43.94409" lon="7.17908">
        <ele>570.87</ele>
        <time>2022-10-10T08:56:53Z</time>
      </trkpt>
      <trkpt lat="43.94399" lon="7.17908">
        <ele>570.93</ele>
        <time>2022-10-10T08:56:54Z</time>
      </trkpt>
      <trkpt lat="43.94337" lon="7.17909">
        <ele>567.3</ele>
        <time>2022-10-10T08:56:59Z</time>
      </trkpt>
      <trkpt lat="43.94325" lon="7.17914">
        <ele>567.3</ele>
        <time>2022-10-10T08:57:00Z</time>
      </trkpt>
      <trkpt lat="43.94313" lon="7.17922">
        <ele>567.25</ele>
        <time>2022-10-10T08:57:01Z</time>
      </trkpt>
      <trkpt lat="43.94277" lon="7.17952">
        <ele>563.96</ele>
        <time>2022-10-10T08:57:04Z</time>
      </trkpt>
      <trkpt lat="43.94243" lon="7.1798">
        <ele>560.65</ele>
        <time>2022-10-10T08:57:07Z</time>
      </trkpt>
      <trkpt lat="43.94233" lon="7.17987">
        <ele>559.18</ele>
        <time>2022-10-10T08:57:08Z</time>
      </trkpt>
      <trkpt lat="43.94223" lon="7.17989">
        <ele>559.03</ele>
        <time>2022-10-10T08:57:09Z</time>
      </trkpt>
      <trkpt lat="43.94215" lon="7.17985">
        <ele>557.19</ele>
        <time>2022-10-10T08:57:10Z</time>
      </trkpt>
      <trkpt lat="43.94209" lon="7.17976">
        <ele>557.17</ele>
        <time>2022-10-10T08:57:11Z</time>
      </trkpt>
      <trkpt lat="43.94206" lon="7.17963">
        <ele>555.77</ele>
        <time>2022-10-10T08:57:12Z</time>
      </trkpt>
      <trkpt lat="43.94206" lon="7.17949">
        <ele>555.77</ele>
        <time>2022-10-10T08:57:13Z</time>
      </trkpt>
      <trkpt lat="43.94208" lon="7.17934">
        <ele>555.76</ele>
        <time>2022-10-10T08:57:14Z</time>
      </trkpt>
      <trkpt lat="43.9421" lon="7.17919">
        <ele>554.21</ele>
        <time>2022-10-10T08:57:15Z</time>
      </trkpt>
      <trkpt lat="43.94212" lon="7.17904">
        <ele>552.89</ele>
        <time>2022-10-10T08:57:16Z</time>
      </trkpt>
      <trkpt lat="43.94209" lon="7.1789">
        <ele>551.76</ele>
        <time>2022-10-10T08:57:17Z</time>
      </trkpt>
      <trkpt lat="43.94202" lon="7.1788">
        <ele>550.88</ele>
        <time>2022-10-10T08:57:18Z</time>
      </trkpt>
      <trkpt lat="43.94193" lon="7.17876">
        <ele>550.88</ele>
        <time>2022-10-10T08:57:19Z</time>
      </trkpt>
      <trkpt lat="43.94183" lon="7.17877">
        <ele>549.76</ele>
        <time>2022-10-10T08:57:20Z</time>
      </trkpt>
      <trkpt lat="43.94172" lon="7.17879">
        <ele>548.79</ele>
        <time>2022-10-10T08:57:21Z</time>
      </trkpt>
      <trkpt lat="43.94163" lon="7.17877">
        <ele>547.71</ele>
        <time>2022-10-10T08:57:22Z</time>
      </trkpt>
      <trkpt lat="43.94155" lon="7.17869">
        <ele>546.87</ele>
        <time>2022-10-10T08:57:23Z</time>
      </trkpt>
      <trkpt lat="43.94147" lon="7.17858">
        <ele>546.83</ele>
        <time>2022-10-10T08:57:24Z</time>
      </trkpt>
      <trkpt lat="43.94138" lon="7.17846">
        <ele>545.82</ele>
        <time>2022-10-10T08:57:25Z</time>
      </trkpt>
      <trkpt lat="43.9413" lon="7.17833">
        <ele>545.84</ele>
        <time>2022-10-10T08:57:26Z</time>
      </trkpt>
      <trkpt lat="43.94124" lon="7.17817">
        <ele>545.45</ele>
        <time>2022-10-10T08:57:27Z</time>
      </trkpt>
      <trkpt lat="43.94105" lon="7.17766">
        <ele>543.02</ele>
        <time>2022-10-10T08:57:30Z</time>
      </trkpt>
      <trkpt lat="43.94084" lon="7.1772">
        <ele>539.46</ele>
        <time>2022-10-10T08:57:33Z</time>
      </trkpt>
      <trkpt lat="43.94063" lon="7.17676">
        <ele>536.3</ele>
        <time>2022-10-10T08:57:36Z</time>
      </trkpt>
      <trkpt lat="43.94058" lon="7.17662">
        <ele>536.3</ele>
        <time>2022-10-10T08:57:37Z</time>
      </trkpt>
      <trkpt lat="43.94054" lon="7.17648">
        <ele>534.65</ele>
        <time>2022-10-10T08:57:38Z</time>
      </trkpt>
      <trkpt lat="43.94052" lon="7.17635">
        <ele>533.64</ele>
        <time>2022-10-10T08:57:39Z</time>
      </trkpt>
      <trkpt lat="43.94054" lon="7.17624">
        <ele>532.29</ele>
        <time>2022-10-10T08:57:40Z</time>
      </trkpt>
      <trkpt lat="43.94059" lon="7.17616">
        <ele>530.74</ele>
        <time>2022-10-10T08:57:41Z</time>
      </trkpt>
      <trkpt lat="43.94067" lon="7.17611">
        <ele>530.98</ele>
        <time>2022-10-10T08:57:42Z</time>
      </trkpt>
      <trkpt lat="43.94077" lon="7.17606">
        <ele>530.98</ele>
        <time>2022-10-10T08:57:43Z</time>
      </trkpt>
      <trkpt lat="43.94125" lon="7.17583">
        <ele>528.26</ele>
        <time>2022-10-10T08:57:47Z</time>
      </trkpt>
      <trkpt lat="43.94136" lon="7.17572">
        <ele>527.32</ele>
        <time>2022-10-10T08:57:48Z</time>
      </trkpt>
      <trkpt lat="43.94146" lon="7.17559">
        <ele>527.32</ele>
        <time>2022-10-10T08:57:49Z</time>
      </trkpt>
      <trkpt lat="43.94172" lon="7.17516">
        <ele>523.93</ele>
        <time>2022-10-10T08:57:52Z</time>
      </trkpt>
      <trkpt lat="43.9418" lon="7.175">
        <ele>524.06</ele>
        <time>2022-10-10T08:57:53Z</time>
      </trkpt>
      <trkpt lat="43.94193" lon="7.17467">
        <ele>520.92</ele>
        <time>2022-10-10T08:57:55Z</time>
      </trkpt>
      <trkpt lat="43.94198" lon="7.17449">
        <ele>519.83</ele>
        <time>2022-10-10T08:57:56Z</time>
      </trkpt>
      <trkpt lat="43.94203" lon="7.17431">
        <ele>519.92</ele>
        <time>2022-10-10T08:57:57Z</time>
      </trkpt>
      <trkpt lat="43.94205" lon="7.17412">
        <ele>518.38</ele>
        <time>2022-10-10T08:57:58Z</time>
      </trkpt>
      <trkpt lat="43.94207" lon="7.17393">
        <ele>517.49</ele>
        <time>2022-10-10T08:57:59Z</time>
      </trkpt>
      <trkpt lat="43.94207" lon="7.17374">
        <ele>516.06</ele>
        <time>2022-10-10T08:58:00Z</time>
      </trkpt>
      <trkpt lat="43.94207" lon="7.17355">
        <ele>515.98</ele>
        <time>2022-10-10T08:58:01Z</time>
      </trkpt>
      <trkpt lat="43.94211" lon="7.17305">
        <ele>512.41</ele>
        <time>2022-10-10T08:58:04Z</time>
      </trkpt>
      <trkpt lat="43.94211" lon="7.17292">
        <ele>511.05</ele>
        <time>2022-10-10T08:58:05Z</time>
      </trkpt>
      <trkpt lat="43.94209" lon="7.17282">
        <ele>511.06</ele>
        <time>2022-10-10T08:58:06Z</time>
      </trkpt>
      <trkpt lat="43.94204" lon="7.17277">
        <ele>510.26</ele>
        <time>2022-10-10T08:58:07Z</time>
      </trkpt>
      <trkpt lat="43.94199" lon="7.17278">
        <ele>509.36</ele>
        <time>2022-10-10T08:58:08Z</time>
      </trkpt>
      <trkpt lat="43.94196" lon="7.17287">
        <ele>509.35</ele>
        <time>2022-10-10T08:58:09Z</time>
      </trkpt>
      <trkpt lat="43.94197" lon="7.17299">
        <ele>509.35</ele>
        <time>2022-10-10T08:58:10Z</time>
      </trkpt>
      <trkpt lat="43.94197" lon="7.17315">
        <ele>509.22</ele>
        <time>2022-10-10T08:58:11Z</time>
      </trkpt>
      <trkpt lat="43.94198" lon="7.17332">
        <ele>509.3</ele>
        <time>2022-10-10T08:58:12Z</time>
      </trkpt>
      <trkpt lat="43.94199" lon="7.17388">
        <ele>509.38</ele>
        <time>2022-10-10T08:58:15Z</time>
      </trkpt>
      <trkpt lat="43.94197" lon="7.17407">
        <ele>508.45</ele>
        <time>2022-10-10T08:58:16Z</time>
      </trkpt>
      <trkpt lat="43.94193" lon="7.17424">
        <ele>508.53</ele>
        <time>2022-10-10T08:58:17Z</time>
      </trkpt>
      <trkpt lat="43.94188" lon="7.17441">
        <ele>508.54</ele>
        <time>2022-10-10T08:58:18Z</time>
      </trkpt>
      <trkpt lat="43.94182" lon="7.17455">
        <ele>508.03</ele>
        <time>2022-10-10T08:58:19Z</time>
      </trkpt>
      <trkpt lat="43.94174" lon="7.17468">
        <ele>507.15</ele>
        <time>2022-10-10T08:58:20Z</time>
      </trkpt>
      <trkpt lat="43.94166" lon="7.17482">
        <ele>507.11</ele>
        <time>2022-10-10T08:58:21Z</time>
      </trkpt>
      <trkpt lat="43.94151" lon="7.17509">
        <ele>505.6</ele>
        <time>2022-10-10T08:58:23Z</time>
      </trkpt>
      <trkpt lat="43.9414" lon="7.1752">
        <ele>504.64</ele>
        <time>2022-10-10T08:58:24Z</time>
      </trkpt>
      <trkpt lat="43.9413" lon="7.17532">
        <ele>504.59</ele>
        <time>2022-10-10T08:58:25Z</time>
      </trkpt>
      <trkpt lat="43.94109" lon="7.17552">
        <ele>502.15</ele>
        <time>2022-10-10T08:58:27Z</time>
      </trkpt>
      <trkpt lat="43.94098" lon="7.17557">
        <ele>500.74</ele>
        <time>2022-10-10T08:58:28Z</time>
      </trkpt>
      <trkpt lat="43.94086" lon="7.17561">
        <ele>500.67</ele>
        <time>2022-10-10T08:58:29Z</time>
      </trkpt>
      <trkpt lat="43.94074" lon="7.17562">
        <ele>499.63</ele>
        <time>2022-10-10T08:58:30Z</time>
      </trkpt>
      <trkpt lat="43.94062" lon="7.1756">
        <ele>498.32</ele>
        <time>2022-10-10T08:58:31Z</time>
      </trkpt>
      <trkpt lat="43.94049" lon="7.17558">
        <ele>498.26</ele>
        <time>2022-10-10T08:58:32Z</time>
      </trkpt>
      <trkpt lat="43.94035" lon="7.17557">
        <ele>497.14</ele>
        <time>2022-10-10T08:58:33Z</time>
      </trkpt>
      <trkpt lat="43.94023" lon="7.17557">
        <ele>496.03</ele>
        <time>2022-10-10T08:58:34Z</time>
      </trkpt>
      <trkpt lat="43.94011" lon="7.17559">
        <ele>496.03</ele>
        <time>2022-10-10T08:58:35Z</time>
      </trkpt>
      <trkpt lat="43.94" lon="7.17564">
        <ele>494.89</ele>
        <time>2022-10-10T08:58:36Z</time>
      </trkpt>
      <trkpt lat="43.9399" lon="7.17572">
        <ele>494.83</ele>
        <time>2022-10-10T08:58:37Z</time>
      </trkpt>
      <trkpt lat="43.93983" lon="7.17583">
        <ele>493.24</ele>
        <time>2022-10-10T08:58:38Z</time>
      </trkpt>
      <trkpt lat="43.93979" lon="7.17596">
        <ele>493.25</ele>
        <time>2022-10-10T08:58:39Z</time>
      </trkpt>
      <trkpt lat="43.93979" lon="7.17609">
        <ele>491.75</ele>
        <time>2022-10-10T08:58:40Z</time>
      </trkpt>
      <trkpt lat="43.93981" lon="7.1762">
        <ele>491.76</ele>
        <time>2022-10-10T08:58:41Z</time>
      </trkpt>
      <trkpt lat="43.93981" lon="7.17629">
        <ele>490.51</ele>
        <time>2022-10-10T08:58:42Z</time>
      </trkpt>
      <trkpt lat="43.93978" lon="7.17636">
        <ele>490.45</ele>
        <time>2022-10-10T08:58:43Z</time>
      </trkpt>
      <trkpt lat="43.93972" lon="7.17635">
        <ele>490.06</ele>
        <time>2022-10-10T08:58:44Z</time>
      </trkpt>
      <trkpt lat="43.93968" lon="7.1763">
        <ele>490.06</ele>
        <time>2022-10-10T08:58:45Z</time>
      </trkpt>
      <trkpt lat="43.93968" lon="7.1762">
        <ele>489.99</ele>
        <time>2022-10-10T08:58:46Z</time>
      </trkpt>
      <trkpt lat="43.93971" lon="7.17606">
        <ele>489.99</ele>
        <time>2022-10-10T08:58:47Z</time>
      </trkpt>
      <trkpt lat="43.93975" lon="7.17592">
        <ele>489.93</ele>
        <time>2022-10-10T08:58:48Z</time>
      </trkpt>
      <trkpt lat="43.93979" lon="7.17579">
        <ele>488.62</ele>
        <time>2022-10-10T08:58:49Z</time>
      </trkpt>
      <trkpt lat="43.93986" lon="7.17566">
        <ele>488.56</ele>
        <time>2022-10-10T08:58:50Z</time>
      </trkpt>
      <trkpt lat="43.93993" lon="7.17555">
        <ele>488.56</ele>
        <time>2022-10-10T08:58:51Z</time>
      </trkpt>
      <trkpt lat="43.94002" lon="7.17546">
        <ele>487.28</ele>
        <time>2022-10-10T08:58:52Z</time>
      </trkpt>
      <trkpt lat="43.94013" lon="7.17541">
        <ele>486.32</ele>
        <time>2022-10-10T08:58:53Z</time>
      </trkpt>
      <trkpt lat="43.94025" lon="7.17537">
        <ele>486.28</ele>
        <time>2022-10-10T08:58:54Z</time>
      </trkpt>
      <trkpt lat="43.94038" lon="7.17536">
        <ele>486.3</ele>
        <time>2022-10-10T08:58:55Z</time>
      </trkpt>
      <trkpt lat="43.9405" lon="7.17535">
        <ele>485.25</ele>
        <time>2022-10-10T08:58:56Z</time>
      </trkpt>
      <trkpt lat="43.94061" lon="7.17536">
        <ele>484.04</ele>
        <time>2022-10-10T08:58:57Z</time>
      </trkpt>
      <trkpt lat="43.94072" lon="7.17536">
        <ele>484.04</ele>
        <time>2022-10-10T08:58:58Z</time>
      </trkpt>
      <trkpt lat="43.94083" lon="7.17534">
        <ele>482.72</ele>
        <time>2022-10-10T08:58:59Z</time>
      </trkpt>
      <trkpt lat="43.94095" lon="7.17528">
        <ele>482.7</ele>
        <time>2022-10-10T08:59:00Z</time>
      </trkpt>
      <trkpt lat="43.94106" lon="7.17519">
        <ele>482.67</ele>
        <time>2022-10-10T08:59:01Z</time>
      </trkpt>
      <trkpt lat="43.94114" lon="7.17506">
        <ele>481.09</ele>
        <time>2022-10-10T08:59:02Z</time>
      </trkpt>
      <trkpt lat="43.94122" lon="7.17491">
        <ele>481.02</ele>
        <time>2022-10-10T08:59:03Z</time>
      </trkpt>
      <trkpt lat="43.94129" lon="7.17475">
        <ele>480.01</ele>
        <time>2022-10-10T08:59:04Z</time>
      </trkpt>
      <trkpt lat="43.94141" lon="7.17443">
        <ele>478.35</ele>
        <time>2022-10-10T08:59:06Z</time>
      </trkpt>
      <trkpt lat="43.94144" lon="7.17427">
        <ele>477.28</ele>
        <time>2022-10-10T08:59:07Z</time>
      </trkpt>
      <trkpt lat="43.94144" lon="7.1741">
        <ele>476.6</ele>
        <time>2022-10-10T08:59:08Z</time>
      </trkpt>
      <trkpt lat="43.94142" lon="7.17395">
        <ele>476.6</ele>
        <time>2022-10-10T08:59:09Z</time>
      </trkpt>
      <trkpt lat="43.9414" lon="7.17382">
        <ele>475.27</ele>
        <time>2022-10-10T08:59:10Z</time>
      </trkpt>
      <trkpt lat="43.94137" lon="7.17372">
        <ele>475.2</ele>
        <time>2022-10-10T08:59:11Z</time>
      </trkpt>
      <trkpt lat="43.94133" lon="7.17366">
        <ele>473.66</ele>
        <time>2022-10-10T08:59:12Z</time>
      </trkpt>
      <trkpt lat="43.94128" lon="7.17367">
        <ele>473.58</ele>
        <time>2022-10-10T08:59:13Z</time>
      </trkpt>
      <trkpt lat="43.94125" lon="7.17372">
        <ele>472.74</ele>
        <time>2022-10-10T08:59:14Z</time>
      </trkpt>
      <trkpt lat="43.94126" lon="7.1738">
        <ele>472.74</ele>
        <time>2022-10-10T08:59:15Z</time>
      </trkpt>
      <trkpt lat="43.9413" lon="7.1739">
        <ele>472.72</ele>
        <time>2022-10-10T08:59:16Z</time>
      </trkpt>
      <trkpt lat="43.94132" lon="7.17402">
        <ele>471.53</ele>
        <time>2022-10-10T08:59:17Z</time>
      </trkpt>
      <trkpt lat="43.94133" lon="7.17417">
        <ele>471.53</ele>
        <time>2022-10-10T08:59:18Z</time>
      </trkpt>
      <trkpt lat="43.94129" lon="7.17433">
        <ele>471.45</ele>
        <time>2022-10-10T08:59:19Z</time>
      </trkpt>
      <trkpt lat="43.94122" lon="7.17448">
        <ele>471.45</ele>
        <time>2022-10-10T08:59:20Z</time>
      </trkpt>
      <trkpt lat="43.94113" lon="7.17463">
        <ele>470.12</ele>
        <time>2022-10-10T08:59:21Z</time>
      </trkpt>
      <trkpt lat="43.94103" lon="7.17476">
        <ele>469.34</ele>
        <time>2022-10-10T08:59:22Z</time>
      </trkpt>
      <trkpt lat="43.94091" lon="7.17487">
        <ele>469.27</ele>
        <time>2022-10-10T08:59:23Z</time>
      </trkpt>
      <trkpt lat="43.94079" lon="7.17492">
        <ele>466.99</ele>
        <time>2022-10-10T08:59:24Z</time>
      </trkpt>
      <trkpt lat="43.94066" lon="7.17492">
        <ele>465.77</ele>
        <time>2022-10-10T08:59:25Z</time>
      </trkpt>
      <trkpt lat="43.94053" lon="7.17489">
        <ele>464.86</ele>
        <time>2022-10-10T08:59:26Z</time>
      </trkpt>
      <trkpt lat="43.9404" lon="7.17488">
        <ele>463.92</ele>
        <time>2022-10-10T08:59:27Z</time>
      </trkpt>
      <trkpt lat="43.94026" lon="7.17492">
        <ele>463.91</ele>
        <time>2022-10-10T08:59:28Z</time>
      </trkpt>
      <trkpt lat="43.94013" lon="7.17494">
        <ele>462.37</ele>
        <time>2022-10-10T08:59:29Z</time>
      </trkpt>
      <trkpt lat="43.94" lon="7.17493">
        <ele>461.48</ele>
        <time>2022-10-10T08:59:30Z</time>
      </trkpt>
      <trkpt lat="43.93988" lon="7.17492">
        <ele>460.6</ele>
        <time>2022-10-10T08:59:31Z</time>
      </trkpt>
      <trkpt lat="43.93976" lon="7.17495">
        <ele>459.87</ele>
        <time>2022-10-10T08:59:32Z</time>
      </trkpt>
      <trkpt lat="43.93965" lon="7.17503">
        <ele>460.5</ele>
        <time>2022-10-10T08:59:33Z</time>
      </trkpt>
      <trkpt lat="43.93955" lon="7.17514">
        <ele>459.34</ele>
        <time>2022-10-10T08:59:34Z</time>
      </trkpt>
      <trkpt lat="43.93945" lon="7.17527">
        <ele>458.43</ele>
        <time>2022-10-10T08:59:35Z</time>
      </trkpt>
      <trkpt lat="43.93936" lon="7.1754">
        <ele>457.02</ele>
        <time>2022-10-10T08:59:36Z</time>
      </trkpt>
      <trkpt lat="43.93927" lon="7.17554">
        <ele>456.94</ele>
        <time>2022-10-10T08:59:37Z</time>
      </trkpt>
      <trkpt lat="43.93918" lon="7.17566">
        <ele>455.29</ele>
        <time>2022-10-10T08:59:38Z</time>
      </trkpt>
      <trkpt lat="43.93908" lon="7.17577">
        <ele>454.28</ele>
        <time>2022-10-10T08:59:39Z</time>
      </trkpt>
      <trkpt lat="43.93888" lon="7.17599">
        <ele>453.43</ele>
        <time>2022-10-10T08:59:41Z</time>
      </trkpt>
      <trkpt lat="43.9388" lon="7.17614">
        <ele>451.99</ele>
        <time>2022-10-10T08:59:42Z</time>
      </trkpt>
      <trkpt lat="43.93873" lon="7.1763">
        <ele>451.91</ele>
        <time>2022-10-10T08:59:43Z</time>
      </trkpt>
      <trkpt lat="43.93866" lon="7.17645">
        <ele>449.83</ele>
        <time>2022-10-10T08:59:44Z</time>
      </trkpt>
      <trkpt lat="43.93858" lon="7.17659">
        <ele>449.82</ele>
        <time>2022-10-10T08:59:45Z</time>
      </trkpt>
      <trkpt lat="43.93848" lon="7.17669">
        <ele>447.55</ele>
        <time>2022-10-10T08:59:46Z</time>
      </trkpt>
      <trkpt lat="43.93837" lon="7.17676">
        <ele>447.62</ele>
        <time>2022-10-10T08:59:47Z</time>
      </trkpt>
      <trkpt lat="43.93826" lon="7.17681">
        <ele>445.33</ele>
        <time>2022-10-10T08:59:48Z</time>
      </trkpt>
      <trkpt lat="43.93815" lon="7.17687">
        <ele>445.34</ele>
        <time>2022-10-10T08:59:49Z</time>
      </trkpt>
      <trkpt lat="43.93803" lon="7.1769">
        <ele>445.27</ele>
        <time>2022-10-10T08:59:50Z</time>
      </trkpt>
      <trkpt lat="43.93792" lon="7.1769">
        <ele>443.86</ele>
        <time>2022-10-10T08:59:51Z</time>
      </trkpt>
      <trkpt lat="43.93781" lon="7.17687">
        <ele>442.45</ele>
        <time>2022-10-10T08:59:52Z</time>
      </trkpt>
      <trkpt lat="43.93771" lon="7.17684">
        <ele>441.41</ele>
        <time>2022-10-10T08:59:53Z</time>
      </trkpt>
      <trkpt lat="43.93762" lon="7.17684">
        <ele>440.48</ele>
        <time>2022-10-10T08:59:54Z</time>
      </trkpt>
      <trkpt lat="43.93755" lon="7.17688">
        <ele>439.43</ele>
        <time>2022-10-10T08:59:55Z</time>
      </trkpt>
      <trkpt lat="43.93752" lon="7.17697">
        <ele>439.32</ele>
        <time>2022-10-10T08:59:56Z</time>
      </trkpt>
      <trkpt lat="43.93755" lon="7.17706">
        <ele>439.17</ele>
        <time>2022-10-10T08:59:57Z</time>
      </trkpt>
      <trkpt lat="43.93764" lon="7.17712">
        <ele>439.17</ele>
        <time>2022-10-10T08:59:58Z</time>
      </trkpt>
      <trkpt lat="43.93775" lon="7.17717">
        <ele>439.17</ele>
        <time>2022-10-10T08:59:59Z</time>
      </trkpt>
      <trkpt lat="43.93788" lon="7.17722">
        <ele>439.17</ele>
        <time>2022-10-10T09:00:00Z</time>
      </trkpt>
      <trkpt lat="43.93814" lon="7.17735">
        <ele>437.71</ele>
        <time>2022-10-10T09:00:02Z</time>
      </trkpt>
      <trkpt lat="43.93851" lon="7.17753">
        <ele>434.34</ele>
        <time>2022-10-10T09:00:05Z</time>
      </trkpt>
      <trkpt lat="43.93863" lon="7.17756">
        <ele>434.35</ele>
        <time>2022-10-10T09:00:06Z</time>
      </trkpt>
      <trkpt lat="43.93887" lon="7.17761">
        <ele>431.31</ele>
        <time>2022-10-10T09:00:08Z</time>
      </trkpt>
      <trkpt lat="43.93898" lon="7.17766">
        <ele>430.42</ele>
        <time>2022-10-10T09:00:09Z</time>
      </trkpt>
      <trkpt lat="43.93907" lon="7.17775">
        <ele>429.58</ele>
        <time>2022-10-10T09:00:10Z</time>
      </trkpt>
      <trkpt lat="43.93914" lon="7.17787">
        <ele>428.03</ele>
        <time>2022-10-10T09:00:11Z</time>
      </trkpt>
      <trkpt lat="43.9392" lon="7.17799">
        <ele>428.13</ele>
        <time>2022-10-10T09:00:12Z</time>
      </trkpt>
      <trkpt lat="43.93929" lon="7.17808">
        <ele>426.9</ele>
        <time>2022-10-10T09:00:13Z</time>
      </trkpt>
      <trkpt lat="43.93941" lon="7.17814">
        <ele>426.83</ele>
        <time>2022-10-10T09:00:14Z</time>
      </trkpt>
      <trkpt lat="43.93953" lon="7.17822">
        <ele>425.54</ele>
        <time>2022-10-10T09:00:15Z</time>
      </trkpt>
      <trkpt lat="43.93963" lon="7.17831">
        <ele>425.55</ele>
        <time>2022-10-10T09:00:16Z</time>
      </trkpt>
      <trkpt lat="43.93989" lon="7.17862">
        <ele>421.01</ele>
        <time>2022-10-10T09:00:19Z</time>
      </trkpt>
      <trkpt lat="43.93995" lon="7.17871">
        <ele>420.92</ele>
        <time>2022-10-10T09:00:20Z</time>
      </trkpt>
      <trkpt lat="43.93998" lon="7.17878">
        <ele>419.72</ele>
        <time>2022-10-10T09:00:21Z</time>
      </trkpt>
      <trkpt lat="43.93997" lon="7.17884">
        <ele>418.81</ele>
        <time>2022-10-10T09:00:22Z</time>
      </trkpt>
      <trkpt lat="43.93993" lon="7.17886">
        <ele>418.62</ele>
        <time>2022-10-10T09:00:23Z</time>
      </trkpt>
      <trkpt lat="43.93989" lon="7.17881">
        <ele>417.73</ele>
        <time>2022-10-10T09:00:24Z</time>
      </trkpt>
      <trkpt lat="43.93984" lon="7.17872">
        <ele>417.73</ele>
        <time>2022-10-10T09:00:25Z</time>
      </trkpt>
      <trkpt lat="43.93977" lon="7.17862">
        <ele>417.72</ele>
        <time>2022-10-10T09:00:26Z</time>
      </trkpt>
      <trkpt lat="43.93968" lon="7.17853">
        <ele>416.74</ele>
        <time>2022-10-10T09:00:27Z</time>
      </trkpt>
      <trkpt lat="43.93958" lon="7.17846">
        <ele>416.81</ele>
        <time>2022-10-10T09:00:28Z</time>
      </trkpt>
      <trkpt lat="43.93946" lon="7.17843">
        <ele>416.82</ele>
        <time>2022-10-10T09:00:29Z</time>
      </trkpt>
      <trkpt lat="43.93935" lon="7.17843">
        <ele>414.8</ele>
        <time>2022-10-10T09:00:30Z</time>
      </trkpt>
      <trkpt lat="43.93924" lon="7.17845">
        <ele>413.85</ele>
        <time>2022-10-10T09:00:31Z</time>
      </trkpt>
      <trkpt lat="43.93914" lon="7.17846">
        <ele>412.61</ele>
        <time>2022-10-10T09:00:32Z</time>
      </trkpt>
      <trkpt lat="43.93905" lon="7.17845">
        <ele>411.59</ele>
        <time>2022-10-10T09:00:33Z</time>
      </trkpt>
      <trkpt lat="43.93897" lon="7.1784">
        <ele>409.87</ele>
        <time>2022-10-10T09:00:34Z</time>
      </trkpt>
      <trkpt lat="43.93891" lon="7.17829">
        <ele>409.8</ele>
        <time>2022-10-10T09:00:35Z</time>
      </trkpt>
      <trkpt lat="43.93883" lon="7.17817">
        <ele>409.85</ele>
        <time>2022-10-10T09:00:36Z</time>
      </trkpt>
      <trkpt lat="43.93873" lon="7.17809">
        <ele>409.82</ele>
        <time>2022-10-10T09:00:37Z</time>
      </trkpt>
      <trkpt lat="43.93861" lon="7.17806">
        <ele>409.82</ele>
        <time>2022-10-10T09:00:38Z</time>
      </trkpt>
      <trkpt lat="43.93848" lon="7.17806">
        <ele>409.84</ele>
        <time>2022-10-10T09:00:39Z</time>
      </trkpt>
      <trkpt lat="43.93833" lon="7.17805">
        <ele>408.33</ele>
        <time>2022-10-10T09:00:40Z</time>
      </trkpt>
      <trkpt lat="43.93817" lon="7.17803">
        <ele>408.27</ele>
        <time>2022-10-10T09:00:41Z</time>
      </trkpt>
      <trkpt lat="43.93772" lon="7.17793">
        <ele>405.79</ele>
        <time>2022-10-10T09:00:44Z</time>
      </trkpt>
      <trkpt lat="43.93744" lon="7.17784">
        <ele>402.43</ele>
        <time>2022-10-10T09:00:46Z</time>
      </trkpt>
      <trkpt lat="43.93719" lon="7.17775">
        <ele>399.38</ele>
        <time>2022-10-10T09:00:48Z</time>
      </trkpt>
      <trkpt lat="43.93708" lon="7.1777">
        <ele>398.16</ele>
        <time>2022-10-10T09:00:49Z</time>
      </trkpt>
      <trkpt lat="43.937" lon="7.17763">
        <ele>396.3</ele>
        <time>2022-10-10T09:00:50Z</time>
      </trkpt>
      <trkpt lat="43.93694" lon="7.17753">
        <ele>396.21</ele>
        <time>2022-10-10T09:00:51Z</time>
      </trkpt>
      <trkpt lat="43.93689" lon="7.17741">
        <ele>396.21</ele>
        <time>2022-10-10T09:00:52Z</time>
      </trkpt>
      <trkpt lat="43.93685" lon="7.17726">
        <ele>396.2</ele>
        <time>2022-10-10T09:00:53Z</time>
      </trkpt>
      <trkpt lat="43.93679" lon="7.1771">
        <ele>395.36</ele>
        <time>2022-10-10T09:00:54Z</time>
      </trkpt>
      <trkpt lat="43.93672" lon="7.17695">
        <ele>395.35</ele>
        <time>2022-10-10T09:00:55Z</time>
      </trkpt>
      <trkpt lat="43.93663" lon="7.17682">
        <ele>393.7</ele>
        <time>2022-10-10T09:00:56Z</time>
      </trkpt>
      <trkpt lat="43.93655" lon="7.17669">
        <ele>393.53</ele>
        <time>2022-10-10T09:00:57Z</time>
      </trkpt>
      <trkpt lat="43.93641" lon="7.17648">
        <ele>389.64</ele>
        <time>2022-10-10T09:00:59Z</time>
      </trkpt>
      <trkpt lat="43.93638" lon="7.17638">
        <ele>388.57</ele>
        <time>2022-10-10T09:01:00Z</time>
      </trkpt>
      <trkpt lat="43.93639" lon="7.1763">
        <ele>387.52</ele>
        <time>2022-10-10T09:01:01Z</time>
      </trkpt>
      <trkpt lat="43.93645" lon="7.17624">
        <ele>387.52</ele>
        <time>2022-10-10T09:01:02Z</time>
      </trkpt>
      <trkpt lat="43.93655" lon="7.17619">
        <ele>387.53</ele>
        <time>2022-10-10T09:01:03Z</time>
      </trkpt>
      <trkpt lat="43.93727" lon="7.1757">
        <ele>384.82</ele>
        <time>2022-10-10T09:01:09Z</time>
      </trkpt>
      <trkpt lat="43.93751" lon="7.17556">
        <ele>382.54</ele>
        <time>2022-10-10T09:01:11Z</time>
      </trkpt>
      <trkpt lat="43.93763" lon="7.17548">
        <ele>380.45</ele>
        <time>2022-10-10T09:01:12Z</time>
      </trkpt>
      <trkpt lat="43.93774" lon="7.17537">
        <ele>380.52</ele>
        <time>2022-10-10T09:01:13Z</time>
      </trkpt>
      <trkpt lat="43.93784" lon="7.17523">
        <ele>379.16</ele>
        <time>2022-10-10T09:01:14Z</time>
      </trkpt>
      <trkpt lat="43.93792" lon="7.17505">
        <ele>378.23</ele>
        <time>2022-10-10T09:01:15Z</time>
      </trkpt>
      <trkpt lat="43.93799" lon="7.17486">
        <ele>377.44</ele>
        <time>2022-10-10T09:01:16Z</time>
      </trkpt>
      <trkpt lat="43.9382" lon="7.17428">
        <ele>373.76</ele>
        <time>2022-10-10T09:01:19Z</time>
      </trkpt>
      <trkpt lat="43.93828" lon="7.17413">
        <ele>373.1</ele>
        <time>2022-10-10T09:01:20Z</time>
      </trkpt>
      <trkpt lat="43.93836" lon="7.174">
        <ele>370.73</ele>
        <time>2022-10-10T09:01:21Z</time>
      </trkpt>
      <trkpt lat="43.93846" lon="7.17391">
        <ele>369.22</ele>
        <time>2022-10-10T09:01:22Z</time>
      </trkpt>
      <trkpt lat="43.93855" lon="7.17385">
        <ele>367.9</ele>
        <time>2022-10-10T09:01:23Z</time>
      </trkpt>
      <trkpt lat="43.93865" lon="7.17385">
        <ele>367.77</ele>
        <time>2022-10-10T09:01:24Z</time>
      </trkpt>
      <trkpt lat="43.93876" lon="7.17386">
        <ele>366.76</ele>
        <time>2022-10-10T09:01:25Z</time>
      </trkpt>
      <trkpt lat="43.93886" lon="7.17384">
        <ele>365.57</ele>
        <time>2022-10-10T09:01:26Z</time>
      </trkpt>
      <trkpt lat="43.93897" lon="7.17379">
        <ele>365.45</ele>
        <time>2022-10-10T09:01:27Z</time>
      </trkpt>
      <trkpt lat="43.93908" lon="7.17373">
        <ele>363.59</ele>
        <time>2022-10-10T09:01:28Z</time>
      </trkpt>
      <trkpt lat="43.93919" lon="7.17371">
        <ele>362.78</ele>
        <time>2022-10-10T09:01:29Z</time>
      </trkpt>
      <trkpt lat="43.93931" lon="7.17372">
        <ele>362.79</ele>
        <time>2022-10-10T09:01:30Z</time>
      </trkpt>
      <trkpt lat="43.93942" lon="7.17375">
        <ele>361.65</ele>
        <time>2022-10-10T09:01:31Z</time>
      </trkpt>
      <trkpt lat="43.93953" lon="7.17377">
        <ele>360.68</ele>
        <time>2022-10-10T09:01:32Z</time>
      </trkpt>
      <trkpt lat="43.93961" lon="7.17375">
        <ele>360.6</ele>
        <time>2022-10-10T09:01:33Z</time>
      </trkpt>
      <trkpt lat="43.93968" lon="7.17367">
        <ele>358.87</ele>
        <time>2022-10-10T09:01:34Z</time>
      </trkpt>
      <trkpt lat="43.93972" lon="7.17354">
        <ele>358.87</ele>
        <time>2022-10-10T09:01:35Z</time>
      </trkpt>
      <trkpt lat="43.93972" lon="7.17337">
        <ele>358.89</ele>
        <time>2022-10-10T09:01:36Z</time>
      </trkpt>
      <trkpt lat="43.93971" lon="7.17319">
        <ele>358.79</ele>
        <time>2022-10-10T09:01:37Z</time>
      </trkpt>
      <trkpt lat="43.93968" lon="7.17302">
        <ele>357.28</ele>
        <time>2022-10-10T09:01:38Z</time>
      </trkpt>
      <trkpt lat="43.93963" lon="7.17286">
        <ele>357.23</ele>
        <time>2022-10-10T09:01:39Z</time>
      </trkpt>
      <trkpt lat="43.9396" lon="7.1727">
        <ele>355.93</ele>
        <time>2022-10-10T09:01:40Z</time>
      </trkpt>
      <trkpt lat="43.93959" lon="7.17255">
        <ele>354.66</ele>
        <time>2022-10-10T09:01:41Z</time>
      </trkpt>
      <trkpt lat="43.93962" lon="7.1724">
        <ele>353.72</ele>
        <time>2022-10-10T09:01:42Z</time>
      </trkpt>
      <trkpt lat="43.93964" lon="7.17224">
        <ele>353.74</ele>
        <time>2022-10-10T09:01:43Z</time>
      </trkpt>
      <trkpt lat="43.93964" lon="7.17208">
        <ele>352.62</ele>
        <time>2022-10-10T09:01:44Z</time>
      </trkpt>
      <trkpt lat="43.93959" lon="7.17192">
        <ele>351.95</ele>
        <time>2022-10-10T09:01:45Z</time>
      </trkpt>
      <trkpt lat="43.93953" lon="7.17179">
        <ele>351.2</ele>
        <time>2022-10-10T09:01:46Z</time>
      </trkpt>
      <trkpt lat="43.9395" lon="7.17165">
        <ele>349.78</ele>
        <time>2022-10-10T09:01:47Z</time>
      </trkpt>
      <trkpt lat="43.93951" lon="7.17152">
        <ele>348.75</ele>
        <time>2022-10-10T09:01:48Z</time>
      </trkpt>
      <trkpt lat="43.93957" lon="7.1714">
        <ele>347.55</ele>
        <time>2022-10-10T09:01:49Z</time>
      </trkpt>
      <trkpt lat="43.93963" lon="7.17128">
        <ele>346.29</ele>
        <time>2022-10-10T09:01:50Z</time>
      </trkpt>
      <trkpt lat="43.9397" lon="7.17113">
        <ele>346.28</ele>
        <time>2022-10-10T09:01:51Z</time>
      </trkpt>
      <trkpt lat="43.93975" lon="7.17096">
        <ele>346.29</ele>
        <time>2022-10-10T09:01:52Z</time>
      </trkpt>
      <trkpt lat="43.9398" lon="7.17079">
        <ele>344.68</ele>
        <time>2022-10-10T09:01:53Z</time>
      </trkpt>
      <trkpt lat="43.93983" lon="7.17062">
        <ele>344.58</ele>
        <time>2022-10-10T09:01:54Z</time>
      </trkpt>
      <trkpt lat="43.93985" lon="7.17043">
        <ele>342.99</ele>
        <time>2022-10-10T09:01:55Z</time>
      </trkpt>
      <trkpt lat="43.93983" lon="7.17024">
        <ele>341.94</ele>
        <time>2022-10-10T09:01:56Z</time>
      </trkpt>
      <trkpt lat="43.93981" lon="7.17005">
        <ele>341.12</ele>
        <time>2022-10-10T09:01:57Z</time>
      </trkpt>
      <trkpt lat="43.93978" lon="7.16987">
        <ele>340.12</ele>
        <time>2022-10-10T09:01:58Z</time>
      </trkpt>
      <trkpt lat="43.93972" lon="7.1697">
        <ele>339.37</ele>
        <time>2022-10-10T09:01:59Z</time>
      </trkpt>
      <trkpt lat="43.93965" lon="7.16954">
        <ele>338.4</ele>
        <time>2022-10-10T09:02:00Z</time>
      </trkpt>
      <trkpt lat="43.93958" lon="7.16938">
        <ele>337.1</ele>
        <time>2022-10-10T09:02:01Z</time>
      </trkpt>
      <trkpt lat="43.93952" lon="7.16921">
        <ele>337.07</ele>
        <time>2022-10-10T09:02:02Z</time>
      </trkpt>
      <trkpt lat="43.93946" lon="7.16905">
        <ele>335.36</ele>
        <time>2022-10-10T09:02:03Z</time>
      </trkpt>
      <trkpt lat="43.93938" lon="7.1689">
        <ele>335.36</ele>
        <time>2022-10-10T09:02:04Z</time>
      </trkpt>
      <trkpt lat="43.93928" lon="7.16877">
        <ele>334.01</ele>
        <time>2022-10-10T09:02:05Z</time>
      </trkpt>
      <trkpt lat="43.93918" lon="7.16864">
        <ele>333.01</ele>
        <time>2022-10-10T09:02:06Z</time>
      </trkpt>
      <trkpt lat="43.93909" lon="7.16851">
        <ele>332.92</ele>
        <time>2022-10-10T09:02:07Z</time>
      </trkpt>
      <trkpt lat="43.93884" lon="7.16808">
        <ele>329.29</ele>
        <time>2022-10-10T09:02:10Z</time>
      </trkpt>
      <trkpt lat="43.93874" lon="7.16795">
        <ele>328.71</ele>
        <time>2022-10-10T09:02:11Z</time>
      </trkpt>
      <trkpt lat="43.93865" lon="7.16785">
        <ele>327.3</ele>
        <time>2022-10-10T09:02:12Z</time>
      </trkpt>
      <trkpt lat="43.93856" lon="7.16775">
        <ele>326.16</ele>
        <time>2022-10-10T09:02:13Z</time>
      </trkpt>
      <trkpt lat="43.9385" lon="7.16765">
        <ele>325.07</ele>
        <time>2022-10-10T09:02:14Z</time>
      </trkpt>
      <trkpt lat="43.93847" lon="7.16752">
        <ele>323.86</ele>
        <time>2022-10-10T09:02:15Z</time>
      </trkpt>
      <trkpt lat="43.93846" lon="7.16738">
        <ele>323.86</ele>
        <time>2022-10-10T09:02:16Z</time>
      </trkpt>
      <trkpt lat="43.93844" lon="7.16722">
        <ele>323.86</ele>
        <time>2022-10-10T09:02:17Z</time>
      </trkpt>
      <trkpt lat="43.93838" lon="7.16693">
        <ele>321.21</ele>
        <time>2022-10-10T09:02:19Z</time>
      </trkpt>
      <trkpt lat="43.93838" lon="7.16681">
        <ele>321.2</ele>
        <time>2022-10-10T09:02:20Z</time>
      </trkpt>
      <trkpt lat="43.93842" lon="7.1667">
        <ele>319.47</ele>
        <time>2022-10-10T09:02:21Z</time>
      </trkpt>
      <trkpt lat="43.93849" lon="7.16665">
        <ele>319.46</ele>
        <time>2022-10-10T09:02:22Z</time>
      </trkpt>
      <trkpt lat="43.93859" lon="7.16662">
        <ele>319.42</ele>
        <time>2022-10-10T09:02:23Z</time>
      </trkpt>
      <trkpt lat="43.93882" lon="7.16654">
        <ele>319.34</ele>
        <time>2022-10-10T09:02:25Z</time>
      </trkpt>
      <trkpt lat="43.93892" lon="7.16646">
        <ele>317.69</ele>
        <time>2022-10-10T09:02:26Z</time>
      </trkpt>
      <trkpt lat="43.939" lon="7.16634">
        <ele>317.67</ele>
        <time>2022-10-10T09:02:27Z</time>
      </trkpt>
      <trkpt lat="43.93904" lon="7.16618">
        <ele>316.04</ele>
        <time>2022-10-10T09:02:28Z</time>
      </trkpt>
      <trkpt lat="43.93908" lon="7.16601">
        <ele>315.21</ele>
        <time>2022-10-10T09:02:29Z</time>
      </trkpt>
      <trkpt lat="43.93914" lon="7.16584">
        <ele>315.17</ele>
        <time>2022-10-10T09:02:30Z</time>
      </trkpt>
      <trkpt lat="43.93921" lon="7.16567">
        <ele>313.86</ele>
        <time>2022-10-10T09:02:31Z</time>
      </trkpt>
      <trkpt lat="43.9393" lon="7.16551">
        <ele>313.91</ele>
        <time>2022-10-10T09:02:32Z</time>
      </trkpt>
      <trkpt lat="43.93948" lon="7.16519">
        <ele>312.1</ele>
        <time>2022-10-10T09:02:34Z</time>
      </trkpt>
      <trkpt lat="43.93968" lon="7.16491">
        <ele>308.97</ele>
        <time>2022-10-10T09:02:36Z</time>
      </trkpt>
      <trkpt lat="43.93979" lon="7.16479">
        <ele>308.97</ele>
        <time>2022-10-10T09:02:37Z</time>
      </trkpt>
      <trkpt lat="43.93996" lon="7.16454">
        <ele>307.54</ele>
        <time>2022-10-10T09:02:39Z</time>
      </trkpt>
      <trkpt lat="43.94002" lon="7.16438">
        <ele>306.09</ele>
        <time>2022-10-10T09:02:40Z</time>
      </trkpt>
      <trkpt lat="43.94003" lon="7.16421">
        <ele>304.88</ele>
        <time>2022-10-10T09:02:41Z</time>
      </trkpt>
      <trkpt lat="43.94" lon="7.16403">
        <ele>304.87</ele>
        <time>2022-10-10T09:02:42Z</time>
      </trkpt>
      <trkpt lat="43.93998" lon="7.16386">
        <ele>303.33</ele>
        <time>2022-10-10T09:02:43Z</time>
      </trkpt>
      <trkpt lat="43.93995" lon="7.1637">
        <ele>303.27</ele>
        <time>2022-10-10T09:02:44Z</time>
      </trkpt>
      <trkpt lat="43.93992" lon="7.16356">
        <ele>301.21</ele>
        <time>2022-10-10T09:02:45Z</time>
      </trkpt>
      <trkpt lat="43.93988" lon="7.16344">
        <ele>300.18</ele>
        <time>2022-10-10T09:02:46Z</time>
      </trkpt>
      <trkpt lat="43.93982" lon="7.16336">
        <ele>299.12</ele>
        <time>2022-10-10T09:02:47Z</time>
      </trkpt>
      <trkpt lat="43.93973" lon="7.16332">
        <ele>298.2</ele>
        <time>2022-10-10T09:02:48Z</time>
      </trkpt>
      <trkpt lat="43.93965" lon="7.16336">
        <ele>298.16</ele>
        <time>2022-10-10T09:02:49Z</time>
      </trkpt>
      <trkpt lat="43.93957" lon="7.16345">
        <ele>296.93</ele>
        <time>2022-10-10T09:02:50Z</time>
      </trkpt>
      <trkpt lat="43.93951" lon="7.16357">
        <ele>296.93</ele>
        <time>2022-10-10T09:02:51Z</time>
      </trkpt>
      <trkpt lat="43.93949" lon="7.16371">
        <ele>295.38</ele>
        <time>2022-10-10T09:02:52Z</time>
      </trkpt>
      <trkpt lat="43.9395" lon="7.16386">
        <ele>295.5</ele>
        <time>2022-10-10T09:02:53Z</time>
      </trkpt>
      <trkpt lat="43.93952" lon="7.164">
        <ele>294.2</ele>
        <time>2022-10-10T09:02:54Z</time>
      </trkpt>
      <trkpt lat="43.93955" lon="7.16413">
        <ele>294.12</ele>
        <time>2022-10-10T09:02:55Z</time>
      </trkpt>
      <trkpt lat="43.93957" lon="7.16424">
        <ele>292.31</ele>
        <time>2022-10-10T09:02:56Z</time>
      </trkpt>
      <trkpt lat="43.93958" lon="7.16433">
        <ele>291.08</ele>
        <time>2022-10-10T09:02:57Z</time>
      </trkpt>
      <trkpt lat="43.93957" lon="7.16439">
        <ele>291.18</ele>
        <time>2022-10-10T09:02:58Z</time>
      </trkpt>
      <trkpt lat="43.93953" lon="7.16441">
        <ele>290.15</ele>
        <time>2022-10-10T09:02:59Z</time>
      </trkpt>
      <trkpt lat="43.93949" lon="7.16437">
        <ele>290.91</ele>
        <time>2022-10-10T09:03:00Z</time>
      </trkpt>
      <trkpt lat="43.93946" lon="7.16427">
        <ele>290.84</ele>
        <time>2022-10-10T09:03:01Z</time>
      </trkpt>
      <trkpt lat="43.9394" lon="7.16415">
        <ele>290.84</ele>
        <time>2022-10-10T09:03:02Z</time>
      </trkpt>
      <trkpt lat="43.93934" lon="7.16402">
        <ele>289.77</ele>
        <time>2022-10-10T09:03:03Z</time>
      </trkpt>
      <trkpt lat="43.93925" lon="7.16377">
        <ele>287.85</ele>
        <time>2022-10-10T09:03:05Z</time>
      </trkpt>
      <trkpt lat="43.93924" lon="7.16364">
        <ele>287.84</ele>
        <time>2022-10-10T09:03:06Z</time>
      </trkpt>
      <trkpt lat="43.93928" lon="7.1635">
        <ele>285.81</ele>
        <time>2022-10-10T09:03:07Z</time>
      </trkpt>
      <trkpt lat="43.93934" lon="7.16336">
        <ele>285.81</ele>
        <time>2022-10-10T09:03:08Z</time>
      </trkpt>
      <trkpt lat="43.93941" lon="7.16323">
        <ele>285.72</ele>
        <time>2022-10-10T09:03:09Z</time>
      </trkpt>
      <trkpt lat="43.93949" lon="7.16313">
        <ele>283.77</ele>
        <time>2022-10-10T09:03:10Z</time>
      </trkpt>
      <trkpt lat="43.9396" lon="7.16309">
        <ele>283.83</ele>
        <time>2022-10-10T09:03:11Z</time>
      </trkpt>
      <trkpt lat="43.93969" lon="7.16307">
        <ele>281.69</ele>
        <time>2022-10-10T09:03:12Z</time>
      </trkpt>
      <trkpt lat="43.93975" lon="7.16303">
        <ele>280.42</ele>
        <time>2022-10-10T09:03:13Z</time>
      </trkpt>
      <trkpt lat="43.93978" lon="7.16295">
        <ele>280.44</ele>
        <time>2022-10-10T09:03:14Z</time>
      </trkpt>
      <trkpt lat="43.93975" lon="7.16289">
        <ele>279.31</ele>
        <time>2022-10-10T09:03:15Z</time>
      </trkpt>
      <trkpt lat="43.93969" lon="7.16288">
        <ele>279.43</ele>
        <time>2022-10-10T09:03:16Z</time>
      </trkpt>
      <trkpt lat="43.9396" lon="7.16292">
        <ele>279.3</ele>
        <time>2022-10-10T09:03:17Z</time>
      </trkpt>
      <trkpt lat="43.93951" lon="7.16298">
        <ele>279.23</ele>
        <time>2022-10-10T09:03:18Z</time>
      </trkpt>
      <trkpt lat="43.93941" lon="7.16304">
        <ele>277.72</ele>
        <time>2022-10-10T09:03:19Z</time>
      </trkpt>
      <trkpt lat="43.93933" lon="7.16312">
        <ele>277.71</ele>
        <time>2022-10-10T09:03:20Z</time>
      </trkpt>
      <trkpt lat="43.93926" lon="7.16323">
        <ele>275.99</ele>
        <time>2022-10-10T09:03:21Z</time>
      </trkpt>
      <trkpt lat="43.93922" lon="7.16333">
        <ele>275.12</ele>
        <time>2022-10-10T09:03:22Z</time>
      </trkpt>
      <trkpt lat="43.93919" lon="7.16341">
        <ele>273.78</ele>
        <time>2022-10-10T09:03:23Z</time>
      </trkpt>
      <trkpt lat="43.93914" lon="7.16344">
        <ele>273.85</ele>
        <time>2022-10-10T09:03:24Z</time>
      </trkpt>
      <trkpt lat="43.93911" lon="7.16342">
        <ele>272.84</ele>
        <time>2022-10-10T09:03:25Z</time>
      </trkpt>
      <trkpt lat="43.93911" lon="7.16336">
        <ele>272.42</ele>
        <time>2022-10-10T09:03:26Z</time>
      </trkpt>
      <trkpt lat="43.93915" lon="7.16328">
        <ele>272.36</ele>
        <time>2022-10-10T09:03:27Z</time>
      </trkpt>
      <trkpt lat="43.93921" lon="7.16318">
        <ele>272.41</ele>
        <time>2022-10-10T09:03:28Z</time>
      </trkpt>
      <trkpt lat="43.93938" lon="7.16294">
        <ele>272.34</ele>
        <time>2022-10-10T09:03:30Z</time>
      </trkpt>
      <trkpt lat="43.93947" lon="7.16284">
        <ele>271.06</ele>
        <time>2022-10-10T09:03:31Z</time>
      </trkpt>
      <trkpt lat="43.93958" lon="7.16277">
        <ele>271</ele>
        <time>2022-10-10T09:03:32Z</time>
      </trkpt>
      <trkpt lat="43.93969" lon="7.16274">
        <ele>269.31</ele>
        <time>2022-10-10T09:03:33Z</time>
      </trkpt>
      <trkpt lat="43.9398" lon="7.16274">
        <ele>269.3</ele>
        <time>2022-10-10T09:03:34Z</time>
      </trkpt>
      <trkpt lat="43.93991" lon="7.16274">
        <ele>268.07</ele>
        <time>2022-10-10T09:03:35Z</time>
      </trkpt>
      <trkpt lat="43.94" lon="7.16271">
        <ele>267.25</ele>
        <time>2022-10-10T09:03:36Z</time>
      </trkpt>
      <trkpt lat="43.94007" lon="7.16266">
        <ele>267.11</ele>
        <time>2022-10-10T09:03:37Z</time>
      </trkpt>
      <trkpt lat="43.9401" lon="7.16256">
        <ele>265.29</ele>
        <time>2022-10-10T09:03:38Z</time>
      </trkpt>
      <trkpt lat="43.94011" lon="7.16246">
        <ele>265.32</ele>
        <time>2022-10-10T09:03:39Z</time>
      </trkpt>
      <trkpt lat="43.94009" lon="7.16236">
        <ele>265.33</ele>
        <time>2022-10-10T09:03:40Z</time>
      </trkpt>
      <trkpt lat="43.94003" lon="7.16232">
        <ele>265.35</ele>
        <time>2022-10-10T09:03:41Z</time>
      </trkpt>
      <trkpt lat="43.93994" lon="7.16232">
        <ele>265.28</ele>
        <time>2022-10-10T09:03:42Z</time>
      </trkpt>
      <trkpt lat="43.93982" lon="7.16235">
        <ele>265.25</ele>
        <time>2022-10-10T09:03:43Z</time>
      </trkpt>
      <trkpt lat="43.93967" lon="7.16238">
        <ele>265.27</ele>
        <time>2022-10-10T09:03:44Z</time>
      </trkpt>
      <trkpt lat="43.93939" lon="7.16248">
        <ele>263.06</ele>
        <time>2022-10-10T09:03:46Z</time>
      </trkpt>
      <trkpt lat="43.93927" lon="7.16255">
        <ele>262.98</ele>
        <time>2022-10-10T09:03:47Z</time>
      </trkpt>
      <trkpt lat="43.93918" lon="7.16266">
        <ele>261.17</ele>
        <time>2022-10-10T09:03:48Z</time>
      </trkpt>
      <trkpt lat="43.93912" lon="7.16275">
        <ele>259.87</ele>
        <time>2022-10-10T09:03:49Z</time>
      </trkpt>
      <trkpt lat="43.93906" lon="7.16282">
        <ele>258.86</ele>
        <time>2022-10-10T09:03:50Z</time>
      </trkpt>
      <trkpt lat="43.93901" lon="7.16288">
        <ele>258.07</ele>
        <time>2022-10-10T09:03:51Z</time>
      </trkpt>
      <trkpt lat="43.93898" lon="7.16287">
        <ele>256.99</ele>
        <time>2022-10-10T09:03:52Z</time>
      </trkpt>
      <trkpt lat="43.93895" lon="7.16282">
        <ele>256.87</ele>
        <time>2022-10-10T09:03:53Z</time>
      </trkpt>
      <trkpt lat="43.93895" lon="7.16272">
        <ele>256.91</ele>
        <time>2022-10-10T09:03:54Z</time>
      </trkpt>
      <trkpt lat="43.93901" lon="7.16208">
        <ele>255.54</ele>
        <time>2022-10-10T09:03:58Z</time>
      </trkpt>
      <trkpt lat="43.93905" lon="7.16192">
        <ele>255.47</ele>
        <time>2022-10-10T09:03:59Z</time>
      </trkpt>
      <trkpt lat="43.9391" lon="7.16176">
        <ele>253.82</ele>
        <time>2022-10-10T09:04:00Z</time>
      </trkpt>
      <trkpt lat="43.93916" lon="7.16163">
        <ele>253.8</ele>
        <time>2022-10-10T09:04:01Z</time>
      </trkpt>
      <trkpt lat="43.93922" lon="7.16152">
        <ele>251.77</ele>
        <time>2022-10-10T09:04:02Z</time>
      </trkpt>
      <trkpt lat="43.93928" lon="7.16144">
        <ele>250.65</ele>
        <time>2022-10-10T09:04:03Z</time>
      </trkpt>
      <trkpt lat="43.93932" lon="7.16138">
        <ele>249.71</ele>
        <time>2022-10-10T09:04:04Z</time>
      </trkpt>
      <trkpt lat="43.93933" lon="7.1613">
        <ele>249.62</ele>
        <time>2022-10-10T09:04:05Z</time>
      </trkpt>
      <trkpt lat="43.93929" lon="7.16127">
        <ele>248.46</ele>
        <time>2022-10-10T09:04:06Z</time>
      </trkpt>
      <trkpt lat="43.93923" lon="7.16131">
        <ele>248.41</ele>
        <time>2022-10-10T09:04:07Z</time>
      </trkpt>
      <trkpt lat="43.93917" lon="7.16139">
        <ele>248.4</ele>
        <time>2022-10-10T09:04:08Z</time>
      </trkpt>
      <trkpt lat="43.9391" lon="7.1615">
        <ele>248.28</ele>
        <time>2022-10-10T09:04:09Z</time>
      </trkpt>
      <trkpt lat="43.93902" lon="7.16162">
        <ele>248.33</ele>
        <time>2022-10-10T09:04:10Z</time>
      </trkpt>
      <trkpt lat="43.93868" lon="7.16211">
        <ele>244.77</ele>
        <time>2022-10-10T09:04:14Z</time>
      </trkpt>
      <trkpt lat="43.93854" lon="7.16236">
        <ele>242.79</ele>
        <time>2022-10-10T09:04:16Z</time>
      </trkpt>
      <trkpt lat="43.93849" lon="7.1625">
        <ele>242.79</ele>
        <time>2022-10-10T09:04:17Z</time>
      </trkpt>
      <trkpt lat="43.93848" lon="7.16265">
        <ele>241.18</ele>
        <time>2022-10-10T09:04:18Z</time>
      </trkpt>
      <trkpt lat="43.93848" lon="7.1628">
        <ele>240.27</ele>
        <time>2022-10-10T09:04:19Z</time>
      </trkpt>
      <trkpt lat="43.93848" lon="7.16295">
        <ele>240.18</ele>
        <time>2022-10-10T09:04:20Z</time>
      </trkpt>
      <trkpt lat="43.93849" lon="7.16325">
        <ele>238.57</ele>
        <time>2022-10-10T09:04:22Z</time>
      </trkpt>
      <trkpt lat="43.93854" lon="7.16369">
        <ele>236.03</ele>
        <time>2022-10-10T09:04:25Z</time>
      </trkpt>
      <trkpt lat="43.93861" lon="7.16426">
        <ele>232.86</ele>
        <time>2022-10-10T09:04:29Z</time>
      </trkpt>
      <trkpt lat="43.93863" lon="7.16438">
        <ele>231.93</ele>
        <time>2022-10-10T09:04:30Z</time>
      </trkpt>
      <trkpt lat="43.93863" lon="7.16448">
        <ele>231.07</ele>
        <time>2022-10-10T09:04:31Z</time>
      </trkpt>
      <trkpt lat="43.93863" lon="7.16456">
        <ele>231</ele>
        <time>2022-10-10T09:04:32Z</time>
      </trkpt>
      <trkpt lat="43.93861" lon="7.16464">
        <ele>230.15</ele>
        <time>2022-10-10T09:04:33Z</time>
      </trkpt>
      <trkpt lat="43.93858" lon="7.16476">
        <ele>230.1</ele>
        <time>2022-10-10T09:04:34Z</time>
      </trkpt>
      <trkpt lat="43.9385" lon="7.16499">
        <ele>230.03</ele>
        <time>2022-10-10T09:04:36Z</time>
      </trkpt>
      <trkpt lat="43.93844" lon="7.16508">
        <ele>230.01</ele>
        <time>2022-10-10T09:04:37Z</time>
      </trkpt>
      <trkpt lat="43.93836" lon="7.16516">
        <ele>230.1</ele>
        <time>2022-10-10T09:04:38Z</time>
      </trkpt>
      <trkpt lat="43.93827" lon="7.16522">
        <ele>230.52</ele>
        <time>2022-10-10T09:04:39Z</time>
      </trkpt>
      <trkpt lat="43.93818" lon="7.16525">
        <ele>230.51</ele>
        <time>2022-10-10T09:04:40Z</time>
      </trkpt>
      <trkpt lat="43.9381" lon="7.16528">
        <ele>230.51</ele>
        <time>2022-10-10T09:04:41Z</time>
      </trkpt>
      <trkpt lat="43.93802" lon="7.16531">
        <ele>230.47</ele>
        <time>2022-10-10T09:04:42Z</time>
      </trkpt>
      <trkpt lat="43.93789" lon="7.16535">
        <ele>230.44</ele>
        <time>2022-10-10T09:04:44Z</time>
      </trkpt>
      <trkpt lat="43.93784" lon="7.16538">
        <ele>230.42</ele>
        <time>2022-10-10T09:04:45Z</time>
      </trkpt>
      <trkpt lat="43.93782" lon="7.1654">
        <ele>230.41</ele>
        <time>2022-10-10T09:04:46Z</time>
      </trkpt>
      <trkpt lat="43.93773" lon="7.1654">
        <ele>229.17</ele>
        <time>2022-10-10T09:04:56Z</time>
      </trkpt>
      <trkpt lat="43.93749" lon="7.16534">
        <ele>227.87</ele>
        <time>2022-10-10T09:05:17Z</time>
      </trkpt>
      <trkpt lat="43.93744" lon="7.1653">
        <ele>225.59</ele>
        <time>2022-10-10T09:05:23Z</time>
      </trkpt>
      <trkpt lat="43.9336" lon="7.16579">
        <ele>228.71</ele>
        <time>2022-10-10T09:06:17Z</time>
      </trkpt>
      <trkpt lat="43.93072" lon="7.16483">
        <ele>227.17</ele>
        <time>2022-10-10T09:06:26Z</time>
      </trkpt>
      <trkpt lat="43.93693" lon="7.17097">
        <ele>226.19</ele>
        <time>2022-10-10T09:06:32Z</time>
      </trkpt>
      <trkpt lat="43.93664" lon="7.17125">
        <ele>226.17</ele>
        <time>2022-10-10T09:06:35Z</time>
      </trkpt>
      <trkpt lat="43.93654" lon="7.17134">
        <ele>226.14</ele>
        <time>2022-10-10T09:06:36Z</time>
      </trkpt>
      <trkpt lat="43.93644" lon="7.17144">
        <ele>226.16</ele>
        <time>2022-10-10T09:06:37Z</time>
      </trkpt>
      <trkpt lat="43.93632" lon="7.1715">
        <ele>226.15</ele>
        <time>2022-10-10T09:06:38Z</time>
      </trkpt>
      <trkpt lat="43.93619" lon="7.17153">
        <ele>226.16</ele>
        <time>2022-10-10T09:06:39Z</time>
      </trkpt>
      <trkpt lat="43.93536" lon="7.17167">
        <ele>226.15</ele>
        <time>2022-10-10T09:06:45Z</time>
      </trkpt>
      <trkpt lat="43.93477" lon="7.17164">
        <ele>226.13</ele>
        <time>2022-10-10T09:06:49Z</time>
      </trkpt>
      <trkpt lat="43.93462" lon="7.17168">
        <ele>226.12</ele>
        <time>2022-10-10T09:06:50Z</time>
      </trkpt>
      <trkpt lat="43.93448" lon="7.17174">
        <ele>226.11</ele>
        <time>2022-10-10T09:06:51Z</time>
      </trkpt>
      <trkpt lat="43.93433" lon="7.17182">
        <ele>228.5</ele>
        <time>2022-10-10T09:06:52Z</time>
      </trkpt>
      <trkpt lat="43.9342" lon="7.17192">
        <ele>228.48</ele>
        <time>2022-10-10T09:06:53Z</time>
      </trkpt>
      <trkpt lat="43.93407" lon="7.17205">
        <ele>228.48</ele>
        <time>2022-10-10T09:06:54Z</time>
      </trkpt>
      <trkpt lat="43.93398" lon="7.17221">
        <ele>228.48</ele>
        <time>2022-10-10T09:06:55Z</time>
      </trkpt>
      <trkpt lat="43.9339" lon="7.17239">
        <ele>228.48</ele>
        <time>2022-10-10T09:06:56Z</time>
      </trkpt>
      <trkpt lat="43.93382" lon="7.17257">
        <ele>228.47</ele>
        <time>2022-10-10T09:06:57Z</time>
      </trkpt>
      <trkpt lat="43.93358" lon="7.17305">
        <ele>228.45</ele>
        <time>2022-10-10T09:07:00Z</time>
      </trkpt>
      <trkpt lat="43.93347" lon="7.17316">
        <ele>228.46</ele>
        <time>2022-10-10T09:07:01Z</time>
      </trkpt>
      <trkpt lat="43.93334" lon="7.17326">
        <ele>228.43</ele>
        <time>2022-10-10T09:07:02Z</time>
      </trkpt>
      <trkpt lat="43.93227" lon="7.17418">
        <ele>228.28</ele>
        <time>2022-10-10T09:07:10Z</time>
      </trkpt>
      <trkpt lat="43.93218" lon="7.17435">
        <ele>228.27</ele>
        <time>2022-10-10T09:07:11Z</time>
      </trkpt>
      <trkpt lat="43.9321" lon="7.17454">
        <ele>229.21</ele>
        <time>2022-10-10T09:07:12Z</time>
      </trkpt>
      <trkpt lat="43.93203" lon="7.17474">
        <ele>229.2</ele>
        <time>2022-10-10T09:07:13Z</time>
      </trkpt>
      <trkpt lat="43.93198" lon="7.17494">
        <ele>229.19</ele>
        <time>2022-10-10T09:07:14Z</time>
      </trkpt>
      <trkpt lat="43.93193" lon="7.17513">
        <ele>229.17</ele>
        <time>2022-10-10T09:07:15Z</time>
      </trkpt>
      <trkpt lat="43.93183" lon="7.17547">
        <ele>229.15</ele>
        <time>2022-10-10T09:07:17Z</time>
      </trkpt>
      <trkpt lat="43.93176" lon="7.17562">
        <ele>229.16</ele>
        <time>2022-10-10T09:07:18Z</time>
      </trkpt>
      <trkpt lat="43.93167" lon="7.17575">
        <ele>229.13</ele>
        <time>2022-10-10T09:07:19Z</time>
      </trkpt>
      <trkpt lat="43.93158" lon="7.17588">
        <ele>229.12</ele>
        <time>2022-10-10T09:07:20Z</time>
      </trkpt>
      <trkpt lat="43.9315" lon="7.17603">
        <ele>229.11</ele>
        <time>2022-10-10T09:07:21Z</time>
      </trkpt>
      <trkpt lat="43.93143" lon="7.17621">
        <ele>229.12</ele>
        <time>2022-10-10T09:07:22Z</time>
      </trkpt>
      <trkpt lat="43.93138" lon="7.17639">
        <ele>229.14</ele>
        <time>2022-10-10T09:07:23Z</time>
      </trkpt>
      <trkpt lat="43.93133" lon="7.17659">
        <ele>229.1</ele>
        <time>2022-10-10T09:07:24Z</time>
      </trkpt>
      <trkpt lat="43.93107" lon="7.17752">
        <ele>228.93</ele>
        <time>2022-10-10T09:07:29Z</time>
      </trkpt>
      <trkpt lat="43.93025" lon="7.17961">
        <ele>228.92</ele>
        <time>2022-10-10T09:07:40Z</time>
      </trkpt>
      <trkpt lat="43.93013" lon="7.17996">
        <ele>226.42</ele>
        <time>2022-10-10T09:07:42Z</time>
      </trkpt>
      <trkpt lat="43.93" lon="7.18026">
        <ele>226.4</ele>
        <time>2022-10-10T09:07:44Z</time>
      </trkpt>
      <trkpt lat="43.92992" lon="7.18039">
        <ele>225.23</ele>
        <time>2022-10-10T09:07:45Z</time>
      </trkpt>
      <trkpt lat="43.92982" lon="7.18049">
        <ele>225.22</ele>
        <time>2022-10-10T09:07:46Z</time>
      </trkpt>
      <trkpt lat="43.92971" lon="7.18058">
        <ele>225.21</ele>
        <time>2022-10-10T09:07:47Z</time>
      </trkpt>
      <trkpt lat="43.92959" lon="7.18065">
        <ele>225.2</ele>
        <time>2022-10-10T09:07:48Z</time>
      </trkpt>
      <trkpt lat="43.92946" lon="7.18069">
        <ele>225.19</ele>
        <time>2022-10-10T09:07:49Z</time>
      </trkpt>
      <trkpt lat="43.92933" lon="7.18072">
        <ele>225.16</ele>
        <time>2022-10-10T09:07:50Z</time>
      </trkpt>
      <trkpt lat="43.92919" lon="7.18073">
        <ele>225.16</ele>
        <time>2022-10-10T09:07:51Z</time>
      </trkpt>
      <trkpt lat="43.92802" lon="7.1812">
        <ele>225.16</ele>
        <time>2022-10-10T09:07:59Z</time>
      </trkpt>
      <trkpt lat="43.92668" lon="7.18226">
        <ele>224.04</ele>
        <time>2022-10-10T09:08:09Z</time>
      </trkpt>
      <trkpt lat="43.92642" lon="7.18262">
        <ele>223.96</ele>
        <time>2022-10-10T09:08:12Z</time>
      </trkpt>
      <trkpt lat="43.92617" lon="7.183">
        <ele>222.85</ele>
        <time>2022-10-10T09:08:15Z</time>
      </trkpt>
      <trkpt lat="43.92611" lon="7.18315">
        <ele>222.88</ele>
        <time>2022-10-10T09:08:16Z</time>
      </trkpt>
      <trkpt lat="43.92606" lon="7.18333">
        <ele>222.85</ele>
        <time>2022-10-10T09:08:17Z</time>
      </trkpt>
      <trkpt lat="43.92581" lon="7.18442">
        <ele>221.77</ele>
        <time>2022-10-10T09:08:25Z</time>
      </trkpt>
      <trkpt lat="43.9255" lon="7.18522">
        <ele>220.92</ele>
        <time>2022-10-10T09:08:31Z</time>
      </trkpt>
      <trkpt lat="43.92542" lon="7.18548">
        <ele>220.88</ele>
        <time>2022-10-10T09:08:33Z</time>
      </trkpt>
      <trkpt lat="43.92537" lon="7.18559">
        <ele>220.87</ele>
        <time>2022-10-10T09:08:34Z</time>
      </trkpt>
      <trkpt lat="43.92531" lon="7.18569">
        <ele>220.85</ele>
        <time>2022-10-10T09:08:35Z</time>
      </trkpt>
      <trkpt lat="43.92486" lon="7.18635">
        <ele>220.8</ele>
        <time>2022-10-10T09:08:41Z</time>
      </trkpt>
      <trkpt lat="43.92477" lon="7.18642">
        <ele>220.81</ele>
        <time>2022-10-10T09:08:42Z</time>
      </trkpt>
      <trkpt lat="43.92467" lon="7.18647">
        <ele>219.92</ele>
        <time>2022-10-10T09:08:43Z</time>
      </trkpt>
      <trkpt lat="43.92457" lon="7.18648">
        <ele>219.93</ele>
        <time>2022-10-10T09:08:44Z</time>
      </trkpt>
      <trkpt lat="43.92446" lon="7.18647">
        <ele>219.97</ele>
        <time>2022-10-10T09:08:45Z</time>
      </trkpt>
      <trkpt lat="43.92434" lon="7.18646">
        <ele>219.96</ele>
        <time>2022-10-10T09:08:46Z</time>
      </trkpt>
      <trkpt lat="43.9235" lon="7.18635">
        <ele>218.89</ele>
        <time>2022-10-10T09:08:53Z</time>
      </trkpt>
      <trkpt lat="43.92337" lon="7.1863">
        <ele>218.88</ele>
        <time>2022-10-10T09:08:54Z</time>
      </trkpt>
      <trkpt lat="43.92325" lon="7.18622">
        <ele>218.87</ele>
        <time>2022-10-10T09:08:55Z</time>
      </trkpt>
      <trkpt lat="43.92271" lon="7.18589">
        <ele>217.98</ele>
        <time>2022-10-10T09:08:59Z</time>
      </trkpt>
      <trkpt lat="43.92256" lon="7.18587">
        <ele>217.12</ele>
        <time>2022-10-10T09:09:00Z</time>
      </trkpt>
      <trkpt lat="43.92241" lon="7.18589">
        <ele>217.09</ele>
        <time>2022-10-10T09:09:01Z</time>
      </trkpt>
      <trkpt lat="43.92227" lon="7.18594">
        <ele>215.95</ele>
        <time>2022-10-10T09:09:02Z</time>
      </trkpt>
      <trkpt lat="43.92213" lon="7.186">
        <ele>215.88</ele>
        <time>2022-10-10T09:09:03Z</time>
      </trkpt>
      <trkpt lat="43.92186" lon="7.18614">
        <ele>214.31</ele>
        <time>2022-10-10T09:09:05Z</time>
      </trkpt>
      <trkpt lat="43.92161" lon="7.18628">
        <ele>212.99</ele>
        <time>2022-10-10T09:09:07Z</time>
      </trkpt>
      <trkpt lat="43.92127" lon="7.18649">
        <ele>211</ele>
        <time>2022-10-10T09:09:10Z</time>
      </trkpt>
      <trkpt lat="43.92116" lon="7.18658">
        <ele>210.1</ele>
        <time>2022-10-10T09:09:11Z</time>
      </trkpt>
      <trkpt lat="43.92107" lon="7.1867">
        <ele>210.1</ele>
        <time>2022-10-10T09:09:12Z</time>
      </trkpt>
      <trkpt lat="43.921" lon="7.18685">
        <ele>210.49</ele>
        <time>2022-10-10T09:09:13Z</time>
      </trkpt>
      <trkpt lat="43.92077" lon="7.1875">
        <ele>207.56</ele>
        <time>2022-10-10T09:09:17Z</time>
      </trkpt>
      <trkpt lat="43.9207" lon="7.18763">
        <ele>207.49</ele>
        <time>2022-10-10T09:09:18Z</time>
      </trkpt>
      <trkpt lat="43.9206" lon="7.18775">
        <ele>206.69</ele>
        <time>2022-10-10T09:09:19Z</time>
      </trkpt>
      <trkpt lat="43.92049" lon="7.18783">
        <ele>206.62</ele>
        <time>2022-10-10T09:09:20Z</time>
      </trkpt>
      <trkpt lat="43.92036" lon="7.18789">
        <ele>206.64</ele>
        <time>2022-10-10T09:09:21Z</time>
      </trkpt>
      <trkpt lat="43.92023" lon="7.18792">
        <ele>206.65</ele>
        <time>2022-10-10T09:09:22Z</time>
      </trkpt>
      <trkpt lat="43.92008" lon="7.18794">
        <ele>206.58</ele>
        <time>2022-10-10T09:09:23Z</time>
      </trkpt>
      <trkpt lat="43.91964" lon="7.18802">
        <ele>204.95</ele>
        <time>2022-10-10T09:09:26Z</time>
      </trkpt>
      <trkpt lat="43.91949" lon="7.18807">
        <ele>203.88</ele>
        <time>2022-10-10T09:09:27Z</time>
      </trkpt>
      <trkpt lat="43.91934" lon="7.18816">
        <ele>203.82</ele>
        <time>2022-10-10T09:09:28Z</time>
      </trkpt>
      <trkpt lat="43.9186" lon="7.18874">
        <ele>201.07</ele>
        <time>2022-10-10T09:09:33Z</time>
      </trkpt>
      <trkpt lat="43.91838" lon="7.18897">
        <ele>199.28</ele>
        <time>2022-10-10T09:09:35Z</time>
      </trkpt>
      <trkpt lat="43.91815" lon="7.18913">
        <ele>197.57</ele>
        <time>2022-10-10T09:09:37Z</time>
      </trkpt>
      <trkpt lat="43.9181" lon="7.18924">
        <ele>197.57</ele>
        <time>2022-10-10T09:09:38Z</time>
      </trkpt>
      <trkpt lat="43.91799" lon="7.18927">
        <ele>197.51</ele>
        <time>2022-10-10T09:09:39Z</time>
      </trkpt>
      <trkpt lat="43.91789" lon="7.18953">
        <ele>196.32</ele>
        <time>2022-10-10T09:09:43Z</time>
      </trkpt>
      <trkpt lat="43.91778" lon="7.1895">
        <ele>196.26</ele>
        <time>2022-10-10T09:09:44Z</time>
      </trkpt>
      <trkpt lat="43.91763" lon="7.18944">
        <ele>196.22</ele>
        <time>2022-10-10T09:09:45Z</time>
      </trkpt>
      <trkpt lat="43.91753" lon="7.18935">
        <ele>196.22</ele>
        <time>2022-10-10T09:09:46Z</time>
      </trkpt>
      <trkpt lat="43.91737" lon="7.1893">
        <ele>196.16</ele>
        <time>2022-10-10T09:09:47Z</time>
      </trkpt>
      <trkpt lat="43.91673" lon="7.18888">
        <ele>195.14</ele>
        <time>2022-10-10T09:09:52Z</time>
      </trkpt>
      <trkpt lat="43.91618" lon="7.18866">
        <ele>195.22</ele>
        <time>2022-10-10T09:09:55Z</time>
      </trkpt>
      <trkpt lat="43.91608" lon="7.1885">
        <ele>195.21</ele>
        <time>2022-10-10T09:09:56Z</time>
      </trkpt>
      <trkpt lat="43.91553" lon="7.18752">
        <ele>194.09</ele>
        <time>2022-10-10T09:10:02Z</time>
      </trkpt>
      <trkpt lat="43.91542" lon="7.18741">
        <ele>194.08</ele>
        <time>2022-10-10T09:10:03Z</time>
      </trkpt>
      <trkpt lat="43.9153" lon="7.18735">
        <ele>194.08</ele>
        <time>2022-10-10T09:10:04Z</time>
      </trkpt>
      <trkpt lat="43.91517" lon="7.18732">
        <ele>194.07</ele>
        <time>2022-10-10T09:10:05Z</time>
      </trkpt>
      <trkpt lat="43.91504" lon="7.18733">
        <ele>194.06</ele>
        <time>2022-10-10T09:10:06Z</time>
      </trkpt>
      <trkpt lat="43.9149" lon="7.18738">
        <ele>194.12</ele>
        <time>2022-10-10T09:10:07Z</time>
      </trkpt>
      <trkpt lat="43.91477" lon="7.18744">
        <ele>194.12</ele>
        <time>2022-10-10T09:10:08Z</time>
      </trkpt>
      <trkpt lat="43.91454" lon="7.18761">
        <ele>192.84</ele>
        <time>2022-10-10T09:10:10Z</time>
      </trkpt>
      <trkpt lat="43.91443" lon="7.18772">
        <ele>192.84</ele>
        <time>2022-10-10T09:10:11Z</time>
      </trkpt>
      <trkpt lat="43.91433" lon="7.18782">
        <ele>192.82</ele>
        <time>2022-10-10T09:10:12Z</time>
      </trkpt>
      <trkpt lat="43.91422" lon="7.18791">
        <ele>192.82</ele>
        <time>2022-10-10T09:10:13Z</time>
      </trkpt>
      <trkpt lat="43.9141" lon="7.18797">
        <ele>192.81</ele>
        <time>2022-10-10T09:10:14Z</time>
      </trkpt>
      <trkpt lat="43.91398" lon="7.18804">
        <ele>192.02</ele>
        <time>2022-10-10T09:10:15Z</time>
      </trkpt>
      <trkpt lat="43.91375" lon="7.18813">
        <ele>190.95</ele>
        <time>2022-10-10T09:10:17Z</time>
      </trkpt>
      <trkpt lat="43.91363" lon="7.18813">
        <ele>190.95</ele>
        <time>2022-10-10T09:10:18Z</time>
      </trkpt>
      <trkpt lat="43.91352" lon="7.18811">
        <ele>190.91</ele>
        <time>2022-10-10T09:10:19Z</time>
      </trkpt>
      <trkpt lat="43.91341" lon="7.18806">
        <ele>190.94</ele>
        <time>2022-10-10T09:10:20Z</time>
      </trkpt>
      <trkpt lat="43.91329" lon="7.18798">
        <ele>190.89</ele>
        <time>2022-10-10T09:10:21Z</time>
      </trkpt>
      <trkpt lat="43.91318" lon="7.18788">
        <ele>190.02</ele>
        <time>2022-10-10T09:10:22Z</time>
      </trkpt>
      <trkpt lat="43.91307" lon="7.18778">
        <ele>190.02</ele>
        <time>2022-10-10T09:10:23Z</time>
      </trkpt>
      <trkpt lat="43.91298" lon="7.18765">
        <ele>189.97</ele>
        <time>2022-10-10T09:10:24Z</time>
      </trkpt>
      <trkpt lat="43.91291" lon="7.18751">
        <ele>189.96</ele>
        <time>2022-10-10T09:10:25Z</time>
      </trkpt>
      <trkpt lat="43.91286" lon="7.18737">
        <ele>188.73</ele>
        <time>2022-10-10T09:10:26Z</time>
      </trkpt>
      <trkpt lat="43.91283" lon="7.18723">
        <ele>188.72</ele>
        <time>2022-10-10T09:10:27Z</time>
      </trkpt>
      <trkpt lat="43.91281" lon="7.18709">
        <ele>188.69</ele>
        <time>2022-10-10T09:10:28Z</time>
      </trkpt>
      <trkpt lat="43.91279" lon="7.18694">
        <ele>188.69</ele>
        <time>2022-10-10T09:10:29Z</time>
      </trkpt>
      <trkpt lat="43.91274" lon="7.18679">
        <ele>188.66</ele>
        <time>2022-10-10T09:10:30Z</time>
      </trkpt>
      <trkpt lat="43.91268" lon="7.18666">
        <ele>188.68</ele>
        <time>2022-10-10T09:10:31Z</time>
      </trkpt>
      <trkpt lat="43.9126" lon="7.18655">
        <ele>188.08</ele>
        <time>2022-10-10T09:10:32Z</time>
      </trkpt>
      <trkpt lat="43.91252" lon="7.18644">
        <ele>188.06</ele>
        <time>2022-10-10T09:10:33Z</time>
      </trkpt>
      <trkpt lat="43.91246" lon="7.18633">
        <ele>188.06</ele>
        <time>2022-10-10T09:10:34Z</time>
      </trkpt>
      <trkpt lat="43.91242" lon="7.18621">
        <ele>187.17</ele>
        <time>2022-10-10T09:10:35Z</time>
      </trkpt>
      <trkpt lat="43.91233" lon="7.18596">
        <ele>187.14</ele>
        <time>2022-10-10T09:10:37Z</time>
      </trkpt>
      <trkpt lat="43.91226" lon="7.18585">
        <ele>187.14</ele>
        <time>2022-10-10T09:10:38Z</time>
      </trkpt>
      <trkpt lat="43.91217" lon="7.18576">
        <ele>187.12</ele>
        <time>2022-10-10T09:10:39Z</time>
      </trkpt>
      <trkpt lat="43.91207" lon="7.18571">
        <ele>187.11</ele>
        <time>2022-10-10T09:10:40Z</time>
      </trkpt>
      <trkpt lat="43.91197" lon="7.18566">
        <ele>186.15</ele>
        <time>2022-10-10T09:10:41Z</time>
      </trkpt>
      <trkpt lat="43.91187" lon="7.18565">
        <ele>186.15</ele>
        <time>2022-10-10T09:10:42Z</time>
      </trkpt>
      <trkpt lat="43.91137" lon="7.1857">
        <ele>185.35</ele>
        <time>2022-10-10T09:10:48Z</time>
      </trkpt>
      <trkpt lat="43.91129" lon="7.18575">
        <ele>185.35</ele>
        <time>2022-10-10T09:10:49Z</time>
      </trkpt>
      <trkpt lat="43.91123" lon="7.18584">
        <ele>185.34</ele>
        <time>2022-10-10T09:10:50Z</time>
      </trkpt>
      <trkpt lat="43.91117" lon="7.18595">
        <ele>185.35</ele>
        <time>2022-10-10T09:10:51Z</time>
      </trkpt>
      <trkpt lat="43.91111" lon="7.18609">
        <ele>185.35</ele>
        <time>2022-10-10T09:10:52Z</time>
      </trkpt>
      <trkpt lat="43.91105" lon="7.18625">
        <ele>185.37</ele>
        <time>2022-10-10T09:10:53Z</time>
      </trkpt>
      <trkpt lat="43.91073" lon="7.18699">
        <ele>185.44</ele>
        <time>2022-10-10T09:10:58Z</time>
      </trkpt>
      <trkpt lat="43.91065" lon="7.1871">
        <ele>185.44</ele>
        <time>2022-10-10T09:10:59Z</time>
      </trkpt>
      <trkpt lat="43.91056" lon="7.1872">
        <ele>185.43</ele>
        <time>2022-10-10T09:11:00Z</time>
      </trkpt>
      <trkpt lat="43.9103" lon="7.18752">
        <ele>185.41</ele>
        <time>2022-10-10T09:11:03Z</time>
      </trkpt>
      <trkpt lat="43.90979" lon="7.18827">
        <ele>184.39</ele>
        <time>2022-10-10T09:11:10Z</time>
      </trkpt>
      <trkpt lat="43.90967" lon="7.18827">
        <ele>184.39</ele>
        <time>2022-10-10T09:11:11Z</time>
      </trkpt>
      <trkpt lat="43.9089" lon="7.18837">
        <ele>183.54</ele>
        <time>2022-10-10T09:11:21Z</time>
      </trkpt>
      <trkpt lat="43.90891" lon="7.18835">
        <ele>183.54</ele>
        <time>2022-10-10T09:11:22Z</time>
      </trkpt>
      <trkpt lat="43.90892" lon="7.18832">
        <ele>183.53</ele>
        <time>2022-10-10T09:11:23Z</time>
      </trkpt>
      <trkpt lat="43.90892" lon="7.18813">
        <ele>183.53</ele>
        <time>2022-10-10T09:11:24Z</time>
      </trkpt>
      <trkpt lat="43.90892" lon="7.18803">
        <ele>183.53</ele>
        <time>2022-10-10T09:11:25Z</time>
      </trkpt>
      <trkpt lat="43.90888" lon="7.18786">
        <ele>183.54</ele>
        <time>2022-10-10T09:11:26Z</time>
      </trkpt>
      <trkpt lat="43.90891" lon="7.18778">
        <ele>183.54</ele>
        <time>2022-10-10T09:11:27Z</time>
      </trkpt>
      <trkpt lat="43.90894" lon="7.18771">
        <ele>183.54</ele>
        <time>2022-10-10T09:11:28Z</time>
      </trkpt>
      <trkpt lat="43.90898" lon="7.18761">
        <ele>183.53</ele>
        <time>2022-10-10T09:11:29Z</time>
      </trkpt>
      <trkpt lat="43.90937" lon="7.18683">
        <ele>186.8</ele>
        <time>2022-10-10T09:11:37Z</time>
      </trkpt>
      <trkpt lat="43.90958" lon="7.18644">
        <ele>190.27</ele>
        <time>2022-10-10T09:11:39Z</time>
      </trkpt>
      <trkpt lat="43.90975" lon="7.18632">
        <ele>191.49</ele>
        <time>2022-10-10T09:11:40Z</time>
      </trkpt>
      <trkpt lat="43.90998" lon="7.18625">
        <ele>192.53</ele>
        <time>2022-10-10T09:11:41Z</time>
      </trkpt>
      <trkpt lat="43.91028" lon="7.18602">
        <ele>194.18</ele>
        <time>2022-10-10T09:11:43Z</time>
      </trkpt>
      <trkpt lat="43.91094" lon="7.18507">
        <ele>191.12</ele>
        <time>2022-10-10T09:11:50Z</time>
      </trkpt>
      <trkpt lat="43.91102" lon="7.18493">
        <ele>191.11</ele>
        <time>2022-10-10T09:11:51Z</time>
      </trkpt>
      <trkpt lat="43.91119" lon="7.1846">
        <ele>189.76</ele>
        <time>2022-10-10T09:11:53Z</time>
      </trkpt>
      <trkpt lat="43.91136" lon="7.18425">
        <ele>188.36</ele>
        <time>2022-10-10T09:11:55Z</time>
      </trkpt>
      <trkpt lat="43.91143" lon="7.18405">
        <ele>187.39</ele>
        <time>2022-10-10T09:11:56Z</time>
      </trkpt>
      <trkpt lat="43.91189" lon="7.18201">
        <ele>187.21</ele>
        <time>2022-10-10T09:12:06Z</time>
      </trkpt>
      <trkpt lat="43.91199" lon="7.18119">
        <ele>187.45</ele>
        <time>2022-10-10T09:12:10Z</time>
      </trkpt>
      <trkpt lat="43.91224" lon="7.1804">
        <ele>189.95</ele>
        <time>2022-10-10T09:12:14Z</time>
      </trkpt>
      <trkpt lat="43.91234" lon="7.18024">
        <ele>189.95</ele>
        <time>2022-10-10T09:12:15Z</time>
      </trkpt>
      <trkpt lat="43.91319" lon="7.17825">
        <ele>190.84</ele>
        <time>2022-10-10T09:12:26Z</time>
      </trkpt>
      <trkpt lat="43.91338" lon="7.17768">
        <ele>190.8</ele>
        <time>2022-10-10T09:12:29Z</time>
      </trkpt>
      <trkpt lat="43.91385" lon="7.17729">
        <ele>190.73</ele>
        <time>2022-10-10T09:12:33Z</time>
      </trkpt>
      <trkpt lat="43.91428" lon="7.1754">
        <ele>190.55</ele>
        <time>2022-10-10T09:12:43Z</time>
      </trkpt>
      <trkpt lat="43.91435" lon="7.17525">
        <ele>190.54</ele>
        <time>2022-10-10T09:12:44Z</time>
      </trkpt>
      <trkpt lat="43.91449" lon="7.17499">
        <ele>190.52</ele>
        <time>2022-10-10T09:12:46Z</time>
      </trkpt>
      <trkpt lat="43.91457" lon="7.17489">
        <ele>190.49</ele>
        <time>2022-10-10T09:12:47Z</time>
      </trkpt>
      <trkpt lat="43.91465" lon="7.17481">
        <ele>190.49</ele>
        <time>2022-10-10T09:12:48Z</time>
      </trkpt>
      <trkpt lat="43.91473" lon="7.17474">
        <ele>190.48</ele>
        <time>2022-10-10T09:12:49Z</time>
      </trkpt>
      <trkpt lat="43.9148" lon="7.17467">
        <ele>190.47</ele>
        <time>2022-10-10T09:12:50Z</time>
      </trkpt>
      <trkpt lat="43.91485" lon="7.17461">
        <ele>190.45</ele>
        <time>2022-10-10T09:12:51Z</time>
      </trkpt>
      <trkpt lat="43.91489" lon="7.17447">
        <ele>190.45</ele>
        <time>2022-10-10T09:12:53Z</time>
      </trkpt>
      <trkpt lat="43.91492" lon="7.1744">
        <ele>190.41</ele>
        <time>2022-10-10T09:12:54Z</time>
      </trkpt>
      <trkpt lat="43.91495" lon="7.17433">
        <ele>190.39</ele>
        <time>2022-10-10T09:12:55Z</time>
      </trkpt>
      <trkpt lat="43.91505" lon="7.17411">
        <ele>190.33</ele>
        <time>2022-10-10T09:12:58Z</time>
      </trkpt>
      <trkpt lat="43.9154" lon="7.17342">
        <ele>192.44</ele>
        <time>2022-10-10T09:13:03Z</time>
      </trkpt>
      <trkpt lat="43.91587" lon="7.17263">
        <ele>195.22</ele>
        <time>2022-10-10T09:13:07Z</time>
      </trkpt>
      <trkpt lat="43.9174" lon="7.17052">
        <ele>196.93</ele>
        <time>2022-10-10T09:13:18Z</time>
      </trkpt>
      <trkpt lat="43.91825" lon="7.16873">
        <ele>198.59</ele>
        <time>2022-10-10T09:13:26Z</time>
      </trkpt>
      <trkpt lat="43.9184" lon="7.16823">
        <ele>199.65</ele>
        <time>2022-10-10T09:13:28Z</time>
      </trkpt>
      <trkpt lat="43.91844" lon="7.16796">
        <ele>199.65</ele>
        <time>2022-10-10T09:13:29Z</time>
      </trkpt>
      <trkpt lat="43.91846" lon="7.16769">
        <ele>199.67</ele>
        <time>2022-10-10T09:13:30Z</time>
      </trkpt>
      <trkpt lat="43.91852" lon="7.16562">
        <ele>203.14</ele>
        <time>2022-10-10T09:13:38Z</time>
      </trkpt>
      <trkpt lat="43.91848" lon="7.16538">
        <ele>203.18</ele>
        <time>2022-10-10T09:13:39Z</time>
      </trkpt>
      <trkpt lat="43.91843" lon="7.16515">
        <ele>203.18</ele>
        <time>2022-10-10T09:13:40Z</time>
      </trkpt>
      <trkpt lat="43.91835" lon="7.16493">
        <ele>204.36</ele>
        <time>2022-10-10T09:13:41Z</time>
      </trkpt>
      <trkpt lat="43.91826" lon="7.16472">
        <ele>204.39</ele>
        <time>2022-10-10T09:13:42Z</time>
      </trkpt>
      <trkpt lat="43.91812" lon="7.16429">
        <ele>204.39</ele>
        <time>2022-10-10T09:13:44Z</time>
      </trkpt>
      <trkpt lat="43.91809" lon="7.16407">
        <ele>204.38</ele>
        <time>2022-10-10T09:13:45Z</time>
      </trkpt>
      <trkpt lat="43.91809" lon="7.16384">
        <ele>204.37</ele>
        <time>2022-10-10T09:13:46Z</time>
      </trkpt>
      <trkpt lat="43.91813" lon="7.16361">
        <ele>204.37</ele>
        <time>2022-10-10T09:13:47Z</time>
      </trkpt>
      <trkpt lat="43.9182" lon="7.16338">
        <ele>205.55</ele>
        <time>2022-10-10T09:13:48Z</time>
      </trkpt>
      <trkpt lat="43.91829" lon="7.16316">
        <ele>205.57</ele>
        <time>2022-10-10T09:13:49Z</time>
      </trkpt>
      <trkpt lat="43.91888" lon="7.16178">
        <ele>207.62</ele>
        <time>2022-10-10T09:13:55Z</time>
      </trkpt>
      <trkpt lat="43.91901" lon="7.16158">
        <ele>207.34</ele>
        <time>2022-10-10T09:13:56Z</time>
      </trkpt>
      <trkpt lat="43.91915" lon="7.16139">
        <ele>208.1</ele>
        <time>2022-10-10T09:13:57Z</time>
      </trkpt>
      <trkpt lat="43.92026" lon="7.15996">
        <ele>210.1</ele>
        <time>2022-10-10T09:14:05Z</time>
      </trkpt>
      <trkpt lat="43.92036" lon="7.15974">
        <ele>210.13</ele>
        <time>2022-10-10T09:14:06Z</time>
      </trkpt>
      <trkpt lat="43.92044" lon="7.15951">
        <ele>210.88</ele>
        <time>2022-10-10T09:14:07Z</time>
      </trkpt>
      <trkpt lat="43.9205" lon="7.15926">
        <ele>210.86</ele>
        <time>2022-10-10T09:14:08Z</time>
      </trkpt>
      <trkpt lat="43.92055" lon="7.15901">
        <ele>210.88</ele>
        <time>2022-10-10T09:14:09Z</time>
      </trkpt>
      <trkpt lat="43.92066" lon="7.15852">
        <ele>211.9</ele>
        <time>2022-10-10T09:14:11Z</time>
      </trkpt>
      <trkpt lat="43.92075" lon="7.15829">
        <ele>211.9</ele>
        <time>2022-10-10T09:14:12Z</time>
      </trkpt>
      <trkpt lat="43.92087" lon="7.15809">
        <ele>211.9</ele>
        <time>2022-10-10T09:14:13Z</time>
      </trkpt>
      <trkpt lat="43.921" lon="7.15789">
        <ele>212.97</ele>
        <time>2022-10-10T09:14:14Z</time>
      </trkpt>
      <trkpt lat="43.92113" lon="7.15771">
        <ele>212.97</ele>
        <time>2022-10-10T09:14:15Z</time>
      </trkpt>
      <trkpt lat="43.92164" lon="7.15698">
        <ele>214.05</ele>
        <time>2022-10-10T09:14:19Z</time>
      </trkpt>
      <trkpt lat="43.92172" lon="7.15674">
        <ele>214.07</ele>
        <time>2022-10-10T09:14:20Z</time>
      </trkpt>
      <trkpt lat="43.92178" lon="7.15649">
        <ele>214.87</ele>
        <time>2022-10-10T09:14:21Z</time>
      </trkpt>
      <trkpt lat="43.92191" lon="7.15595">
        <ele>215.78</ele>
        <time>2022-10-10T09:14:23Z</time>
      </trkpt>
      <trkpt lat="43.92234" lon="7.15482">
        <ele>215.8</ele>
        <time>2022-10-10T09:14:28Z</time>
      </trkpt>
      <trkpt lat="43.92245" lon="7.15464">
        <ele>215.8</ele>
        <time>2022-10-10T09:14:29Z</time>
      </trkpt>
      <trkpt lat="43.9226" lon="7.15449">
        <ele>215.8</ele>
        <time>2022-10-10T09:14:30Z</time>
      </trkpt>
      <trkpt lat="43.9232" lon="7.15383">
        <ele>215.84</ele>
        <time>2022-10-10T09:14:34Z</time>
      </trkpt>
      <trkpt lat="43.92332" lon="7.15361">
        <ele>215.83</ele>
        <time>2022-10-10T09:14:35Z</time>
      </trkpt>
      <trkpt lat="43.92341" lon="7.15337">
        <ele>215.91</ele>
        <time>2022-10-10T09:14:36Z</time>
      </trkpt>
      <trkpt lat="43.92348" lon="7.15311">
        <ele>215.84</ele>
        <time>2022-10-10T09:14:37Z</time>
      </trkpt>
      <trkpt lat="43.92354" lon="7.15283">
        <ele>215.81</ele>
        <time>2022-10-10T09:14:38Z</time>
      </trkpt>
      <trkpt lat="43.92368" lon="7.15229">
        <ele>215.76</ele>
        <time>2022-10-10T09:14:40Z</time>
      </trkpt>
      <trkpt lat="43.92378" lon="7.15204">
        <ele>215.76</ele>
        <time>2022-10-10T09:14:41Z</time>
      </trkpt>
      <trkpt lat="43.92391" lon="7.15181">
        <ele>215.76</ele>
        <time>2022-10-10T09:14:42Z</time>
      </trkpt>
      <trkpt lat="43.92405" lon="7.1516">
        <ele>215.76</ele>
        <time>2022-10-10T09:14:43Z</time>
      </trkpt>
      <trkpt lat="43.9242" lon="7.1514">
        <ele>215.82</ele>
        <time>2022-10-10T09:14:44Z</time>
      </trkpt>
      <trkpt lat="43.92499" lon="7.15018">
        <ele>215.75</ele>
        <time>2022-10-10T09:14:50Z</time>
      </trkpt>
      <trkpt lat="43.92592" lon="7.14844">
        <ele>215.71</ele>
        <time>2022-10-10T09:14:58Z</time>
      </trkpt>
      <trkpt lat="43.92607" lon="7.14829">
        <ele>215.7</ele>
        <time>2022-10-10T09:14:59Z</time>
      </trkpt>
      <trkpt lat="43.92625" lon="7.14818">
        <ele>215.7</ele>
        <time>2022-10-10T09:15:00Z</time>
      </trkpt>
      <trkpt lat="43.92643" lon="7.14808">
        <ele>215.68</ele>
        <time>2022-10-10T09:15:01Z</time>
      </trkpt>
      <trkpt lat="43.92662" lon="7.14801">
        <ele>215.67</ele>
        <time>2022-10-10T09:15:02Z</time>
      </trkpt>
      <trkpt lat="43.92682" lon="7.14795">
        <ele>215.67</ele>
        <time>2022-10-10T09:15:03Z</time>
      </trkpt>
      <trkpt lat="43.92701" lon="7.14794">
        <ele>215.66</ele>
        <time>2022-10-10T09:15:04Z</time>
      </trkpt>
      <trkpt lat="43.9272" lon="7.14797">
        <ele>215.68</ele>
        <time>2022-10-10T09:15:05Z</time>
      </trkpt>
      <trkpt lat="43.92739" lon="7.14801">
        <ele>215.65</ele>
        <time>2022-10-10T09:15:06Z</time>
      </trkpt>
      <trkpt lat="43.92774" lon="7.14803">
        <ele>215.64</ele>
        <time>2022-10-10T09:15:08Z</time>
      </trkpt>
      <trkpt lat="43.92792" lon="7.14799">
        <ele>215.63</ele>
        <time>2022-10-10T09:15:09Z</time>
      </trkpt>
      <trkpt lat="43.92901" lon="7.14767">
        <ele>216.56</ele>
        <time>2022-10-10T09:15:15Z</time>
      </trkpt>
      <trkpt lat="43.9295" lon="7.14734">
        <ele>217.65</ele>
        <time>2022-10-10T09:15:18Z</time>
      </trkpt>
      <trkpt lat="43.92962" lon="7.14716">
        <ele>217.64</ele>
        <time>2022-10-10T09:15:19Z</time>
      </trkpt>
      <trkpt lat="43.92972" lon="7.14695">
        <ele>217.65</ele>
        <time>2022-10-10T09:15:20Z</time>
      </trkpt>
      <trkpt lat="43.92983" lon="7.14675">
        <ele>217.64</ele>
        <time>2022-10-10T09:15:21Z</time>
      </trkpt>
      <trkpt lat="43.92995" lon="7.14655">
        <ele>218.55</ele>
        <time>2022-10-10T09:15:22Z</time>
      </trkpt>
      <trkpt lat="43.93008" lon="7.14636">
        <ele>218.54</ele>
        <time>2022-10-10T09:15:23Z</time>
      </trkpt>
      <trkpt lat="43.93021" lon="7.14618">
        <ele>218.59</ele>
        <time>2022-10-10T09:15:24Z</time>
      </trkpt>
      <trkpt lat="43.93099" lon="7.14503">
        <ele>221.38</ele>
        <time>2022-10-10T09:15:30Z</time>
      </trkpt>
      <trkpt lat="43.93107" lon="7.14479">
        <ele>221.36</ele>
        <time>2022-10-10T09:15:31Z</time>
      </trkpt>
      <trkpt lat="43.93121" lon="7.14429">
        <ele>221.37</ele>
        <time>2022-10-10T09:15:33Z</time>
      </trkpt>
      <trkpt lat="43.93132" lon="7.14406">
        <ele>221.39</ele>
        <time>2022-10-10T09:15:34Z</time>
      </trkpt>
      <trkpt lat="43.93145" lon="7.14386">
        <ele>221.34</ele>
        <time>2022-10-10T09:15:35Z</time>
      </trkpt>
      <trkpt lat="43.93159" lon="7.14367">
        <ele>221.34</ele>
        <time>2022-10-10T09:15:36Z</time>
      </trkpt>
      <trkpt lat="43.93175" lon="7.1435">
        <ele>222.37</ele>
        <time>2022-10-10T09:15:37Z</time>
      </trkpt>
      <trkpt lat="43.93191" lon="7.14334">
        <ele>222.37</ele>
        <time>2022-10-10T09:15:38Z</time>
      </trkpt>
      <trkpt lat="43.93207" lon="7.14319">
        <ele>222.4</ele>
        <time>2022-10-10T09:15:39Z</time>
      </trkpt>
      <trkpt lat="43.93222" lon="7.14302">
        <ele>222.39</ele>
        <time>2022-10-10T09:15:40Z</time>
      </trkpt>
      <trkpt lat="43.93235" lon="7.14284">
        <ele>222.42</ele>
        <time>2022-10-10T09:15:41Z</time>
      </trkpt>
      <trkpt lat="43.93248" lon="7.14264">
        <ele>222.41</ele>
        <time>2022-10-10T09:15:42Z</time>
      </trkpt>
      <trkpt lat="43.9326" lon="7.14243">
        <ele>222.42</ele>
        <time>2022-10-10T09:15:43Z</time>
      </trkpt>
      <trkpt lat="43.9327" lon="7.1422">
        <ele>223.2</ele>
        <time>2022-10-10T09:15:44Z</time>
      </trkpt>
      <trkpt lat="43.93277" lon="7.14197">
        <ele>223.2</ele>
        <time>2022-10-10T09:15:45Z</time>
      </trkpt>
      <trkpt lat="43.93283" lon="7.14173">
        <ele>223.22</ele>
        <time>2022-10-10T09:15:46Z</time>
      </trkpt>
      <trkpt lat="43.93302" lon="7.14101">
        <ele>224.44</ele>
        <time>2022-10-10T09:15:49Z</time>
      </trkpt>
      <trkpt lat="43.93341" lon="7.13949">
        <ele>224.38</ele>
        <time>2022-10-10T09:15:56Z</time>
      </trkpt>
      <trkpt lat="43.93343" lon="7.13931">
        <ele>224.39</ele>
        <time>2022-10-10T09:15:57Z</time>
      </trkpt>
      <trkpt lat="43.93342" lon="7.13913">
        <ele>224.34</ele>
        <time>2022-10-10T09:15:58Z</time>
      </trkpt>
      <trkpt lat="43.9334" lon="7.13897">
        <ele>224.33</ele>
        <time>2022-10-10T09:15:59Z</time>
      </trkpt>
      <trkpt lat="43.93336" lon="7.13881">
        <ele>224.31</ele>
        <time>2022-10-10T09:16:00Z</time>
      </trkpt>
      <trkpt lat="43.93332" lon="7.13866">
        <ele>224.33</ele>
        <time>2022-10-10T09:16:01Z</time>
      </trkpt>
      <trkpt lat="43.93298" lon="7.1379">
        <ele>226.5</ele>
        <time>2022-10-10T09:16:06Z</time>
      </trkpt>
      <trkpt lat="43.93205" lon="7.13698">
        <ele>227.36</ele>
        <time>2022-10-10T09:16:14Z</time>
      </trkpt>
      <trkpt lat="43.93192" lon="7.13686">
        <ele>227.35</ele>
        <time>2022-10-10T09:16:15Z</time>
      </trkpt>
      <trkpt lat="43.93182" lon="7.13672">
        <ele>227.36</ele>
        <time>2022-10-10T09:16:16Z</time>
      </trkpt>
      <trkpt lat="43.93172" lon="7.13656">
        <ele>227.35</ele>
        <time>2022-10-10T09:16:17Z</time>
      </trkpt>
      <trkpt lat="43.93165" lon="7.13639">
        <ele>227.37</ele>
        <time>2022-10-10T09:16:18Z</time>
      </trkpt>
      <trkpt lat="43.93158" lon="7.13622">
        <ele>227.37</ele>
        <time>2022-10-10T09:16:19Z</time>
      </trkpt>
      <trkpt lat="43.93126" lon="7.13537">
        <ele>227.29</ele>
        <time>2022-10-10T09:16:24Z</time>
      </trkpt>
      <trkpt lat="43.93122" lon="7.13519">
        <ele>227.25</ele>
        <time>2022-10-10T09:16:25Z</time>
      </trkpt>
      <trkpt lat="43.93121" lon="7.13502">
        <ele>227.3</ele>
        <time>2022-10-10T09:16:26Z</time>
      </trkpt>
      <trkpt lat="43.93122" lon="7.13484">
        <ele>227.3</ele>
        <time>2022-10-10T09:16:27Z</time>
      </trkpt>
      <trkpt lat="43.93123" lon="7.13466">
        <ele>227.29</ele>
        <time>2022-10-10T09:16:28Z</time>
      </trkpt>
      <trkpt lat="43.93143" lon="7.13265">
        <ele>227.27</ele>
        <time>2022-10-10T09:16:38Z</time>
      </trkpt>
      <trkpt lat="43.93147" lon="7.13246">
        <ele>227.28</ele>
        <time>2022-10-10T09:16:39Z</time>
      </trkpt>
      <trkpt lat="43.93155" lon="7.1323">
        <ele>227.28</ele>
        <time>2022-10-10T09:16:40Z</time>
      </trkpt>
      <trkpt lat="43.93164" lon="7.13215">
        <ele>227.28</ele>
        <time>2022-10-10T09:16:41Z</time>
      </trkpt>
      <trkpt lat="43.93176" lon="7.13204">
        <ele>227.3</ele>
        <time>2022-10-10T09:16:42Z</time>
      </trkpt>
      <trkpt lat="43.93189" lon="7.13196">
        <ele>227.31</ele>
        <time>2022-10-10T09:16:43Z</time>
      </trkpt>
      <trkpt lat="43.93202" lon="7.13188">
        <ele>227.33</ele>
        <time>2022-10-10T09:16:44Z</time>
      </trkpt>
      <trkpt lat="43.93224" lon="7.13165">
        <ele>228.35</ele>
        <time>2022-10-10T09:16:46Z</time>
      </trkpt>
      <trkpt lat="43.93234" lon="7.13152">
        <ele>228.36</ele>
        <time>2022-10-10T09:16:47Z</time>
      </trkpt>
      <trkpt lat="43.93365" lon="7.12991">
        <ele>228.36</ele>
        <time>2022-10-10T09:16:59Z</time>
      </trkpt>
      <trkpt lat="43.93482" lon="7.12823">
        <ele>229.46</ele>
        <time>2022-10-10T09:17:10Z</time>
      </trkpt>
      <trkpt lat="43.93488" lon="7.12801">
        <ele>230.29</ele>
        <time>2022-10-10T09:17:11Z</time>
      </trkpt>
      <trkpt lat="43.93494" lon="7.12777">
        <ele>230.3</ele>
        <time>2022-10-10T09:17:12Z</time>
      </trkpt>
      <trkpt lat="43.93555" lon="7.12576">
        <ele>231.49</ele>
        <time>2022-10-10T09:17:20Z</time>
      </trkpt>
      <trkpt lat="43.93562" lon="7.1255">
        <ele>231.45</ele>
        <time>2022-10-10T09:17:21Z</time>
      </trkpt>
      <trkpt lat="43.93568" lon="7.12523">
        <ele>231.45</ele>
        <time>2022-10-10T09:17:22Z</time>
      </trkpt>
      <trkpt lat="43.93571" lon="7.12495">
        <ele>231.45</ele>
        <time>2022-10-10T09:17:23Z</time>
      </trkpt>
      <trkpt lat="43.93575" lon="7.12468">
        <ele>231.46</ele>
        <time>2022-10-10T09:17:24Z</time>
      </trkpt>
      <trkpt lat="43.93575" lon="7.1244">
        <ele>231.46</ele>
        <time>2022-10-10T09:17:25Z</time>
      </trkpt>
      <trkpt lat="43.93574" lon="7.12413">
        <ele>231.46</ele>
        <time>2022-10-10T09:17:26Z</time>
      </trkpt>
      <trkpt lat="43.9357" lon="7.12385">
        <ele>232.28</ele>
        <time>2022-10-10T09:17:27Z</time>
      </trkpt>
      <trkpt lat="43.93566" lon="7.12358">
        <ele>232.29</ele>
        <time>2022-10-10T09:17:28Z</time>
      </trkpt>
      <trkpt lat="43.9356" lon="7.12332">
        <ele>232.3</ele>
        <time>2022-10-10T09:17:29Z</time>
      </trkpt>
      <trkpt lat="43.93552" lon="7.12307">
        <ele>232.3</ele>
        <time>2022-10-10T09:17:30Z</time>
      </trkpt>
      <trkpt lat="43.93542" lon="7.12283">
        <ele>232.3</ele>
        <time>2022-10-10T09:17:31Z</time>
      </trkpt>
      <trkpt lat="43.93531" lon="7.1226">
        <ele>232.29</ele>
        <time>2022-10-10T09:17:32Z</time>
      </trkpt>
      <trkpt lat="43.93519" lon="7.12237">
        <ele>233.32</ele>
        <time>2022-10-10T09:17:33Z</time>
      </trkpt>
      <trkpt lat="43.93479" lon="7.12177">
        <ele>233.33</ele>
        <time>2022-10-10T09:17:36Z</time>
      </trkpt>
      <trkpt lat="43.93464" lon="7.1216">
        <ele>233.33</ele>
        <time>2022-10-10T09:17:37Z</time>
      </trkpt>
      <trkpt lat="43.93319" lon="7.12013">
        <ele>233.25</ele>
        <time>2022-10-10T09:17:47Z</time>
      </trkpt>
      <trkpt lat="43.93309" lon="7.12">
        <ele>230.23</ele>
        <time>2022-10-10T09:17:48Z</time>
      </trkpt>
      <trkpt lat="43.933" lon="7.11987">
        <ele>230.23</ele>
        <time>2022-10-10T09:17:49Z</time>
      </trkpt>
      <trkpt lat="43.93295" lon="7.11972">
        <ele>230.24</ele>
        <time>2022-10-10T09:17:50Z</time>
      </trkpt>
      <trkpt lat="43.93291" lon="7.11954">
        <ele>230.22</ele>
        <time>2022-10-10T09:17:51Z</time>
      </trkpt>
      <trkpt lat="43.93284" lon="7.11916">
        <ele>230.21</ele>
        <time>2022-10-10T09:17:53Z</time>
      </trkpt>
      <trkpt lat="43.93276" lon="7.11898">
        <ele>230.24</ele>
        <time>2022-10-10T09:17:54Z</time>
      </trkpt>
      <trkpt lat="43.93267" lon="7.11879">
        <ele>230.23</ele>
        <time>2022-10-10T09:17:55Z</time>
      </trkpt>
      <trkpt lat="43.93257" lon="7.11861">
        <ele>230.23</ele>
        <time>2022-10-10T09:17:56Z</time>
      </trkpt>
      <trkpt lat="43.93246" lon="7.11845">
        <ele>230.24</ele>
        <time>2022-10-10T09:17:57Z</time>
      </trkpt>
      <trkpt lat="43.93235" lon="7.11832">
        <ele>230.23</ele>
        <time>2022-10-10T09:17:58Z</time>
      </trkpt>
      <trkpt lat="43.93223" lon="7.11821">
        <ele>230.17</ele>
        <time>2022-10-10T09:17:59Z</time>
      </trkpt>
      <trkpt lat="43.93212" lon="7.11811">
        <ele>230.17</ele>
        <time>2022-10-10T09:18:00Z</time>
      </trkpt>
      <trkpt lat="43.93162" lon="7.11765">
        <ele>230.19</ele>
        <time>2022-10-10T09:18:05Z</time>
      </trkpt>
      <trkpt lat="43.93154" lon="7.11754">
        <ele>230.22</ele>
        <time>2022-10-10T09:18:06Z</time>
      </trkpt>
      <trkpt lat="43.93138" lon="7.11728">
        <ele>229.14</ele>
        <time>2022-10-10T09:18:08Z</time>
      </trkpt>
      <trkpt lat="43.93131" lon="7.11713">
        <ele>229.15</ele>
        <time>2022-10-10T09:18:09Z</time>
      </trkpt>
      <trkpt lat="43.93125" lon="7.11697">
        <ele>229.18</ele>
        <time>2022-10-10T09:18:10Z</time>
      </trkpt>
      <trkpt lat="43.93119" lon="7.11681">
        <ele>229.16</ele>
        <time>2022-10-10T09:18:11Z</time>
      </trkpt>
      <trkpt lat="43.93115" lon="7.11663">
        <ele>229.16</ele>
        <time>2022-10-10T09:18:12Z</time>
      </trkpt>
      <trkpt lat="43.93111" lon="7.11645">
        <ele>229.15</ele>
        <time>2022-10-10T09:18:13Z</time>
      </trkpt>
      <trkpt lat="43.93109" lon="7.11626">
        <ele>229.15</ele>
        <time>2022-10-10T09:18:14Z</time>
      </trkpt>
      <trkpt lat="43.93107" lon="7.11607">
        <ele>229.14</ele>
        <time>2022-10-10T09:18:15Z</time>
      </trkpt>
      <trkpt lat="43.93106" lon="7.11587">
        <ele>229.17</ele>
        <time>2022-10-10T09:18:16Z</time>
      </trkpt>
      <trkpt lat="43.93106" lon="7.11565">
        <ele>231.59</ele>
        <time>2022-10-10T09:18:17Z</time>
      </trkpt>
      <trkpt lat="43.93107" lon="7.11541">
        <ele>231.62</ele>
        <time>2022-10-10T09:18:18Z</time>
      </trkpt>
      <trkpt lat="43.9311" lon="7.11517">
        <ele>231.61</ele>
        <time>2022-10-10T09:18:19Z</time>
      </trkpt>
      <trkpt lat="43.93121" lon="7.11358">
        <ele>234.42</ele>
        <time>2022-10-10T09:18:25Z</time>
      </trkpt>
      <trkpt lat="43.93117" lon="7.11301">
        <ele>235.89</ele>
        <time>2022-10-10T09:18:27Z</time>
      </trkpt>
      <trkpt lat="43.93088" lon="7.11165">
        <ele>233.33</ele>
        <time>2022-10-10T09:18:33Z</time>
      </trkpt>
      <trkpt lat="43.93079" lon="7.11141">
        <ele>232.45</ele>
        <time>2022-10-10T09:18:35Z</time>
      </trkpt>
      <trkpt lat="43.93072" lon="7.11124">
        <ele>231.1</ele>
        <time>2022-10-10T09:18:37Z</time>
      </trkpt>
      <trkpt lat="43.93064" lon="7.11103">
        <ele>231.12</ele>
        <time>2022-10-10T09:18:39Z</time>
      </trkpt>
      <trkpt lat="43.93047" lon="7.11054">
        <ele>233.6</ele>
        <time>2022-10-10T09:18:42Z</time>
      </trkpt>
      <trkpt lat="43.9303" lon="7.11011">
        <ele>235.53</ele>
        <time>2022-10-10T09:18:44Z</time>
      </trkpt>
      <trkpt lat="43.93012" lon="7.10963">
        <ele>237.2</ele>
        <time>2022-10-10T09:18:46Z</time>
      </trkpt>
      <trkpt lat="43.92962" lon="7.10805">
        <ele>239.82</ele>
        <time>2022-10-10T09:18:52Z</time>
      </trkpt>
      <trkpt lat="43.92924" lon="7.10534">
        <ele>239.5</ele>
        <time>2022-10-10T09:19:02Z</time>
      </trkpt>
      <trkpt lat="43.92915" lon="7.10377">
        <ele>239.5</ele>
        <time>2022-10-10T09:19:08Z</time>
      </trkpt>
      <trkpt lat="43.92909" lon="7.10353">
        <ele>240.84</ele>
        <time>2022-10-10T09:19:09Z</time>
      </trkpt>
      <trkpt lat="43.92902" lon="7.10329">
        <ele>240.84</ele>
        <time>2022-10-10T09:19:10Z</time>
      </trkpt>
      <trkpt lat="43.92894" lon="7.10305">
        <ele>240.84</ele>
        <time>2022-10-10T09:19:11Z</time>
      </trkpt>
      <trkpt lat="43.92884" lon="7.10283">
        <ele>240.84</ele>
        <time>2022-10-10T09:19:12Z</time>
      </trkpt>
      <trkpt lat="43.92873" lon="7.10261">
        <ele>240.83</ele>
        <time>2022-10-10T09:19:13Z</time>
      </trkpt>
      <trkpt lat="43.92861" lon="7.1024">
        <ele>240.84</ele>
        <time>2022-10-10T09:19:14Z</time>
      </trkpt>
      <trkpt lat="43.92848" lon="7.10219">
        <ele>240.86</ele>
        <time>2022-10-10T09:19:15Z</time>
      </trkpt>
      <trkpt lat="43.92799" lon="7.10127">
        <ele>243.01</ele>
        <time>2022-10-10T09:19:19Z</time>
      </trkpt>
      <trkpt lat="43.92791" lon="7.10102">
        <ele>242.95</ele>
        <time>2022-10-10T09:19:20Z</time>
      </trkpt>
      <trkpt lat="43.92785" lon="7.10076">
        <ele>242.94</ele>
        <time>2022-10-10T09:19:21Z</time>
      </trkpt>
      <trkpt lat="43.92781" lon="7.10049">
        <ele>243.02</ele>
        <time>2022-10-10T09:19:22Z</time>
      </trkpt>
      <trkpt lat="43.92779" lon="7.10022">
        <ele>244.18</ele>
        <time>2022-10-10T09:19:23Z</time>
      </trkpt>
      <trkpt lat="43.92779" lon="7.09995">
        <ele>244.06</ele>
        <time>2022-10-10T09:19:24Z</time>
      </trkpt>
      <trkpt lat="43.92781" lon="7.09968">
        <ele>245.45</ele>
        <time>2022-10-10T09:19:25Z</time>
      </trkpt>
      <trkpt lat="43.92786" lon="7.09942">
        <ele>245.45</ele>
        <time>2022-10-10T09:19:26Z</time>
      </trkpt>
      <trkpt lat="43.92793" lon="7.09917">
        <ele>246.57</ele>
        <time>2022-10-10T09:19:27Z</time>
      </trkpt>
      <trkpt lat="43.928" lon="7.09891">
        <ele>246.59</ele>
        <time>2022-10-10T09:19:28Z</time>
      </trkpt>
      <trkpt lat="43.92815" lon="7.09839">
        <ele>248.12</ele>
        <time>2022-10-10T09:19:30Z</time>
      </trkpt>
      <trkpt lat="43.92851" lon="7.09704">
        <ele>250.77</ele>
        <time>2022-10-10T09:19:35Z</time>
      </trkpt>
      <trkpt lat="43.92855" lon="7.09676">
        <ele>251.58</ele>
        <time>2022-10-10T09:19:36Z</time>
      </trkpt>
      <trkpt lat="43.92891" lon="7.09451">
        <ele>251.66</ele>
        <time>2022-10-10T09:19:44Z</time>
      </trkpt>
      <trkpt lat="43.93012" lon="7.09176">
        <ele>254.49</ele>
        <time>2022-10-10T09:19:55Z</time>
      </trkpt>
      <trkpt lat="43.93111" lon="7.09036">
        <ele>255.29</ele>
        <time>2022-10-10T09:20:02Z</time>
      </trkpt>
      <trkpt lat="43.93156" lon="7.08987">
        <ele>256.23</ele>
        <time>2022-10-10T09:20:05Z</time>
      </trkpt>
      <trkpt lat="43.93173" lon="7.08974">
        <ele>256.22</ele>
        <time>2022-10-10T09:20:06Z</time>
      </trkpt>
      <trkpt lat="43.9319" lon="7.08963">
        <ele>256.21</ele>
        <time>2022-10-10T09:20:07Z</time>
      </trkpt>
      <trkpt lat="43.93277" lon="7.08918">
        <ele>257.54</ele>
        <time>2022-10-10T09:20:12Z</time>
      </trkpt>
      <trkpt lat="43.93495" lon="7.088">
        <ele>259.35</ele>
        <time>2022-10-10T09:20:26Z</time>
      </trkpt>
      <trkpt lat="43.93647" lon="7.08712">
        <ele>260.4</ele>
        <time>2022-10-10T09:20:38Z</time>
      </trkpt>
      <trkpt lat="43.93704" lon="7.08634">
        <ele>261.32</ele>
        <time>2022-10-10T09:20:44Z</time>
      </trkpt>
      <trkpt lat="43.9371" lon="7.08617">
        <ele>262.31</ele>
        <time>2022-10-10T09:20:45Z</time>
      </trkpt>
      <trkpt lat="43.93716" lon="7.08598">
        <ele>262.31</ele>
        <time>2022-10-10T09:20:46Z</time>
      </trkpt>
      <trkpt lat="43.93721" lon="7.08579">
        <ele>262.3</ele>
        <time>2022-10-10T09:20:47Z</time>
      </trkpt>
      <trkpt lat="43.93724" lon="7.08559">
        <ele>262.34</ele>
        <time>2022-10-10T09:20:48Z</time>
      </trkpt>
      <trkpt lat="43.93728" lon="7.08538">
        <ele>263.17</ele>
        <time>2022-10-10T09:20:49Z</time>
      </trkpt>
      <trkpt lat="43.93743" lon="7.08428">
        <ele>264.96</ele>
        <time>2022-10-10T09:20:54Z</time>
      </trkpt>
      <trkpt lat="43.93752" lon="7.08383">
        <ele>264.97</ele>
        <time>2022-10-10T09:20:56Z</time>
      </trkpt>
      <trkpt lat="43.93759" lon="7.08362">
        <ele>265.87</ele>
        <time>2022-10-10T09:20:57Z</time>
      </trkpt>
      <trkpt lat="43.9378" lon="7.08297">
        <ele>265.92</ele>
        <time>2022-10-10T09:21:00Z</time>
      </trkpt>
      <trkpt lat="43.93784" lon="7.08273">
        <ele>265.93</ele>
        <time>2022-10-10T09:21:01Z</time>
      </trkpt>
      <trkpt lat="43.93786" lon="7.08249">
        <ele>266.75</ele>
        <time>2022-10-10T09:21:02Z</time>
      </trkpt>
      <trkpt lat="43.93787" lon="7.08225">
        <ele>266.76</ele>
        <time>2022-10-10T09:21:03Z</time>
      </trkpt>
      <trkpt lat="43.93785" lon="7.08201">
        <ele>266.76</ele>
        <time>2022-10-10T09:21:04Z</time>
      </trkpt>
      <trkpt lat="43.9378" lon="7.08178">
        <ele>267.86</ele>
        <time>2022-10-10T09:21:05Z</time>
      </trkpt>
      <trkpt lat="43.93773" lon="7.08155">
        <ele>267.89</ele>
        <time>2022-10-10T09:21:06Z</time>
      </trkpt>
      <trkpt lat="43.93766" lon="7.08134">
        <ele>269.38</ele>
        <time>2022-10-10T09:21:07Z</time>
      </trkpt>
      <trkpt lat="43.93757" lon="7.08112">
        <ele>269.39</ele>
        <time>2022-10-10T09:21:08Z</time>
      </trkpt>
      <trkpt lat="43.9374" lon="7.08071">
        <ele>270.62</ele>
        <time>2022-10-10T09:21:10Z</time>
      </trkpt>
      <trkpt lat="43.93713" lon="7.0801">
        <ele>272</ele>
        <time>2022-10-10T09:21:13Z</time>
      </trkpt>
      <trkpt lat="43.93685" lon="7.07953">
        <ele>273.28</ele>
        <time>2022-10-10T09:21:16Z</time>
      </trkpt>
      <trkpt lat="43.93611" lon="7.07756">
        <ele>275.15</ele>
        <time>2022-10-10T09:21:26Z</time>
      </trkpt>
      <trkpt lat="43.93608" lon="7.07734">
        <ele>275.18</ele>
        <time>2022-10-10T09:21:27Z</time>
      </trkpt>
      <trkpt lat="43.93606" lon="7.07711">
        <ele>275.21</ele>
        <time>2022-10-10T09:21:28Z</time>
      </trkpt>
      <trkpt lat="43.93598" lon="7.07505">
        <ele>278.37</ele>
        <time>2022-10-10T09:21:37Z</time>
      </trkpt>
      <trkpt lat="43.936" lon="7.07482">
        <ele>278.42</ele>
        <time>2022-10-10T09:21:38Z</time>
      </trkpt>
      <trkpt lat="43.93605" lon="7.07434">
        <ele>280.07</ele>
        <time>2022-10-10T09:21:40Z</time>
      </trkpt>
      <trkpt lat="43.93617" lon="7.07332">
        <ele>283.01</ele>
        <time>2022-10-10T09:21:44Z</time>
      </trkpt>
      <trkpt lat="43.93623" lon="7.07222">
        <ele>284.77</ele>
        <time>2022-10-10T09:21:49Z</time>
      </trkpt>
      <trkpt lat="43.93621" lon="7.07205">
        <ele>284.77</ele>
        <time>2022-10-10T09:21:50Z</time>
      </trkpt>
      <trkpt lat="43.93618" lon="7.0719">
        <ele>284.81</ele>
        <time>2022-10-10T09:21:51Z</time>
      </trkpt>
      <trkpt lat="43.93614" lon="7.07176">
        <ele>284.81</ele>
        <time>2022-10-10T09:21:52Z</time>
      </trkpt>
      <trkpt lat="43.9361" lon="7.07165">
        <ele>284.81</ele>
        <time>2022-10-10T09:21:53Z</time>
      </trkpt>
      <trkpt lat="43.93598" lon="7.07136">
        <ele>284.86</ele>
        <time>2022-10-10T09:21:59Z</time>
      </trkpt>
      <trkpt lat="43.93595" lon="7.07139">
        <ele>284.81</ele>
        <time>2022-10-10T09:22:31Z</time>
      </trkpt>
      <trkpt lat="43.93596" lon="7.0714">
        <ele>285.13</ele>
        <time>2022-10-10T09:23:16Z</time>
      </trkpt>
      <trkpt lat="43.93596" lon="7.07139">
        <ele>285.48</ele>
        <time>2022-10-10T09:24:11Z</time>
      </trkpt>
      <trkpt lat="43.93595" lon="7.07137">
        <ele>285.6</ele>
        <time>2022-10-10T09:24:29Z</time>
      </trkpt>
      <trkpt lat="43.93594" lon="7.07133">
        <ele>285.59</ele>
        <time>2022-10-10T09:24:30Z</time>
      </trkpt>
      <trkpt lat="43.93592" lon="7.07126">
        <ele>285.62</ele>
        <time>2022-10-10T09:24:31Z</time>
      </trkpt>
      <trkpt lat="43.93591" lon="7.07115">
        <ele>285.62</ele>
        <time>2022-10-10T09:24:32Z</time>
      </trkpt>
      <trkpt lat="43.93591" lon="7.07102">
        <ele>287.02</ele>
        <time>2022-10-10T09:24:33Z</time>
      </trkpt>
      <trkpt lat="43.93592" lon="7.07087">
        <ele>287.03</ele>
        <time>2022-10-10T09:24:34Z</time>
      </trkpt>
      <trkpt lat="43.93594" lon="7.07069">
        <ele>287.95</ele>
        <time>2022-10-10T09:24:35Z</time>
      </trkpt>
      <trkpt lat="43.93601" lon="7.07013">
        <ele>290.02</ele>
        <time>2022-10-10T09:24:38Z</time>
      </trkpt>
      <trkpt lat="43.93603" lon="7.06975">
        <ele>291.35</ele>
        <time>2022-10-10T09:24:40Z</time>
      </trkpt>
      <trkpt lat="43.936" lon="7.06957">
        <ele>291.37</ele>
        <time>2022-10-10T09:24:41Z</time>
      </trkpt>
      <trkpt lat="43.93596" lon="7.06938">
        <ele>292.58</ele>
        <time>2022-10-10T09:24:42Z</time>
      </trkpt>
      <trkpt lat="43.93586" lon="7.06899">
        <ele>293.69</ele>
        <time>2022-10-10T09:24:44Z</time>
      </trkpt>
      <trkpt lat="43.93554" lon="7.06763">
        <ele>297.21</ele>
        <time>2022-10-10T09:24:51Z</time>
      </trkpt>
      <trkpt lat="43.93552" lon="7.06743">
        <ele>297.22</ele>
        <time>2022-10-10T09:24:52Z</time>
      </trkpt>
      <trkpt lat="43.93553" lon="7.06724">
        <ele>297.28</ele>
        <time>2022-10-10T09:24:53Z</time>
      </trkpt>
      <trkpt lat="43.93556" lon="7.06706">
        <ele>297.27</ele>
        <time>2022-10-10T09:24:54Z</time>
      </trkpt>
      <trkpt lat="43.93561" lon="7.06689">
        <ele>297.27</ele>
        <time>2022-10-10T09:24:55Z</time>
      </trkpt>
      <trkpt lat="43.93568" lon="7.06673">
        <ele>298.51</ele>
        <time>2022-10-10T09:24:56Z</time>
      </trkpt>
      <trkpt lat="43.93577" lon="7.06658">
        <ele>298.51</ele>
        <time>2022-10-10T09:24:57Z</time>
      </trkpt>
      <trkpt lat="43.93587" lon="7.06644">
        <ele>298.51</ele>
        <time>2022-10-10T09:24:58Z</time>
      </trkpt>
      <trkpt lat="43.93598" lon="7.0663">
        <ele>299.85</ele>
        <time>2022-10-10T09:24:59Z</time>
      </trkpt>
      <trkpt lat="43.9361" lon="7.06617">
        <ele>299.84</ele>
        <time>2022-10-10T09:25:00Z</time>
      </trkpt>
      <trkpt lat="43.93646" lon="7.06573">
        <ele>301.9</ele>
        <time>2022-10-10T09:25:03Z</time>
      </trkpt>
      <trkpt lat="43.93656" lon="7.06555">
        <ele>301.89</ele>
        <time>2022-10-10T09:25:04Z</time>
      </trkpt>
      <trkpt lat="43.937" lon="7.06453">
        <ele>302.67</ele>
        <time>2022-10-10T09:25:09Z</time>
      </trkpt>
      <trkpt lat="43.93705" lon="7.06431">
        <ele>302.63</ele>
        <time>2022-10-10T09:25:10Z</time>
      </trkpt>
      <trkpt lat="43.93709" lon="7.06408">
        <ele>302.66</ele>
        <time>2022-10-10T09:25:11Z</time>
      </trkpt>
      <trkpt lat="43.93721" lon="7.0634">
        <ele>304.74</ele>
        <time>2022-10-10T09:25:14Z</time>
      </trkpt>
      <trkpt lat="43.93727" lon="7.06319">
        <ele>304.77</ele>
        <time>2022-10-10T09:25:15Z</time>
      </trkpt>
      <trkpt lat="43.93737" lon="7.063">
        <ele>304.77</ele>
        <time>2022-10-10T09:25:16Z</time>
      </trkpt>
      <trkpt lat="43.93748" lon="7.06283">
        <ele>305.54</ele>
        <time>2022-10-10T09:25:17Z</time>
      </trkpt>
      <trkpt lat="43.93761" lon="7.06269">
        <ele>305.56</ele>
        <time>2022-10-10T09:25:18Z</time>
      </trkpt>
      <trkpt lat="43.93776" lon="7.06256">
        <ele>305.56</ele>
        <time>2022-10-10T09:25:19Z</time>
      </trkpt>
      <trkpt lat="43.93792" lon="7.06244">
        <ele>306.51</ele>
        <time>2022-10-10T09:25:20Z</time>
      </trkpt>
      <trkpt lat="43.93899" lon="7.0613">
        <ele>306.52</ele>
        <time>2022-10-10T09:25:27Z</time>
      </trkpt>
      <trkpt lat="43.93912" lon="7.06108">
        <ele>306.49</ele>
        <time>2022-10-10T09:25:28Z</time>
      </trkpt>
      <trkpt lat="43.93946" lon="7.06039">
        <ele>302.95</ele>
        <time>2022-10-10T09:25:31Z</time>
      </trkpt>
      <trkpt lat="43.93965" lon="7.05995">
        <ele>301.82</ele>
        <time>2022-10-10T09:25:33Z</time>
      </trkpt>
      <trkpt lat="43.93982" lon="7.05954">
        <ele>300.62</ele>
        <time>2022-10-10T09:25:35Z</time>
      </trkpt>
      <trkpt lat="43.93992" lon="7.05936">
        <ele>299.01</ele>
        <time>2022-10-10T09:25:36Z</time>
      </trkpt>
      <trkpt lat="43.94002" lon="7.05919">
        <ele>298.98</ele>
        <time>2022-10-10T09:25:37Z</time>
      </trkpt>
      <trkpt lat="43.94015" lon="7.05905">
        <ele>298.62</ele>
        <time>2022-10-10T09:25:38Z</time>
      </trkpt>
      <trkpt lat="43.94029" lon="7.05893">
        <ele>298.62</ele>
        <time>2022-10-10T09:25:39Z</time>
      </trkpt>
      <trkpt lat="43.94048" lon="7.05888">
        <ele>298.57</ele>
        <time>2022-10-10T09:25:40Z</time>
      </trkpt>
      <trkpt lat="43.94066" lon="7.05881">
        <ele>298.58</ele>
        <time>2022-10-10T09:25:41Z</time>
      </trkpt>
      <trkpt lat="43.94084" lon="7.05873">
        <ele>297.75</ele>
        <time>2022-10-10T09:25:42Z</time>
      </trkpt>
      <trkpt lat="43.941" lon="7.05859">
        <ele>297.73</ele>
        <time>2022-10-10T09:25:43Z</time>
      </trkpt>
      <trkpt lat="43.94114" lon="7.0584">
        <ele>297.72</ele>
        <time>2022-10-10T09:25:44Z</time>
      </trkpt>
      <trkpt lat="43.94125" lon="7.05817">
        <ele>297.72</ele>
        <time>2022-10-10T09:25:45Z</time>
      </trkpt>
      <trkpt lat="43.94135" lon="7.05792">
        <ele>297.72</ele>
        <time>2022-10-10T09:25:46Z</time>
      </trkpt>
      <trkpt lat="43.94145" lon="7.05765">
        <ele>297.72</ele>
        <time>2022-10-10T09:25:47Z</time>
      </trkpt>
      <trkpt lat="43.94193" lon="7.05634">
        <ele>295.87</ele>
        <time>2022-10-10T09:25:52Z</time>
      </trkpt>
      <trkpt lat="43.94225" lon="7.05531">
        <ele>294</ele>
        <time>2022-10-10T09:25:56Z</time>
      </trkpt>
      <trkpt lat="43.9423" lon="7.05503">
        <ele>292.85</ele>
        <time>2022-10-10T09:25:57Z</time>
      </trkpt>
      <trkpt lat="43.94252" lon="7.05395">
        <ele>291.48</ele>
        <time>2022-10-10T09:26:01Z</time>
      </trkpt>
      <trkpt lat="43.94288" lon="7.0526">
        <ele>290.52</ele>
        <time>2022-10-10T09:26:06Z</time>
      </trkpt>
      <trkpt lat="43.94313" lon="7.05183">
        <ele>289.7</ele>
        <time>2022-10-10T09:26:09Z</time>
      </trkpt>
      <trkpt lat="43.94317" lon="7.05156">
        <ele>289.71</ele>
        <time>2022-10-10T09:26:10Z</time>
      </trkpt>
      <trkpt lat="43.9432" lon="7.05129">
        <ele>289.7</ele>
        <time>2022-10-10T09:26:11Z</time>
      </trkpt>
      <trkpt lat="43.94322" lon="7.051">
        <ele>289.72</ele>
        <time>2022-10-10T09:26:12Z</time>
      </trkpt>
      <trkpt lat="43.94323" lon="7.05072">
        <ele>289.72</ele>
        <time>2022-10-10T09:26:13Z</time>
      </trkpt>
      <trkpt lat="43.94322" lon="7.05014">
        <ele>292.05</ele>
        <time>2022-10-10T09:26:15Z</time>
      </trkpt>
      <trkpt lat="43.94317" lon="7.04868">
        <ele>294.38</ele>
        <time>2022-10-10T09:26:20Z</time>
      </trkpt>
      <trkpt lat="43.94299" lon="7.04628">
        <ele>295.29</ele>
        <time>2022-10-10T09:26:29Z</time>
      </trkpt>
      <trkpt lat="43.94301" lon="7.04604">
        <ele>295.29</ele>
        <time>2022-10-10T09:26:30Z</time>
      </trkpt>
      <trkpt lat="43.94305" lon="7.0458">
        <ele>295.32</ele>
        <time>2022-10-10T09:26:31Z</time>
      </trkpt>
      <trkpt lat="43.94327" lon="7.04473">
        <ele>296.61</ele>
        <time>2022-10-10T09:26:35Z</time>
      </trkpt>
      <trkpt lat="43.94394" lon="7.04164">
        <ele>297.48</ele>
        <time>2022-10-10T09:26:47Z</time>
      </trkpt>
      <trkpt lat="43.94429" lon="7.03986">
        <ele>299.41</ele>
        <time>2022-10-10T09:26:54Z</time>
      </trkpt>
      <trkpt lat="43.9443" lon="7.03959">
        <ele>299.41</ele>
        <time>2022-10-10T09:26:55Z</time>
      </trkpt>
      <trkpt lat="43.94428" lon="7.03934">
        <ele>299.42</ele>
        <time>2022-10-10T09:26:56Z</time>
      </trkpt>
      <trkpt lat="43.94425" lon="7.03908">
        <ele>299.42</ele>
        <time>2022-10-10T09:26:57Z</time>
      </trkpt>
      <trkpt lat="43.94421" lon="7.03883">
        <ele>299.42</ele>
        <time>2022-10-10T09:26:58Z</time>
      </trkpt>
      <trkpt lat="43.94415" lon="7.03675">
        <ele>300.67</ele>
        <time>2022-10-10T09:27:06Z</time>
      </trkpt>
      <trkpt lat="43.94444" lon="7.03285">
        <ele>298.27</ele>
        <time>2022-10-10T09:27:20Z</time>
      </trkpt>
      <trkpt lat="43.94467" lon="7.03081">
        <ele>300.91</ele>
        <time>2022-10-10T09:27:27Z</time>
      </trkpt>
      <trkpt lat="43.94501" lon="7.02693">
        <ele>303.95</ele>
        <time>2022-10-10T09:27:40Z</time>
      </trkpt>
      <trkpt lat="43.94522" lon="7.02495">
        <ele>306.48</ele>
        <time>2022-10-10T09:27:47Z</time>
      </trkpt>
      <trkpt lat="43.94538" lon="7.02357">
        <ele>307.74</ele>
        <time>2022-10-10T09:27:52Z</time>
      </trkpt>
      <trkpt lat="43.94554" lon="7.02278">
        <ele>309.09</ele>
        <time>2022-10-10T09:27:55Z</time>
      </trkpt>
      <trkpt lat="43.94587" lon="7.0215">
        <ele>312.25</ele>
        <time>2022-10-10T09:28:00Z</time>
      </trkpt>
      <trkpt lat="43.94634" lon="7.01974">
        <ele>314.99</ele>
        <time>2022-10-10T09:28:07Z</time>
      </trkpt>
      <trkpt lat="43.94658" lon="7.01872">
        <ele>316.89</ele>
        <time>2022-10-10T09:28:11Z</time>
      </trkpt>
      <trkpt lat="43.94693" lon="7.01662">
        <ele>320.99</ele>
        <time>2022-10-10T09:28:19Z</time>
      </trkpt>
      <trkpt lat="43.94715" lon="7.01589">
        <ele>321.06</ele>
        <time>2022-10-10T09:28:22Z</time>
      </trkpt>
      <trkpt lat="43.94719" lon="7.01565">
        <ele>321.04</ele>
        <time>2022-10-10T09:28:23Z</time>
      </trkpt>
      <trkpt lat="43.9472" lon="7.01541">
        <ele>321.08</ele>
        <time>2022-10-10T09:28:24Z</time>
      </trkpt>
      <trkpt lat="43.94722" lon="7.01494">
        <ele>322.3</ele>
        <time>2022-10-10T09:28:26Z</time>
      </trkpt>
      <trkpt lat="43.94724" lon="7.01411">
        <ele>322.97</ele>
        <time>2022-10-10T09:28:30Z</time>
      </trkpt>
      <trkpt lat="43.94723" lon="7.01391">
        <ele>323</ele>
        <time>2022-10-10T09:28:31Z</time>
      </trkpt>
      <trkpt lat="43.94722" lon="7.01373">
        <ele>323</ele>
        <time>2022-10-10T09:28:32Z</time>
      </trkpt>
      <trkpt lat="43.94723" lon="7.01354">
        <ele>323.81</ele>
        <time>2022-10-10T09:28:33Z</time>
      </trkpt>
      <trkpt lat="43.94726" lon="7.01336">
        <ele>323.81</ele>
        <time>2022-10-10T09:28:34Z</time>
      </trkpt>
      <trkpt lat="43.9473" lon="7.01318">
        <ele>324.08</ele>
        <time>2022-10-10T09:28:35Z</time>
      </trkpt>
      <trkpt lat="43.94736" lon="7.01301">
        <ele>324.94</ele>
        <time>2022-10-10T09:28:36Z</time>
      </trkpt>
      <trkpt lat="43.94743" lon="7.01284">
        <ele>324.94</ele>
        <time>2022-10-10T09:28:37Z</time>
      </trkpt>
      <trkpt lat="43.94767" lon="7.01214">
        <ele>326.9</ele>
        <time>2022-10-10T09:28:41Z</time>
      </trkpt>
      <trkpt lat="43.94771" lon="7.01196">
        <ele>326.94</ele>
        <time>2022-10-10T09:28:42Z</time>
      </trkpt>
      <trkpt lat="43.94773" lon="7.01177">
        <ele>328.17</ele>
        <time>2022-10-10T09:28:43Z</time>
      </trkpt>
      <trkpt lat="43.94774" lon="7.01158">
        <ele>328.2</ele>
        <time>2022-10-10T09:28:44Z</time>
      </trkpt>
      <trkpt lat="43.94775" lon="7.01036">
        <ele>329.14</ele>
        <time>2022-10-10T09:28:51Z</time>
      </trkpt>
      <trkpt lat="43.94778" lon="7.0102">
        <ele>329.14</ele>
        <time>2022-10-10T09:28:52Z</time>
      </trkpt>
      <trkpt lat="43.94782" lon="7.01005">
        <ele>329.16</ele>
        <time>2022-10-10T09:28:53Z</time>
      </trkpt>
      <trkpt lat="43.94807" lon="7.00907">
        <ele>330.85</ele>
        <time>2022-10-10T09:29:00Z</time>
      </trkpt>
      <trkpt lat="43.94807" lon="7.00894">
        <ele>330.7</ele>
        <time>2022-10-10T09:29:01Z</time>
      </trkpt>
      <trkpt lat="43.94807" lon="7.00881">
        <ele>330.7</ele>
        <time>2022-10-10T09:29:02Z</time>
      </trkpt>
      <trkpt lat="43.94786" lon="7.00774">
        <ele>332.71</ele>
        <time>2022-10-10T09:29:11Z</time>
      </trkpt>
      <trkpt lat="43.94785" lon="7.00752">
        <ele>332.73</ele>
        <time>2022-10-10T09:29:13Z</time>
      </trkpt>
      <trkpt lat="43.94786" lon="7.00708">
        <ele>334.11</ele>
        <time>2022-10-10T09:29:17Z</time>
      </trkpt>
      <trkpt lat="43.94771" lon="7.00562">
        <ele>334.83</ele>
        <time>2022-10-10T09:29:29Z</time>
      </trkpt>
      <trkpt lat="43.94752" lon="7.00398">
        <ele>335.93</ele>
        <time>2022-10-10T09:29:38Z</time>
      </trkpt>
      <trkpt lat="43.94747" lon="7.00379">
        <ele>335.91</ele>
        <time>2022-10-10T09:29:39Z</time>
      </trkpt>
      <trkpt lat="43.94741" lon="7.00361">
        <ele>335.93</ele>
        <time>2022-10-10T09:29:40Z</time>
      </trkpt>
      <trkpt lat="43.94707" lon="7.00195">
        <ele>336.8</ele>
        <time>2022-10-10T09:29:48Z</time>
      </trkpt>
      <trkpt lat="43.94668" lon="7.00042">
        <ele>336.74</ele>
        <time>2022-10-10T09:29:55Z</time>
      </trkpt>
      <trkpt lat="43.94664" lon="7.0002">
        <ele>336.74</ele>
        <time>2022-10-10T09:29:56Z</time>
      </trkpt>
      <trkpt lat="43.94653" lon="6.99931">
        <ele>336.75</ele>
        <time>2022-10-10T09:30:00Z</time>
      </trkpt>
      <trkpt lat="43.94653" lon="6.99908">
        <ele>337.69</ele>
        <time>2022-10-10T09:30:01Z</time>
      </trkpt>
      <trkpt lat="43.94656" lon="6.99886">
        <ele>337.69</ele>
        <time>2022-10-10T09:30:02Z</time>
      </trkpt>
      <trkpt lat="43.94681" lon="6.9974">
        <ele>337.67</ele>
        <time>2022-10-10T09:30:08Z</time>
      </trkpt>
      <trkpt lat="43.94682" lon="6.99714">
        <ele>338.94</ele>
        <time>2022-10-10T09:30:09Z</time>
      </trkpt>
      <trkpt lat="43.94687" lon="6.99612">
        <ele>338.85</ele>
        <time>2022-10-10T09:30:13Z</time>
      </trkpt>
      <trkpt lat="43.94692" lon="6.99589">
        <ele>338.9</ele>
        <time>2022-10-10T09:30:14Z</time>
      </trkpt>
      <trkpt lat="43.94731" lon="6.99437">
        <ele>336.58</ele>
        <time>2022-10-10T09:30:21Z</time>
      </trkpt>
      <trkpt lat="43.94742" lon="6.99402">
        <ele>335.27</ele>
        <time>2022-10-10T09:30:23Z</time>
      </trkpt>
      <trkpt lat="43.94825" lon="6.99143">
        <ele>334.48</ele>
        <time>2022-10-10T09:30:39Z</time>
      </trkpt>
      <trkpt lat="43.94832" lon="6.99128">
        <ele>334.48</ele>
        <time>2022-10-10T09:30:40Z</time>
      </trkpt>
      <trkpt lat="43.94839" lon="6.99113">
        <ele>334.48</ele>
        <time>2022-10-10T09:30:41Z</time>
      </trkpt>
      <trkpt lat="43.94943" lon="6.98921">
        <ele>334.48</ele>
        <time>2022-10-10T09:30:54Z</time>
      </trkpt>
      <trkpt lat="43.95017" lon="6.98703">
        <ele>337.3</ele>
        <time>2022-10-10T09:31:04Z</time>
      </trkpt>
      <trkpt lat="43.95023" lon="6.98677">
        <ele>338.18</ele>
        <time>2022-10-10T09:31:05Z</time>
      </trkpt>
      <trkpt lat="43.95026" lon="6.98648">
        <ele>338.21</ele>
        <time>2022-10-10T09:31:06Z</time>
      </trkpt>
      <trkpt lat="43.95028" lon="6.98619">
        <ele>339.3</ele>
        <time>2022-10-10T09:31:07Z</time>
      </trkpt>
      <trkpt lat="43.95026" lon="6.98251">
        <ele>340.15</ele>
        <time>2022-10-10T09:31:19Z</time>
      </trkpt>
      <trkpt lat="43.94974" lon="6.98063">
        <ele>340.14</ele>
        <time>2022-10-10T09:31:26Z</time>
      </trkpt>
      <trkpt lat="43.9489" lon="6.97757">
        <ele>342.25</ele>
        <time>2022-10-10T09:31:38Z</time>
      </trkpt>
      <trkpt lat="43.94877" lon="6.97647">
        <ele>343.86</ele>
        <time>2022-10-10T09:31:42Z</time>
      </trkpt>
      <trkpt lat="43.94845" lon="6.97271">
        <ele>345.62</ele>
        <time>2022-10-10T09:31:55Z</time>
      </trkpt>
      <trkpt lat="43.94821" lon="6.96591">
        <ele>349.94</ele>
        <time>2022-10-10T09:32:18Z</time>
      </trkpt>
      <trkpt lat="43.94843" lon="6.96318">
        <ele>351.82</ele>
        <time>2022-10-10T09:32:27Z</time>
      </trkpt>
      <trkpt lat="43.94908" lon="6.96092">
        <ele>353.86</ele>
        <time>2022-10-10T09:32:35Z</time>
      </trkpt>
      <trkpt lat="43.95036" lon="6.95793">
        <ele>355.93</ele>
        <time>2022-10-10T09:32:47Z</time>
      </trkpt>
      <trkpt lat="43.95127" lon="6.95573">
        <ele>358.5</ele>
        <time>2022-10-10T09:32:56Z</time>
      </trkpt>
      <trkpt lat="43.95143" lon="6.9552">
        <ele>359.82</ele>
        <time>2022-10-10T09:32:58Z</time>
      </trkpt>
      <trkpt lat="43.95162" lon="6.95378">
        <ele>362.63</ele>
        <time>2022-10-10T09:33:03Z</time>
      </trkpt>
      <trkpt lat="43.9517" lon="6.95231">
        <ele>365.97</ele>
        <time>2022-10-10T09:33:08Z</time>
      </trkpt>
      <trkpt lat="43.95168" lon="6.95202">
        <ele>365.93</ele>
        <time>2022-10-10T09:33:09Z</time>
      </trkpt>
      <trkpt lat="43.95159" lon="6.95083">
        <ele>369.28</ele>
        <time>2022-10-10T09:33:13Z</time>
      </trkpt>
      <trkpt lat="43.95159" lon="6.95053">
        <ele>369.3</ele>
        <time>2022-10-10T09:33:14Z</time>
      </trkpt>
      <trkpt lat="43.95164" lon="6.94935">
        <ele>371.8</ele>
        <time>2022-10-10T09:33:18Z</time>
      </trkpt>
      <trkpt lat="43.95202" lon="6.94512">
        <ele>369.47</ele>
        <time>2022-10-10T09:33:32Z</time>
      </trkpt>
      <trkpt lat="43.95203" lon="6.94482">
        <ele>369.42</ele>
        <time>2022-10-10T09:33:33Z</time>
      </trkpt>
      <trkpt lat="43.95212" lon="6.94337">
        <ele>367.13</ele>
        <time>2022-10-10T09:33:38Z</time>
      </trkpt>
      <trkpt lat="43.9529" lon="6.94008">
        <ele>367.37</ele>
        <time>2022-10-10T09:33:50Z</time>
      </trkpt>
      <trkpt lat="43.95332" lon="6.93847">
        <ele>370.2</ele>
        <time>2022-10-10T09:33:56Z</time>
      </trkpt>
      <trkpt lat="43.95359" lon="6.93741">
        <ele>372.3</ele>
        <time>2022-10-10T09:34:00Z</time>
      </trkpt>
      <trkpt lat="43.9537" lon="6.93688">
        <ele>373.61</ele>
        <time>2022-10-10T09:34:02Z</time>
      </trkpt>
      <trkpt lat="43.9538" lon="6.93633">
        <ele>375.17</ele>
        <time>2022-10-10T09:34:04Z</time>
      </trkpt>
      <trkpt lat="43.95392" lon="6.9355">
        <ele>377.06</ele>
        <time>2022-10-10T09:34:07Z</time>
      </trkpt>
      <trkpt lat="43.95394" lon="6.93522">
        <ele>378.08</ele>
        <time>2022-10-10T09:34:08Z</time>
      </trkpt>
      <trkpt lat="43.95393" lon="6.93493">
        <ele>378.08</ele>
        <time>2022-10-10T09:34:09Z</time>
      </trkpt>
      <trkpt lat="43.95391" lon="6.93465">
        <ele>378.96</ele>
        <time>2022-10-10T09:34:10Z</time>
      </trkpt>
      <trkpt lat="43.95384" lon="6.93198">
        <ele>379.95</ele>
        <time>2022-10-10T09:34:19Z</time>
      </trkpt>
      <trkpt lat="43.95421" lon="6.92792">
        <ele>379.8</ele>
        <time>2022-10-10T09:34:33Z</time>
      </trkpt>
      <trkpt lat="43.95445" lon="6.92619">
        <ele>379.79</ele>
        <time>2022-10-10T09:34:39Z</time>
      </trkpt>
      <trkpt lat="43.95444" lon="6.92589">
        <ele>379.82</ele>
        <time>2022-10-10T09:34:40Z</time>
      </trkpt>
      <trkpt lat="43.9544" lon="6.9256">
        <ele>379.82</ele>
        <time>2022-10-10T09:34:41Z</time>
      </trkpt>
      <trkpt lat="43.95433" lon="6.92532">
        <ele>379.83</ele>
        <time>2022-10-10T09:34:42Z</time>
      </trkpt>
      <trkpt lat="43.95424" lon="6.92505">
        <ele>379.86</ele>
        <time>2022-10-10T09:34:43Z</time>
      </trkpt>
      <trkpt lat="43.95414" lon="6.92479">
        <ele>379.85</ele>
        <time>2022-10-10T09:34:44Z</time>
      </trkpt>
      <trkpt lat="43.95403" lon="6.92453">
        <ele>379.87</ele>
        <time>2022-10-10T09:34:45Z</time>
      </trkpt>
      <trkpt lat="43.95305" lon="6.92158">
        <ele>381.91</ele>
        <time>2022-10-10T09:34:56Z</time>
      </trkpt>
      <trkpt lat="43.95291" lon="6.92074">
        <ele>381.9</ele>
        <time>2022-10-10T09:34:59Z</time>
      </trkpt>
      <trkpt lat="43.95291" lon="6.92045">
        <ele>381.91</ele>
        <time>2022-10-10T09:35:00Z</time>
      </trkpt>
      <trkpt lat="43.95292" lon="6.92018">
        <ele>381.91</ele>
        <time>2022-10-10T09:35:01Z</time>
      </trkpt>
      <trkpt lat="43.95296" lon="6.9199">
        <ele>381.92</ele>
        <time>2022-10-10T09:35:02Z</time>
      </trkpt>
      <trkpt lat="43.95302" lon="6.91964">
        <ele>381.92</ele>
        <time>2022-10-10T09:35:03Z</time>
      </trkpt>
      <trkpt lat="43.95309" lon="6.91938">
        <ele>381.92</ele>
        <time>2022-10-10T09:35:04Z</time>
      </trkpt>
      <trkpt lat="43.95319" lon="6.91914">
        <ele>381.93</ele>
        <time>2022-10-10T09:35:05Z</time>
      </trkpt>
      <trkpt lat="43.95329" lon="6.91891">
        <ele>382.7</ele>
        <time>2022-10-10T09:35:06Z</time>
      </trkpt>
      <trkpt lat="43.95409" lon="6.91725">
        <ele>386.37</ele>
        <time>2022-10-10T09:35:13Z</time>
      </trkpt>
      <trkpt lat="43.95421" lon="6.91701">
        <ele>386.35</ele>
        <time>2022-10-10T09:35:14Z</time>
      </trkpt>
      <trkpt lat="43.95491" lon="6.91553">
        <ele>387.73</ele>
        <time>2022-10-10T09:35:20Z</time>
      </trkpt>
      <trkpt lat="43.9551" lon="6.915">
        <ele>387.8</ele>
        <time>2022-10-10T09:35:22Z</time>
      </trkpt>
      <trkpt lat="43.95517" lon="6.91472">
        <ele>387.77</ele>
        <time>2022-10-10T09:35:23Z</time>
      </trkpt>
      <trkpt lat="43.95522" lon="6.91444">
        <ele>388.5</ele>
        <time>2022-10-10T09:35:24Z</time>
      </trkpt>
      <trkpt lat="43.95525" lon="6.91415">
        <ele>388.5</ele>
        <time>2022-10-10T09:35:25Z</time>
      </trkpt>
      <trkpt lat="43.95527" lon="6.91385">
        <ele>388.54</ele>
        <time>2022-10-10T09:35:26Z</time>
      </trkpt>
      <trkpt lat="43.95527" lon="6.91355">
        <ele>388.53</ele>
        <time>2022-10-10T09:35:27Z</time>
      </trkpt>
      <trkpt lat="43.95526" lon="6.91326">
        <ele>388.53</ele>
        <time>2022-10-10T09:35:28Z</time>
      </trkpt>
      <trkpt lat="43.95523" lon="6.91296">
        <ele>388.53</ele>
        <time>2022-10-10T09:35:29Z</time>
      </trkpt>
      <trkpt lat="43.95518" lon="6.91268">
        <ele>388.54</ele>
        <time>2022-10-10T09:35:30Z</time>
      </trkpt>
      <trkpt lat="43.95512" lon="6.91241">
        <ele>388.53</ele>
        <time>2022-10-10T09:35:31Z</time>
      </trkpt>
      <trkpt lat="43.95505" lon="6.91216">
        <ele>388.56</ele>
        <time>2022-10-10T09:35:32Z</time>
      </trkpt>
      <trkpt lat="43.95497" lon="6.91192">
        <ele>388.54</ele>
        <time>2022-10-10T09:35:33Z</time>
      </trkpt>
      <trkpt lat="43.95487" lon="6.91168">
        <ele>389.38</ele>
        <time>2022-10-10T09:35:34Z</time>
      </trkpt>
      <trkpt lat="43.95477" lon="6.91144">
        <ele>389.39</ele>
        <time>2022-10-10T09:35:35Z</time>
      </trkpt>
      <trkpt lat="43.95465" lon="6.91121">
        <ele>389.38</ele>
        <time>2022-10-10T09:35:36Z</time>
      </trkpt>
      <trkpt lat="43.9543" lon="6.91052">
        <ele>390.7</ele>
        <time>2022-10-10T09:35:39Z</time>
      </trkpt>
      <trkpt lat="43.95269" lon="6.90729">
        <ele>392.61</ele>
        <time>2022-10-10T09:35:53Z</time>
      </trkpt>
      <trkpt lat="43.95231" lon="6.90573">
        <ele>393.66</ele>
        <time>2022-10-10T09:35:59Z</time>
      </trkpt>
      <trkpt lat="43.9523" lon="6.9049">
        <ele>395.01</ele>
        <time>2022-10-10T09:36:02Z</time>
      </trkpt>
      <trkpt lat="43.95233" lon="6.90462">
        <ele>395.01</ele>
        <time>2022-10-10T09:36:03Z</time>
      </trkpt>
      <trkpt lat="43.95237" lon="6.90435">
        <ele>395.01</ele>
        <time>2022-10-10T09:36:04Z</time>
      </trkpt>
      <trkpt lat="43.95243" lon="6.90408">
        <ele>395.02</ele>
        <time>2022-10-10T09:36:05Z</time>
      </trkpt>
      <trkpt lat="43.95249" lon="6.90382">
        <ele>395.06</ele>
        <time>2022-10-10T09:36:06Z</time>
      </trkpt>
      <trkpt lat="43.95257" lon="6.90355">
        <ele>395.94</ele>
        <time>2022-10-10T09:36:07Z</time>
      </trkpt>
      <trkpt lat="43.95266" lon="6.9033">
        <ele>395.95</ele>
        <time>2022-10-10T09:36:08Z</time>
      </trkpt>
      <trkpt lat="43.95371" lon="6.90076">
        <ele>397.61</ele>
        <time>2022-10-10T09:36:19Z</time>
      </trkpt>
      <trkpt lat="43.95394" lon="6.90041">
        <ele>397.5</ele>
        <time>2022-10-10T09:36:21Z</time>
      </trkpt>
      <trkpt lat="43.95408" lon="6.90027">
        <ele>397.5</ele>
        <time>2022-10-10T09:36:22Z</time>
      </trkpt>
      <trkpt lat="43.95465" lon="6.8997">
        <ele>395.13</ele>
        <time>2022-10-10T09:36:27Z</time>
      </trkpt>
      <trkpt lat="43.95474" lon="6.89956">
        <ele>395.14</ele>
        <time>2022-10-10T09:36:28Z</time>
      </trkpt>
      <trkpt lat="43.95483" lon="6.89939">
        <ele>395.14</ele>
        <time>2022-10-10T09:36:29Z</time>
      </trkpt>
      <trkpt lat="43.9549" lon="6.89921">
        <ele>395.13</ele>
        <time>2022-10-10T09:36:30Z</time>
      </trkpt>
      <trkpt lat="43.95496" lon="6.89902">
        <ele>395.13</ele>
        <time>2022-10-10T09:36:31Z</time>
      </trkpt>
      <trkpt lat="43.95501" lon="6.89885">
        <ele>395.13</ele>
        <time>2022-10-10T09:36:32Z</time>
      </trkpt>
      <trkpt lat="43.95504" lon="6.89869">
        <ele>395.12</ele>
        <time>2022-10-10T09:36:33Z</time>
      </trkpt>
      <trkpt lat="43.95516" lon="6.89764">
        <ele>395.18</ele>
        <time>2022-10-10T09:36:41Z</time>
      </trkpt>
      <trkpt lat="43.95522" lon="6.89686">
        <ele>397.6</ele>
        <time>2022-10-10T09:36:46Z</time>
      </trkpt>
      <trkpt lat="43.95518" lon="6.89549">
        <ele>398.46</ele>
        <time>2022-10-10T09:36:55Z</time>
      </trkpt>
      <trkpt lat="43.95491" lon="6.89414">
        <ele>399.55</ele>
        <time>2022-10-10T09:37:06Z</time>
      </trkpt>
      <trkpt lat="43.95479" lon="6.89296">
        <ele>401.77</ele>
        <time>2022-10-10T09:37:14Z</time>
      </trkpt>
      <trkpt lat="43.95482" lon="6.89136">
        <ele>402.69</ele>
        <time>2022-10-10T09:37:22Z</time>
      </trkpt>
      <trkpt lat="43.95481" lon="6.8912">
        <ele>402.68</ele>
        <time>2022-10-10T09:37:23Z</time>
      </trkpt>
      <trkpt lat="43.95475" lon="6.89082">
        <ele>402.7</ele>
        <time>2022-10-10T09:37:26Z</time>
      </trkpt>
      <trkpt lat="43.95476" lon="6.8907">
        <ele>400.25</ele>
        <time>2022-10-10T09:37:28Z</time>
      </trkpt>
      <trkpt lat="43.95478" lon="6.89067">
        <ele>400.24</ele>
        <time>2022-10-10T09:37:29Z</time>
      </trkpt>
      <trkpt lat="43.9548" lon="6.89065">
        <ele>400.24</ele>
        <time>2022-10-10T09:37:30Z</time>
      </trkpt>
      <trkpt lat="43.95483" lon="6.89062">
        <ele>400.22</ele>
        <time>2022-10-10T09:37:31Z</time>
      </trkpt>
      <trkpt lat="43.95485" lon="6.89059">
        <ele>399.13</ele>
        <time>2022-10-10T09:37:32Z</time>
      </trkpt>
      <trkpt lat="43.95486" lon="6.89055">
        <ele>399.09</ele>
        <time>2022-10-10T09:37:33Z</time>
      </trkpt>
      <trkpt lat="43.95485" lon="6.8905">
        <ele>398.27</ele>
        <time>2022-10-10T09:37:34Z</time>
      </trkpt>
      <trkpt lat="43.95483" lon="6.89045">
        <ele>398.28</ele>
        <time>2022-10-10T09:37:35Z</time>
      </trkpt>
      <trkpt lat="43.95481" lon="6.89041">
        <ele>398.25</ele>
        <time>2022-10-10T09:37:36Z</time>
      </trkpt>
      <trkpt lat="43.9548" lon="6.89036">
        <ele>398.26</ele>
        <time>2022-10-10T09:37:37Z</time>
      </trkpt>
      <trkpt lat="43.9548" lon="6.89031">
        <ele>397.39</ele>
        <time>2022-10-10T09:37:38Z</time>
      </trkpt>
      <trkpt lat="43.95483" lon="6.89029">
        <ele>397.44</ele>
        <time>2022-10-10T09:37:45Z</time>
      </trkpt>
      <trkpt lat="43.95485" lon="6.89029">
        <ele>397.57</ele>
        <time>2022-10-10T09:38:10Z</time>
      </trkpt>
      <trkpt lat="43.95485" lon="6.8903">
        <ele>397.63</ele>
        <time>2022-10-10T09:38:21Z</time>
      </trkpt>
      <trkpt lat="43.95465" lon="6.89038">
        <ele>398.02</ele>
        <time>2022-10-10T09:40:59Z</time>
      </trkpt>
      <trkpt lat="43.95471" lon="6.89039">
        <ele>397.36</ele>
        <time>2022-10-10T09:41:28Z</time>
      </trkpt>
      <trkpt lat="43.95473" lon="6.89039">
        <ele>397.39</ele>
        <time>2022-10-10T09:41:37Z</time>
      </trkpt>
      <trkpt lat="43.95474" lon="6.89044">
        <ele>397.39</ele>
        <time>2022-10-10T09:41:39Z</time>
      </trkpt>
      <trkpt lat="43.95476" lon="6.89059">
        <ele>397.4</ele>
        <time>2022-10-10T09:41:42Z</time>
      </trkpt>
      <trkpt lat="43.95474" lon="6.89063">
        <ele>397.43</ele>
        <time>2022-10-10T09:41:43Z</time>
      </trkpt>
      <trkpt lat="43.95471" lon="6.89064">
        <ele>397.47</ele>
        <time>2022-10-10T09:41:44Z</time>
      </trkpt>
      <trkpt lat="43.95468" lon="6.89064">
        <ele>399.94</ele>
        <time>2022-10-10T09:41:45Z</time>
      </trkpt>
      <trkpt lat="43.95466" lon="6.89062">
        <ele>399.95</ele>
        <time>2022-10-10T09:41:46Z</time>
      </trkpt>
      <trkpt lat="43.95464" lon="6.89059">
        <ele>399.99</ele>
        <time>2022-10-10T09:41:47Z</time>
      </trkpt>
      <trkpt lat="43.95462" lon="6.89054">
        <ele>399.99</ele>
        <time>2022-10-10T09:41:48Z</time>
      </trkpt>
      <trkpt lat="43.9546" lon="6.89046">
        <ele>400.87</ele>
        <time>2022-10-10T09:41:49Z</time>
      </trkpt>
      <trkpt lat="43.95458" lon="6.89037">
        <ele>400.87</ele>
        <time>2022-10-10T09:41:50Z</time>
      </trkpt>
      <trkpt lat="43.95456" lon="6.89026">
        <ele>400.89</ele>
        <time>2022-10-10T09:41:51Z</time>
      </trkpt>
      <trkpt lat="43.95442" lon="6.88989">
        <ele>402.16</ele>
        <time>2022-10-10T09:41:54Z</time>
      </trkpt>
      <trkpt lat="43.95392" lon="6.8883">
        <ele>403.91</ele>
        <time>2022-10-10T09:42:04Z</time>
      </trkpt>
      <trkpt lat="43.95344" lon="6.8862">
        <ele>404.72</ele>
        <time>2022-10-10T09:42:15Z</time>
      </trkpt>
      <trkpt lat="43.95246" lon="6.8834">
        <ele>407.44</ele>
        <time>2022-10-10T09:42:29Z</time>
      </trkpt>
      <trkpt lat="43.95223" lon="6.88234">
        <ele>407.47</ele>
        <time>2022-10-10T09:42:34Z</time>
      </trkpt>
      <trkpt lat="43.95218" lon="6.8817">
        <ele>408.88</ele>
        <time>2022-10-10T09:42:37Z</time>
      </trkpt>
      <trkpt lat="43.95213" lon="6.88152">
        <ele>408.82</ele>
        <time>2022-10-10T09:42:38Z</time>
      </trkpt>
      <trkpt lat="43.95207" lon="6.88135">
        <ele>408.9</ele>
        <time>2022-10-10T09:42:39Z</time>
      </trkpt>
      <trkpt lat="43.952" lon="6.88117">
        <ele>408.88</ele>
        <time>2022-10-10T09:42:40Z</time>
      </trkpt>
      <trkpt lat="43.95197" lon="6.88099">
        <ele>408.89</ele>
        <time>2022-10-10T09:42:41Z</time>
      </trkpt>
      <trkpt lat="43.95195" lon="6.88078">
        <ele>408.94</ele>
        <time>2022-10-10T09:42:42Z</time>
      </trkpt>
      <trkpt lat="43.95195" lon="6.88057">
        <ele>408.79</ele>
        <time>2022-10-10T09:42:43Z</time>
      </trkpt>
      <trkpt lat="43.95196" lon="6.88035">
        <ele>408.79</ele>
        <time>2022-10-10T09:42:44Z</time>
      </trkpt>
      <trkpt lat="43.95214" lon="6.87922">
        <ele>411.82</ele>
        <time>2022-10-10T09:42:49Z</time>
      </trkpt>
      <trkpt lat="43.9522" lon="6.87901">
        <ele>411.84</ele>
        <time>2022-10-10T09:42:50Z</time>
      </trkpt>
      <trkpt lat="43.95261" lon="6.87776">
        <ele>413.01</ele>
        <time>2022-10-10T09:42:57Z</time>
      </trkpt>
      <trkpt lat="43.95262" lon="6.87762">
        <ele>413.04</ele>
        <time>2022-10-10T09:42:58Z</time>
      </trkpt>
      <trkpt lat="43.95258" lon="6.87749">
        <ele>413.04</ele>
        <time>2022-10-10T09:42:59Z</time>
      </trkpt>
      <trkpt lat="43.9525" lon="6.87739">
        <ele>413.07</ele>
        <time>2022-10-10T09:43:00Z</time>
      </trkpt>
      <trkpt lat="43.95238" lon="6.87731">
        <ele>414.36</ele>
        <time>2022-10-10T09:43:01Z</time>
      </trkpt>
      <trkpt lat="43.95226" lon="6.87724">
        <ele>414.38</ele>
        <time>2022-10-10T09:43:02Z</time>
      </trkpt>
      <trkpt lat="43.95192" lon="6.87703">
        <ele>414.42</ele>
        <time>2022-10-10T09:43:05Z</time>
      </trkpt>
      <trkpt lat="43.95185" lon="6.87692">
        <ele>414.39</ele>
        <time>2022-10-10T09:43:06Z</time>
      </trkpt>
      <trkpt lat="43.95183" lon="6.87679">
        <ele>414.2</ele>
        <time>2022-10-10T09:43:07Z</time>
      </trkpt>
      <trkpt lat="43.95183" lon="6.87664">
        <ele>414.2</ele>
        <time>2022-10-10T09:43:08Z</time>
      </trkpt>
      <trkpt lat="43.95184" lon="6.87646">
        <ele>414.2</ele>
        <time>2022-10-10T09:43:09Z</time>
      </trkpt>
      <trkpt lat="43.95192" lon="6.87546">
        <ele>417.21</ele>
        <time>2022-10-10T09:43:14Z</time>
      </trkpt>
      <trkpt lat="43.95194" lon="6.87525">
        <ele>417.19</ele>
        <time>2022-10-10T09:43:15Z</time>
      </trkpt>
      <trkpt lat="43.95202" lon="6.87483">
        <ele>417.2</ele>
        <time>2022-10-10T09:43:17Z</time>
      </trkpt>
      <trkpt lat="43.95209" lon="6.87462">
        <ele>417.18</ele>
        <time>2022-10-10T09:43:18Z</time>
      </trkpt>
      <trkpt lat="43.95218" lon="6.87443">
        <ele>417.16</ele>
        <time>2022-10-10T09:43:19Z</time>
      </trkpt>
      <trkpt lat="43.95278" lon="6.87319">
        <ele>417.17</ele>
        <time>2022-10-10T09:43:25Z</time>
      </trkpt>
      <trkpt lat="43.95285" lon="6.87295">
        <ele>417.13</ele>
        <time>2022-10-10T09:43:26Z</time>
      </trkpt>
      <trkpt lat="43.95288" lon="6.87271">
        <ele>417.17</ele>
        <time>2022-10-10T09:43:27Z</time>
      </trkpt>
      <trkpt lat="43.95288" lon="6.87247">
        <ele>417.15</ele>
        <time>2022-10-10T09:43:28Z</time>
      </trkpt>
      <trkpt lat="43.95286" lon="6.87224">
        <ele>417.12</ele>
        <time>2022-10-10T09:43:29Z</time>
      </trkpt>
      <trkpt lat="43.95284" lon="6.87202">
        <ele>417.11</ele>
        <time>2022-10-10T09:43:30Z</time>
      </trkpt>
      <trkpt lat="43.9528" lon="6.87142">
        <ele>417.12</ele>
        <time>2022-10-10T09:43:33Z</time>
      </trkpt>
      <trkpt lat="43.95281" lon="6.87122">
        <ele>417.13</ele>
        <time>2022-10-10T09:43:34Z</time>
      </trkpt>
      <trkpt lat="43.95284" lon="6.87103">
        <ele>417.13</ele>
        <time>2022-10-10T09:43:35Z</time>
      </trkpt>
      <trkpt lat="43.95288" lon="6.87084">
        <ele>417.12</ele>
        <time>2022-10-10T09:43:36Z</time>
      </trkpt>
      <trkpt lat="43.95294" lon="6.87065">
        <ele>417.13</ele>
        <time>2022-10-10T09:43:37Z</time>
      </trkpt>
      <trkpt lat="43.953" lon="6.87046">
        <ele>417.15</ele>
        <time>2022-10-10T09:43:38Z</time>
      </trkpt>
      <trkpt lat="43.95349" lon="6.8687">
        <ele>418.99</ele>
        <time>2022-10-10T09:43:46Z</time>
      </trkpt>
      <trkpt lat="43.95372" lon="6.86556">
        <ele>422.52</ele>
        <time>2022-10-10T09:43:58Z</time>
      </trkpt>
      <trkpt lat="43.95405" lon="6.86089">
        <ele>425.97</ele>
        <time>2022-10-10T09:44:16Z</time>
      </trkpt>
      <trkpt lat="43.95415" lon="6.85918">
        <ele>429.58</ele>
        <time>2022-10-10T09:44:22Z</time>
      </trkpt>
      <trkpt lat="43.95417" lon="6.85887">
        <ele>429.6</ele>
        <time>2022-10-10T09:44:23Z</time>
      </trkpt>
      <trkpt lat="43.95437" lon="6.85632">
        <ele>429.66</ele>
        <time>2022-10-10T09:44:32Z</time>
      </trkpt>
      <trkpt lat="43.95441" lon="6.85397">
        <ele>432.73</ele>
        <time>2022-10-10T09:44:41Z</time>
      </trkpt>
      <trkpt lat="43.95409" lon="6.85053">
        <ele>435.74</ele>
        <time>2022-10-10T09:44:54Z</time>
      </trkpt>
      <trkpt lat="43.9533" lon="6.84664">
        <ele>439.69</ele>
        <time>2022-10-10T09:45:09Z</time>
      </trkpt>
      <trkpt lat="43.95255" lon="6.84296">
        <ele>441.54</ele>
        <time>2022-10-10T09:45:24Z</time>
      </trkpt>
      <trkpt lat="43.95224" lon="6.84024">
        <ele>444.48</ele>
        <time>2022-10-10T09:45:36Z</time>
      </trkpt>
      <trkpt lat="43.95212" lon="6.83714">
        <ele>447.95</ele>
        <time>2022-10-10T09:45:49Z</time>
      </trkpt>
      <trkpt lat="43.95199" lon="6.8327">
        <ele>451.98</ele>
        <time>2022-10-10T09:46:07Z</time>
      </trkpt>
      <trkpt lat="43.95198" lon="6.83245">
        <ele>451.98</ele>
        <time>2022-10-10T09:46:08Z</time>
      </trkpt>
      <trkpt lat="43.95184" lon="6.82827">
        <ele>455.09</ele>
        <time>2022-10-10T09:46:25Z</time>
      </trkpt>
      <trkpt lat="43.95168" lon="6.82591">
        <ele>455.77</ele>
        <time>2022-10-10T09:46:35Z</time>
      </trkpt>
      <trkpt lat="43.95151" lon="6.82499">
        <ele>455.75</ele>
        <time>2022-10-10T09:46:40Z</time>
      </trkpt>
      <trkpt lat="43.95151" lon="6.82483">
        <ele>455.75</ele>
        <time>2022-10-10T09:46:41Z</time>
      </trkpt>
      <trkpt lat="43.95152" lon="6.82466">
        <ele>455.76</ele>
        <time>2022-10-10T09:46:42Z</time>
      </trkpt>
      <trkpt lat="43.95154" lon="6.82449">
        <ele>455.74</ele>
        <time>2022-10-10T09:46:43Z</time>
      </trkpt>
      <trkpt lat="43.95154" lon="6.8243">
        <ele>457.33</ele>
        <time>2022-10-10T09:46:44Z</time>
      </trkpt>
      <trkpt lat="43.95152" lon="6.82409">
        <ele>457.31</ele>
        <time>2022-10-10T09:46:45Z</time>
      </trkpt>
      <trkpt lat="43.95149" lon="6.82388">
        <ele>457.34</ele>
        <time>2022-10-10T09:46:46Z</time>
      </trkpt>
      <trkpt lat="43.95116" lon="6.82105">
        <ele>461.11</ele>
        <time>2022-10-10T09:46:59Z</time>
      </trkpt>
      <trkpt lat="43.95068" lon="6.8169">
        <ele>463.59</ele>
        <time>2022-10-10T09:47:18Z</time>
      </trkpt>
      <trkpt lat="43.95017" lon="6.81499">
        <ele>464.39</ele>
        <time>2022-10-10T09:47:28Z</time>
      </trkpt>
      <trkpt lat="43.94949" lon="6.81315">
        <ele>467.06</ele>
        <time>2022-10-10T09:47:38Z</time>
      </trkpt>
      <trkpt lat="43.94913" lon="6.81209">
        <ele>470.03</ele>
        <time>2022-10-10T09:47:44Z</time>
      </trkpt>
      <trkpt lat="43.9491" lon="6.81192">
        <ele>471.82</ele>
        <time>2022-10-10T09:47:45Z</time>
      </trkpt>
      <trkpt lat="43.94908" lon="6.81174">
        <ele>471.83</ele>
        <time>2022-10-10T09:47:46Z</time>
      </trkpt>
      <trkpt lat="43.94908" lon="6.81156">
        <ele>473.31</ele>
        <time>2022-10-10T09:47:47Z</time>
      </trkpt>
      <trkpt lat="43.94908" lon="6.81139">
        <ele>473.22</ele>
        <time>2022-10-10T09:47:48Z</time>
      </trkpt>
      <trkpt lat="43.94909" lon="6.81082">
        <ele>474.9</ele>
        <time>2022-10-10T09:47:52Z</time>
      </trkpt>
      <trkpt lat="43.94911" lon="6.81042">
        <ele>475.82</ele>
        <time>2022-10-10T09:47:55Z</time>
      </trkpt>
      <trkpt lat="43.94914" lon="6.81029">
        <ele>475.82</ele>
        <time>2022-10-10T09:47:56Z</time>
      </trkpt>
      <trkpt lat="43.94918" lon="6.81017">
        <ele>475.85</ele>
        <time>2022-10-10T09:47:57Z</time>
      </trkpt>
      <trkpt lat="43.94971" lon="6.80919">
        <ele>476.7</ele>
        <time>2022-10-10T09:48:06Z</time>
      </trkpt>
      <trkpt lat="43.94981" lon="6.8091">
        <ele>476.71</ele>
        <time>2022-10-10T09:48:07Z</time>
      </trkpt>
      <trkpt lat="43.94992" lon="6.80904">
        <ele>476.68</ele>
        <time>2022-10-10T09:48:08Z</time>
      </trkpt>
      <trkpt lat="43.95004" lon="6.80902">
        <ele>474.36</ele>
        <time>2022-10-10T09:48:09Z</time>
      </trkpt>
      <trkpt lat="43.95015" lon="6.80903">
        <ele>473.32</ele>
        <time>2022-10-10T09:48:10Z</time>
      </trkpt>
      <trkpt lat="43.95027" lon="6.80906">
        <ele>473.28</ele>
        <time>2022-10-10T09:48:11Z</time>
      </trkpt>
      <trkpt lat="43.95039" lon="6.80912">
        <ele>472.29</ele>
        <time>2022-10-10T09:48:12Z</time>
      </trkpt>
      <trkpt lat="43.9505" lon="6.8092">
        <ele>472.21</ele>
        <time>2022-10-10T09:48:13Z</time>
      </trkpt>
      <trkpt lat="43.95062" lon="6.80927">
        <ele>470.67</ele>
        <time>2022-10-10T09:48:14Z</time>
      </trkpt>
      <trkpt lat="43.95073" lon="6.80934">
        <ele>470.67</ele>
        <time>2022-10-10T09:48:15Z</time>
      </trkpt>
      <trkpt lat="43.95085" lon="6.80939">
        <ele>470.64</ele>
        <time>2022-10-10T09:48:16Z</time>
      </trkpt>
      <trkpt lat="43.95098" lon="6.8094">
        <ele>470.64</ele>
        <time>2022-10-10T09:48:17Z</time>
      </trkpt>
      <trkpt lat="43.95108" lon="6.8094">
        <ele>470.61</ele>
        <time>2022-10-10T09:48:18Z</time>
      </trkpt>
      <trkpt lat="43.95117" lon="6.80935">
        <ele>470.61</ele>
        <time>2022-10-10T09:48:19Z</time>
      </trkpt>
      <trkpt lat="43.95124" lon="6.80923">
        <ele>470.61</ele>
        <time>2022-10-10T09:48:20Z</time>
      </trkpt>
      <trkpt lat="43.9513" lon="6.80908">
        <ele>470.62</ele>
        <time>2022-10-10T09:48:21Z</time>
      </trkpt>
      <trkpt lat="43.95137" lon="6.80892">
        <ele>470.6</ele>
        <time>2022-10-10T09:48:22Z</time>
      </trkpt>
      <trkpt lat="43.95152" lon="6.80854">
        <ele>474.33</ele>
        <time>2022-10-10T09:48:24Z</time>
      </trkpt>
      <trkpt lat="43.95161" lon="6.80834">
        <ele>474.33</ele>
        <time>2022-10-10T09:48:25Z</time>
      </trkpt>
      <trkpt lat="43.95237" lon="6.807">
        <ele>474.47</ele>
        <time>2022-10-10T09:48:32Z</time>
      </trkpt>
      <trkpt lat="43.95274" lon="6.80649">
        <ele>474.53</ele>
        <time>2022-10-10T09:48:35Z</time>
      </trkpt>
      <trkpt lat="43.95284" lon="6.80628">
        <ele>474.55</ele>
        <time>2022-10-10T09:48:36Z</time>
      </trkpt>
      <trkpt lat="43.95338" lon="6.80489">
        <ele>476.42</ele>
        <time>2022-10-10T09:48:42Z</time>
      </trkpt>
      <trkpt lat="43.95385" lon="6.80368">
        <ele>478.58</ele>
        <time>2022-10-10T09:48:47Z</time>
      </trkpt>
      <trkpt lat="43.95455" lon="6.80198">
        <ele>482.14</ele>
        <time>2022-10-10T09:48:54Z</time>
      </trkpt>
      <trkpt lat="43.95465" lon="6.80174">
        <ele>482.22</ele>
        <time>2022-10-10T09:48:55Z</time>
      </trkpt>
      <trkpt lat="43.95473" lon="6.80149">
        <ele>483.48</ele>
        <time>2022-10-10T09:48:56Z</time>
      </trkpt>
      <trkpt lat="43.95494" lon="6.8007">
        <ele>485.78</ele>
        <time>2022-10-10T09:48:59Z</time>
      </trkpt>
      <trkpt lat="43.95511" lon="6.80018">
        <ele>487</ele>
        <time>2022-10-10T09:49:01Z</time>
      </trkpt>
      <trkpt lat="43.95522" lon="6.79994">
        <ele>488.71</ele>
        <time>2022-10-10T09:49:02Z</time>
      </trkpt>
      <trkpt lat="43.95533" lon="6.79971">
        <ele>488.22</ele>
        <time>2022-10-10T09:49:03Z</time>
      </trkpt>
      <trkpt lat="43.95543" lon="6.79947">
        <ele>488.23</ele>
        <time>2022-10-10T09:49:04Z</time>
      </trkpt>
      <trkpt lat="43.95583" lon="6.7985">
        <ele>490.26</ele>
        <time>2022-10-10T09:49:08Z</time>
      </trkpt>
      <trkpt lat="43.95699" lon="6.79674">
        <ele>494.7</ele>
        <time>2022-10-10T09:49:17Z</time>
      </trkpt>
      <trkpt lat="43.95713" lon="6.79658">
        <ele>494.74</ele>
        <time>2022-10-10T09:49:18Z</time>
      </trkpt>
      <trkpt lat="43.95743" lon="6.7963">
        <ele>495.8</ele>
        <time>2022-10-10T09:49:20Z</time>
      </trkpt>
      <trkpt lat="43.95759" lon="6.79618">
        <ele>497.4</ele>
        <time>2022-10-10T09:49:21Z</time>
      </trkpt>
      <trkpt lat="43.95776" lon="6.79609">
        <ele>497.4</ele>
        <time>2022-10-10T09:49:22Z</time>
      </trkpt>
      <trkpt lat="43.9581" lon="6.79591">
        <ele>498.89</ele>
        <time>2022-10-10T09:49:24Z</time>
      </trkpt>
      <trkpt lat="43.95843" lon="6.79569">
        <ele>499.87</ele>
        <time>2022-10-10T09:49:26Z</time>
      </trkpt>
      <trkpt lat="43.95858" lon="6.79554">
        <ele>500.78</ele>
        <time>2022-10-10T09:49:27Z</time>
      </trkpt>
      <trkpt lat="43.95871" lon="6.79535">
        <ele>501.55</ele>
        <time>2022-10-10T09:49:28Z</time>
      </trkpt>
      <trkpt lat="43.95881" lon="6.79513">
        <ele>501.55</ele>
        <time>2022-10-10T09:49:29Z</time>
      </trkpt>
      <trkpt lat="43.95891" lon="6.7949">
        <ele>501.6</ele>
        <time>2022-10-10T09:49:30Z</time>
      </trkpt>
      <trkpt lat="43.95934" lon="6.79385">
        <ele>501.69</ele>
        <time>2022-10-10T09:49:35Z</time>
      </trkpt>
      <trkpt lat="43.95938" lon="6.79363">
        <ele>501.67</ele>
        <time>2022-10-10T09:49:36Z</time>
      </trkpt>
      <trkpt lat="43.95941" lon="6.79339">
        <ele>501.66</ele>
        <time>2022-10-10T09:49:37Z</time>
      </trkpt>
      <trkpt lat="43.95947" lon="6.7929">
        <ele>501.66</ele>
        <time>2022-10-10T09:49:39Z</time>
      </trkpt>
      <trkpt lat="43.95952" lon="6.79266">
        <ele>501.68</ele>
        <time>2022-10-10T09:49:40Z</time>
      </trkpt>
      <trkpt lat="43.95961" lon="6.79244">
        <ele>502.51</ele>
        <time>2022-10-10T09:49:41Z</time>
      </trkpt>
      <trkpt lat="43.96052" lon="6.79053">
        <ele>504.93</ele>
        <time>2022-10-10T09:49:49Z</time>
      </trkpt>
      <trkpt lat="43.96146" lon="6.78851">
        <ele>504.82</ele>
        <time>2022-10-10T09:49:58Z</time>
      </trkpt>
      <trkpt lat="43.96152" lon="6.78828">
        <ele>505.68</ele>
        <time>2022-10-10T09:49:59Z</time>
      </trkpt>
      <trkpt lat="43.96155" lon="6.78804">
        <ele>505.7</ele>
        <time>2022-10-10T09:50:00Z</time>
      </trkpt>
      <trkpt lat="43.96162" lon="6.78731">
        <ele>507.63</ele>
        <time>2022-10-10T09:50:03Z</time>
      </trkpt>
      <trkpt lat="43.96167" lon="6.78708">
        <ele>507.63</ele>
        <time>2022-10-10T09:50:04Z</time>
      </trkpt>
      <trkpt lat="43.96174" lon="6.78684">
        <ele>507.63</ele>
        <time>2022-10-10T09:50:05Z</time>
      </trkpt>
      <trkpt lat="43.96183" lon="6.7866">
        <ele>507.64</ele>
        <time>2022-10-10T09:50:06Z</time>
      </trkpt>
      <trkpt lat="43.96192" lon="6.78636">
        <ele>508.47</ele>
        <time>2022-10-10T09:50:07Z</time>
      </trkpt>
      <trkpt lat="43.96212" lon="6.78586">
        <ele>509.37</ele>
        <time>2022-10-10T09:50:09Z</time>
      </trkpt>
      <trkpt lat="43.96248" lon="6.78515">
        <ele>509.41</ele>
        <time>2022-10-10T09:50:12Z</time>
      </trkpt>
      <trkpt lat="43.96262" lon="6.78495">
        <ele>510.49</ele>
        <time>2022-10-10T09:50:13Z</time>
      </trkpt>
      <trkpt lat="43.96349" lon="6.78382">
        <ele>507.46</ele>
        <time>2022-10-10T09:50:20Z</time>
      </trkpt>
      <trkpt lat="43.96358" lon="6.78366">
        <ele>507.45</ele>
        <time>2022-10-10T09:50:21Z</time>
      </trkpt>
      <trkpt lat="43.96397" lon="6.78296">
        <ele>505.38</ele>
        <time>2022-10-10T09:50:26Z</time>
      </trkpt>
      <trkpt lat="43.96406" lon="6.78286">
        <ele>505.34</ele>
        <time>2022-10-10T09:50:27Z</time>
      </trkpt>
      <trkpt lat="43.96446" lon="6.78241">
        <ele>502.41</ele>
        <time>2022-10-10T09:50:33Z</time>
      </trkpt>
      <trkpt lat="43.96454" lon="6.7823">
        <ele>501.9</ele>
        <time>2022-10-10T09:50:40Z</time>
      </trkpt>
      <trkpt lat="43.96452" lon="6.78234">
        <ele>502.15</ele>
        <time>2022-10-10T09:51:32Z</time>
      </trkpt>
      <trkpt lat="43.96455" lon="6.78228">
        <ele>502.2</ele>
        <time>2022-10-10T09:51:40Z</time>
      </trkpt>
      <trkpt lat="43.9649" lon="6.78157">
        <ele>502.29</ele>
        <time>2022-10-10T09:51:47Z</time>
      </trkpt>
      <trkpt lat="43.96563" lon="6.7802">
        <ele>504.96</ele>
        <time>2022-10-10T09:51:58Z</time>
      </trkpt>
      <trkpt lat="43.96634" lon="6.77893">
        <ele>508.05</ele>
        <time>2022-10-10T09:52:05Z</time>
      </trkpt>
      <trkpt lat="43.96668" lon="6.77837">
        <ele>508.1</ele>
        <time>2022-10-10T09:52:08Z</time>
      </trkpt>
      <trkpt lat="43.96681" lon="6.7782">
        <ele>508.16</ele>
        <time>2022-10-10T09:52:09Z</time>
      </trkpt>
      <trkpt lat="43.96696" lon="6.77807">
        <ele>508.18</ele>
        <time>2022-10-10T09:52:10Z</time>
      </trkpt>
      <trkpt lat="43.96744" lon="6.77775">
        <ele>509.46</ele>
        <time>2022-10-10T09:52:13Z</time>
      </trkpt>
      <trkpt lat="43.96762" lon="6.77769">
        <ele>509.46</ele>
        <time>2022-10-10T09:52:14Z</time>
      </trkpt>
      <trkpt lat="43.96781" lon="6.77765">
        <ele>510.56</ele>
        <time>2022-10-10T09:52:15Z</time>
      </trkpt>
      <trkpt lat="43.96799" lon="6.7776">
        <ele>510.58</ele>
        <time>2022-10-10T09:52:16Z</time>
      </trkpt>
      <trkpt lat="43.96816" lon="6.77752">
        <ele>510.59</ele>
        <time>2022-10-10T09:52:17Z</time>
      </trkpt>
      <trkpt lat="43.96832" lon="6.77741">
        <ele>510.6</ele>
        <time>2022-10-10T09:52:18Z</time>
      </trkpt>
      <trkpt lat="43.96849" lon="6.77729">
        <ele>511.56</ele>
        <time>2022-10-10T09:52:19Z</time>
      </trkpt>
      <trkpt lat="43.96867" lon="6.77719">
        <ele>511.59</ele>
        <time>2022-10-10T09:52:20Z</time>
      </trkpt>
      <trkpt lat="43.96885" lon="6.77712">
        <ele>512.7</ele>
        <time>2022-10-10T09:52:21Z</time>
      </trkpt>
      <trkpt lat="43.96903" lon="6.77707">
        <ele>512.71</ele>
        <time>2022-10-10T09:52:22Z</time>
      </trkpt>
      <trkpt lat="43.96983" lon="6.77696">
        <ele>513.68</ele>
        <time>2022-10-10T09:52:27Z</time>
      </trkpt>
      <trkpt lat="43.96998" lon="6.77698">
        <ele>514.62</ele>
        <time>2022-10-10T09:52:28Z</time>
      </trkpt>
      <trkpt lat="43.97011" lon="6.77704">
        <ele>514.63</ele>
        <time>2022-10-10T09:52:29Z</time>
      </trkpt>
      <trkpt lat="43.97023" lon="6.77715">
        <ele>514.63</ele>
        <time>2022-10-10T09:52:30Z</time>
      </trkpt>
      <trkpt lat="43.97034" lon="6.77729">
        <ele>515.68</ele>
        <time>2022-10-10T09:52:31Z</time>
      </trkpt>
      <trkpt lat="43.97044" lon="6.77745">
        <ele>516.64</ele>
        <time>2022-10-10T09:52:32Z</time>
      </trkpt>
      <trkpt lat="43.97055" lon="6.7776">
        <ele>516.65</ele>
        <time>2022-10-10T09:52:33Z</time>
      </trkpt>
      <trkpt lat="43.97068" lon="6.77774">
        <ele>516.66</ele>
        <time>2022-10-10T09:52:34Z</time>
      </trkpt>
      <trkpt lat="43.97081" lon="6.77784">
        <ele>516.67</ele>
        <time>2022-10-10T09:52:35Z</time>
      </trkpt>
      <trkpt lat="43.97097" lon="6.77788">
        <ele>518.28</ele>
        <time>2022-10-10T09:52:36Z</time>
      </trkpt>
      <trkpt lat="43.97113" lon="6.77787">
        <ele>518.27</ele>
        <time>2022-10-10T09:52:37Z</time>
      </trkpt>
      <trkpt lat="43.97128" lon="6.77779">
        <ele>518.26</ele>
        <time>2022-10-10T09:52:38Z</time>
      </trkpt>
      <trkpt lat="43.97142" lon="6.77766">
        <ele>519.85</ele>
        <time>2022-10-10T09:52:39Z</time>
      </trkpt>
      <trkpt lat="43.97153" lon="6.77747">
        <ele>519.83</ele>
        <time>2022-10-10T09:52:40Z</time>
      </trkpt>
      <trkpt lat="43.97162" lon="6.77722">
        <ele>519.87</ele>
        <time>2022-10-10T09:52:41Z</time>
      </trkpt>
      <trkpt lat="43.97168" lon="6.77696">
        <ele>521.19</ele>
        <time>2022-10-10T09:52:42Z</time>
      </trkpt>
      <trkpt lat="43.97171" lon="6.77668">
        <ele>522.15</ele>
        <time>2022-10-10T09:52:43Z</time>
      </trkpt>
      <trkpt lat="43.97174" lon="6.77639">
        <ele>523.75</ele>
        <time>2022-10-10T09:52:44Z</time>
      </trkpt>
      <trkpt lat="43.97182" lon="6.77535">
        <ele>524.35</ele>
        <time>2022-10-10T09:52:48Z</time>
      </trkpt>
      <trkpt lat="43.97188" lon="6.77513">
        <ele>524.34</ele>
        <time>2022-10-10T09:52:49Z</time>
      </trkpt>
      <trkpt lat="43.97198" lon="6.77494">
        <ele>524.33</ele>
        <time>2022-10-10T09:52:50Z</time>
      </trkpt>
      <trkpt lat="43.9722" lon="6.77453">
        <ele>527.07</ele>
        <time>2022-10-10T09:52:52Z</time>
      </trkpt>
      <trkpt lat="43.97228" lon="6.77428">
        <ele>527.12</ele>
        <time>2022-10-10T09:52:53Z</time>
      </trkpt>
      <trkpt lat="43.97233" lon="6.77399">
        <ele>529.18</ele>
        <time>2022-10-10T09:52:54Z</time>
      </trkpt>
      <trkpt lat="43.97236" lon="6.77369">
        <ele>529.23</ele>
        <time>2022-10-10T09:52:55Z</time>
      </trkpt>
      <trkpt lat="43.97239" lon="6.77338">
        <ele>529.27</ele>
        <time>2022-10-10T09:52:56Z</time>
      </trkpt>
      <trkpt lat="43.97239" lon="6.77242">
        <ele>531.75</ele>
        <time>2022-10-10T09:52:59Z</time>
      </trkpt>
      <trkpt lat="43.97234" lon="6.7721">
        <ele>531.78</ele>
        <time>2022-10-10T09:53:00Z</time>
      </trkpt>
      <trkpt lat="43.97213" lon="6.76955">
        <ele>533.43</ele>
        <time>2022-10-10T09:53:08Z</time>
      </trkpt>
      <trkpt lat="43.97216" lon="6.76895">
        <ele>533.39</ele>
        <time>2022-10-10T09:53:10Z</time>
      </trkpt>
      <trkpt lat="43.97221" lon="6.76866">
        <ele>533.1</ele>
        <time>2022-10-10T09:53:11Z</time>
      </trkpt>
      <trkpt lat="43.97229" lon="6.76839">
        <ele>533.1</ele>
        <time>2022-10-10T09:53:12Z</time>
      </trkpt>
      <trkpt lat="43.97272" lon="6.76674">
        <ele>533.11</ele>
        <time>2022-10-10T09:53:18Z</time>
      </trkpt>
      <trkpt lat="43.97274" lon="6.76646">
        <ele>533.11</ele>
        <time>2022-10-10T09:53:19Z</time>
      </trkpt>
      <trkpt lat="43.97273" lon="6.76617">
        <ele>533.1</ele>
        <time>2022-10-10T09:53:20Z</time>
      </trkpt>
      <trkpt lat="43.9727" lon="6.76588">
        <ele>533.08</ele>
        <time>2022-10-10T09:53:21Z</time>
      </trkpt>
      <trkpt lat="43.97265" lon="6.76559">
        <ele>533.08</ele>
        <time>2022-10-10T09:53:22Z</time>
      </trkpt>
      <trkpt lat="43.97191" lon="6.76252">
        <ele>534.22</ele>
        <time>2022-10-10T09:53:33Z</time>
      </trkpt>
      <trkpt lat="43.97173" lon="6.76203">
        <ele>534.21</ele>
        <time>2022-10-10T09:53:35Z</time>
      </trkpt>
      <trkpt lat="43.97167" lon="6.76178">
        <ele>534.21</ele>
        <time>2022-10-10T09:53:36Z</time>
      </trkpt>
      <trkpt lat="43.97149" lon="6.76064">
        <ele>534.16</ele>
        <time>2022-10-10T09:53:41Z</time>
      </trkpt>
      <trkpt lat="43.97143" lon="6.76046">
        <ele>534.15</ele>
        <time>2022-10-10T09:53:42Z</time>
      </trkpt>
      <trkpt lat="43.97134" lon="6.76029">
        <ele>534.13</ele>
        <time>2022-10-10T09:53:43Z</time>
      </trkpt>
      <trkpt lat="43.97107" lon="6.75987">
        <ele>531.81</ele>
        <time>2022-10-10T09:53:46Z</time>
      </trkpt>
      <trkpt lat="43.97096" lon="6.7598">
        <ele>531.79</ele>
        <time>2022-10-10T09:53:47Z</time>
      </trkpt>
      <trkpt lat="43.97083" lon="6.75978">
        <ele>531.8</ele>
        <time>2022-10-10T09:53:48Z</time>
      </trkpt>
      <trkpt lat="43.97069" lon="6.75979">
        <ele>531.78</ele>
        <time>2022-10-10T09:53:49Z</time>
      </trkpt>
      <trkpt lat="43.97057" lon="6.75979">
        <ele>531.79</ele>
        <time>2022-10-10T09:53:50Z</time>
      </trkpt>
      <trkpt lat="43.97046" lon="6.75976">
        <ele>531.76</ele>
        <time>2022-10-10T09:53:51Z</time>
      </trkpt>
      <trkpt lat="43.97035" lon="6.75968">
        <ele>531.76</ele>
        <time>2022-10-10T09:53:52Z</time>
      </trkpt>
      <trkpt lat="43.97024" lon="6.75957">
        <ele>531.79</ele>
        <time>2022-10-10T09:53:53Z</time>
      </trkpt>
      <trkpt lat="43.97013" lon="6.75944">
        <ele>531.82</ele>
        <time>2022-10-10T09:53:54Z</time>
      </trkpt>
      <trkpt lat="43.96987" lon="6.75916">
        <ele>534.1</ele>
        <time>2022-10-10T09:53:56Z</time>
      </trkpt>
      <trkpt lat="43.96831" lon="6.75724">
        <ele>534.04</ele>
        <time>2022-10-10T09:54:07Z</time>
      </trkpt>
      <trkpt lat="43.96818" lon="6.75704">
        <ele>534.03</ele>
        <time>2022-10-10T09:54:08Z</time>
      </trkpt>
      <trkpt lat="43.96806" lon="6.75682">
        <ele>534.04</ele>
        <time>2022-10-10T09:54:09Z</time>
      </trkpt>
      <trkpt lat="43.96735" lon="6.75509">
        <ele>535.13</ele>
        <time>2022-10-10T09:54:16Z</time>
      </trkpt>
      <trkpt lat="43.9673" lon="6.75483">
        <ele>535.13</ele>
        <time>2022-10-10T09:54:17Z</time>
      </trkpt>
      <trkpt lat="43.96728" lon="6.75455">
        <ele>536.28</ele>
        <time>2022-10-10T09:54:18Z</time>
      </trkpt>
      <trkpt lat="43.96724" lon="6.7534">
        <ele>538.87</ele>
        <time>2022-10-10T09:54:22Z</time>
      </trkpt>
      <trkpt lat="43.96721" lon="6.7525">
        <ele>541.89</ele>
        <time>2022-10-10T09:54:25Z</time>
      </trkpt>
      <trkpt lat="43.9672" lon="6.75219">
        <ele>541.89</ele>
        <time>2022-10-10T09:54:26Z</time>
      </trkpt>
      <trkpt lat="43.9671" lon="6.75071">
        <ele>543.91</ele>
        <time>2022-10-10T09:54:31Z</time>
      </trkpt>
      <trkpt lat="43.96704" lon="6.75042">
        <ele>544.78</ele>
        <time>2022-10-10T09:54:32Z</time>
      </trkpt>
      <trkpt lat="43.96661" lon="6.7487">
        <ele>546.14</ele>
        <time>2022-10-10T09:54:38Z</time>
      </trkpt>
      <trkpt lat="43.96637" lon="6.74751">
        <ele>546.99</ele>
        <time>2022-10-10T09:54:42Z</time>
      </trkpt>
      <trkpt lat="43.96628" lon="6.74722">
        <ele>547.99</ele>
        <time>2022-10-10T09:54:43Z</time>
      </trkpt>
      <trkpt lat="43.96616" lon="6.74695">
        <ele>547.92</ele>
        <time>2022-10-10T09:54:44Z</time>
      </trkpt>
      <trkpt lat="43.96467" lon="6.74411">
        <ele>549.5</ele>
        <time>2022-10-10T09:54:55Z</time>
      </trkpt>
      <trkpt lat="43.96416" lon="6.74308">
        <ele>550.81</ele>
        <time>2022-10-10T09:54:59Z</time>
      </trkpt>
      <trkpt lat="43.96371" lon="6.74207">
        <ele>552.32</ele>
        <time>2022-10-10T09:55:03Z</time>
      </trkpt>
      <trkpt lat="43.96338" lon="6.74131">
        <ele>553.64</ele>
        <time>2022-10-10T09:55:06Z</time>
      </trkpt>
      <trkpt lat="43.96277" lon="6.7398">
        <ele>556.14</ele>
        <time>2022-10-10T09:55:12Z</time>
      </trkpt>
      <trkpt lat="43.96235" lon="6.73881">
        <ele>560.16</ele>
        <time>2022-10-10T09:55:16Z</time>
      </trkpt>
      <trkpt lat="43.96225" lon="6.73857">
        <ele>560.16</ele>
        <time>2022-10-10T09:55:17Z</time>
      </trkpt>
      <trkpt lat="43.96194" lon="6.73782">
        <ele>563.81</ele>
        <time>2022-10-10T09:55:20Z</time>
      </trkpt>
      <trkpt lat="43.96174" lon="6.73733">
        <ele>565.01</ele>
        <time>2022-10-10T09:55:22Z</time>
      </trkpt>
      <trkpt lat="43.96153" lon="6.73685">
        <ele>566.76</ele>
        <time>2022-10-10T09:55:24Z</time>
      </trkpt>
      <trkpt lat="43.96116" lon="6.73619">
        <ele>570.41</ele>
        <time>2022-10-10T09:55:27Z</time>
      </trkpt>
      <trkpt lat="43.96101" lon="6.73601">
        <ele>570.41</ele>
        <time>2022-10-10T09:55:28Z</time>
      </trkpt>
      <trkpt lat="43.9607" lon="6.73569">
        <ele>572.46</ele>
        <time>2022-10-10T09:55:30Z</time>
      </trkpt>
      <trkpt lat="43.96024" lon="6.73522">
        <ele>572.51</ele>
        <time>2022-10-10T09:55:33Z</time>
      </trkpt>
      <trkpt lat="43.96008" lon="6.73509">
        <ele>572.59</ele>
        <time>2022-10-10T09:55:34Z</time>
      </trkpt>
      <trkpt lat="43.95992" lon="6.73499">
        <ele>572.5</ele>
        <time>2022-10-10T09:55:35Z</time>
      </trkpt>
      <trkpt lat="43.95975" lon="6.73493">
        <ele>572.48</ele>
        <time>2022-10-10T09:55:36Z</time>
      </trkpt>
      <trkpt lat="43.9596" lon="6.73491">
        <ele>572.43</ele>
        <time>2022-10-10T09:55:37Z</time>
      </trkpt>
      <trkpt lat="43.95945" lon="6.73489">
        <ele>569.44</ele>
        <time>2022-10-10T09:55:38Z</time>
      </trkpt>
      <trkpt lat="43.95932" lon="6.73487">
        <ele>569.25</ele>
        <time>2022-10-10T09:55:39Z</time>
      </trkpt>
      <trkpt lat="43.9592" lon="6.73484">
        <ele>567.58</ele>
        <time>2022-10-10T09:55:40Z</time>
      </trkpt>
      <trkpt lat="43.95909" lon="6.73478">
        <ele>566.59</ele>
        <time>2022-10-10T09:55:41Z</time>
      </trkpt>
      <trkpt lat="43.95899" lon="6.7347">
        <ele>566.51</ele>
        <time>2022-10-10T09:55:42Z</time>
      </trkpt>
      <trkpt lat="43.95891" lon="6.7346">
        <ele>566.45</ele>
        <time>2022-10-10T09:55:43Z</time>
      </trkpt>
      <trkpt lat="43.95885" lon="6.73448">
        <ele>565.03</ele>
        <time>2022-10-10T09:55:44Z</time>
      </trkpt>
      <trkpt lat="43.95882" lon="6.73436">
        <ele>565.31</ele>
        <time>2022-10-10T09:55:45Z</time>
      </trkpt>
      <trkpt lat="43.95879" lon="6.73424">
        <ele>565.27</ele>
        <time>2022-10-10T09:55:46Z</time>
      </trkpt>
      <trkpt lat="43.95876" lon="6.7341">
        <ele>564.18</ele>
        <time>2022-10-10T09:55:47Z</time>
      </trkpt>
      <trkpt lat="43.95878" lon="6.73394">
        <ele>564.18</ele>
        <time>2022-10-10T09:55:48Z</time>
      </trkpt>
      <trkpt lat="43.9588" lon="6.73374">
        <ele>564.16</ele>
        <time>2022-10-10T09:55:49Z</time>
      </trkpt>
      <trkpt lat="43.95883" lon="6.73349">
        <ele>564.12</ele>
        <time>2022-10-10T09:55:50Z</time>
      </trkpt>
      <trkpt lat="43.95892" lon="6.73295">
        <ele>568.67</ele>
        <time>2022-10-10T09:55:52Z</time>
      </trkpt>
      <trkpt lat="43.95904" lon="6.7323">
        <ele>569.92</ele>
        <time>2022-10-10T09:55:54Z</time>
      </trkpt>
      <trkpt lat="43.95939" lon="6.7303">
        <ele>573.09</ele>
        <time>2022-10-10T09:56:00Z</time>
      </trkpt>
      <trkpt lat="43.95945" lon="6.72998">
        <ele>573.12</ele>
        <time>2022-10-10T09:56:01Z</time>
      </trkpt>
      <trkpt lat="43.95964" lon="6.72899">
        <ele>577.02</ele>
        <time>2022-10-10T09:56:04Z</time>
      </trkpt>
      <trkpt lat="43.9597" lon="6.72866">
        <ele>577</ele>
        <time>2022-10-10T09:56:05Z</time>
      </trkpt>
      <trkpt lat="43.95997" lon="6.72704">
        <ele>577.24</ele>
        <time>2022-10-10T09:56:10Z</time>
      </trkpt>
      <trkpt lat="43.95999" lon="6.7267">
        <ele>577.21</ele>
        <time>2022-10-10T09:56:11Z</time>
      </trkpt>
      <trkpt lat="43.96001" lon="6.72414">
        <ele>580.01</ele>
        <time>2022-10-10T09:56:19Z</time>
      </trkpt>
      <trkpt lat="43.95996" lon="6.72386">
        <ele>581.19</ele>
        <time>2022-10-10T09:56:20Z</time>
      </trkpt>
      <trkpt lat="43.95976" lon="6.72298">
        <ele>582.64</ele>
        <time>2022-10-10T09:56:23Z</time>
      </trkpt>
      <trkpt lat="43.95942" lon="6.72052">
        <ele>585.37</ele>
        <time>2022-10-10T09:56:31Z</time>
      </trkpt>
      <trkpt lat="43.95939" lon="6.71959">
        <ele>584.94</ele>
        <time>2022-10-10T09:56:34Z</time>
      </trkpt>
      <trkpt lat="43.95941" lon="6.71929">
        <ele>586.23</ele>
        <time>2022-10-10T09:56:35Z</time>
      </trkpt>
      <trkpt lat="43.95945" lon="6.71899">
        <ele>586.21</ele>
        <time>2022-10-10T09:56:36Z</time>
      </trkpt>
      <trkpt lat="43.95966" lon="6.71752">
        <ele>586.2</ele>
        <time>2022-10-10T09:56:41Z</time>
      </trkpt>
      <trkpt lat="43.95965" lon="6.71721">
        <ele>587.14</ele>
        <time>2022-10-10T09:56:42Z</time>
      </trkpt>
      <trkpt lat="43.95963" lon="6.71563">
        <ele>588.27</ele>
        <time>2022-10-10T09:56:47Z</time>
      </trkpt>
      <trkpt lat="43.95959" lon="6.71531">
        <ele>588.25</ele>
        <time>2022-10-10T09:56:48Z</time>
      </trkpt>
      <trkpt lat="43.95953" lon="6.715">
        <ele>588.27</ele>
        <time>2022-10-10T09:56:49Z</time>
      </trkpt>
      <trkpt lat="43.95934" lon="6.71412">
        <ele>588.22</ele>
        <time>2022-10-10T09:56:52Z</time>
      </trkpt>
      <trkpt lat="43.95932" lon="6.71382">
        <ele>588.19</ele>
        <time>2022-10-10T09:56:53Z</time>
      </trkpt>
      <trkpt lat="43.95933" lon="6.71352">
        <ele>588.18</ele>
        <time>2022-10-10T09:56:54Z</time>
      </trkpt>
      <trkpt lat="43.95938" lon="6.71256">
        <ele>591.51</ele>
        <time>2022-10-10T09:56:57Z</time>
      </trkpt>
      <trkpt lat="43.95942" lon="6.71225">
        <ele>592.34</ele>
        <time>2022-10-10T09:56:58Z</time>
      </trkpt>
      <trkpt lat="43.95947" lon="6.71194">
        <ele>592.93</ele>
        <time>2022-10-10T09:56:59Z</time>
      </trkpt>
      <trkpt lat="43.95959" lon="6.71131">
        <ele>593.95</ele>
        <time>2022-10-10T09:57:01Z</time>
      </trkpt>
      <trkpt lat="43.95964" lon="6.711">
        <ele>593.96</ele>
        <time>2022-10-10T09:57:02Z</time>
      </trkpt>
      <trkpt lat="43.95965" lon="6.71067">
        <ele>594</ele>
        <time>2022-10-10T09:57:03Z</time>
      </trkpt>
      <trkpt lat="43.95962" lon="6.71034">
        <ele>595.18</ele>
        <time>2022-10-10T09:57:04Z</time>
      </trkpt>
      <trkpt lat="43.95956" lon="6.71001">
        <ele>595.23</ele>
        <time>2022-10-10T09:57:05Z</time>
      </trkpt>
      <trkpt lat="43.95949" lon="6.70967">
        <ele>596.19</ele>
        <time>2022-10-10T09:57:06Z</time>
      </trkpt>
      <trkpt lat="43.95933" lon="6.70898">
        <ele>597.22</ele>
        <time>2022-10-10T09:57:08Z</time>
      </trkpt>
      <trkpt lat="43.95865" lon="6.70566">
        <ele>596.86</ele>
        <time>2022-10-10T09:57:18Z</time>
      </trkpt>
      <trkpt lat="43.95844" lon="6.70392">
        <ele>596.88</ele>
        <time>2022-10-10T09:57:24Z</time>
      </trkpt>
      <trkpt lat="43.95838" lon="6.70366">
        <ele>596.87</ele>
        <time>2022-10-10T09:57:25Z</time>
      </trkpt>
      <trkpt lat="43.95829" lon="6.7034">
        <ele>596.86</ele>
        <time>2022-10-10T09:57:26Z</time>
      </trkpt>
      <trkpt lat="43.958" lon="6.70265">
        <ele>598.09</ele>
        <time>2022-10-10T09:57:29Z</time>
      </trkpt>
      <trkpt lat="43.95766" lon="6.70161">
        <ele>599.56</ele>
        <time>2022-10-10T09:57:33Z</time>
      </trkpt>
      <trkpt lat="43.95756" lon="6.70106">
        <ele>601.08</ele>
        <time>2022-10-10T09:57:35Z</time>
      </trkpt>
      <trkpt lat="43.95751" lon="6.7005">
        <ele>602.43</ele>
        <time>2022-10-10T09:57:37Z</time>
      </trkpt>
      <trkpt lat="43.95747" lon="6.69994">
        <ele>603.98</ele>
        <time>2022-10-10T09:57:39Z</time>
      </trkpt>
      <trkpt lat="43.95742" lon="6.69938">
        <ele>606.08</ele>
        <time>2022-10-10T09:57:41Z</time>
      </trkpt>
      <trkpt lat="43.95744" lon="6.69856">
        <ele>608.67</ele>
        <time>2022-10-10T09:57:44Z</time>
      </trkpt>
      <trkpt lat="43.95755" lon="6.69777">
        <ele>612.38</ele>
        <time>2022-10-10T09:57:47Z</time>
      </trkpt>
      <trkpt lat="43.95768" lon="6.69699">
        <ele>615.77</ele>
        <time>2022-10-10T09:57:50Z</time>
      </trkpt>
      <trkpt lat="43.95774" lon="6.69674">
        <ele>615.77</ele>
        <time>2022-10-10T09:57:51Z</time>
      </trkpt>
      <trkpt lat="43.95797" lon="6.69601">
        <ele>619.15</ele>
        <time>2022-10-10T09:57:54Z</time>
      </trkpt>
      <trkpt lat="43.95822" lon="6.6953">
        <ele>621.63</ele>
        <time>2022-10-10T09:57:57Z</time>
      </trkpt>
      <trkpt lat="43.95828" lon="6.69505">
        <ele>623.75</ele>
        <time>2022-10-10T09:57:58Z</time>
      </trkpt>
      <trkpt lat="43.95832" lon="6.69479">
        <ele>623.74</ele>
        <time>2022-10-10T09:57:59Z</time>
      </trkpt>
      <trkpt lat="43.95831" lon="6.69453">
        <ele>625.53</ele>
        <time>2022-10-10T09:58:00Z</time>
      </trkpt>
      <trkpt lat="43.95826" lon="6.69427">
        <ele>626.83</ele>
        <time>2022-10-10T09:58:01Z</time>
      </trkpt>
      <trkpt lat="43.9582" lon="6.69402">
        <ele>626.82</ele>
        <time>2022-10-10T09:58:02Z</time>
      </trkpt>
      <trkpt lat="43.95806" lon="6.6935">
        <ele>628.13</ele>
        <time>2022-10-10T09:58:04Z</time>
      </trkpt>
      <trkpt lat="43.95793" lon="6.69297">
        <ele>631.94</ele>
        <time>2022-10-10T09:58:06Z</time>
      </trkpt>
      <trkpt lat="43.95787" lon="6.6927">
        <ele>631.88</ele>
        <time>2022-10-10T09:58:07Z</time>
      </trkpt>
      <trkpt lat="43.95775" lon="6.69186">
        <ele>634.94</ele>
        <time>2022-10-10T09:58:10Z</time>
      </trkpt>
      <trkpt lat="43.95768" lon="6.69132">
        <ele>637.76</ele>
        <time>2022-10-10T09:58:12Z</time>
      </trkpt>
      <trkpt lat="43.95761" lon="6.69106">
        <ele>638.88</ele>
        <time>2022-10-10T09:58:13Z</time>
      </trkpt>
      <trkpt lat="43.95752" lon="6.69082">
        <ele>638.99</ele>
        <time>2022-10-10T09:58:14Z</time>
      </trkpt>
      <trkpt lat="43.95732" lon="6.69033">
        <ele>642.11</ele>
        <time>2022-10-10T09:58:16Z</time>
      </trkpt>
      <trkpt lat="43.95722" lon="6.69009">
        <ele>642.21</ele>
        <time>2022-10-10T09:58:17Z</time>
      </trkpt>
      <trkpt lat="43.95701" lon="6.6896">
        <ele>645.43</ele>
        <time>2022-10-10T09:58:19Z</time>
      </trkpt>
      <trkpt lat="43.95667" lon="6.68886">
        <ele>649.18</ele>
        <time>2022-10-10T09:58:22Z</time>
      </trkpt>
      <trkpt lat="43.95656" lon="6.68863">
        <ele>649.16</ele>
        <time>2022-10-10T09:58:23Z</time>
      </trkpt>
      <trkpt lat="43.95644" lon="6.68841">
        <ele>650.19</ele>
        <time>2022-10-10T09:58:24Z</time>
      </trkpt>
      <trkpt lat="43.95591" lon="6.68751">
        <ele>650.11</ele>
        <time>2022-10-10T09:58:29Z</time>
      </trkpt>
      <trkpt lat="43.95586" lon="6.68734">
        <ele>650.1</ele>
        <time>2022-10-10T09:58:30Z</time>
      </trkpt>
      <trkpt lat="43.95583" lon="6.68716">
        <ele>650.03</ele>
        <time>2022-10-10T09:58:31Z</time>
      </trkpt>
      <trkpt lat="43.95582" lon="6.68699">
        <ele>649.95</ele>
        <time>2022-10-10T09:58:32Z</time>
      </trkpt>
      <trkpt lat="43.95582" lon="6.68682">
        <ele>649.89</ele>
        <time>2022-10-10T09:58:33Z</time>
      </trkpt>
      <trkpt lat="43.95582" lon="6.68666">
        <ele>649.78</ele>
        <time>2022-10-10T09:58:34Z</time>
      </trkpt>
      <trkpt lat="43.95578" lon="6.68651">
        <ele>647.3</ele>
        <time>2022-10-10T09:58:35Z</time>
      </trkpt>
      <trkpt lat="43.9557" lon="6.6864">
        <ele>646.07</ele>
        <time>2022-10-10T09:58:36Z</time>
      </trkpt>
      <trkpt lat="43.95561" lon="6.68633">
        <ele>646.02</ele>
        <time>2022-10-10T09:58:37Z</time>
      </trkpt>
      <trkpt lat="43.95551" lon="6.68629">
        <ele>645.95</ele>
        <time>2022-10-10T09:58:38Z</time>
      </trkpt>
      <trkpt lat="43.95541" lon="6.68622">
        <ele>645.96</ele>
        <time>2022-10-10T09:58:39Z</time>
      </trkpt>
      <trkpt lat="43.95533" lon="6.68608">
        <ele>645.95</ele>
        <time>2022-10-10T09:58:40Z</time>
      </trkpt>
      <trkpt lat="43.95526" lon="6.68591">
        <ele>649.22</ele>
        <time>2022-10-10T09:58:41Z</time>
      </trkpt>
      <trkpt lat="43.95518" lon="6.68573">
        <ele>649.22</ele>
        <time>2022-10-10T09:58:42Z</time>
      </trkpt>
      <trkpt lat="43.95493" lon="6.68518">
        <ele>652.47</ele>
        <time>2022-10-10T09:58:45Z</time>
      </trkpt>
      <trkpt lat="43.95486" lon="6.68502">
        <ele>652.48</ele>
        <time>2022-10-10T09:58:46Z</time>
      </trkpt>
      <trkpt lat="43.9547" lon="6.68472">
        <ele>653.4</ele>
        <time>2022-10-10T09:58:48Z</time>
      </trkpt>
      <trkpt lat="43.95459" lon="6.68461">
        <ele>655.19</ele>
        <time>2022-10-10T09:58:49Z</time>
      </trkpt>
      <trkpt lat="43.95446" lon="6.68456">
        <ele>656.08</ele>
        <time>2022-10-10T09:58:50Z</time>
      </trkpt>
      <trkpt lat="43.95431" lon="6.68458">
        <ele>657.49</ele>
        <time>2022-10-10T09:58:51Z</time>
      </trkpt>
      <trkpt lat="43.95417" lon="6.68462">
        <ele>658.57</ele>
        <time>2022-10-10T09:58:52Z</time>
      </trkpt>
      <trkpt lat="43.95404" lon="6.68465">
        <ele>658.56</ele>
        <time>2022-10-10T09:58:53Z</time>
      </trkpt>
      <trkpt lat="43.95392" lon="6.68463">
        <ele>660</ele>
        <time>2022-10-10T09:58:54Z</time>
      </trkpt>
      <trkpt lat="43.9535" lon="6.6845">
        <ele>664.23</ele>
        <time>2022-10-10T09:58:57Z</time>
      </trkpt>
      <trkpt lat="43.95335" lon="6.68448">
        <ele>664.95</ele>
        <time>2022-10-10T09:58:58Z</time>
      </trkpt>
      <trkpt lat="43.95321" lon="6.68453">
        <ele>665.92</ele>
        <time>2022-10-10T09:58:59Z</time>
      </trkpt>
      <trkpt lat="43.95308" lon="6.68464">
        <ele>667.45</ele>
        <time>2022-10-10T09:59:00Z</time>
      </trkpt>
      <trkpt lat="43.95281" lon="6.68491">
        <ele>670.05</ele>
        <time>2022-10-10T09:59:02Z</time>
      </trkpt>
      <trkpt lat="43.95265" lon="6.685">
        <ele>671.27</ele>
        <time>2022-10-10T09:59:03Z</time>
      </trkpt>
      <trkpt lat="43.95232" lon="6.68515">
        <ele>674.12</ele>
        <time>2022-10-10T09:59:05Z</time>
      </trkpt>
      <trkpt lat="43.95218" lon="6.68528">
        <ele>674.22</ele>
        <time>2022-10-10T09:59:06Z</time>
      </trkpt>
      <trkpt lat="43.95208" lon="6.68545">
        <ele>675.28</ele>
        <time>2022-10-10T09:59:07Z</time>
      </trkpt>
      <trkpt lat="43.95202" lon="6.68567">
        <ele>676.51</ele>
        <time>2022-10-10T09:59:08Z</time>
      </trkpt>
      <trkpt lat="43.95198" lon="6.68592">
        <ele>677.17</ele>
        <time>2022-10-10T09:59:09Z</time>
      </trkpt>
      <trkpt lat="43.95193" lon="6.68615">
        <ele>679.24</ele>
        <time>2022-10-10T09:59:10Z</time>
      </trkpt>
      <trkpt lat="43.95185" lon="6.68638">
        <ele>680.15</ele>
        <time>2022-10-10T09:59:11Z</time>
      </trkpt>
      <trkpt lat="43.95175" lon="6.68659">
        <ele>681.01</ele>
        <time>2022-10-10T09:59:12Z</time>
      </trkpt>
      <trkpt lat="43.95162" lon="6.68677">
        <ele>681.74</ele>
        <time>2022-10-10T09:59:13Z</time>
      </trkpt>
      <trkpt lat="43.95147" lon="6.68691">
        <ele>681.89</ele>
        <time>2022-10-10T09:59:14Z</time>
      </trkpt>
      <trkpt lat="43.95131" lon="6.68703">
        <ele>682.84</ele>
        <time>2022-10-10T09:59:15Z</time>
      </trkpt>
      <trkpt lat="43.95115" lon="6.68713">
        <ele>683.87</ele>
        <time>2022-10-10T09:59:16Z</time>
      </trkpt>
      <trkpt lat="43.95098" lon="6.68718">
        <ele>683.86</ele>
        <time>2022-10-10T09:59:17Z</time>
      </trkpt>
      <trkpt lat="43.9508" lon="6.6872">
        <ele>685.31</ele>
        <time>2022-10-10T09:59:18Z</time>
      </trkpt>
      <trkpt lat="43.95061" lon="6.68721">
        <ele>686.41</ele>
        <time>2022-10-10T09:59:19Z</time>
      </trkpt>
      <trkpt lat="43.95041" lon="6.68722">
        <ele>686.39</ele>
        <time>2022-10-10T09:59:20Z</time>
      </trkpt>
      <trkpt lat="43.95006" lon="6.6873">
        <ele>687.36</ele>
        <time>2022-10-10T09:59:22Z</time>
      </trkpt>
      <trkpt lat="43.94991" lon="6.6874">
        <ele>687.33</ele>
        <time>2022-10-10T09:59:23Z</time>
      </trkpt>
      <trkpt lat="43.94977" lon="6.68756">
        <ele>688.41</ele>
        <time>2022-10-10T09:59:24Z</time>
      </trkpt>
      <trkpt lat="43.94965" lon="6.68776">
        <ele>688.42</ele>
        <time>2022-10-10T09:59:25Z</time>
      </trkpt>
      <trkpt lat="43.94953" lon="6.68797">
        <ele>691.18</ele>
        <time>2022-10-10T09:59:26Z</time>
      </trkpt>
      <trkpt lat="43.94941" lon="6.68819">
        <ele>691.18</ele>
        <time>2022-10-10T09:59:27Z</time>
      </trkpt>
      <trkpt lat="43.94913" lon="6.68857">
        <ele>692.67</ele>
        <time>2022-10-10T09:59:29Z</time>
      </trkpt>
      <trkpt lat="43.94897" lon="6.68869">
        <ele>692.65</ele>
        <time>2022-10-10T09:59:30Z</time>
      </trkpt>
      <trkpt lat="43.9488" lon="6.68876">
        <ele>693.87</ele>
        <time>2022-10-10T09:59:31Z</time>
      </trkpt>
      <trkpt lat="43.94861" lon="6.68879">
        <ele>694.79</ele>
        <time>2022-10-10T09:59:32Z</time>
      </trkpt>
      <trkpt lat="43.94842" lon="6.68879">
        <ele>695.77</ele>
        <time>2022-10-10T09:59:33Z</time>
      </trkpt>
      <trkpt lat="43.94822" lon="6.68881">
        <ele>695.75</ele>
        <time>2022-10-10T09:59:34Z</time>
      </trkpt>
      <trkpt lat="43.94802" lon="6.68886">
        <ele>697.61</ele>
        <time>2022-10-10T09:59:35Z</time>
      </trkpt>
      <trkpt lat="43.94783" lon="6.68893">
        <ele>697.57</ele>
        <time>2022-10-10T09:59:36Z</time>
      </trkpt>
      <trkpt lat="43.94709" lon="6.68933">
        <ele>700.28</ele>
        <time>2022-10-10T09:59:40Z</time>
      </trkpt>
      <trkpt lat="43.94651" lon="6.6896">
        <ele>703.68</ele>
        <time>2022-10-10T09:59:43Z</time>
      </trkpt>
      <trkpt lat="43.94631" lon="6.68963">
        <ele>703.38</ele>
        <time>2022-10-10T09:59:44Z</time>
      </trkpt>
      <trkpt lat="43.94611" lon="6.68961">
        <ele>705.11</ele>
        <time>2022-10-10T09:59:45Z</time>
      </trkpt>
      <trkpt lat="43.9459" lon="6.68956">
        <ele>706.4</ele>
        <time>2022-10-10T09:59:46Z</time>
      </trkpt>
      <trkpt lat="43.9457" lon="6.6895">
        <ele>706.38</ele>
        <time>2022-10-10T09:59:47Z</time>
      </trkpt>
      <trkpt lat="43.9453" lon="6.68942">
        <ele>706.41</ele>
        <time>2022-10-10T09:59:49Z</time>
      </trkpt>
      <trkpt lat="43.94511" lon="6.68944">
        <ele>707.58</ele>
        <time>2022-10-10T09:59:50Z</time>
      </trkpt>
      <trkpt lat="43.94494" lon="6.68954">
        <ele>708.62</ele>
        <time>2022-10-10T09:59:51Z</time>
      </trkpt>
      <trkpt lat="43.9448" lon="6.68972">
        <ele>709.58</ele>
        <time>2022-10-10T09:59:52Z</time>
      </trkpt>
      <trkpt lat="43.94469" lon="6.68995">
        <ele>710.97</ele>
        <time>2022-10-10T09:59:53Z</time>
      </trkpt>
      <trkpt lat="43.94458" lon="6.69019">
        <ele>710.95</ele>
        <time>2022-10-10T09:59:54Z</time>
      </trkpt>
      <trkpt lat="43.94445" lon="6.69039">
        <ele>713.04</ele>
        <time>2022-10-10T09:59:55Z</time>
      </trkpt>
      <trkpt lat="43.94427" lon="6.69053">
        <ele>714.65</ele>
        <time>2022-10-10T09:59:56Z</time>
      </trkpt>
      <trkpt lat="43.94408" lon="6.69059">
        <ele>716.39</ele>
        <time>2022-10-10T09:59:57Z</time>
      </trkpt>
      <trkpt lat="43.94389" lon="6.69057">
        <ele>717.93</ele>
        <time>2022-10-10T09:59:58Z</time>
      </trkpt>
      <trkpt lat="43.94369" lon="6.69052">
        <ele>718.9</ele>
        <time>2022-10-10T09:59:59Z</time>
      </trkpt>
      <trkpt lat="43.9433" lon="6.69038">
        <ele>720.38</ele>
        <time>2022-10-10T10:00:01Z</time>
      </trkpt>
      <trkpt lat="43.94313" lon="6.69026">
        <ele>721.61</ele>
        <time>2022-10-10T10:00:02Z</time>
      </trkpt>
      <trkpt lat="43.94298" lon="6.69013">
        <ele>721.7</ele>
        <time>2022-10-10T10:00:03Z</time>
      </trkpt>
      <trkpt lat="43.94255" lon="6.68982">
        <ele>724.47</ele>
        <time>2022-10-10T10:00:06Z</time>
      </trkpt>
      <trkpt lat="43.9424" lon="6.68978">
        <ele>725.7</ele>
        <time>2022-10-10T10:00:07Z</time>
      </trkpt>
      <trkpt lat="43.94224" lon="6.6898">
        <ele>726.91</ele>
        <time>2022-10-10T10:00:08Z</time>
      </trkpt>
      <trkpt lat="43.94209" lon="6.68985">
        <ele>728.04</ele>
        <time>2022-10-10T10:00:09Z</time>
      </trkpt>
      <trkpt lat="43.94196" lon="6.6899">
        <ele>728.15</ele>
        <time>2022-10-10T10:00:10Z</time>
      </trkpt>
      <trkpt lat="43.94184" lon="6.68993">
        <ele>729.45</ele>
        <time>2022-10-10T10:00:11Z</time>
      </trkpt>
      <trkpt lat="43.94172" lon="6.68995">
        <ele>730.49</ele>
        <time>2022-10-10T10:00:12Z</time>
      </trkpt>
      <trkpt lat="43.9416" lon="6.68993">
        <ele>730.45</ele>
        <time>2022-10-10T10:00:13Z</time>
      </trkpt>
      <trkpt lat="43.94148" lon="6.68987">
        <ele>732.04</ele>
        <time>2022-10-10T10:00:14Z</time>
      </trkpt>
      <trkpt lat="43.94137" lon="6.68979">
        <ele>731.99</ele>
        <time>2022-10-10T10:00:15Z</time>
      </trkpt>
      <trkpt lat="43.94126" lon="6.68969">
        <ele>734.43</ele>
        <time>2022-10-10T10:00:16Z</time>
      </trkpt>
      <trkpt lat="43.94116" lon="6.68959">
        <ele>734.39</ele>
        <time>2022-10-10T10:00:17Z</time>
      </trkpt>
      <trkpt lat="43.94097" lon="6.68944">
        <ele>736.8</ele>
        <time>2022-10-10T10:00:19Z</time>
      </trkpt>
      <trkpt lat="43.94087" lon="6.68939">
        <ele>736.8</ele>
        <time>2022-10-10T10:00:20Z</time>
      </trkpt>
      <trkpt lat="43.94076" lon="6.68938">
        <ele>737.99</ele>
        <time>2022-10-10T10:00:21Z</time>
      </trkpt>
      <trkpt lat="43.94066" lon="6.68939">
        <ele>738.14</ele>
        <time>2022-10-10T10:00:22Z</time>
      </trkpt>
      <trkpt lat="43.94055" lon="6.68939">
        <ele>739</ele>
        <time>2022-10-10T10:00:23Z</time>
      </trkpt>
      <trkpt lat="43.94046" lon="6.68937">
        <ele>739</ele>
        <time>2022-10-10T10:00:24Z</time>
      </trkpt>
      <trkpt lat="43.94036" lon="6.68932">
        <ele>740.37</ele>
        <time>2022-10-10T10:00:25Z</time>
      </trkpt>
      <trkpt lat="43.94027" lon="6.68926">
        <ele>740.36</ele>
        <time>2022-10-10T10:00:26Z</time>
      </trkpt>
      <trkpt lat="43.93998" lon="6.68903">
        <ele>741.22</ele>
        <time>2022-10-10T10:00:30Z</time>
      </trkpt>
      <trkpt lat="43.93993" lon="6.68897">
        <ele>742.36</ele>
        <time>2022-10-10T10:00:31Z</time>
      </trkpt>
      <trkpt lat="43.93991" lon="6.68888">
        <ele>742.4</ele>
        <time>2022-10-10T10:00:32Z</time>
      </trkpt>
      <trkpt lat="43.93991" lon="6.6888">
        <ele>742.41</ele>
        <time>2022-10-10T10:00:33Z</time>
      </trkpt>
      <trkpt lat="43.93992" lon="6.6887">
        <ele>743.38</ele>
        <time>2022-10-10T10:00:34Z</time>
      </trkpt>
      <trkpt lat="43.93993" lon="6.68859">
        <ele>743.36</ele>
        <time>2022-10-10T10:00:35Z</time>
      </trkpt>
      <trkpt lat="43.93991" lon="6.68849">
        <ele>743.32</ele>
        <time>2022-10-10T10:00:36Z</time>
      </trkpt>
      <trkpt lat="43.93985" lon="6.68839">
        <ele>744.43</ele>
        <time>2022-10-10T10:00:37Z</time>
      </trkpt>
      <trkpt lat="43.93976" lon="6.6883">
        <ele>744.43</ele>
        <time>2022-10-10T10:00:38Z</time>
      </trkpt>
      <trkpt lat="43.93967" lon="6.68821">
        <ele>744.47</ele>
        <time>2022-10-10T10:00:39Z</time>
      </trkpt>
      <trkpt lat="43.93957" lon="6.68808">
        <ele>746.87</ele>
        <time>2022-10-10T10:00:40Z</time>
      </trkpt>
      <trkpt lat="43.93946" lon="6.68792">
        <ele>748.31</ele>
        <time>2022-10-10T10:00:41Z</time>
      </trkpt>
      <trkpt lat="43.93932" lon="6.68775">
        <ele>748.31</ele>
        <time>2022-10-10T10:00:42Z</time>
      </trkpt>
      <trkpt lat="43.93917" lon="6.68759">
        <ele>750.35</ele>
        <time>2022-10-10T10:00:43Z</time>
      </trkpt>
      <trkpt lat="43.93884" lon="6.68732">
        <ele>752.42</ele>
        <time>2022-10-10T10:00:45Z</time>
      </trkpt>
      <trkpt lat="43.93864" lon="6.68724">
        <ele>753.45</ele>
        <time>2022-10-10T10:00:46Z</time>
      </trkpt>
      <trkpt lat="43.93846" lon="6.68718">
        <ele>754.78</ele>
        <time>2022-10-10T10:00:47Z</time>
      </trkpt>
      <trkpt lat="43.93828" lon="6.68713">
        <ele>754.78</ele>
        <time>2022-10-10T10:00:48Z</time>
      </trkpt>
      <trkpt lat="43.93812" lon="6.6871">
        <ele>754.83</ele>
        <time>2022-10-10T10:00:49Z</time>
      </trkpt>
      <trkpt lat="43.9377" lon="6.68698">
        <ele>755.97</ele>
        <time>2022-10-10T10:00:52Z</time>
      </trkpt>
      <trkpt lat="43.93763" lon="6.68687">
        <ele>755.96</ele>
        <time>2022-10-10T10:00:53Z</time>
      </trkpt>
      <trkpt lat="43.9376" lon="6.68672">
        <ele>757.25</ele>
        <time>2022-10-10T10:00:54Z</time>
      </trkpt>
      <trkpt lat="43.93759" lon="6.68656">
        <ele>758.3</ele>
        <time>2022-10-10T10:00:55Z</time>
      </trkpt>
      <trkpt lat="43.93761" lon="6.68638">
        <ele>759.53</ele>
        <time>2022-10-10T10:00:56Z</time>
      </trkpt>
      <trkpt lat="43.93764" lon="6.68619">
        <ele>760.85</ele>
        <time>2022-10-10T10:00:57Z</time>
      </trkpt>
      <trkpt lat="43.93768" lon="6.68601">
        <ele>760.82</ele>
        <time>2022-10-10T10:00:58Z</time>
      </trkpt>
      <trkpt lat="43.93773" lon="6.68582">
        <ele>761.76</ele>
        <time>2022-10-10T10:00:59Z</time>
      </trkpt>
      <trkpt lat="43.9378" lon="6.6855">
        <ele>762.84</ele>
        <time>2022-10-10T10:01:01Z</time>
      </trkpt>
      <trkpt lat="43.93778" lon="6.68532">
        <ele>764.98</ele>
        <time>2022-10-10T10:01:02Z</time>
      </trkpt>
      <trkpt lat="43.93772" lon="6.68514">
        <ele>764.97</ele>
        <time>2022-10-10T10:01:03Z</time>
      </trkpt>
      <trkpt lat="43.93767" lon="6.68495">
        <ele>765.98</ele>
        <time>2022-10-10T10:01:04Z</time>
      </trkpt>
      <trkpt lat="43.93765" lon="6.68475">
        <ele>765.96</ele>
        <time>2022-10-10T10:01:05Z</time>
      </trkpt>
      <trkpt lat="43.93766" lon="6.68455">
        <ele>767.62</ele>
        <time>2022-10-10T10:01:06Z</time>
      </trkpt>
      <trkpt lat="43.93762" lon="6.68436">
        <ele>767.65</ele>
        <time>2022-10-10T10:01:07Z</time>
      </trkpt>
      <trkpt lat="43.93756" lon="6.68415">
        <ele>769.59</ele>
        <time>2022-10-10T10:01:08Z</time>
      </trkpt>
      <trkpt lat="43.93752" lon="6.68392">
        <ele>770.99</ele>
        <time>2022-10-10T10:01:09Z</time>
      </trkpt>
      <trkpt lat="43.93749" lon="6.68367">
        <ele>772.07</ele>
        <time>2022-10-10T10:01:10Z</time>
      </trkpt>
      <trkpt lat="43.93747" lon="6.68342">
        <ele>773.94</ele>
        <time>2022-10-10T10:01:11Z</time>
      </trkpt>
      <trkpt lat="43.93745" lon="6.68292">
        <ele>776.14</ele>
        <time>2022-10-10T10:01:13Z</time>
      </trkpt>
      <trkpt lat="43.93741" lon="6.68246">
        <ele>776.74</ele>
        <time>2022-10-10T10:01:15Z</time>
      </trkpt>
      <trkpt lat="43.93736" lon="6.68226">
        <ele>776.73</ele>
        <time>2022-10-10T10:01:16Z</time>
      </trkpt>
      <trkpt lat="43.93728" lon="6.68208">
        <ele>778.45</ele>
        <time>2022-10-10T10:01:17Z</time>
      </trkpt>
      <trkpt lat="43.93718" lon="6.68191">
        <ele>778.44</ele>
        <time>2022-10-10T10:01:18Z</time>
      </trkpt>
      <trkpt lat="43.93711" lon="6.68173">
        <ele>779.34</ele>
        <time>2022-10-10T10:01:19Z</time>
      </trkpt>
      <trkpt lat="43.93708" lon="6.68154">
        <ele>779.28</ele>
        <time>2022-10-10T10:01:20Z</time>
      </trkpt>
      <trkpt lat="43.937" lon="6.68113">
        <ele>781.66</ele>
        <time>2022-10-10T10:01:22Z</time>
      </trkpt>
      <trkpt lat="43.93695" lon="6.68093">
        <ele>781.74</ele>
        <time>2022-10-10T10:01:23Z</time>
      </trkpt>
      <trkpt lat="43.93692" lon="6.68069">
        <ele>783.87</ele>
        <time>2022-10-10T10:01:24Z</time>
      </trkpt>
      <trkpt lat="43.93691" lon="6.68045">
        <ele>785.21</ele>
        <time>2022-10-10T10:01:25Z</time>
      </trkpt>
      <trkpt lat="43.9369" lon="6.68019">
        <ele>786.79</ele>
        <time>2022-10-10T10:01:26Z</time>
      </trkpt>
      <trkpt lat="43.93687" lon="6.67994">
        <ele>787.97</ele>
        <time>2022-10-10T10:01:27Z</time>
      </trkpt>
      <trkpt lat="43.93681" lon="6.67946">
        <ele>789.55</ele>
        <time>2022-10-10T10:01:29Z</time>
      </trkpt>
      <trkpt lat="43.93675" lon="6.67886">
        <ele>790.43</ele>
        <time>2022-10-10T10:01:32Z</time>
      </trkpt>
      <trkpt lat="43.93676" lon="6.67869">
        <ele>790.39</ele>
        <time>2022-10-10T10:01:33Z</time>
      </trkpt>
      <trkpt lat="43.93676" lon="6.67839">
        <ele>790.85</ele>
        <time>2022-10-10T10:01:35Z</time>
      </trkpt>
      <trkpt lat="43.93673" lon="6.67823">
        <ele>791.51</ele>
        <time>2022-10-10T10:01:36Z</time>
      </trkpt>
      <trkpt lat="43.93668" lon="6.67807">
        <ele>792.74</ele>
        <time>2022-10-10T10:01:37Z</time>
      </trkpt>
      <trkpt lat="43.93661" lon="6.67793">
        <ele>792.73</ele>
        <time>2022-10-10T10:01:38Z</time>
      </trkpt>
      <trkpt lat="43.93641" lon="6.67789">
        <ele>794.43</ele>
        <time>2022-10-10T10:01:39Z</time>
      </trkpt>
      <trkpt lat="43.93626" lon="6.67779">
        <ele>795.75</ele>
        <time>2022-10-10T10:01:40Z</time>
      </trkpt>
      <trkpt lat="43.93612" lon="6.67768">
        <ele>795.74</ele>
        <time>2022-10-10T10:01:41Z</time>
      </trkpt>
      <trkpt lat="43.936" lon="6.67755">
        <ele>796.91</ele>
        <time>2022-10-10T10:01:42Z</time>
      </trkpt>
      <trkpt lat="43.93578" lon="6.67725">
        <ele>797.66</ele>
        <time>2022-10-10T10:01:44Z</time>
      </trkpt>
      <trkpt lat="43.93562" lon="6.67692">
        <ele>799.08</ele>
        <time>2022-10-10T10:01:46Z</time>
      </trkpt>
      <trkpt lat="43.9356" lon="6.67675">
        <ele>798.96</ele>
        <time>2022-10-10T10:01:47Z</time>
      </trkpt>
      <trkpt lat="43.93559" lon="6.67656">
        <ele>800.43</ele>
        <time>2022-10-10T10:01:48Z</time>
      </trkpt>
      <trkpt lat="43.93557" lon="6.6764">
        <ele>800.42</ele>
        <time>2022-10-10T10:01:49Z</time>
      </trkpt>
      <trkpt lat="43.9355" lon="6.67624">
        <ele>801.37</ele>
        <time>2022-10-10T10:01:50Z</time>
      </trkpt>
      <trkpt lat="43.93542" lon="6.67607">
        <ele>801.36</ele>
        <time>2022-10-10T10:01:51Z</time>
      </trkpt>
      <trkpt lat="43.93533" lon="6.67569">
        <ele>802.18</ele>
        <time>2022-10-10T10:01:53Z</time>
      </trkpt>
      <trkpt lat="43.93531" lon="6.6755">
        <ele>802.17</ele>
        <time>2022-10-10T10:01:54Z</time>
      </trkpt>
      <trkpt lat="43.93532" lon="6.67504">
        <ele>804.64</ele>
        <time>2022-10-10T10:01:56Z</time>
      </trkpt>
      <trkpt lat="43.93531" lon="6.67478">
        <ele>804.62</ele>
        <time>2022-10-10T10:01:57Z</time>
      </trkpt>
      <trkpt lat="43.93528" lon="6.67453">
        <ele>805.99</ele>
        <time>2022-10-10T10:01:58Z</time>
      </trkpt>
      <trkpt lat="43.93524" lon="6.67427">
        <ele>807.08</ele>
        <time>2022-10-10T10:01:59Z</time>
      </trkpt>
      <trkpt lat="43.93518" lon="6.67402">
        <ele>808.03</ele>
        <time>2022-10-10T10:02:00Z</time>
      </trkpt>
      <trkpt lat="43.9351" lon="6.67378">
        <ele>808.08</ele>
        <time>2022-10-10T10:02:01Z</time>
      </trkpt>
      <trkpt lat="43.93496" lon="6.67329">
        <ele>810.88</ele>
        <time>2022-10-10T10:02:03Z</time>
      </trkpt>
      <trkpt lat="43.93487" lon="6.67305">
        <ele>813.97</ele>
        <time>2022-10-10T10:02:04Z</time>
      </trkpt>
      <trkpt lat="43.93478" lon="6.67283">
        <ele>815.53</ele>
        <time>2022-10-10T10:02:05Z</time>
      </trkpt>
      <trkpt lat="43.93467" lon="6.67261">
        <ele>816.31</ele>
        <time>2022-10-10T10:02:06Z</time>
      </trkpt>
      <trkpt lat="43.93433" lon="6.672">
        <ele>818.22</ele>
        <time>2022-10-10T10:02:09Z</time>
      </trkpt>
      <trkpt lat="43.93425" lon="6.67179">
        <ele>819.16</ele>
        <time>2022-10-10T10:02:10Z</time>
      </trkpt>
      <trkpt lat="43.93407" lon="6.6714">
        <ele>820.8</ele>
        <time>2022-10-10T10:02:12Z</time>
      </trkpt>
      <trkpt lat="43.93393" lon="6.67127">
        <ele>822.26</ele>
        <time>2022-10-10T10:02:13Z</time>
      </trkpt>
      <trkpt lat="43.93379" lon="6.67115">
        <ele>823.5</ele>
        <time>2022-10-10T10:02:14Z</time>
      </trkpt>
      <trkpt lat="43.93366" lon="6.67101">
        <ele>823.68</ele>
        <time>2022-10-10T10:02:15Z</time>
      </trkpt>
      <trkpt lat="43.93359" lon="6.67084">
        <ele>824.99</ele>
        <time>2022-10-10T10:02:16Z</time>
      </trkpt>
      <trkpt lat="43.93357" lon="6.67045">
        <ele>825.85</ele>
        <time>2022-10-10T10:02:18Z</time>
      </trkpt>
      <trkpt lat="43.93359" lon="6.67027">
        <ele>827.79</ele>
        <time>2022-10-10T10:02:19Z</time>
      </trkpt>
      <trkpt lat="43.93358" lon="6.67008">
        <ele>827.77</ele>
        <time>2022-10-10T10:02:20Z</time>
      </trkpt>
      <trkpt lat="43.93352" lon="6.66993">
        <ele>828.9</ele>
        <time>2022-10-10T10:02:21Z</time>
      </trkpt>
      <trkpt lat="43.93342" lon="6.66982">
        <ele>828.97</ele>
        <time>2022-10-10T10:02:22Z</time>
      </trkpt>
      <trkpt lat="43.9333" lon="6.66976">
        <ele>830.14</ele>
        <time>2022-10-10T10:02:23Z</time>
      </trkpt>
      <trkpt lat="43.93318" lon="6.6697">
        <ele>830.56</ele>
        <time>2022-10-10T10:02:24Z</time>
      </trkpt>
      <trkpt lat="43.93308" lon="6.6696">
        <ele>831.96</ele>
        <time>2022-10-10T10:02:25Z</time>
      </trkpt>
      <trkpt lat="43.93302" lon="6.66945">
        <ele>832.53</ele>
        <time>2022-10-10T10:02:26Z</time>
      </trkpt>
      <trkpt lat="43.93297" lon="6.66927">
        <ele>833.52</ele>
        <time>2022-10-10T10:02:27Z</time>
      </trkpt>
      <trkpt lat="43.93292" lon="6.66909">
        <ele>834.51</ele>
        <time>2022-10-10T10:02:28Z</time>
      </trkpt>
      <trkpt lat="43.93283" lon="6.66892">
        <ele>836.08</ele>
        <time>2022-10-10T10:02:29Z</time>
      </trkpt>
      <trkpt lat="43.93271" lon="6.66879">
        <ele>838.26</ele>
        <time>2022-10-10T10:02:30Z</time>
      </trkpt>
      <trkpt lat="43.93257" lon="6.66869">
        <ele>839.12</ele>
        <time>2022-10-10T10:02:31Z</time>
      </trkpt>
      <trkpt lat="43.93244" lon="6.66861">
        <ele>838.5</ele>
        <time>2022-10-10T10:02:32Z</time>
      </trkpt>
      <trkpt lat="43.93233" lon="6.6685">
        <ele>839.37</ele>
        <time>2022-10-10T10:02:33Z</time>
      </trkpt>
      <trkpt lat="43.93225" lon="6.66836">
        <ele>839.32</ele>
        <time>2022-10-10T10:02:34Z</time>
      </trkpt>
      <trkpt lat="43.9322" lon="6.66819">
        <ele>841.5</ele>
        <time>2022-10-10T10:02:35Z</time>
      </trkpt>
      <trkpt lat="43.93214" lon="6.66802">
        <ele>842.58</ele>
        <time>2022-10-10T10:02:36Z</time>
      </trkpt>
      <trkpt lat="43.93203" lon="6.66767">
        <ele>842.96</ele>
        <time>2022-10-10T10:02:38Z</time>
      </trkpt>
      <trkpt lat="43.932" lon="6.66749">
        <ele>844.19</ele>
        <time>2022-10-10T10:02:39Z</time>
      </trkpt>
      <trkpt lat="43.93201" lon="6.6673">
        <ele>845.14</ele>
        <time>2022-10-10T10:02:40Z</time>
      </trkpt>
      <trkpt lat="43.93203" lon="6.6671">
        <ele>846.15</ele>
        <time>2022-10-10T10:02:41Z</time>
      </trkpt>
      <trkpt lat="43.93206" lon="6.6669">
        <ele>847.4</ele>
        <time>2022-10-10T10:02:42Z</time>
      </trkpt>
      <trkpt lat="43.93212" lon="6.66651">
        <ele>848.35</ele>
        <time>2022-10-10T10:02:44Z</time>
      </trkpt>
      <trkpt lat="43.93217" lon="6.66634">
        <ele>849.38</ele>
        <time>2022-10-10T10:02:45Z</time>
      </trkpt>
      <trkpt lat="43.93225" lon="6.66605">
        <ele>850.38</ele>
        <time>2022-10-10T10:02:47Z</time>
      </trkpt>
      <trkpt lat="43.93223" lon="6.66591">
        <ele>851.17</ele>
        <time>2022-10-10T10:02:48Z</time>
      </trkpt>
      <trkpt lat="43.93216" lon="6.66579">
        <ele>851.24</ele>
        <time>2022-10-10T10:02:49Z</time>
      </trkpt>
      <trkpt lat="43.93207" lon="6.66571">
        <ele>853.14</ele>
        <time>2022-10-10T10:02:50Z</time>
      </trkpt>
      <trkpt lat="43.93195" lon="6.66569">
        <ele>853.12</ele>
        <time>2022-10-10T10:02:51Z</time>
      </trkpt>
      <trkpt lat="43.93181" lon="6.66571">
        <ele>854.57</ele>
        <time>2022-10-10T10:02:52Z</time>
      </trkpt>
      <trkpt lat="43.93167" lon="6.66574">
        <ele>855.51</ele>
        <time>2022-10-10T10:02:53Z</time>
      </trkpt>
      <trkpt lat="43.93154" lon="6.66574">
        <ele>855.59</ele>
        <time>2022-10-10T10:02:54Z</time>
      </trkpt>
      <trkpt lat="43.93143" lon="6.6657">
        <ele>855.56</ele>
        <time>2022-10-10T10:02:55Z</time>
      </trkpt>
      <trkpt lat="43.93133" lon="6.66562">
        <ele>855.56</ele>
        <time>2022-10-10T10:02:56Z</time>
      </trkpt>
      <trkpt lat="43.93126" lon="6.66552">
        <ele>855.63</ele>
        <time>2022-10-10T10:02:57Z</time>
      </trkpt>
      <trkpt lat="43.93122" lon="6.66539">
        <ele>856.56</ele>
        <time>2022-10-10T10:02:58Z</time>
      </trkpt>
      <trkpt lat="43.9312" lon="6.66526">
        <ele>856.57</ele>
        <time>2022-10-10T10:02:59Z</time>
      </trkpt>
      <trkpt lat="43.9312" lon="6.66513">
        <ele>856.51</ele>
        <time>2022-10-10T10:03:00Z</time>
      </trkpt>
      <trkpt lat="43.93124" lon="6.66501">
        <ele>856.45</ele>
        <time>2022-10-10T10:03:01Z</time>
      </trkpt>
      <trkpt lat="43.93129" lon="6.6649">
        <ele>856.45</ele>
        <time>2022-10-10T10:03:02Z</time>
      </trkpt>
      <trkpt lat="43.93134" lon="6.66478">
        <ele>856.05</ele>
        <time>2022-10-10T10:03:03Z</time>
      </trkpt>
      <trkpt lat="43.93151" lon="6.66439">
        <ele>857.32</ele>
        <time>2022-10-10T10:03:06Z</time>
      </trkpt>
      <trkpt lat="43.93155" lon="6.66423">
        <ele>857.29</ele>
        <time>2022-10-10T10:03:07Z</time>
      </trkpt>
      <trkpt lat="43.93156" lon="6.66406">
        <ele>858.15</ele>
        <time>2022-10-10T10:03:08Z</time>
      </trkpt>
      <trkpt lat="43.93158" lon="6.66322">
        <ele>859.58</ele>
        <time>2022-10-10T10:03:12Z</time>
      </trkpt>
      <trkpt lat="43.9316" lon="6.66301">
        <ele>860.51</ele>
        <time>2022-10-10T10:03:13Z</time>
      </trkpt>
      <trkpt lat="43.93163" lon="6.66279">
        <ele>860.51</ele>
        <time>2022-10-10T10:03:14Z</time>
      </trkpt>
      <trkpt lat="43.93171" lon="6.66237">
        <ele>862.38</ele>
        <time>2022-10-10T10:03:16Z</time>
      </trkpt>
      <trkpt lat="43.93171" lon="6.66216">
        <ele>862.39</ele>
        <time>2022-10-10T10:03:17Z</time>
      </trkpt>
      <trkpt lat="43.93167" lon="6.66195">
        <ele>863.46</ele>
        <time>2022-10-10T10:03:18Z</time>
      </trkpt>
      <trkpt lat="43.93161" lon="6.66174">
        <ele>863.47</ele>
        <time>2022-10-10T10:03:19Z</time>
      </trkpt>
      <trkpt lat="43.93155" lon="6.66153">
        <ele>863.47</ele>
        <time>2022-10-10T10:03:20Z</time>
      </trkpt>
      <trkpt lat="43.93141" lon="6.66111">
        <ele>865.56</ele>
        <time>2022-10-10T10:03:22Z</time>
      </trkpt>
      <trkpt lat="43.93131" lon="6.6607">
        <ele>865.59</ele>
        <time>2022-10-10T10:03:24Z</time>
      </trkpt>
      <trkpt lat="43.93129" lon="6.6605">
        <ele>865.61</ele>
        <time>2022-10-10T10:03:25Z</time>
      </trkpt>
      <trkpt lat="43.93132" lon="6.66029">
        <ele>866.86</ele>
        <time>2022-10-10T10:03:26Z</time>
      </trkpt>
      <trkpt lat="43.93137" lon="6.6601">
        <ele>866.89</ele>
        <time>2022-10-10T10:03:27Z</time>
      </trkpt>
      <trkpt lat="43.93143" lon="6.6599">
        <ele>867.69</ele>
        <time>2022-10-10T10:03:28Z</time>
      </trkpt>
      <trkpt lat="43.9315" lon="6.65971">
        <ele>868.48</ele>
        <time>2022-10-10T10:03:29Z</time>
      </trkpt>
      <trkpt lat="43.93157" lon="6.6595">
        <ele>868.54</ele>
        <time>2022-10-10T10:03:30Z</time>
      </trkpt>
      <trkpt lat="43.93174" lon="6.65876">
        <ele>870.52</ele>
        <time>2022-10-10T10:03:34Z</time>
      </trkpt>
      <trkpt lat="43.93172" lon="6.65861">
        <ele>870.53</ele>
        <time>2022-10-10T10:03:35Z</time>
      </trkpt>
      <trkpt lat="43.93167" lon="6.65846">
        <ele>872.37</ele>
        <time>2022-10-10T10:03:36Z</time>
      </trkpt>
      <trkpt lat="43.93158" lon="6.65835">
        <ele>872.4</ele>
        <time>2022-10-10T10:03:37Z</time>
      </trkpt>
      <trkpt lat="43.93146" lon="6.65829">
        <ele>873.4</ele>
        <time>2022-10-10T10:03:38Z</time>
      </trkpt>
      <trkpt lat="43.93133" lon="6.65822">
        <ele>873.4</ele>
        <time>2022-10-10T10:03:39Z</time>
      </trkpt>
      <trkpt lat="43.93121" lon="6.65813">
        <ele>875.15</ele>
        <time>2022-10-10T10:03:40Z</time>
      </trkpt>
      <trkpt lat="43.93109" lon="6.658">
        <ele>875.14</ele>
        <time>2022-10-10T10:03:41Z</time>
      </trkpt>
      <trkpt lat="43.93098" lon="6.65786">
        <ele>876.83</ele>
        <time>2022-10-10T10:03:42Z</time>
      </trkpt>
      <trkpt lat="43.93077" lon="6.65755">
        <ele>877.94</ele>
        <time>2022-10-10T10:03:44Z</time>
      </trkpt>
      <trkpt lat="43.9307" lon="6.65738">
        <ele>878.83</ele>
        <time>2022-10-10T10:03:45Z</time>
      </trkpt>
      <trkpt lat="43.93066" lon="6.65718">
        <ele>879.7</ele>
        <time>2022-10-10T10:03:46Z</time>
      </trkpt>
      <trkpt lat="43.93066" lon="6.65697">
        <ele>880.59</ele>
        <time>2022-10-10T10:03:47Z</time>
      </trkpt>
      <trkpt lat="43.93068" lon="6.65676">
        <ele>881.66</ele>
        <time>2022-10-10T10:03:48Z</time>
      </trkpt>
      <trkpt lat="43.93073" lon="6.65653">
        <ele>883.25</ele>
        <time>2022-10-10T10:03:49Z</time>
      </trkpt>
      <trkpt lat="43.93077" lon="6.65631">
        <ele>883.24</ele>
        <time>2022-10-10T10:03:50Z</time>
      </trkpt>
      <trkpt lat="43.93085" lon="6.65585">
        <ele>884.2</ele>
        <time>2022-10-10T10:03:52Z</time>
      </trkpt>
      <trkpt lat="43.93086" lon="6.6556">
        <ele>884.27</ele>
        <time>2022-10-10T10:03:53Z</time>
      </trkpt>
      <trkpt lat="43.93088" lon="6.65512">
        <ele>883.55</ele>
        <time>2022-10-10T10:03:55Z</time>
      </trkpt>
      <trkpt lat="43.93092" lon="6.6549">
        <ele>883.61</ele>
        <time>2022-10-10T10:03:56Z</time>
      </trkpt>
      <trkpt lat="43.931" lon="6.65471">
        <ele>883.65</ele>
        <time>2022-10-10T10:03:57Z</time>
      </trkpt>
      <trkpt lat="43.93112" lon="6.65454">
        <ele>881.32</ele>
        <time>2022-10-10T10:03:58Z</time>
      </trkpt>
      <trkpt lat="43.93125" lon="6.65438">
        <ele>881.35</ele>
        <time>2022-10-10T10:03:59Z</time>
      </trkpt>
      <trkpt lat="43.93137" lon="6.65418">
        <ele>881.32</ele>
        <time>2022-10-10T10:04:00Z</time>
      </trkpt>
      <trkpt lat="43.93146" lon="6.65394">
        <ele>881.32</ele>
        <time>2022-10-10T10:04:01Z</time>
      </trkpt>
      <trkpt lat="43.93153" lon="6.6537">
        <ele>879.65</ele>
        <time>2022-10-10T10:04:02Z</time>
      </trkpt>
      <trkpt lat="43.93161" lon="6.65347">
        <ele>879.63</ele>
        <time>2022-10-10T10:04:03Z</time>
      </trkpt>
      <trkpt lat="43.9317" lon="6.65325">
        <ele>877.93</ele>
        <time>2022-10-10T10:04:04Z</time>
      </trkpt>
      <trkpt lat="43.93181" lon="6.65305">
        <ele>877.9</ele>
        <time>2022-10-10T10:04:05Z</time>
      </trkpt>
      <trkpt lat="43.93283" lon="6.65134">
        <ele>875.23</ele>
        <time>2022-10-10T10:04:13Z</time>
      </trkpt>
      <trkpt lat="43.93294" lon="6.6511">
        <ele>875.25</ele>
        <time>2022-10-10T10:04:14Z</time>
      </trkpt>
      <trkpt lat="43.9331" lon="6.65063">
        <ele>875.23</ele>
        <time>2022-10-10T10:04:16Z</time>
      </trkpt>
      <trkpt lat="43.93314" lon="6.65039">
        <ele>873.92</ele>
        <time>2022-10-10T10:04:17Z</time>
      </trkpt>
      <trkpt lat="43.93315" lon="6.65017">
        <ele>874.17</ele>
        <time>2022-10-10T10:04:18Z</time>
      </trkpt>
      <trkpt lat="43.9331" lon="6.64997">
        <ele>874.17</ele>
        <time>2022-10-10T10:04:19Z</time>
      </trkpt>
      <trkpt lat="43.93301" lon="6.6498">
        <ele>874.15</ele>
        <time>2022-10-10T10:04:20Z</time>
      </trkpt>
      <trkpt lat="43.9329" lon="6.64966">
        <ele>873.4</ele>
        <time>2022-10-10T10:04:21Z</time>
      </trkpt>
      <trkpt lat="43.9327" lon="6.64936">
        <ele>873.39</ele>
        <time>2022-10-10T10:04:23Z</time>
      </trkpt>
      <trkpt lat="43.93262" lon="6.64917">
        <ele>873.41</ele>
        <time>2022-10-10T10:04:24Z</time>
      </trkpt>
      <trkpt lat="43.93257" lon="6.64896">
        <ele>873.41</ele>
        <time>2022-10-10T10:04:25Z</time>
      </trkpt>
      <trkpt lat="43.93247" lon="6.64838">
        <ele>877.19</ele>
        <time>2022-10-10T10:04:28Z</time>
      </trkpt>
      <trkpt lat="43.93244" lon="6.64818">
        <ele>877.2</ele>
        <time>2022-10-10T10:04:29Z</time>
      </trkpt>
      <trkpt lat="43.93243" lon="6.64797">
        <ele>878.72</ele>
        <time>2022-10-10T10:04:30Z</time>
      </trkpt>
      <trkpt lat="43.93244" lon="6.64776">
        <ele>879.74</ele>
        <time>2022-10-10T10:04:31Z</time>
      </trkpt>
      <trkpt lat="43.93247" lon="6.64755">
        <ele>880.88</ele>
        <time>2022-10-10T10:04:32Z</time>
      </trkpt>
      <trkpt lat="43.93254" lon="6.64716">
        <ele>881.99</ele>
        <time>2022-10-10T10:04:34Z</time>
      </trkpt>
      <trkpt lat="43.93262" lon="6.64639">
        <ele>886.76</ele>
        <time>2022-10-10T10:04:38Z</time>
      </trkpt>
      <trkpt lat="43.9326" lon="6.6462">
        <ele>886.76</ele>
        <time>2022-10-10T10:04:39Z</time>
      </trkpt>
      <trkpt lat="43.93256" lon="6.646">
        <ele>888.18</ele>
        <time>2022-10-10T10:04:40Z</time>
      </trkpt>
      <trkpt lat="43.93249" lon="6.64582">
        <ele>889.94</ele>
        <time>2022-10-10T10:04:41Z</time>
      </trkpt>
      <trkpt lat="43.93241" lon="6.64564">
        <ele>889.94</ele>
        <time>2022-10-10T10:04:42Z</time>
      </trkpt>
      <trkpt lat="43.93232" lon="6.64547">
        <ele>890.85</ele>
        <time>2022-10-10T10:04:43Z</time>
      </trkpt>
      <trkpt lat="43.93223" lon="6.64529">
        <ele>890.85</ele>
        <time>2022-10-10T10:04:44Z</time>
      </trkpt>
      <trkpt lat="43.93207" lon="6.64496">
        <ele>893.03</ele>
        <time>2022-10-10T10:04:46Z</time>
      </trkpt>
      <trkpt lat="43.93185" lon="6.64446">
        <ele>894.93</ele>
        <time>2022-10-10T10:04:49Z</time>
      </trkpt>
      <trkpt lat="43.93174" lon="6.64433">
        <ele>896.32</ele>
        <time>2022-10-10T10:04:50Z</time>
      </trkpt>
      <trkpt lat="43.93162" lon="6.64422">
        <ele>896.22</ele>
        <time>2022-10-10T10:04:51Z</time>
      </trkpt>
      <trkpt lat="43.93149" lon="6.64412">
        <ele>897.39</ele>
        <time>2022-10-10T10:04:52Z</time>
      </trkpt>
      <trkpt lat="43.93136" lon="6.64403">
        <ele>898.51</ele>
        <time>2022-10-10T10:04:53Z</time>
      </trkpt>
      <trkpt lat="43.9311" lon="6.64387">
        <ele>899.39</ele>
        <time>2022-10-10T10:04:55Z</time>
      </trkpt>
      <trkpt lat="43.93096" lon="6.64383">
        <ele>899.37</ele>
        <time>2022-10-10T10:04:56Z</time>
      </trkpt>
      <trkpt lat="43.93083" lon="6.64379">
        <ele>900.72</ele>
        <time>2022-10-10T10:04:57Z</time>
      </trkpt>
      <trkpt lat="43.93071" lon="6.64377">
        <ele>900.7</ele>
        <time>2022-10-10T10:04:58Z</time>
      </trkpt>
      <trkpt lat="43.93051" lon="6.64374">
        <ele>902.33</ele>
        <time>2022-10-10T10:05:00Z</time>
      </trkpt>
      <trkpt lat="43.93042" lon="6.64371">
        <ele>903.28</ele>
        <time>2022-10-10T10:05:01Z</time>
      </trkpt>
      <trkpt lat="43.93035" lon="6.64365">
        <ele>903.25</ele>
        <time>2022-10-10T10:05:02Z</time>
      </trkpt>
      <trkpt lat="43.9303" lon="6.64355">
        <ele>904.71</ele>
        <time>2022-10-10T10:05:03Z</time>
      </trkpt>
      <trkpt lat="43.93028" lon="6.64344">
        <ele>904.7</ele>
        <time>2022-10-10T10:05:04Z</time>
      </trkpt>
      <trkpt lat="43.93027" lon="6.64333">
        <ele>906.03</ele>
        <time>2022-10-10T10:05:05Z</time>
      </trkpt>
      <trkpt lat="43.9303" lon="6.64323">
        <ele>906.03</ele>
        <time>2022-10-10T10:05:06Z</time>
      </trkpt>
      <trkpt lat="43.93036" lon="6.64315">
        <ele>905.98</ele>
        <time>2022-10-10T10:05:07Z</time>
      </trkpt>
      <trkpt lat="43.93044" lon="6.64307">
        <ele>908.04</ele>
        <time>2022-10-10T10:05:08Z</time>
      </trkpt>
      <trkpt lat="43.93053" lon="6.643">
        <ele>908.91</ele>
        <time>2022-10-10T10:05:09Z</time>
      </trkpt>
      <trkpt lat="43.93083" lon="6.64271">
        <ele>911.67</ele>
        <time>2022-10-10T10:05:12Z</time>
      </trkpt>
      <trkpt lat="43.93091" lon="6.64259">
        <ele>911.66</ele>
        <time>2022-10-10T10:05:13Z</time>
      </trkpt>
      <trkpt lat="43.93097" lon="6.64246">
        <ele>911.74</ele>
        <time>2022-10-10T10:05:14Z</time>
      </trkpt>
      <trkpt lat="43.93102" lon="6.64232">
        <ele>913.25</ele>
        <time>2022-10-10T10:05:15Z</time>
      </trkpt>
      <trkpt lat="43.93106" lon="6.64217">
        <ele>914.37</ele>
        <time>2022-10-10T10:05:16Z</time>
      </trkpt>
      <trkpt lat="43.9311" lon="6.64202">
        <ele>914.43</ele>
        <time>2022-10-10T10:05:17Z</time>
      </trkpt>
      <trkpt lat="43.93115" lon="6.64187">
        <ele>915.63</ele>
        <time>2022-10-10T10:05:18Z</time>
      </trkpt>
      <trkpt lat="43.93122" lon="6.64173">
        <ele>916.52</ele>
        <time>2022-10-10T10:05:19Z</time>
      </trkpt>
      <trkpt lat="43.93131" lon="6.6416">
        <ele>917.34</ele>
        <time>2022-10-10T10:05:20Z</time>
      </trkpt>
      <trkpt lat="43.93161" lon="6.64118">
        <ele>920.55</ele>
        <time>2022-10-10T10:05:23Z</time>
      </trkpt>
      <trkpt lat="43.93183" lon="6.64086">
        <ele>922.63</ele>
        <time>2022-10-10T10:05:25Z</time>
      </trkpt>
      <trkpt lat="43.93192" lon="6.64068">
        <ele>922.62</ele>
        <time>2022-10-10T10:05:26Z</time>
      </trkpt>
      <trkpt lat="43.93208" lon="6.64031">
        <ele>924.74</ele>
        <time>2022-10-10T10:05:28Z</time>
      </trkpt>
      <trkpt lat="43.93234" lon="6.63976">
        <ele>928.17</ele>
        <time>2022-10-10T10:05:31Z</time>
      </trkpt>
      <trkpt lat="43.93245" lon="6.63959">
        <ele>929.35</ele>
        <time>2022-10-10T10:05:32Z</time>
      </trkpt>
      <trkpt lat="43.93257" lon="6.63944">
        <ele>930.26</ele>
        <time>2022-10-10T10:05:33Z</time>
      </trkpt>
      <trkpt lat="43.93269" lon="6.63929">
        <ele>930.36</ele>
        <time>2022-10-10T10:05:34Z</time>
      </trkpt>
      <trkpt lat="43.93304" lon="6.63884">
        <ele>934.27</ele>
        <time>2022-10-10T10:05:37Z</time>
      </trkpt>
      <trkpt lat="43.93329" lon="6.63853">
        <ele>935.67</ele>
        <time>2022-10-10T10:05:39Z</time>
      </trkpt>
      <trkpt lat="43.93358" lon="6.63824">
        <ele>938.81</ele>
        <time>2022-10-10T10:05:41Z</time>
      </trkpt>
      <trkpt lat="43.93373" lon="6.63812">
        <ele>938.8</ele>
        <time>2022-10-10T10:05:42Z</time>
      </trkpt>
      <trkpt lat="43.93402" lon="6.63791">
        <ele>940.52</ele>
        <time>2022-10-10T10:05:44Z</time>
      </trkpt>
      <trkpt lat="43.93448" lon="6.63762">
        <ele>944.5</ele>
        <time>2022-10-10T10:05:47Z</time>
      </trkpt>
      <trkpt lat="43.93464" lon="6.63754">
        <ele>944.48</ele>
        <time>2022-10-10T10:05:48Z</time>
      </trkpt>
      <trkpt lat="43.93495" lon="6.63739">
        <ele>946.5</ele>
        <time>2022-10-10T10:05:50Z</time>
      </trkpt>
      <trkpt lat="43.9354" lon="6.63713">
        <ele>949.24</ele>
        <time>2022-10-10T10:05:53Z</time>
      </trkpt>
      <trkpt lat="43.93594" lon="6.63669">
        <ele>952.15</ele>
        <time>2022-10-10T10:05:57Z</time>
      </trkpt>
      <trkpt lat="43.93628" lon="6.63641">
        <ele>953.67</ele>
        <time>2022-10-10T10:06:00Z</time>
      </trkpt>
      <trkpt lat="43.93657" lon="6.63614">
        <ele>955.59</ele>
        <time>2022-10-10T10:06:03Z</time>
      </trkpt>
      <trkpt lat="43.93665" lon="6.63604">
        <ele>955.65</ele>
        <time>2022-10-10T10:06:04Z</time>
      </trkpt>
      <trkpt lat="43.93672" lon="6.63593">
        <ele>957.03</ele>
        <time>2022-10-10T10:06:05Z</time>
      </trkpt>
      <trkpt lat="43.93677" lon="6.6358">
        <ele>957.02</ele>
        <time>2022-10-10T10:06:06Z</time>
      </trkpt>
      <trkpt lat="43.93678" lon="6.63566">
        <ele>957</ele>
        <time>2022-10-10T10:06:07Z</time>
      </trkpt>
      <trkpt lat="43.93676" lon="6.63551">
        <ele>957.03</ele>
        <time>2022-10-10T10:06:08Z</time>
      </trkpt>
      <trkpt lat="43.93668" lon="6.63536">
        <ele>957</ele>
        <time>2022-10-10T10:06:09Z</time>
      </trkpt>
      <trkpt lat="43.93657" lon="6.63524">
        <ele>957.84</ele>
        <time>2022-10-10T10:06:10Z</time>
      </trkpt>
      <trkpt lat="43.93643" lon="6.6352">
        <ele>957.88</ele>
        <time>2022-10-10T10:06:11Z</time>
      </trkpt>
      <trkpt lat="43.93626" lon="6.63522">
        <ele>959.22</ele>
        <time>2022-10-10T10:06:12Z</time>
      </trkpt>
      <trkpt lat="43.93609" lon="6.63527">
        <ele>960.55</ele>
        <time>2022-10-10T10:06:13Z</time>
      </trkpt>
      <trkpt lat="43.93591" lon="6.6353">
        <ele>961.79</ele>
        <time>2022-10-10T10:06:14Z</time>
      </trkpt>
      <trkpt lat="43.93574" lon="6.63528">
        <ele>963.26</ele>
        <time>2022-10-10T10:06:15Z</time>
      </trkpt>
      <trkpt lat="43.93556" lon="6.63524">
        <ele>964.46</ele>
        <time>2022-10-10T10:06:16Z</time>
      </trkpt>
      <trkpt lat="43.93537" lon="6.6352">
        <ele>965.84</ele>
        <time>2022-10-10T10:06:17Z</time>
      </trkpt>
      <trkpt lat="43.93519" lon="6.6352">
        <ele>967.18</ele>
        <time>2022-10-10T10:06:18Z</time>
      </trkpt>
      <trkpt lat="43.93502" lon="6.63521">
        <ele>967.17</ele>
        <time>2022-10-10T10:06:19Z</time>
      </trkpt>
      <trkpt lat="43.93486" lon="6.63522">
        <ele>967.24</ele>
        <time>2022-10-10T10:06:20Z</time>
      </trkpt>
      <trkpt lat="43.93471" lon="6.63517">
        <ele>967.84</ele>
        <time>2022-10-10T10:06:21Z</time>
      </trkpt>
      <trkpt lat="43.93458" lon="6.63506">
        <ele>969.13</ele>
        <time>2022-10-10T10:06:22Z</time>
      </trkpt>
      <trkpt lat="43.93429" lon="6.63477">
        <ele>971.63</ele>
        <time>2022-10-10T10:06:24Z</time>
      </trkpt>
      <trkpt lat="43.93413" lon="6.63465">
        <ele>971.62</ele>
        <time>2022-10-10T10:06:25Z</time>
      </trkpt>
      <trkpt lat="43.93386" lon="6.63444">
        <ele>972.66</ele>
        <time>2022-10-10T10:06:27Z</time>
      </trkpt>
      <trkpt lat="43.93378" lon="6.6343">
        <ele>973.5</ele>
        <time>2022-10-10T10:06:28Z</time>
      </trkpt>
      <trkpt lat="43.93374" lon="6.63413">
        <ele>974.37</ele>
        <time>2022-10-10T10:06:29Z</time>
      </trkpt>
      <trkpt lat="43.93374" lon="6.63393">
        <ele>975.69</ele>
        <time>2022-10-10T10:06:30Z</time>
      </trkpt>
      <trkpt lat="43.93374" lon="6.63371">
        <ele>977.29</ele>
        <time>2022-10-10T10:06:31Z</time>
      </trkpt>
      <trkpt lat="43.9337" lon="6.63348">
        <ele>978.62</ele>
        <time>2022-10-10T10:06:32Z</time>
      </trkpt>
      <trkpt lat="43.93361" lon="6.63326">
        <ele>980.36</ele>
        <time>2022-10-10T10:06:33Z</time>
      </trkpt>
      <trkpt lat="43.93352" lon="6.63302">
        <ele>981.55</ele>
        <time>2022-10-10T10:06:34Z</time>
      </trkpt>
      <trkpt lat="43.93345" lon="6.63276">
        <ele>982.86</ele>
        <time>2022-10-10T10:06:35Z</time>
      </trkpt>
      <trkpt lat="43.93339" lon="6.63248">
        <ele>984.42</ele>
        <time>2022-10-10T10:06:36Z</time>
      </trkpt>
      <trkpt lat="43.93334" lon="6.63219">
        <ele>986.28</ele>
        <time>2022-10-10T10:06:37Z</time>
      </trkpt>
      <trkpt lat="43.93318" lon="6.63132">
        <ele>990.49</ele>
        <time>2022-10-10T10:06:40Z</time>
      </trkpt>
      <trkpt lat="43.93298" lon="6.63015">
        <ele>994.48</ele>
        <time>2022-10-10T10:06:44Z</time>
      </trkpt>
      <trkpt lat="43.93292" lon="6.6296">
        <ele>995.24</ele>
        <time>2022-10-10T10:06:46Z</time>
      </trkpt>
      <trkpt lat="43.93288" lon="6.62934">
        <ele>996.95</ele>
        <time>2022-10-10T10:06:47Z</time>
      </trkpt>
      <trkpt lat="43.93282" lon="6.62908">
        <ele>998.49</ele>
        <time>2022-10-10T10:06:48Z</time>
      </trkpt>
      <trkpt lat="43.93273" lon="6.62882">
        <ele>999.89</ele>
        <time>2022-10-10T10:06:49Z</time>
      </trkpt>
      <trkpt lat="43.93243" lon="6.62802">
        <ele>1003.71</ele>
        <time>2022-10-10T10:06:52Z</time>
      </trkpt>
      <trkpt lat="43.93216" lon="6.62718">
        <ele>1006.19</ele>
        <time>2022-10-10T10:06:55Z</time>
      </trkpt>
      <trkpt lat="43.93197" lon="6.62664">
        <ele>1009.81</ele>
        <time>2022-10-10T10:06:57Z</time>
      </trkpt>
      <trkpt lat="43.93189" lon="6.62637">
        <ele>1011.3</ele>
        <time>2022-10-10T10:06:58Z</time>
      </trkpt>
      <trkpt lat="43.93183" lon="6.6261">
        <ele>1012.06</ele>
        <time>2022-10-10T10:06:59Z</time>
      </trkpt>
      <trkpt lat="43.93171" lon="6.62558">
        <ele>1013.43</ele>
        <time>2022-10-10T10:07:01Z</time>
      </trkpt>
      <trkpt lat="43.9316" lon="6.62536">
        <ele>1015.14</ele>
        <time>2022-10-10T10:07:02Z</time>
      </trkpt>
      <trkpt lat="43.93147" lon="6.62516">
        <ele>1016.56</ele>
        <time>2022-10-10T10:07:03Z</time>
      </trkpt>
      <trkpt lat="43.9313" lon="6.625">
        <ele>1017.95</ele>
        <time>2022-10-10T10:07:04Z</time>
      </trkpt>
      <trkpt lat="43.93113" lon="6.62487">
        <ele>1019.57</ele>
        <time>2022-10-10T10:07:05Z</time>
      </trkpt>
      <trkpt lat="43.93095" lon="6.62477">
        <ele>1020.65</ele>
        <time>2022-10-10T10:07:06Z</time>
      </trkpt>
      <trkpt lat="43.93078" lon="6.62469">
        <ele>1020.62</ele>
        <time>2022-10-10T10:07:07Z</time>
      </trkpt>
      <trkpt lat="43.93032" lon="6.62441">
        <ele>1022.02</ele>
        <time>2022-10-10T10:07:10Z</time>
      </trkpt>
      <trkpt lat="43.93018" lon="6.62428">
        <ele>1022.03</ele>
        <time>2022-10-10T10:07:11Z</time>
      </trkpt>
      <trkpt lat="43.93005" lon="6.62414">
        <ele>1023.6</ele>
        <time>2022-10-10T10:07:12Z</time>
      </trkpt>
      <trkpt lat="43.92969" lon="6.62373">
        <ele>1025.73</ele>
        <time>2022-10-10T10:07:15Z</time>
      </trkpt>
      <trkpt lat="43.92947" lon="6.62346">
        <ele>1027.4</ele>
        <time>2022-10-10T10:07:17Z</time>
      </trkpt>
      <trkpt lat="43.92924" lon="6.62315">
        <ele>1029.33</ele>
        <time>2022-10-10T10:07:19Z</time>
      </trkpt>
      <trkpt lat="43.92902" lon="6.62283">
        <ele>1031.06</ele>
        <time>2022-10-10T10:07:21Z</time>
      </trkpt>
      <trkpt lat="43.92881" lon="6.62246">
        <ele>1032.85</ele>
        <time>2022-10-10T10:07:23Z</time>
      </trkpt>
      <trkpt lat="43.92859" lon="6.62202">
        <ele>1037.05</ele>
        <time>2022-10-10T10:07:25Z</time>
      </trkpt>
      <trkpt lat="43.92833" lon="6.62149">
        <ele>1042.41</ele>
        <time>2022-10-10T10:07:27Z</time>
      </trkpt>
      <trkpt lat="43.92805" lon="6.6209">
        <ele>1044.8</ele>
        <time>2022-10-10T10:07:29Z</time>
      </trkpt>
      <trkpt lat="43.92777" lon="6.62029">
        <ele>1049.5</ele>
        <time>2022-10-10T10:07:31Z</time>
      </trkpt>
      <trkpt lat="43.92738" lon="6.61943">
        <ele>1052.38</ele>
        <time>2022-10-10T10:07:34Z</time>
      </trkpt>
      <trkpt lat="43.92686" lon="6.61823">
        <ele>1054.69</ele>
        <time>2022-10-10T10:07:39Z</time>
      </trkpt>
      <trkpt lat="43.92665" lon="6.61785">
        <ele>1055.61</ele>
        <time>2022-10-10T10:07:41Z</time>
      </trkpt>
      <trkpt lat="43.92655" lon="6.61771">
        <ele>1055.61</ele>
        <time>2022-10-10T10:07:42Z</time>
      </trkpt>
      <trkpt lat="43.92644" lon="6.6176">
        <ele>1055.7</ele>
        <time>2022-10-10T10:07:43Z</time>
      </trkpt>
      <trkpt lat="43.92634" lon="6.61753">
        <ele>1056.55</ele>
        <time>2022-10-10T10:07:44Z</time>
      </trkpt>
      <trkpt lat="43.92623" lon="6.61748">
        <ele>1056.59</ele>
        <time>2022-10-10T10:07:45Z</time>
      </trkpt>
      <trkpt lat="43.92576" lon="6.61725">
        <ele>1057.76</ele>
        <time>2022-10-10T10:07:52Z</time>
      </trkpt>
      <trkpt lat="43.92571" lon="6.61724">
        <ele>1057.72</ele>
        <time>2022-10-10T10:08:00Z</time>
      </trkpt>
      <trkpt lat="43.92571" lon="6.61724">
        <ele>1057.66</ele>
        <time>2022-10-10T10:08:04Z</time>
      </trkpt>
      <trkpt lat="43.92568" lon="6.61725">
        <ele>1058.45</ele>
        <time>2022-10-10T10:08:05Z</time>
      </trkpt>
      <trkpt lat="43.92564" lon="6.61723">
        <ele>1058.45</ele>
        <time>2022-10-10T10:08:06Z</time>
      </trkpt>
      <trkpt lat="43.92558" lon="6.61721">
        <ele>1058.45</ele>
        <time>2022-10-10T10:08:07Z</time>
      </trkpt>
      <trkpt lat="43.92553" lon="6.61719">
        <ele>1058.46</ele>
        <time>2022-10-10T10:08:08Z</time>
      </trkpt>
      <trkpt lat="43.92549" lon="6.61717">
        <ele>1058.46</ele>
        <time>2022-10-10T10:08:09Z</time>
      </trkpt>
      <trkpt lat="43.92546" lon="6.61716">
        <ele>1058.46</ele>
        <time>2022-10-10T10:08:10Z</time>
      </trkpt>
      <trkpt lat="43.92544" lon="6.61715">
        <ele>1058.47</ele>
        <time>2022-10-10T10:08:11Z</time>
      </trkpt>
      <trkpt lat="43.92541" lon="6.61714">
        <ele>1059.52</ele>
        <time>2022-10-10T10:08:22Z</time>
      </trkpt>
      <trkpt lat="43.92531" lon="6.61708">
        <ele>1059.52</ele>
        <time>2022-10-10T10:08:40Z</time>
      </trkpt>
      <trkpt lat="43.92492" lon="6.61692">
        <ele>1062.61</ele>
        <time>2022-10-10T10:08:44Z</time>
      </trkpt>
      <trkpt lat="43.92467" lon="6.61678">
        <ele>1064.94</ele>
        <time>2022-10-10T10:08:46Z</time>
      </trkpt>
      <trkpt lat="43.92424" lon="6.61643">
        <ele>1069</ele>
        <time>2022-10-10T10:08:49Z</time>
      </trkpt>
      <trkpt lat="43.92382" lon="6.61606">
        <ele>1070.76</ele>
        <time>2022-10-10T10:08:52Z</time>
      </trkpt>
      <trkpt lat="43.92351" lon="6.61574">
        <ele>1072.61</ele>
        <time>2022-10-10T10:08:55Z</time>
      </trkpt>
      <trkpt lat="43.92345" lon="6.61561">
        <ele>1072.62</ele>
        <time>2022-10-10T10:08:56Z</time>
      </trkpt>
      <trkpt lat="43.9234" lon="6.61544">
        <ele>1073.9</ele>
        <time>2022-10-10T10:08:57Z</time>
      </trkpt>
      <trkpt lat="43.92338" lon="6.61525">
        <ele>1074.99</ele>
        <time>2022-10-10T10:08:58Z</time>
      </trkpt>
      <trkpt lat="43.92336" lon="6.61504">
        <ele>1076.46</ele>
        <time>2022-10-10T10:08:59Z</time>
      </trkpt>
      <trkpt lat="43.92333" lon="6.61483">
        <ele>1076.55</ele>
        <time>2022-10-10T10:09:00Z</time>
      </trkpt>
      <trkpt lat="43.92329" lon="6.61464">
        <ele>1077.52</ele>
        <time>2022-10-10T10:09:01Z</time>
      </trkpt>
      <trkpt lat="43.92324" lon="6.61448">
        <ele>1077.52</ele>
        <time>2022-10-10T10:09:02Z</time>
      </trkpt>
      <trkpt lat="43.92316" lon="6.61436">
        <ele>1077.58</ele>
        <time>2022-10-10T10:09:03Z</time>
      </trkpt>
      <trkpt lat="43.92306" lon="6.61429">
        <ele>1078.8</ele>
        <time>2022-10-10T10:09:04Z</time>
      </trkpt>
      <trkpt lat="43.92294" lon="6.61426">
        <ele>1078.79</ele>
        <time>2022-10-10T10:09:05Z</time>
      </trkpt>
      <trkpt lat="43.92282" lon="6.61425">
        <ele>1080.28</ele>
        <time>2022-10-10T10:09:06Z</time>
      </trkpt>
      <trkpt lat="43.9227" lon="6.61424">
        <ele>1080.27</ele>
        <time>2022-10-10T10:09:07Z</time>
      </trkpt>
      <trkpt lat="43.92258" lon="6.61421">
        <ele>1081.34</ele>
        <time>2022-10-10T10:09:08Z</time>
      </trkpt>
      <trkpt lat="43.92235" lon="6.61413">
        <ele>1082.44</ele>
        <time>2022-10-10T10:09:10Z</time>
      </trkpt>
      <trkpt lat="43.92204" lon="6.614">
        <ele>1084.36</ele>
        <time>2022-10-10T10:09:13Z</time>
      </trkpt>
      <trkpt lat="43.92195" lon="6.61393">
        <ele>1085.26</ele>
        <time>2022-10-10T10:09:14Z</time>
      </trkpt>
      <trkpt lat="43.92187" lon="6.61384">
        <ele>1085.26</ele>
        <time>2022-10-10T10:09:15Z</time>
      </trkpt>
      <trkpt lat="43.9218" lon="6.61375">
        <ele>1086.4</ele>
        <time>2022-10-10T10:09:16Z</time>
      </trkpt>
      <trkpt lat="43.9217" lon="6.61367">
        <ele>1086.39</ele>
        <time>2022-10-10T10:09:17Z</time>
      </trkpt>
      <trkpt lat="43.92158" lon="6.61362">
        <ele>1088.41</ele>
        <time>2022-10-10T10:09:18Z</time>
      </trkpt>
      <trkpt lat="43.92145" lon="6.61361">
        <ele>1089.34</ele>
        <time>2022-10-10T10:09:19Z</time>
      </trkpt>
      <trkpt lat="43.9213" lon="6.61363">
        <ele>1090.88</ele>
        <time>2022-10-10T10:09:20Z</time>
      </trkpt>
      <trkpt lat="43.92115" lon="6.61369">
        <ele>1092.1</ele>
        <time>2022-10-10T10:09:21Z</time>
      </trkpt>
      <trkpt lat="43.92099" lon="6.61375">
        <ele>1093.32</ele>
        <time>2022-10-10T10:09:22Z</time>
      </trkpt>
      <trkpt lat="43.92084" lon="6.61383">
        <ele>1094.47</ele>
        <time>2022-10-10T10:09:23Z</time>
      </trkpt>
      <trkpt lat="43.92051" lon="6.61393">
        <ele>1096.98</ele>
        <time>2022-10-10T10:09:25Z</time>
      </trkpt>
      <trkpt lat="43.92034" lon="6.61395">
        <ele>1098.17</ele>
        <time>2022-10-10T10:09:26Z</time>
      </trkpt>
      <trkpt lat="43.92016" lon="6.61396">
        <ele>1099.5</ele>
        <time>2022-10-10T10:09:27Z</time>
      </trkpt>
      <trkpt lat="43.91998" lon="6.61394">
        <ele>1099.38</ele>
        <time>2022-10-10T10:09:28Z</time>
      </trkpt>
      <trkpt lat="43.91967" lon="6.61388">
        <ele>1102.02</ele>
        <time>2022-10-10T10:09:30Z</time>
      </trkpt>
      <trkpt lat="43.91955" lon="6.6138">
        <ele>1102.11</ele>
        <time>2022-10-10T10:09:31Z</time>
      </trkpt>
      <trkpt lat="43.91944" lon="6.61368">
        <ele>1103.15</ele>
        <time>2022-10-10T10:09:32Z</time>
      </trkpt>
      <trkpt lat="43.91933" lon="6.61352">
        <ele>1103.35</ele>
        <time>2022-10-10T10:09:33Z</time>
      </trkpt>
      <trkpt lat="43.9192" lon="6.61334">
        <ele>1103.25</ele>
        <time>2022-10-10T10:09:34Z</time>
      </trkpt>
      <trkpt lat="43.91842" lon="6.61189">
        <ele>1100.21</ele>
        <time>2022-10-10T10:09:40Z</time>
      </trkpt>
      <trkpt lat="43.91814" lon="6.61142">
        <ele>1097.14</ele>
        <time>2022-10-10T10:09:42Z</time>
      </trkpt>
      <trkpt lat="43.918" lon="6.61119">
        <ele>1093.45</ele>
        <time>2022-10-10T10:09:43Z</time>
      </trkpt>
      <trkpt lat="43.91777" lon="6.61074">
        <ele>1090.78</ele>
        <time>2022-10-10T10:09:45Z</time>
      </trkpt>
      <trkpt lat="43.9177" lon="6.61049">
        <ele>1089.25</ele>
        <time>2022-10-10T10:09:46Z</time>
      </trkpt>
      <trkpt lat="43.91764" lon="6.61024">
        <ele>1088.24</ele>
        <time>2022-10-10T10:09:47Z</time>
      </trkpt>
      <trkpt lat="43.91752" lon="6.60976">
        <ele>1086.07</ele>
        <time>2022-10-10T10:09:49Z</time>
      </trkpt>
      <trkpt lat="43.91743" lon="6.60954">
        <ele>1085.06</ele>
        <time>2022-10-10T10:09:50Z</time>
      </trkpt>
      <trkpt lat="43.9173" lon="6.60936">
        <ele>1084.15</ele>
        <time>2022-10-10T10:09:51Z</time>
      </trkpt>
      <trkpt lat="43.91713" lon="6.60922">
        <ele>1083.27</ele>
        <time>2022-10-10T10:09:52Z</time>
      </trkpt>
      <trkpt lat="43.91695" lon="6.60909">
        <ele>1082.37</ele>
        <time>2022-10-10T10:09:53Z</time>
      </trkpt>
      <trkpt lat="43.91677" lon="6.60894">
        <ele>1080.98</ele>
        <time>2022-10-10T10:09:54Z</time>
      </trkpt>
      <trkpt lat="43.91661" lon="6.60876">
        <ele>1080.06</ele>
        <time>2022-10-10T10:09:55Z</time>
      </trkpt>
      <trkpt lat="43.91647" lon="6.60856">
        <ele>1080</ele>
        <time>2022-10-10T10:09:56Z</time>
      </trkpt>
      <trkpt lat="43.91635" lon="6.60833">
        <ele>1077.8</ele>
        <time>2022-10-10T10:09:57Z</time>
      </trkpt>
      <trkpt lat="43.91623" lon="6.6081">
        <ele>1077.96</ele>
        <time>2022-10-10T10:09:58Z</time>
      </trkpt>
      <trkpt lat="43.916" lon="6.60763">
        <ele>1075.91</ele>
        <time>2022-10-10T10:10:00Z</time>
      </trkpt>
      <trkpt lat="43.91568" lon="6.60695">
        <ele>1072.03</ele>
        <time>2022-10-10T10:10:03Z</time>
      </trkpt>
      <trkpt lat="43.91555" lon="6.60677">
        <ele>1071.13</ele>
        <time>2022-10-10T10:10:04Z</time>
      </trkpt>
      <trkpt lat="43.9154" lon="6.60666">
        <ele>1069.72</ele>
        <time>2022-10-10T10:10:05Z</time>
      </trkpt>
      <trkpt lat="43.91521" lon="6.60662">
        <ele>1068.99</ele>
        <time>2022-10-10T10:10:06Z</time>
      </trkpt>
      <trkpt lat="43.91502" lon="6.60663">
        <ele>1068.89</ele>
        <time>2022-10-10T10:10:07Z</time>
      </trkpt>
      <trkpt lat="43.91482" lon="6.60666">
        <ele>1068.74</ele>
        <time>2022-10-10T10:10:08Z</time>
      </trkpt>
      <trkpt lat="43.91421" lon="6.60669">
        <ele>1067.49</ele>
        <time>2022-10-10T10:10:11Z</time>
      </trkpt>
      <trkpt lat="43.91401" lon="6.60666">
        <ele>1066.32</ele>
        <time>2022-10-10T10:10:12Z</time>
      </trkpt>
      <trkpt lat="43.91381" lon="6.60659">
        <ele>1065.57</ele>
        <time>2022-10-10T10:10:13Z</time>
      </trkpt>
      <trkpt lat="43.91362" lon="6.60649">
        <ele>1064.68</ele>
        <time>2022-10-10T10:10:14Z</time>
      </trkpt>
      <trkpt lat="43.91344" lon="6.60636">
        <ele>1064.63</ele>
        <time>2022-10-10T10:10:15Z</time>
      </trkpt>
      <trkpt lat="43.91327" lon="6.60623">
        <ele>1063.82</ele>
        <time>2022-10-10T10:10:16Z</time>
      </trkpt>
      <trkpt lat="43.91294" lon="6.60595">
        <ele>1062.52</ele>
        <time>2022-10-10T10:10:18Z</time>
      </trkpt>
      <trkpt lat="43.9128" lon="6.60577">
        <ele>1061.42</ele>
        <time>2022-10-10T10:10:19Z</time>
      </trkpt>
      <trkpt lat="43.91268" lon="6.60559">
        <ele>1061.38</ele>
        <time>2022-10-10T10:10:20Z</time>
      </trkpt>
      <trkpt lat="43.91257" lon="6.60539">
        <ele>1060.52</ele>
        <time>2022-10-10T10:10:21Z</time>
      </trkpt>
      <trkpt lat="43.91248" lon="6.60517">
        <ele>1060.47</ele>
        <time>2022-10-10T10:10:22Z</time>
      </trkpt>
      <trkpt lat="43.91242" lon="6.60493">
        <ele>1059.67</ele>
        <time>2022-10-10T10:10:23Z</time>
      </trkpt>
      <trkpt lat="43.91239" lon="6.60467">
        <ele>1059.69</ele>
        <time>2022-10-10T10:10:24Z</time>
      </trkpt>
      <trkpt lat="43.91238" lon="6.60439">
        <ele>1059.6</ele>
        <time>2022-10-10T10:10:25Z</time>
      </trkpt>
      <trkpt lat="43.91227" lon="6.60199">
        <ele>1056.57</ele>
        <time>2022-10-10T10:10:33Z</time>
      </trkpt>
      <trkpt lat="43.91231" lon="6.60169">
        <ele>1056.52</ele>
        <time>2022-10-10T10:10:34Z</time>
      </trkpt>
      <trkpt lat="43.91236" lon="6.6014">
        <ele>1056.53</ele>
        <time>2022-10-10T10:10:35Z</time>
      </trkpt>
      <trkpt lat="43.91257" lon="6.60055">
        <ele>1054.94</ele>
        <time>2022-10-10T10:10:38Z</time>
      </trkpt>
      <trkpt lat="43.91302" lon="6.59921">
        <ele>1053.13</ele>
        <time>2022-10-10T10:10:43Z</time>
      </trkpt>
      <trkpt lat="43.91306" lon="6.59893">
        <ele>1052.8</ele>
        <time>2022-10-10T10:10:44Z</time>
      </trkpt>
      <trkpt lat="43.91306" lon="6.59864">
        <ele>1051.88</ele>
        <time>2022-10-10T10:10:45Z</time>
      </trkpt>
      <trkpt lat="43.91302" lon="6.59836">
        <ele>1051.88</ele>
        <time>2022-10-10T10:10:46Z</time>
      </trkpt>
      <trkpt lat="43.91297" lon="6.59808">
        <ele>1050.21</ele>
        <time>2022-10-10T10:10:47Z</time>
      </trkpt>
      <trkpt lat="43.91295" lon="6.5978">
        <ele>1049.16</ele>
        <time>2022-10-10T10:10:48Z</time>
      </trkpt>
      <trkpt lat="43.91292" lon="6.59753">
        <ele>1048.3</ele>
        <time>2022-10-10T10:10:49Z</time>
      </trkpt>
      <trkpt lat="43.91289" lon="6.59726">
        <ele>1047.17</ele>
        <time>2022-10-10T10:10:50Z</time>
      </trkpt>
      <trkpt lat="43.91281" lon="6.59702">
        <ele>1047.17</ele>
        <time>2022-10-10T10:10:51Z</time>
      </trkpt>
      <trkpt lat="43.91271" lon="6.59678">
        <ele>1047.13</ele>
        <time>2022-10-10T10:10:52Z</time>
      </trkpt>
      <trkpt lat="43.9126" lon="6.59654">
        <ele>1046.31</ele>
        <time>2022-10-10T10:10:53Z</time>
      </trkpt>
      <trkpt lat="43.91251" lon="6.59629">
        <ele>1046.26</ele>
        <time>2022-10-10T10:10:54Z</time>
      </trkpt>
      <trkpt lat="43.91246" lon="6.59603">
        <ele>1045.42</ele>
        <time>2022-10-10T10:10:55Z</time>
      </trkpt>
      <trkpt lat="43.91245" lon="6.59575">
        <ele>1045.39</ele>
        <time>2022-10-10T10:10:56Z</time>
      </trkpt>
      <trkpt lat="43.91245" lon="6.59546">
        <ele>1044.45</ele>
        <time>2022-10-10T10:10:57Z</time>
      </trkpt>
      <trkpt lat="43.91248" lon="6.59401">
        <ele>1040.62</ele>
        <time>2022-10-10T10:11:02Z</time>
      </trkpt>
      <trkpt lat="43.91248" lon="6.59374">
        <ele>1040.62</ele>
        <time>2022-10-10T10:11:03Z</time>
      </trkpt>
      <trkpt lat="43.91249" lon="6.59348">
        <ele>1038.52</ele>
        <time>2022-10-10T10:11:04Z</time>
      </trkpt>
      <trkpt lat="43.91253" lon="6.59322">
        <ele>1038.5</ele>
        <time>2022-10-10T10:11:05Z</time>
      </trkpt>
      <trkpt lat="43.9126" lon="6.59296">
        <ele>1038.55</ele>
        <time>2022-10-10T10:11:06Z</time>
      </trkpt>
      <trkpt lat="43.9128" lon="6.59217">
        <ele>1036.27</ele>
        <time>2022-10-10T10:11:09Z</time>
      </trkpt>
      <trkpt lat="43.91281" lon="6.5919">
        <ele>1034.33</ele>
        <time>2022-10-10T10:11:10Z</time>
      </trkpt>
      <trkpt lat="43.91279" lon="6.59164">
        <ele>1032.82</ele>
        <time>2022-10-10T10:11:11Z</time>
      </trkpt>
      <trkpt lat="43.91273" lon="6.59115">
        <ele>1030.48</ele>
        <time>2022-10-10T10:11:13Z</time>
      </trkpt>
      <trkpt lat="43.91275" lon="6.59093">
        <ele>1028.79</ele>
        <time>2022-10-10T10:11:14Z</time>
      </trkpt>
      <trkpt lat="43.91281" lon="6.59072">
        <ele>1027.21</ele>
        <time>2022-10-10T10:11:15Z</time>
      </trkpt>
      <trkpt lat="43.91288" lon="6.59053">
        <ele>1027.3</ele>
        <time>2022-10-10T10:11:16Z</time>
      </trkpt>
      <trkpt lat="43.91295" lon="6.59034">
        <ele>1025.84</ele>
        <time>2022-10-10T10:11:17Z</time>
      </trkpt>
      <trkpt lat="43.91301" lon="6.59015">
        <ele>1024.58</ele>
        <time>2022-10-10T10:11:18Z</time>
      </trkpt>
      <trkpt lat="43.91306" lon="6.58995">
        <ele>1023.11</ele>
        <time>2022-10-10T10:11:19Z</time>
      </trkpt>
      <trkpt lat="43.9131" lon="6.58975">
        <ele>1022.21</ele>
        <time>2022-10-10T10:11:20Z</time>
      </trkpt>
      <trkpt lat="43.91319" lon="6.58937">
        <ele>1021.15</ele>
        <time>2022-10-10T10:11:22Z</time>
      </trkpt>
      <trkpt lat="43.91331" lon="6.58902">
        <ele>1018.69</ele>
        <time>2022-10-10T10:11:24Z</time>
      </trkpt>
      <trkpt lat="43.91338" lon="6.58886">
        <ele>1017.88</ele>
        <time>2022-10-10T10:11:25Z</time>
      </trkpt>
      <trkpt lat="43.91346" lon="6.58871">
        <ele>1017.78</ele>
        <time>2022-10-10T10:11:26Z</time>
      </trkpt>
      <trkpt lat="43.91361" lon="6.58841">
        <ele>1016.14</ele>
        <time>2022-10-10T10:11:28Z</time>
      </trkpt>
      <trkpt lat="43.91375" lon="6.58812">
        <ele>1014.9</ele>
        <time>2022-10-10T10:11:30Z</time>
      </trkpt>
      <trkpt lat="43.91386" lon="6.58782">
        <ele>1013.1</ele>
        <time>2022-10-10T10:11:32Z</time>
      </trkpt>
      <trkpt lat="43.91389" lon="6.58766">
        <ele>1013.12</ele>
        <time>2022-10-10T10:11:33Z</time>
      </trkpt>
      <trkpt lat="43.91389" lon="6.5875">
        <ele>1011.44</ele>
        <time>2022-10-10T10:11:34Z</time>
      </trkpt>
      <trkpt lat="43.91387" lon="6.58735">
        <ele>1011.44</ele>
        <time>2022-10-10T10:11:35Z</time>
      </trkpt>
      <trkpt lat="43.91383" lon="6.58721">
        <ele>1009.8</ele>
        <time>2022-10-10T10:11:36Z</time>
      </trkpt>
      <trkpt lat="43.91377" lon="6.58707">
        <ele>1009.85</ele>
        <time>2022-10-10T10:11:37Z</time>
      </trkpt>
      <trkpt lat="43.91372" lon="6.58692">
        <ele>1009.85</ele>
        <time>2022-10-10T10:11:38Z</time>
      </trkpt>
      <trkpt lat="43.91368" lon="6.58676">
        <ele>1009.4</ele>
        <time>2022-10-10T10:11:39Z</time>
      </trkpt>
      <trkpt lat="43.91366" lon="6.58659">
        <ele>1009.34</ele>
        <time>2022-10-10T10:11:40Z</time>
      </trkpt>
      <trkpt lat="43.91363" lon="6.58539">
        <ele>1009.31</ele>
        <time>2022-10-10T10:11:45Z</time>
      </trkpt>
      <trkpt lat="43.91372" lon="6.58434">
        <ele>1009.31</ele>
        <time>2022-10-10T10:11:49Z</time>
      </trkpt>
      <trkpt lat="43.91378" lon="6.58409">
        <ele>1009.31</ele>
        <time>2022-10-10T10:11:50Z</time>
      </trkpt>
      <trkpt lat="43.91386" lon="6.58385">
        <ele>1009.31</ele>
        <time>2022-10-10T10:11:51Z</time>
      </trkpt>
      <trkpt lat="43.91434" lon="6.58266">
        <ele>1009.46</ele>
        <time>2022-10-10T10:11:56Z</time>
      </trkpt>
      <trkpt lat="43.9144" lon="6.5824">
        <ele>1009.46</ele>
        <time>2022-10-10T10:11:57Z</time>
      </trkpt>
      <trkpt lat="43.91445" lon="6.58214">
        <ele>1009.49</ele>
        <time>2022-10-10T10:11:58Z</time>
      </trkpt>
      <trkpt lat="43.91446" lon="6.58187">
        <ele>1009.51</ele>
        <time>2022-10-10T10:11:59Z</time>
      </trkpt>
      <trkpt lat="43.91444" lon="6.58158">
        <ele>1009.52</ele>
        <time>2022-10-10T10:12:00Z</time>
      </trkpt>
      <trkpt lat="43.91442" lon="6.5813">
        <ele>1009.51</ele>
        <time>2022-10-10T10:12:01Z</time>
      </trkpt>
      <trkpt lat="43.91441" lon="6.57954">
        <ele>1008.21</ele>
        <time>2022-10-10T10:12:07Z</time>
      </trkpt>
      <trkpt lat="43.91437" lon="6.57925">
        <ele>1006.85</ele>
        <time>2022-10-10T10:12:08Z</time>
      </trkpt>
      <trkpt lat="43.9143" lon="6.57897">
        <ele>1006.8</ele>
        <time>2022-10-10T10:12:09Z</time>
      </trkpt>
      <trkpt lat="43.91397" lon="6.57797">
        <ele>1003.21</ele>
        <time>2022-10-10T10:12:13Z</time>
      </trkpt>
      <trkpt lat="43.9139" lon="6.57774">
        <ele>1002.4</ele>
        <time>2022-10-10T10:12:14Z</time>
      </trkpt>
      <trkpt lat="43.91387" lon="6.5775">
        <ele>1001.38</ele>
        <time>2022-10-10T10:12:15Z</time>
      </trkpt>
      <trkpt lat="43.91385" lon="6.57725">
        <ele>1001.42</ele>
        <time>2022-10-10T10:12:16Z</time>
      </trkpt>
      <trkpt lat="43.91385" lon="6.57674">
        <ele>1000.04</ele>
        <time>2022-10-10T10:12:18Z</time>
      </trkpt>
      <trkpt lat="43.91383" lon="6.57538">
        <ele>999.93</ele>
        <time>2022-10-10T10:12:23Z</time>
      </trkpt>
      <trkpt lat="43.9139" lon="6.5731">
        <ele>997.46</ele>
        <time>2022-10-10T10:12:31Z</time>
      </trkpt>
      <trkpt lat="43.91386" lon="6.5719">
        <ele>994.33</ele>
        <time>2022-10-10T10:12:35Z</time>
      </trkpt>
      <trkpt lat="43.91379" lon="6.5711">
        <ele>990.48</ele>
        <time>2022-10-10T10:12:38Z</time>
      </trkpt>
      <trkpt lat="43.91369" lon="6.57063">
        <ele>988.3</ele>
        <time>2022-10-10T10:12:40Z</time>
      </trkpt>
      <trkpt lat="43.91367" lon="6.57041">
        <ele>988.31</ele>
        <time>2022-10-10T10:12:41Z</time>
      </trkpt>
      <trkpt lat="43.9137" lon="6.5702">
        <ele>988.25</ele>
        <time>2022-10-10T10:12:42Z</time>
      </trkpt>
      <trkpt lat="43.91377" lon="6.56999">
        <ele>986.94</ele>
        <time>2022-10-10T10:12:43Z</time>
      </trkpt>
      <trkpt lat="43.91385" lon="6.56977">
        <ele>986.98</ele>
        <time>2022-10-10T10:12:44Z</time>
      </trkpt>
      <trkpt lat="43.91399" lon="6.5693">
        <ele>986.98</ele>
        <time>2022-10-10T10:12:46Z</time>
      </trkpt>
      <trkpt lat="43.91405" lon="6.56903">
        <ele>986.84</ele>
        <time>2022-10-10T10:12:47Z</time>
      </trkpt>
      <trkpt lat="43.91416" lon="6.56851">
        <ele>985.73</ele>
        <time>2022-10-10T10:12:49Z</time>
      </trkpt>
      <trkpt lat="43.91425" lon="6.56827">
        <ele>985.82</ele>
        <time>2022-10-10T10:12:50Z</time>
      </trkpt>
      <trkpt lat="43.91437" lon="6.56805">
        <ele>985.26</ele>
        <time>2022-10-10T10:12:51Z</time>
      </trkpt>
      <trkpt lat="43.91449" lon="6.56783">
        <ele>985.26</ele>
        <time>2022-10-10T10:12:52Z</time>
      </trkpt>
      <trkpt lat="43.9146" lon="6.56758">
        <ele>985.2</ele>
        <time>2022-10-10T10:12:53Z</time>
      </trkpt>
      <trkpt lat="43.91468" lon="6.56731">
        <ele>985.21</ele>
        <time>2022-10-10T10:12:54Z</time>
      </trkpt>
      <trkpt lat="43.91475" lon="6.56702">
        <ele>985.23</ele>
        <time>2022-10-10T10:12:55Z</time>
      </trkpt>
      <trkpt lat="43.91503" lon="6.56515">
        <ele>981.19</ele>
        <time>2022-10-10T10:13:01Z</time>
      </trkpt>
      <trkpt lat="43.9151" lon="6.56431">
        <ele>977.07</ele>
        <time>2022-10-10T10:13:04Z</time>
      </trkpt>
      <trkpt lat="43.91509" lon="6.56405">
        <ele>977.13</ele>
        <time>2022-10-10T10:13:05Z</time>
      </trkpt>
      <trkpt lat="43.91506" lon="6.56379">
        <ele>977.14</ele>
        <time>2022-10-10T10:13:06Z</time>
      </trkpt>
      <trkpt lat="43.91497" lon="6.56327">
        <ele>975.46</ele>
        <time>2022-10-10T10:13:08Z</time>
      </trkpt>
      <trkpt lat="43.91495" lon="6.563">
        <ele>975.45</ele>
        <time>2022-10-10T10:13:09Z</time>
      </trkpt>
      <trkpt lat="43.91493" lon="6.56274">
        <ele>975.45</ele>
        <time>2022-10-10T10:13:10Z</time>
      </trkpt>
      <trkpt lat="43.91488" lon="6.56248">
        <ele>974.43</ele>
        <time>2022-10-10T10:13:11Z</time>
      </trkpt>
      <trkpt lat="43.9148" lon="6.56224">
        <ele>974.37</ele>
        <time>2022-10-10T10:13:12Z</time>
      </trkpt>
      <trkpt lat="43.91469" lon="6.56201">
        <ele>973.11</ele>
        <time>2022-10-10T10:13:13Z</time>
      </trkpt>
      <trkpt lat="43.91459" lon="6.56178">
        <ele>973.09</ele>
        <time>2022-10-10T10:13:14Z</time>
      </trkpt>
      <trkpt lat="43.91451" lon="6.56154">
        <ele>972</ele>
        <time>2022-10-10T10:13:15Z</time>
      </trkpt>
      <trkpt lat="43.91447" lon="6.56129">
        <ele>971.13</ele>
        <time>2022-10-10T10:13:16Z</time>
      </trkpt>
      <trkpt lat="43.91447" lon="6.56103">
        <ele>970.38</ele>
        <time>2022-10-10T10:13:17Z</time>
      </trkpt>
      <trkpt lat="43.91448" lon="6.5608">
        <ele>970.59</ele>
        <time>2022-10-10T10:13:18Z</time>
      </trkpt>
      <trkpt lat="43.91451" lon="6.56058">
        <ele>969.14</ele>
        <time>2022-10-10T10:13:19Z</time>
      </trkpt>
      <trkpt lat="43.91457" lon="6.56038">
        <ele>967.57</ele>
        <time>2022-10-10T10:13:20Z</time>
      </trkpt>
      <trkpt lat="43.91464" lon="6.5602">
        <ele>967.62</ele>
        <time>2022-10-10T10:13:21Z</time>
      </trkpt>
      <trkpt lat="43.91477" lon="6.55984">
        <ele>966.11</ele>
        <time>2022-10-10T10:13:23Z</time>
      </trkpt>
      <trkpt lat="43.91482" lon="6.55965">
        <ele>965.51</ele>
        <time>2022-10-10T10:13:24Z</time>
      </trkpt>
      <trkpt lat="43.91486" lon="6.55946">
        <ele>965.45</ele>
        <time>2022-10-10T10:13:25Z</time>
      </trkpt>
      <trkpt lat="43.91487" lon="6.55926">
        <ele>965.45</ele>
        <time>2022-10-10T10:13:26Z</time>
      </trkpt>
      <trkpt lat="43.91487" lon="6.55905">
        <ele>965.4</ele>
        <time>2022-10-10T10:13:27Z</time>
      </trkpt>
      <trkpt lat="43.91485" lon="6.55885">
        <ele>964.43</ele>
        <time>2022-10-10T10:13:28Z</time>
      </trkpt>
      <trkpt lat="43.91483" lon="6.55865">
        <ele>964.39</ele>
        <time>2022-10-10T10:13:29Z</time>
      </trkpt>
      <trkpt lat="43.91477" lon="6.55824">
        <ele>964.4</ele>
        <time>2022-10-10T10:13:31Z</time>
      </trkpt>
      <trkpt lat="43.91472" lon="6.55805">
        <ele>964.37</ele>
        <time>2022-10-10T10:13:32Z</time>
      </trkpt>
      <trkpt lat="43.91463" lon="6.55788">
        <ele>962.85</ele>
        <time>2022-10-10T10:13:33Z</time>
      </trkpt>
      <trkpt lat="43.91451" lon="6.55773">
        <ele>962.86</ele>
        <time>2022-10-10T10:13:34Z</time>
      </trkpt>
      <trkpt lat="43.91438" lon="6.5576">
        <ele>962.02</ele>
        <time>2022-10-10T10:13:35Z</time>
      </trkpt>
      <trkpt lat="43.91424" lon="6.55747">
        <ele>962.02</ele>
        <time>2022-10-10T10:13:36Z</time>
      </trkpt>
      <trkpt lat="43.91412" lon="6.55733">
        <ele>960.86</ele>
        <time>2022-10-10T10:13:37Z</time>
      </trkpt>
      <trkpt lat="43.91401" lon="6.55716">
        <ele>959.59</ele>
        <time>2022-10-10T10:13:38Z</time>
      </trkpt>
      <trkpt lat="43.91392" lon="6.55696">
        <ele>959.59</ele>
        <time>2022-10-10T10:13:39Z</time>
      </trkpt>
      <trkpt lat="43.91387" lon="6.55676">
        <ele>958.43</ele>
        <time>2022-10-10T10:13:40Z</time>
      </trkpt>
      <trkpt lat="43.91385" lon="6.55654">
        <ele>957.03</ele>
        <time>2022-10-10T10:13:41Z</time>
      </trkpt>
      <trkpt lat="43.91386" lon="6.55632">
        <ele>956.98</ele>
        <time>2022-10-10T10:13:42Z</time>
      </trkpt>
      <trkpt lat="43.9139" lon="6.55609">
        <ele>955.7</ele>
        <time>2022-10-10T10:13:43Z</time>
      </trkpt>
      <trkpt lat="43.91396" lon="6.55585">
        <ele>954.53</ele>
        <time>2022-10-10T10:13:44Z</time>
      </trkpt>
      <trkpt lat="43.91402" lon="6.5556">
        <ele>954.5</ele>
        <time>2022-10-10T10:13:45Z</time>
      </trkpt>
      <trkpt lat="43.91412" lon="6.55483">
        <ele>952.06</ele>
        <time>2022-10-10T10:13:48Z</time>
      </trkpt>
      <trkpt lat="43.91412" lon="6.55457">
        <ele>952.06</ele>
        <time>2022-10-10T10:13:49Z</time>
      </trkpt>
      <trkpt lat="43.91403" lon="6.55347">
        <ele>948.69</ele>
        <time>2022-10-10T10:13:53Z</time>
      </trkpt>
      <trkpt lat="43.91396" lon="6.55269">
        <ele>944.9</ele>
        <time>2022-10-10T10:13:56Z</time>
      </trkpt>
      <trkpt lat="43.91396" lon="6.55191">
        <ele>941.04</ele>
        <time>2022-10-10T10:13:59Z</time>
      </trkpt>
      <trkpt lat="43.91396" lon="6.55118">
        <ele>937.08</ele>
        <time>2022-10-10T10:14:02Z</time>
      </trkpt>
      <trkpt lat="43.91393" lon="6.55094">
        <ele>936.31</ele>
        <time>2022-10-10T10:14:03Z</time>
      </trkpt>
      <trkpt lat="43.91388" lon="6.55071">
        <ele>936.31</ele>
        <time>2022-10-10T10:14:04Z</time>
      </trkpt>
      <trkpt lat="43.91381" lon="6.55049">
        <ele>935.23</ele>
        <time>2022-10-10T10:14:05Z</time>
      </trkpt>
      <trkpt lat="43.91373" lon="6.55029">
        <ele>933.94</ele>
        <time>2022-10-10T10:14:06Z</time>
      </trkpt>
      <trkpt lat="43.91363" lon="6.55011">
        <ele>933.04</ele>
        <time>2022-10-10T10:14:07Z</time>
      </trkpt>
      <trkpt lat="43.91353" lon="6.54995">
        <ele>932.95</ele>
        <time>2022-10-10T10:14:08Z</time>
      </trkpt>
      <trkpt lat="43.91335" lon="6.54961">
        <ele>930.35</ele>
        <time>2022-10-10T10:14:10Z</time>
      </trkpt>
      <trkpt lat="43.9133" lon="6.54942">
        <ele>929.36</ele>
        <time>2022-10-10T10:14:11Z</time>
      </trkpt>
      <trkpt lat="43.91328" lon="6.54922">
        <ele>927.9</ele>
        <time>2022-10-10T10:14:12Z</time>
      </trkpt>
      <trkpt lat="43.91329" lon="6.54901">
        <ele>926.8</ele>
        <time>2022-10-10T10:14:13Z</time>
      </trkpt>
      <trkpt lat="43.91331" lon="6.5488">
        <ele>926.83</ele>
        <time>2022-10-10T10:14:14Z</time>
      </trkpt>
      <trkpt lat="43.91334" lon="6.54859">
        <ele>926.8</ele>
        <time>2022-10-10T10:14:15Z</time>
      </trkpt>
      <trkpt lat="43.91339" lon="6.54838">
        <ele>925.23</ele>
        <time>2022-10-10T10:14:16Z</time>
      </trkpt>
      <trkpt lat="43.91344" lon="6.54816">
        <ele>925.14</ele>
        <time>2022-10-10T10:14:17Z</time>
      </trkpt>
      <trkpt lat="43.91352" lon="6.54772">
        <ele>923.1</ele>
        <time>2022-10-10T10:14:19Z</time>
      </trkpt>
      <trkpt lat="43.91352" lon="6.5475">
        <ele>923.02</ele>
        <time>2022-10-10T10:14:20Z</time>
      </trkpt>
      <trkpt lat="43.91348" lon="6.54708">
        <ele>921.79</ele>
        <time>2022-10-10T10:14:22Z</time>
      </trkpt>
      <trkpt lat="43.91351" lon="6.54688">
        <ele>919.16</ele>
        <time>2022-10-10T10:14:23Z</time>
      </trkpt>
      <trkpt lat="43.91355" lon="6.54667">
        <ele>919.09</ele>
        <time>2022-10-10T10:14:24Z</time>
      </trkpt>
      <trkpt lat="43.91381" lon="6.54564">
        <ele>916.15</ele>
        <time>2022-10-10T10:14:29Z</time>
      </trkpt>
      <trkpt lat="43.91393" lon="6.54506">
        <ele>912.5</ele>
        <time>2022-10-10T10:14:32Z</time>
      </trkpt>
      <trkpt lat="43.91405" lon="6.54469">
        <ele>911.34</ele>
        <time>2022-10-10T10:14:34Z</time>
      </trkpt>
      <trkpt lat="43.91414" lon="6.54451">
        <ele>909.64</ele>
        <time>2022-10-10T10:14:35Z</time>
      </trkpt>
      <trkpt lat="43.91424" lon="6.54435">
        <ele>909.68</ele>
        <time>2022-10-10T10:14:36Z</time>
      </trkpt>
      <trkpt lat="43.9147" lon="6.54364">
        <ele>906.57</ele>
        <time>2022-10-10T10:14:40Z</time>
      </trkpt>
      <trkpt lat="43.9148" lon="6.54344">
        <ele>906.5</ele>
        <time>2022-10-10T10:14:41Z</time>
      </trkpt>
      <trkpt lat="43.91489" lon="6.54322">
        <ele>905.31</ele>
        <time>2022-10-10T10:14:42Z</time>
      </trkpt>
      <trkpt lat="43.91496" lon="6.54298">
        <ele>904.3</ele>
        <time>2022-10-10T10:14:43Z</time>
      </trkpt>
      <trkpt lat="43.91501" lon="6.54274">
        <ele>904.31</ele>
        <time>2022-10-10T10:14:44Z</time>
      </trkpt>
      <trkpt lat="43.91507" lon="6.5425">
        <ele>904.31</ele>
        <time>2022-10-10T10:14:45Z</time>
      </trkpt>
      <trkpt lat="43.91515" lon="6.54228">
        <ele>903.08</ele>
        <time>2022-10-10T10:14:46Z</time>
      </trkpt>
      <trkpt lat="43.91524" lon="6.54206">
        <ele>903.09</ele>
        <time>2022-10-10T10:14:47Z</time>
      </trkpt>
      <trkpt lat="43.91534" lon="6.54186">
        <ele>903.02</ele>
        <time>2022-10-10T10:14:48Z</time>
      </trkpt>
      <trkpt lat="43.91545" lon="6.54167">
        <ele>903.06</ele>
        <time>2022-10-10T10:14:49Z</time>
      </trkpt>
      <trkpt lat="43.91556" lon="6.5415">
        <ele>903.09</ele>
        <time>2022-10-10T10:14:50Z</time>
      </trkpt>
      <trkpt lat="43.91569" lon="6.54134">
        <ele>903.12</ele>
        <time>2022-10-10T10:14:51Z</time>
      </trkpt>
      <trkpt lat="43.91583" lon="6.5412">
        <ele>903.16</ele>
        <time>2022-10-10T10:14:52Z</time>
      </trkpt>
      <trkpt lat="43.91597" lon="6.54108">
        <ele>903.18</ele>
        <time>2022-10-10T10:14:53Z</time>
      </trkpt>
      <trkpt lat="43.91612" lon="6.54097">
        <ele>903.18</ele>
        <time>2022-10-10T10:14:54Z</time>
      </trkpt>
      <trkpt lat="43.91627" lon="6.54088">
        <ele>903.13</ele>
        <time>2022-10-10T10:14:55Z</time>
      </trkpt>
      <trkpt lat="43.91805" lon="6.53982">
        <ele>902.43</ele>
        <time>2022-10-10T10:15:06Z</time>
      </trkpt>
      <trkpt lat="43.9189" lon="6.53943">
        <ele>902.38</ele>
        <time>2022-10-10T10:15:11Z</time>
      </trkpt>
      <trkpt lat="43.91903" lon="6.53931">
        <ele>902.37</ele>
        <time>2022-10-10T10:15:12Z</time>
      </trkpt>
      <trkpt lat="43.91914" lon="6.53916">
        <ele>901.05</ele>
        <time>2022-10-10T10:15:13Z</time>
      </trkpt>
      <trkpt lat="43.91921" lon="6.53897">
        <ele>901.04</ele>
        <time>2022-10-10T10:15:14Z</time>
      </trkpt>
      <trkpt lat="43.91923" lon="6.53877">
        <ele>901.03</ele>
        <time>2022-10-10T10:15:15Z</time>
      </trkpt>
      <trkpt lat="43.9192" lon="6.53856">
        <ele>901.01</ele>
        <time>2022-10-10T10:15:16Z</time>
      </trkpt>
      <trkpt lat="43.91914" lon="6.53836">
        <ele>899.47</ele>
        <time>2022-10-10T10:15:17Z</time>
      </trkpt>
      <trkpt lat="43.91908" lon="6.53815">
        <ele>899.47</ele>
        <time>2022-10-10T10:15:18Z</time>
      </trkpt>
      <trkpt lat="43.91903" lon="6.53793">
        <ele>899.44</ele>
        <time>2022-10-10T10:15:19Z</time>
      </trkpt>
      <trkpt lat="43.919" lon="6.53768">
        <ele>899.44</ele>
        <time>2022-10-10T10:15:20Z</time>
      </trkpt>
      <trkpt lat="43.91898" lon="6.53744">
        <ele>899.34</ele>
        <time>2022-10-10T10:15:21Z</time>
      </trkpt>
      <trkpt lat="43.91895" lon="6.53679">
        <ele>899.4</ele>
        <time>2022-10-10T10:15:24Z</time>
      </trkpt>
      <trkpt lat="43.91898" lon="6.5366">
        <ele>899.43</ele>
        <time>2022-10-10T10:15:25Z</time>
      </trkpt>
      <trkpt lat="43.91905" lon="6.53642">
        <ele>899.4</ele>
        <time>2022-10-10T10:15:26Z</time>
      </trkpt>
      <trkpt lat="43.91913" lon="6.53626">
        <ele>899.59</ele>
        <time>2022-10-10T10:15:27Z</time>
      </trkpt>
      <trkpt lat="43.91924" lon="6.53615">
        <ele>899.42</ele>
        <time>2022-10-10T10:15:28Z</time>
      </trkpt>
      <trkpt lat="43.91937" lon="6.53607">
        <ele>899.59</ele>
        <time>2022-10-10T10:15:29Z</time>
      </trkpt>
      <trkpt lat="43.9195" lon="6.53604">
        <ele>899.59</ele>
        <time>2022-10-10T10:15:30Z</time>
      </trkpt>
      <trkpt lat="43.91964" lon="6.53599">
        <ele>899.58</ele>
        <time>2022-10-10T10:15:31Z</time>
      </trkpt>
      <trkpt lat="43.91977" lon="6.5359">
        <ele>899.58</ele>
        <time>2022-10-10T10:15:32Z</time>
      </trkpt>
      <trkpt lat="43.91989" lon="6.53577">
        <ele>899.58</ele>
        <time>2022-10-10T10:15:33Z</time>
      </trkpt>
      <trkpt lat="43.91999" lon="6.53561">
        <ele>898.02</ele>
        <time>2022-10-10T10:15:34Z</time>
      </trkpt>
      <trkpt lat="43.92008" lon="6.53544">
        <ele>898.01</ele>
        <time>2022-10-10T10:15:35Z</time>
      </trkpt>
      <trkpt lat="43.92017" lon="6.5353">
        <ele>895.88</ele>
        <time>2022-10-10T10:15:36Z</time>
      </trkpt>
      <trkpt lat="43.92031" lon="6.53526">
        <ele>895.92</ele>
        <time>2022-10-10T10:15:37Z</time>
      </trkpt>
      <trkpt lat="43.92047" lon="6.53523">
        <ele>895.86</ele>
        <time>2022-10-10T10:15:38Z</time>
      </trkpt>
      <trkpt lat="43.92063" lon="6.53519">
        <ele>895.91</ele>
        <time>2022-10-10T10:15:39Z</time>
      </trkpt>
      <trkpt lat="43.9208" lon="6.53516">
        <ele>895.88</ele>
        <time>2022-10-10T10:15:40Z</time>
      </trkpt>
      <trkpt lat="43.92216" lon="6.5348">
        <ele>894.13</ele>
        <time>2022-10-10T10:15:47Z</time>
      </trkpt>
      <trkpt lat="43.92236" lon="6.53469">
        <ele>894.07</ele>
        <time>2022-10-10T10:15:48Z</time>
      </trkpt>
      <trkpt lat="43.92255" lon="6.53455">
        <ele>894.13</ele>
        <time>2022-10-10T10:15:49Z</time>
      </trkpt>
      <trkpt lat="43.92273" lon="6.53438">
        <ele>892.8</ele>
        <time>2022-10-10T10:15:50Z</time>
      </trkpt>
      <trkpt lat="43.92291" lon="6.5342">
        <ele>892.73</ele>
        <time>2022-10-10T10:15:51Z</time>
      </trkpt>
      <trkpt lat="43.92307" lon="6.53399">
        <ele>890.6</ele>
        <time>2022-10-10T10:15:52Z</time>
      </trkpt>
      <trkpt lat="43.92323" lon="6.53377">
        <ele>889.82</ele>
        <time>2022-10-10T10:15:53Z</time>
      </trkpt>
      <trkpt lat="43.92369" lon="6.53329">
        <ele>886.3</ele>
        <time>2022-10-10T10:15:56Z</time>
      </trkpt>
      <trkpt lat="43.92387" lon="6.53322">
        <ele>885.41</ele>
        <time>2022-10-10T10:15:57Z</time>
      </trkpt>
      <trkpt lat="43.92406" lon="6.53321">
        <ele>884.6</ele>
        <time>2022-10-10T10:15:58Z</time>
      </trkpt>
      <trkpt lat="43.92426" lon="6.53323">
        <ele>884.6</ele>
        <time>2022-10-10T10:15:59Z</time>
      </trkpt>
      <trkpt lat="43.92447" lon="6.53323">
        <ele>884.55</ele>
        <time>2022-10-10T10:16:00Z</time>
      </trkpt>
      <trkpt lat="43.92469" lon="6.53321">
        <ele>884.54</ele>
        <time>2022-10-10T10:16:01Z</time>
      </trkpt>
      <trkpt lat="43.92549" lon="6.53315">
        <ele>880.85</ele>
        <time>2022-10-10T10:16:05Z</time>
      </trkpt>
      <trkpt lat="43.9257" lon="6.53321">
        <ele>880.85</ele>
        <time>2022-10-10T10:16:06Z</time>
      </trkpt>
      <trkpt lat="43.92612" lon="6.53334">
        <ele>880.78</ele>
        <time>2022-10-10T10:16:08Z</time>
      </trkpt>
      <trkpt lat="43.92633" lon="6.53335">
        <ele>879.92</ele>
        <time>2022-10-10T10:16:09Z</time>
      </trkpt>
      <trkpt lat="43.92655" lon="6.53329">
        <ele>879.86</ele>
        <time>2022-10-10T10:16:10Z</time>
      </trkpt>
      <trkpt lat="43.92741" lon="6.533">
        <ele>877.38</ele>
        <time>2022-10-10T10:16:14Z</time>
      </trkpt>
      <trkpt lat="43.92821" lon="6.5327">
        <ele>876.81</ele>
        <time>2022-10-10T10:16:18Z</time>
      </trkpt>
      <trkpt lat="43.9284" lon="6.53258">
        <ele>876.77</ele>
        <time>2022-10-10T10:16:19Z</time>
      </trkpt>
      <trkpt lat="43.92878" lon="6.53233">
        <ele>875.82</ele>
        <time>2022-10-10T10:16:21Z</time>
      </trkpt>
      <trkpt lat="43.92899" lon="6.53225">
        <ele>875.82</ele>
        <time>2022-10-10T10:16:22Z</time>
      </trkpt>
      <trkpt lat="43.92921" lon="6.5322">
        <ele>875.79</ele>
        <time>2022-10-10T10:16:23Z</time>
      </trkpt>
      <trkpt lat="43.93035" lon="6.53199">
        <ele>875.74</ele>
        <time>2022-10-10T10:16:28Z</time>
      </trkpt>
      <trkpt lat="43.93057" lon="6.53189">
        <ele>875.75</ele>
        <time>2022-10-10T10:16:29Z</time>
      </trkpt>
      <trkpt lat="43.93212" lon="6.53133">
        <ele>875.84</ele>
        <time>2022-10-10T10:16:36Z</time>
      </trkpt>
      <trkpt lat="43.93299" lon="6.53105">
        <ele>875.88</ele>
        <time>2022-10-10T10:16:40Z</time>
      </trkpt>
      <trkpt lat="43.9332" lon="6.53104">
        <ele>875.91</ele>
        <time>2022-10-10T10:16:41Z</time>
      </trkpt>
      <trkpt lat="43.93393" lon="6.53109">
        <ele>873.58</ele>
        <time>2022-10-10T10:16:45Z</time>
      </trkpt>
      <trkpt lat="43.9353" lon="6.5314">
        <ele>873.6</ele>
        <time>2022-10-10T10:16:53Z</time>
      </trkpt>
      <trkpt lat="43.93576" lon="6.53162">
        <ele>873.56</ele>
        <time>2022-10-10T10:16:56Z</time>
      </trkpt>
      <trkpt lat="43.93588" lon="6.53162">
        <ele>872.43</ele>
        <time>2022-10-10T10:16:57Z</time>
      </trkpt>
      <trkpt lat="43.93598" lon="6.53156">
        <ele>872.44</ele>
        <time>2022-10-10T10:16:58Z</time>
      </trkpt>
      <trkpt lat="43.93607" lon="6.53143">
        <ele>872.44</ele>
        <time>2022-10-10T10:16:59Z</time>
      </trkpt>
      <trkpt lat="43.93616" lon="6.53126">
        <ele>872.49</ele>
        <time>2022-10-10T10:17:00Z</time>
      </trkpt>
      <trkpt lat="43.93627" lon="6.53111">
        <ele>872.51</ele>
        <time>2022-10-10T10:17:01Z</time>
      </trkpt>
      <trkpt lat="43.93641" lon="6.53099">
        <ele>872.57</ele>
        <time>2022-10-10T10:17:02Z</time>
      </trkpt>
      <trkpt lat="43.93656" lon="6.53089">
        <ele>872.62</ele>
        <time>2022-10-10T10:17:03Z</time>
      </trkpt>
      <trkpt lat="43.93672" lon="6.53079">
        <ele>872.61</ele>
        <time>2022-10-10T10:17:04Z</time>
      </trkpt>
      <trkpt lat="43.93686" lon="6.53064">
        <ele>874.98</ele>
        <time>2022-10-10T10:17:05Z</time>
      </trkpt>
      <trkpt lat="43.937" lon="6.53047">
        <ele>874.95</ele>
        <time>2022-10-10T10:17:06Z</time>
      </trkpt>
      <trkpt lat="43.93757" lon="6.52969">
        <ele>877.12</ele>
        <time>2022-10-10T10:17:10Z</time>
      </trkpt>
      <trkpt lat="43.93815" lon="6.529">
        <ele>877.09</ele>
        <time>2022-10-10T10:17:14Z</time>
      </trkpt>
      <trkpt lat="43.93823" lon="6.52882">
        <ele>874.26</ele>
        <time>2022-10-10T10:17:15Z</time>
      </trkpt>
      <trkpt lat="43.93826" lon="6.52862">
        <ele>874.26</ele>
        <time>2022-10-10T10:17:16Z</time>
      </trkpt>
      <trkpt lat="43.93825" lon="6.52839">
        <ele>874.26</ele>
        <time>2022-10-10T10:17:17Z</time>
      </trkpt>
      <trkpt lat="43.93823" lon="6.52815">
        <ele>874.27</ele>
        <time>2022-10-10T10:17:18Z</time>
      </trkpt>
      <trkpt lat="43.93818" lon="6.52678">
        <ele>876.73</ele>
        <time>2022-10-10T10:17:23Z</time>
      </trkpt>
      <trkpt lat="43.93821" lon="6.52623">
        <ele>878.15</ele>
        <time>2022-10-10T10:17:25Z</time>
      </trkpt>
      <trkpt lat="43.93825" lon="6.52569">
        <ele>879.38</ele>
        <time>2022-10-10T10:17:27Z</time>
      </trkpt>
      <trkpt lat="43.9384" lon="6.52472">
        <ele>880.42</ele>
        <time>2022-10-10T10:17:31Z</time>
      </trkpt>
      <trkpt lat="43.93847" lon="6.5245">
        <ele>880.42</ele>
        <time>2022-10-10T10:17:32Z</time>
      </trkpt>
      <trkpt lat="43.93857" lon="6.5243">
        <ele>880.44</ele>
        <time>2022-10-10T10:17:33Z</time>
      </trkpt>
      <trkpt lat="43.9391" lon="6.52335">
        <ele>882.39</ele>
        <time>2022-10-10T10:17:37Z</time>
      </trkpt>
      <trkpt lat="43.9402" lon="6.52197">
        <ele>882.09</ele>
        <time>2022-10-10T10:17:43Z</time>
      </trkpt>
      <trkpt lat="43.94092" lon="6.5212">
        <ele>878.65</ele>
        <time>2022-10-10T10:17:47Z</time>
      </trkpt>
      <trkpt lat="43.94107" lon="6.52102">
        <ele>877.78</ele>
        <time>2022-10-10T10:17:48Z</time>
      </trkpt>
      <trkpt lat="43.94119" lon="6.52081">
        <ele>877.78</ele>
        <time>2022-10-10T10:17:49Z</time>
      </trkpt>
      <trkpt lat="43.94127" lon="6.52055">
        <ele>877.75</ele>
        <time>2022-10-10T10:17:50Z</time>
      </trkpt>
      <trkpt lat="43.94132" lon="6.52027">
        <ele>877.76</ele>
        <time>2022-10-10T10:17:51Z</time>
      </trkpt>
      <trkpt lat="43.94136" lon="6.51997">
        <ele>877.73</ele>
        <time>2022-10-10T10:17:52Z</time>
      </trkpt>
      <trkpt lat="43.94156" lon="6.51887">
        <ele>876.68</ele>
        <time>2022-10-10T10:17:56Z</time>
      </trkpt>
      <trkpt lat="43.94165" lon="6.51861">
        <ele>876.65</ele>
        <time>2022-10-10T10:17:57Z</time>
      </trkpt>
      <trkpt lat="43.94175" lon="6.51835">
        <ele>876.64</ele>
        <time>2022-10-10T10:17:58Z</time>
      </trkpt>
      <trkpt lat="43.94187" lon="6.5181">
        <ele>876.64</ele>
        <time>2022-10-10T10:17:59Z</time>
      </trkpt>
      <trkpt lat="43.94201" lon="6.51787">
        <ele>876.61</ele>
        <time>2022-10-10T10:18:00Z</time>
      </trkpt>
      <trkpt lat="43.94217" lon="6.51765">
        <ele>876.67</ele>
        <time>2022-10-10T10:18:01Z</time>
      </trkpt>
      <trkpt lat="43.94234" lon="6.51746">
        <ele>876.67</ele>
        <time>2022-10-10T10:18:02Z</time>
      </trkpt>
      <trkpt lat="43.94252" lon="6.51729">
        <ele>876.8</ele>
        <time>2022-10-10T10:18:03Z</time>
      </trkpt>
      <trkpt lat="43.94271" lon="6.51716">
        <ele>876.73</ele>
        <time>2022-10-10T10:18:04Z</time>
      </trkpt>
      <trkpt lat="43.9429" lon="6.51703">
        <ele>876.79</ele>
        <time>2022-10-10T10:18:05Z</time>
      </trkpt>
      <trkpt lat="43.94565" lon="6.51517">
        <ele>879.14</ele>
        <time>2022-10-10T10:18:19Z</time>
      </trkpt>
      <trkpt lat="43.94621" lon="6.5148">
        <ele>880.46</ele>
        <time>2022-10-10T10:18:22Z</time>
      </trkpt>
      <trkpt lat="43.94675" lon="6.51442">
        <ele>881.69</ele>
        <time>2022-10-10T10:18:25Z</time>
      </trkpt>
      <trkpt lat="43.94691" lon="6.51427">
        <ele>882.74</ele>
        <time>2022-10-10T10:18:26Z</time>
      </trkpt>
      <trkpt lat="43.94706" lon="6.51409">
        <ele>882.79</ele>
        <time>2022-10-10T10:18:27Z</time>
      </trkpt>
      <trkpt lat="43.94718" lon="6.51388">
        <ele>883.85</ele>
        <time>2022-10-10T10:18:28Z</time>
      </trkpt>
      <trkpt lat="43.94729" lon="6.51364">
        <ele>884.4</ele>
        <time>2022-10-10T10:18:29Z</time>
      </trkpt>
      <trkpt lat="43.94738" lon="6.5134">
        <ele>884.4</ele>
        <time>2022-10-10T10:18:30Z</time>
      </trkpt>
      <trkpt lat="43.94764" lon="6.51275">
        <ele>885.35</ele>
        <time>2022-10-10T10:18:33Z</time>
      </trkpt>
      <trkpt lat="43.94774" lon="6.51258">
        <ele>885.35</ele>
        <time>2022-10-10T10:18:34Z</time>
      </trkpt>
      <trkpt lat="43.94788" lon="6.51246">
        <ele>886.39</ele>
        <time>2022-10-10T10:18:35Z</time>
      </trkpt>
      <trkpt lat="43.94803" lon="6.5124">
        <ele>886.41</ele>
        <time>2022-10-10T10:18:36Z</time>
      </trkpt>
      <trkpt lat="43.9482" lon="6.51241">
        <ele>887.52</ele>
        <time>2022-10-10T10:18:37Z</time>
      </trkpt>
      <trkpt lat="43.94839" lon="6.51244">
        <ele>888.69</ele>
        <time>2022-10-10T10:18:38Z</time>
      </trkpt>
      <trkpt lat="43.94877" lon="6.51253">
        <ele>890.07</ele>
        <time>2022-10-10T10:18:40Z</time>
      </trkpt>
      <trkpt lat="43.94911" lon="6.51261">
        <ele>891.39</ele>
        <time>2022-10-10T10:18:42Z</time>
      </trkpt>
      <trkpt lat="43.94926" lon="6.51262">
        <ele>891.39</ele>
        <time>2022-10-10T10:18:43Z</time>
      </trkpt>
      <trkpt lat="43.94941" lon="6.51259">
        <ele>891.37</ele>
        <time>2022-10-10T10:18:44Z</time>
      </trkpt>
      <trkpt lat="43.94954" lon="6.51249">
        <ele>891.37</ele>
        <time>2022-10-10T10:18:45Z</time>
      </trkpt>
      <trkpt lat="43.94964" lon="6.51232">
        <ele>892.86</ele>
        <time>2022-10-10T10:18:46Z</time>
      </trkpt>
      <trkpt lat="43.94972" lon="6.51211">
        <ele>892.91</ele>
        <time>2022-10-10T10:18:47Z</time>
      </trkpt>
      <trkpt lat="43.94979" lon="6.51189">
        <ele>894.25</ele>
        <time>2022-10-10T10:18:48Z</time>
      </trkpt>
      <trkpt lat="43.9499" lon="6.51169">
        <ele>894.51</ele>
        <time>2022-10-10T10:18:49Z</time>
      </trkpt>
      <trkpt lat="43.95005" lon="6.51154">
        <ele>895.43</ele>
        <time>2022-10-10T10:18:50Z</time>
      </trkpt>
      <trkpt lat="43.95023" lon="6.51143">
        <ele>896.97</ele>
        <time>2022-10-10T10:18:51Z</time>
      </trkpt>
      <trkpt lat="43.95042" lon="6.51134">
        <ele>898.26</ele>
        <time>2022-10-10T10:18:52Z</time>
      </trkpt>
      <trkpt lat="43.95063" lon="6.51128">
        <ele>899.27</ele>
        <time>2022-10-10T10:18:53Z</time>
      </trkpt>
      <trkpt lat="43.95105" lon="6.51113">
        <ele>900.33</ele>
        <time>2022-10-10T10:18:55Z</time>
      </trkpt>
      <trkpt lat="43.95144" lon="6.51099">
        <ele>901.9</ele>
        <time>2022-10-10T10:18:57Z</time>
      </trkpt>
      <trkpt lat="43.95211" lon="6.51071">
        <ele>897.88</ele>
        <time>2022-10-10T10:19:01Z</time>
      </trkpt>
      <trkpt lat="43.95226" lon="6.5106">
        <ele>896.67</ele>
        <time>2022-10-10T10:19:02Z</time>
      </trkpt>
      <trkpt lat="43.95239" lon="6.51045">
        <ele>895.77</ele>
        <time>2022-10-10T10:19:03Z</time>
      </trkpt>
      <trkpt lat="43.95252" lon="6.51029">
        <ele>894.77</ele>
        <time>2022-10-10T10:19:04Z</time>
      </trkpt>
      <trkpt lat="43.95266" lon="6.51014">
        <ele>893.48</ele>
        <time>2022-10-10T10:19:05Z</time>
      </trkpt>
      <trkpt lat="43.95281" lon="6.51001">
        <ele>893.41</ele>
        <time>2022-10-10T10:19:06Z</time>
      </trkpt>
      <trkpt lat="43.95297" lon="6.50993">
        <ele>890.85</ele>
        <time>2022-10-10T10:19:07Z</time>
      </trkpt>
      <trkpt lat="43.95313" lon="6.50988">
        <ele>889.42</ele>
        <time>2022-10-10T10:19:08Z</time>
      </trkpt>
      <trkpt lat="43.95329" lon="6.50985">
        <ele>888.38</ele>
        <time>2022-10-10T10:19:09Z</time>
      </trkpt>
      <trkpt lat="43.95361" lon="6.50976">
        <ele>886.92</ele>
        <time>2022-10-10T10:19:11Z</time>
      </trkpt>
      <trkpt lat="43.95376" lon="6.50967">
        <ele>885.01</ele>
        <time>2022-10-10T10:19:12Z</time>
      </trkpt>
      <trkpt lat="43.95392" lon="6.50956">
        <ele>884</ele>
        <time>2022-10-10T10:19:13Z</time>
      </trkpt>
      <trkpt lat="43.95457" lon="6.50905">
        <ele>881.23</ele>
        <time>2022-10-10T10:19:17Z</time>
      </trkpt>
      <trkpt lat="43.95475" lon="6.50896">
        <ele>878.41</ele>
        <time>2022-10-10T10:19:18Z</time>
      </trkpt>
      <trkpt lat="43.95493" lon="6.50888">
        <ele>878.41</ele>
        <time>2022-10-10T10:19:19Z</time>
      </trkpt>
      <trkpt lat="43.95527" lon="6.50876">
        <ele>875.25</ele>
        <time>2022-10-10T10:19:21Z</time>
      </trkpt>
      <trkpt lat="43.95543" lon="6.50867">
        <ele>874.04</ele>
        <time>2022-10-10T10:19:22Z</time>
      </trkpt>
      <trkpt lat="43.95558" lon="6.50854">
        <ele>873.93</ele>
        <time>2022-10-10T10:19:23Z</time>
      </trkpt>
      <trkpt lat="43.95574" lon="6.50838">
        <ele>873.88</ele>
        <time>2022-10-10T10:19:24Z</time>
      </trkpt>
      <trkpt lat="43.95656" lon="6.50759">
        <ele>874.63</ele>
        <time>2022-10-10T10:19:29Z</time>
      </trkpt>
      <trkpt lat="43.95815" lon="6.50658">
        <ele>873.87</ele>
        <time>2022-10-10T10:19:39Z</time>
      </trkpt>
      <trkpt lat="43.95888" lon="6.50622">
        <ele>872.98</ele>
        <time>2022-10-10T10:19:45Z</time>
      </trkpt>
      <trkpt lat="43.959" lon="6.50621">
        <ele>873</ele>
        <time>2022-10-10T10:19:46Z</time>
      </trkpt>
      <trkpt lat="43.96021" lon="6.5063">
        <ele>872.18</ele>
        <time>2022-10-10T10:19:57Z</time>
      </trkpt>
      <trkpt lat="43.96064" lon="6.50638">
        <ele>871.21</ele>
        <time>2022-10-10T10:20:03Z</time>
      </trkpt>
      <trkpt lat="43.96067" lon="6.50641">
        <ele>870.43</ele>
        <time>2022-10-10T10:20:04Z</time>
      </trkpt>
      <trkpt lat="43.96069" lon="6.50646">
        <ele>870.45</ele>
        <time>2022-10-10T10:20:05Z</time>
      </trkpt>
      <trkpt lat="43.9607" lon="6.50652">
        <ele>870.44</ele>
        <time>2022-10-10T10:20:06Z</time>
      </trkpt>
      <trkpt lat="43.96071" lon="6.50656">
        <ele>870.42</ele>
        <time>2022-10-10T10:20:07Z</time>
      </trkpt>
      <trkpt lat="43.96074" lon="6.50659">
        <ele>869.53</ele>
        <time>2022-10-10T10:20:08Z</time>
      </trkpt>
      <trkpt lat="43.96076" lon="6.50661">
        <ele>869.54</ele>
        <time>2022-10-10T10:20:09Z</time>
      </trkpt>
      <trkpt lat="43.96078" lon="6.50662">
        <ele>869.54</ele>
        <time>2022-10-10T10:20:10Z</time>
      </trkpt>
      <trkpt lat="43.96084" lon="6.50678">
        <ele>869.66</ele>
        <time>2022-10-10T10:20:17Z</time>
      </trkpt>
      <trkpt lat="43.96081" lon="6.50666">
        <ele>869.64</ele>
        <time>2022-10-10T10:20:24Z</time>
      </trkpt>
      <trkpt lat="43.96081" lon="6.50663">
        <ele>869.64</ele>
        <time>2022-10-10T10:20:25Z</time>
      </trkpt>
      <trkpt lat="43.96083" lon="6.50661">
        <ele>869.65</ele>
        <time>2022-10-10T10:20:26Z</time>
      </trkpt>
      <trkpt lat="43.96086" lon="6.5066">
        <ele>869.64</ele>
        <time>2022-10-10T10:20:27Z</time>
      </trkpt>
      <trkpt lat="43.96089" lon="6.50659">
        <ele>869.64</ele>
        <time>2022-10-10T10:20:28Z</time>
      </trkpt>
      <trkpt lat="43.96091" lon="6.50657">
        <ele>869.64</ele>
        <time>2022-10-10T10:20:29Z</time>
      </trkpt>
      <trkpt lat="43.96094" lon="6.50651">
        <ele>869.64</ele>
        <time>2022-10-10T10:20:31Z</time>
      </trkpt>
      <trkpt lat="43.96093" lon="6.50647">
        <ele>869.64</ele>
        <time>2022-10-10T10:20:48Z</time>
      </trkpt>
      <trkpt lat="43.96184" lon="6.50648">
        <ele>872.4</ele>
        <time>2022-10-10T10:23:44Z</time>
      </trkpt>
      <trkpt lat="43.96276" lon="6.50661">
        <ele>874.1</ele>
        <time>2022-10-10T10:23:50Z</time>
      </trkpt>
      <trkpt lat="43.96421" lon="6.50669">
        <ele>874.87</ele>
        <time>2022-10-10T10:24:00Z</time>
      </trkpt>
      <trkpt lat="43.96429" lon="6.5067">
        <ele>874.71</ele>
        <time>2022-10-10T10:24:01Z</time>
      </trkpt>
      <trkpt lat="43.96436" lon="6.50672">
        <ele>874.53</ele>
        <time>2022-10-10T10:24:02Z</time>
      </trkpt>
      <trkpt lat="43.96442" lon="6.50675">
        <ele>874.34</ele>
        <time>2022-10-10T10:24:03Z</time>
      </trkpt>
      <trkpt lat="43.96449" lon="6.50679">
        <ele>874.16</ele>
        <time>2022-10-10T10:24:04Z</time>
      </trkpt>
      <trkpt lat="43.96455" lon="6.50679">
        <ele>873.97</ele>
        <time>2022-10-10T10:24:05Z</time>
      </trkpt>
      <trkpt lat="43.96461" lon="6.50676">
        <ele>873.81</ele>
        <time>2022-10-10T10:24:06Z</time>
      </trkpt>
      <trkpt lat="43.96466" lon="6.5067">
        <ele>873.69</ele>
        <time>2022-10-10T10:24:07Z</time>
      </trkpt>
      <trkpt lat="43.96471" lon="6.50664">
        <ele>873.58</ele>
        <time>2022-10-10T10:24:08Z</time>
      </trkpt>
      <trkpt lat="43.96478" lon="6.50658">
        <ele>873.52</ele>
        <time>2022-10-10T10:24:09Z</time>
      </trkpt>
      <trkpt lat="43.96485" lon="6.50654">
        <ele>873.39</ele>
        <time>2022-10-10T10:24:10Z</time>
      </trkpt>
      <trkpt lat="43.96493" lon="6.5065">
        <ele>873.23</ele>
        <time>2022-10-10T10:24:11Z</time>
      </trkpt>
      <trkpt lat="43.96502" lon="6.50649">
        <ele>874.1</ele>
        <time>2022-10-10T10:24:12Z</time>
      </trkpt>
      <trkpt lat="43.96511" lon="6.5065">
        <ele>873.97</ele>
        <time>2022-10-10T10:24:13Z</time>
      </trkpt>
      <trkpt lat="43.96521" lon="6.50652">
        <ele>874.62</ele>
        <time>2022-10-10T10:24:14Z</time>
      </trkpt>
      <trkpt lat="43.96625" lon="6.50677">
        <ele>874.78</ele>
        <time>2022-10-10T10:24:24Z</time>
      </trkpt>
      <trkpt lat="43.96702" lon="6.50696">
        <ele>874.2</ele>
        <time>2022-10-10T10:24:32Z</time>
      </trkpt>
      <trkpt lat="43.96709" lon="6.50701">
        <ele>874.15</ele>
        <time>2022-10-10T10:24:33Z</time>
      </trkpt>
      <trkpt lat="43.96722" lon="6.5071">
        <ele>874.11</ele>
        <time>2022-10-10T10:24:35Z</time>
      </trkpt>
      <trkpt lat="43.96729" lon="6.50712">
        <ele>874.09</ele>
        <time>2022-10-10T10:24:36Z</time>
      </trkpt>
      <trkpt lat="43.96735" lon="6.50713">
        <ele>874.05</ele>
        <time>2022-10-10T10:24:37Z</time>
      </trkpt>
      <trkpt lat="43.96802" lon="6.50729">
        <ele>874.07</ele>
        <time>2022-10-10T10:24:45Z</time>
      </trkpt>
      <trkpt lat="43.96844" lon="6.50744">
        <ele>874.1</ele>
        <time>2022-10-10T10:24:53Z</time>
      </trkpt>
      <trkpt lat="43.96844" lon="6.50747">
        <ele>874.13</ele>
        <time>2022-10-10T10:24:56Z</time>
      </trkpt>
      <trkpt lat="43.96844" lon="6.50751">
        <ele>874.1</ele>
        <time>2022-10-10T10:24:57Z</time>
      </trkpt>
      <trkpt lat="43.96837" lon="6.50776">
        <ele>874.07</ele>
        <time>2022-10-10T10:25:01Z</time>
      </trkpt>
      <trkpt lat="43.96835" lon="6.5079">
        <ele>874.03</ele>
        <time>2022-10-10T10:25:03Z</time>
      </trkpt>
      <trkpt lat="43.96826" lon="6.5082">
        <ele>873.18</ele>
        <time>2022-10-10T10:25:07Z</time>
      </trkpt>
      <trkpt lat="43.96825" lon="6.50827">
        <ele>873.18</ele>
        <time>2022-10-10T10:25:08Z</time>
      </trkpt>
      <trkpt lat="43.96823" lon="6.5084">
        <ele>872.37</ele>
        <time>2022-10-10T10:25:10Z</time>
      </trkpt>
      <trkpt lat="43.9682" lon="6.50846">
        <ele>872.37</ele>
        <time>2022-10-10T10:25:11Z</time>
      </trkpt>
      <trkpt lat="43.96793" lon="6.50924">
        <ele>871.44</ele>
        <time>2022-10-10T10:25:24Z</time>
      </trkpt>
      <trkpt lat="43.96791" lon="6.50925">
        <ele>871.44</ele>
        <time>2022-10-10T10:25:25Z</time>
      </trkpt>
      <trkpt lat="43.96789" lon="6.50925">
        <ele>871.44</ele>
        <time>2022-10-10T10:25:26Z</time>
      </trkpt>
      <trkpt lat="43.96782" lon="6.50923">
        <ele>871.46</ele>
        <time>2022-10-10T10:25:28Z</time>
      </trkpt>
      <trkpt lat="43.96742" lon="6.50892">
        <ele>870.66</ele>
        <time>2022-10-10T10:25:36Z</time>
      </trkpt>
      <trkpt lat="43.96675" lon="6.50849">
        <ele>870.6</ele>
        <time>2022-10-10T10:25:47Z</time>
      </trkpt>
      <trkpt lat="43.96647" lon="6.50829">
        <ele>870.63</ele>
        <time>2022-10-10T10:25:52Z</time>
      </trkpt>
      <trkpt lat="43.96634" lon="6.50822">
        <ele>869.37</ele>
        <time>2022-10-10T10:25:54Z</time>
      </trkpt>
      <trkpt lat="43.96617" lon="6.5081">
        <ele>869.33</ele>
        <time>2022-10-10T10:25:57Z</time>
      </trkpt>
      <trkpt lat="43.9661" lon="6.50802">
        <ele>869.33</ele>
        <time>2022-10-10T10:26:03Z</time>
      </trkpt>
      <trkpt lat="43.96591" lon="6.50785">
        <ele>869.39</ele>
        <time>2022-10-10T10:26:20Z</time>
      </trkpt>
      <trkpt lat="43.96552" lon="6.50752">
        <ele>869.38</ele>
        <time>2022-10-10T10:26:30Z</time>
      </trkpt>
      <trkpt lat="43.9655" lon="6.50745">
        <ele>869.39</ele>
        <time>2022-10-10T10:26:31Z</time>
      </trkpt>
      <trkpt lat="43.96551" lon="6.50738">
        <ele>869.39</ele>
        <time>2022-10-10T10:26:32Z</time>
      </trkpt>
      <trkpt lat="43.96553" lon="6.5073">
        <ele>869.4</ele>
        <time>2022-10-10T10:26:33Z</time>
      </trkpt>
      <trkpt lat="43.96556" lon="6.50721">
        <ele>869.42</ele>
        <time>2022-10-10T10:26:34Z</time>
      </trkpt>
      <trkpt lat="43.96561" lon="6.50697">
        <ele>869.42</ele>
        <time>2022-10-10T10:26:37Z</time>
      </trkpt>
      <trkpt lat="43.96561" lon="6.50692">
        <ele>871.7</ele>
        <time>2022-10-10T10:26:38Z</time>
      </trkpt>
      <trkpt lat="43.9656" lon="6.50688">
        <ele>871.71</ele>
        <time>2022-10-10T10:26:39Z</time>
      </trkpt>
      <trkpt lat="43.9656" lon="6.50686">
        <ele>871.74</ele>
        <time>2022-10-10T10:26:49Z</time>
      </trkpt>
      <trkpt lat="43.96561" lon="6.50688">
        <ele>871.79</ele>
        <time>2022-10-10T10:26:57Z</time>
      </trkpt>
      <trkpt lat="43.96562" lon="6.50688">
        <ele>871.8</ele>
        <time>2022-10-10T10:26:58Z</time>
      </trkpt>
      <trkpt lat="43.96564" lon="6.5069">
        <ele>871.81</ele>
        <time>2022-10-10T10:26:59Z</time>
      </trkpt>
      <trkpt lat="43.96563" lon="6.507">
        <ele>871.83</ele>
        <time>2022-10-10T10:27:01Z</time>
      </trkpt>
      <trkpt lat="43.96562" lon="6.50707">
        <ele>871.84</ele>
        <time>2022-10-10T10:27:02Z</time>
      </trkpt>
      <trkpt lat="43.9656" lon="6.50715">
        <ele>871.85</ele>
        <time>2022-10-10T10:27:03Z</time>
      </trkpt>
      <trkpt lat="43.96558" lon="6.50722">
        <ele>871.86</ele>
        <time>2022-10-10T10:27:04Z</time>
      </trkpt>
      <trkpt lat="43.96551" lon="6.50744">
        <ele>869.21</ele>
        <time>2022-10-10T10:27:08Z</time>
      </trkpt>
      <trkpt lat="43.9655" lon="6.50749">
        <ele>869.25</ele>
        <time>2022-10-10T10:27:12Z</time>
      </trkpt>
      <trkpt lat="43.9655" lon="6.50752">
        <ele>869.28</ele>
        <time>2022-10-10T10:27:13Z</time>
      </trkpt>
      <trkpt lat="43.96551" lon="6.50757">
        <ele>869.29</ele>
        <time>2022-10-10T10:27:14Z</time>
      </trkpt>
      <trkpt lat="43.96555" lon="6.50762">
        <ele>869.28</ele>
        <time>2022-10-10T10:27:15Z</time>
      </trkpt>
      <trkpt lat="43.9656" lon="6.50766">
        <ele>869.29</ele>
        <time>2022-10-10T10:27:16Z</time>
      </trkpt>
      <trkpt lat="43.96566" lon="6.50771">
        <ele>869.29</ele>
        <time>2022-10-10T10:27:17Z</time>
      </trkpt>
      <trkpt lat="43.96629" lon="6.50822">
        <ele>869.43</ele>
        <time>2022-10-10T10:27:29Z</time>
      </trkpt>
      <trkpt lat="43.96655" lon="6.50841">
        <ele>869.49</ele>
        <time>2022-10-10T10:27:34Z</time>
      </trkpt>
      <trkpt lat="43.96672" lon="6.50851">
        <ele>869.52</ele>
        <time>2022-10-10T10:27:37Z</time>
      </trkpt>
      <trkpt lat="43.96679" lon="6.50855">
        <ele>869.53</ele>
        <time>2022-10-10T10:27:38Z</time>
      </trkpt>
      <trkpt lat="43.9672" lon="6.50874">
        <ele>869.52</ele>
        <time>2022-10-10T10:27:45Z</time>
      </trkpt>
      <trkpt lat="43.96723" lon="6.50878">
        <ele>869.52</ele>
        <time>2022-10-10T10:27:46Z</time>
      </trkpt>
      <trkpt lat="43.96727" lon="6.5088">
        <ele>869.52</ele>
        <time>2022-10-10T10:27:47Z</time>
      </trkpt>
      <trkpt lat="43.9673" lon="6.50884">
        <ele>869.53</ele>
        <time>2022-10-10T10:27:48Z</time>
      </trkpt>
      <trkpt lat="43.96732" lon="6.50888">
        <ele>869.54</ele>
        <time>2022-10-10T10:27:49Z</time>
      </trkpt>
      <trkpt lat="43.96734" lon="6.50891">
        <ele>869.54</ele>
        <time>2022-10-10T10:27:50Z</time>
      </trkpt>
      <trkpt lat="43.96735" lon="6.50895">
        <ele>869.55</ele>
        <time>2022-10-10T10:27:51Z</time>
      </trkpt>
      <trkpt lat="43.9674" lon="6.50906">
        <ele>869.59</ele>
        <time>2022-10-10T10:28:01Z</time>
      </trkpt>
      <trkpt lat="43.96736" lon="6.50907">
        <ele>869.67</ele>
        <time>2022-10-10T10:28:28Z</time>
      </trkpt>
      <trkpt lat="43.96756" lon="6.50899">
        <ele>887.96</ele>
        <time>2022-10-10T11:31:34Z</time>
      </trkpt>
      <trkpt lat="43.96756" lon="6.50899">
        <ele>887.96</ele>
        <time>2022-10-10T11:31:35Z</time>
      </trkpt>
      <trkpt lat="43.96761" lon="6.50904">
        <ele>888.8</ele>
        <time>2022-10-10T11:32:02Z</time>
      </trkpt>
      <trkpt lat="43.96756" lon="6.50905">
        <ele>889.16</ele>
        <time>2022-10-10T11:32:51Z</time>
      </trkpt>
      <trkpt lat="43.96757" lon="6.50906">
        <ele>889.32</ele>
        <time>2022-10-10T11:33:15Z</time>
      </trkpt>
      <trkpt lat="43.9675" lon="6.50901">
        <ele>889.35</ele>
        <time>2022-10-10T11:33:19Z</time>
      </trkpt>
      <trkpt lat="43.96749" lon="6.50899">
        <ele>889.36</ele>
        <time>2022-10-10T11:33:20Z</time>
      </trkpt>
      <trkpt lat="43.96748" lon="6.50896">
        <ele>889.36</ele>
        <time>2022-10-10T11:33:21Z</time>
      </trkpt>
      <trkpt lat="43.96748" lon="6.50893">
        <ele>889.37</ele>
        <time>2022-10-10T11:33:22Z</time>
      </trkpt>
      <trkpt lat="43.96748" lon="6.5089">
        <ele>889.37</ele>
        <time>2022-10-10T11:33:23Z</time>
      </trkpt>
      <trkpt lat="43.96747" lon="6.50887">
        <ele>889.39</ele>
        <time>2022-10-10T11:33:24Z</time>
      </trkpt>
      <trkpt lat="43.96747" lon="6.50882">
        <ele>889.4</ele>
        <time>2022-10-10T11:33:25Z</time>
      </trkpt>
      <trkpt lat="43.96739" lon="6.50832">
        <ele>889.47</ele>
        <time>2022-10-10T11:33:37Z</time>
      </trkpt>
      <trkpt lat="43.96738" lon="6.50823">
        <ele>889.47</ele>
        <time>2022-10-10T11:33:40Z</time>
      </trkpt>
      <trkpt lat="43.96737" lon="6.50821">
        <ele>889.49</ele>
        <time>2022-10-10T11:33:41Z</time>
      </trkpt>
      <trkpt lat="43.96735" lon="6.50821">
        <ele>889.47</ele>
        <time>2022-10-10T11:33:42Z</time>
      </trkpt>
      <trkpt lat="43.96716" lon="6.5081">
        <ele>889.5</ele>
        <time>2022-10-10T11:33:51Z</time>
      </trkpt>
      <trkpt lat="43.96711" lon="6.50809">
        <ele>889.5</ele>
        <time>2022-10-10T11:33:53Z</time>
      </trkpt>
      <trkpt lat="43.96708" lon="6.5081">
        <ele>889.51</ele>
        <time>2022-10-10T11:33:54Z</time>
      </trkpt>
      <trkpt lat="43.96706" lon="6.50812">
        <ele>889.51</ele>
        <time>2022-10-10T11:33:55Z</time>
      </trkpt>
      <trkpt lat="43.96704" lon="6.50815">
        <ele>889.51</ele>
        <time>2022-10-10T11:33:56Z</time>
      </trkpt>
      <trkpt lat="43.96702" lon="6.50818">
        <ele>889.52</ele>
        <time>2022-10-10T11:33:57Z</time>
      </trkpt>
      <trkpt lat="43.96701" lon="6.50821">
        <ele>889.5</ele>
        <time>2022-10-10T11:33:58Z</time>
      </trkpt>
      <trkpt lat="43.96702" lon="6.50825">
        <ele>889.5</ele>
        <time>2022-10-10T11:33:59Z</time>
      </trkpt>
      <trkpt lat="43.96703" lon="6.50827">
        <ele>889.5</ele>
        <time>2022-10-10T11:34:00Z</time>
      </trkpt>
      <trkpt lat="43.96705" lon="6.50829">
        <ele>889.5</ele>
        <time>2022-10-10T11:34:01Z</time>
      </trkpt>
      <trkpt lat="43.96706" lon="6.50829">
        <ele>889.51</ele>
        <time>2022-10-10T11:34:02Z</time>
      </trkpt>
      <trkpt lat="43.96708" lon="6.50828">
        <ele>889.51</ele>
        <time>2022-10-10T11:34:03Z</time>
      </trkpt>
      <trkpt lat="43.9671" lon="6.50826">
        <ele>889.51</ele>
        <time>2022-10-10T11:34:04Z</time>
      </trkpt>
      <trkpt lat="43.96711" lon="6.50823">
        <ele>889.51</ele>
        <time>2022-10-10T11:34:05Z</time>
      </trkpt>
      <trkpt lat="43.96712" lon="6.50821">
        <ele>889.52</ele>
        <time>2022-10-10T11:34:06Z</time>
      </trkpt>
      <trkpt lat="43.96713" lon="6.5082">
        <ele>889.52</ele>
        <time>2022-10-10T11:34:07Z</time>
      </trkpt>
      <trkpt lat="43.96715" lon="6.50818">
        <ele>889.5</ele>
        <time>2022-10-10T11:34:08Z</time>
      </trkpt>
      <trkpt lat="43.96717" lon="6.50816">
        <ele>889.52</ele>
        <time>2022-10-10T11:34:09Z</time>
      </trkpt>
      <trkpt lat="43.96719" lon="6.50814">
        <ele>889.52</ele>
        <time>2022-10-10T11:34:10Z</time>
      </trkpt>
      <trkpt lat="43.96721" lon="6.50813">
        <ele>889.52</ele>
        <time>2022-10-10T11:34:11Z</time>
      </trkpt>
      <trkpt lat="43.96727" lon="6.50813">
        <ele>889.52</ele>
        <time>2022-10-10T11:34:14Z</time>
      </trkpt>
      <trkpt lat="43.96731" lon="6.50814">
        <ele>889.51</ele>
        <time>2022-10-10T11:34:16Z</time>
      </trkpt>
      <trkpt lat="43.96734" lon="6.50821">
        <ele>889.47</ele>
        <time>2022-10-10T11:34:20Z</time>
      </trkpt>
      <trkpt lat="43.96727" lon="6.50835">
        <ele>889.42</ele>
        <time>2022-10-10T11:34:26Z</time>
      </trkpt>
      <trkpt lat="43.96725" lon="6.50836">
        <ele>889.41</ele>
        <time>2022-10-10T11:34:27Z</time>
      </trkpt>
      <trkpt lat="43.96719" lon="6.50837">
        <ele>889.35</ele>
        <time>2022-10-10T11:34:30Z</time>
      </trkpt>
      <trkpt lat="43.96695" lon="6.5081">
        <ele>889.36</ele>
        <time>2022-10-10T11:34:41Z</time>
      </trkpt>
      <trkpt lat="43.96699" lon="6.50793">
        <ele>889.3</ele>
        <time>2022-10-10T11:34:45Z</time>
      </trkpt>
      <trkpt lat="43.9669" lon="6.50789">
        <ele>889.25</ele>
        <time>2022-10-10T11:34:49Z</time>
      </trkpt>
      <trkpt lat="43.96689" lon="6.50793">
        <ele>889.25</ele>
        <time>2022-10-10T11:34:50Z</time>
      </trkpt>
      <trkpt lat="43.96689" lon="6.50797">
        <ele>889.24</ele>
        <time>2022-10-10T11:34:51Z</time>
      </trkpt>
      <trkpt lat="43.96689" lon="6.50801">
        <ele>889.24</ele>
        <time>2022-10-10T11:34:52Z</time>
      </trkpt>
      <trkpt lat="43.96709" lon="6.50839">
        <ele>889.23</ele>
        <time>2022-10-10T11:35:04Z</time>
      </trkpt>
      <trkpt lat="43.96723" lon="6.50846">
        <ele>889.1</ele>
        <time>2022-10-10T11:35:11Z</time>
      </trkpt>
      <trkpt lat="43.96724" lon="6.50848">
        <ele>889.1</ele>
        <time>2022-10-10T11:35:12Z</time>
      </trkpt>
      <trkpt lat="43.96723" lon="6.50851">
        <ele>888.97</ele>
        <time>2022-10-10T11:35:31Z</time>
      </trkpt>
      <trkpt lat="43.96727" lon="6.5085">
        <ele>888.73</ele>
        <time>2022-10-10T11:36:17Z</time>
      </trkpt>
      <trkpt lat="43.96732" lon="6.5085">
        <ele>888.64</ele>
        <time>2022-10-10T11:37:10Z</time>
      </trkpt>
      <trkpt lat="43.96731" lon="6.50851">
        <ele>888.62</ele>
        <time>2022-10-10T11:37:46Z</time>
      </trkpt>
      <trkpt lat="43.96732" lon="6.50851">
        <ele>888.62</ele>
        <time>2022-10-10T11:37:47Z</time>
      </trkpt>
      <trkpt lat="43.96734" lon="6.50844">
        <ele>888.63</ele>
        <time>2022-10-10T11:38:03Z</time>
      </trkpt>
      <trkpt lat="43.96735" lon="6.50842">
        <ele>888.62</ele>
        <time>2022-10-10T11:38:13Z</time>
      </trkpt>
      <trkpt lat="43.96735" lon="6.5084">
        <ele>888.62</ele>
        <time>2022-10-10T11:38:14Z</time>
      </trkpt>
      <trkpt lat="43.96735" lon="6.50836">
        <ele>888.62</ele>
        <time>2022-10-10T11:38:15Z</time>
      </trkpt>
      <trkpt lat="43.96736" lon="6.50832">
        <ele>888.61</ele>
        <time>2022-10-10T11:38:16Z</time>
      </trkpt>
      <trkpt lat="43.96738" lon="6.50827">
        <ele>888.62</ele>
        <time>2022-10-10T11:38:17Z</time>
      </trkpt>
      <trkpt lat="43.9674" lon="6.50822">
        <ele>888.61</ele>
        <time>2022-10-10T11:38:18Z</time>
      </trkpt>
      <trkpt lat="43.96743" lon="6.50817">
        <ele>888.62</ele>
        <time>2022-10-10T11:38:19Z</time>
      </trkpt>
      <trkpt lat="43.96746" lon="6.50812">
        <ele>888.62</ele>
        <time>2022-10-10T11:38:20Z</time>
      </trkpt>
      <trkpt lat="43.96752" lon="6.50803">
        <ele>888.61</ele>
        <time>2022-10-10T11:38:22Z</time>
      </trkpt>
      <trkpt lat="43.96756" lon="6.50802">
        <ele>888.61</ele>
        <time>2022-10-10T11:38:23Z</time>
      </trkpt>
      <trkpt lat="43.96791" lon="6.50818">
        <ele>889.68</ele>
        <time>2022-10-10T11:38:29Z</time>
      </trkpt>
      <trkpt lat="43.96807" lon="6.50816">
        <ele>889.62</ele>
        <time>2022-10-10T11:38:32Z</time>
      </trkpt>
      <trkpt lat="43.9681" lon="6.50809">
        <ele>889.62</ele>
        <time>2022-10-10T11:38:33Z</time>
      </trkpt>
      <trkpt lat="43.96812" lon="6.50801">
        <ele>889.63</ele>
        <time>2022-10-10T11:38:34Z</time>
      </trkpt>
      <trkpt lat="43.96814" lon="6.50792">
        <ele>889.62</ele>
        <time>2022-10-10T11:38:35Z</time>
      </trkpt>
      <trkpt lat="43.96818" lon="6.50774">
        <ele>889.63</ele>
        <time>2022-10-10T11:38:37Z</time>
      </trkpt>
      <trkpt lat="43.96819" lon="6.50765">
        <ele>889.63</ele>
        <time>2022-10-10T11:38:38Z</time>
      </trkpt>
      <trkpt lat="43.96818" lon="6.50758">
        <ele>889.64</ele>
        <time>2022-10-10T11:38:39Z</time>
      </trkpt>
      <trkpt lat="43.96813" lon="6.50753">
        <ele>890.44</ele>
        <time>2022-10-10T11:38:40Z</time>
      </trkpt>
      <trkpt lat="43.96808" lon="6.5075">
        <ele>890.46</ele>
        <time>2022-10-10T11:38:41Z</time>
      </trkpt>
      <trkpt lat="43.96804" lon="6.50748">
        <ele>890.44</ele>
        <time>2022-10-10T11:38:42Z</time>
      </trkpt>
      <trkpt lat="43.96801" lon="6.50746">
        <ele>890.44</ele>
        <time>2022-10-10T11:38:43Z</time>
      </trkpt>
      <trkpt lat="43.968" lon="6.50743">
        <ele>890.43</ele>
        <time>2022-10-10T11:38:44Z</time>
      </trkpt>
      <trkpt lat="43.968" lon="6.50739">
        <ele>890.44</ele>
        <time>2022-10-10T11:38:45Z</time>
      </trkpt>
      <trkpt lat="43.96801" lon="6.50736">
        <ele>891.67</ele>
        <time>2022-10-10T11:38:46Z</time>
      </trkpt>
      <trkpt lat="43.96802" lon="6.50733">
        <ele>891.66</ele>
        <time>2022-10-10T11:38:47Z</time>
      </trkpt>
      <trkpt lat="43.96805" lon="6.50732">
        <ele>891.65</ele>
        <time>2022-10-10T11:38:48Z</time>
      </trkpt>
      <trkpt lat="43.9681" lon="6.50732">
        <ele>891.66</ele>
        <time>2022-10-10T11:38:49Z</time>
      </trkpt>
      <trkpt lat="43.96817" lon="6.50734">
        <ele>891.65</ele>
        <time>2022-10-10T11:38:50Z</time>
      </trkpt>
      <trkpt lat="43.96824" lon="6.50737">
        <ele>891.65</ele>
        <time>2022-10-10T11:38:51Z</time>
      </trkpt>
      <trkpt lat="43.96852" lon="6.50746">
        <ele>893.21</ele>
        <time>2022-10-10T11:38:55Z</time>
      </trkpt>
      <trkpt lat="43.96858" lon="6.50745">
        <ele>893.22</ele>
        <time>2022-10-10T11:38:56Z</time>
      </trkpt>
      <trkpt lat="43.96863" lon="6.50741">
        <ele>893.21</ele>
        <time>2022-10-10T11:38:57Z</time>
      </trkpt>
      <trkpt lat="43.96866" lon="6.50733">
        <ele>893.21</ele>
        <time>2022-10-10T11:38:58Z</time>
      </trkpt>
      <trkpt lat="43.96866" lon="6.50723">
        <ele>893.98</ele>
        <time>2022-10-10T11:38:59Z</time>
      </trkpt>
      <trkpt lat="43.96866" lon="6.50712">
        <ele>894</ele>
        <time>2022-10-10T11:39:00Z</time>
      </trkpt>
      <trkpt lat="43.96867" lon="6.50702">
        <ele>894</ele>
        <time>2022-10-10T11:39:01Z</time>
      </trkpt>
      <trkpt lat="43.96869" lon="6.50692">
        <ele>895.69</ele>
        <time>2022-10-10T11:39:02Z</time>
      </trkpt>
      <trkpt lat="43.96872" lon="6.50681">
        <ele>895.68</ele>
        <time>2022-10-10T11:39:03Z</time>
      </trkpt>
      <trkpt lat="43.9689" lon="6.50616">
        <ele>899.56</ele>
        <time>2022-10-10T11:39:09Z</time>
      </trkpt>
      <trkpt lat="43.96892" lon="6.50603">
        <ele>899.55</ele>
        <time>2022-10-10T11:39:10Z</time>
      </trkpt>
      <trkpt lat="43.96893" lon="6.50591">
        <ele>900.44</ele>
        <time>2022-10-10T11:39:11Z</time>
      </trkpt>
      <trkpt lat="43.96893" lon="6.50578">
        <ele>900.44</ele>
        <time>2022-10-10T11:39:12Z</time>
      </trkpt>
      <trkpt lat="43.96892" lon="6.50565">
        <ele>901.51</ele>
        <time>2022-10-10T11:39:13Z</time>
      </trkpt>
      <trkpt lat="43.96889" lon="6.50553">
        <ele>902.59</ele>
        <time>2022-10-10T11:39:14Z</time>
      </trkpt>
      <trkpt lat="43.96885" lon="6.50542">
        <ele>902.68</ele>
        <time>2022-10-10T11:39:15Z</time>
      </trkpt>
      <trkpt lat="43.96879" lon="6.50531">
        <ele>902.73</ele>
        <time>2022-10-10T11:39:16Z</time>
      </trkpt>
      <trkpt lat="43.96873" lon="6.50522">
        <ele>904.87</ele>
        <time>2022-10-10T11:39:17Z</time>
      </trkpt>
      <trkpt lat="43.96866" lon="6.50513">
        <ele>904.78</ele>
        <time>2022-10-10T11:39:18Z</time>
      </trkpt>
      <trkpt lat="43.96859" lon="6.50506">
        <ele>905.53</ele>
        <time>2022-10-10T11:39:19Z</time>
      </trkpt>
      <trkpt lat="43.96851" lon="6.50499">
        <ele>905.59</ele>
        <time>2022-10-10T11:39:20Z</time>
      </trkpt>
      <trkpt lat="43.96811" lon="6.5047">
        <ele>909.18</ele>
        <time>2022-10-10T11:39:24Z</time>
      </trkpt>
      <trkpt lat="43.96774" lon="6.50444">
        <ele>912.34</ele>
        <time>2022-10-10T11:39:27Z</time>
      </trkpt>
      <trkpt lat="43.96721" lon="6.50407">
        <ele>915.28</ele>
        <time>2022-10-10T11:39:31Z</time>
      </trkpt>
      <trkpt lat="43.96694" lon="6.50388">
        <ele>918.32</ele>
        <time>2022-10-10T11:39:33Z</time>
      </trkpt>
      <trkpt lat="43.96668" lon="6.50369">
        <ele>919.36</ele>
        <time>2022-10-10T11:39:35Z</time>
      </trkpt>
      <trkpt lat="43.96629" lon="6.5034">
        <ele>923.09</ele>
        <time>2022-10-10T11:39:38Z</time>
      </trkpt>
      <trkpt lat="43.96616" lon="6.5033">
        <ele>923.19</ele>
        <time>2022-10-10T11:39:39Z</time>
      </trkpt>
      <trkpt lat="43.96605" lon="6.50318">
        <ele>924.29</ele>
        <time>2022-10-10T11:39:40Z</time>
      </trkpt>
      <trkpt lat="43.96594" lon="6.50304">
        <ele>924.39</ele>
        <time>2022-10-10T11:39:41Z</time>
      </trkpt>
      <trkpt lat="43.96584" lon="6.5029">
        <ele>925.51</ele>
        <time>2022-10-10T11:39:42Z</time>
      </trkpt>
      <trkpt lat="43.96575" lon="6.50274">
        <ele>926.82</ele>
        <time>2022-10-10T11:39:43Z</time>
      </trkpt>
      <trkpt lat="43.96566" lon="6.50256">
        <ele>927.84</ele>
        <time>2022-10-10T11:39:44Z</time>
      </trkpt>
      <trkpt lat="43.96557" lon="6.50237">
        <ele>929.39</ele>
        <time>2022-10-10T11:39:45Z</time>
      </trkpt>
      <trkpt lat="43.9655" lon="6.50216">
        <ele>929.39</ele>
        <time>2022-10-10T11:39:46Z</time>
      </trkpt>
      <trkpt lat="43.96538" lon="6.50172">
        <ele>931.35</ele>
        <time>2022-10-10T11:39:48Z</time>
      </trkpt>
      <trkpt lat="43.96527" lon="6.50128">
        <ele>934.56</ele>
        <time>2022-10-10T11:39:50Z</time>
      </trkpt>
      <trkpt lat="43.96518" lon="6.50107">
        <ele>935.43</ele>
        <time>2022-10-10T11:39:51Z</time>
      </trkpt>
      <trkpt lat="43.96507" lon="6.50089">
        <ele>936.59</ele>
        <time>2022-10-10T11:39:52Z</time>
      </trkpt>
      <trkpt lat="43.96494" lon="6.50074">
        <ele>937.47</ele>
        <time>2022-10-10T11:39:53Z</time>
      </trkpt>
      <trkpt lat="43.9648" lon="6.5006">
        <ele>939.61</ele>
        <time>2022-10-10T11:39:54Z</time>
      </trkpt>
      <trkpt lat="43.96432" lon="6.50022">
        <ele>943.37</ele>
        <time>2022-10-10T11:39:57Z</time>
      </trkpt>
      <trkpt lat="43.96381" lon="6.49987">
        <ele>947.59</ele>
        <time>2022-10-10T11:40:00Z</time>
      </trkpt>
      <trkpt lat="43.96365" lon="6.49973">
        <ele>947.6</ele>
        <time>2022-10-10T11:40:01Z</time>
      </trkpt>
      <trkpt lat="43.96334" lon="6.49948">
        <ele>948.7</ele>
        <time>2022-10-10T11:40:03Z</time>
      </trkpt>
      <trkpt lat="43.96306" lon="6.49927">
        <ele>951.02</ele>
        <time>2022-10-10T11:40:05Z</time>
      </trkpt>
      <trkpt lat="43.96295" lon="6.49913">
        <ele>951.95</ele>
        <time>2022-10-10T11:40:06Z</time>
      </trkpt>
      <trkpt lat="43.96285" lon="6.49896">
        <ele>952.07</ele>
        <time>2022-10-10T11:40:07Z</time>
      </trkpt>
      <trkpt lat="43.96275" lon="6.4988">
        <ele>952.74</ele>
        <time>2022-10-10T11:40:08Z</time>
      </trkpt>
      <trkpt lat="43.96263" lon="6.49868">
        <ele>953.37</ele>
        <time>2022-10-10T11:40:09Z</time>
      </trkpt>
      <trkpt lat="43.96249" lon="6.49861">
        <ele>955.06</ele>
        <time>2022-10-10T11:40:10Z</time>
      </trkpt>
      <trkpt lat="43.96235" lon="6.49856">
        <ele>955.17</ele>
        <time>2022-10-10T11:40:11Z</time>
      </trkpt>
      <trkpt lat="43.96223" lon="6.49851">
        <ele>956.24</ele>
        <time>2022-10-10T11:40:12Z</time>
      </trkpt>
      <trkpt lat="43.96211" lon="6.49842">
        <ele>956.31</ele>
        <time>2022-10-10T11:40:13Z</time>
      </trkpt>
      <trkpt lat="43.96201" lon="6.49827">
        <ele>957.92</ele>
        <time>2022-10-10T11:40:14Z</time>
      </trkpt>
      <trkpt lat="43.96192" lon="6.4981">
        <ele>959.14</ele>
        <time>2022-10-10T11:40:15Z</time>
      </trkpt>
      <trkpt lat="43.96182" lon="6.49791">
        <ele>960.65</ele>
        <time>2022-10-10T11:40:16Z</time>
      </trkpt>
      <trkpt lat="43.96174" lon="6.49771">
        <ele>960.64</ele>
        <time>2022-10-10T11:40:17Z</time>
      </trkpt>
      <trkpt lat="43.96169" lon="6.49749">
        <ele>963.62</ele>
        <time>2022-10-10T11:40:18Z</time>
      </trkpt>
      <trkpt lat="43.96158" lon="6.49675">
        <ele>967.8</ele>
        <time>2022-10-10T11:40:21Z</time>
      </trkpt>
      <trkpt lat="43.96156" lon="6.49649">
        <ele>968.85</ele>
        <time>2022-10-10T11:40:22Z</time>
      </trkpt>
      <trkpt lat="43.96157" lon="6.49623">
        <ele>970.05</ele>
        <time>2022-10-10T11:40:23Z</time>
      </trkpt>
      <trkpt lat="43.96159" lon="6.49569">
        <ele>972.05</ele>
        <time>2022-10-10T11:40:25Z</time>
      </trkpt>
      <trkpt lat="43.96157" lon="6.49542">
        <ele>973.59</ele>
        <time>2022-10-10T11:40:26Z</time>
      </trkpt>
      <trkpt lat="43.96155" lon="6.49515">
        <ele>973.57</ele>
        <time>2022-10-10T11:40:27Z</time>
      </trkpt>
      <trkpt lat="43.96157" lon="6.49489">
        <ele>975</ele>
        <time>2022-10-10T11:40:28Z</time>
      </trkpt>
      <trkpt lat="43.96161" lon="6.49464">
        <ele>975.09</ele>
        <time>2022-10-10T11:40:29Z</time>
      </trkpt>
      <trkpt lat="43.96167" lon="6.4944">
        <ele>977.11</ele>
        <time>2022-10-10T11:40:30Z</time>
      </trkpt>
      <trkpt lat="43.96169" lon="6.49414">
        <ele>978.24</ele>
        <time>2022-10-10T11:40:31Z</time>
      </trkpt>
      <trkpt lat="43.96166" lon="6.49389">
        <ele>979.7</ele>
        <time>2022-10-10T11:40:32Z</time>
      </trkpt>
      <trkpt lat="43.96158" lon="6.49366">
        <ele>980.72</ele>
        <time>2022-10-10T11:40:33Z</time>
      </trkpt>
      <trkpt lat="43.9615" lon="6.49342">
        <ele>981.94</ele>
        <time>2022-10-10T11:40:34Z</time>
      </trkpt>
      <trkpt lat="43.96146" lon="6.49318">
        <ele>983.55</ele>
        <time>2022-10-10T11:40:35Z</time>
      </trkpt>
      <trkpt lat="43.96143" lon="6.49292">
        <ele>984.63</ele>
        <time>2022-10-10T11:40:36Z</time>
      </trkpt>
      <trkpt lat="43.96139" lon="6.49268">
        <ele>985.48</ele>
        <time>2022-10-10T11:40:37Z</time>
      </trkpt>
      <trkpt lat="43.96133" lon="6.49247">
        <ele>985.59</ele>
        <time>2022-10-10T11:40:38Z</time>
      </trkpt>
      <trkpt lat="43.96124" lon="6.49229">
        <ele>985.58</ele>
        <time>2022-10-10T11:40:39Z</time>
      </trkpt>
      <trkpt lat="43.96094" lon="6.49178">
        <ele>981.98</ele>
        <time>2022-10-10T11:40:42Z</time>
      </trkpt>
      <trkpt lat="43.96087" lon="6.4916">
        <ele>981.23</ele>
        <time>2022-10-10T11:40:43Z</time>
      </trkpt>
      <trkpt lat="43.96081" lon="6.49141">
        <ele>981.17</ele>
        <time>2022-10-10T11:40:44Z</time>
      </trkpt>
      <trkpt lat="43.96077" lon="6.4912">
        <ele>980.15</ele>
        <time>2022-10-10T11:40:45Z</time>
      </trkpt>
      <trkpt lat="43.9607" lon="6.49054">
        <ele>975.8</ele>
        <time>2022-10-10T11:40:48Z</time>
      </trkpt>
      <trkpt lat="43.96068" lon="6.49032">
        <ele>975.81</ele>
        <time>2022-10-10T11:40:49Z</time>
      </trkpt>
      <trkpt lat="43.96059" lon="6.48964">
        <ele>974.32</ele>
        <time>2022-10-10T11:40:52Z</time>
      </trkpt>
      <trkpt lat="43.96041" lon="6.48871">
        <ele>971.7</ele>
        <time>2022-10-10T11:40:56Z</time>
      </trkpt>
      <trkpt lat="43.96029" lon="6.48823">
        <ele>970.46</ele>
        <time>2022-10-10T11:40:58Z</time>
      </trkpt>
      <trkpt lat="43.96017" lon="6.48774">
        <ele>969.23</ele>
        <time>2022-10-10T11:41:00Z</time>
      </trkpt>
      <trkpt lat="43.95993" lon="6.48673">
        <ele>966.75</ele>
        <time>2022-10-10T11:41:04Z</time>
      </trkpt>
      <trkpt lat="43.95975" lon="6.48566">
        <ele>963.74</ele>
        <time>2022-10-10T11:41:08Z</time>
      </trkpt>
      <trkpt lat="43.95972" lon="6.48511">
        <ele>961.85</ele>
        <time>2022-10-10T11:41:10Z</time>
      </trkpt>
      <trkpt lat="43.95975" lon="6.48427">
        <ele>959.8</ele>
        <time>2022-10-10T11:41:13Z</time>
      </trkpt>
      <trkpt lat="43.95985" lon="6.48343">
        <ele>956.75</ele>
        <time>2022-10-10T11:41:16Z</time>
      </trkpt>
      <trkpt lat="43.95999" lon="6.48259">
        <ele>953.41</ele>
        <time>2022-10-10T11:41:19Z</time>
      </trkpt>
      <trkpt lat="43.96009" lon="6.48202">
        <ele>952.63</ele>
        <time>2022-10-10T11:41:21Z</time>
      </trkpt>
      <trkpt lat="43.96023" lon="6.48118">
        <ele>947.69</ele>
        <time>2022-10-10T11:41:24Z</time>
      </trkpt>
      <trkpt lat="43.96036" lon="6.48041">
        <ele>943.63</ele>
        <time>2022-10-10T11:41:27Z</time>
      </trkpt>
      <trkpt lat="43.96048" lon="6.47968">
        <ele>939.92</ele>
        <time>2022-10-10T11:41:30Z</time>
      </trkpt>
      <trkpt lat="43.9606" lon="6.479">
        <ele>936.27</ele>
        <time>2022-10-10T11:41:33Z</time>
      </trkpt>
      <trkpt lat="43.96071" lon="6.47834">
        <ele>933.09</ele>
        <time>2022-10-10T11:41:36Z</time>
      </trkpt>
      <trkpt lat="43.96074" lon="6.47811">
        <ele>933.09</ele>
        <time>2022-10-10T11:41:37Z</time>
      </trkpt>
      <trkpt lat="43.96082" lon="6.47711">
        <ele>929.46</ele>
        <time>2022-10-10T11:41:41Z</time>
      </trkpt>
      <trkpt lat="43.96078" lon="6.47637">
        <ele>925.42</ele>
        <time>2022-10-10T11:41:44Z</time>
      </trkpt>
      <trkpt lat="43.9607" lon="6.47568">
        <ele>922.11</ele>
        <time>2022-10-10T11:41:47Z</time>
      </trkpt>
      <trkpt lat="43.96064" lon="6.475">
        <ele>919.42</ele>
        <time>2022-10-10T11:41:50Z</time>
      </trkpt>
      <trkpt lat="43.9606" lon="6.47432">
        <ele>915.55</ele>
        <time>2022-10-10T11:41:53Z</time>
      </trkpt>
      <trkpt lat="43.96061" lon="6.47364">
        <ele>912.11</ele>
        <time>2022-10-10T11:41:56Z</time>
      </trkpt>
      <trkpt lat="43.96062" lon="6.47343">
        <ele>912</ele>
        <time>2022-10-10T11:41:57Z</time>
      </trkpt>
      <trkpt lat="43.96063" lon="6.473">
        <ele>910.28</ele>
        <time>2022-10-10T11:41:59Z</time>
      </trkpt>
      <trkpt lat="43.96065" lon="6.4724">
        <ele>906.69</ele>
        <time>2022-10-10T11:42:02Z</time>
      </trkpt>
      <trkpt lat="43.96075" lon="6.47189">
        <ele>904.24</ele>
        <time>2022-10-10T11:42:05Z</time>
      </trkpt>
      <trkpt lat="43.96094" lon="6.47134">
        <ele>901.19</ele>
        <time>2022-10-10T11:42:09Z</time>
      </trkpt>
      <trkpt lat="43.96103" lon="6.47106">
        <ele>899.89</ele>
        <time>2022-10-10T11:42:11Z</time>
      </trkpt>
      <trkpt lat="43.96109" lon="6.47078">
        <ele>898.75</ele>
        <time>2022-10-10T11:42:13Z</time>
      </trkpt>
      <trkpt lat="43.96134" lon="6.46986">
        <ele>895.56</ele>
        <time>2022-10-10T11:42:19Z</time>
      </trkpt>
      <trkpt lat="43.9614" lon="6.46957">
        <ele>894.75</ele>
        <time>2022-10-10T11:42:21Z</time>
      </trkpt>
      <trkpt lat="43.96167" lon="6.46815">
        <ele>892.04</ele>
        <time>2022-10-10T11:42:31Z</time>
      </trkpt>
      <trkpt lat="43.96173" lon="6.46767">
        <ele>889.87</ele>
        <time>2022-10-10T11:42:34Z</time>
      </trkpt>
      <trkpt lat="43.96178" lon="6.46736">
        <ele>888.23</ele>
        <time>2022-10-10T11:42:36Z</time>
      </trkpt>
      <trkpt lat="43.96183" lon="6.46706">
        <ele>886.92</ele>
        <time>2022-10-10T11:42:38Z</time>
      </trkpt>
      <trkpt lat="43.96192" lon="6.46648">
        <ele>884.47</ele>
        <time>2022-10-10T11:42:42Z</time>
      </trkpt>
      <trkpt lat="43.96192" lon="6.46636">
        <ele>883.49</ele>
        <time>2022-10-10T11:42:43Z</time>
      </trkpt>
      <trkpt lat="43.96191" lon="6.46624">
        <ele>882.08</ele>
        <time>2022-10-10T11:42:44Z</time>
      </trkpt>
      <trkpt lat="43.96189" lon="6.46614">
        <ele>882.08</ele>
        <time>2022-10-10T11:42:45Z</time>
      </trkpt>
      <trkpt lat="43.96177" lon="6.46559">
        <ele>879.71</ele>
        <time>2022-10-10T11:42:52Z</time>
      </trkpt>
      <trkpt lat="43.96174" lon="6.46554">
        <ele>879.74</ele>
        <time>2022-10-10T11:42:53Z</time>
      </trkpt>
      <trkpt lat="43.9617" lon="6.4655">
        <ele>879.2</ele>
        <time>2022-10-10T11:42:54Z</time>
      </trkpt>
      <trkpt lat="43.96166" lon="6.46545">
        <ele>878.33</ele>
        <time>2022-10-10T11:42:55Z</time>
      </trkpt>
      <trkpt lat="43.96162" lon="6.4654">
        <ele>878.33</ele>
        <time>2022-10-10T11:42:56Z</time>
      </trkpt>
      <trkpt lat="43.96158" lon="6.46534">
        <ele>878.33</ele>
        <time>2022-10-10T11:42:57Z</time>
      </trkpt>
      <trkpt lat="43.96156" lon="6.46526">
        <ele>878.29</ele>
        <time>2022-10-10T11:42:58Z</time>
      </trkpt>
      <trkpt lat="43.96155" lon="6.46517">
        <ele>878.34</ele>
        <time>2022-10-10T11:42:59Z</time>
      </trkpt>
      <trkpt lat="43.96155" lon="6.46505">
        <ele>878.3</ele>
        <time>2022-10-10T11:43:00Z</time>
      </trkpt>
      <trkpt lat="43.96158" lon="6.46493">
        <ele>877.45</ele>
        <time>2022-10-10T11:43:01Z</time>
      </trkpt>
      <trkpt lat="43.96163" lon="6.46482">
        <ele>877.47</ele>
        <time>2022-10-10T11:43:02Z</time>
      </trkpt>
      <trkpt lat="43.9617" lon="6.46471">
        <ele>877.43</ele>
        <time>2022-10-10T11:43:03Z</time>
      </trkpt>
      <trkpt lat="43.96178" lon="6.46458">
        <ele>877.44</ele>
        <time>2022-10-10T11:43:04Z</time>
      </trkpt>
      <trkpt lat="43.96186" lon="6.4644">
        <ele>877.45</ele>
        <time>2022-10-10T11:43:05Z</time>
      </trkpt>
      <trkpt lat="43.96193" lon="6.46418">
        <ele>877.41</ele>
        <time>2022-10-10T11:43:06Z</time>
      </trkpt>
      <trkpt lat="43.96197" lon="6.46392">
        <ele>877.42</ele>
        <time>2022-10-10T11:43:07Z</time>
      </trkpt>
      <trkpt lat="43.96199" lon="6.46364">
        <ele>877.38</ele>
        <time>2022-10-10T11:43:08Z</time>
      </trkpt>
      <trkpt lat="43.96198" lon="6.46335">
        <ele>876.48</ele>
        <time>2022-10-10T11:43:09Z</time>
      </trkpt>
      <trkpt lat="43.96197" lon="6.46307">
        <ele>875.47</ele>
        <time>2022-10-10T11:43:10Z</time>
      </trkpt>
      <trkpt lat="43.962" lon="6.46254">
        <ele>873.18</ele>
        <time>2022-10-10T11:43:12Z</time>
      </trkpt>
      <trkpt lat="43.96205" lon="6.46229">
        <ele>872.21</ele>
        <time>2022-10-10T11:43:13Z</time>
      </trkpt>
      <trkpt lat="43.96216" lon="6.4618">
        <ele>870.9</ele>
        <time>2022-10-10T11:43:15Z</time>
      </trkpt>
      <trkpt lat="43.96232" lon="6.46109">
        <ele>869.67</ele>
        <time>2022-10-10T11:43:18Z</time>
      </trkpt>
      <trkpt lat="43.96242" lon="6.45987">
        <ele>867.6</ele>
        <time>2022-10-10T11:43:23Z</time>
      </trkpt>
      <trkpt lat="43.9624" lon="6.45963">
        <ele>867.53</ele>
        <time>2022-10-10T11:43:24Z</time>
      </trkpt>
      <trkpt lat="43.96236" lon="6.45939">
        <ele>866.49</ele>
        <time>2022-10-10T11:43:25Z</time>
      </trkpt>
      <trkpt lat="43.96229" lon="6.45891">
        <ele>865.62</ele>
        <time>2022-10-10T11:43:27Z</time>
      </trkpt>
      <trkpt lat="43.9623" lon="6.45867">
        <ele>865.62</ele>
        <time>2022-10-10T11:43:28Z</time>
      </trkpt>
      <trkpt lat="43.96234" lon="6.45842">
        <ele>864.67</ele>
        <time>2022-10-10T11:43:29Z</time>
      </trkpt>
      <trkpt lat="43.96239" lon="6.45817">
        <ele>864.7</ele>
        <time>2022-10-10T11:43:30Z</time>
      </trkpt>
      <trkpt lat="43.96244" lon="6.45792">
        <ele>864.74</ele>
        <time>2022-10-10T11:43:31Z</time>
      </trkpt>
      <trkpt lat="43.96292" lon="6.45551">
        <ele>861.97</ele>
        <time>2022-10-10T11:43:40Z</time>
      </trkpt>
      <trkpt lat="43.96304" lon="6.45501">
        <ele>860.7</ele>
        <time>2022-10-10T11:43:42Z</time>
      </trkpt>
      <trkpt lat="43.96374" lon="6.45332">
        <ele>858.73</ele>
        <time>2022-10-10T11:43:49Z</time>
      </trkpt>
      <trkpt lat="43.96425" lon="6.45235">
        <ele>856.84</ele>
        <time>2022-10-10T11:43:53Z</time>
      </trkpt>
      <trkpt lat="43.96461" lon="6.45141">
        <ele>853.96</ele>
        <time>2022-10-10T11:43:57Z</time>
      </trkpt>
      <trkpt lat="43.96472" lon="6.45123">
        <ele>854.01</ele>
        <time>2022-10-10T11:43:58Z</time>
      </trkpt>
      <trkpt lat="43.96486" lon="6.45108">
        <ele>854.01</ele>
        <time>2022-10-10T11:43:59Z</time>
      </trkpt>
      <trkpt lat="43.96514" lon="6.45079">
        <ele>853.26</ele>
        <time>2022-10-10T11:44:01Z</time>
      </trkpt>
      <trkpt lat="43.96525" lon="6.45061">
        <ele>853.18</ele>
        <time>2022-10-10T11:44:02Z</time>
      </trkpt>
      <trkpt lat="43.96532" lon="6.4504">
        <ele>853.19</ele>
        <time>2022-10-10T11:44:03Z</time>
      </trkpt>
      <trkpt lat="43.96536" lon="6.45018">
        <ele>852.17</ele>
        <time>2022-10-10T11:44:04Z</time>
      </trkpt>
      <trkpt lat="43.96537" lon="6.44996">
        <ele>852.23</ele>
        <time>2022-10-10T11:44:05Z</time>
      </trkpt>
      <trkpt lat="43.96537" lon="6.44974">
        <ele>852.21</ele>
        <time>2022-10-10T11:44:06Z</time>
      </trkpt>
      <trkpt lat="43.96534" lon="6.44951">
        <ele>851.76</ele>
        <time>2022-10-10T11:44:07Z</time>
      </trkpt>
      <trkpt lat="43.96527" lon="6.44928">
        <ele>851.75</ele>
        <time>2022-10-10T11:44:08Z</time>
      </trkpt>
      <trkpt lat="43.96517" lon="6.44908">
        <ele>851.75</ele>
        <time>2022-10-10T11:44:09Z</time>
      </trkpt>
      <trkpt lat="43.96503" lon="6.44888">
        <ele>851.75</ele>
        <time>2022-10-10T11:44:10Z</time>
      </trkpt>
      <trkpt lat="43.96488" lon="6.44871">
        <ele>851.72</ele>
        <time>2022-10-10T11:44:11Z</time>
      </trkpt>
      <trkpt lat="43.96472" lon="6.44856">
        <ele>851.69</ele>
        <time>2022-10-10T11:44:12Z</time>
      </trkpt>
      <trkpt lat="43.96442" lon="6.44825">
        <ele>850.22</ele>
        <time>2022-10-10T11:44:14Z</time>
      </trkpt>
      <trkpt lat="43.96428" lon="6.44808">
        <ele>848.92</ele>
        <time>2022-10-10T11:44:15Z</time>
      </trkpt>
      <trkpt lat="43.96415" lon="6.44789">
        <ele>848.92</ele>
        <time>2022-10-10T11:44:16Z</time>
      </trkpt>
      <trkpt lat="43.96313" lon="6.44657">
        <ele>845.2</ele>
        <time>2022-10-10T11:44:23Z</time>
      </trkpt>
      <trkpt lat="43.96299" lon="6.44641">
        <ele>845.15</ele>
        <time>2022-10-10T11:44:24Z</time>
      </trkpt>
      <trkpt lat="43.96263" lon="6.44596">
        <ele>842.57</ele>
        <time>2022-10-10T11:44:27Z</time>
      </trkpt>
      <trkpt lat="43.96256" lon="6.44578">
        <ele>841.12</ele>
        <time>2022-10-10T11:44:28Z</time>
      </trkpt>
      <trkpt lat="43.96253" lon="6.44559">
        <ele>841.06</ele>
        <time>2022-10-10T11:44:29Z</time>
      </trkpt>
      <trkpt lat="43.96251" lon="6.4454">
        <ele>839.27</ele>
        <time>2022-10-10T11:44:30Z</time>
      </trkpt>
      <trkpt lat="43.9625" lon="6.44521">
        <ele>839.26</ele>
        <time>2022-10-10T11:44:31Z</time>
      </trkpt>
      <trkpt lat="43.96248" lon="6.44503">
        <ele>838.6</ele>
        <time>2022-10-10T11:44:32Z</time>
      </trkpt>
      <trkpt lat="43.96244" lon="6.44486">
        <ele>838.54</ele>
        <time>2022-10-10T11:44:33Z</time>
      </trkpt>
      <trkpt lat="43.9624" lon="6.4447">
        <ele>838.54</ele>
        <time>2022-10-10T11:44:34Z</time>
      </trkpt>
      <trkpt lat="43.96234" lon="6.44454">
        <ele>838.54</ele>
        <time>2022-10-10T11:44:35Z</time>
      </trkpt>
      <trkpt lat="43.96227" lon="6.44439">
        <ele>838.48</ele>
        <time>2022-10-10T11:44:36Z</time>
      </trkpt>
      <trkpt lat="43.96219" lon="6.44424">
        <ele>838.5</ele>
        <time>2022-10-10T11:44:37Z</time>
      </trkpt>
      <trkpt lat="43.9621" lon="6.4441">
        <ele>838.48</ele>
        <time>2022-10-10T11:44:38Z</time>
      </trkpt>
      <trkpt lat="43.96193" lon="6.44378">
        <ele>836.25</ele>
        <time>2022-10-10T11:44:40Z</time>
      </trkpt>
      <trkpt lat="43.96185" lon="6.4436">
        <ele>836.21</ele>
        <time>2022-10-10T11:44:41Z</time>
      </trkpt>
      <trkpt lat="43.96135" lon="6.44223">
        <ele>832.53</ele>
        <time>2022-10-10T11:44:48Z</time>
      </trkpt>
      <trkpt lat="43.96129" lon="6.44204">
        <ele>832.53</ele>
        <time>2022-10-10T11:44:49Z</time>
      </trkpt>
      <trkpt lat="43.9612" lon="6.44166">
        <ele>832.55</ele>
        <time>2022-10-10T11:44:51Z</time>
      </trkpt>
      <trkpt lat="43.96118" lon="6.44147">
        <ele>831.55</ele>
        <time>2022-10-10T11:44:52Z</time>
      </trkpt>
      <trkpt lat="43.96119" lon="6.44126">
        <ele>831.64</ele>
        <time>2022-10-10T11:44:53Z</time>
      </trkpt>
      <trkpt lat="43.96121" lon="6.44106">
        <ele>831.61</ele>
        <time>2022-10-10T11:44:54Z</time>
      </trkpt>
      <trkpt lat="43.96125" lon="6.44086">
        <ele>831.61</ele>
        <time>2022-10-10T11:44:55Z</time>
      </trkpt>
      <trkpt lat="43.96129" lon="6.44065">
        <ele>831.59</ele>
        <time>2022-10-10T11:44:56Z</time>
      </trkpt>
      <trkpt lat="43.96178" lon="6.43812">
        <ele>828.23</ele>
        <time>2022-10-10T11:45:08Z</time>
      </trkpt>
      <trkpt lat="43.96185" lon="6.43796">
        <ele>828.24</ele>
        <time>2022-10-10T11:45:09Z</time>
      </trkpt>
      <trkpt lat="43.96192" lon="6.4378">
        <ele>828.22</ele>
        <time>2022-10-10T11:45:10Z</time>
      </trkpt>
      <trkpt lat="43.96197" lon="6.43762">
        <ele>828.23</ele>
        <time>2022-10-10T11:45:11Z</time>
      </trkpt>
      <trkpt lat="43.96198" lon="6.43744">
        <ele>828.21</ele>
        <time>2022-10-10T11:45:12Z</time>
      </trkpt>
      <trkpt lat="43.96198" lon="6.43725">
        <ele>828.21</ele>
        <time>2022-10-10T11:45:13Z</time>
      </trkpt>
      <trkpt lat="43.96197" lon="6.43706">
        <ele>828.19</ele>
        <time>2022-10-10T11:45:14Z</time>
      </trkpt>
      <trkpt lat="43.96186" lon="6.43584">
        <ele>827.23</ele>
        <time>2022-10-10T11:45:20Z</time>
      </trkpt>
      <trkpt lat="43.9618" lon="6.43564">
        <ele>826.4</ele>
        <time>2022-10-10T11:45:21Z</time>
      </trkpt>
      <trkpt lat="43.96172" lon="6.43544">
        <ele>826.32</ele>
        <time>2022-10-10T11:45:22Z</time>
      </trkpt>
      <trkpt lat="43.96163" lon="6.43525">
        <ele>825.24</ele>
        <time>2022-10-10T11:45:23Z</time>
      </trkpt>
      <trkpt lat="43.96153" lon="6.43506">
        <ele>825.26</ele>
        <time>2022-10-10T11:45:24Z</time>
      </trkpt>
      <trkpt lat="43.96097" lon="6.43392">
        <ele>823.13</ele>
        <time>2022-10-10T11:45:30Z</time>
      </trkpt>
      <trkpt lat="43.96085" lon="6.43377">
        <ele>822.03</ele>
        <time>2022-10-10T11:45:31Z</time>
      </trkpt>
      <trkpt lat="43.96071" lon="6.43365">
        <ele>821.99</ele>
        <time>2022-10-10T11:45:32Z</time>
      </trkpt>
      <trkpt lat="43.96016" lon="6.43323">
        <ele>820.22</ele>
        <time>2022-10-10T11:45:36Z</time>
      </trkpt>
      <trkpt lat="43.95975" lon="6.4329">
        <ele>819.12</ele>
        <time>2022-10-10T11:45:39Z</time>
      </trkpt>
      <trkpt lat="43.95962" lon="6.43275">
        <ele>819.13</ele>
        <time>2022-10-10T11:45:40Z</time>
      </trkpt>
      <trkpt lat="43.95952" lon="6.43256">
        <ele>819.11</ele>
        <time>2022-10-10T11:45:41Z</time>
      </trkpt>
      <trkpt lat="43.95945" lon="6.43235">
        <ele>819.09</ele>
        <time>2022-10-10T11:45:42Z</time>
      </trkpt>
      <trkpt lat="43.95938" lon="6.43212">
        <ele>819.14</ele>
        <time>2022-10-10T11:45:43Z</time>
      </trkpt>
      <trkpt lat="43.95874" lon="6.43054">
        <ele>819.1</ele>
        <time>2022-10-10T11:45:50Z</time>
      </trkpt>
      <trkpt lat="43.95861" lon="6.43035">
        <ele>819.29</ele>
        <time>2022-10-10T11:45:51Z</time>
      </trkpt>
      <trkpt lat="43.95846" lon="6.43018">
        <ele>818.49</ele>
        <time>2022-10-10T11:45:52Z</time>
      </trkpt>
      <trkpt lat="43.9583" lon="6.43003">
        <ele>818.49</ele>
        <time>2022-10-10T11:45:53Z</time>
      </trkpt>
      <trkpt lat="43.95814" lon="6.42988">
        <ele>817.68</ele>
        <time>2022-10-10T11:45:54Z</time>
      </trkpt>
      <trkpt lat="43.95695" lon="6.42884">
        <ele>815.58</ele>
        <time>2022-10-10T11:46:01Z</time>
      </trkpt>
      <trkpt lat="43.95663" lon="6.42851">
        <ele>814.32</ele>
        <time>2022-10-10T11:46:03Z</time>
      </trkpt>
      <trkpt lat="43.95599" lon="6.42739">
        <ele>811.33</ele>
        <time>2022-10-10T11:46:08Z</time>
      </trkpt>
      <trkpt lat="43.95576" lon="6.42664">
        <ele>809.4</ele>
        <time>2022-10-10T11:46:11Z</time>
      </trkpt>
      <trkpt lat="43.95536" lon="6.42544">
        <ele>806.83</ele>
        <time>2022-10-10T11:46:16Z</time>
      </trkpt>
      <trkpt lat="43.95513" lon="6.42503">
        <ele>805.26</ele>
        <time>2022-10-10T11:46:18Z</time>
      </trkpt>
      <trkpt lat="43.95474" lon="6.42448">
        <ele>803.16</ele>
        <time>2022-10-10T11:46:21Z</time>
      </trkpt>
      <trkpt lat="43.95409" lon="6.42362">
        <ele>800.15</ele>
        <time>2022-10-10T11:46:26Z</time>
      </trkpt>
      <trkpt lat="43.95338" lon="6.4225">
        <ele>797</ele>
        <time>2022-10-10T11:46:32Z</time>
      </trkpt>
      <trkpt lat="43.95328" lon="6.42227">
        <ele>796.98</ele>
        <time>2022-10-10T11:46:33Z</time>
      </trkpt>
      <trkpt lat="43.9529" lon="6.42051">
        <ele>795.24</ele>
        <time>2022-10-10T11:46:40Z</time>
      </trkpt>
      <trkpt lat="43.95266" lon="6.41921">
        <ele>792.89</ele>
        <time>2022-10-10T11:46:45Z</time>
      </trkpt>
      <trkpt lat="43.95259" lon="6.41897">
        <ele>792.88</ele>
        <time>2022-10-10T11:46:46Z</time>
      </trkpt>
      <trkpt lat="43.95249" lon="6.41875">
        <ele>792.86</ele>
        <time>2022-10-10T11:46:47Z</time>
      </trkpt>
      <trkpt lat="43.95208" lon="6.41787">
        <ele>791.49</ele>
        <time>2022-10-10T11:46:51Z</time>
      </trkpt>
      <trkpt lat="43.95158" lon="6.4168">
        <ele>789.4</ele>
        <time>2022-10-10T11:46:56Z</time>
      </trkpt>
      <trkpt lat="43.95151" lon="6.41658">
        <ele>789.46</ele>
        <time>2022-10-10T11:46:57Z</time>
      </trkpt>
      <trkpt lat="43.95147" lon="6.41635">
        <ele>789.39</ele>
        <time>2022-10-10T11:46:58Z</time>
      </trkpt>
      <trkpt lat="43.95144" lon="6.41611">
        <ele>789.36</ele>
        <time>2022-10-10T11:46:59Z</time>
      </trkpt>
      <trkpt lat="43.95145" lon="6.41586">
        <ele>789.36</ele>
        <time>2022-10-10T11:47:00Z</time>
      </trkpt>
      <trkpt lat="43.95147" lon="6.41561">
        <ele>788.1</ele>
        <time>2022-10-10T11:47:01Z</time>
      </trkpt>
      <trkpt lat="43.95151" lon="6.41536">
        <ele>788.06</ele>
        <time>2022-10-10T11:47:02Z</time>
      </trkpt>
      <trkpt lat="43.9516" lon="6.41458">
        <ele>787.14</ele>
        <time>2022-10-10T11:47:05Z</time>
      </trkpt>
      <trkpt lat="43.9516" lon="6.41432">
        <ele>786.18</ele>
        <time>2022-10-10T11:47:06Z</time>
      </trkpt>
      <trkpt lat="43.95157" lon="6.41377">
        <ele>785.1</ele>
        <time>2022-10-10T11:47:08Z</time>
      </trkpt>
      <trkpt lat="43.95153" lon="6.41323">
        <ele>783.72</ele>
        <time>2022-10-10T11:47:10Z</time>
      </trkpt>
      <trkpt lat="43.95146" lon="6.41158">
        <ele>781.14</ele>
        <time>2022-10-10T11:47:16Z</time>
      </trkpt>
      <trkpt lat="43.95157" lon="6.41078">
        <ele>779.86</ele>
        <time>2022-10-10T11:47:19Z</time>
      </trkpt>
      <trkpt lat="43.95205" lon="6.40869">
        <ele>775.7</ele>
        <time>2022-10-10T11:47:27Z</time>
      </trkpt>
      <trkpt lat="43.95212" lon="6.40843">
        <ele>775.78</ele>
        <time>2022-10-10T11:47:28Z</time>
      </trkpt>
      <trkpt lat="43.95254" lon="6.40717">
        <ele>774.35</ele>
        <time>2022-10-10T11:47:33Z</time>
      </trkpt>
      <trkpt lat="43.95293" lon="6.40616">
        <ele>772.99</ele>
        <time>2022-10-10T11:47:37Z</time>
      </trkpt>
      <trkpt lat="43.95483" lon="6.40101">
        <ele>769.73</ele>
        <time>2022-10-10T11:47:57Z</time>
      </trkpt>
      <trkpt lat="43.95489" lon="6.40073">
        <ele>769.72</ele>
        <time>2022-10-10T11:47:58Z</time>
      </trkpt>
      <trkpt lat="43.95508" lon="6.39956">
        <ele>767.83</ele>
        <time>2022-10-10T11:48:02Z</time>
      </trkpt>
      <trkpt lat="43.95517" lon="6.39897">
        <ele>766.64</ele>
        <time>2022-10-10T11:48:04Z</time>
      </trkpt>
      <trkpt lat="43.95525" lon="6.39838">
        <ele>765.36</ele>
        <time>2022-10-10T11:48:06Z</time>
      </trkpt>
      <trkpt lat="43.95537" lon="6.39751">
        <ele>763.94</ele>
        <time>2022-10-10T11:48:09Z</time>
      </trkpt>
      <trkpt lat="43.95545" lon="6.39693">
        <ele>762.51</ele>
        <time>2022-10-10T11:48:11Z</time>
      </trkpt>
      <trkpt lat="43.95575" lon="6.39496">
        <ele>758.73</ele>
        <time>2022-10-10T11:48:18Z</time>
      </trkpt>
      <trkpt lat="43.95592" lon="6.39385">
        <ele>756.88</ele>
        <time>2022-10-10T11:48:22Z</time>
      </trkpt>
      <trkpt lat="43.9566" lon="6.39096">
        <ele>754.13</ele>
        <time>2022-10-10T11:48:33Z</time>
      </trkpt>
      <trkpt lat="43.95718" lon="6.38982">
        <ele>750.95</ele>
        <time>2022-10-10T11:48:38Z</time>
      </trkpt>
      <trkpt lat="43.95813" lon="6.38801">
        <ele>748.28</ele>
        <time>2022-10-10T11:48:46Z</time>
      </trkpt>
      <trkpt lat="43.95834" lon="6.3876">
        <ele>746.57</ele>
        <time>2022-10-10T11:48:48Z</time>
      </trkpt>
      <trkpt lat="43.95876" lon="6.38683">
        <ele>744.51</ele>
        <time>2022-10-10T11:48:52Z</time>
      </trkpt>
      <trkpt lat="43.95963" lon="6.38572">
        <ele>744.38</ele>
        <time>2022-10-10T11:48:58Z</time>
      </trkpt>
      <trkpt lat="43.96077" lon="6.38453">
        <ele>742.51</ele>
        <time>2022-10-10T11:49:06Z</time>
      </trkpt>
      <trkpt lat="43.96101" lon="6.38426">
        <ele>741.71</ele>
        <time>2022-10-10T11:49:08Z</time>
      </trkpt>
      <trkpt lat="43.9611" lon="6.3841">
        <ele>741.73</ele>
        <time>2022-10-10T11:49:09Z</time>
      </trkpt>
      <trkpt lat="43.96118" lon="6.38393">
        <ele>741.72</ele>
        <time>2022-10-10T11:49:10Z</time>
      </trkpt>
      <trkpt lat="43.96122" lon="6.38374">
        <ele>741.71</ele>
        <time>2022-10-10T11:49:11Z</time>
      </trkpt>
      <trkpt lat="43.96122" lon="6.38354">
        <ele>741.7</ele>
        <time>2022-10-10T11:49:12Z</time>
      </trkpt>
      <trkpt lat="43.96119" lon="6.38332">
        <ele>741.69</ele>
        <time>2022-10-10T11:49:13Z</time>
      </trkpt>
      <trkpt lat="43.96116" lon="6.38309">
        <ele>741.71</ele>
        <time>2022-10-10T11:49:14Z</time>
      </trkpt>
      <trkpt lat="43.96105" lon="6.38261">
        <ele>741.84</ele>
        <time>2022-10-10T11:49:16Z</time>
      </trkpt>
      <trkpt lat="43.96097" lon="6.38237">
        <ele>744.12</ele>
        <time>2022-10-10T11:49:17Z</time>
      </trkpt>
      <trkpt lat="43.96088" lon="6.38213">
        <ele>744.11</ele>
        <time>2022-10-10T11:49:18Z</time>
      </trkpt>
      <trkpt lat="43.95935" lon="6.37831">
        <ele>741.61</ele>
        <time>2022-10-10T11:49:34Z</time>
      </trkpt>
      <trkpt lat="43.95923" lon="6.3781">
        <ele>741.6</ele>
        <time>2022-10-10T11:49:35Z</time>
      </trkpt>
      <trkpt lat="43.9591" lon="6.37792">
        <ele>741.59</ele>
        <time>2022-10-10T11:49:36Z</time>
      </trkpt>
      <trkpt lat="43.95895" lon="6.37775">
        <ele>741.59</ele>
        <time>2022-10-10T11:49:37Z</time>
      </trkpt>
      <trkpt lat="43.95718" lon="6.37597">
        <ele>737.95</ele>
        <time>2022-10-10T11:49:49Z</time>
      </trkpt>
      <trkpt lat="43.95634" lon="6.37453">
        <ele>737.93</ele>
        <time>2022-10-10T11:49:57Z</time>
      </trkpt>
      <trkpt lat="43.9558" lon="6.37314">
        <ele>736.93</ele>
        <time>2022-10-10T11:50:05Z</time>
      </trkpt>
      <trkpt lat="43.95571" lon="6.37299">
        <ele>736.92</ele>
        <time>2022-10-10T11:50:06Z</time>
      </trkpt>
      <trkpt lat="43.95561" lon="6.37284">
        <ele>736.92</ele>
        <time>2022-10-10T11:50:07Z</time>
      </trkpt>
      <trkpt lat="43.95549" lon="6.37271">
        <ele>736.04</ele>
        <time>2022-10-10T11:50:08Z</time>
      </trkpt>
      <trkpt lat="43.95512" lon="6.37234">
        <ele>732.66</ele>
        <time>2022-10-10T11:50:11Z</time>
      </trkpt>
      <trkpt lat="43.95501" lon="6.37222">
        <ele>732.66</ele>
        <time>2022-10-10T11:50:12Z</time>
      </trkpt>
      <trkpt lat="43.95471" lon="6.37181">
        <ele>729.23</ele>
        <time>2022-10-10T11:50:15Z</time>
      </trkpt>
      <trkpt lat="43.95462" lon="6.37167">
        <ele>729.15</ele>
        <time>2022-10-10T11:50:16Z</time>
      </trkpt>
      <trkpt lat="43.95427" lon="6.37094">
        <ele>726.34</ele>
        <time>2022-10-10T11:50:21Z</time>
      </trkpt>
      <trkpt lat="43.95394" lon="6.37">
        <ele>723.33</ele>
        <time>2022-10-10T11:50:29Z</time>
      </trkpt>
      <trkpt lat="43.9538" lon="6.3696">
        <ele>721.62</ele>
        <time>2022-10-10T11:50:34Z</time>
      </trkpt>
      <trkpt lat="43.95355" lon="6.36901">
        <ele>721.62</ele>
        <time>2022-10-10T11:50:42Z</time>
      </trkpt>
      <trkpt lat="43.95348" lon="6.36885">
        <ele>721.6</ele>
        <time>2022-10-10T11:50:44Z</time>
      </trkpt>
      <trkpt lat="43.95319" lon="6.36811">
        <ele>720.9</ele>
        <time>2022-10-10T11:50:54Z</time>
      </trkpt>
      <trkpt lat="43.95315" lon="6.36801">
        <ele>720.96</ele>
        <time>2022-10-10T11:51:01Z</time>
      </trkpt>
      <trkpt lat="43.95306" lon="6.36776">
        <ele>720.98</ele>
        <time>2022-10-10T11:51:11Z</time>
      </trkpt>
      <trkpt lat="43.95304" lon="6.36771">
        <ele>720.96</ele>
        <time>2022-10-10T11:51:12Z</time>
      </trkpt>
      <trkpt lat="43.95302" lon="6.36766">
        <ele>720.97</ele>
        <time>2022-10-10T11:51:13Z</time>
      </trkpt>
      <trkpt lat="43.953" lon="6.36762">
        <ele>720.97</ele>
        <time>2022-10-10T11:51:14Z</time>
      </trkpt>
      <trkpt lat="43.95298" lon="6.36759">
        <ele>720.98</ele>
        <time>2022-10-10T11:51:15Z</time>
      </trkpt>
      <trkpt lat="43.95297" lon="6.36755">
        <ele>720.97</ele>
        <time>2022-10-10T11:51:16Z</time>
      </trkpt>
      <trkpt lat="43.95295" lon="6.3675">
        <ele>720.97</ele>
        <time>2022-10-10T11:51:17Z</time>
      </trkpt>
      <trkpt lat="43.95292" lon="6.36745">
        <ele>720.97</ele>
        <time>2022-10-10T11:51:18Z</time>
      </trkpt>
      <trkpt lat="43.95289" lon="6.36741">
        <ele>720.99</ele>
        <time>2022-10-10T11:51:19Z</time>
      </trkpt>
      <trkpt lat="43.95278" lon="6.3672">
        <ele>721.01</ele>
        <time>2022-10-10T11:51:23Z</time>
      </trkpt>
      <trkpt lat="43.95275" lon="6.36714">
        <ele>720.97</ele>
        <time>2022-10-10T11:51:24Z</time>
      </trkpt>
      <trkpt lat="43.95273" lon="6.36708">
        <ele>720.98</ele>
        <time>2022-10-10T11:51:25Z</time>
      </trkpt>
      <trkpt lat="43.95269" lon="6.36701">
        <ele>720.98</ele>
        <time>2022-10-10T11:51:26Z</time>
      </trkpt>
      <trkpt lat="43.95266" lon="6.36694">
        <ele>720.98</ele>
        <time>2022-10-10T11:51:27Z</time>
      </trkpt>
      <trkpt lat="43.95262" lon="6.36688">
        <ele>720.98</ele>
        <time>2022-10-10T11:51:28Z</time>
      </trkpt>
      <trkpt lat="43.95225" lon="6.36648">
        <ele>720.98</ele>
        <time>2022-10-10T11:51:37Z</time>
      </trkpt>
      <trkpt lat="43.95212" lon="6.36639">
        <ele>721</ele>
        <time>2022-10-10T11:51:42Z</time>
      </trkpt>
      <trkpt lat="43.9521" lon="6.36634">
        <ele>721.01</ele>
        <time>2022-10-10T11:51:43Z</time>
      </trkpt>
      <trkpt lat="43.95209" lon="6.36627">
        <ele>721</ele>
        <time>2022-10-10T11:51:44Z</time>
      </trkpt>
      <trkpt lat="43.95211" lon="6.36621">
        <ele>721.01</ele>
        <time>2022-10-10T11:51:45Z</time>
      </trkpt>
      <trkpt lat="43.95213" lon="6.36615">
        <ele>720.99</ele>
        <time>2022-10-10T11:51:46Z</time>
      </trkpt>
      <trkpt lat="43.95217" lon="6.36608">
        <ele>720.99</ele>
        <time>2022-10-10T11:51:47Z</time>
      </trkpt>
      <trkpt lat="43.95221" lon="6.36601">
        <ele>721.03</ele>
        <time>2022-10-10T11:51:48Z</time>
      </trkpt>
      <trkpt lat="43.9529" lon="6.36513">
        <ele>720.95</ele>
        <time>2022-10-10T11:51:58Z</time>
      </trkpt>
      <trkpt lat="43.95384" lon="6.36395">
        <ele>720.97</ele>
        <time>2022-10-10T11:52:09Z</time>
      </trkpt>
      <trkpt lat="43.95396" lon="6.36383">
        <ele>721</ele>
        <time>2022-10-10T11:52:10Z</time>
      </trkpt>
      <trkpt lat="43.95507" lon="6.36304">
        <ele>720.94</ele>
        <time>2022-10-10T11:52:18Z</time>
      </trkpt>
      <trkpt lat="43.95522" lon="6.36288">
        <ele>720.94</ele>
        <time>2022-10-10T11:52:19Z</time>
      </trkpt>
      <trkpt lat="43.95537" lon="6.36266">
        <ele>723.88</ele>
        <time>2022-10-10T11:52:20Z</time>
      </trkpt>
      <trkpt lat="43.95569" lon="6.36216">
        <ele>727.12</ele>
        <time>2022-10-10T11:52:22Z</time>
      </trkpt>
      <trkpt lat="43.95587" lon="6.36189">
        <ele>727.12</ele>
        <time>2022-10-10T11:52:23Z</time>
      </trkpt>
      <trkpt lat="43.957" lon="6.36067">
        <ele>723.28</ele>
        <time>2022-10-10T11:52:29Z</time>
      </trkpt>
      <trkpt lat="43.95717" lon="6.3605">
        <ele>723.2</ele>
        <time>2022-10-10T11:52:30Z</time>
      </trkpt>
      <trkpt lat="43.95764" lon="6.35997">
        <ele>722.05</ele>
        <time>2022-10-10T11:52:33Z</time>
      </trkpt>
      <trkpt lat="43.95777" lon="6.35976">
        <ele>722.06</ele>
        <time>2022-10-10T11:52:34Z</time>
      </trkpt>
      <trkpt lat="43.95788" lon="6.35953">
        <ele>721.18</ele>
        <time>2022-10-10T11:52:35Z</time>
      </trkpt>
      <trkpt lat="43.95831" lon="6.35864">
        <ele>719.96</ele>
        <time>2022-10-10T11:52:39Z</time>
      </trkpt>
      <trkpt lat="43.95845" lon="6.35844">
        <ele>719.96</ele>
        <time>2022-10-10T11:52:40Z</time>
      </trkpt>
      <trkpt lat="43.95991" lon="6.35671">
        <ele>719.9</ele>
        <time>2022-10-10T11:52:49Z</time>
      </trkpt>
      <trkpt lat="43.96159" lon="6.35456">
        <ele>718.9</ele>
        <time>2022-10-10T11:53:00Z</time>
      </trkpt>
      <trkpt lat="43.96209" lon="6.35378">
        <ele>717.71</ele>
        <time>2022-10-10T11:53:04Z</time>
      </trkpt>
      <trkpt lat="43.96218" lon="6.35354">
        <ele>717.87</ele>
        <time>2022-10-10T11:53:05Z</time>
      </trkpt>
      <trkpt lat="43.96224" lon="6.35329">
        <ele>717.87</ele>
        <time>2022-10-10T11:53:06Z</time>
      </trkpt>
      <trkpt lat="43.96228" lon="6.35302">
        <ele>717.84</ele>
        <time>2022-10-10T11:53:07Z</time>
      </trkpt>
      <trkpt lat="43.9623" lon="6.35275">
        <ele>717.07</ele>
        <time>2022-10-10T11:53:08Z</time>
      </trkpt>
      <trkpt lat="43.96229" lon="6.35247">
        <ele>717.05</ele>
        <time>2022-10-10T11:53:09Z</time>
      </trkpt>
      <trkpt lat="43.96226" lon="6.3522">
        <ele>717.05</ele>
        <time>2022-10-10T11:53:10Z</time>
      </trkpt>
      <trkpt lat="43.9622" lon="6.35194">
        <ele>717.06</ele>
        <time>2022-10-10T11:53:11Z</time>
      </trkpt>
      <trkpt lat="43.96212" lon="6.35169">
        <ele>717.05</ele>
        <time>2022-10-10T11:53:12Z</time>
      </trkpt>
      <trkpt lat="43.96203" lon="6.35145">
        <ele>717.05</ele>
        <time>2022-10-10T11:53:13Z</time>
      </trkpt>
      <trkpt lat="43.96176" lon="6.35072">
        <ele>717.03</ele>
        <time>2022-10-10T11:53:16Z</time>
      </trkpt>
      <trkpt lat="43.9617" lon="6.35046">
        <ele>717.02</ele>
        <time>2022-10-10T11:53:17Z</time>
      </trkpt>
      <trkpt lat="43.96167" lon="6.3502">
        <ele>717.02</ele>
        <time>2022-10-10T11:53:18Z</time>
      </trkpt>
      <trkpt lat="43.96167" lon="6.34993">
        <ele>717.01</ele>
        <time>2022-10-10T11:53:19Z</time>
      </trkpt>
      <trkpt lat="43.96168" lon="6.34965">
        <ele>717.03</ele>
        <time>2022-10-10T11:53:20Z</time>
      </trkpt>
      <trkpt lat="43.96172" lon="6.34939">
        <ele>717.02</ele>
        <time>2022-10-10T11:53:21Z</time>
      </trkpt>
      <trkpt lat="43.96177" lon="6.34913">
        <ele>717.01</ele>
        <time>2022-10-10T11:53:22Z</time>
      </trkpt>
      <trkpt lat="43.96203" lon="6.34749">
        <ele>716.92</ele>
        <time>2022-10-10T11:53:28Z</time>
      </trkpt>
      <trkpt lat="43.96196" lon="6.34606">
        <ele>715.98</ele>
        <time>2022-10-10T11:53:33Z</time>
      </trkpt>
      <trkpt lat="43.96191" lon="6.34578">
        <ele>715.96</ele>
        <time>2022-10-10T11:53:34Z</time>
      </trkpt>
      <trkpt lat="43.96183" lon="6.34551">
        <ele>715.96</ele>
        <time>2022-10-10T11:53:35Z</time>
      </trkpt>
      <trkpt lat="43.96173" lon="6.34526">
        <ele>715.94</ele>
        <time>2022-10-10T11:53:36Z</time>
      </trkpt>
      <trkpt lat="43.96161" lon="6.34504">
        <ele>715.94</ele>
        <time>2022-10-10T11:53:37Z</time>
      </trkpt>
      <trkpt lat="43.96146" lon="6.34485">
        <ele>714.88</ele>
        <time>2022-10-10T11:53:38Z</time>
      </trkpt>
      <trkpt lat="43.9613" lon="6.34467">
        <ele>714.86</ele>
        <time>2022-10-10T11:53:39Z</time>
      </trkpt>
      <trkpt lat="43.96037" lon="6.34355">
        <ele>711.4</ele>
        <time>2022-10-10T11:53:45Z</time>
      </trkpt>
      <trkpt lat="43.96027" lon="6.3433">
        <ele>711.39</ele>
        <time>2022-10-10T11:53:46Z</time>
      </trkpt>
      <trkpt lat="43.96022" lon="6.34302">
        <ele>710.53</ele>
        <time>2022-10-10T11:53:47Z</time>
      </trkpt>
      <trkpt lat="43.96021" lon="6.34274">
        <ele>710.52</ele>
        <time>2022-10-10T11:53:48Z</time>
      </trkpt>
      <trkpt lat="43.96023" lon="6.34246">
        <ele>710.47</ele>
        <time>2022-10-10T11:53:49Z</time>
      </trkpt>
      <trkpt lat="43.96026" lon="6.3419">
        <ele>708.96</ele>
        <time>2022-10-10T11:53:51Z</time>
      </trkpt>
      <trkpt lat="43.96055" lon="6.33879">
        <ele>709.15</ele>
        <time>2022-10-10T11:54:02Z</time>
      </trkpt>
      <trkpt lat="43.96089" lon="6.33746">
        <ele>709.12</ele>
        <time>2022-10-10T11:54:07Z</time>
      </trkpt>
      <trkpt lat="43.96101" lon="6.33723">
        <ele>709.14</ele>
        <time>2022-10-10T11:54:08Z</time>
      </trkpt>
      <trkpt lat="43.96151" lon="6.3363">
        <ele>708.2</ele>
        <time>2022-10-10T11:54:12Z</time>
      </trkpt>
      <trkpt lat="43.96181" lon="6.33554">
        <ele>708.12</ele>
        <time>2022-10-10T11:54:15Z</time>
      </trkpt>
      <trkpt lat="43.96186" lon="6.33526">
        <ele>708.15</ele>
        <time>2022-10-10T11:54:16Z</time>
      </trkpt>
      <trkpt lat="43.96189" lon="6.33498">
        <ele>708.09</ele>
        <time>2022-10-10T11:54:17Z</time>
      </trkpt>
      <trkpt lat="43.96189" lon="6.33469">
        <ele>708.12</ele>
        <time>2022-10-10T11:54:18Z</time>
      </trkpt>
      <trkpt lat="43.96188" lon="6.3344">
        <ele>708.2</ele>
        <time>2022-10-10T11:54:19Z</time>
      </trkpt>
      <trkpt lat="43.96185" lon="6.33412">
        <ele>706.76</ele>
        <time>2022-10-10T11:54:20Z</time>
      </trkpt>
      <trkpt lat="43.96182" lon="6.33383">
        <ele>706.74</ele>
        <time>2022-10-10T11:54:21Z</time>
      </trkpt>
      <trkpt lat="43.96148" lon="6.33102">
        <ele>703.57</ele>
        <time>2022-10-10T11:54:31Z</time>
      </trkpt>
      <trkpt lat="43.96145" lon="6.33077">
        <ele>703.56</ele>
        <time>2022-10-10T11:54:32Z</time>
      </trkpt>
      <trkpt lat="43.96144" lon="6.33053">
        <ele>702.29</ele>
        <time>2022-10-10T11:54:33Z</time>
      </trkpt>
      <trkpt lat="43.96146" lon="6.33028">
        <ele>702.26</ele>
        <time>2022-10-10T11:54:34Z</time>
      </trkpt>
      <trkpt lat="43.9615" lon="6.33003">
        <ele>702.3</ele>
        <time>2022-10-10T11:54:35Z</time>
      </trkpt>
      <trkpt lat="43.96178" lon="6.32873">
        <ele>702.32</ele>
        <time>2022-10-10T11:54:40Z</time>
      </trkpt>
      <trkpt lat="43.96179" lon="6.32847">
        <ele>702.25</ele>
        <time>2022-10-10T11:54:41Z</time>
      </trkpt>
      <trkpt lat="43.96178" lon="6.32823">
        <ele>702.24</ele>
        <time>2022-10-10T11:54:42Z</time>
      </trkpt>
      <trkpt lat="43.9617" lon="6.32739">
        <ele>700.45</ele>
        <time>2022-10-10T11:54:46Z</time>
      </trkpt>
      <trkpt lat="43.96171" lon="6.32721">
        <ele>699.58</ele>
        <time>2022-10-10T11:54:47Z</time>
      </trkpt>
      <trkpt lat="43.96172" lon="6.32702">
        <ele>698.72</ele>
        <time>2022-10-10T11:54:48Z</time>
      </trkpt>
      <trkpt lat="43.96176" lon="6.32685">
        <ele>698.72</ele>
        <time>2022-10-10T11:54:49Z</time>
      </trkpt>
      <trkpt lat="43.96182" lon="6.32667">
        <ele>698.71</ele>
        <time>2022-10-10T11:54:50Z</time>
      </trkpt>
      <trkpt lat="43.96189" lon="6.32649">
        <ele>698.71</ele>
        <time>2022-10-10T11:54:51Z</time>
      </trkpt>
      <trkpt lat="43.96198" lon="6.32631">
        <ele>697.64</ele>
        <time>2022-10-10T11:54:52Z</time>
      </trkpt>
      <trkpt lat="43.96263" lon="6.32496">
        <ele>695.22</ele>
        <time>2022-10-10T11:54:59Z</time>
      </trkpt>
      <trkpt lat="43.96286" lon="6.32433">
        <ele>695.21</ele>
        <time>2022-10-10T11:55:02Z</time>
      </trkpt>
      <trkpt lat="43.96291" lon="6.32412">
        <ele>695.2</ele>
        <time>2022-10-10T11:55:03Z</time>
      </trkpt>
      <trkpt lat="43.96295" lon="6.32391">
        <ele>695.2</ele>
        <time>2022-10-10T11:55:04Z</time>
      </trkpt>
      <trkpt lat="43.96296" lon="6.3237">
        <ele>695.27</ele>
        <time>2022-10-10T11:55:05Z</time>
      </trkpt>
      <trkpt lat="43.96297" lon="6.3235">
        <ele>695.31</ele>
        <time>2022-10-10T11:55:06Z</time>
      </trkpt>
      <trkpt lat="43.96307" lon="6.32224">
        <ele>693.86</ele>
        <time>2022-10-10T11:55:12Z</time>
      </trkpt>
      <trkpt lat="43.96312" lon="6.32204">
        <ele>693.8</ele>
        <time>2022-10-10T11:55:13Z</time>
      </trkpt>
      <trkpt lat="43.9632" lon="6.32186">
        <ele>694.05</ele>
        <time>2022-10-10T11:55:14Z</time>
      </trkpt>
      <trkpt lat="43.96331" lon="6.32168">
        <ele>694.03</ele>
        <time>2022-10-10T11:55:15Z</time>
      </trkpt>
      <trkpt lat="43.96345" lon="6.32149">
        <ele>694.04</ele>
        <time>2022-10-10T11:55:16Z</time>
      </trkpt>
      <trkpt lat="43.96362" lon="6.32129">
        <ele>696.42</ele>
        <time>2022-10-10T11:55:17Z</time>
      </trkpt>
      <trkpt lat="43.96403" lon="6.32084">
        <ele>699.49</ele>
        <time>2022-10-10T11:55:19Z</time>
      </trkpt>
      <trkpt lat="43.9645" lon="6.32036">
        <ele>701.63</ele>
        <time>2022-10-10T11:55:21Z</time>
      </trkpt>
      <trkpt lat="43.96585" lon="6.3192">
        <ele>698.41</ele>
        <time>2022-10-10T11:55:27Z</time>
      </trkpt>
      <trkpt lat="43.96602" lon="6.31901">
        <ele>698.38</ele>
        <time>2022-10-10T11:55:28Z</time>
      </trkpt>
      <trkpt lat="43.96618" lon="6.31879">
        <ele>698.31</ele>
        <time>2022-10-10T11:55:29Z</time>
      </trkpt>
      <trkpt lat="43.96632" lon="6.31856">
        <ele>697.44</ele>
        <time>2022-10-10T11:55:30Z</time>
      </trkpt>
      <trkpt lat="43.96645" lon="6.31832">
        <ele>697.44</ele>
        <time>2022-10-10T11:55:31Z</time>
      </trkpt>
      <trkpt lat="43.96656" lon="6.31806">
        <ele>696.46</ele>
        <time>2022-10-10T11:55:32Z</time>
      </trkpt>
      <trkpt lat="43.96665" lon="6.31779">
        <ele>696.41</ele>
        <time>2022-10-10T11:55:33Z</time>
      </trkpt>
      <trkpt lat="43.96684" lon="6.31725">
        <ele>695.03</ele>
        <time>2022-10-10T11:55:35Z</time>
      </trkpt>
      <trkpt lat="43.96711" lon="6.31647">
        <ele>692.96</ele>
        <time>2022-10-10T11:55:38Z</time>
      </trkpt>
      <trkpt lat="43.96733" lon="6.31568">
        <ele>691.02</ele>
        <time>2022-10-10T11:55:41Z</time>
      </trkpt>
      <trkpt lat="43.96737" lon="6.31542">
        <ele>690.96</ele>
        <time>2022-10-10T11:55:42Z</time>
      </trkpt>
      <trkpt lat="43.96756" lon="6.31407">
        <ele>689.67</ele>
        <time>2022-10-10T11:55:47Z</time>
      </trkpt>
      <trkpt lat="43.96764" lon="6.31382">
        <ele>689.66</ele>
        <time>2022-10-10T11:55:48Z</time>
      </trkpt>
      <trkpt lat="43.96774" lon="6.31359">
        <ele>689.61</ele>
        <time>2022-10-10T11:55:49Z</time>
      </trkpt>
      <trkpt lat="43.96786" lon="6.31337">
        <ele>688.74</ele>
        <time>2022-10-10T11:55:50Z</time>
      </trkpt>
      <trkpt lat="43.96799" lon="6.31318">
        <ele>688.75</ele>
        <time>2022-10-10T11:55:51Z</time>
      </trkpt>
      <trkpt lat="43.96814" lon="6.31301">
        <ele>688.79</ele>
        <time>2022-10-10T11:55:52Z</time>
      </trkpt>
      <trkpt lat="43.9683" lon="6.31286">
        <ele>688.78</ele>
        <time>2022-10-10T11:55:53Z</time>
      </trkpt>
      <trkpt lat="43.96848" lon="6.31272">
        <ele>688.78</ele>
        <time>2022-10-10T11:55:54Z</time>
      </trkpt>
      <trkpt lat="43.96866" lon="6.3126">
        <ele>688.79</ele>
        <time>2022-10-10T11:55:55Z</time>
      </trkpt>
      <trkpt lat="43.9707" lon="6.31159">
        <ele>688.86</ele>
        <time>2022-10-10T11:56:05Z</time>
      </trkpt>
      <trkpt lat="43.97133" lon="6.31142">
        <ele>688.86</ele>
        <time>2022-10-10T11:56:08Z</time>
      </trkpt>
      <trkpt lat="43.97154" lon="6.31143">
        <ele>688.85</ele>
        <time>2022-10-10T11:56:09Z</time>
      </trkpt>
      <trkpt lat="43.97175" lon="6.31149">
        <ele>688.86</ele>
        <time>2022-10-10T11:56:10Z</time>
      </trkpt>
      <trkpt lat="43.97195" lon="6.31158">
        <ele>688.84</ele>
        <time>2022-10-10T11:56:11Z</time>
      </trkpt>
      <trkpt lat="43.97214" lon="6.31169">
        <ele>687.95</ele>
        <time>2022-10-10T11:56:12Z</time>
      </trkpt>
      <trkpt lat="43.97254" lon="6.31187">
        <ele>687.97</ele>
        <time>2022-10-10T11:56:14Z</time>
      </trkpt>
      <trkpt lat="43.97275" lon="6.31192">
        <ele>687.95</ele>
        <time>2022-10-10T11:56:15Z</time>
      </trkpt>
      <trkpt lat="43.97295" lon="6.31191">
        <ele>687.94</ele>
        <time>2022-10-10T11:56:16Z</time>
      </trkpt>
      <trkpt lat="43.97315" lon="6.31187">
        <ele>687.94</ele>
        <time>2022-10-10T11:56:17Z</time>
      </trkpt>
      <trkpt lat="43.97335" lon="6.3118">
        <ele>687.93</ele>
        <time>2022-10-10T11:56:18Z</time>
      </trkpt>
      <trkpt lat="43.97498" lon="6.31161">
        <ele>687.05</ele>
        <time>2022-10-10T11:56:26Z</time>
      </trkpt>
      <trkpt lat="43.97629" lon="6.31176">
        <ele>685.4</ele>
        <time>2022-10-10T11:56:34Z</time>
      </trkpt>
      <trkpt lat="43.97669" lon="6.31177">
        <ele>685.43</ele>
        <time>2022-10-10T11:56:37Z</time>
      </trkpt>
      <trkpt lat="43.97684" lon="6.31174">
        <ele>685.44</ele>
        <time>2022-10-10T11:56:38Z</time>
      </trkpt>
      <trkpt lat="43.97699" lon="6.31168">
        <ele>685.45</ele>
        <time>2022-10-10T11:56:39Z</time>
      </trkpt>
      <trkpt lat="43.97867" lon="6.31065">
        <ele>685.45</ele>
        <time>2022-10-10T11:56:50Z</time>
      </trkpt>
      <trkpt lat="43.97892" lon="6.31038">
        <ele>688.16</ele>
        <time>2022-10-10T11:56:52Z</time>
      </trkpt>
      <trkpt lat="43.97928" lon="6.30999">
        <ele>689.85</ele>
        <time>2022-10-10T11:56:55Z</time>
      </trkpt>
      <trkpt lat="43.97983" lon="6.30925">
        <ele>689.88</ele>
        <time>2022-10-10T11:57:00Z</time>
      </trkpt>
      <trkpt lat="43.97992" lon="6.30906">
        <ele>689.88</ele>
        <time>2022-10-10T11:57:01Z</time>
      </trkpt>
      <trkpt lat="43.98" lon="6.30886">
        <ele>689.9</ele>
        <time>2022-10-10T11:57:02Z</time>
      </trkpt>
      <trkpt lat="43.98006" lon="6.30864">
        <ele>689.85</ele>
        <time>2022-10-10T11:57:03Z</time>
      </trkpt>
      <trkpt lat="43.98011" lon="6.30842">
        <ele>689.85</ele>
        <time>2022-10-10T11:57:04Z</time>
      </trkpt>
      <trkpt lat="43.98013" lon="6.30818">
        <ele>687.43</ele>
        <time>2022-10-10T11:57:05Z</time>
      </trkpt>
      <trkpt lat="43.98013" lon="6.30794">
        <ele>687.43</ele>
        <time>2022-10-10T11:57:06Z</time>
      </trkpt>
      <trkpt lat="43.98012" lon="6.30771">
        <ele>686.28</ele>
        <time>2022-10-10T11:57:07Z</time>
      </trkpt>
      <trkpt lat="43.98009" lon="6.30747">
        <ele>685.1</ele>
        <time>2022-10-10T11:57:08Z</time>
      </trkpt>
      <trkpt lat="43.98005" lon="6.30681">
        <ele>681.55</ele>
        <time>2022-10-10T11:57:11Z</time>
      </trkpt>
      <trkpt lat="43.98006" lon="6.3066">
        <ele>680.03</ele>
        <time>2022-10-10T11:57:12Z</time>
      </trkpt>
      <trkpt lat="43.98009" lon="6.30639">
        <ele>678.68</ele>
        <time>2022-10-10T11:57:13Z</time>
      </trkpt>
      <trkpt lat="43.98013" lon="6.30618">
        <ele>678.67</ele>
        <time>2022-10-10T11:57:14Z</time>
      </trkpt>
      <trkpt lat="43.98018" lon="6.30596">
        <ele>677.66</ele>
        <time>2022-10-10T11:57:15Z</time>
      </trkpt>
      <trkpt lat="43.98056" lon="6.30462">
        <ele>675.27</ele>
        <time>2022-10-10T11:57:21Z</time>
      </trkpt>
      <trkpt lat="43.98065" lon="6.30442">
        <ele>674.35</ele>
        <time>2022-10-10T11:57:22Z</time>
      </trkpt>
      <trkpt lat="43.98077" lon="6.30425">
        <ele>674.28</ele>
        <time>2022-10-10T11:57:23Z</time>
      </trkpt>
      <trkpt lat="43.9809" lon="6.3041">
        <ele>673.26</ele>
        <time>2022-10-10T11:57:24Z</time>
      </trkpt>
      <trkpt lat="43.98103" lon="6.30396">
        <ele>673.27</ele>
        <time>2022-10-10T11:57:25Z</time>
      </trkpt>
      <trkpt lat="43.98147" lon="6.30362">
        <ele>671.28</ele>
        <time>2022-10-10T11:57:28Z</time>
      </trkpt>
      <trkpt lat="43.98163" lon="6.30354">
        <ele>670.39</ele>
        <time>2022-10-10T11:57:29Z</time>
      </trkpt>
      <trkpt lat="43.9818" lon="6.30349">
        <ele>670.4</ele>
        <time>2022-10-10T11:57:30Z</time>
      </trkpt>
      <trkpt lat="43.98236" lon="6.30336">
        <ele>670.33</ele>
        <time>2022-10-10T11:57:33Z</time>
      </trkpt>
      <trkpt lat="43.98257" lon="6.30328">
        <ele>673.39</ele>
        <time>2022-10-10T11:57:34Z</time>
      </trkpt>
      <trkpt lat="43.98302" lon="6.30308">
        <ele>674.57</ele>
        <time>2022-10-10T11:57:36Z</time>
      </trkpt>
      <trkpt lat="43.98403" lon="6.30251">
        <ele>674.77</ele>
        <time>2022-10-10T11:57:41Z</time>
      </trkpt>
      <trkpt lat="43.9842" lon="6.30235">
        <ele>674.76</ele>
        <time>2022-10-10T11:57:42Z</time>
      </trkpt>
      <trkpt lat="43.98436" lon="6.30216">
        <ele>674.76</ele>
        <time>2022-10-10T11:57:43Z</time>
      </trkpt>
      <trkpt lat="43.9845" lon="6.30195">
        <ele>674.76</ele>
        <time>2022-10-10T11:57:44Z</time>
      </trkpt>
      <trkpt lat="43.98462" lon="6.30171">
        <ele>672.22</ele>
        <time>2022-10-10T11:57:45Z</time>
      </trkpt>
      <trkpt lat="43.98472" lon="6.30146">
        <ele>672.22</ele>
        <time>2022-10-10T11:57:46Z</time>
      </trkpt>
      <trkpt lat="43.98481" lon="6.3012">
        <ele>671.25</ele>
        <time>2022-10-10T11:57:47Z</time>
      </trkpt>
      <trkpt lat="43.98489" lon="6.30093">
        <ele>671.24</ele>
        <time>2022-10-10T11:57:48Z</time>
      </trkpt>
      <trkpt lat="43.98496" lon="6.30066">
        <ele>671.24</ele>
        <time>2022-10-10T11:57:49Z</time>
      </trkpt>
      <trkpt lat="43.98528" lon="6.29964">
        <ele>670.04</ele>
        <time>2022-10-10T11:57:53Z</time>
      </trkpt>
      <trkpt lat="43.98541" lon="6.29943">
        <ele>669.1</ele>
        <time>2022-10-10T11:57:54Z</time>
      </trkpt>
      <trkpt lat="43.98556" lon="6.29925">
        <ele>669.1</ele>
        <time>2022-10-10T11:57:55Z</time>
      </trkpt>
      <trkpt lat="43.98573" lon="6.29909">
        <ele>669.11</ele>
        <time>2022-10-10T11:57:56Z</time>
      </trkpt>
      <trkpt lat="43.98591" lon="6.29897">
        <ele>669.07</ele>
        <time>2022-10-10T11:57:57Z</time>
      </trkpt>
      <trkpt lat="43.98611" lon="6.29887">
        <ele>669.06</ele>
        <time>2022-10-10T11:57:58Z</time>
      </trkpt>
      <trkpt lat="43.98631" lon="6.2988">
        <ele>669.02</ele>
        <time>2022-10-10T11:57:59Z</time>
      </trkpt>
      <trkpt lat="43.98652" lon="6.29875">
        <ele>669.05</ele>
        <time>2022-10-10T11:58:00Z</time>
      </trkpt>
      <trkpt lat="43.98735" lon="6.29848">
        <ele>671.67</ele>
        <time>2022-10-10T11:58:04Z</time>
      </trkpt>
      <trkpt lat="43.98754" lon="6.29835">
        <ele>672.67</ele>
        <time>2022-10-10T11:58:05Z</time>
      </trkpt>
      <trkpt lat="43.98771" lon="6.29818">
        <ele>672.68</ele>
        <time>2022-10-10T11:58:06Z</time>
      </trkpt>
      <trkpt lat="43.98784" lon="6.29797">
        <ele>672.57</ele>
        <time>2022-10-10T11:58:07Z</time>
      </trkpt>
      <trkpt lat="43.98795" lon="6.29773">
        <ele>672.59</ele>
        <time>2022-10-10T11:58:08Z</time>
      </trkpt>
      <trkpt lat="43.98804" lon="6.29749">
        <ele>672.6</ele>
        <time>2022-10-10T11:58:09Z</time>
      </trkpt>
      <trkpt lat="43.98831" lon="6.29685">
        <ele>672.59</ele>
        <time>2022-10-10T11:58:12Z</time>
      </trkpt>
      <trkpt lat="43.98842" lon="6.29668">
        <ele>669.24</ele>
        <time>2022-10-10T11:58:13Z</time>
      </trkpt>
      <trkpt lat="43.98855" lon="6.29657">
        <ele>669.17</ele>
        <time>2022-10-10T11:58:14Z</time>
      </trkpt>
      <trkpt lat="43.98871" lon="6.2965">
        <ele>668.05</ele>
        <time>2022-10-10T11:58:15Z</time>
      </trkpt>
      <trkpt lat="43.98888" lon="6.29649">
        <ele>667.97</ele>
        <time>2022-10-10T11:58:16Z</time>
      </trkpt>
      <trkpt lat="43.98907" lon="6.29653">
        <ele>667.96</ele>
        <time>2022-10-10T11:58:17Z</time>
      </trkpt>
      <trkpt lat="43.98926" lon="6.2966">
        <ele>667.96</ele>
        <time>2022-10-10T11:58:18Z</time>
      </trkpt>
      <trkpt lat="43.99041" lon="6.29705">
        <ele>664.71</ele>
        <time>2022-10-10T11:58:24Z</time>
      </trkpt>
      <trkpt lat="43.9906" lon="6.29709">
        <ele>663.56</ele>
        <time>2022-10-10T11:58:25Z</time>
      </trkpt>
      <trkpt lat="43.99079" lon="6.29707">
        <ele>662.32</ele>
        <time>2022-10-10T11:58:26Z</time>
      </trkpt>
      <trkpt lat="43.99097" lon="6.29699">
        <ele>662.28</ele>
        <time>2022-10-10T11:58:27Z</time>
      </trkpt>
      <trkpt lat="43.99116" lon="6.29687">
        <ele>662.28</ele>
        <time>2022-10-10T11:58:28Z</time>
      </trkpt>
      <trkpt lat="43.99134" lon="6.29673">
        <ele>662.23</ele>
        <time>2022-10-10T11:58:29Z</time>
      </trkpt>
      <trkpt lat="43.99186" lon="6.29622">
        <ele>660.23</ele>
        <time>2022-10-10T11:58:32Z</time>
      </trkpt>
      <trkpt lat="43.99229" lon="6.29559">
        <ele>658.94</ele>
        <time>2022-10-10T11:58:35Z</time>
      </trkpt>
      <trkpt lat="43.99239" lon="6.29534">
        <ele>658.88</ele>
        <time>2022-10-10T11:58:36Z</time>
      </trkpt>
      <trkpt lat="43.99248" lon="6.29508">
        <ele>658.88</ele>
        <time>2022-10-10T11:58:37Z</time>
      </trkpt>
      <trkpt lat="43.99271" lon="6.29411">
        <ele>655.48</ele>
        <time>2022-10-10T11:58:41Z</time>
      </trkpt>
      <trkpt lat="43.99275" lon="6.29391">
        <ele>655.48</ele>
        <time>2022-10-10T11:58:42Z</time>
      </trkpt>
      <trkpt lat="43.99283" lon="6.29356">
        <ele>653.96</ele>
        <time>2022-10-10T11:58:44Z</time>
      </trkpt>
      <trkpt lat="43.9929" lon="6.29344">
        <ele>652.97</ele>
        <time>2022-10-10T11:58:45Z</time>
      </trkpt>
      <trkpt lat="43.993" lon="6.29335">
        <ele>652.91</ele>
        <time>2022-10-10T11:58:46Z</time>
      </trkpt>
      <trkpt lat="43.99312" lon="6.2933">
        <ele>652.92</ele>
        <time>2022-10-10T11:58:47Z</time>
      </trkpt>
      <trkpt lat="43.99324" lon="6.29328">
        <ele>652.89</ele>
        <time>2022-10-10T11:58:48Z</time>
      </trkpt>
      <trkpt lat="43.99337" lon="6.29328">
        <ele>652.9</ele>
        <time>2022-10-10T11:58:49Z</time>
      </trkpt>
      <trkpt lat="43.99453" lon="6.29305">
        <ele>655.54</ele>
        <time>2022-10-10T11:58:56Z</time>
      </trkpt>
      <trkpt lat="43.9958" lon="6.29235">
        <ele>656.42</ele>
        <time>2022-10-10T11:59:03Z</time>
      </trkpt>
      <trkpt lat="43.99694" lon="6.29158">
        <ele>656.41</ele>
        <time>2022-10-10T11:59:09Z</time>
      </trkpt>
      <trkpt lat="43.99715" lon="6.29153">
        <ele>656.37</ele>
        <time>2022-10-10T11:59:10Z</time>
      </trkpt>
      <trkpt lat="43.99736" lon="6.2915">
        <ele>656.35</ele>
        <time>2022-10-10T11:59:11Z</time>
      </trkpt>
      <trkpt lat="43.99915" lon="6.29137">
        <ele>656.31</ele>
        <time>2022-10-10T11:59:20Z</time>
      </trkpt>
      <trkpt lat="43.99933" lon="6.2913">
        <ele>656.31</ele>
        <time>2022-10-10T11:59:21Z</time>
      </trkpt>
      <trkpt lat="43.9995" lon="6.29119">
        <ele>656.3</ele>
        <time>2022-10-10T11:59:22Z</time>
      </trkpt>
      <trkpt lat="43.99966" lon="6.29105">
        <ele>656.3</ele>
        <time>2022-10-10T11:59:23Z</time>
      </trkpt>
      <trkpt lat="43.99981" lon="6.29088">
        <ele>656.3</ele>
        <time>2022-10-10T11:59:24Z</time>
      </trkpt>
      <trkpt lat="43.99994" lon="6.29067">
        <ele>656.28</ele>
        <time>2022-10-10T11:59:25Z</time>
      </trkpt>
      <trkpt lat="44.00005" lon="6.29044">
        <ele>656.32</ele>
        <time>2022-10-10T11:59:26Z</time>
      </trkpt>
      <trkpt lat="44.00014" lon="6.29019">
        <ele>656.32</ele>
        <time>2022-10-10T11:59:27Z</time>
      </trkpt>
      <trkpt lat="44.00023" lon="6.28994">
        <ele>656.32</ele>
        <time>2022-10-10T11:59:28Z</time>
      </trkpt>
      <trkpt lat="44.00052" lon="6.28889">
        <ele>653.29</ele>
        <time>2022-10-10T11:59:32Z</time>
      </trkpt>
      <trkpt lat="44.00059" lon="6.28862">
        <ele>653.3</ele>
        <time>2022-10-10T11:59:33Z</time>
      </trkpt>
      <trkpt lat="44.00076" lon="6.28812">
        <ele>653.27</ele>
        <time>2022-10-10T11:59:35Z</time>
      </trkpt>
      <trkpt lat="44.00087" lon="6.2879">
        <ele>652.4</ele>
        <time>2022-10-10T11:59:36Z</time>
      </trkpt>
      <trkpt lat="44.001" lon="6.28769">
        <ele>652.38</ele>
        <time>2022-10-10T11:59:37Z</time>
      </trkpt>
      <trkpt lat="44.00115" lon="6.28752">
        <ele>651.15</ele>
        <time>2022-10-10T11:59:38Z</time>
      </trkpt>
      <trkpt lat="44.00132" lon="6.28737">
        <ele>651.1</ele>
        <time>2022-10-10T11:59:39Z</time>
      </trkpt>
      <trkpt lat="44.00149" lon="6.28723">
        <ele>651.08</ele>
        <time>2022-10-10T11:59:40Z</time>
      </trkpt>
      <trkpt lat="44.00203" lon="6.28687">
        <ele>649.25</ele>
        <time>2022-10-10T11:59:43Z</time>
      </trkpt>
      <trkpt lat="44.00361" lon="6.2858">
        <ele>647.42</ele>
        <time>2022-10-10T11:59:52Z</time>
      </trkpt>
      <trkpt lat="44.00376" lon="6.28565">
        <ele>647.38</ele>
        <time>2022-10-10T11:59:53Z</time>
      </trkpt>
      <trkpt lat="44.00448" lon="6.28485">
        <ele>645.52</ele>
        <time>2022-10-10T11:59:58Z</time>
      </trkpt>
      <trkpt lat="44.00464" lon="6.28472">
        <ele>645.51</ele>
        <time>2022-10-10T11:59:59Z</time>
      </trkpt>
      <trkpt lat="44.00573" lon="6.28403">
        <ele>644.34</ele>
        <time>2022-10-10T12:00:05Z</time>
      </trkpt>
      <trkpt lat="44.0059" lon="6.28386">
        <ele>644.33</ele>
        <time>2022-10-10T12:00:06Z</time>
      </trkpt>
      <trkpt lat="44.00604" lon="6.28366">
        <ele>644.3</ele>
        <time>2022-10-10T12:00:07Z</time>
      </trkpt>
      <trkpt lat="44.00616" lon="6.28343">
        <ele>644.3</ele>
        <time>2022-10-10T12:00:08Z</time>
      </trkpt>
      <trkpt lat="44.00627" lon="6.28319">
        <ele>644.33</ele>
        <time>2022-10-10T12:00:09Z</time>
      </trkpt>
      <trkpt lat="44.0073" lon="6.28072">
        <ele>642.41</ele>
        <time>2022-10-10T12:00:19Z</time>
      </trkpt>
      <trkpt lat="44.00736" lon="6.28045">
        <ele>642.41</ele>
        <time>2022-10-10T12:00:20Z</time>
      </trkpt>
      <trkpt lat="44.00741" lon="6.28018">
        <ele>642.39</ele>
        <time>2022-10-10T12:00:21Z</time>
      </trkpt>
      <trkpt lat="44.00758" lon="6.2791">
        <ele>642.37</ele>
        <time>2022-10-10T12:00:25Z</time>
      </trkpt>
      <trkpt lat="44.00766" lon="6.27886">
        <ele>642.36</ele>
        <time>2022-10-10T12:00:26Z</time>
      </trkpt>
      <trkpt lat="44.00777" lon="6.27864">
        <ele>641.34</ele>
        <time>2022-10-10T12:00:27Z</time>
      </trkpt>
      <trkpt lat="44.00789" lon="6.27842">
        <ele>640.31</ele>
        <time>2022-10-10T12:00:28Z</time>
      </trkpt>
      <trkpt lat="44.00802" lon="6.2782">
        <ele>640.31</ele>
        <time>2022-10-10T12:00:29Z</time>
      </trkpt>
      <trkpt lat="44.00837" lon="6.27749">
        <ele>638.53</ele>
        <time>2022-10-10T12:00:32Z</time>
      </trkpt>
      <trkpt lat="44.00846" lon="6.27723">
        <ele>638.55</ele>
        <time>2022-10-10T12:00:33Z</time>
      </trkpt>
      <trkpt lat="44.0092" lon="6.27496">
        <ele>638.63</ele>
        <time>2022-10-10T12:00:42Z</time>
      </trkpt>
      <trkpt lat="44.00926" lon="6.27469">
        <ele>638.61</ele>
        <time>2022-10-10T12:00:43Z</time>
      </trkpt>
      <trkpt lat="44.00929" lon="6.27442">
        <ele>638.61</ele>
        <time>2022-10-10T12:00:44Z</time>
      </trkpt>
      <trkpt lat="44.00933" lon="6.27337">
        <ele>635.54</ele>
        <time>2022-10-10T12:00:48Z</time>
      </trkpt>
      <trkpt lat="44.00934" lon="6.27313">
        <ele>635.53</ele>
        <time>2022-10-10T12:00:49Z</time>
      </trkpt>
      <trkpt lat="44.00935" lon="6.27245">
        <ele>632.78</ele>
        <time>2022-10-10T12:00:52Z</time>
      </trkpt>
      <trkpt lat="44.00937" lon="6.27201">
        <ele>631.55</ele>
        <time>2022-10-10T12:00:54Z</time>
      </trkpt>
      <trkpt lat="44.00943" lon="6.27158">
        <ele>630.23</ele>
        <time>2022-10-10T12:00:56Z</time>
      </trkpt>
      <trkpt lat="44.00949" lon="6.27114">
        <ele>628.85</ele>
        <time>2022-10-10T12:00:58Z</time>
      </trkpt>
      <trkpt lat="44.00949" lon="6.27091">
        <ele>628.92</ele>
        <time>2022-10-10T12:00:59Z</time>
      </trkpt>
      <trkpt lat="44.00947" lon="6.27069">
        <ele>628.86</ele>
        <time>2022-10-10T12:01:00Z</time>
      </trkpt>
      <trkpt lat="44.00939" lon="6.26977">
        <ele>627.48</ele>
        <time>2022-10-10T12:01:04Z</time>
      </trkpt>
      <trkpt lat="44.0094" lon="6.26953">
        <ele>627.51</ele>
        <time>2022-10-10T12:01:05Z</time>
      </trkpt>
      <trkpt lat="44.00958" lon="6.26624">
        <ele>625.65</ele>
        <time>2022-10-10T12:01:18Z</time>
      </trkpt>
      <trkpt lat="44.0098" lon="6.26248">
        <ele>623.2</ele>
        <time>2022-10-10T12:01:33Z</time>
      </trkpt>
      <trkpt lat="44.00982" lon="6.26222">
        <ele>623.2</ele>
        <time>2022-10-10T12:01:34Z</time>
      </trkpt>
      <trkpt lat="44.01012" lon="6.25945">
        <ele>621.4</ele>
        <time>2022-10-10T12:01:45Z</time>
      </trkpt>
      <trkpt lat="44.01074" lon="6.25754">
        <ele>619.43</ele>
        <time>2022-10-10T12:01:54Z</time>
      </trkpt>
      <trkpt lat="44.01078" lon="6.2573">
        <ele>619.43</ele>
        <time>2022-10-10T12:01:55Z</time>
      </trkpt>
      <trkpt lat="44.0108" lon="6.25706">
        <ele>618.71</ele>
        <time>2022-10-10T12:01:56Z</time>
      </trkpt>
      <trkpt lat="44.0108" lon="6.25683">
        <ele>618.69</ele>
        <time>2022-10-10T12:01:57Z</time>
      </trkpt>
      <trkpt lat="44.0108" lon="6.2566">
        <ele>618.68</ele>
        <time>2022-10-10T12:01:58Z</time>
      </trkpt>
      <trkpt lat="44.01078" lon="6.25466">
        <ele>615.92</ele>
        <time>2022-10-10T12:02:07Z</time>
      </trkpt>
      <trkpt lat="44.01082" lon="6.25448">
        <ele>615.92</ele>
        <time>2022-10-10T12:02:08Z</time>
      </trkpt>
      <trkpt lat="44.01089" lon="6.2543">
        <ele>615.91</ele>
        <time>2022-10-10T12:02:09Z</time>
      </trkpt>
      <trkpt lat="44.01098" lon="6.25415">
        <ele>615.89</ele>
        <time>2022-10-10T12:02:10Z</time>
      </trkpt>
      <trkpt lat="44.01108" lon="6.25401">
        <ele>615.87</ele>
        <time>2022-10-10T12:02:11Z</time>
      </trkpt>
      <trkpt lat="44.01121" lon="6.25391">
        <ele>615.85</ele>
        <time>2022-10-10T12:02:12Z</time>
      </trkpt>
      <trkpt lat="44.01134" lon="6.25382">
        <ele>615.85</ele>
        <time>2022-10-10T12:02:13Z</time>
      </trkpt>
      <trkpt lat="44.01148" lon="6.25376">
        <ele>615.84</ele>
        <time>2022-10-10T12:02:14Z</time>
      </trkpt>
      <trkpt lat="44.01193" lon="6.25357">
        <ele>615.07</ele>
        <time>2022-10-10T12:02:17Z</time>
      </trkpt>
      <trkpt lat="44.01388" lon="6.25346">
        <ele>615.11</ele>
        <time>2022-10-10T12:02:28Z</time>
      </trkpt>
      <trkpt lat="44.01491" lon="6.25367">
        <ele>613.39</ele>
        <time>2022-10-10T12:02:34Z</time>
      </trkpt>
      <trkpt lat="44.01505" lon="6.25365">
        <ele>613.34</ele>
        <time>2022-10-10T12:02:35Z</time>
      </trkpt>
      <trkpt lat="44.01519" lon="6.2536">
        <ele>613.38</ele>
        <time>2022-10-10T12:02:36Z</time>
      </trkpt>
      <trkpt lat="44.01653" lon="6.25294">
        <ele>612.34</ele>
        <time>2022-10-10T12:02:45Z</time>
      </trkpt>
      <trkpt lat="44.01664" lon="6.25285">
        <ele>611.14</ele>
        <time>2022-10-10T12:02:46Z</time>
      </trkpt>
      <trkpt lat="44.01673" lon="6.25275">
        <ele>611.12</ele>
        <time>2022-10-10T12:02:47Z</time>
      </trkpt>
      <trkpt lat="44.01681" lon="6.25262">
        <ele>611.12</ele>
        <time>2022-10-10T12:02:48Z</time>
      </trkpt>
      <trkpt lat="44.01688" lon="6.25245">
        <ele>611.1</ele>
        <time>2022-10-10T12:02:49Z</time>
      </trkpt>
      <trkpt lat="44.01692" lon="6.25224">
        <ele>611.11</ele>
        <time>2022-10-10T12:02:50Z</time>
      </trkpt>
      <trkpt lat="44.01694" lon="6.252">
        <ele>611.11</ele>
        <time>2022-10-10T12:02:51Z</time>
      </trkpt>
      <trkpt lat="44.01693" lon="6.25173">
        <ele>614.01</ele>
        <time>2022-10-10T12:02:52Z</time>
      </trkpt>
      <trkpt lat="44.0169" lon="6.25143">
        <ele>615.02</ele>
        <time>2022-10-10T12:02:53Z</time>
      </trkpt>
      <trkpt lat="44.01688" lon="6.25111">
        <ele>615</ele>
        <time>2022-10-10T12:02:54Z</time>
      </trkpt>
      <trkpt lat="44.01688" lon="6.25076">
        <ele>614.97</ele>
        <time>2022-10-10T12:02:55Z</time>
      </trkpt>
      <trkpt lat="44.01692" lon="6.24966">
        <ele>616.21</ele>
        <time>2022-10-10T12:02:58Z</time>
      </trkpt>
      <trkpt lat="44.01703" lon="6.24674">
        <ele>613.23</ele>
        <time>2022-10-10T12:03:06Z</time>
      </trkpt>
      <trkpt lat="44.01705" lon="6.2461">
        <ele>611.5</ele>
        <time>2022-10-10T12:03:08Z</time>
      </trkpt>
      <trkpt lat="44.0171" lon="6.24399">
        <ele>608.33</ele>
        <time>2022-10-10T12:03:15Z</time>
      </trkpt>
      <trkpt lat="44.01685" lon="6.24175">
        <ele>608.21</ele>
        <time>2022-10-10T12:03:23Z</time>
      </trkpt>
      <trkpt lat="44.01663" lon="6.24039">
        <ele>610.93</ele>
        <time>2022-10-10T12:03:28Z</time>
      </trkpt>
      <trkpt lat="44.0166" lon="6.23921">
        <ele>614.55</ele>
        <time>2022-10-10T12:03:32Z</time>
      </trkpt>
      <trkpt lat="44.01659" lon="6.2389">
        <ele>614.55</ele>
        <time>2022-10-10T12:03:33Z</time>
      </trkpt>
      <trkpt lat="44.01658" lon="6.23797">
        <ele>617.92</ele>
        <time>2022-10-10T12:03:36Z</time>
      </trkpt>
      <trkpt lat="44.01657" lon="6.23766">
        <ele>617.96</ele>
        <time>2022-10-10T12:03:37Z</time>
      </trkpt>
      <trkpt lat="44.0165" lon="6.23705">
        <ele>620.33</ele>
        <time>2022-10-10T12:03:39Z</time>
      </trkpt>
      <trkpt lat="44.01644" lon="6.23676">
        <ele>620.32</ele>
        <time>2022-10-10T12:03:40Z</time>
      </trkpt>
      <trkpt lat="44.01622" lon="6.23588">
        <ele>622.59</ele>
        <time>2022-10-10T12:03:43Z</time>
      </trkpt>
      <trkpt lat="44.016" lon="6.235">
        <ele>624.92</ele>
        <time>2022-10-10T12:03:46Z</time>
      </trkpt>
      <trkpt lat="44.0158" lon="6.2341">
        <ele>626.83</ele>
        <time>2022-10-10T12:03:49Z</time>
      </trkpt>
      <trkpt lat="44.01555" lon="6.23205">
        <ele>624.3</ele>
        <time>2022-10-10T12:03:56Z</time>
      </trkpt>
      <trkpt lat="44.0155" lon="6.23147">
        <ele>623.12</ele>
        <time>2022-10-10T12:03:58Z</time>
      </trkpt>
      <trkpt lat="44.01551" lon="6.2306">
        <ele>621.16</ele>
        <time>2022-10-10T12:04:01Z</time>
      </trkpt>
      <trkpt lat="44.01559" lon="6.22943">
        <ele>619.75</ele>
        <time>2022-10-10T12:04:05Z</time>
      </trkpt>
      <trkpt lat="44.01565" lon="6.22856">
        <ele>617.4</ele>
        <time>2022-10-10T12:04:08Z</time>
      </trkpt>
      <trkpt lat="44.01568" lon="6.22739">
        <ele>614.18</ele>
        <time>2022-10-10T12:04:12Z</time>
      </trkpt>
      <trkpt lat="44.01567" lon="6.22709">
        <ele>614.13</ele>
        <time>2022-10-10T12:04:13Z</time>
      </trkpt>
      <trkpt lat="44.0156" lon="6.22651">
        <ele>613</ele>
        <time>2022-10-10T12:04:15Z</time>
      </trkpt>
      <trkpt lat="44.01554" lon="6.22622">
        <ele>612.2</ele>
        <time>2022-10-10T12:04:16Z</time>
      </trkpt>
      <trkpt lat="44.01545" lon="6.22594">
        <ele>612.11</ele>
        <time>2022-10-10T12:04:17Z</time>
      </trkpt>
      <trkpt lat="44.01534" lon="6.22568">
        <ele>611.25</ele>
        <time>2022-10-10T12:04:18Z</time>
      </trkpt>
      <trkpt lat="44.01523" lon="6.22542">
        <ele>611.27</ele>
        <time>2022-10-10T12:04:19Z</time>
      </trkpt>
      <trkpt lat="44.01397" lon="6.2234">
        <ele>609.32</ele>
        <time>2022-10-10T12:04:28Z</time>
      </trkpt>
      <trkpt lat="44.01273" lon="6.22183">
        <ele>607.89</ele>
        <time>2022-10-10T12:04:36Z</time>
      </trkpt>
      <trkpt lat="44.01113" lon="6.21984">
        <ele>606.92</ele>
        <time>2022-10-10T12:04:46Z</time>
      </trkpt>
      <trkpt lat="44.01076" lon="6.21952">
        <ele>605.72</ele>
        <time>2022-10-10T12:04:48Z</time>
      </trkpt>
      <trkpt lat="44.0102" lon="6.21906">
        <ele>604.43</ele>
        <time>2022-10-10T12:04:51Z</time>
      </trkpt>
      <trkpt lat="44.01003" lon="6.21889">
        <ele>603.52</ele>
        <time>2022-10-10T12:04:52Z</time>
      </trkpt>
      <trkpt lat="44.00987" lon="6.2187">
        <ele>603.47</ele>
        <time>2022-10-10T12:04:53Z</time>
      </trkpt>
      <trkpt lat="44.00974" lon="6.21847">
        <ele>603.8</ele>
        <time>2022-10-10T12:04:54Z</time>
      </trkpt>
      <trkpt lat="44.00963" lon="6.21823">
        <ele>603.79</ele>
        <time>2022-10-10T12:04:55Z</time>
      </trkpt>
      <trkpt lat="44.00955" lon="6.21797">
        <ele>602.65</ele>
        <time>2022-10-10T12:04:56Z</time>
      </trkpt>
      <trkpt lat="44.0095" lon="6.2177">
        <ele>602.65</ele>
        <time>2022-10-10T12:04:57Z</time>
      </trkpt>
      <trkpt lat="44.00947" lon="6.21742">
        <ele>601.6</ele>
        <time>2022-10-10T12:04:58Z</time>
      </trkpt>
      <trkpt lat="44.00947" lon="6.21714">
        <ele>600.74</ele>
        <time>2022-10-10T12:04:59Z</time>
      </trkpt>
      <trkpt lat="44.0095" lon="6.21687">
        <ele>600.73</ele>
        <time>2022-10-10T12:05:00Z</time>
      </trkpt>
      <trkpt lat="44.00954" lon="6.21659">
        <ele>599.85</ele>
        <time>2022-10-10T12:05:01Z</time>
      </trkpt>
      <trkpt lat="44.00961" lon="6.21634">
        <ele>599.86</ele>
        <time>2022-10-10T12:05:02Z</time>
      </trkpt>
      <trkpt lat="44.0097" lon="6.21609">
        <ele>599.81</ele>
        <time>2022-10-10T12:05:03Z</time>
      </trkpt>
      <trkpt lat="44.00981" lon="6.21586">
        <ele>599.84</ele>
        <time>2022-10-10T12:05:04Z</time>
      </trkpt>
      <trkpt lat="44.00993" lon="6.21564">
        <ele>599.81</ele>
        <time>2022-10-10T12:05:05Z</time>
      </trkpt>
      <trkpt lat="44.01007" lon="6.21544">
        <ele>599.81</ele>
        <time>2022-10-10T12:05:06Z</time>
      </trkpt>
      <trkpt lat="44.01021" lon="6.21524">
        <ele>599.81</ele>
        <time>2022-10-10T12:05:07Z</time>
      </trkpt>
      <trkpt lat="44.01138" lon="6.21419">
        <ele>602.2</ele>
        <time>2022-10-10T12:05:14Z</time>
      </trkpt>
      <trkpt lat="44.01215" lon="6.21387">
        <ele>606.46</ele>
        <time>2022-10-10T12:05:18Z</time>
      </trkpt>
      <trkpt lat="44.01276" lon="6.21375">
        <ele>609.3</ele>
        <time>2022-10-10T12:05:21Z</time>
      </trkpt>
      <trkpt lat="44.01337" lon="6.21365">
        <ele>613.49</ele>
        <time>2022-10-10T12:05:24Z</time>
      </trkpt>
      <trkpt lat="44.01378" lon="6.2136">
        <ele>615.11</ele>
        <time>2022-10-10T12:05:26Z</time>
      </trkpt>
      <trkpt lat="44.01469" lon="6.21332">
        <ele>617.05</ele>
        <time>2022-10-10T12:05:32Z</time>
      </trkpt>
      <trkpt lat="44.01477" lon="6.21326">
        <ele>617.05</ele>
        <time>2022-10-10T12:05:33Z</time>
      </trkpt>
      <trkpt lat="44.01481" lon="6.21316">
        <ele>617</ele>
        <time>2022-10-10T12:05:34Z</time>
      </trkpt>
      <trkpt lat="44.01481" lon="6.21304">
        <ele>617</ele>
        <time>2022-10-10T12:05:35Z</time>
      </trkpt>
      <trkpt lat="44.01478" lon="6.2129">
        <ele>616.96</ele>
        <time>2022-10-10T12:05:36Z</time>
      </trkpt>
      <trkpt lat="44.01474" lon="6.21273">
        <ele>616.98</ele>
        <time>2022-10-10T12:05:37Z</time>
      </trkpt>
      <trkpt lat="44.01471" lon="6.21254">
        <ele>616.93</ele>
        <time>2022-10-10T12:05:38Z</time>
      </trkpt>
      <trkpt lat="44.01469" lon="6.21234">
        <ele>616.9</ele>
        <time>2022-10-10T12:05:39Z</time>
      </trkpt>
      <trkpt lat="44.0145" lon="6.211">
        <ele>614.32</ele>
        <time>2022-10-10T12:05:45Z</time>
      </trkpt>
      <trkpt lat="44.01443" lon="6.21078">
        <ele>614.31</ele>
        <time>2022-10-10T12:05:46Z</time>
      </trkpt>
      <trkpt lat="44.01434" lon="6.21059">
        <ele>614.29</ele>
        <time>2022-10-10T12:05:47Z</time>
      </trkpt>
      <trkpt lat="44.01422" lon="6.21043">
        <ele>614.27</ele>
        <time>2022-10-10T12:05:48Z</time>
      </trkpt>
      <trkpt lat="44.01408" lon="6.21029">
        <ele>614.28</ele>
        <time>2022-10-10T12:05:49Z</time>
      </trkpt>
      <trkpt lat="44.01392" lon="6.2102">
        <ele>614.25</ele>
        <time>2022-10-10T12:05:50Z</time>
      </trkpt>
      <trkpt lat="44.01375" lon="6.21015">
        <ele>612.78</ele>
        <time>2022-10-10T12:05:51Z</time>
      </trkpt>
      <trkpt lat="44.01358" lon="6.21013">
        <ele>611.81</ele>
        <time>2022-10-10T12:05:52Z</time>
      </trkpt>
      <trkpt lat="44.0134" lon="6.21013">
        <ele>611.79</ele>
        <time>2022-10-10T12:05:53Z</time>
      </trkpt>
      <trkpt lat="44.01304" lon="6.21008">
        <ele>609.72</ele>
        <time>2022-10-10T12:05:55Z</time>
      </trkpt>
      <trkpt lat="44.01287" lon="6.21001">
        <ele>609.71</ele>
        <time>2022-10-10T12:05:56Z</time>
      </trkpt>
      <trkpt lat="44.01271" lon="6.20988">
        <ele>609.67</ele>
        <time>2022-10-10T12:05:57Z</time>
      </trkpt>
      <trkpt lat="44.01258" lon="6.20971">
        <ele>609.68</ele>
        <time>2022-10-10T12:05:58Z</time>
      </trkpt>
      <trkpt lat="44.01246" lon="6.20953">
        <ele>609.65</ele>
        <time>2022-10-10T12:05:59Z</time>
      </trkpt>
      <trkpt lat="44.01174" lon="6.20824">
        <ele>609.58</ele>
        <time>2022-10-10T12:06:06Z</time>
      </trkpt>
      <trkpt lat="44.01169" lon="6.20804">
        <ele>609.54</ele>
        <time>2022-10-10T12:06:07Z</time>
      </trkpt>
      <trkpt lat="44.01167" lon="6.20784">
        <ele>607.75</ele>
        <time>2022-10-10T12:06:08Z</time>
      </trkpt>
      <trkpt lat="44.01164" lon="6.20764">
        <ele>606.37</ele>
        <time>2022-10-10T12:06:09Z</time>
      </trkpt>
      <trkpt lat="44.01159" lon="6.20748">
        <ele>606.37</ele>
        <time>2022-10-10T12:06:10Z</time>
      </trkpt>
      <trkpt lat="44.01149" lon="6.20736">
        <ele>605.38</ele>
        <time>2022-10-10T12:06:11Z</time>
      </trkpt>
      <trkpt lat="44.01137" lon="6.20728">
        <ele>605.38</ele>
        <time>2022-10-10T12:06:12Z</time>
      </trkpt>
      <trkpt lat="44.01124" lon="6.20722">
        <ele>604.08</ele>
        <time>2022-10-10T12:06:13Z</time>
      </trkpt>
      <trkpt lat="44.01111" lon="6.20716">
        <ele>604.06</ele>
        <time>2022-10-10T12:06:14Z</time>
      </trkpt>
      <trkpt lat="44.01057" lon="6.20678">
        <ele>602.06</ele>
        <time>2022-10-10T12:06:18Z</time>
      </trkpt>
      <trkpt lat="44.01045" lon="6.20663">
        <ele>602</ele>
        <time>2022-10-10T12:06:19Z</time>
      </trkpt>
      <trkpt lat="44.01034" lon="6.20646">
        <ele>602.02</ele>
        <time>2022-10-10T12:06:20Z</time>
      </trkpt>
      <trkpt lat="44.01011" lon="6.20613">
        <ele>601.97</ele>
        <time>2022-10-10T12:06:22Z</time>
      </trkpt>
      <trkpt lat="44.00998" lon="6.20599">
        <ele>601.04</ele>
        <time>2022-10-10T12:06:23Z</time>
      </trkpt>
      <trkpt lat="44.00984" lon="6.20586">
        <ele>601</ele>
        <time>2022-10-10T12:06:24Z</time>
      </trkpt>
      <trkpt lat="44.00909" lon="6.20521">
        <ele>597.87</ele>
        <time>2022-10-10T12:06:29Z</time>
      </trkpt>
      <trkpt lat="44.00879" lon="6.20491">
        <ele>596.79</ele>
        <time>2022-10-10T12:06:31Z</time>
      </trkpt>
      <trkpt lat="44.00755" lon="6.20328">
        <ele>593</ele>
        <time>2022-10-10T12:06:40Z</time>
      </trkpt>
      <trkpt lat="44.00741" lon="6.20309">
        <ele>592.95</ele>
        <time>2022-10-10T12:06:41Z</time>
      </trkpt>
      <trkpt lat="44.00712" lon="6.20272">
        <ele>591.69</ele>
        <time>2022-10-10T12:06:43Z</time>
      </trkpt>
      <trkpt lat="44.00614" lon="6.20157">
        <ele>589.11</ele>
        <time>2022-10-10T12:06:50Z</time>
      </trkpt>
      <trkpt lat="44.0058" lon="6.20117">
        <ele>587.63</ele>
        <time>2022-10-10T12:06:53Z</time>
      </trkpt>
      <trkpt lat="44.00555" lon="6.20081">
        <ele>586.84</ele>
        <time>2022-10-10T12:06:56Z</time>
      </trkpt>
      <trkpt lat="44.00545" lon="6.20071">
        <ele>587.24</ele>
        <time>2022-10-10T12:06:57Z</time>
      </trkpt>
      <trkpt lat="44.00522" lon="6.20054">
        <ele>587.25</ele>
        <time>2022-10-10T12:06:59Z</time>
      </trkpt>
      <trkpt lat="44.00509" lon="6.20042">
        <ele>587.22</ele>
        <time>2022-10-10T12:07:00Z</time>
      </trkpt>
      <trkpt lat="44.00483" lon="6.20014">
        <ele>590.04</ele>
        <time>2022-10-10T12:07:02Z</time>
      </trkpt>
      <trkpt lat="44.0038" lon="6.19947">
        <ele>590.98</ele>
        <time>2022-10-10T12:07:09Z</time>
      </trkpt>
      <trkpt lat="44.00348" lon="6.19924">
        <ele>592.76</ele>
        <time>2022-10-10T12:07:11Z</time>
      </trkpt>
      <trkpt lat="44.00315" lon="6.19904">
        <ele>594.07</ele>
        <time>2022-10-10T12:07:13Z</time>
      </trkpt>
      <trkpt lat="44.00297" lon="6.19897">
        <ele>594.03</ele>
        <time>2022-10-10T12:07:14Z</time>
      </trkpt>
      <trkpt lat="44.00189" lon="6.19854">
        <ele>592.38</ele>
        <time>2022-10-10T12:07:21Z</time>
      </trkpt>
      <trkpt lat="44.00176" lon="6.19843">
        <ele>592.39</ele>
        <time>2022-10-10T12:07:22Z</time>
      </trkpt>
      <trkpt lat="44.00066" lon="6.19786">
        <ele>589.21</ele>
        <time>2022-10-10T12:07:30Z</time>
      </trkpt>
      <trkpt lat="44.00052" lon="6.1978">
        <ele>589.18</ele>
        <time>2022-10-10T12:07:31Z</time>
      </trkpt>
      <trkpt lat="43.99935" lon="6.19723">
        <ele>586.23</ele>
        <time>2022-10-10T12:07:41Z</time>
      </trkpt>
      <trkpt lat="43.99811" lon="6.1967">
        <ele>585.3</ele>
        <time>2022-10-10T12:07:53Z</time>
      </trkpt>
      <trkpt lat="43.99778" lon="6.1966">
        <ele>582.89</ele>
        <time>2022-10-10T12:07:56Z</time>
      </trkpt>
      <trkpt lat="43.99697" lon="6.19641">
        <ele>579.27</ele>
        <time>2022-10-10T12:08:04Z</time>
      </trkpt>
      <trkpt lat="43.99687" lon="6.19638">
        <ele>579.23</ele>
        <time>2022-10-10T12:08:05Z</time>
      </trkpt>
      <trkpt lat="43.99658" lon="6.19632">
        <ele>577.95</ele>
        <time>2022-10-10T12:08:08Z</time>
      </trkpt>
      <trkpt lat="43.99643" lon="6.19629">
        <ele>576.14</ele>
        <time>2022-10-10T12:08:10Z</time>
      </trkpt>
      <trkpt lat="43.99637" lon="6.19626">
        <ele>576.12</ele>
        <time>2022-10-10T12:08:11Z</time>
      </trkpt>
      <trkpt lat="43.99632" lon="6.19624">
        <ele>576.13</ele>
        <time>2022-10-10T12:08:12Z</time>
      </trkpt>
      <trkpt lat="43.99627" lon="6.19621">
        <ele>576.11</ele>
        <time>2022-10-10T12:08:13Z</time>
      </trkpt>
      <trkpt lat="43.99621" lon="6.19618">
        <ele>575.18</ele>
        <time>2022-10-10T12:08:14Z</time>
      </trkpt>
      <trkpt lat="43.99612" lon="6.19614">
        <ele>575.19</ele>
        <time>2022-10-10T12:08:15Z</time>
      </trkpt>
      <trkpt lat="43.99602" lon="6.19608">
        <ele>575.21</ele>
        <time>2022-10-10T12:08:16Z</time>
      </trkpt>
      <trkpt lat="43.99591" lon="6.19601">
        <ele>575.21</ele>
        <time>2022-10-10T12:08:17Z</time>
      </trkpt>
      <trkpt lat="43.9951" lon="6.19551">
        <ele>575.49</ele>
        <time>2022-10-10T12:08:25Z</time>
      </trkpt>
      <trkpt lat="43.99479" lon="6.19536">
        <ele>575.51</ele>
        <time>2022-10-10T12:08:28Z</time>
      </trkpt>
      <trkpt lat="43.99468" lon="6.19532">
        <ele>575.52</ele>
        <time>2022-10-10T12:08:29Z</time>
      </trkpt>
      <trkpt lat="43.99457" lon="6.19531">
        <ele>575.5</ele>
        <time>2022-10-10T12:08:30Z</time>
      </trkpt>
      <trkpt lat="43.99447" lon="6.19531">
        <ele>575.49</ele>
        <time>2022-10-10T12:08:31Z</time>
      </trkpt>
      <trkpt lat="43.99437" lon="6.19532">
        <ele>574.36</ele>
        <time>2022-10-10T12:08:32Z</time>
      </trkpt>
      <trkpt lat="43.99417" lon="6.19533">
        <ele>573.48</ele>
        <time>2022-10-10T12:08:34Z</time>
      </trkpt>
      <trkpt lat="43.99368" lon="6.19544">
        <ele>572.58</ele>
        <time>2022-10-10T12:08:39Z</time>
      </trkpt>
      <trkpt lat="43.99307" lon="6.19568">
        <ele>571.92</ele>
        <time>2022-10-10T12:08:45Z</time>
      </trkpt>
      <trkpt lat="43.99226" lon="6.19565">
        <ele>568.13</ele>
        <time>2022-10-10T12:08:52Z</time>
      </trkpt>
      <trkpt lat="43.99216" lon="6.19563">
        <ele>568.06</ele>
        <time>2022-10-10T12:08:53Z</time>
      </trkpt>
      <trkpt lat="43.99143" lon="6.19553">
        <ele>565.03</ele>
        <time>2022-10-10T12:09:00Z</time>
      </trkpt>
      <trkpt lat="43.99122" lon="6.19552">
        <ele>564.23</ele>
        <time>2022-10-10T12:09:02Z</time>
      </trkpt>
      <trkpt lat="43.99068" lon="6.19553">
        <ele>563.05</ele>
        <time>2022-10-10T12:09:07Z</time>
      </trkpt>
      <trkpt lat="43.99059" lon="6.19557">
        <ele>562.59</ele>
        <time>2022-10-10T12:09:08Z</time>
      </trkpt>
      <trkpt lat="43.99051" lon="6.19564">
        <ele>561.61</ele>
        <time>2022-10-10T12:09:09Z</time>
      </trkpt>
      <trkpt lat="43.99046" lon="6.19573">
        <ele>561.57</ele>
        <time>2022-10-10T12:09:10Z</time>
      </trkpt>
      <trkpt lat="43.99042" lon="6.19583">
        <ele>561.58</ele>
        <time>2022-10-10T12:09:11Z</time>
      </trkpt>
      <trkpt lat="43.99039" lon="6.19595">
        <ele>561.55</ele>
        <time>2022-10-10T12:09:12Z</time>
      </trkpt>
      <trkpt lat="43.99039" lon="6.19609">
        <ele>561.56</ele>
        <time>2022-10-10T12:09:13Z</time>
      </trkpt>
      <trkpt lat="43.99041" lon="6.19628">
        <ele>564.5</ele>
        <time>2022-10-10T12:09:14Z</time>
      </trkpt>
      <trkpt lat="43.99043" lon="6.19652">
        <ele>564.48</ele>
        <time>2022-10-10T12:09:15Z</time>
      </trkpt>
      <trkpt lat="43.99043" lon="6.19793">
        <ele>565.29</ele>
        <time>2022-10-10T12:09:21Z</time>
      </trkpt>
      <trkpt lat="43.99039" lon="6.19815">
        <ele>565.27</ele>
        <time>2022-10-10T12:09:22Z</time>
      </trkpt>
      <trkpt lat="43.99031" lon="6.19836">
        <ele>565.26</ele>
        <time>2022-10-10T12:09:23Z</time>
      </trkpt>
      <trkpt lat="43.99021" lon="6.19854">
        <ele>565.27</ele>
        <time>2022-10-10T12:09:24Z</time>
      </trkpt>
      <trkpt lat="43.99007" lon="6.19869">
        <ele>562.67</ele>
        <time>2022-10-10T12:09:25Z</time>
      </trkpt>
      <trkpt lat="43.98992" lon="6.19879">
        <ele>562.73</ele>
        <time>2022-10-10T12:09:26Z</time>
      </trkpt>
      <trkpt lat="43.98975" lon="6.19885">
        <ele>562.73</ele>
        <time>2022-10-10T12:09:27Z</time>
      </trkpt>
      <trkpt lat="43.98957" lon="6.19887">
        <ele>562.78</ele>
        <time>2022-10-10T12:09:28Z</time>
      </trkpt>
      <trkpt lat="43.9894" lon="6.19886">
        <ele>562.77</ele>
        <time>2022-10-10T12:09:29Z</time>
      </trkpt>
      <trkpt lat="43.98922" lon="6.19884">
        <ele>562.74</ele>
        <time>2022-10-10T12:09:30Z</time>
      </trkpt>
      <trkpt lat="43.98904" lon="6.19879">
        <ele>562.74</ele>
        <time>2022-10-10T12:09:31Z</time>
      </trkpt>
      <trkpt lat="43.98886" lon="6.19874">
        <ele>562.73</ele>
        <time>2022-10-10T12:09:32Z</time>
      </trkpt>
      <trkpt lat="43.98605" lon="6.19774">
        <ele>560.64</ele>
        <time>2022-10-10T12:09:47Z</time>
      </trkpt>
      <trkpt lat="43.98342" lon="6.19693">
        <ele>559.71</ele>
        <time>2022-10-10T12:10:01Z</time>
      </trkpt>
      <trkpt lat="43.9818" lon="6.19676">
        <ele>557.5</ele>
        <time>2022-10-10T12:10:09Z</time>
      </trkpt>
      <trkpt lat="43.98119" lon="6.19669">
        <ele>556.25</ele>
        <time>2022-10-10T12:10:12Z</time>
      </trkpt>
      <trkpt lat="43.97982" lon="6.19688">
        <ele>556.16</ele>
        <time>2022-10-10T12:10:19Z</time>
      </trkpt>
      <trkpt lat="43.97828" lon="6.19686">
        <ele>555.16</ele>
        <time>2022-10-10T12:10:27Z</time>
      </trkpt>
      <trkpt lat="43.97758" lon="6.1965">
        <ele>554.01</ele>
        <time>2022-10-10T12:10:31Z</time>
      </trkpt>
      <trkpt lat="43.97742" lon="6.19637">
        <ele>554.01</ele>
        <time>2022-10-10T12:10:32Z</time>
      </trkpt>
      <trkpt lat="43.97727" lon="6.1962">
        <ele>553.97</ele>
        <time>2022-10-10T12:10:33Z</time>
      </trkpt>
      <trkpt lat="43.97713" lon="6.19603">
        <ele>553.98</ele>
        <time>2022-10-10T12:10:34Z</time>
      </trkpt>
      <trkpt lat="43.977" lon="6.19585">
        <ele>554.02</ele>
        <time>2022-10-10T12:10:35Z</time>
      </trkpt>
      <trkpt lat="43.9767" lon="6.19551">
        <ele>553.93</ele>
        <time>2022-10-10T12:10:37Z</time>
      </trkpt>
      <trkpt lat="43.97652" lon="6.19538">
        <ele>553.06</ele>
        <time>2022-10-10T12:10:38Z</time>
      </trkpt>
      <trkpt lat="43.97634" lon="6.19528">
        <ele>552.2</ele>
        <time>2022-10-10T12:10:39Z</time>
      </trkpt>
      <trkpt lat="43.97596" lon="6.19512">
        <ele>551.12</ele>
        <time>2022-10-10T12:10:41Z</time>
      </trkpt>
      <trkpt lat="43.97385" lon="6.19405">
        <ele>550.18</ele>
        <time>2022-10-10T12:10:52Z</time>
      </trkpt>
      <trkpt lat="43.97245" lon="6.19305">
        <ele>553.41</ele>
        <time>2022-10-10T12:11:00Z</time>
      </trkpt>
      <trkpt lat="43.97228" lon="6.19293">
        <ele>553.41</ele>
        <time>2022-10-10T12:11:01Z</time>
      </trkpt>
      <trkpt lat="43.97055" lon="6.1921">
        <ele>551.28</ele>
        <time>2022-10-10T12:11:10Z</time>
      </trkpt>
      <trkpt lat="43.96991" lon="6.19184">
        <ele>548.92</ele>
        <time>2022-10-10T12:11:13Z</time>
      </trkpt>
      <trkpt lat="43.96948" lon="6.19167">
        <ele>547.28</ele>
        <time>2022-10-10T12:11:15Z</time>
      </trkpt>
      <trkpt lat="43.96907" lon="6.19149">
        <ele>545.95</ele>
        <time>2022-10-10T12:11:17Z</time>
      </trkpt>
      <trkpt lat="43.96657" lon="6.19014">
        <ele>546.01</ele>
        <time>2022-10-10T12:11:30Z</time>
      </trkpt>
      <trkpt lat="43.96528" lon="6.18933">
        <ele>548.33</ele>
        <time>2022-10-10T12:11:37Z</time>
      </trkpt>
      <trkpt lat="43.96366" lon="6.18863">
        <ele>544.35</ele>
        <time>2022-10-10T12:11:45Z</time>
      </trkpt>
      <trkpt lat="43.96304" lon="6.18825">
        <ele>542.28</ele>
        <time>2022-10-10T12:11:48Z</time>
      </trkpt>
      <trkpt lat="43.96143" lon="6.18731">
        <ele>542.08</ele>
        <time>2022-10-10T12:11:56Z</time>
      </trkpt>
      <trkpt lat="43.96126" lon="6.18716">
        <ele>542.02</ele>
        <time>2022-10-10T12:11:57Z</time>
      </trkpt>
      <trkpt lat="43.95938" lon="6.18527">
        <ele>539.52</ele>
        <time>2022-10-10T12:12:08Z</time>
      </trkpt>
      <trkpt lat="43.9588" lon="6.18479">
        <ele>537.45</ele>
        <time>2022-10-10T12:12:11Z</time>
      </trkpt>
      <trkpt lat="43.9582" lon="6.18432">
        <ele>535.84</ele>
        <time>2022-10-10T12:12:14Z</time>
      </trkpt>
      <trkpt lat="43.95618" lon="6.18253">
        <ele>534.78</ele>
        <time>2022-10-10T12:12:25Z</time>
      </trkpt>
      <trkpt lat="43.95427" lon="6.18111">
        <ele>532.93</ele>
        <time>2022-10-10T12:12:35Z</time>
      </trkpt>
      <trkpt lat="43.9529" lon="6.18018">
        <ele>531.91</ele>
        <time>2022-10-10T12:12:42Z</time>
      </trkpt>
      <trkpt lat="43.95272" lon="6.18001">
        <ele>531.91</ele>
        <time>2022-10-10T12:12:43Z</time>
      </trkpt>
      <trkpt lat="43.9517" lon="6.17893">
        <ele>529.75</ele>
        <time>2022-10-10T12:12:49Z</time>
      </trkpt>
      <trkpt lat="43.95047" lon="6.17775">
        <ele>527.28</ele>
        <time>2022-10-10T12:12:56Z</time>
      </trkpt>
      <trkpt lat="43.94991" lon="6.1773">
        <ele>525.76</ele>
        <time>2022-10-10T12:12:59Z</time>
      </trkpt>
      <trkpt lat="43.94872" lon="6.1766">
        <ele>523.43</ele>
        <time>2022-10-10T12:13:05Z</time>
      </trkpt>
      <trkpt lat="43.94832" lon="6.1764">
        <ele>522.14</ele>
        <time>2022-10-10T12:13:07Z</time>
      </trkpt>
      <trkpt lat="43.94741" lon="6.17565">
        <ele>520.86</ele>
        <time>2022-10-10T12:13:12Z</time>
      </trkpt>
      <trkpt lat="43.94636" lon="6.17422">
        <ele>517.72</ele>
        <time>2022-10-10T12:13:19Z</time>
      </trkpt>
      <trkpt lat="43.94587" lon="6.17367">
        <ele>517.62</ele>
        <time>2022-10-10T12:13:22Z</time>
      </trkpt>
      <trkpt lat="43.94568" lon="6.17354">
        <ele>517.66</ele>
        <time>2022-10-10T12:13:23Z</time>
      </trkpt>
      <trkpt lat="43.94548" lon="6.17343">
        <ele>517.7</ele>
        <time>2022-10-10T12:13:24Z</time>
      </trkpt>
      <trkpt lat="43.94492" lon="6.17309">
        <ele>516.56</ele>
        <time>2022-10-10T12:13:27Z</time>
      </trkpt>
      <trkpt lat="43.94476" lon="6.17294">
        <ele>516.53</ele>
        <time>2022-10-10T12:13:28Z</time>
      </trkpt>
      <trkpt lat="43.94461" lon="6.17277">
        <ele>516.5</ele>
        <time>2022-10-10T12:13:29Z</time>
      </trkpt>
      <trkpt lat="43.94449" lon="6.17259">
        <ele>515.15</ele>
        <time>2022-10-10T12:13:30Z</time>
      </trkpt>
      <trkpt lat="43.94438" lon="6.17241">
        <ele>515.12</ele>
        <time>2022-10-10T12:13:31Z</time>
      </trkpt>
      <trkpt lat="43.94429" lon="6.17223">
        <ele>515.14</ele>
        <time>2022-10-10T12:13:32Z</time>
      </trkpt>
      <trkpt lat="43.94388" lon="6.17145">
        <ele>513.18</ele>
        <time>2022-10-10T12:13:37Z</time>
      </trkpt>
      <trkpt lat="43.9438" lon="6.17134">
        <ele>512.11</ele>
        <time>2022-10-10T12:13:38Z</time>
      </trkpt>
      <trkpt lat="43.94288" lon="6.1701">
        <ele>512.12</ele>
        <time>2022-10-10T12:13:49Z</time>
      </trkpt>
      <trkpt lat="43.94246" lon="6.16971">
        <ele>514.48</ele>
        <time>2022-10-10T12:13:53Z</time>
      </trkpt>
      <trkpt lat="43.94234" lon="6.16965">
        <ele>514.52</ele>
        <time>2022-10-10T12:13:54Z</time>
      </trkpt>
      <trkpt lat="43.94222" lon="6.16959">
        <ele>515.71</ele>
        <time>2022-10-10T12:13:55Z</time>
      </trkpt>
      <trkpt lat="43.94198" lon="6.16952">
        <ele>516.61</ele>
        <time>2022-10-10T12:13:57Z</time>
      </trkpt>
      <trkpt lat="43.94173" lon="6.16943">
        <ele>516.6</ele>
        <time>2022-10-10T12:13:59Z</time>
      </trkpt>
      <trkpt lat="43.94161" lon="6.16935">
        <ele>516.62</ele>
        <time>2022-10-10T12:14:00Z</time>
      </trkpt>
      <trkpt lat="43.94149" lon="6.16924">
        <ele>517.59</ele>
        <time>2022-10-10T12:14:01Z</time>
      </trkpt>
      <trkpt lat="43.94139" lon="6.16911">
        <ele>517.62</ele>
        <time>2022-10-10T12:14:02Z</time>
      </trkpt>
      <trkpt lat="43.94131" lon="6.16895">
        <ele>517.61</ele>
        <time>2022-10-10T12:14:03Z</time>
      </trkpt>
      <trkpt lat="43.94125" lon="6.16878">
        <ele>517.59</ele>
        <time>2022-10-10T12:14:04Z</time>
      </trkpt>
      <trkpt lat="43.94121" lon="6.16861">
        <ele>517.6</ele>
        <time>2022-10-10T12:14:05Z</time>
      </trkpt>
      <trkpt lat="43.94118" lon="6.16845">
        <ele>514.97</ele>
        <time>2022-10-10T12:14:06Z</time>
      </trkpt>
      <trkpt lat="43.94116" lon="6.16831">
        <ele>514.12</ele>
        <time>2022-10-10T12:14:07Z</time>
      </trkpt>
      <trkpt lat="43.94114" lon="6.16817">
        <ele>514.09</ele>
        <time>2022-10-10T12:14:08Z</time>
      </trkpt>
      <trkpt lat="43.94092" lon="6.16749">
        <ele>512.01</ele>
        <time>2022-10-10T12:14:15Z</time>
      </trkpt>
      <trkpt lat="43.94067" lon="6.16677">
        <ele>514.67</ele>
        <time>2022-10-10T12:14:19Z</time>
      </trkpt>
      <trkpt lat="43.9405" lon="6.16604">
        <ele>516.63</ele>
        <time>2022-10-10T12:14:22Z</time>
      </trkpt>
      <trkpt lat="43.9398" lon="6.16437">
        <ele>516.62</ele>
        <time>2022-10-10T12:14:29Z</time>
      </trkpt>
      <trkpt lat="43.93883" lon="6.16323">
        <ele>514.08</ele>
        <time>2022-10-10T12:14:35Z</time>
      </trkpt>
      <trkpt lat="43.93737" lon="6.16152">
        <ele>512.93</ele>
        <time>2022-10-10T12:14:44Z</time>
      </trkpt>
      <trkpt lat="43.93556" lon="6.1584">
        <ele>511.01</ele>
        <time>2022-10-10T12:14:58Z</time>
      </trkpt>
      <trkpt lat="43.93485" lon="6.15701">
        <ele>509.94</ele>
        <time>2022-10-10T12:15:04Z</time>
      </trkpt>
      <trkpt lat="43.93469" lon="6.15681">
        <ele>509.05</ele>
        <time>2022-10-10T12:15:05Z</time>
      </trkpt>
      <trkpt lat="43.93452" lon="6.15664">
        <ele>509.01</ele>
        <time>2022-10-10T12:15:06Z</time>
      </trkpt>
      <trkpt lat="43.93417" lon="6.15631">
        <ele>507.81</ele>
        <time>2022-10-10T12:15:08Z</time>
      </trkpt>
      <trkpt lat="43.93344" lon="6.15564">
        <ele>505.31</ele>
        <time>2022-10-10T12:15:12Z</time>
      </trkpt>
      <trkpt lat="43.93237" lon="6.15427">
        <ele>505.24</ele>
        <time>2022-10-10T12:15:19Z</time>
      </trkpt>
      <trkpt lat="43.93114" lon="6.15269">
        <ele>502.77</ele>
        <time>2022-10-10T12:15:27Z</time>
      </trkpt>
      <trkpt lat="43.93079" lon="6.15196">
        <ele>501.89</ele>
        <time>2022-10-10T12:15:30Z</time>
      </trkpt>
      <trkpt lat="43.93071" lon="6.1517">
        <ele>501.85</ele>
        <time>2022-10-10T12:15:31Z</time>
      </trkpt>
      <trkpt lat="43.9303" lon="6.14985">
        <ele>504.21</ele>
        <time>2022-10-10T12:15:38Z</time>
      </trkpt>
      <trkpt lat="43.92981" lon="6.14769">
        <ele>504.2</ele>
        <time>2022-10-10T12:15:46Z</time>
      </trkpt>
      <trkpt lat="43.92971" lon="6.14744">
        <ele>504.17</ele>
        <time>2022-10-10T12:15:47Z</time>
      </trkpt>
      <trkpt lat="43.9296" lon="6.14721">
        <ele>504.18</ele>
        <time>2022-10-10T12:15:48Z</time>
      </trkpt>
      <trkpt lat="43.92946" lon="6.147">
        <ele>504.2</ele>
        <time>2022-10-10T12:15:49Z</time>
      </trkpt>
      <trkpt lat="43.92932" lon="6.1468">
        <ele>504.17</ele>
        <time>2022-10-10T12:15:50Z</time>
      </trkpt>
      <trkpt lat="43.92893" lon="6.14614">
        <ele>504.09</ele>
        <time>2022-10-10T12:15:53Z</time>
      </trkpt>
      <trkpt lat="43.92883" lon="6.14589">
        <ele>504.05</ele>
        <time>2022-10-10T12:15:54Z</time>
      </trkpt>
      <trkpt lat="43.92875" lon="6.14563">
        <ele>504.04</ele>
        <time>2022-10-10T12:15:55Z</time>
      </trkpt>
      <trkpt lat="43.92869" lon="6.14536">
        <ele>504.03</ele>
        <time>2022-10-10T12:15:56Z</time>
      </trkpt>
      <trkpt lat="43.92865" lon="6.14508">
        <ele>504.02</ele>
        <time>2022-10-10T12:15:57Z</time>
      </trkpt>
      <trkpt lat="43.92863" lon="6.1448">
        <ele>504</ele>
        <time>2022-10-10T12:15:58Z</time>
      </trkpt>
      <trkpt lat="43.92861" lon="6.14452">
        <ele>504.02</ele>
        <time>2022-10-10T12:15:59Z</time>
      </trkpt>
      <trkpt lat="43.92851" lon="6.14341">
        <ele>505.69</ele>
        <time>2022-10-10T12:16:03Z</time>
      </trkpt>
      <trkpt lat="43.92845" lon="6.14314">
        <ele>505.69</ele>
        <time>2022-10-10T12:16:04Z</time>
      </trkpt>
      <trkpt lat="43.92836" lon="6.14288">
        <ele>505.71</ele>
        <time>2022-10-10T12:16:05Z</time>
      </trkpt>
      <trkpt lat="43.92826" lon="6.14263">
        <ele>505.71</ele>
        <time>2022-10-10T12:16:06Z</time>
      </trkpt>
      <trkpt lat="43.92813" lon="6.1424">
        <ele>505.69</ele>
        <time>2022-10-10T12:16:07Z</time>
      </trkpt>
      <trkpt lat="43.92798" lon="6.14219">
        <ele>505.71</ele>
        <time>2022-10-10T12:16:08Z</time>
      </trkpt>
      <trkpt lat="43.92782" lon="6.142">
        <ele>505.7</ele>
        <time>2022-10-10T12:16:09Z</time>
      </trkpt>
      <trkpt lat="43.92764" lon="6.14182">
        <ele>505.7</ele>
        <time>2022-10-10T12:16:10Z</time>
      </trkpt>
      <trkpt lat="43.92745" lon="6.14166">
        <ele>505.69</ele>
        <time>2022-10-10T12:16:11Z</time>
      </trkpt>
      <trkpt lat="43.92689" lon="6.14123">
        <ele>503.17</ele>
        <time>2022-10-10T12:16:14Z</time>
      </trkpt>
      <trkpt lat="43.92668" lon="6.14113">
        <ele>501.4</ele>
        <time>2022-10-10T12:16:15Z</time>
      </trkpt>
      <trkpt lat="43.92648" lon="6.14107">
        <ele>501.34</ele>
        <time>2022-10-10T12:16:16Z</time>
      </trkpt>
      <trkpt lat="43.92627" lon="6.14103">
        <ele>500.27</ele>
        <time>2022-10-10T12:16:17Z</time>
      </trkpt>
      <trkpt lat="43.92607" lon="6.141">
        <ele>500.25</ele>
        <time>2022-10-10T12:16:18Z</time>
      </trkpt>
      <trkpt lat="43.92565" lon="6.14097">
        <ele>498.48</ele>
        <time>2022-10-10T12:16:20Z</time>
      </trkpt>
      <trkpt lat="43.92463" lon="6.14086">
        <ele>495.64</ele>
        <time>2022-10-10T12:16:25Z</time>
      </trkpt>
      <trkpt lat="43.92444" lon="6.14078">
        <ele>495.24</ele>
        <time>2022-10-10T12:16:26Z</time>
      </trkpt>
      <trkpt lat="43.92427" lon="6.14066">
        <ele>495.19</ele>
        <time>2022-10-10T12:16:27Z</time>
      </trkpt>
      <trkpt lat="43.92411" lon="6.1405">
        <ele>495.24</ele>
        <time>2022-10-10T12:16:28Z</time>
      </trkpt>
      <trkpt lat="43.92397" lon="6.14032">
        <ele>495.18</ele>
        <time>2022-10-10T12:16:29Z</time>
      </trkpt>
      <trkpt lat="43.92384" lon="6.14015">
        <ele>495.18</ele>
        <time>2022-10-10T12:16:30Z</time>
      </trkpt>
      <trkpt lat="43.92348" lon="6.13969">
        <ele>493.92</ele>
        <time>2022-10-10T12:16:33Z</time>
      </trkpt>
      <trkpt lat="43.92294" lon="6.13907">
        <ele>490.89</ele>
        <time>2022-10-10T12:16:38Z</time>
      </trkpt>
      <trkpt lat="43.92284" lon="6.13896">
        <ele>490.89</ele>
        <time>2022-10-10T12:16:39Z</time>
      </trkpt>
      <trkpt lat="43.92255" lon="6.13864">
        <ele>488.84</ele>
        <time>2022-10-10T12:16:42Z</time>
      </trkpt>
      <trkpt lat="43.92239" lon="6.13841">
        <ele>487.73</ele>
        <time>2022-10-10T12:16:44Z</time>
      </trkpt>
      <trkpt lat="43.92232" lon="6.13828">
        <ele>487.73</ele>
        <time>2022-10-10T12:16:45Z</time>
      </trkpt>
      <trkpt lat="43.92226" lon="6.13813">
        <ele>487.73</ele>
        <time>2022-10-10T12:16:46Z</time>
      </trkpt>
      <trkpt lat="43.92223" lon="6.13797">
        <ele>487.68</ele>
        <time>2022-10-10T12:16:47Z</time>
      </trkpt>
      <trkpt lat="43.9222" lon="6.13781">
        <ele>487.73</ele>
        <time>2022-10-10T12:16:48Z</time>
      </trkpt>
      <trkpt lat="43.92218" lon="6.13764">
        <ele>487.68</ele>
        <time>2022-10-10T12:16:49Z</time>
      </trkpt>
      <trkpt lat="43.92188" lon="6.13587">
        <ele>487.11</ele>
        <time>2022-10-10T12:17:01Z</time>
      </trkpt>
      <trkpt lat="43.92165" lon="6.13495">
        <ele>486.1</ele>
        <time>2022-10-10T12:17:09Z</time>
      </trkpt>
      <trkpt lat="43.92158" lon="6.13487">
        <ele>486.08</ele>
        <time>2022-10-10T12:17:10Z</time>
      </trkpt>
      <trkpt lat="43.9215" lon="6.13481">
        <ele>486.07</ele>
        <time>2022-10-10T12:17:11Z</time>
      </trkpt>
      <trkpt lat="43.92134" lon="6.1347">
        <ele>486.09</ele>
        <time>2022-10-10T12:17:13Z</time>
      </trkpt>
      <trkpt lat="43.92021" lon="6.13383">
        <ele>486.1</ele>
        <time>2022-10-10T12:17:26Z</time>
      </trkpt>
      <trkpt lat="43.92012" lon="6.13379">
        <ele>486.11</ele>
        <time>2022-10-10T12:17:27Z</time>
      </trkpt>
      <trkpt lat="43.92002" lon="6.13378">
        <ele>486.12</ele>
        <time>2022-10-10T12:17:28Z</time>
      </trkpt>
      <trkpt lat="43.91992" lon="6.13383">
        <ele>486.12</ele>
        <time>2022-10-10T12:17:29Z</time>
      </trkpt>
      <trkpt lat="43.91983" lon="6.13393">
        <ele>488.9</ele>
        <time>2022-10-10T12:17:30Z</time>
      </trkpt>
      <trkpt lat="43.91974" lon="6.13405">
        <ele>490.14</ele>
        <time>2022-10-10T12:17:31Z</time>
      </trkpt>
      <trkpt lat="43.91965" lon="6.13418">
        <ele>491.04</ele>
        <time>2022-10-10T12:17:32Z</time>
      </trkpt>
      <trkpt lat="43.91956" lon="6.13432">
        <ele>491.06</ele>
        <time>2022-10-10T12:17:33Z</time>
      </trkpt>
      <trkpt lat="43.91937" lon="6.13459">
        <ele>492.61</ele>
        <time>2022-10-10T12:17:35Z</time>
      </trkpt>
      <trkpt lat="43.91916" lon="6.13485">
        <ele>494.87</ele>
        <time>2022-10-10T12:17:37Z</time>
      </trkpt>
      <trkpt lat="43.91905" lon="6.13495">
        <ele>496.67</ele>
        <time>2022-10-10T12:17:38Z</time>
      </trkpt>
      <trkpt lat="43.91892" lon="6.13503">
        <ele>496.74</ele>
        <time>2022-10-10T12:17:39Z</time>
      </trkpt>
      <trkpt lat="43.91878" lon="6.1351">
        <ele>498.11</ele>
        <time>2022-10-10T12:17:40Z</time>
      </trkpt>
      <trkpt lat="43.91863" lon="6.13513">
        <ele>498.16</ele>
        <time>2022-10-10T12:17:41Z</time>
      </trkpt>
      <trkpt lat="43.91847" lon="6.13514">
        <ele>499.29</ele>
        <time>2022-10-10T12:17:42Z</time>
      </trkpt>
      <trkpt lat="43.91831" lon="6.13512">
        <ele>499.29</ele>
        <time>2022-10-10T12:17:43Z</time>
      </trkpt>
      <trkpt lat="43.91816" lon="6.13508">
        <ele>501.01</ele>
        <time>2022-10-10T12:17:44Z</time>
      </trkpt>
      <trkpt lat="43.918" lon="6.13502">
        <ele>501.01</ele>
        <time>2022-10-10T12:17:45Z</time>
      </trkpt>
      <trkpt lat="43.91738" lon="6.13476">
        <ele>503.04</ele>
        <time>2022-10-10T12:17:49Z</time>
      </trkpt>
      <trkpt lat="43.91723" lon="6.13464">
        <ele>503.09</ele>
        <time>2022-10-10T12:17:50Z</time>
      </trkpt>
      <trkpt lat="43.9171" lon="6.13451">
        <ele>504.16</ele>
        <time>2022-10-10T12:17:51Z</time>
      </trkpt>
      <trkpt lat="43.91684" lon="6.13427">
        <ele>505.1</ele>
        <time>2022-10-10T12:17:53Z</time>
      </trkpt>
      <trkpt lat="43.9167" lon="6.13423">
        <ele>505.15</ele>
        <time>2022-10-10T12:17:54Z</time>
      </trkpt>
      <trkpt lat="43.91655" lon="6.13424">
        <ele>506.3</ele>
        <time>2022-10-10T12:17:55Z</time>
      </trkpt>
      <trkpt lat="43.91641" lon="6.13432">
        <ele>507.65</ele>
        <time>2022-10-10T12:17:56Z</time>
      </trkpt>
      <trkpt lat="43.91627" lon="6.13442">
        <ele>508.59</ele>
        <time>2022-10-10T12:17:57Z</time>
      </trkpt>
      <trkpt lat="43.91612" lon="6.1345">
        <ele>509.79</ele>
        <time>2022-10-10T12:17:58Z</time>
      </trkpt>
      <trkpt lat="43.91596" lon="6.13456">
        <ele>510.67</ele>
        <time>2022-10-10T12:17:59Z</time>
      </trkpt>
      <trkpt lat="43.91564" lon="6.13463">
        <ele>512.27</ele>
        <time>2022-10-10T12:18:01Z</time>
      </trkpt>
      <trkpt lat="43.91532" lon="6.13473">
        <ele>514.4</ele>
        <time>2022-10-10T12:18:03Z</time>
      </trkpt>
      <trkpt lat="43.91517" lon="6.13482">
        <ele>514.42</ele>
        <time>2022-10-10T12:18:04Z</time>
      </trkpt>
      <trkpt lat="43.91502" lon="6.13493">
        <ele>516.05</ele>
        <time>2022-10-10T12:18:05Z</time>
      </trkpt>
      <trkpt lat="43.91489" lon="6.13507">
        <ele>516.12</ele>
        <time>2022-10-10T12:18:06Z</time>
      </trkpt>
      <trkpt lat="43.91477" lon="6.13524">
        <ele>517.12</ele>
        <time>2022-10-10T12:18:07Z</time>
      </trkpt>
      <trkpt lat="43.91467" lon="6.13543">
        <ele>517.12</ele>
        <time>2022-10-10T12:18:08Z</time>
      </trkpt>
      <trkpt lat="43.91459" lon="6.13563">
        <ele>518.45</ele>
        <time>2022-10-10T12:18:09Z</time>
      </trkpt>
      <trkpt lat="43.91451" lon="6.13585">
        <ele>519.31</ele>
        <time>2022-10-10T12:18:10Z</time>
      </trkpt>
      <trkpt lat="43.91445" lon="6.13608">
        <ele>520.22</ele>
        <time>2022-10-10T12:18:11Z</time>
      </trkpt>
      <trkpt lat="43.91441" lon="6.13631">
        <ele>521.43</ele>
        <time>2022-10-10T12:18:12Z</time>
      </trkpt>
      <trkpt lat="43.91438" lon="6.13654">
        <ele>522.43</ele>
        <time>2022-10-10T12:18:13Z</time>
      </trkpt>
      <trkpt lat="43.91435" lon="6.13678">
        <ele>523.2</ele>
        <time>2022-10-10T12:18:14Z</time>
      </trkpt>
      <trkpt lat="43.91425" lon="6.13746">
        <ele>525.28</ele>
        <time>2022-10-10T12:18:17Z</time>
      </trkpt>
      <trkpt lat="43.91417" lon="6.13764">
        <ele>526.3</ele>
        <time>2022-10-10T12:18:18Z</time>
      </trkpt>
      <trkpt lat="43.91407" lon="6.13779">
        <ele>527.97</ele>
        <time>2022-10-10T12:18:19Z</time>
      </trkpt>
      <trkpt lat="43.91395" lon="6.1379">
        <ele>528.85</ele>
        <time>2022-10-10T12:18:20Z</time>
      </trkpt>
      <trkpt lat="43.9138" lon="6.13799">
        <ele>530.03</ele>
        <time>2022-10-10T12:18:21Z</time>
      </trkpt>
      <trkpt lat="43.91365" lon="6.13806">
        <ele>531.61</ele>
        <time>2022-10-10T12:18:22Z</time>
      </trkpt>
      <trkpt lat="43.91316" lon="6.13827">
        <ele>535.43</ele>
        <time>2022-10-10T12:18:25Z</time>
      </trkpt>
      <trkpt lat="43.91284" lon="6.13842">
        <ele>536.53</ele>
        <time>2022-10-10T12:18:27Z</time>
      </trkpt>
      <trkpt lat="43.91256" lon="6.13853">
        <ele>537.79</ele>
        <time>2022-10-10T12:18:29Z</time>
      </trkpt>
      <trkpt lat="43.91243" lon="6.13852">
        <ele>539.08</ele>
        <time>2022-10-10T12:18:30Z</time>
      </trkpt>
      <trkpt lat="43.91231" lon="6.13845">
        <ele>539.06</ele>
        <time>2022-10-10T12:18:31Z</time>
      </trkpt>
      <trkpt lat="43.91222" lon="6.13833">
        <ele>540.49</ele>
        <time>2022-10-10T12:18:32Z</time>
      </trkpt>
      <trkpt lat="43.91211" lon="6.13822">
        <ele>542.26</ele>
        <time>2022-10-10T12:18:33Z</time>
      </trkpt>
      <trkpt lat="43.91199" lon="6.13817">
        <ele>543.03</ele>
        <time>2022-10-10T12:18:34Z</time>
      </trkpt>
      <trkpt lat="43.91187" lon="6.13819">
        <ele>544.21</ele>
        <time>2022-10-10T12:18:35Z</time>
      </trkpt>
      <trkpt lat="43.91176" lon="6.13829">
        <ele>546</ele>
        <time>2022-10-10T12:18:36Z</time>
      </trkpt>
      <trkpt lat="43.91165" lon="6.1384">
        <ele>546.74</ele>
        <time>2022-10-10T12:18:37Z</time>
      </trkpt>
      <trkpt lat="43.91136" lon="6.13869">
        <ele>548.86</ele>
        <time>2022-10-10T12:18:40Z</time>
      </trkpt>
      <trkpt lat="43.91112" lon="6.13887">
        <ele>551.12</ele>
        <time>2022-10-10T12:18:43Z</time>
      </trkpt>
      <trkpt lat="43.91107" lon="6.13893">
        <ele>551.12</ele>
        <time>2022-10-10T12:18:44Z</time>
      </trkpt>
      <trkpt lat="43.91104" lon="6.13899">
        <ele>551.19</ele>
        <time>2022-10-10T12:18:45Z</time>
      </trkpt>
      <trkpt lat="43.91103" lon="6.13906">
        <ele>551.18</ele>
        <time>2022-10-10T12:18:46Z</time>
      </trkpt>
      <trkpt lat="43.91106" lon="6.13912">
        <ele>552.76</ele>
        <time>2022-10-10T12:18:47Z</time>
      </trkpt>
      <trkpt lat="43.91111" lon="6.13916">
        <ele>552.84</ele>
        <time>2022-10-10T12:18:48Z</time>
      </trkpt>
      <trkpt lat="43.91117" lon="6.13918">
        <ele>552.9</ele>
        <time>2022-10-10T12:18:49Z</time>
      </trkpt>
      <trkpt lat="43.91123" lon="6.13916">
        <ele>552.89</ele>
        <time>2022-10-10T12:18:50Z</time>
      </trkpt>
      <trkpt lat="43.9113" lon="6.13914">
        <ele>553.99</ele>
        <time>2022-10-10T12:18:51Z</time>
      </trkpt>
      <trkpt lat="43.91144" lon="6.13911">
        <ele>554.85</ele>
        <time>2022-10-10T12:18:53Z</time>
      </trkpt>
      <trkpt lat="43.9115" lon="6.13912">
        <ele>554.86</ele>
        <time>2022-10-10T12:18:54Z</time>
      </trkpt>
      <trkpt lat="43.91154" lon="6.13915">
        <ele>554.83</ele>
        <time>2022-10-10T12:18:55Z</time>
      </trkpt>
      <trkpt lat="43.91156" lon="6.13921">
        <ele>554.83</ele>
        <time>2022-10-10T12:18:56Z</time>
      </trkpt>
      <trkpt lat="43.91154" lon="6.13928">
        <ele>554.78</ele>
        <time>2022-10-10T12:18:57Z</time>
      </trkpt>
      <trkpt lat="43.91149" lon="6.13934">
        <ele>555.96</ele>
        <time>2022-10-10T12:18:58Z</time>
      </trkpt>
      <trkpt lat="43.91141" lon="6.13938">
        <ele>557.03</ele>
        <time>2022-10-10T12:18:59Z</time>
      </trkpt>
      <trkpt lat="43.9113" lon="6.1394">
        <ele>557.84</ele>
        <time>2022-10-10T12:19:00Z</time>
      </trkpt>
      <trkpt lat="43.91117" lon="6.13943">
        <ele>559.22</ele>
        <time>2022-10-10T12:19:01Z</time>
      </trkpt>
      <trkpt lat="43.91103" lon="6.13948">
        <ele>560.9</ele>
        <time>2022-10-10T12:19:02Z</time>
      </trkpt>
      <trkpt lat="43.91089" lon="6.13955">
        <ele>562.46</ele>
        <time>2022-10-10T12:19:03Z</time>
      </trkpt>
      <trkpt lat="43.91075" lon="6.13963">
        <ele>563.48</ele>
        <time>2022-10-10T12:19:04Z</time>
      </trkpt>
      <trkpt lat="43.91035" lon="6.13985">
        <ele>565.71</ele>
        <time>2022-10-10T12:19:07Z</time>
      </trkpt>
      <trkpt lat="43.91024" lon="6.13988">
        <ele>566.58</ele>
        <time>2022-10-10T12:19:08Z</time>
      </trkpt>
      <trkpt lat="43.91013" lon="6.13986">
        <ele>566.56</ele>
        <time>2022-10-10T12:19:09Z</time>
      </trkpt>
      <trkpt lat="43.91004" lon="6.13977">
        <ele>567.72</ele>
        <time>2022-10-10T12:19:10Z</time>
      </trkpt>
      <trkpt lat="43.90999" lon="6.13964">
        <ele>568.42</ele>
        <time>2022-10-10T12:19:11Z</time>
      </trkpt>
      <trkpt lat="43.90998" lon="6.13947">
        <ele>568.49</ele>
        <time>2022-10-10T12:19:12Z</time>
      </trkpt>
      <trkpt lat="43.90999" lon="6.13929">
        <ele>570.8</ele>
        <time>2022-10-10T12:19:13Z</time>
      </trkpt>
      <trkpt lat="43.91003" lon="6.13909">
        <ele>572.18</ele>
        <time>2022-10-10T12:19:14Z</time>
      </trkpt>
      <trkpt lat="43.91009" lon="6.13867">
        <ele>573.31</ele>
        <time>2022-10-10T12:19:16Z</time>
      </trkpt>
      <trkpt lat="43.91015" lon="6.13825">
        <ele>575.26</ele>
        <time>2022-10-10T12:19:18Z</time>
      </trkpt>
      <trkpt lat="43.91017" lon="6.13804">
        <ele>576.27</ele>
        <time>2022-10-10T12:19:19Z</time>
      </trkpt>
      <trkpt lat="43.91016" lon="6.13783">
        <ele>577.42</ele>
        <time>2022-10-10T12:19:20Z</time>
      </trkpt>
      <trkpt lat="43.91012" lon="6.13762">
        <ele>578.65</ele>
        <time>2022-10-10T12:19:21Z</time>
      </trkpt>
      <trkpt lat="43.91006" lon="6.13742">
        <ele>579.52</ele>
        <time>2022-10-10T12:19:22Z</time>
      </trkpt>
      <trkpt lat="43.90998" lon="6.13724">
        <ele>580.48</ele>
        <time>2022-10-10T12:19:23Z</time>
      </trkpt>
      <trkpt lat="43.90987" lon="6.13709">
        <ele>580.36</ele>
        <time>2022-10-10T12:19:24Z</time>
      </trkpt>
      <trkpt lat="43.90975" lon="6.137">
        <ele>581.75</ele>
        <time>2022-10-10T12:19:25Z</time>
      </trkpt>
      <trkpt lat="43.90962" lon="6.13697">
        <ele>582.05</ele>
        <time>2022-10-10T12:19:26Z</time>
      </trkpt>
      <trkpt lat="43.9095" lon="6.13703">
        <ele>582.88</ele>
        <time>2022-10-10T12:19:27Z</time>
      </trkpt>
      <trkpt lat="43.9094" lon="6.13715">
        <ele>584.19</ele>
        <time>2022-10-10T12:19:28Z</time>
      </trkpt>
      <trkpt lat="43.9093" lon="6.13731">
        <ele>585.83</ele>
        <time>2022-10-10T12:19:29Z</time>
      </trkpt>
      <trkpt lat="43.90921" lon="6.1375">
        <ele>587.1</ele>
        <time>2022-10-10T12:19:30Z</time>
      </trkpt>
      <trkpt lat="43.90902" lon="6.1379">
        <ele>590.48</ele>
        <time>2022-10-10T12:19:32Z</time>
      </trkpt>
      <trkpt lat="43.9087" lon="6.1385">
        <ele>593.27</ele>
        <time>2022-10-10T12:19:35Z</time>
      </trkpt>
      <trkpt lat="43.90858" lon="6.13869">
        <ele>595.26</ele>
        <time>2022-10-10T12:19:36Z</time>
      </trkpt>
      <trkpt lat="43.90844" lon="6.13884">
        <ele>596.41</ele>
        <time>2022-10-10T12:19:37Z</time>
      </trkpt>
      <trkpt lat="43.9083" lon="6.13897">
        <ele>596.25</ele>
        <time>2022-10-10T12:19:38Z</time>
      </trkpt>
      <trkpt lat="43.90787" lon="6.1394">
        <ele>599.34</ele>
        <time>2022-10-10T12:19:41Z</time>
      </trkpt>
      <trkpt lat="43.9076" lon="6.13972">
        <ele>603.22</ele>
        <time>2022-10-10T12:19:43Z</time>
      </trkpt>
      <trkpt lat="43.90745" lon="6.13985">
        <ele>604.12</ele>
        <time>2022-10-10T12:19:44Z</time>
      </trkpt>
      <trkpt lat="43.9073" lon="6.13995">
        <ele>604.11</ele>
        <time>2022-10-10T12:19:45Z</time>
      </trkpt>
      <trkpt lat="43.90713" lon="6.14001">
        <ele>606.35</ele>
        <time>2022-10-10T12:19:46Z</time>
      </trkpt>
      <trkpt lat="43.9068" lon="6.1401">
        <ele>608.93</ele>
        <time>2022-10-10T12:19:48Z</time>
      </trkpt>
      <trkpt lat="43.90664" lon="6.14019">
        <ele>609.95</ele>
        <time>2022-10-10T12:19:49Z</time>
      </trkpt>
      <trkpt lat="43.90649" lon="6.14032">
        <ele>611.24</ele>
        <time>2022-10-10T12:19:50Z</time>
      </trkpt>
      <trkpt lat="43.90635" lon="6.14048">
        <ele>612.98</ele>
        <time>2022-10-10T12:19:51Z</time>
      </trkpt>
      <trkpt lat="43.90623" lon="6.14066">
        <ele>614.11</ele>
        <time>2022-10-10T12:19:52Z</time>
      </trkpt>
      <trkpt lat="43.90611" lon="6.14086">
        <ele>614.1</ele>
        <time>2022-10-10T12:19:53Z</time>
      </trkpt>
      <trkpt lat="43.906" lon="6.14106">
        <ele>616.33</ele>
        <time>2022-10-10T12:19:54Z</time>
      </trkpt>
      <trkpt lat="43.90568" lon="6.14161">
        <ele>618.57</ele>
        <time>2022-10-10T12:19:57Z</time>
      </trkpt>
      <trkpt lat="43.90557" lon="6.14175">
        <ele>619.48</ele>
        <time>2022-10-10T12:19:58Z</time>
      </trkpt>
      <trkpt lat="43.90545" lon="6.14183">
        <ele>619.47</ele>
        <time>2022-10-10T12:19:59Z</time>
      </trkpt>
      <trkpt lat="43.90534" lon="6.14186">
        <ele>620.63</ele>
        <time>2022-10-10T12:20:00Z</time>
      </trkpt>
      <trkpt lat="43.90524" lon="6.14182">
        <ele>621.36</ele>
        <time>2022-10-10T12:20:01Z</time>
      </trkpt>
      <trkpt lat="43.90517" lon="6.14172">
        <ele>621.46</ele>
        <time>2022-10-10T12:20:02Z</time>
      </trkpt>
      <trkpt lat="43.90513" lon="6.14159">
        <ele>622.57</ele>
        <time>2022-10-10T12:20:03Z</time>
      </trkpt>
      <trkpt lat="43.90515" lon="6.14145">
        <ele>622.55</ele>
        <time>2022-10-10T12:20:04Z</time>
      </trkpt>
      <trkpt lat="43.90519" lon="6.14129">
        <ele>624.81</ele>
        <time>2022-10-10T12:20:05Z</time>
      </trkpt>
      <trkpt lat="43.90524" lon="6.14111">
        <ele>626.13</ele>
        <time>2022-10-10T12:20:06Z</time>
      </trkpt>
      <trkpt lat="43.90526" lon="6.1409">
        <ele>626.06</ele>
        <time>2022-10-10T12:20:07Z</time>
      </trkpt>
      <trkpt lat="43.90526" lon="6.14068">
        <ele>627.64</ele>
        <time>2022-10-10T12:20:08Z</time>
      </trkpt>
      <trkpt lat="43.90524" lon="6.14047">
        <ele>628.7</ele>
        <time>2022-10-10T12:20:09Z</time>
      </trkpt>
      <trkpt lat="43.90517" lon="6.14027">
        <ele>629.55</ele>
        <time>2022-10-10T12:20:10Z</time>
      </trkpt>
      <trkpt lat="43.90507" lon="6.14011">
        <ele>630.88</ele>
        <time>2022-10-10T12:20:11Z</time>
      </trkpt>
      <trkpt lat="43.90494" lon="6.13998">
        <ele>632.37</ele>
        <time>2022-10-10T12:20:12Z</time>
      </trkpt>
      <trkpt lat="43.90479" lon="6.13991">
        <ele>632.37</ele>
        <time>2022-10-10T12:20:13Z</time>
      </trkpt>
      <trkpt lat="43.90464" lon="6.13991">
        <ele>633.53</ele>
        <time>2022-10-10T12:20:14Z</time>
      </trkpt>
      <trkpt lat="43.90449" lon="6.13996">
        <ele>634.9</ele>
        <time>2022-10-10T12:20:15Z</time>
      </trkpt>
      <trkpt lat="43.90436" lon="6.14004">
        <ele>634.9</ele>
        <time>2022-10-10T12:20:16Z</time>
      </trkpt>
      <trkpt lat="43.90424" lon="6.14009">
        <ele>634.98</ele>
        <time>2022-10-10T12:20:17Z</time>
      </trkpt>
      <trkpt lat="43.90413" lon="6.14009">
        <ele>634.98</ele>
        <time>2022-10-10T12:20:18Z</time>
      </trkpt>
      <trkpt lat="43.90405" lon="6.14002">
        <ele>634.98</ele>
        <time>2022-10-10T12:20:19Z</time>
      </trkpt>
      <trkpt lat="43.90401" lon="6.13991">
        <ele>636.32</ele>
        <time>2022-10-10T12:20:20Z</time>
      </trkpt>
      <trkpt lat="43.90401" lon="6.13976">
        <ele>637.74</ele>
        <time>2022-10-10T12:20:21Z</time>
      </trkpt>
      <trkpt lat="43.90405" lon="6.13961">
        <ele>638.93</ele>
        <time>2022-10-10T12:20:22Z</time>
      </trkpt>
      <trkpt lat="43.9041" lon="6.13945">
        <ele>639.41</ele>
        <time>2022-10-10T12:20:23Z</time>
      </trkpt>
      <trkpt lat="43.90417" lon="6.13931">
        <ele>639.41</ele>
        <time>2022-10-10T12:20:24Z</time>
      </trkpt>
      <trkpt lat="43.90424" lon="6.13919">
        <ele>639.41</ele>
        <time>2022-10-10T12:20:25Z</time>
      </trkpt>
      <trkpt lat="43.90429" lon="6.13906">
        <ele>639.48</ele>
        <time>2022-10-10T12:20:26Z</time>
      </trkpt>
      <trkpt lat="43.90431" lon="6.13892">
        <ele>640.82</ele>
        <time>2022-10-10T12:20:27Z</time>
      </trkpt>
      <trkpt lat="43.90428" lon="6.1388">
        <ele>640.82</ele>
        <time>2022-10-10T12:20:28Z</time>
      </trkpt>
      <trkpt lat="43.9042" lon="6.13872">
        <ele>642.38</ele>
        <time>2022-10-10T12:20:29Z</time>
      </trkpt>
      <trkpt lat="43.90409" lon="6.13868">
        <ele>643.91</ele>
        <time>2022-10-10T12:20:30Z</time>
      </trkpt>
      <trkpt lat="43.90395" lon="6.1387">
        <ele>644.96</ele>
        <time>2022-10-10T12:20:31Z</time>
      </trkpt>
      <trkpt lat="43.90382" lon="6.13875">
        <ele>646.83</ele>
        <time>2022-10-10T12:20:32Z</time>
      </trkpt>
      <trkpt lat="43.90368" lon="6.13884">
        <ele>648.42</ele>
        <time>2022-10-10T12:20:33Z</time>
      </trkpt>
      <trkpt lat="43.90354" lon="6.13895">
        <ele>649.94</ele>
        <time>2022-10-10T12:20:34Z</time>
      </trkpt>
      <trkpt lat="43.90308" lon="6.13926">
        <ele>653.64</ele>
        <time>2022-10-10T12:20:37Z</time>
      </trkpt>
      <trkpt lat="43.90263" lon="6.13961">
        <ele>657.51</ele>
        <time>2022-10-10T12:20:40Z</time>
      </trkpt>
      <trkpt lat="43.90232" lon="6.13983">
        <ele>658.47</ele>
        <time>2022-10-10T12:20:42Z</time>
      </trkpt>
      <trkpt lat="43.90204" lon="6.13997">
        <ele>659.98</ele>
        <time>2022-10-10T12:20:44Z</time>
      </trkpt>
      <trkpt lat="43.90192" lon="6.14001">
        <ele>659.98</ele>
        <time>2022-10-10T12:20:45Z</time>
      </trkpt>
      <trkpt lat="43.90181" lon="6.14001">
        <ele>661.73</ele>
        <time>2022-10-10T12:20:46Z</time>
      </trkpt>
      <trkpt lat="43.90171" lon="6.13994">
        <ele>661.75</ele>
        <time>2022-10-10T12:20:47Z</time>
      </trkpt>
      <trkpt lat="43.90164" lon="6.13983">
        <ele>663.33</ele>
        <time>2022-10-10T12:20:48Z</time>
      </trkpt>
      <trkpt lat="43.90158" lon="6.13968">
        <ele>664.2</ele>
        <time>2022-10-10T12:20:49Z</time>
      </trkpt>
      <trkpt lat="43.90153" lon="6.1395">
        <ele>664.3</ele>
        <time>2022-10-10T12:20:50Z</time>
      </trkpt>
      <trkpt lat="43.9015" lon="6.13933">
        <ele>665.47</ele>
        <time>2022-10-10T12:20:51Z</time>
      </trkpt>
      <trkpt lat="43.90148" lon="6.13914">
        <ele>665.56</ele>
        <time>2022-10-10T12:20:52Z</time>
      </trkpt>
      <trkpt lat="43.90145" lon="6.13897">
        <ele>665.54</ele>
        <time>2022-10-10T12:20:53Z</time>
      </trkpt>
      <trkpt lat="43.90139" lon="6.13883">
        <ele>665.53</ele>
        <time>2022-10-10T12:20:54Z</time>
      </trkpt>
      <trkpt lat="43.90129" lon="6.13874">
        <ele>667.4</ele>
        <time>2022-10-10T12:20:55Z</time>
      </trkpt>
      <trkpt lat="43.90117" lon="6.13873">
        <ele>667.37</ele>
        <time>2022-10-10T12:20:56Z</time>
      </trkpt>
      <trkpt lat="43.90105" lon="6.13878">
        <ele>668.21</ele>
        <time>2022-10-10T12:20:57Z</time>
      </trkpt>
      <trkpt lat="43.90092" lon="6.13887">
        <ele>668.99</ele>
        <time>2022-10-10T12:20:58Z</time>
      </trkpt>
      <trkpt lat="43.9008" lon="6.13894">
        <ele>669.03</ele>
        <time>2022-10-10T12:20:59Z</time>
      </trkpt>
      <trkpt lat="43.90067" lon="6.13898">
        <ele>670.39</ele>
        <time>2022-10-10T12:21:00Z</time>
      </trkpt>
      <trkpt lat="43.90054" lon="6.13895">
        <ele>670.38</ele>
        <time>2022-10-10T12:21:01Z</time>
      </trkpt>
      <trkpt lat="43.90041" lon="6.13887">
        <ele>672.25</ele>
        <time>2022-10-10T12:21:02Z</time>
      </trkpt>
      <trkpt lat="43.9003" lon="6.13875">
        <ele>673.38</ele>
        <time>2022-10-10T12:21:03Z</time>
      </trkpt>
      <trkpt lat="43.90019" lon="6.1386">
        <ele>675.48</ele>
        <time>2022-10-10T12:21:04Z</time>
      </trkpt>
      <trkpt lat="43.90008" lon="6.13845">
        <ele>675.48</ele>
        <time>2022-10-10T12:21:05Z</time>
      </trkpt>
      <trkpt lat="43.89996" lon="6.13831">
        <ele>676.97</ele>
        <time>2022-10-10T12:21:06Z</time>
      </trkpt>
      <trkpt lat="43.89982" lon="6.13822">
        <ele>678.59</ele>
        <time>2022-10-10T12:21:07Z</time>
      </trkpt>
      <trkpt lat="43.89967" lon="6.13818">
        <ele>678.55</ele>
        <time>2022-10-10T12:21:08Z</time>
      </trkpt>
      <trkpt lat="43.89953" lon="6.13814">
        <ele>679.8</ele>
        <time>2022-10-10T12:21:09Z</time>
      </trkpt>
      <trkpt lat="43.89941" lon="6.13804">
        <ele>679.69</ele>
        <time>2022-10-10T12:21:10Z</time>
      </trkpt>
      <trkpt lat="43.89931" lon="6.1379">
        <ele>682.11</ele>
        <time>2022-10-10T12:21:11Z</time>
      </trkpt>
      <trkpt lat="43.89924" lon="6.13772">
        <ele>683.22</ele>
        <time>2022-10-10T12:21:12Z</time>
      </trkpt>
      <trkpt lat="43.89915" lon="6.13753">
        <ele>684.9</ele>
        <time>2022-10-10T12:21:13Z</time>
      </trkpt>
      <trkpt lat="43.89905" lon="6.13736">
        <ele>684.9</ele>
        <time>2022-10-10T12:21:14Z</time>
      </trkpt>
      <trkpt lat="43.89893" lon="6.13721">
        <ele>686.65</ele>
        <time>2022-10-10T12:21:15Z</time>
      </trkpt>
      <trkpt lat="43.89882" lon="6.13704">
        <ele>687.4</ele>
        <time>2022-10-10T12:21:16Z</time>
      </trkpt>
      <trkpt lat="43.89874" lon="6.13684">
        <ele>688.41</ele>
        <time>2022-10-10T12:21:17Z</time>
      </trkpt>
      <trkpt lat="43.89869" lon="6.13663">
        <ele>689.28</ele>
        <time>2022-10-10T12:21:18Z</time>
      </trkpt>
      <trkpt lat="43.89865" lon="6.13643">
        <ele>689.37</ele>
        <time>2022-10-10T12:21:19Z</time>
      </trkpt>
      <trkpt lat="43.89859" lon="6.13625">
        <ele>690.7</ele>
        <time>2022-10-10T12:21:20Z</time>
      </trkpt>
      <trkpt lat="43.8985" lon="6.1361">
        <ele>690.76</ele>
        <time>2022-10-10T12:21:21Z</time>
      </trkpt>
      <trkpt lat="43.89837" lon="6.136">
        <ele>692.51</ele>
        <time>2022-10-10T12:21:22Z</time>
      </trkpt>
      <trkpt lat="43.89822" lon="6.13592">
        <ele>693.57</ele>
        <time>2022-10-10T12:21:23Z</time>
      </trkpt>
      <trkpt lat="43.89808" lon="6.1358">
        <ele>694.8</ele>
        <time>2022-10-10T12:21:24Z</time>
      </trkpt>
      <trkpt lat="43.89796" lon="6.13563">
        <ele>696.38</ele>
        <time>2022-10-10T12:21:25Z</time>
      </trkpt>
      <trkpt lat="43.89785" lon="6.13543">
        <ele>698.1</ele>
        <time>2022-10-10T12:21:26Z</time>
      </trkpt>
      <trkpt lat="43.89773" lon="6.13522">
        <ele>699.38</ele>
        <time>2022-10-10T12:21:27Z</time>
      </trkpt>
      <trkpt lat="43.8976" lon="6.13503">
        <ele>700.61</ele>
        <time>2022-10-10T12:21:28Z</time>
      </trkpt>
      <trkpt lat="43.89745" lon="6.13485">
        <ele>702.03</ele>
        <time>2022-10-10T12:21:29Z</time>
      </trkpt>
      <trkpt lat="43.8973" lon="6.13468">
        <ele>703.45</ele>
        <time>2022-10-10T12:21:30Z</time>
      </trkpt>
      <trkpt lat="43.89716" lon="6.13449">
        <ele>703.53</ele>
        <time>2022-10-10T12:21:31Z</time>
      </trkpt>
      <trkpt lat="43.89705" lon="6.13429">
        <ele>704.78</ele>
        <time>2022-10-10T12:21:32Z</time>
      </trkpt>
      <trkpt lat="43.89698" lon="6.13408">
        <ele>704.88</ele>
        <time>2022-10-10T12:21:33Z</time>
      </trkpt>
      <trkpt lat="43.89691" lon="6.13386">
        <ele>705.87</ele>
        <time>2022-10-10T12:21:34Z</time>
      </trkpt>
      <trkpt lat="43.89682" lon="6.13366">
        <ele>706.18</ele>
        <time>2022-10-10T12:21:35Z</time>
      </trkpt>
      <trkpt lat="43.89671" lon="6.13349">
        <ele>707.24</ele>
        <time>2022-10-10T12:21:36Z</time>
      </trkpt>
      <trkpt lat="43.89656" lon="6.13338">
        <ele>707.75</ele>
        <time>2022-10-10T12:21:37Z</time>
      </trkpt>
      <trkpt lat="43.8964" lon="6.13331">
        <ele>708.77</ele>
        <time>2022-10-10T12:21:38Z</time>
      </trkpt>
      <trkpt lat="43.89623" lon="6.13325">
        <ele>708.77</ele>
        <time>2022-10-10T12:21:39Z</time>
      </trkpt>
      <trkpt lat="43.89595" lon="6.13314">
        <ele>709.96</ele>
        <time>2022-10-10T12:21:41Z</time>
      </trkpt>
      <trkpt lat="43.89585" lon="6.13305">
        <ele>709.96</ele>
        <time>2022-10-10T12:21:42Z</time>
      </trkpt>
      <trkpt lat="43.8958" lon="6.13294">
        <ele>710.85</ele>
        <time>2022-10-10T12:21:43Z</time>
      </trkpt>
      <trkpt lat="43.8958" lon="6.13281">
        <ele>710.84</ele>
        <time>2022-10-10T12:21:44Z</time>
      </trkpt>
      <trkpt lat="43.89584" lon="6.13269">
        <ele>712.37</ele>
        <time>2022-10-10T12:21:45Z</time>
      </trkpt>
      <trkpt lat="43.89591" lon="6.13256">
        <ele>713.45</ele>
        <time>2022-10-10T12:21:46Z</time>
      </trkpt>
      <trkpt lat="43.89596" lon="6.13241">
        <ele>714.41</ele>
        <time>2022-10-10T12:21:47Z</time>
      </trkpt>
      <trkpt lat="43.89599" lon="6.13223">
        <ele>714.47</ele>
        <time>2022-10-10T12:21:48Z</time>
      </trkpt>
      <trkpt lat="43.89598" lon="6.13204">
        <ele>715.78</ele>
        <time>2022-10-10T12:21:49Z</time>
      </trkpt>
      <trkpt lat="43.89594" lon="6.13184">
        <ele>715.77</ele>
        <time>2022-10-10T12:21:50Z</time>
      </trkpt>
      <trkpt lat="43.89588" lon="6.13164">
        <ele>717.12</ele>
        <time>2022-10-10T12:21:51Z</time>
      </trkpt>
      <trkpt lat="43.89583" lon="6.13142">
        <ele>718.14</ele>
        <time>2022-10-10T12:21:52Z</time>
      </trkpt>
      <trkpt lat="43.8958" lon="6.13118">
        <ele>719.37</ele>
        <time>2022-10-10T12:21:53Z</time>
      </trkpt>
      <trkpt lat="43.89581" lon="6.13095">
        <ele>720.69</ele>
        <time>2022-10-10T12:21:54Z</time>
      </trkpt>
      <trkpt lat="43.89585" lon="6.13072">
        <ele>721.72</ele>
        <time>2022-10-10T12:21:55Z</time>
      </trkpt>
      <trkpt lat="43.89592" lon="6.13051">
        <ele>722.65</ele>
        <time>2022-10-10T12:21:56Z</time>
      </trkpt>
      <trkpt lat="43.89601" lon="6.13033">
        <ele>723.9</ele>
        <time>2022-10-10T12:21:57Z</time>
      </trkpt>
      <trkpt lat="43.89612" lon="6.13018">
        <ele>723.85</ele>
        <time>2022-10-10T12:21:58Z</time>
      </trkpt>
      <trkpt lat="43.89622" lon="6.13004">
        <ele>723.92</ele>
        <time>2022-10-10T12:21:59Z</time>
      </trkpt>
      <trkpt lat="43.8963" lon="6.12987">
        <ele>723.92</ele>
        <time>2022-10-10T12:22:00Z</time>
      </trkpt>
      <trkpt lat="43.89635" lon="6.12968">
        <ele>725.11</ele>
        <time>2022-10-10T12:22:01Z</time>
      </trkpt>
      <trkpt lat="43.89638" lon="6.12948">
        <ele>725.96</ele>
        <time>2022-10-10T12:22:02Z</time>
      </trkpt>
      <trkpt lat="43.89638" lon="6.12928">
        <ele>726.13</ele>
        <time>2022-10-10T12:22:03Z</time>
      </trkpt>
      <trkpt lat="43.89636" lon="6.12909">
        <ele>727.42</ele>
        <time>2022-10-10T12:22:04Z</time>
      </trkpt>
      <trkpt lat="43.89623" lon="6.12822">
        <ele>729.51</ele>
        <time>2022-10-10T12:22:09Z</time>
      </trkpt>
      <trkpt lat="43.89586" lon="6.12597">
        <ele>729.37</ele>
        <time>2022-10-10T12:22:20Z</time>
      </trkpt>
      <trkpt lat="43.89565" lon="6.12449">
        <ele>726.87</ele>
        <time>2022-10-10T12:22:27Z</time>
      </trkpt>
      <trkpt lat="43.89548" lon="6.12336">
        <ele>724.94</ele>
        <time>2022-10-10T12:22:32Z</time>
      </trkpt>
      <trkpt lat="43.89538" lon="6.12264">
        <ele>723.71</ele>
        <time>2022-10-10T12:22:35Z</time>
      </trkpt>
      <trkpt lat="43.89528" lon="6.12192">
        <ele>721.94</ele>
        <time>2022-10-10T12:22:38Z</time>
      </trkpt>
      <trkpt lat="43.89497" lon="6.11957">
        <ele>719.93</ele>
        <time>2022-10-10T12:22:48Z</time>
      </trkpt>
      <trkpt lat="43.89499" lon="6.11934">
        <ele>719.04</ele>
        <time>2022-10-10T12:22:49Z</time>
      </trkpt>
      <trkpt lat="43.89553" lon="6.11544">
        <ele>718.47</ele>
        <time>2022-10-10T12:23:06Z</time>
      </trkpt>
      <trkpt lat="43.89613" lon="6.11102">
        <ele>715.38</ele>
        <time>2022-10-10T12:23:25Z</time>
      </trkpt>
      <trkpt lat="43.89653" lon="6.10747">
        <ele>714.26</ele>
        <time>2022-10-10T12:23:40Z</time>
      </trkpt>
      <trkpt lat="43.89639" lon="6.10435">
        <ele>711.95</ele>
        <time>2022-10-10T12:23:53Z</time>
      </trkpt>
      <trkpt lat="43.89625" lon="6.10063">
        <ele>709.56</ele>
        <time>2022-10-10T12:24:08Z</time>
      </trkpt>
      <trkpt lat="43.89611" lon="6.09697">
        <ele>708.66</ele>
        <time>2022-10-10T12:24:22Z</time>
      </trkpt>
      <trkpt lat="43.89593" lon="6.09177">
        <ele>706.41</ele>
        <time>2022-10-10T12:24:40Z</time>
      </trkpt>
      <trkpt lat="43.89587" lon="6.08975">
        <ele>703.55</ele>
        <time>2022-10-10T12:24:47Z</time>
      </trkpt>
      <trkpt lat="43.89584" lon="6.0889">
        <ele>702.11</ele>
        <time>2022-10-10T12:24:50Z</time>
      </trkpt>
      <trkpt lat="43.89578" lon="6.08719">
        <ele>700.09</ele>
        <time>2022-10-10T12:24:56Z</time>
      </trkpt>
      <trkpt lat="43.89567" lon="6.08381">
        <ele>695.98</ele>
        <time>2022-10-10T12:25:08Z</time>
      </trkpt>
      <trkpt lat="43.89566" lon="6.08352">
        <ele>695.91</ele>
        <time>2022-10-10T12:25:09Z</time>
      </trkpt>
      <trkpt lat="43.89551" lon="6.07925">
        <ele>692.89</ele>
        <time>2022-10-10T12:25:24Z</time>
      </trkpt>
      <trkpt lat="43.89548" lon="6.07867">
        <ele>691.58</ele>
        <time>2022-10-10T12:25:26Z</time>
      </trkpt>
      <trkpt lat="43.89539" lon="6.07752">
        <ele>689.33</ele>
        <time>2022-10-10T12:25:30Z</time>
      </trkpt>
      <trkpt lat="43.89508" lon="6.07359">
        <ele>688.14</ele>
        <time>2022-10-10T12:25:44Z</time>
      </trkpt>
      <trkpt lat="43.89503" lon="6.07334">
        <ele>688.13</ele>
        <time>2022-10-10T12:25:45Z</time>
      </trkpt>
      <trkpt lat="43.89494" lon="6.0731">
        <ele>688.14</ele>
        <time>2022-10-10T12:25:46Z</time>
      </trkpt>
      <trkpt lat="43.89483" lon="6.07287">
        <ele>688.14</ele>
        <time>2022-10-10T12:25:47Z</time>
      </trkpt>
      <trkpt lat="43.89471" lon="6.07265">
        <ele>688.13</ele>
        <time>2022-10-10T12:25:48Z</time>
      </trkpt>
      <trkpt lat="43.89364" lon="6.07082">
        <ele>686.1</ele>
        <time>2022-10-10T12:25:56Z</time>
      </trkpt>
      <trkpt lat="43.89324" lon="6.07018">
        <ele>684.23</ele>
        <time>2022-10-10T12:25:59Z</time>
      </trkpt>
      <trkpt lat="43.89301" lon="6.06979">
        <ele>682.66</ele>
        <time>2022-10-10T12:26:01Z</time>
      </trkpt>
      <trkpt lat="43.89289" lon="6.06961">
        <ele>682.63</ele>
        <time>2022-10-10T12:26:02Z</time>
      </trkpt>
      <trkpt lat="43.89275" lon="6.06945">
        <ele>682.62</ele>
        <time>2022-10-10T12:26:03Z</time>
      </trkpt>
      <trkpt lat="43.8926" lon="6.06932">
        <ele>681.15</ele>
        <time>2022-10-10T12:26:04Z</time>
      </trkpt>
      <trkpt lat="43.89245" lon="6.06919">
        <ele>681.14</ele>
        <time>2022-10-10T12:26:05Z</time>
      </trkpt>
      <trkpt lat="43.89217" lon="6.06892">
        <ele>680.26</ele>
        <time>2022-10-10T12:26:07Z</time>
      </trkpt>
      <trkpt lat="43.89207" lon="6.06878">
        <ele>679.45</ele>
        <time>2022-10-10T12:26:08Z</time>
      </trkpt>
      <trkpt lat="43.892" lon="6.0686">
        <ele>678.52</ele>
        <time>2022-10-10T12:26:09Z</time>
      </trkpt>
      <trkpt lat="43.89197" lon="6.0684">
        <ele>677.57</ele>
        <time>2022-10-10T12:26:10Z</time>
      </trkpt>
      <trkpt lat="43.89194" lon="6.06819">
        <ele>676.7</ele>
        <time>2022-10-10T12:26:11Z</time>
      </trkpt>
      <trkpt lat="43.89191" lon="6.06798">
        <ele>675.4</ele>
        <time>2022-10-10T12:26:12Z</time>
      </trkpt>
      <trkpt lat="43.89186" lon="6.06777">
        <ele>675.39</ele>
        <time>2022-10-10T12:26:13Z</time>
      </trkpt>
      <trkpt lat="43.89178" lon="6.06757">
        <ele>675.38</ele>
        <time>2022-10-10T12:26:14Z</time>
      </trkpt>
      <trkpt lat="43.89109" lon="6.06576">
        <ele>675.84</ele>
        <time>2022-10-10T12:26:22Z</time>
      </trkpt>
      <trkpt lat="43.89093" lon="6.06529">
        <ele>678.14</ele>
        <time>2022-10-10T12:26:24Z</time>
      </trkpt>
      <trkpt lat="43.89002" lon="6.06328">
        <ele>675.51</ele>
        <time>2022-10-10T12:26:33Z</time>
      </trkpt>
      <trkpt lat="43.88904" lon="6.06099">
        <ele>672.4</ele>
        <time>2022-10-10T12:26:43Z</time>
      </trkpt>
      <trkpt lat="43.88897" lon="6.06074">
        <ele>672.42</ele>
        <time>2022-10-10T12:26:44Z</time>
      </trkpt>
      <trkpt lat="43.88798" lon="6.05776">
        <ele>671.46</ele>
        <time>2022-10-10T12:26:56Z</time>
      </trkpt>
      <trkpt lat="43.88593" lon="6.05322">
        <ele>667.99</ele>
        <time>2022-10-10T12:27:15Z</time>
      </trkpt>
      <trkpt lat="43.8855" lon="6.05227">
        <ele>666.65</ele>
        <time>2022-10-10T12:27:19Z</time>
      </trkpt>
      <trkpt lat="43.88436" lon="6.04974">
        <ele>665.31</ele>
        <time>2022-10-10T12:27:30Z</time>
      </trkpt>
      <trkpt lat="43.88387" lon="6.04864">
        <ele>663.12</ele>
        <time>2022-10-10T12:27:35Z</time>
      </trkpt>
      <trkpt lat="43.88303" lon="6.04613">
        <ele>660.89</ele>
        <time>2022-10-10T12:27:46Z</time>
      </trkpt>
      <trkpt lat="43.88272" lon="6.04494">
        <ele>657.42</ele>
        <time>2022-10-10T12:27:51Z</time>
      </trkpt>
      <trkpt lat="43.88266" lon="6.04469">
        <ele>657.42</ele>
        <time>2022-10-10T12:27:52Z</time>
      </trkpt>
      <trkpt lat="43.88247" lon="6.04396">
        <ele>655.4</ele>
        <time>2022-10-10T12:27:55Z</time>
      </trkpt>
      <trkpt lat="43.8818" lon="6.04138">
        <ele>653.46</ele>
        <time>2022-10-10T12:28:06Z</time>
      </trkpt>
      <trkpt lat="43.88095" lon="6.03846">
        <ele>652.46</ele>
        <time>2022-10-10T12:28:18Z</time>
      </trkpt>
      <trkpt lat="43.8793" lon="6.03341">
        <ele>649.84</ele>
        <time>2022-10-10T12:28:38Z</time>
      </trkpt>
      <trkpt lat="43.87782" lon="6.02821">
        <ele>648.03</ele>
        <time>2022-10-10T12:28:58Z</time>
      </trkpt>
      <trkpt lat="43.87648" lon="6.02594">
        <ele>646.24</ele>
        <time>2022-10-10T12:29:08Z</time>
      </trkpt>
      <trkpt lat="43.87489" lon="6.02393">
        <ele>642.77</ele>
        <time>2022-10-10T12:29:18Z</time>
      </trkpt>
      <trkpt lat="43.87442" lon="6.02332">
        <ele>641.05</ele>
        <time>2022-10-10T12:29:21Z</time>
      </trkpt>
      <trkpt lat="43.87351" lon="6.02208">
        <ele>637.61</ele>
        <time>2022-10-10T12:29:27Z</time>
      </trkpt>
      <trkpt lat="43.87336" lon="6.02187">
        <ele>637.59</ele>
        <time>2022-10-10T12:29:28Z</time>
      </trkpt>
      <trkpt lat="43.87065" lon="6.01797">
        <ele>635.25</ele>
        <time>2022-10-10T12:29:47Z</time>
      </trkpt>
      <trkpt lat="43.86924" lon="6.01545">
        <ele>633.36</ele>
        <time>2022-10-10T12:29:58Z</time>
      </trkpt>
      <trkpt lat="43.86873" lon="6.01448">
        <ele>632.09</ele>
        <time>2022-10-10T12:30:02Z</time>
      </trkpt>
      <trkpt lat="43.86812" lon="6.01333">
        <ele>628.94</ele>
        <time>2022-10-10T12:30:07Z</time>
      </trkpt>
      <trkpt lat="43.86801" lon="6.01312">
        <ele>628.93</ele>
        <time>2022-10-10T12:30:08Z</time>
      </trkpt>
      <trkpt lat="43.86739" lon="6.01197">
        <ele>626.39</ele>
        <time>2022-10-10T12:30:14Z</time>
      </trkpt>
      <trkpt lat="43.86598" lon="6.00976">
        <ele>626.32</ele>
        <time>2022-10-10T12:30:26Z</time>
      </trkpt>
      <trkpt lat="43.86297" lon="6.00652">
        <ele>623.37</ele>
        <time>2022-10-10T12:30:45Z</time>
      </trkpt>
      <trkpt lat="43.86146" lon="6.00489">
        <ele>619.2</ele>
        <time>2022-10-10T12:30:55Z</time>
      </trkpt>
      <trkpt lat="43.85901" lon="6.00224">
        <ele>616.61</ele>
        <time>2022-10-10T12:31:12Z</time>
      </trkpt>
      <trkpt lat="43.85682" lon="5.99988">
        <ele>615.64</ele>
        <time>2022-10-10T12:31:27Z</time>
      </trkpt>
      <trkpt lat="43.85514" lon="5.99801">
        <ele>611.42</ele>
        <time>2022-10-10T12:31:38Z</time>
      </trkpt>
      <trkpt lat="43.85498" lon="5.99785">
        <ele>611.39</ele>
        <time>2022-10-10T12:31:39Z</time>
      </trkpt>
      <trkpt lat="43.85257" lon="5.9952">
        <ele>609.58</ele>
        <time>2022-10-10T12:31:55Z</time>
      </trkpt>
      <trkpt lat="43.852" lon="5.99457">
        <ele>607.14</ele>
        <time>2022-10-10T12:31:59Z</time>
      </trkpt>
      <trkpt lat="43.84986" lon="5.99246">
        <ele>604.04</ele>
        <time>2022-10-10T12:32:14Z</time>
      </trkpt>
      <trkpt lat="43.8493" lon="5.99193">
        <ele>603.22</ele>
        <time>2022-10-10T12:32:18Z</time>
      </trkpt>
      <trkpt lat="43.84917" lon="5.99176">
        <ele>602.42</ele>
        <time>2022-10-10T12:32:19Z</time>
      </trkpt>
      <trkpt lat="43.84872" lon="5.99102">
        <ele>601.19</ele>
        <time>2022-10-10T12:32:23Z</time>
      </trkpt>
      <trkpt lat="43.84772" lon="5.98936">
        <ele>598.93</ele>
        <time>2022-10-10T12:32:32Z</time>
      </trkpt>
      <trkpt lat="43.84725" lon="5.9887">
        <ele>597.59</ele>
        <time>2022-10-10T12:32:36Z</time>
      </trkpt>
      <trkpt lat="43.84701" lon="5.98847">
        <ele>596.45</ele>
        <time>2022-10-10T12:32:38Z</time>
      </trkpt>
      <trkpt lat="43.84689" lon="5.9884">
        <ele>595.34</ele>
        <time>2022-10-10T12:32:39Z</time>
      </trkpt>
      <trkpt lat="43.84676" lon="5.98834">
        <ele>594.33</ele>
        <time>2022-10-10T12:32:40Z</time>
      </trkpt>
      <trkpt lat="43.84663" lon="5.98831">
        <ele>594.36</ele>
        <time>2022-10-10T12:32:41Z</time>
      </trkpt>
      <trkpt lat="43.8465" lon="5.98829">
        <ele>594.32</ele>
        <time>2022-10-10T12:32:42Z</time>
      </trkpt>
      <trkpt lat="43.84636" lon="5.9883">
        <ele>594.62</ele>
        <time>2022-10-10T12:32:43Z</time>
      </trkpt>
      <trkpt lat="43.84622" lon="5.98835">
        <ele>594.27</ele>
        <time>2022-10-10T12:32:44Z</time>
      </trkpt>
      <trkpt lat="43.84608" lon="5.98841">
        <ele>593.67</ele>
        <time>2022-10-10T12:32:45Z</time>
      </trkpt>
      <trkpt lat="43.84541" lon="5.98855">
        <ele>591.76</ele>
        <time>2022-10-10T12:32:50Z</time>
      </trkpt>
      <trkpt lat="43.84531" lon="5.98851">
        <ele>591.81</ele>
        <time>2022-10-10T12:32:51Z</time>
      </trkpt>
      <trkpt lat="43.84522" lon="5.98843">
        <ele>591.77</ele>
        <time>2022-10-10T12:32:52Z</time>
      </trkpt>
      <trkpt lat="43.84515" lon="5.98831">
        <ele>591.76</ele>
        <time>2022-10-10T12:32:53Z</time>
      </trkpt>
      <trkpt lat="43.84509" lon="5.98817">
        <ele>591.8</ele>
        <time>2022-10-10T12:32:54Z</time>
      </trkpt>
      <trkpt lat="43.84503" lon="5.98802">
        <ele>591.81</ele>
        <time>2022-10-10T12:32:55Z</time>
      </trkpt>
      <trkpt lat="43.84462" lon="5.98727">
        <ele>591.76</ele>
        <time>2022-10-10T12:33:00Z</time>
      </trkpt>
      <trkpt lat="43.8445" lon="5.98714">
        <ele>591.8</ele>
        <time>2022-10-10T12:33:01Z</time>
      </trkpt>
      <trkpt lat="43.84438" lon="5.98703">
        <ele>590.81</ele>
        <time>2022-10-10T12:33:02Z</time>
      </trkpt>
      <trkpt lat="43.84383" lon="5.98658">
        <ele>588.98</ele>
        <time>2022-10-10T12:33:06Z</time>
      </trkpt>
      <trkpt lat="43.84357" lon="5.98632">
        <ele>588.38</ele>
        <time>2022-10-10T12:33:08Z</time>
      </trkpt>
      <trkpt lat="43.84346" lon="5.98617">
        <ele>588.38</ele>
        <time>2022-10-10T12:33:09Z</time>
      </trkpt>
      <trkpt lat="43.84293" lon="5.98543">
        <ele>588.3</ele>
        <time>2022-10-10T12:33:14Z</time>
      </trkpt>
      <trkpt lat="43.84281" lon="5.98532">
        <ele>588.3</ele>
        <time>2022-10-10T12:33:15Z</time>
      </trkpt>
      <trkpt lat="43.84267" lon="5.98523">
        <ele>588.25</ele>
        <time>2022-10-10T12:33:16Z</time>
      </trkpt>
      <trkpt lat="43.8419" lon="5.98463">
        <ele>585.87</ele>
        <time>2022-10-10T12:33:22Z</time>
      </trkpt>
      <trkpt lat="43.8409" lon="5.9837">
        <ele>584.99</ele>
        <time>2022-10-10T12:33:33Z</time>
      </trkpt>
      <trkpt lat="43.84055" lon="5.98335">
        <ele>582.47</ele>
        <time>2022-10-10T12:33:38Z</time>
      </trkpt>
      <trkpt lat="43.84042" lon="5.98324">
        <ele>581.02</ele>
        <time>2022-10-10T12:33:40Z</time>
      </trkpt>
      <trkpt lat="43.84036" lon="5.98321">
        <ele>580.31</ele>
        <time>2022-10-10T12:33:41Z</time>
      </trkpt>
      <trkpt lat="43.84031" lon="5.98322">
        <ele>579.45</ele>
        <time>2022-10-10T12:33:42Z</time>
      </trkpt>
      <trkpt lat="43.84026" lon="5.98326">
        <ele>579.41</ele>
        <time>2022-10-10T12:33:43Z</time>
      </trkpt>
      <trkpt lat="43.84023" lon="5.98334">
        <ele>578.47</ele>
        <time>2022-10-10T12:33:44Z</time>
      </trkpt>
      <trkpt lat="43.8402" lon="5.98344">
        <ele>578.32</ele>
        <time>2022-10-10T12:33:45Z</time>
      </trkpt>
      <trkpt lat="43.84006" lon="5.98389">
        <ele>576.19</ele>
        <time>2022-10-10T12:33:49Z</time>
      </trkpt>
      <trkpt lat="43.84001" lon="5.984">
        <ele>576.18</ele>
        <time>2022-10-10T12:33:50Z</time>
      </trkpt>
      <trkpt lat="43.83996" lon="5.9841">
        <ele>574.58</ele>
        <time>2022-10-10T12:33:51Z</time>
      </trkpt>
      <trkpt lat="43.8399" lon="5.98419">
        <ele>574.62</ele>
        <time>2022-10-10T12:33:52Z</time>
      </trkpt>
      <trkpt lat="43.83983" lon="5.98427">
        <ele>573.65</ele>
        <time>2022-10-10T12:33:53Z</time>
      </trkpt>
      <trkpt lat="43.83976" lon="5.98436">
        <ele>573.64</ele>
        <time>2022-10-10T12:33:54Z</time>
      </trkpt>
      <trkpt lat="43.83968" lon="5.98443">
        <ele>572.61</ele>
        <time>2022-10-10T12:33:55Z</time>
      </trkpt>
      <trkpt lat="43.83938" lon="5.9847">
        <ele>570.57</ele>
        <time>2022-10-10T12:33:59Z</time>
      </trkpt>
      <trkpt lat="43.83931" lon="5.98477">
        <ele>569.69</ele>
        <time>2022-10-10T12:34:00Z</time>
      </trkpt>
      <trkpt lat="43.83926" lon="5.98484">
        <ele>569.64</ele>
        <time>2022-10-10T12:34:01Z</time>
      </trkpt>
      <trkpt lat="43.83921" lon="5.98492">
        <ele>568.26</ele>
        <time>2022-10-10T12:34:02Z</time>
      </trkpt>
      <trkpt lat="43.83919" lon="5.98502">
        <ele>568.21</ele>
        <time>2022-10-10T12:34:03Z</time>
      </trkpt>
      <trkpt lat="43.83918" lon="5.98512">
        <ele>567.01</ele>
        <time>2022-10-10T12:34:04Z</time>
      </trkpt>
      <trkpt lat="43.83917" lon="5.98522">
        <ele>566.47</ele>
        <time>2022-10-10T12:34:05Z</time>
      </trkpt>
      <trkpt lat="43.83916" lon="5.98532">
        <ele>566.47</ele>
        <time>2022-10-10T12:34:06Z</time>
      </trkpt>
      <trkpt lat="43.83913" lon="5.98541">
        <ele>565.41</ele>
        <time>2022-10-10T12:34:07Z</time>
      </trkpt>
      <trkpt lat="43.83908" lon="5.98547">
        <ele>565.36</ele>
        <time>2022-10-10T12:34:08Z</time>
      </trkpt>
      <trkpt lat="43.83903" lon="5.98552">
        <ele>564.2</ele>
        <time>2022-10-10T12:34:09Z</time>
      </trkpt>
      <trkpt lat="43.83896" lon="5.98554">
        <ele>564.2</ele>
        <time>2022-10-10T12:34:10Z</time>
      </trkpt>
      <trkpt lat="43.83889" lon="5.98554">
        <ele>563.16</ele>
        <time>2022-10-10T12:34:11Z</time>
      </trkpt>
      <trkpt lat="43.83881" lon="5.98553">
        <ele>563.16</ele>
        <time>2022-10-10T12:34:12Z</time>
      </trkpt>
      <trkpt lat="43.83874" lon="5.98549">
        <ele>563.1</ele>
        <time>2022-10-10T12:34:13Z</time>
      </trkpt>
      <trkpt lat="43.83867" lon="5.98545">
        <ele>563.1</ele>
        <time>2022-10-10T12:34:14Z</time>
      </trkpt>
      <trkpt lat="43.83861" lon="5.9854">
        <ele>561.69</ele>
        <time>2022-10-10T12:34:15Z</time>
      </trkpt>
      <trkpt lat="43.83854" lon="5.98535">
        <ele>561.74</ele>
        <time>2022-10-10T12:34:16Z</time>
      </trkpt>
      <trkpt lat="43.83836" lon="5.98522">
        <ele>559.67</ele>
        <time>2022-10-10T12:34:19Z</time>
      </trkpt>
      <trkpt lat="43.83829" lon="5.98522">
        <ele>558.83</ele>
        <time>2022-10-10T12:34:20Z</time>
      </trkpt>
      <trkpt lat="43.83823" lon="5.98525">
        <ele>558.83</ele>
        <time>2022-10-10T12:34:21Z</time>
      </trkpt>
      <trkpt lat="43.83805" lon="5.98538">
        <ele>558.82</ele>
        <time>2022-10-10T12:34:24Z</time>
      </trkpt>
      <trkpt lat="43.838" lon="5.98543">
        <ele>558.85</ele>
        <time>2022-10-10T12:34:25Z</time>
      </trkpt>
      <trkpt lat="43.83795" lon="5.9855">
        <ele>558.87</ele>
        <time>2022-10-10T12:34:26Z</time>
      </trkpt>
      <trkpt lat="43.8379" lon="5.98558">
        <ele>558.84</ele>
        <time>2022-10-10T12:34:27Z</time>
      </trkpt>
      <trkpt lat="43.83786" lon="5.98567">
        <ele>558.93</ele>
        <time>2022-10-10T12:34:28Z</time>
      </trkpt>
      <trkpt lat="43.83781" lon="5.98575">
        <ele>558.88</ele>
        <time>2022-10-10T12:34:29Z</time>
      </trkpt>
      <trkpt lat="43.83776" lon="5.98582">
        <ele>557.88</ele>
        <time>2022-10-10T12:34:30Z</time>
      </trkpt>
      <trkpt lat="43.83772" lon="5.9859">
        <ele>556.31</ele>
        <time>2022-10-10T12:34:31Z</time>
      </trkpt>
      <trkpt lat="43.83769" lon="5.98599">
        <ele>556.27</ele>
        <time>2022-10-10T12:34:32Z</time>
      </trkpt>
      <trkpt lat="43.83767" lon="5.98608">
        <ele>555.03</ele>
        <time>2022-10-10T12:34:33Z</time>
      </trkpt>
      <trkpt lat="43.83767" lon="5.98618">
        <ele>555.07</ele>
        <time>2022-10-10T12:34:34Z</time>
      </trkpt>
      <trkpt lat="43.83769" lon="5.98628">
        <ele>553.91</ele>
        <time>2022-10-10T12:34:35Z</time>
      </trkpt>
      <trkpt lat="43.83773" lon="5.98638">
        <ele>553.89</ele>
        <time>2022-10-10T12:34:36Z</time>
      </trkpt>
      <trkpt lat="43.83777" lon="5.98649">
        <ele>553.01</ele>
        <time>2022-10-10T12:34:37Z</time>
      </trkpt>
      <trkpt lat="43.83799" lon="5.98699">
        <ele>550.73</ele>
        <time>2022-10-10T12:34:42Z</time>
      </trkpt>
      <trkpt lat="43.83809" lon="5.98725">
        <ele>549.26</ele>
        <time>2022-10-10T12:34:45Z</time>
      </trkpt>
      <trkpt lat="43.83815" lon="5.98739">
        <ele>547.79</ele>
        <time>2022-10-10T12:34:48Z</time>
      </trkpt>
      <trkpt lat="43.83816" lon="5.98743">
        <ele>547.83</ele>
        <time>2022-10-10T12:34:49Z</time>
      </trkpt>
      <trkpt lat="43.83816" lon="5.98747">
        <ele>547.87</ele>
        <time>2022-10-10T12:34:50Z</time>
      </trkpt>
      <trkpt lat="43.83815" lon="5.98751">
        <ele>547.77</ele>
        <time>2022-10-10T12:34:51Z</time>
      </trkpt>
      <trkpt lat="43.83814" lon="5.98757">
        <ele>547.85</ele>
        <time>2022-10-10T12:34:52Z</time>
      </trkpt>
      <trkpt lat="43.83814" lon="5.98764">
        <ele>547.82</ele>
        <time>2022-10-10T12:34:53Z</time>
      </trkpt>
      <trkpt lat="43.83816" lon="5.98772">
        <ele>547.03</ele>
        <time>2022-10-10T12:34:54Z</time>
      </trkpt>
      <trkpt lat="43.8382" lon="5.98781">
        <ele>547.37</ele>
        <time>2022-10-10T12:34:55Z</time>
      </trkpt>
      <trkpt lat="43.83858" lon="5.98891">
        <ele>543.83</ele>
        <time>2022-10-10T12:35:03Z</time>
      </trkpt>
      <trkpt lat="43.83862" lon="5.98905">
        <ele>543.85</ele>
        <time>2022-10-10T12:35:04Z</time>
      </trkpt>
      <trkpt lat="43.83873" lon="5.98946">
        <ele>541.69</ele>
        <time>2022-10-10T12:35:07Z</time>
      </trkpt>
      <trkpt lat="43.83874" lon="5.9896">
        <ele>541.64</ele>
        <time>2022-10-10T12:35:08Z</time>
      </trkpt>
      <trkpt lat="43.83874" lon="5.98974">
        <ele>539.86</ele>
        <time>2022-10-10T12:35:09Z</time>
      </trkpt>
      <trkpt lat="43.83873" lon="5.98988">
        <ele>539.81</ele>
        <time>2022-10-10T12:35:10Z</time>
      </trkpt>
      <trkpt lat="43.83871" lon="5.99002">
        <ele>539.79</ele>
        <time>2022-10-10T12:35:11Z</time>
      </trkpt>
      <trkpt lat="43.83868" lon="5.99015">
        <ele>538.42</ele>
        <time>2022-10-10T12:35:12Z</time>
      </trkpt>
      <trkpt lat="43.83863" lon="5.99028">
        <ele>538.39</ele>
        <time>2022-10-10T12:35:13Z</time>
      </trkpt>
      <trkpt lat="43.83858" lon="5.99042">
        <ele>538.4</ele>
        <time>2022-10-10T12:35:14Z</time>
      </trkpt>
      <trkpt lat="43.83847" lon="5.99066">
        <ele>537.12</ele>
        <time>2022-10-10T12:35:16Z</time>
      </trkpt>
      <trkpt lat="43.8384" lon="5.99077">
        <ele>537.12</ele>
        <time>2022-10-10T12:35:17Z</time>
      </trkpt>
      <trkpt lat="43.83833" lon="5.99087">
        <ele>537.03</ele>
        <time>2022-10-10T12:35:18Z</time>
      </trkpt>
      <trkpt lat="43.8381" lon="5.99111">
        <ele>536.63</ele>
        <time>2022-10-10T12:35:21Z</time>
      </trkpt>
      <trkpt lat="43.83802" lon="5.99116">
        <ele>536.67</ele>
        <time>2022-10-10T12:35:22Z</time>
      </trkpt>
      <trkpt lat="43.83794" lon="5.99119">
        <ele>536.63</ele>
        <time>2022-10-10T12:35:23Z</time>
      </trkpt>
      <trkpt lat="43.83785" lon="5.9912">
        <ele>536.63</ele>
        <time>2022-10-10T12:35:24Z</time>
      </trkpt>
      <trkpt lat="43.83777" lon="5.99118">
        <ele>536.62</ele>
        <time>2022-10-10T12:35:25Z</time>
      </trkpt>
      <trkpt lat="43.83771" lon="5.99116">
        <ele>536.62</ele>
        <time>2022-10-10T12:35:26Z</time>
      </trkpt>
      <trkpt lat="43.83764" lon="5.99116">
        <ele>536.61</ele>
        <time>2022-10-10T12:35:28Z</time>
      </trkpt>
      <trkpt lat="43.83764" lon="5.99117">
        <ele>536.62</ele>
        <time>2022-10-10T12:35:29Z</time>
      </trkpt>
      <trkpt lat="43.83766" lon="5.99118">
        <ele>536.58</ele>
        <time>2022-10-10T12:35:33Z</time>
      </trkpt>
      <trkpt lat="43.83769" lon="5.99119">
        <ele>536.6</ele>
        <time>2022-10-10T12:35:34Z</time>
      </trkpt>
      <trkpt lat="43.83774" lon="5.99117">
        <ele>536.59</ele>
        <time>2022-10-10T12:35:35Z</time>
      </trkpt>
      <trkpt lat="43.83777" lon="5.99113">
        <ele>536.59</ele>
        <time>2022-10-10T12:35:36Z</time>
      </trkpt>
      <trkpt lat="43.83778" lon="5.99108">
        <ele>536.58</ele>
        <time>2022-10-10T12:35:37Z</time>
      </trkpt>
      <trkpt lat="43.83776" lon="5.991">
        <ele>536.55</ele>
        <time>2022-10-10T12:35:38Z</time>
      </trkpt>
      <trkpt lat="43.83772" lon="5.99092">
        <ele>536.54</ele>
        <time>2022-10-10T12:35:39Z</time>
      </trkpt>
      <trkpt lat="43.83767" lon="5.99081">
        <ele>535.52</ele>
        <time>2022-10-10T12:35:40Z</time>
      </trkpt>
      <trkpt lat="43.83725" lon="5.99019">
        <ele>533.56</ele>
        <time>2022-10-10T12:35:45Z</time>
      </trkpt>
      <trkpt lat="43.83699" lon="5.98979">
        <ele>531.92</ele>
        <time>2022-10-10T12:35:48Z</time>
      </trkpt>
      <trkpt lat="43.8369" lon="5.98967">
        <ele>531.86</ele>
        <time>2022-10-10T12:35:49Z</time>
      </trkpt>
      <trkpt lat="43.8368" lon="5.98956">
        <ele>531.91</ele>
        <time>2022-10-10T12:35:50Z</time>
      </trkpt>
      <trkpt lat="43.83669" lon="5.98946">
        <ele>531.86</ele>
        <time>2022-10-10T12:35:51Z</time>
      </trkpt>
      <trkpt lat="43.83584" lon="5.98855">
        <ele>531.82</ele>
        <time>2022-10-10T12:35:59Z</time>
      </trkpt>
      <trkpt lat="43.83505" lon="5.98782">
        <ele>531.84</ele>
        <time>2022-10-10T12:36:06Z</time>
      </trkpt>
      <trkpt lat="43.83496" lon="5.98768">
        <ele>531.82</ele>
        <time>2022-10-10T12:36:07Z</time>
      </trkpt>
      <trkpt lat="43.83487" lon="5.98753">
        <ele>531.8</ele>
        <time>2022-10-10T12:36:08Z</time>
      </trkpt>
      <trkpt lat="43.83429" lon="5.98641">
        <ele>529.72</ele>
        <time>2022-10-10T12:36:16Z</time>
      </trkpt>
      <trkpt lat="43.83419" lon="5.98627">
        <ele>529.71</ele>
        <time>2022-10-10T12:36:17Z</time>
      </trkpt>
      <trkpt lat="43.83388" lon="5.98594">
        <ele>528.85</ele>
        <time>2022-10-10T12:36:20Z</time>
      </trkpt>
      <trkpt lat="43.83359" lon="5.9857">
        <ele>526.93</ele>
        <time>2022-10-10T12:36:23Z</time>
      </trkpt>
      <trkpt lat="43.83351" lon="5.9856">
        <ele>526.9</ele>
        <time>2022-10-10T12:36:24Z</time>
      </trkpt>
      <trkpt lat="43.83344" lon="5.9855">
        <ele>526.86</ele>
        <time>2022-10-10T12:36:25Z</time>
      </trkpt>
      <trkpt lat="43.83338" lon="5.98539">
        <ele>526.85</ele>
        <time>2022-10-10T12:36:26Z</time>
      </trkpt>
      <trkpt lat="43.83333" lon="5.98528">
        <ele>525.65</ele>
        <time>2022-10-10T12:36:27Z</time>
      </trkpt>
      <trkpt lat="43.83327" lon="5.98516">
        <ele>524.73</ele>
        <time>2022-10-10T12:36:28Z</time>
      </trkpt>
      <trkpt lat="43.8332" lon="5.98504">
        <ele>524.72</ele>
        <time>2022-10-10T12:36:29Z</time>
      </trkpt>
      <trkpt lat="43.83311" lon="5.98493">
        <ele>523.61</ele>
        <time>2022-10-10T12:36:30Z</time>
      </trkpt>
      <trkpt lat="43.83248" lon="5.98423">
        <ele>523.9</ele>
        <time>2022-10-10T12:36:36Z</time>
      </trkpt>
      <trkpt lat="43.8324" lon="5.98412">
        <ele>523.89</ele>
        <time>2022-10-10T12:36:37Z</time>
      </trkpt>
      <trkpt lat="43.83233" lon="5.98398">
        <ele>523.9</ele>
        <time>2022-10-10T12:36:38Z</time>
      </trkpt>
      <trkpt lat="43.83182" lon="5.98262">
        <ele>523.83</ele>
        <time>2022-10-10T12:36:46Z</time>
      </trkpt>
      <trkpt lat="43.83135" lon="5.98176">
        <ele>521.51</ele>
        <time>2022-10-10T12:36:51Z</time>
      </trkpt>
      <trkpt lat="43.83086" lon="5.98091">
        <ele>519.26</ele>
        <time>2022-10-10T12:36:56Z</time>
      </trkpt>
      <trkpt lat="43.83079" lon="5.98073">
        <ele>519.18</ele>
        <time>2022-10-10T12:36:57Z</time>
      </trkpt>
      <trkpt lat="43.83037" lon="5.97921">
        <ele>517.98</ele>
        <time>2022-10-10T12:37:05Z</time>
      </trkpt>
      <trkpt lat="43.8303" lon="5.97903">
        <ele>517.98</ele>
        <time>2022-10-10T12:37:06Z</time>
      </trkpt>
      <trkpt lat="43.82986" lon="5.97819">
        <ele>516.71</ele>
        <time>2022-10-10T12:37:11Z</time>
      </trkpt>
      <trkpt lat="43.82937" lon="5.97737">
        <ele>515.68</ele>
        <time>2022-10-10T12:37:16Z</time>
      </trkpt>
      <trkpt lat="43.82925" lon="5.97723">
        <ele>514.34</ele>
        <time>2022-10-10T12:37:17Z</time>
      </trkpt>
      <trkpt lat="43.82913" lon="5.97711">
        <ele>514.32</ele>
        <time>2022-10-10T12:37:18Z</time>
      </trkpt>
      <trkpt lat="43.82808" lon="5.97589">
        <ele>514.37</ele>
        <time>2022-10-10T12:37:27Z</time>
      </trkpt>
      <trkpt lat="43.8269" lon="5.97478">
        <ele>512.75</ele>
        <time>2022-10-10T12:37:36Z</time>
      </trkpt>
      <trkpt lat="43.82661" lon="5.97457">
        <ele>511.39</ele>
        <time>2022-10-10T12:37:38Z</time>
      </trkpt>
      <trkpt lat="43.82539" lon="5.9739">
        <ele>507.81</ele>
        <time>2022-10-10T12:37:46Z</time>
      </trkpt>
      <trkpt lat="43.82522" lon="5.97383">
        <ele>507.75</ele>
        <time>2022-10-10T12:37:47Z</time>
      </trkpt>
      <trkpt lat="43.8249" lon="5.97372">
        <ele>504.65</ele>
        <time>2022-10-10T12:37:49Z</time>
      </trkpt>
      <trkpt lat="43.82442" lon="5.97357">
        <ele>502.56</ele>
        <time>2022-10-10T12:37:52Z</time>
      </trkpt>
      <trkpt lat="43.82426" lon="5.97355">
        <ele>502.14</ele>
        <time>2022-10-10T12:37:53Z</time>
      </trkpt>
      <trkpt lat="43.8241" lon="5.97355">
        <ele>502.14</ele>
        <time>2022-10-10T12:37:54Z</time>
      </trkpt>
      <trkpt lat="43.82394" lon="5.97358">
        <ele>502.14</ele>
        <time>2022-10-10T12:37:55Z</time>
      </trkpt>
      <trkpt lat="43.82378" lon="5.97364">
        <ele>501.16</ele>
        <time>2022-10-10T12:37:56Z</time>
      </trkpt>
      <trkpt lat="43.82361" lon="5.9737">
        <ele>501.08</ele>
        <time>2022-10-10T12:37:57Z</time>
      </trkpt>
      <trkpt lat="43.82345" lon="5.97374">
        <ele>499.66</ele>
        <time>2022-10-10T12:37:58Z</time>
      </trkpt>
      <trkpt lat="43.82328" lon="5.97376">
        <ele>499.65</ele>
        <time>2022-10-10T12:37:59Z</time>
      </trkpt>
      <trkpt lat="43.8231" lon="5.97375">
        <ele>497.85</ele>
        <time>2022-10-10T12:38:00Z</time>
      </trkpt>
      <trkpt lat="43.82294" lon="5.97371">
        <ele>497.78</ele>
        <time>2022-10-10T12:38:01Z</time>
      </trkpt>
      <trkpt lat="43.82277" lon="5.97363">
        <ele>497.78</ele>
        <time>2022-10-10T12:38:02Z</time>
      </trkpt>
      <trkpt lat="43.82262" lon="5.97354">
        <ele>497.72</ele>
        <time>2022-10-10T12:38:03Z</time>
      </trkpt>
      <trkpt lat="43.82247" lon="5.97342">
        <ele>497.8</ele>
        <time>2022-10-10T12:38:04Z</time>
      </trkpt>
      <trkpt lat="43.82234" lon="5.97328">
        <ele>497.77</ele>
        <time>2022-10-10T12:38:05Z</time>
      </trkpt>
      <trkpt lat="43.82223" lon="5.9731">
        <ele>497.76</ele>
        <time>2022-10-10T12:38:06Z</time>
      </trkpt>
      <trkpt lat="43.82213" lon="5.97291">
        <ele>500.4</ele>
        <time>2022-10-10T12:38:07Z</time>
      </trkpt>
      <trkpt lat="43.82204" lon="5.9727">
        <ele>500.41</ele>
        <time>2022-10-10T12:38:08Z</time>
      </trkpt>
      <trkpt lat="43.82195" lon="5.97249">
        <ele>500.47</ele>
        <time>2022-10-10T12:38:09Z</time>
      </trkpt>
      <trkpt lat="43.82185" lon="5.97229">
        <ele>500.49</ele>
        <time>2022-10-10T12:38:10Z</time>
      </trkpt>
      <trkpt lat="43.82173" lon="5.9721">
        <ele>500.47</ele>
        <time>2022-10-10T12:38:11Z</time>
      </trkpt>
      <trkpt lat="43.82126" lon="5.97128">
        <ele>497.96</ele>
        <time>2022-10-10T12:38:15Z</time>
      </trkpt>
      <trkpt lat="43.82109" lon="5.97086">
        <ele>495.99</ele>
        <time>2022-10-10T12:38:17Z</time>
      </trkpt>
      <trkpt lat="43.82086" lon="5.97024">
        <ele>494.27</ele>
        <time>2022-10-10T12:38:20Z</time>
      </trkpt>
      <trkpt lat="43.82082" lon="5.97002">
        <ele>494.27</ele>
        <time>2022-10-10T12:38:21Z</time>
      </trkpt>
      <trkpt lat="43.82061" lon="5.96912">
        <ele>494.2</ele>
        <time>2022-10-10T12:38:25Z</time>
      </trkpt>
      <trkpt lat="43.82052" lon="5.9689">
        <ele>494.2</ele>
        <time>2022-10-10T12:38:26Z</time>
      </trkpt>
      <trkpt lat="43.82042" lon="5.9687">
        <ele>494.17</ele>
        <time>2022-10-10T12:38:27Z</time>
      </trkpt>
      <trkpt lat="43.81954" lon="5.96672">
        <ele>491.27</ele>
        <time>2022-10-10T12:38:36Z</time>
      </trkpt>
      <trkpt lat="43.81948" lon="5.9665">
        <ele>491.25</ele>
        <time>2022-10-10T12:38:37Z</time>
      </trkpt>
      <trkpt lat="43.81937" lon="5.96609">
        <ele>490.36</ele>
        <time>2022-10-10T12:38:39Z</time>
      </trkpt>
      <trkpt lat="43.81929" lon="5.9659">
        <ele>490.29</ele>
        <time>2022-10-10T12:38:40Z</time>
      </trkpt>
      <trkpt lat="43.81919" lon="5.96573">
        <ele>489.43</ele>
        <time>2022-10-10T12:38:41Z</time>
      </trkpt>
      <trkpt lat="43.81906" lon="5.96559">
        <ele>487.68</ele>
        <time>2022-10-10T12:38:42Z</time>
      </trkpt>
      <trkpt lat="43.81892" lon="5.96548">
        <ele>486.57</ele>
        <time>2022-10-10T12:38:43Z</time>
      </trkpt>
      <trkpt lat="43.81878" lon="5.96538">
        <ele>485.33</ele>
        <time>2022-10-10T12:38:44Z</time>
      </trkpt>
      <trkpt lat="43.81866" lon="5.96525">
        <ele>484.51</ele>
        <time>2022-10-10T12:38:45Z</time>
      </trkpt>
      <trkpt lat="43.81856" lon="5.96508">
        <ele>484.57</ele>
        <time>2022-10-10T12:38:46Z</time>
      </trkpt>
      <trkpt lat="43.81847" lon="5.96489">
        <ele>483.46</ele>
        <time>2022-10-10T12:38:47Z</time>
      </trkpt>
      <trkpt lat="43.81837" lon="5.96469">
        <ele>483.46</ele>
        <time>2022-10-10T12:38:48Z</time>
      </trkpt>
      <trkpt lat="43.81827" lon="5.96449">
        <ele>483.41</ele>
        <time>2022-10-10T12:38:49Z</time>
      </trkpt>
      <trkpt lat="43.81814" lon="5.96432">
        <ele>483.42</ele>
        <time>2022-10-10T12:38:50Z</time>
      </trkpt>
      <trkpt lat="43.81706" lon="5.963">
        <ele>481.26</ele>
        <time>2022-10-10T12:38:58Z</time>
      </trkpt>
      <trkpt lat="43.81684" lon="5.96263">
        <ele>479.67</ele>
        <time>2022-10-10T12:39:00Z</time>
      </trkpt>
      <trkpt lat="43.81676" lon="5.96243">
        <ele>478.76</ele>
        <time>2022-10-10T12:39:01Z</time>
      </trkpt>
      <trkpt lat="43.81669" lon="5.96222">
        <ele>478.74</ele>
        <time>2022-10-10T12:39:02Z</time>
      </trkpt>
      <trkpt lat="43.81656" lon="5.96178">
        <ele>477.02</ele>
        <time>2022-10-10T12:39:04Z</time>
      </trkpt>
      <trkpt lat="43.81613" lon="5.96071">
        <ele>474.44</ele>
        <time>2022-10-10T12:39:09Z</time>
      </trkpt>
      <trkpt lat="43.81499" lon="5.95809">
        <ele>471.42</ele>
        <time>2022-10-10T12:39:21Z</time>
      </trkpt>
      <trkpt lat="43.81412" lon="5.95651">
        <ele>470.5</ele>
        <time>2022-10-10T12:39:29Z</time>
      </trkpt>
      <trkpt lat="43.81316" lon="5.95537">
        <ele>468.52</ele>
        <time>2022-10-10T12:39:36Z</time>
      </trkpt>
      <trkpt lat="43.81211" lon="5.95439">
        <ele>466.25</ele>
        <time>2022-10-10T12:39:43Z</time>
      </trkpt>
      <trkpt lat="43.81164" lon="5.95401">
        <ele>464.21</ele>
        <time>2022-10-10T12:39:46Z</time>
      </trkpt>
      <trkpt lat="43.81132" lon="5.95377">
        <ele>463.17</ele>
        <time>2022-10-10T12:39:48Z</time>
      </trkpt>
      <trkpt lat="43.81115" lon="5.95368">
        <ele>461.97</ele>
        <time>2022-10-10T12:39:49Z</time>
      </trkpt>
      <trkpt lat="43.81097" lon="5.95363">
        <ele>461.96</ele>
        <time>2022-10-10T12:39:50Z</time>
      </trkpt>
      <trkpt lat="43.80988" lon="5.95344">
        <ele>458.67</ele>
        <time>2022-10-10T12:39:56Z</time>
      </trkpt>
      <trkpt lat="43.80969" lon="5.95343">
        <ele>458.61</ele>
        <time>2022-10-10T12:39:57Z</time>
      </trkpt>
      <trkpt lat="43.80912" lon="5.95345">
        <ele>456.81</ele>
        <time>2022-10-10T12:40:00Z</time>
      </trkpt>
      <trkpt lat="43.80815" lon="5.95365">
        <ele>454.63</ele>
        <time>2022-10-10T12:40:05Z</time>
      </trkpt>
      <trkpt lat="43.80741" lon="5.9538">
        <ele>452.89</ele>
        <time>2022-10-10T12:40:09Z</time>
      </trkpt>
      <trkpt lat="43.80672" lon="5.95382">
        <ele>450.34</ele>
        <time>2022-10-10T12:40:13Z</time>
      </trkpt>
      <trkpt lat="43.80654" lon="5.95379">
        <ele>448.94</ele>
        <time>2022-10-10T12:40:14Z</time>
      </trkpt>
      <trkpt lat="43.80637" lon="5.95374">
        <ele>448.94</ele>
        <time>2022-10-10T12:40:15Z</time>
      </trkpt>
      <trkpt lat="43.80601" lon="5.9536">
        <ele>447.58</ele>
        <time>2022-10-10T12:40:17Z</time>
      </trkpt>
      <trkpt lat="43.80528" lon="5.95333">
        <ele>444.48</ele>
        <time>2022-10-10T12:40:21Z</time>
      </trkpt>
      <trkpt lat="43.80478" lon="5.9532">
        <ele>443.18</ele>
        <time>2022-10-10T12:40:24Z</time>
      </trkpt>
      <trkpt lat="43.80449" lon="5.95313">
        <ele>442.14</ele>
        <time>2022-10-10T12:40:26Z</time>
      </trkpt>
      <trkpt lat="43.80436" lon="5.95306">
        <ele>442.03</ele>
        <time>2022-10-10T12:40:27Z</time>
      </trkpt>
      <trkpt lat="43.80423" lon="5.95298">
        <ele>442.08</ele>
        <time>2022-10-10T12:40:28Z</time>
      </trkpt>
      <trkpt lat="43.8041" lon="5.95287">
        <ele>442.1</ele>
        <time>2022-10-10T12:40:29Z</time>
      </trkpt>
      <trkpt lat="43.80397" lon="5.95274">
        <ele>441.16</ele>
        <time>2022-10-10T12:40:30Z</time>
      </trkpt>
      <trkpt lat="43.80385" lon="5.9526">
        <ele>441.17</ele>
        <time>2022-10-10T12:40:31Z</time>
      </trkpt>
      <trkpt lat="43.80285" lon="5.95148">
        <ele>443.51</ele>
        <time>2022-10-10T12:40:38Z</time>
      </trkpt>
      <trkpt lat="43.80259" lon="5.95114">
        <ele>444.82</ele>
        <time>2022-10-10T12:40:40Z</time>
      </trkpt>
      <trkpt lat="43.80235" lon="5.95078">
        <ele>446.12</ele>
        <time>2022-10-10T12:40:42Z</time>
      </trkpt>
      <trkpt lat="43.80186" lon="5.94993">
        <ele>443.31</ele>
        <time>2022-10-10T12:40:47Z</time>
      </trkpt>
      <trkpt lat="43.80179" lon="5.94975">
        <ele>443.31</ele>
        <time>2022-10-10T12:40:48Z</time>
      </trkpt>
      <trkpt lat="43.80173" lon="5.94955">
        <ele>442.44</ele>
        <time>2022-10-10T12:40:49Z</time>
      </trkpt>
      <trkpt lat="43.80137" lon="5.9482">
        <ele>440.84</ele>
        <time>2022-10-10T12:40:55Z</time>
      </trkpt>
      <trkpt lat="43.80114" lon="5.94729">
        <ele>437.13</ele>
        <time>2022-10-10T12:40:59Z</time>
      </trkpt>
      <trkpt lat="43.80104" lon="5.94679">
        <ele>436.33</ele>
        <time>2022-10-10T12:41:01Z</time>
      </trkpt>
      <trkpt lat="43.80065" lon="5.94502">
        <ele>432.93</ele>
        <time>2022-10-10T12:41:08Z</time>
      </trkpt>
      <trkpt lat="43.80045" lon="5.94411">
        <ele>429.25</ele>
        <time>2022-10-10T12:41:12Z</time>
      </trkpt>
      <trkpt lat="43.8004" lon="5.94391">
        <ele>429.18</ele>
        <time>2022-10-10T12:41:13Z</time>
      </trkpt>
      <trkpt lat="43.80017" lon="5.94204">
        <ele>427.34</ele>
        <time>2022-10-10T12:41:21Z</time>
      </trkpt>
      <trkpt lat="43.80012" lon="5.9415">
        <ele>425.81</ele>
        <time>2022-10-10T12:41:23Z</time>
      </trkpt>
      <trkpt lat="43.79995" lon="5.94017">
        <ele>422.85</ele>
        <time>2022-10-10T12:41:28Z</time>
      </trkpt>
      <trkpt lat="43.79988" lon="5.93992">
        <ele>422.87</ele>
        <time>2022-10-10T12:41:29Z</time>
      </trkpt>
      <trkpt lat="43.79965" lon="5.93918">
        <ele>421.37</ele>
        <time>2022-10-10T12:41:32Z</time>
      </trkpt>
      <trkpt lat="43.79874" lon="5.93715">
        <ele>418.75</ele>
        <time>2022-10-10T12:41:41Z</time>
      </trkpt>
      <trkpt lat="43.79795" lon="5.93567">
        <ele>415.34</ele>
        <time>2022-10-10T12:41:48Z</time>
      </trkpt>
      <trkpt lat="43.79783" lon="5.93547">
        <ele>415.34</ele>
        <time>2022-10-10T12:41:49Z</time>
      </trkpt>
      <trkpt lat="43.79623" lon="5.93355">
        <ele>413.21</ele>
        <time>2022-10-10T12:42:00Z</time>
      </trkpt>
      <trkpt lat="43.79527" lon="5.93264">
        <ele>409.54</ele>
        <time>2022-10-10T12:42:06Z</time>
      </trkpt>
      <trkpt lat="43.79512" lon="5.9325">
        <ele>409.82</ele>
        <time>2022-10-10T12:42:07Z</time>
      </trkpt>
      <trkpt lat="43.79398" lon="5.93134">
        <ele>408.48</ele>
        <time>2022-10-10T12:42:15Z</time>
      </trkpt>
      <trkpt lat="43.79319" lon="5.93034">
        <ele>405.29</ele>
        <time>2022-10-10T12:42:21Z</time>
      </trkpt>
      <trkpt lat="43.79306" lon="5.93017">
        <ele>405.33</ele>
        <time>2022-10-10T12:42:22Z</time>
      </trkpt>
      <trkpt lat="43.79269" lon="5.92961">
        <ele>403.67</ele>
        <time>2022-10-10T12:42:25Z</time>
      </trkpt>
      <trkpt lat="43.79259" lon="5.92939">
        <ele>402.44</ele>
        <time>2022-10-10T12:42:26Z</time>
      </trkpt>
      <trkpt lat="43.79251" lon="5.92917">
        <ele>402.37</ele>
        <time>2022-10-10T12:42:27Z</time>
      </trkpt>
      <trkpt lat="43.79204" lon="5.92699">
        <ele>400.76</ele>
        <time>2022-10-10T12:42:36Z</time>
      </trkpt>
      <trkpt lat="43.79201" lon="5.92623">
        <ele>403</ele>
        <time>2022-10-10T12:42:39Z</time>
      </trkpt>
      <trkpt lat="43.79204" lon="5.92365">
        <ele>400.35</ele>
        <time>2022-10-10T12:42:49Z</time>
      </trkpt>
      <trkpt lat="43.79186" lon="5.92155">
        <ele>397.34</ele>
        <time>2022-10-10T12:42:57Z</time>
      </trkpt>
      <trkpt lat="43.79181" lon="5.92101">
        <ele>396.43</ele>
        <time>2022-10-10T12:42:59Z</time>
      </trkpt>
      <trkpt lat="43.79144" lon="5.91924">
        <ele>393.11</ele>
        <time>2022-10-10T12:43:06Z</time>
      </trkpt>
      <trkpt lat="43.79128" lon="5.91878">
        <ele>392.26</ele>
        <time>2022-10-10T12:43:08Z</time>
      </trkpt>
      <trkpt lat="43.79021" lon="5.91651">
        <ele>389.42</ele>
        <time>2022-10-10T12:43:19Z</time>
      </trkpt>
      <trkpt lat="43.79007" lon="5.91635">
        <ele>389.4</ele>
        <time>2022-10-10T12:43:20Z</time>
      </trkpt>
      <trkpt lat="43.78992" lon="5.91621">
        <ele>389.59</ele>
        <time>2022-10-10T12:43:21Z</time>
      </trkpt>
      <trkpt lat="43.78976" lon="5.91608">
        <ele>389.57</ele>
        <time>2022-10-10T12:43:22Z</time>
      </trkpt>
      <trkpt lat="43.7896" lon="5.91597">
        <ele>388.72</ele>
        <time>2022-10-10T12:43:23Z</time>
      </trkpt>
      <trkpt lat="43.78943" lon="5.91588">
        <ele>388.72</ele>
        <time>2022-10-10T12:43:24Z</time>
      </trkpt>
      <trkpt lat="43.78925" lon="5.91582">
        <ele>388.7</ele>
        <time>2022-10-10T12:43:25Z</time>
      </trkpt>
      <trkpt lat="43.78907" lon="5.91576">
        <ele>388.7</ele>
        <time>2022-10-10T12:43:26Z</time>
      </trkpt>
      <trkpt lat="43.78854" lon="5.91562">
        <ele>391.1</ele>
        <time>2022-10-10T12:43:29Z</time>
      </trkpt>
      <trkpt lat="43.78674" lon="5.91476">
        <ele>392.31</ele>
        <time>2022-10-10T12:43:39Z</time>
      </trkpt>
      <trkpt lat="43.78638" lon="5.91455">
        <ele>389.16</ele>
        <time>2022-10-10T12:43:41Z</time>
      </trkpt>
      <trkpt lat="43.78581" lon="5.91417">
        <ele>385.36</ele>
        <time>2022-10-10T12:43:44Z</time>
      </trkpt>
      <trkpt lat="43.78544" lon="5.91393">
        <ele>382.32</ele>
        <time>2022-10-10T12:43:46Z</time>
      </trkpt>
      <trkpt lat="43.78493" lon="5.91358">
        <ele>378.77</ele>
        <time>2022-10-10T12:43:49Z</time>
      </trkpt>
      <trkpt lat="43.78477" lon="5.91347">
        <ele>378.77</ele>
        <time>2022-10-10T12:43:50Z</time>
      </trkpt>
      <trkpt lat="43.78293" lon="5.9119">
        <ele>378.03</ele>
        <time>2022-10-10T12:44:03Z</time>
      </trkpt>
      <trkpt lat="43.78094" lon="5.91011">
        <ele>376.87</ele>
        <time>2022-10-10T12:44:16Z</time>
      </trkpt>
      <trkpt lat="43.77981" lon="5.90884">
        <ele>375.8</ele>
        <time>2022-10-10T12:44:24Z</time>
      </trkpt>
      <trkpt lat="43.77924" lon="5.90813">
        <ele>374.41</ele>
        <time>2022-10-10T12:44:28Z</time>
      </trkpt>
      <trkpt lat="43.77825" lon="5.90688">
        <ele>371.39</ele>
        <time>2022-10-10T12:44:35Z</time>
      </trkpt>
      <trkpt lat="43.77783" lon="5.90635">
        <ele>369.89</ele>
        <time>2022-10-10T12:44:38Z</time>
      </trkpt>
      <trkpt lat="43.77672" lon="5.90486">
        <ele>367.51</ele>
        <time>2022-10-10T12:44:47Z</time>
      </trkpt>
      <trkpt lat="43.77535" lon="5.90281">
        <ele>367.43</ele>
        <time>2022-10-10T12:44:58Z</time>
      </trkpt>
      <trkpt lat="43.77519" lon="5.90268">
        <ele>367.44</ele>
        <time>2022-10-10T12:44:59Z</time>
      </trkpt>
      <trkpt lat="43.77502" lon="5.90258">
        <ele>367.44</ele>
        <time>2022-10-10T12:45:00Z</time>
      </trkpt>
      <trkpt lat="43.77485" lon="5.9025">
        <ele>367.43</ele>
        <time>2022-10-10T12:45:01Z</time>
      </trkpt>
      <trkpt lat="43.77469" lon="5.90242">
        <ele>366.18</ele>
        <time>2022-10-10T12:45:02Z</time>
      </trkpt>
      <trkpt lat="43.77453" lon="5.90233">
        <ele>365.31</ele>
        <time>2022-10-10T12:45:03Z</time>
      </trkpt>
      <trkpt lat="43.77439" lon="5.9022">
        <ele>363.88</ele>
        <time>2022-10-10T12:45:04Z</time>
      </trkpt>
      <trkpt lat="43.77426" lon="5.90206">
        <ele>363.83</ele>
        <time>2022-10-10T12:45:05Z</time>
      </trkpt>
      <trkpt lat="43.77412" lon="5.90193">
        <ele>362.38</ele>
        <time>2022-10-10T12:45:06Z</time>
      </trkpt>
      <trkpt lat="43.77395" lon="5.90183">
        <ele>361.24</ele>
        <time>2022-10-10T12:45:07Z</time>
      </trkpt>
      <trkpt lat="43.77377" lon="5.90178">
        <ele>361.26</ele>
        <time>2022-10-10T12:45:08Z</time>
      </trkpt>
      <trkpt lat="43.77358" lon="5.90177">
        <ele>361.42</ele>
        <time>2022-10-10T12:45:09Z</time>
      </trkpt>
      <trkpt lat="43.7734" lon="5.90177">
        <ele>361.42</ele>
        <time>2022-10-10T12:45:10Z</time>
      </trkpt>
      <trkpt lat="43.77321" lon="5.90179">
        <ele>360.47</ele>
        <time>2022-10-10T12:45:11Z</time>
      </trkpt>
      <trkpt lat="43.77304" lon="5.90182">
        <ele>359.17</ele>
        <time>2022-10-10T12:45:12Z</time>
      </trkpt>
      <trkpt lat="43.77271" lon="5.90186">
        <ele>356.41</ele>
        <time>2022-10-10T12:45:14Z</time>
      </trkpt>
      <trkpt lat="43.77256" lon="5.90181">
        <ele>355.26</ele>
        <time>2022-10-10T12:45:15Z</time>
      </trkpt>
      <trkpt lat="43.77244" lon="5.9017">
        <ele>355.33</ele>
        <time>2022-10-10T12:45:16Z</time>
      </trkpt>
      <trkpt lat="43.77233" lon="5.90155">
        <ele>355.25</ele>
        <time>2022-10-10T12:45:17Z</time>
      </trkpt>
      <trkpt lat="43.77226" lon="5.90136">
        <ele>355.25</ele>
        <time>2022-10-10T12:45:18Z</time>
      </trkpt>
      <trkpt lat="43.77219" lon="5.90114">
        <ele>355.17</ele>
        <time>2022-10-10T12:45:19Z</time>
      </trkpt>
      <trkpt lat="43.77211" lon="5.90092">
        <ele>355.2</ele>
        <time>2022-10-10T12:45:20Z</time>
      </trkpt>
      <trkpt lat="43.77201" lon="5.9007">
        <ele>355.24</ele>
        <time>2022-10-10T12:45:21Z</time>
      </trkpt>
      <trkpt lat="43.77128" lon="5.89959">
        <ele>352.48</ele>
        <time>2022-10-10T12:45:27Z</time>
      </trkpt>
      <trkpt lat="43.77049" lon="5.89883">
        <ele>349.17</ele>
        <time>2022-10-10T12:45:32Z</time>
      </trkpt>
      <trkpt lat="43.76989" lon="5.89825">
        <ele>345.27</ele>
        <time>2022-10-10T12:45:36Z</time>
      </trkpt>
      <trkpt lat="43.76975" lon="5.89808">
        <ele>345.22</ele>
        <time>2022-10-10T12:45:37Z</time>
      </trkpt>
      <trkpt lat="43.7692" lon="5.89733">
        <ele>342.72</ele>
        <time>2022-10-10T12:45:41Z</time>
      </trkpt>
      <trkpt lat="43.76854" lon="5.89634">
        <ele>341.36</ele>
        <time>2022-10-10T12:45:46Z</time>
      </trkpt>
      <trkpt lat="43.76751" lon="5.8948">
        <ele>340.35</ele>
        <time>2022-10-10T12:45:54Z</time>
      </trkpt>
      <trkpt lat="43.76742" lon="5.8946">
        <ele>340.39</ele>
        <time>2022-10-10T12:45:55Z</time>
      </trkpt>
      <trkpt lat="43.76673" lon="5.89306">
        <ele>339.18</ele>
        <time>2022-10-10T12:46:03Z</time>
      </trkpt>
      <trkpt lat="43.76665" lon="5.89293">
        <ele>339.16</ele>
        <time>2022-10-10T12:46:04Z</time>
      </trkpt>
      <trkpt lat="43.76655" lon="5.89283">
        <ele>339.16</ele>
        <time>2022-10-10T12:46:05Z</time>
      </trkpt>
      <trkpt lat="43.76644" lon="5.89276">
        <ele>339.17</ele>
        <time>2022-10-10T12:46:06Z</time>
      </trkpt>
      <trkpt lat="43.76632" lon="5.8927">
        <ele>339.16</ele>
        <time>2022-10-10T12:46:07Z</time>
      </trkpt>
      <trkpt lat="43.76619" lon="5.89265">
        <ele>339.15</ele>
        <time>2022-10-10T12:46:08Z</time>
      </trkpt>
      <trkpt lat="43.76566" lon="5.89236">
        <ele>339.17</ele>
        <time>2022-10-10T12:46:12Z</time>
      </trkpt>
      <trkpt lat="43.76554" lon="5.89223">
        <ele>339.14</ele>
        <time>2022-10-10T12:46:13Z</time>
      </trkpt>
      <trkpt lat="43.76543" lon="5.89208">
        <ele>339.15</ele>
        <time>2022-10-10T12:46:14Z</time>
      </trkpt>
      <trkpt lat="43.76457" lon="5.89055">
        <ele>338.34</ele>
        <time>2022-10-10T12:46:23Z</time>
      </trkpt>
      <trkpt lat="43.76424" lon="5.88983">
        <ele>338.35</ele>
        <time>2022-10-10T12:46:27Z</time>
      </trkpt>
      <trkpt lat="43.76414" lon="5.88969">
        <ele>338.35</ele>
        <time>2022-10-10T12:46:28Z</time>
      </trkpt>
      <trkpt lat="43.76402" lon="5.88958">
        <ele>338.35</ele>
        <time>2022-10-10T12:46:29Z</time>
      </trkpt>
      <trkpt lat="43.7639" lon="5.88948">
        <ele>338.35</ele>
        <time>2022-10-10T12:46:30Z</time>
      </trkpt>
      <trkpt lat="43.76378" lon="5.88939">
        <ele>338.35</ele>
        <time>2022-10-10T12:46:31Z</time>
      </trkpt>
      <trkpt lat="43.76366" lon="5.88932">
        <ele>337.44</ele>
        <time>2022-10-10T12:46:32Z</time>
      </trkpt>
      <trkpt lat="43.76353" lon="5.88927">
        <ele>337.43</ele>
        <time>2022-10-10T12:46:33Z</time>
      </trkpt>
      <trkpt lat="43.7634" lon="5.88923">
        <ele>335.88</ele>
        <time>2022-10-10T12:46:34Z</time>
      </trkpt>
      <trkpt lat="43.76328" lon="5.88919">
        <ele>335.87</ele>
        <time>2022-10-10T12:46:35Z</time>
      </trkpt>
      <trkpt lat="43.76298" lon="5.88909">
        <ele>333.39</ele>
        <time>2022-10-10T12:46:38Z</time>
      </trkpt>
      <trkpt lat="43.76282" lon="5.88902">
        <ele>331.86</ele>
        <time>2022-10-10T12:46:40Z</time>
      </trkpt>
      <trkpt lat="43.76272" lon="5.88902">
        <ele>330.52</ele>
        <time>2022-10-10T12:46:41Z</time>
      </trkpt>
      <trkpt lat="43.76262" lon="5.88905">
        <ele>330.55</ele>
        <time>2022-10-10T12:46:42Z</time>
      </trkpt>
      <trkpt lat="43.7625" lon="5.88906">
        <ele>330.45</ele>
        <time>2022-10-10T12:46:43Z</time>
      </trkpt>
      <trkpt lat="43.76193" lon="5.88904">
        <ele>329.15</ele>
        <time>2022-10-10T12:46:48Z</time>
      </trkpt>
      <trkpt lat="43.76179" lon="5.88901">
        <ele>328.63</ele>
        <time>2022-10-10T12:46:50Z</time>
      </trkpt>
      <trkpt lat="43.76174" lon="5.88896">
        <ele>327.84</ele>
        <time>2022-10-10T12:46:51Z</time>
      </trkpt>
      <trkpt lat="43.7617" lon="5.88887">
        <ele>327.85</ele>
        <time>2022-10-10T12:46:52Z</time>
      </trkpt>
      <trkpt lat="43.76165" lon="5.88878">
        <ele>327.79</ele>
        <time>2022-10-10T12:46:53Z</time>
      </trkpt>
      <trkpt lat="43.76158" lon="5.8887">
        <ele>327.81</ele>
        <time>2022-10-10T12:46:54Z</time>
      </trkpt>
      <trkpt lat="43.7615" lon="5.88864">
        <ele>331.03</ele>
        <time>2022-10-10T12:46:55Z</time>
      </trkpt>
      <trkpt lat="43.76141" lon="5.88858">
        <ele>332.21</ele>
        <time>2022-10-10T12:46:56Z</time>
      </trkpt>
      <trkpt lat="43.76132" lon="5.88851">
        <ele>333.12</ele>
        <time>2022-10-10T12:46:57Z</time>
      </trkpt>
      <trkpt lat="43.76124" lon="5.88842">
        <ele>335.31</ele>
        <time>2022-10-10T12:46:58Z</time>
      </trkpt>
      <trkpt lat="43.76115" lon="5.88833">
        <ele>336.77</ele>
        <time>2022-10-10T12:46:59Z</time>
      </trkpt>
      <trkpt lat="43.76108" lon="5.88823">
        <ele>338.65</ele>
        <time>2022-10-10T12:47:00Z</time>
      </trkpt>
      <trkpt lat="43.76101" lon="5.88812">
        <ele>340.54</ele>
        <time>2022-10-10T12:47:01Z</time>
      </trkpt>
      <trkpt lat="43.76087" lon="5.88791">
        <ele>344.39</ele>
        <time>2022-10-10T12:47:03Z</time>
      </trkpt>
      <trkpt lat="43.76079" lon="5.88782">
        <ele>345.58</ele>
        <time>2022-10-10T12:47:04Z</time>
      </trkpt>
      <trkpt lat="43.7607" lon="5.88774">
        <ele>347.11</ele>
        <time>2022-10-10T12:47:05Z</time>
      </trkpt>
      <trkpt lat="43.76061" lon="5.88766">
        <ele>348.2</ele>
        <time>2022-10-10T12:47:06Z</time>
      </trkpt>
      <trkpt lat="43.76051" lon="5.88758">
        <ele>349.52</ele>
        <time>2022-10-10T12:47:07Z</time>
      </trkpt>
      <trkpt lat="43.76041" lon="5.88751">
        <ele>349.4</ele>
        <time>2022-10-10T12:47:08Z</time>
      </trkpt>
      <trkpt lat="43.76031" lon="5.88743">
        <ele>349.52</ele>
        <time>2022-10-10T12:47:09Z</time>
      </trkpt>
      <trkpt lat="43.76022" lon="5.88733">
        <ele>349.52</ele>
        <time>2022-10-10T12:47:10Z</time>
      </trkpt>
      <trkpt lat="43.76016" lon="5.88721">
        <ele>349.51</ele>
        <time>2022-10-10T12:47:11Z</time>
      </trkpt>
      <trkpt lat="43.76012" lon="5.88708">
        <ele>349.75</ele>
        <time>2022-10-10T12:47:12Z</time>
      </trkpt>
      <trkpt lat="43.76012" lon="5.88694">
        <ele>349.39</ele>
        <time>2022-10-10T12:47:13Z</time>
      </trkpt>
      <trkpt lat="43.76014" lon="5.88681">
        <ele>349.43</ele>
        <time>2022-10-10T12:47:14Z</time>
      </trkpt>
      <trkpt lat="43.76018" lon="5.88669">
        <ele>349.37</ele>
        <time>2022-10-10T12:47:15Z</time>
      </trkpt>
      <trkpt lat="43.76024" lon="5.88657">
        <ele>349.3</ele>
        <time>2022-10-10T12:47:16Z</time>
      </trkpt>
      <trkpt lat="43.76031" lon="5.88644">
        <ele>349.13</ele>
        <time>2022-10-10T12:47:17Z</time>
      </trkpt>
      <trkpt lat="43.76045" lon="5.88616">
        <ele>349.67</ele>
        <time>2022-10-10T12:47:19Z</time>
      </trkpt>
      <trkpt lat="43.7605" lon="5.886">
        <ele>350.72</ele>
        <time>2022-10-10T12:47:20Z</time>
      </trkpt>
      <trkpt lat="43.76052" lon="5.88586">
        <ele>350.74</ele>
        <time>2022-10-10T12:47:21Z</time>
      </trkpt>
      <trkpt lat="43.76057" lon="5.88556">
        <ele>352.65</ele>
        <time>2022-10-10T12:47:24Z</time>
      </trkpt>
      <trkpt lat="43.76057" lon="5.88551">
        <ele>353.67</ele>
        <time>2022-10-10T12:47:25Z</time>
      </trkpt>
      <trkpt lat="43.76056" lon="5.88548">
        <ele>353.65</ele>
        <time>2022-10-10T12:47:26Z</time>
      </trkpt>
      <trkpt lat="43.76053" lon="5.88546">
        <ele>353.66</ele>
        <time>2022-10-10T12:47:27Z</time>
      </trkpt>
      <trkpt lat="43.76046" lon="5.88546">
        <ele>353.7</ele>
        <time>2022-10-10T12:47:28Z</time>
      </trkpt>
      <trkpt lat="43.76038" lon="5.88547">
        <ele>354.54</ele>
        <time>2022-10-10T12:47:29Z</time>
      </trkpt>
      <trkpt lat="43.75971" lon="5.88537">
        <ele>350.14</ele>
        <time>2022-10-10T12:47:35Z</time>
      </trkpt>
      <trkpt lat="43.75941" lon="5.88528">
        <ele>348.26</ele>
        <time>2022-10-10T12:47:38Z</time>
      </trkpt>
      <trkpt lat="43.75923" lon="5.88523">
        <ele>346.68</ele>
        <time>2022-10-10T12:47:40Z</time>
      </trkpt>
      <trkpt lat="43.75906" lon="5.88518">
        <ele>345.1</ele>
        <time>2022-10-10T12:47:42Z</time>
      </trkpt>
      <trkpt lat="43.75893" lon="5.88514">
        <ele>343.83</ele>
        <time>2022-10-10T12:47:44Z</time>
      </trkpt>
      <trkpt lat="43.75868" lon="5.8851">
        <ele>341.3</ele>
        <time>2022-10-10T12:47:49Z</time>
      </trkpt>
      <trkpt lat="43.75866" lon="5.88511">
        <ele>341.23</ele>
        <time>2022-10-10T12:47:50Z</time>
      </trkpt>
      <trkpt lat="43.75864" lon="5.88516">
        <ele>340.37</ele>
        <time>2022-10-10T12:48:04Z</time>
      </trkpt>
      <trkpt lat="43.75865" lon="5.88517">
        <ele>324.02</ele>
        <time>2022-10-10T12:48:26Z</time>
      </trkpt>
      <trkpt lat="43.75835" lon="5.88581">
        <ele>336.15</ele>
        <time>2022-10-10T13:09:47Z</time>
      </trkpt>
      <trkpt lat="43.75815" lon="5.88646">
        <ele>334.13</ele>
        <time>2022-10-10T13:09:52Z</time>
      </trkpt>
      <trkpt lat="43.75812" lon="5.88657">
        <ele>332.85</ele>
        <time>2022-10-10T13:09:53Z</time>
      </trkpt>
      <trkpt lat="43.75803" lon="5.887">
        <ele>329.85</ele>
        <time>2022-10-10T13:09:57Z</time>
      </trkpt>
      <trkpt lat="43.75799" lon="5.88746">
        <ele>327.12</ele>
        <time>2022-10-10T13:10:01Z</time>
      </trkpt>
      <trkpt lat="43.75798" lon="5.88753">
        <ele>325.7</ele>
        <time>2022-10-10T13:10:02Z</time>
      </trkpt>
      <trkpt lat="43.75796" lon="5.88758">
        <ele>325.64</ele>
        <time>2022-10-10T13:10:03Z</time>
      </trkpt>
      <trkpt lat="43.75795" lon="5.8876">
        <ele>324.89</ele>
        <time>2022-10-10T13:10:04Z</time>
      </trkpt>
      <trkpt lat="43.75794" lon="5.88761">
        <ele>324.9</ele>
        <time>2022-10-10T13:10:05Z</time>
      </trkpt>
      <trkpt lat="43.75793" lon="5.88762">
        <ele>324.83</ele>
        <time>2022-10-10T13:10:06Z</time>
      </trkpt>
      <trkpt lat="43.75791" lon="5.88764">
        <ele>324.86</ele>
        <time>2022-10-10T13:10:07Z</time>
      </trkpt>
      <trkpt lat="43.75772" lon="5.88778">
        <ele>324.86</ele>
        <time>2022-10-10T13:10:11Z</time>
      </trkpt>
      <trkpt lat="43.75715" lon="5.88791">
        <ele>327.61</ele>
        <time>2022-10-10T13:10:17Z</time>
      </trkpt>
      <trkpt lat="43.75684" lon="5.88799">
        <ele>329.69</ele>
        <time>2022-10-10T13:10:20Z</time>
      </trkpt>
      <trkpt lat="43.75674" lon="5.888">
        <ele>331.02</ele>
        <time>2022-10-10T13:10:21Z</time>
      </trkpt>
      <trkpt lat="43.75665" lon="5.88798">
        <ele>331.08</ele>
        <time>2022-10-10T13:10:22Z</time>
      </trkpt>
      <trkpt lat="43.75656" lon="5.8879">
        <ele>331.11</ele>
        <time>2022-10-10T13:10:23Z</time>
      </trkpt>
      <trkpt lat="43.75648" lon="5.88778">
        <ele>332.59</ele>
        <time>2022-10-10T13:10:24Z</time>
      </trkpt>
      <trkpt lat="43.75641" lon="5.88765">
        <ele>334.42</ele>
        <time>2022-10-10T13:10:25Z</time>
      </trkpt>
      <trkpt lat="43.75635" lon="5.8875">
        <ele>334.42</ele>
        <time>2022-10-10T13:10:26Z</time>
      </trkpt>
      <trkpt lat="43.75631" lon="5.88734">
        <ele>334.47</ele>
        <time>2022-10-10T13:10:27Z</time>
      </trkpt>
      <trkpt lat="43.75629" lon="5.88718">
        <ele>335.05</ele>
        <time>2022-10-10T13:10:28Z</time>
      </trkpt>
      <trkpt lat="43.75629" lon="5.88702">
        <ele>335.1</ele>
        <time>2022-10-10T13:10:29Z</time>
      </trkpt>
      <trkpt lat="43.75631" lon="5.88673">
        <ele>336.5</ele>
        <time>2022-10-10T13:10:31Z</time>
      </trkpt>
      <trkpt lat="43.75637" lon="5.88612">
        <ele>339.82</ele>
        <time>2022-10-10T13:10:35Z</time>
      </trkpt>
      <trkpt lat="43.75638" lon="5.88595">
        <ele>339.81</ele>
        <time>2022-10-10T13:10:36Z</time>
      </trkpt>
      <trkpt lat="43.75643" lon="5.88515">
        <ele>342.71</ele>
        <time>2022-10-10T13:10:41Z</time>
      </trkpt>
      <trkpt lat="43.75644" lon="5.88457">
        <ele>344.62</ele>
        <time>2022-10-10T13:10:45Z</time>
      </trkpt>
      <trkpt lat="43.75639" lon="5.88414">
        <ele>344.62</ele>
        <time>2022-10-10T13:10:48Z</time>
      </trkpt>
      <trkpt lat="43.7564" lon="5.884">
        <ele>344.63</ele>
        <time>2022-10-10T13:10:49Z</time>
      </trkpt>
      <trkpt lat="43.75643" lon="5.88387">
        <ele>344.67</ele>
        <time>2022-10-10T13:10:50Z</time>
      </trkpt>
      <trkpt lat="43.75648" lon="5.88376">
        <ele>344.6</ele>
        <time>2022-10-10T13:10:51Z</time>
      </trkpt>
      <trkpt lat="43.75655" lon="5.88366">
        <ele>344.55</ele>
        <time>2022-10-10T13:10:52Z</time>
      </trkpt>
      <trkpt lat="43.75663" lon="5.88357">
        <ele>344.26</ele>
        <time>2022-10-10T13:10:53Z</time>
      </trkpt>
      <trkpt lat="43.75679" lon="5.88342">
        <ele>344.27</ele>
        <time>2022-10-10T13:10:55Z</time>
      </trkpt>
      <trkpt lat="43.75687" lon="5.88337">
        <ele>344.26</ele>
        <time>2022-10-10T13:10:56Z</time>
      </trkpt>
      <trkpt lat="43.7572" lon="5.8832">
        <ele>341.74</ele>
        <time>2022-10-10T13:11:00Z</time>
      </trkpt>
      <trkpt lat="43.75753" lon="5.88298">
        <ele>341.64</ele>
        <time>2022-10-10T13:11:05Z</time>
      </trkpt>
      <trkpt lat="43.7576" lon="5.88291">
        <ele>341.64</ele>
        <time>2022-10-10T13:11:06Z</time>
      </trkpt>
      <trkpt lat="43.75765" lon="5.88283">
        <ele>340.48</ele>
        <time>2022-10-10T13:11:07Z</time>
      </trkpt>
      <trkpt lat="43.75787" lon="5.88255">
        <ele>340.38</ele>
        <time>2022-10-10T13:11:11Z</time>
      </trkpt>
      <trkpt lat="43.75793" lon="5.88249">
        <ele>340.4</ele>
        <time>2022-10-10T13:11:12Z</time>
      </trkpt>
      <trkpt lat="43.75844" lon="5.88223">
        <ele>340.49</ele>
        <time>2022-10-10T13:11:20Z</time>
      </trkpt>
      <trkpt lat="43.75863" lon="5.88211">
        <ele>340.5</ele>
        <time>2022-10-10T13:11:27Z</time>
      </trkpt>
      <trkpt lat="43.75864" lon="5.88205">
        <ele>340.5</ele>
        <time>2022-10-10T13:11:28Z</time>
      </trkpt>
      <trkpt lat="43.75864" lon="5.88198">
        <ele>340.5</ele>
        <time>2022-10-10T13:11:29Z</time>
      </trkpt>
      <trkpt lat="43.75862" lon="5.8819">
        <ele>340.47</ele>
        <time>2022-10-10T13:11:30Z</time>
      </trkpt>
      <trkpt lat="43.75859" lon="5.8818">
        <ele>342.84</ele>
        <time>2022-10-10T13:11:31Z</time>
      </trkpt>
      <trkpt lat="43.75857" lon="5.88169">
        <ele>342.81</ele>
        <time>2022-10-10T13:11:32Z</time>
      </trkpt>
      <trkpt lat="43.75848" lon="5.88139">
        <ele>342.8</ele>
        <time>2022-10-10T13:11:35Z</time>
      </trkpt>
      <trkpt lat="43.75843" lon="5.88132">
        <ele>342.75</ele>
        <time>2022-10-10T13:11:36Z</time>
      </trkpt>
      <trkpt lat="43.75824" lon="5.88097">
        <ele>342.66</ele>
        <time>2022-10-10T13:11:40Z</time>
      </trkpt>
      <trkpt lat="43.75821" lon="5.88087">
        <ele>339.95</ele>
        <time>2022-10-10T13:11:41Z</time>
      </trkpt>
      <trkpt lat="43.7582" lon="5.88076">
        <ele>338.77</ele>
        <time>2022-10-10T13:11:42Z</time>
      </trkpt>
      <trkpt lat="43.75822" lon="5.88065">
        <ele>337.7</ele>
        <time>2022-10-10T13:11:43Z</time>
      </trkpt>
      <trkpt lat="43.75825" lon="5.88055">
        <ele>337.71</ele>
        <time>2022-10-10T13:11:44Z</time>
      </trkpt>
      <trkpt lat="43.7583" lon="5.88046">
        <ele>336.9</ele>
        <time>2022-10-10T13:11:45Z</time>
      </trkpt>
      <trkpt lat="43.75836" lon="5.88038">
        <ele>336.89</ele>
        <time>2022-10-10T13:11:46Z</time>
      </trkpt>
      <trkpt lat="43.75841" lon="5.8803">
        <ele>335.79</ele>
        <time>2022-10-10T13:11:47Z</time>
      </trkpt>
      <trkpt lat="43.75846" lon="5.88023">
        <ele>335.79</ele>
        <time>2022-10-10T13:11:48Z</time>
      </trkpt>
      <trkpt lat="43.75849" lon="5.88014">
        <ele>335.68</ele>
        <time>2022-10-10T13:11:49Z</time>
      </trkpt>
      <trkpt lat="43.7585" lon="5.88005">
        <ele>334.96</ele>
        <time>2022-10-10T13:11:50Z</time>
      </trkpt>
      <trkpt lat="43.75849" lon="5.87995">
        <ele>334.95</ele>
        <time>2022-10-10T13:11:51Z</time>
      </trkpt>
      <trkpt lat="43.75846" lon="5.87986">
        <ele>334.1</ele>
        <time>2022-10-10T13:11:52Z</time>
      </trkpt>
      <trkpt lat="43.75843" lon="5.87976">
        <ele>334.09</ele>
        <time>2022-10-10T13:11:53Z</time>
      </trkpt>
      <trkpt lat="43.75839" lon="5.87965">
        <ele>333.11</ele>
        <time>2022-10-10T13:11:54Z</time>
      </trkpt>
      <trkpt lat="43.75826" lon="5.87933">
        <ele>331.72</ele>
        <time>2022-10-10T13:11:57Z</time>
      </trkpt>
      <trkpt lat="43.75823" lon="5.8792">
        <ele>330.76</ele>
        <time>2022-10-10T13:11:58Z</time>
      </trkpt>
      <trkpt lat="43.75816" lon="5.87877">
        <ele>328.85</ele>
        <time>2022-10-10T13:12:01Z</time>
      </trkpt>
      <trkpt lat="43.75812" lon="5.87863">
        <ele>328.81</ele>
        <time>2022-10-10T13:12:02Z</time>
      </trkpt>
      <trkpt lat="43.75807" lon="5.8785">
        <ele>327.7</ele>
        <time>2022-10-10T13:12:03Z</time>
      </trkpt>
      <trkpt lat="43.758" lon="5.87837">
        <ele>327.65</ele>
        <time>2022-10-10T13:12:04Z</time>
      </trkpt>
      <trkpt lat="43.75793" lon="5.87824">
        <ele>325.45</ele>
        <time>2022-10-10T13:12:05Z</time>
      </trkpt>
      <trkpt lat="43.7578" lon="5.87798">
        <ele>323.28</ele>
        <time>2022-10-10T13:12:07Z</time>
      </trkpt>
      <trkpt lat="43.75775" lon="5.87783">
        <ele>322.02</ele>
        <time>2022-10-10T13:12:08Z</time>
      </trkpt>
      <trkpt lat="43.75772" lon="5.87768">
        <ele>321.96</ele>
        <time>2022-10-10T13:12:09Z</time>
      </trkpt>
      <trkpt lat="43.7577" lon="5.87753">
        <ele>321.03</ele>
        <time>2022-10-10T13:12:10Z</time>
      </trkpt>
      <trkpt lat="43.75769" lon="5.87738">
        <ele>319.47</ele>
        <time>2022-10-10T13:12:11Z</time>
      </trkpt>
      <trkpt lat="43.75769" lon="5.87723">
        <ele>319.4</ele>
        <time>2022-10-10T13:12:12Z</time>
      </trkpt>
      <trkpt lat="43.75771" lon="5.87709">
        <ele>318</ele>
        <time>2022-10-10T13:12:13Z</time>
      </trkpt>
      <trkpt lat="43.75772" lon="5.87695">
        <ele>317.93</ele>
        <time>2022-10-10T13:12:14Z</time>
      </trkpt>
      <trkpt lat="43.75778" lon="5.87631">
        <ele>315.01</ele>
        <time>2022-10-10T13:12:19Z</time>
      </trkpt>
      <trkpt lat="43.75779" lon="5.87608">
        <ele>313.12</ele>
        <time>2022-10-10T13:12:21Z</time>
      </trkpt>
      <trkpt lat="43.75778" lon="5.87596">
        <ele>313.2</ele>
        <time>2022-10-10T13:12:22Z</time>
      </trkpt>
      <trkpt lat="43.75775" lon="5.87584">
        <ele>313.12</ele>
        <time>2022-10-10T13:12:23Z</time>
      </trkpt>
      <trkpt lat="43.75771" lon="5.87573">
        <ele>311.71</ele>
        <time>2022-10-10T13:12:24Z</time>
      </trkpt>
      <trkpt lat="43.75765" lon="5.87563">
        <ele>311.57</ele>
        <time>2022-10-10T13:12:25Z</time>
      </trkpt>
      <trkpt lat="43.75759" lon="5.87554">
        <ele>311.68</ele>
        <time>2022-10-10T13:12:26Z</time>
      </trkpt>
      <trkpt lat="43.7575" lon="5.87543">
        <ele>310.8</ele>
        <time>2022-10-10T13:12:27Z</time>
      </trkpt>
      <trkpt lat="43.75741" lon="5.87532">
        <ele>310.8</ele>
        <time>2022-10-10T13:12:28Z</time>
      </trkpt>
      <trkpt lat="43.75716" lon="5.87498">
        <ele>308.83</ele>
        <time>2022-10-10T13:12:31Z</time>
      </trkpt>
      <trkpt lat="43.7571" lon="5.87485">
        <ele>306.97</ele>
        <time>2022-10-10T13:12:32Z</time>
      </trkpt>
      <trkpt lat="43.75705" lon="5.8747">
        <ele>307.02</ele>
        <time>2022-10-10T13:12:33Z</time>
      </trkpt>
      <trkpt lat="43.75703" lon="5.87456">
        <ele>305.81</ele>
        <time>2022-10-10T13:12:34Z</time>
      </trkpt>
      <trkpt lat="43.75701" lon="5.87441">
        <ele>305.86</ele>
        <time>2022-10-10T13:12:35Z</time>
      </trkpt>
      <trkpt lat="43.75696" lon="5.87394">
        <ele>303.78</ele>
        <time>2022-10-10T13:12:38Z</time>
      </trkpt>
      <trkpt lat="43.75675" lon="5.87247">
        <ele>303.67</ele>
        <time>2022-10-10T13:12:44Z</time>
      </trkpt>
      <trkpt lat="43.75669" lon="5.87174">
        <ele>301.46</ele>
        <time>2022-10-10T13:12:47Z</time>
      </trkpt>
      <trkpt lat="43.75671" lon="5.87151">
        <ele>301.46</ele>
        <time>2022-10-10T13:12:48Z</time>
      </trkpt>
      <trkpt lat="43.75681" lon="5.87003">
        <ele>300.68</ele>
        <time>2022-10-10T13:12:55Z</time>
      </trkpt>
      <trkpt lat="43.75679" lon="5.86984">
        <ele>300.58</ele>
        <time>2022-10-10T13:12:56Z</time>
      </trkpt>
      <trkpt lat="43.75675" lon="5.86965">
        <ele>300.57</ele>
        <time>2022-10-10T13:12:57Z</time>
      </trkpt>
      <trkpt lat="43.75669" lon="5.86946">
        <ele>300.55</ele>
        <time>2022-10-10T13:12:58Z</time>
      </trkpt>
      <trkpt lat="43.75662" lon="5.86928">
        <ele>300.46</ele>
        <time>2022-10-10T13:12:59Z</time>
      </trkpt>
      <trkpt lat="43.75653" lon="5.86912">
        <ele>300.34</ele>
        <time>2022-10-10T13:13:00Z</time>
      </trkpt>
      <trkpt lat="43.75644" lon="5.86896">
        <ele>299.22</ele>
        <time>2022-10-10T13:13:01Z</time>
      </trkpt>
      <trkpt lat="43.75573" lon="5.86775">
        <ele>298.28</ele>
        <time>2022-10-10T13:13:09Z</time>
      </trkpt>
      <trkpt lat="43.75566" lon="5.86757">
        <ele>298.23</ele>
        <time>2022-10-10T13:13:10Z</time>
      </trkpt>
      <trkpt lat="43.75561" lon="5.86738">
        <ele>298.25</ele>
        <time>2022-10-10T13:13:11Z</time>
      </trkpt>
      <trkpt lat="43.75558" lon="5.86717">
        <ele>297.38</ele>
        <time>2022-10-10T13:13:12Z</time>
      </trkpt>
      <trkpt lat="43.75556" lon="5.86697">
        <ele>297.39</ele>
        <time>2022-10-10T13:13:13Z</time>
      </trkpt>
      <trkpt lat="43.75544" lon="5.86596">
        <ele>297.36</ele>
        <time>2022-10-10T13:13:18Z</time>
      </trkpt>
      <trkpt lat="43.75538" lon="5.86575">
        <ele>297.39</ele>
        <time>2022-10-10T13:13:19Z</time>
      </trkpt>
      <trkpt lat="43.7553" lon="5.86556">
        <ele>297.42</ele>
        <time>2022-10-10T13:13:20Z</time>
      </trkpt>
      <trkpt lat="43.75497" lon="5.86481">
        <ele>299.83</ele>
        <time>2022-10-10T13:13:24Z</time>
      </trkpt>
      <trkpt lat="43.75474" lon="5.86406">
        <ele>302.51</ele>
        <time>2022-10-10T13:13:27Z</time>
      </trkpt>
      <trkpt lat="43.7545" lon="5.86319">
        <ele>303.21</ele>
        <time>2022-10-10T13:13:30Z</time>
      </trkpt>
      <trkpt lat="43.7544" lon="5.86292">
        <ele>304.47</ele>
        <time>2022-10-10T13:13:31Z</time>
      </trkpt>
      <trkpt lat="43.75427" lon="5.86266">
        <ele>304.5</ele>
        <time>2022-10-10T13:13:32Z</time>
      </trkpt>
      <trkpt lat="43.75412" lon="5.86243">
        <ele>304.49</ele>
        <time>2022-10-10T13:13:33Z</time>
      </trkpt>
      <trkpt lat="43.75396" lon="5.86222">
        <ele>304.48</ele>
        <time>2022-10-10T13:13:34Z</time>
      </trkpt>
      <trkpt lat="43.75366" lon="5.86177">
        <ele>304.48</ele>
        <time>2022-10-10T13:13:36Z</time>
      </trkpt>
      <trkpt lat="43.75355" lon="5.86152">
        <ele>304.48</ele>
        <time>2022-10-10T13:13:37Z</time>
      </trkpt>
      <trkpt lat="43.75345" lon="5.86125">
        <ele>304.46</ele>
        <time>2022-10-10T13:13:38Z</time>
      </trkpt>
      <trkpt lat="43.75338" lon="5.86097">
        <ele>304.45</ele>
        <time>2022-10-10T13:13:39Z</time>
      </trkpt>
      <trkpt lat="43.75331" lon="5.86069">
        <ele>304.45</ele>
        <time>2022-10-10T13:13:40Z</time>
      </trkpt>
      <trkpt lat="43.75316" lon="5.86013">
        <ele>301.83</ele>
        <time>2022-10-10T13:13:42Z</time>
      </trkpt>
      <trkpt lat="43.75254" lon="5.85797">
        <ele>298.35</ele>
        <time>2022-10-10T13:13:50Z</time>
      </trkpt>
      <trkpt lat="43.75246" lon="5.85771">
        <ele>298.35</ele>
        <time>2022-10-10T13:13:51Z</time>
      </trkpt>
      <trkpt lat="43.75237" lon="5.85746">
        <ele>298.31</ele>
        <time>2022-10-10T13:13:52Z</time>
      </trkpt>
      <trkpt lat="43.75217" lon="5.85699">
        <ele>298.56</ele>
        <time>2022-10-10T13:13:54Z</time>
      </trkpt>
      <trkpt lat="43.7521" lon="5.85674">
        <ele>298.55</ele>
        <time>2022-10-10T13:13:55Z</time>
      </trkpt>
      <trkpt lat="43.75205" lon="5.85647">
        <ele>297.26</ele>
        <time>2022-10-10T13:13:56Z</time>
      </trkpt>
      <trkpt lat="43.75202" lon="5.8562">
        <ele>297.26</ele>
        <time>2022-10-10T13:13:57Z</time>
      </trkpt>
      <trkpt lat="43.75185" lon="5.85487">
        <ele>297.16</ele>
        <time>2022-10-10T13:14:02Z</time>
      </trkpt>
      <trkpt lat="43.75178" lon="5.85462">
        <ele>297.18</ele>
        <time>2022-10-10T13:14:03Z</time>
      </trkpt>
      <trkpt lat="43.75168" lon="5.85439">
        <ele>297.15</ele>
        <time>2022-10-10T13:14:04Z</time>
      </trkpt>
      <trkpt lat="43.75155" lon="5.85418">
        <ele>297.15</ele>
        <time>2022-10-10T13:14:05Z</time>
      </trkpt>
      <trkpt lat="43.75141" lon="5.85397">
        <ele>297.17</ele>
        <time>2022-10-10T13:14:06Z</time>
      </trkpt>
      <trkpt lat="43.74931" lon="5.85086">
        <ele>296.39</ele>
        <time>2022-10-10T13:14:21Z</time>
      </trkpt>
      <trkpt lat="43.74846" lon="5.84911">
        <ele>294.43</ele>
        <time>2022-10-10T13:14:29Z</time>
      </trkpt>
      <trkpt lat="43.7484" lon="5.84889">
        <ele>294.41</ele>
        <time>2022-10-10T13:14:30Z</time>
      </trkpt>
      <trkpt lat="43.74837" lon="5.84865">
        <ele>294.36</ele>
        <time>2022-10-10T13:14:31Z</time>
      </trkpt>
      <trkpt lat="43.74829" lon="5.84815">
        <ele>293.4</ele>
        <time>2022-10-10T13:14:33Z</time>
      </trkpt>
      <trkpt lat="43.7482" lon="5.84793">
        <ele>293.41</ele>
        <time>2022-10-10T13:14:34Z</time>
      </trkpt>
      <trkpt lat="43.74809" lon="5.84774">
        <ele>292.07</ele>
        <time>2022-10-10T13:14:35Z</time>
      </trkpt>
      <trkpt lat="43.74795" lon="5.84756">
        <ele>292.07</ele>
        <time>2022-10-10T13:14:36Z</time>
      </trkpt>
      <trkpt lat="43.74781" lon="5.84739">
        <ele>292.01</ele>
        <time>2022-10-10T13:14:37Z</time>
      </trkpt>
      <trkpt lat="43.74627" lon="5.8455">
        <ele>289.98</ele>
        <time>2022-10-10T13:14:48Z</time>
      </trkpt>
      <trkpt lat="43.74611" lon="5.84537">
        <ele>289.95</ele>
        <time>2022-10-10T13:14:49Z</time>
      </trkpt>
      <trkpt lat="43.74594" lon="5.84528">
        <ele>289.97</ele>
        <time>2022-10-10T13:14:50Z</time>
      </trkpt>
      <trkpt lat="43.74576" lon="5.84524">
        <ele>289.98</ele>
        <time>2022-10-10T13:14:51Z</time>
      </trkpt>
      <trkpt lat="43.74541" lon="5.84514">
        <ele>289.19</ele>
        <time>2022-10-10T13:14:53Z</time>
      </trkpt>
      <trkpt lat="43.74526" lon="5.84501">
        <ele>289.18</ele>
        <time>2022-10-10T13:14:54Z</time>
      </trkpt>
      <trkpt lat="43.74513" lon="5.84485">
        <ele>289.18</ele>
        <time>2022-10-10T13:14:55Z</time>
      </trkpt>
      <trkpt lat="43.74403" lon="5.84344">
        <ele>289.2</ele>
        <time>2022-10-10T13:15:03Z</time>
      </trkpt>
      <trkpt lat="43.74156" lon="5.84132">
        <ele>288.37</ele>
        <time>2022-10-10T13:15:18Z</time>
      </trkpt>
      <trkpt lat="43.74021" lon="5.84056">
        <ele>288.42</ele>
        <time>2022-10-10T13:15:26Z</time>
      </trkpt>
      <trkpt lat="43.73986" lon="5.84046">
        <ele>290.77</ele>
        <time>2022-10-10T13:15:28Z</time>
      </trkpt>
      <trkpt lat="43.73855" lon="5.84025">
        <ele>294.21</ele>
        <time>2022-10-10T13:15:35Z</time>
      </trkpt>
      <trkpt lat="43.73836" lon="5.84023">
        <ele>294.18</ele>
        <time>2022-10-10T13:15:36Z</time>
      </trkpt>
      <trkpt lat="43.7378" lon="5.8402">
        <ele>297.53</ele>
        <time>2022-10-10T13:15:39Z</time>
      </trkpt>
      <trkpt lat="43.73762" lon="5.8402">
        <ele>297.54</ele>
        <time>2022-10-10T13:15:40Z</time>
      </trkpt>
      <trkpt lat="43.73726" lon="5.84025">
        <ele>299.11</ele>
        <time>2022-10-10T13:15:42Z</time>
      </trkpt>
      <trkpt lat="43.73693" lon="5.84031">
        <ele>300.54</ele>
        <time>2022-10-10T13:15:44Z</time>
      </trkpt>
      <trkpt lat="43.73678" lon="5.8403">
        <ele>300.6</ele>
        <time>2022-10-10T13:15:45Z</time>
      </trkpt>
      <trkpt lat="43.73666" lon="5.84021">
        <ele>300.6</ele>
        <time>2022-10-10T13:15:46Z</time>
      </trkpt>
      <trkpt lat="43.73655" lon="5.84008">
        <ele>301.61</ele>
        <time>2022-10-10T13:15:47Z</time>
      </trkpt>
      <trkpt lat="43.73638" lon="5.83975">
        <ele>302.78</ele>
        <time>2022-10-10T13:15:49Z</time>
      </trkpt>
      <trkpt lat="43.73632" lon="5.83957">
        <ele>302.78</ele>
        <time>2022-10-10T13:15:50Z</time>
      </trkpt>
      <trkpt lat="43.73631" lon="5.83937">
        <ele>304.1</ele>
        <time>2022-10-10T13:15:51Z</time>
      </trkpt>
      <trkpt lat="43.73633" lon="5.83915">
        <ele>305.07</ele>
        <time>2022-10-10T13:15:52Z</time>
      </trkpt>
      <trkpt lat="43.73638" lon="5.83891">
        <ele>305.01</ele>
        <time>2022-10-10T13:15:53Z</time>
      </trkpt>
      <trkpt lat="43.73652" lon="5.83798">
        <ele>306.01</ele>
        <time>2022-10-10T13:15:57Z</time>
      </trkpt>
      <trkpt lat="43.7365" lon="5.83775">
        <ele>306.06</ele>
        <time>2022-10-10T13:15:58Z</time>
      </trkpt>
      <trkpt lat="43.73644" lon="5.83754">
        <ele>307</ele>
        <time>2022-10-10T13:15:59Z</time>
      </trkpt>
      <trkpt lat="43.73634" lon="5.83733">
        <ele>307.05</ele>
        <time>2022-10-10T13:16:00Z</time>
      </trkpt>
      <trkpt lat="43.73622" lon="5.83714">
        <ele>307.94</ele>
        <time>2022-10-10T13:16:01Z</time>
      </trkpt>
      <trkpt lat="43.73608" lon="5.83694">
        <ele>308.84</ele>
        <time>2022-10-10T13:16:02Z</time>
      </trkpt>
      <trkpt lat="43.73595" lon="5.83673">
        <ele>308.84</ele>
        <time>2022-10-10T13:16:03Z</time>
      </trkpt>
      <trkpt lat="43.73557" lon="5.83615">
        <ele>308.86</ele>
        <time>2022-10-10T13:16:06Z</time>
      </trkpt>
      <trkpt lat="43.73542" lon="5.83599">
        <ele>308.9</ele>
        <time>2022-10-10T13:16:07Z</time>
      </trkpt>
      <trkpt lat="43.73526" lon="5.83585">
        <ele>306.45</ele>
        <time>2022-10-10T13:16:08Z</time>
      </trkpt>
      <trkpt lat="43.7351" lon="5.83572">
        <ele>306.44</ele>
        <time>2022-10-10T13:16:09Z</time>
      </trkpt>
      <trkpt lat="43.73464" lon="5.83531">
        <ele>306.43</ele>
        <time>2022-10-10T13:16:12Z</time>
      </trkpt>
      <trkpt lat="43.73451" lon="5.83514">
        <ele>306.36</ele>
        <time>2022-10-10T13:16:13Z</time>
      </trkpt>
      <trkpt lat="43.73438" lon="5.83496">
        <ele>306.29</ele>
        <time>2022-10-10T13:16:14Z</time>
      </trkpt>
      <trkpt lat="43.73406" lon="5.83437">
        <ele>305.29</ele>
        <time>2022-10-10T13:16:17Z</time>
      </trkpt>
      <trkpt lat="43.73399" lon="5.83416">
        <ele>305.3</ele>
        <time>2022-10-10T13:16:18Z</time>
      </trkpt>
      <trkpt lat="43.73394" lon="5.83394">
        <ele>305.41</ele>
        <time>2022-10-10T13:16:19Z</time>
      </trkpt>
      <trkpt lat="43.73355" lon="5.83216">
        <ele>301.81</ele>
        <time>2022-10-10T13:16:27Z</time>
      </trkpt>
      <trkpt lat="43.73343" lon="5.83181">
        <ele>300.73</ele>
        <time>2022-10-10T13:16:29Z</time>
      </trkpt>
      <trkpt lat="43.73304" lon="5.83044">
        <ele>297.04</ele>
        <time>2022-10-10T13:16:37Z</time>
      </trkpt>
      <trkpt lat="43.73301" lon="5.83024">
        <ele>296.96</ele>
        <time>2022-10-10T13:16:38Z</time>
      </trkpt>
      <trkpt lat="43.73296" lon="5.82964">
        <ele>295.2</ele>
        <time>2022-10-10T13:16:41Z</time>
      </trkpt>
      <trkpt lat="43.733" lon="5.8284">
        <ele>293.55</ele>
        <time>2022-10-10T13:16:47Z</time>
      </trkpt>
      <trkpt lat="43.73298" lon="5.82819">
        <ele>293.55</ele>
        <time>2022-10-10T13:16:48Z</time>
      </trkpt>
      <trkpt lat="43.73295" lon="5.82799">
        <ele>293.51</ele>
        <time>2022-10-10T13:16:49Z</time>
      </trkpt>
      <trkpt lat="43.73264" lon="5.82617">
        <ele>290.25</ele>
        <time>2022-10-10T13:16:58Z</time>
      </trkpt>
      <trkpt lat="43.7326" lon="5.82509">
        <ele>288.27</ele>
        <time>2022-10-10T13:17:03Z</time>
      </trkpt>
      <trkpt lat="43.73257" lon="5.8242">
        <ele>286.06</ele>
        <time>2022-10-10T13:17:07Z</time>
      </trkpt>
      <trkpt lat="43.73222" lon="5.82206">
        <ele>283.92</ele>
        <time>2022-10-10T13:17:17Z</time>
      </trkpt>
      <trkpt lat="43.73214" lon="5.82166">
        <ele>282.62</ele>
        <time>2022-10-10T13:17:19Z</time>
      </trkpt>
      <trkpt lat="43.73184" lon="5.8202">
        <ele>280.54</ele>
        <time>2022-10-10T13:17:28Z</time>
      </trkpt>
      <trkpt lat="43.73172" lon="5.81941">
        <ele>279.4</ele>
        <time>2022-10-10T13:17:38Z</time>
      </trkpt>
      <trkpt lat="43.73164" lon="5.8184">
        <ele>278.76</ele>
        <time>2022-10-10T13:17:48Z</time>
      </trkpt>
      <trkpt lat="43.73158" lon="5.8179">
        <ele>278.76</ele>
        <time>2022-10-10T13:17:51Z</time>
      </trkpt>
      <trkpt lat="43.73153" lon="5.81771">
        <ele>278.78</ele>
        <time>2022-10-10T13:17:52Z</time>
      </trkpt>
      <trkpt lat="43.73129" lon="5.81654">
        <ele>278.78</ele>
        <time>2022-10-10T13:17:59Z</time>
      </trkpt>
      <trkpt lat="43.73124" lon="5.81619">
        <ele>278.83</ele>
        <time>2022-10-10T13:18:01Z</time>
      </trkpt>
      <trkpt lat="43.73119" lon="5.81603">
        <ele>278.84</ele>
        <time>2022-10-10T13:18:02Z</time>
      </trkpt>
      <trkpt lat="43.73114" lon="5.81589">
        <ele>278.8</ele>
        <time>2022-10-10T13:18:03Z</time>
      </trkpt>
      <trkpt lat="43.73083" lon="5.81523">
        <ele>276.93</ele>
        <time>2022-10-10T13:18:08Z</time>
      </trkpt>
      <trkpt lat="43.72993" lon="5.81327">
        <ele>276.02</ele>
        <time>2022-10-10T13:18:22Z</time>
      </trkpt>
      <trkpt lat="43.72969" lon="5.8129">
        <ele>274.91</ele>
        <time>2022-10-10T13:18:28Z</time>
      </trkpt>
      <trkpt lat="43.72969" lon="5.81288">
        <ele>273.91</ele>
        <time>2022-10-10T13:18:40Z</time>
      </trkpt>
      <trkpt lat="43.72968" lon="5.81284">
        <ele>273.88</ele>
        <time>2022-10-10T13:18:41Z</time>
      </trkpt>
      <trkpt lat="43.72967" lon="5.81279">
        <ele>273.9</ele>
        <time>2022-10-10T13:18:42Z</time>
      </trkpt>
      <trkpt lat="43.72963" lon="5.81274">
        <ele>273.89</ele>
        <time>2022-10-10T13:18:43Z</time>
      </trkpt>
      <trkpt lat="43.72958" lon="5.81272">
        <ele>273.91</ele>
        <time>2022-10-10T13:18:44Z</time>
      </trkpt>
      <trkpt lat="43.72951" lon="5.8127">
        <ele>273.9</ele>
        <time>2022-10-10T13:18:45Z</time>
      </trkpt>
      <trkpt lat="43.72906" lon="5.81261">
        <ele>273.91</ele>
        <time>2022-10-10T13:18:50Z</time>
      </trkpt>
      <trkpt lat="43.72895" lon="5.81262">
        <ele>273.92</ele>
        <time>2022-10-10T13:18:51Z</time>
      </trkpt>
      <trkpt lat="43.72884" lon="5.81264">
        <ele>273.92</ele>
        <time>2022-10-10T13:18:52Z</time>
      </trkpt>
      <trkpt lat="43.72741" lon="5.81299">
        <ele>273.88</ele>
        <time>2022-10-10T13:19:05Z</time>
      </trkpt>
      <trkpt lat="43.72715" lon="5.81312">
        <ele>273.89</ele>
        <time>2022-10-10T13:19:08Z</time>
      </trkpt>
      <trkpt lat="43.72707" lon="5.81314">
        <ele>273.88</ele>
        <time>2022-10-10T13:19:09Z</time>
      </trkpt>
      <trkpt lat="43.72699" lon="5.81314">
        <ele>273.88</ele>
        <time>2022-10-10T13:19:10Z</time>
      </trkpt>
      <trkpt lat="43.72691" lon="5.81312">
        <ele>273.9</ele>
        <time>2022-10-10T13:19:11Z</time>
      </trkpt>
      <trkpt lat="43.72685" lon="5.81308">
        <ele>273.9</ele>
        <time>2022-10-10T13:19:12Z</time>
      </trkpt>
      <trkpt lat="43.7268" lon="5.81303">
        <ele>273.88</ele>
        <time>2022-10-10T13:19:13Z</time>
      </trkpt>
      <trkpt lat="43.72676" lon="5.81297">
        <ele>273.02</ele>
        <time>2022-10-10T13:19:14Z</time>
      </trkpt>
      <trkpt lat="43.72673" lon="5.8129">
        <ele>272.98</ele>
        <time>2022-10-10T13:19:15Z</time>
      </trkpt>
      <trkpt lat="43.72672" lon="5.81283">
        <ele>272.95</ele>
        <time>2022-10-10T13:19:16Z</time>
      </trkpt>
      <trkpt lat="43.72671" lon="5.81276">
        <ele>272.93</ele>
        <time>2022-10-10T13:19:17Z</time>
      </trkpt>
      <trkpt lat="43.72671" lon="5.81269">
        <ele>271.84</ele>
        <time>2022-10-10T13:19:18Z</time>
      </trkpt>
      <trkpt lat="43.7267" lon="5.81264">
        <ele>271.79</ele>
        <time>2022-10-10T13:19:19Z</time>
      </trkpt>
      <trkpt lat="43.7267" lon="5.81224">
        <ele>269.5</ele>
        <time>2022-10-10T13:19:31Z</time>
      </trkpt>
      <trkpt lat="43.72668" lon="5.8119">
        <ele>268.5</ele>
        <time>2022-10-10T13:19:40Z</time>
      </trkpt>
      <trkpt lat="43.72668" lon="5.81188">
        <ele>268.5</ele>
        <time>2022-10-10T13:19:42Z</time>
      </trkpt>
      <trkpt lat="43.72668" lon="5.81186">
        <ele>268.5</ele>
        <time>2022-10-10T13:19:43Z</time>
      </trkpt>
      <trkpt lat="43.72663" lon="5.81149">
        <ele>268.55</ele>
        <time>2022-10-10T13:19:50Z</time>
      </trkpt>
      <trkpt lat="43.72657" lon="5.81131">
        <ele>268.55</ele>
        <time>2022-10-10T13:19:52Z</time>
      </trkpt>
      <trkpt lat="43.72652" lon="5.81122">
        <ele>268.55</ele>
        <time>2022-10-10T13:19:53Z</time>
      </trkpt>
      <trkpt lat="43.72646" lon="5.81112">
        <ele>268.56</ele>
        <time>2022-10-10T13:19:54Z</time>
      </trkpt>
      <trkpt lat="43.72638" lon="5.81104">
        <ele>268.55</ele>
        <time>2022-10-10T13:19:55Z</time>
      </trkpt>
      <trkpt lat="43.7263" lon="5.81097">
        <ele>268.56</ele>
        <time>2022-10-10T13:19:56Z</time>
      </trkpt>
      <trkpt lat="43.7262" lon="5.81092">
        <ele>268.56</ele>
        <time>2022-10-10T13:19:57Z</time>
      </trkpt>
      <trkpt lat="43.72611" lon="5.81088">
        <ele>268.57</ele>
        <time>2022-10-10T13:19:58Z</time>
      </trkpt>
      <trkpt lat="43.72602" lon="5.81085">
        <ele>268.58</ele>
        <time>2022-10-10T13:19:59Z</time>
      </trkpt>
      <trkpt lat="43.72592" lon="5.81083">
        <ele>268.57</ele>
        <time>2022-10-10T13:20:00Z</time>
      </trkpt>
      <trkpt lat="43.72583" lon="5.81082">
        <ele>268.58</ele>
        <time>2022-10-10T13:20:01Z</time>
      </trkpt>
      <trkpt lat="43.72473" lon="5.81068">
        <ele>268.55</ele>
        <time>2022-10-10T13:20:12Z</time>
      </trkpt>
      <trkpt lat="43.72371" lon="5.81054">
        <ele>268.55</ele>
        <time>2022-10-10T13:20:23Z</time>
      </trkpt>
      <trkpt lat="43.72281" lon="5.81041">
        <ele>268.59</ele>
        <time>2022-10-10T13:20:33Z</time>
      </trkpt>
      <trkpt lat="43.72269" lon="5.81037">
        <ele>268.64</ele>
        <time>2022-10-10T13:20:35Z</time>
      </trkpt>
      <trkpt lat="43.72263" lon="5.81039">
        <ele>268.59</ele>
        <time>2022-10-10T13:20:36Z</time>
      </trkpt>
      <trkpt lat="43.72259" lon="5.81045">
        <ele>268.59</ele>
        <time>2022-10-10T13:20:37Z</time>
      </trkpt>
      <trkpt lat="43.72258" lon="5.81054">
        <ele>268.59</ele>
        <time>2022-10-10T13:20:38Z</time>
      </trkpt>
      <trkpt lat="43.72259" lon="5.81065">
        <ele>268.59</ele>
        <time>2022-10-10T13:20:39Z</time>
      </trkpt>
      <trkpt lat="43.72259" lon="5.81076">
        <ele>268.6</ele>
        <time>2022-10-10T13:20:40Z</time>
      </trkpt>
      <trkpt lat="43.72258" lon="5.81089">
        <ele>268.6</ele>
        <time>2022-10-10T13:20:41Z</time>
      </trkpt>
      <trkpt lat="43.72254" lon="5.81129">
        <ele>271.2</ele>
        <time>2022-10-10T13:20:44Z</time>
      </trkpt>
      <trkpt lat="43.7225" lon="5.81156">
        <ele>272.62</ele>
        <time>2022-10-10T13:20:46Z</time>
      </trkpt>
      <trkpt lat="43.72243" lon="5.812">
        <ele>275.92</ele>
        <time>2022-10-10T13:20:49Z</time>
      </trkpt>
      <trkpt lat="43.7224" lon="5.81212">
        <ele>275.99</ele>
        <time>2022-10-10T13:20:50Z</time>
      </trkpt>
      <trkpt lat="43.72238" lon="5.81223">
        <ele>277.45</ele>
        <time>2022-10-10T13:20:51Z</time>
      </trkpt>
      <trkpt lat="43.72237" lon="5.81233">
        <ele>277.26</ele>
        <time>2022-10-10T13:20:52Z</time>
      </trkpt>
      <trkpt lat="43.72233" lon="5.81249">
        <ele>278.86</ele>
        <time>2022-10-10T13:20:54Z</time>
      </trkpt>
      <trkpt lat="43.7223" lon="5.81256">
        <ele>278.97</ele>
        <time>2022-10-10T13:20:55Z</time>
      </trkpt>
      <trkpt lat="43.72226" lon="5.81262">
        <ele>279.99</ele>
        <time>2022-10-10T13:20:56Z</time>
      </trkpt>
      <trkpt lat="43.7222" lon="5.81267">
        <ele>279.98</ele>
        <time>2022-10-10T13:20:57Z</time>
      </trkpt>
      <trkpt lat="43.72212" lon="5.81271">
        <ele>280.04</ele>
        <time>2022-10-10T13:20:58Z</time>
      </trkpt>
      <trkpt lat="43.72203" lon="5.81274">
        <ele>281.64</ele>
        <time>2022-10-10T13:20:59Z</time>
      </trkpt>
      <trkpt lat="43.72195" lon="5.81277">
        <ele>281.69</ele>
        <time>2022-10-10T13:21:00Z</time>
      </trkpt>
      <trkpt lat="43.72166" lon="5.81288">
        <ele>282.48</ele>
        <time>2022-10-10T13:21:03Z</time>
      </trkpt>
      <trkpt lat="43.72156" lon="5.81289">
        <ele>283.8</ele>
        <time>2022-10-10T13:21:04Z</time>
      </trkpt>
      <trkpt lat="43.72146" lon="5.81288">
        <ele>283.79</ele>
        <time>2022-10-10T13:21:05Z</time>
      </trkpt>
      <trkpt lat="43.72136" lon="5.81285">
        <ele>284.59</ele>
        <time>2022-10-10T13:21:06Z</time>
      </trkpt>
      <trkpt lat="43.72126" lon="5.81281">
        <ele>284.66</ele>
        <time>2022-10-10T13:21:07Z</time>
      </trkpt>
      <trkpt lat="43.72094" lon="5.81265">
        <ele>286.47</ele>
        <time>2022-10-10T13:21:10Z</time>
      </trkpt>
      <trkpt lat="43.72065" lon="5.81245">
        <ele>288.27</ele>
        <time>2022-10-10T13:21:13Z</time>
      </trkpt>
      <trkpt lat="43.72055" lon="5.8124">
        <ele>289.25</ele>
        <time>2022-10-10T13:21:14Z</time>
      </trkpt>
      <trkpt lat="43.72044" lon="5.81239">
        <ele>290.39</ele>
        <time>2022-10-10T13:21:15Z</time>
      </trkpt>
      <trkpt lat="43.72034" lon="5.8124">
        <ele>290.4</ele>
        <time>2022-10-10T13:21:16Z</time>
      </trkpt>
      <trkpt lat="43.72001" lon="5.81245">
        <ele>292.84</ele>
        <time>2022-10-10T13:21:19Z</time>
      </trkpt>
      <trkpt lat="43.71991" lon="5.81244">
        <ele>293.89</ele>
        <time>2022-10-10T13:21:20Z</time>
      </trkpt>
      <trkpt lat="43.71981" lon="5.8124">
        <ele>293.9</ele>
        <time>2022-10-10T13:21:21Z</time>
      </trkpt>
      <trkpt lat="43.71972" lon="5.81234">
        <ele>295.21</ele>
        <time>2022-10-10T13:21:22Z</time>
      </trkpt>
      <trkpt lat="43.71965" lon="5.81226">
        <ele>295.21</ele>
        <time>2022-10-10T13:21:23Z</time>
      </trkpt>
      <trkpt lat="43.7196" lon="5.81218">
        <ele>296.34</ele>
        <time>2022-10-10T13:21:24Z</time>
      </trkpt>
      <trkpt lat="43.71955" lon="5.81211">
        <ele>296.4</ele>
        <time>2022-10-10T13:21:25Z</time>
      </trkpt>
      <trkpt lat="43.71948" lon="5.81204">
        <ele>296.43</ele>
        <time>2022-10-10T13:21:26Z</time>
      </trkpt>
      <trkpt lat="43.71941" lon="5.812">
        <ele>297.55</ele>
        <time>2022-10-10T13:21:27Z</time>
      </trkpt>
      <trkpt lat="43.71932" lon="5.81199">
        <ele>298.67</ele>
        <time>2022-10-10T13:21:28Z</time>
      </trkpt>
      <trkpt lat="43.71923" lon="5.812">
        <ele>299.54</ele>
        <time>2022-10-10T13:21:29Z</time>
      </trkpt>
      <trkpt lat="43.71914" lon="5.81205">
        <ele>300.36</ele>
        <time>2022-10-10T13:21:30Z</time>
      </trkpt>
      <trkpt lat="43.71906" lon="5.81214">
        <ele>301.33</ele>
        <time>2022-10-10T13:21:31Z</time>
      </trkpt>
      <trkpt lat="43.71899" lon="5.81224">
        <ele>302.33</ele>
        <time>2022-10-10T13:21:32Z</time>
      </trkpt>
      <trkpt lat="43.71891" lon="5.81235">
        <ele>302.41</ele>
        <time>2022-10-10T13:21:33Z</time>
      </trkpt>
      <trkpt lat="43.71866" lon="5.81267">
        <ele>305.69</ele>
        <time>2022-10-10T13:21:36Z</time>
      </trkpt>
      <trkpt lat="43.71857" lon="5.81276">
        <ele>305.84</ele>
        <time>2022-10-10T13:21:37Z</time>
      </trkpt>
      <trkpt lat="43.71847" lon="5.81284">
        <ele>306.92</ele>
        <time>2022-10-10T13:21:38Z</time>
      </trkpt>
      <trkpt lat="43.71837" lon="5.81291">
        <ele>308.37</ele>
        <time>2022-10-10T13:21:39Z</time>
      </trkpt>
      <trkpt lat="43.71802" lon="5.81307">
        <ele>311.4</ele>
        <time>2022-10-10T13:21:42Z</time>
      </trkpt>
      <trkpt lat="43.71791" lon="5.8131">
        <ele>312.55</ele>
        <time>2022-10-10T13:21:43Z</time>
      </trkpt>
      <trkpt lat="43.71779" lon="5.81311">
        <ele>312.55</ele>
        <time>2022-10-10T13:21:44Z</time>
      </trkpt>
      <trkpt lat="43.71757" lon="5.81312">
        <ele>314.58</ele>
        <time>2022-10-10T13:21:46Z</time>
      </trkpt>
      <trkpt lat="43.71746" lon="5.81315">
        <ele>315.48</ele>
        <time>2022-10-10T13:21:47Z</time>
      </trkpt>
      <trkpt lat="43.71736" lon="5.81319">
        <ele>316.57</ele>
        <time>2022-10-10T13:21:48Z</time>
      </trkpt>
      <trkpt lat="43.71726" lon="5.81326">
        <ele>316.64</ele>
        <time>2022-10-10T13:21:49Z</time>
      </trkpt>
      <trkpt lat="43.71717" lon="5.81334">
        <ele>318.01</ele>
        <time>2022-10-10T13:21:50Z</time>
      </trkpt>
      <trkpt lat="43.71708" lon="5.81343">
        <ele>319.28</ele>
        <time>2022-10-10T13:21:51Z</time>
      </trkpt>
      <trkpt lat="43.71699" lon="5.81354">
        <ele>319.2</ele>
        <time>2022-10-10T13:21:52Z</time>
      </trkpt>
      <trkpt lat="43.7167" lon="5.81385">
        <ele>323.02</ele>
        <time>2022-10-10T13:21:55Z</time>
      </trkpt>
      <trkpt lat="43.71648" lon="5.81402">
        <ele>324.88</ele>
        <time>2022-10-10T13:21:57Z</time>
      </trkpt>
      <trkpt lat="43.71636" lon="5.81409">
        <ele>325.94</ele>
        <time>2022-10-10T13:21:58Z</time>
      </trkpt>
      <trkpt lat="43.71591" lon="5.81431">
        <ele>328.43</ele>
        <time>2022-10-10T13:22:02Z</time>
      </trkpt>
      <trkpt lat="43.71582" lon="5.81436">
        <ele>329.5</ele>
        <time>2022-10-10T13:22:03Z</time>
      </trkpt>
      <trkpt lat="43.71575" lon="5.81443">
        <ele>329.58</ele>
        <time>2022-10-10T13:22:04Z</time>
      </trkpt>
      <trkpt lat="43.71568" lon="5.81452">
        <ele>330.91</ele>
        <time>2022-10-10T13:22:05Z</time>
      </trkpt>
      <trkpt lat="43.71563" lon="5.81463">
        <ele>330.98</ele>
        <time>2022-10-10T13:22:06Z</time>
      </trkpt>
      <trkpt lat="43.7156" lon="5.81476">
        <ele>331.92</ele>
        <time>2022-10-10T13:22:07Z</time>
      </trkpt>
      <trkpt lat="43.71559" lon="5.8149">
        <ele>333.02</ele>
        <time>2022-10-10T13:22:08Z</time>
      </trkpt>
      <trkpt lat="43.71558" lon="5.81505">
        <ele>334.14</ele>
        <time>2022-10-10T13:22:09Z</time>
      </trkpt>
      <trkpt lat="43.71557" lon="5.81521">
        <ele>335.72</ele>
        <time>2022-10-10T13:22:10Z</time>
      </trkpt>
      <trkpt lat="43.71554" lon="5.81537">
        <ele>335.81</ele>
        <time>2022-10-10T13:22:11Z</time>
      </trkpt>
      <trkpt lat="43.7155" lon="5.81553">
        <ele>337.08</ele>
        <time>2022-10-10T13:22:12Z</time>
      </trkpt>
      <trkpt lat="43.71538" lon="5.81598">
        <ele>338.98</ele>
        <time>2022-10-10T13:22:15Z</time>
      </trkpt>
      <trkpt lat="43.71529" lon="5.81621">
        <ele>339.85</ele>
        <time>2022-10-10T13:22:17Z</time>
      </trkpt>
      <trkpt lat="43.71524" lon="5.81631">
        <ele>341.49</ele>
        <time>2022-10-10T13:22:18Z</time>
      </trkpt>
      <trkpt lat="43.71516" lon="5.81639">
        <ele>341.59</ele>
        <time>2022-10-10T13:22:19Z</time>
      </trkpt>
      <trkpt lat="43.71508" lon="5.81642">
        <ele>342.62</ele>
        <time>2022-10-10T13:22:20Z</time>
      </trkpt>
      <trkpt lat="43.71499" lon="5.81641">
        <ele>342.55</ele>
        <time>2022-10-10T13:22:21Z</time>
      </trkpt>
      <trkpt lat="43.71491" lon="5.81636">
        <ele>343.68</ele>
        <time>2022-10-10T13:22:22Z</time>
      </trkpt>
      <trkpt lat="43.71485" lon="5.81626">
        <ele>344.05</ele>
        <time>2022-10-10T13:22:23Z</time>
      </trkpt>
      <trkpt lat="43.7148" lon="5.81613">
        <ele>345.68</ele>
        <time>2022-10-10T13:22:24Z</time>
      </trkpt>
      <trkpt lat="43.71475" lon="5.816">
        <ele>346.85</ele>
        <time>2022-10-10T13:22:25Z</time>
      </trkpt>
      <trkpt lat="43.71469" lon="5.81586">
        <ele>346.94</ele>
        <time>2022-10-10T13:22:26Z</time>
      </trkpt>
      <trkpt lat="43.71451" lon="5.81548">
        <ele>350.44</ele>
        <time>2022-10-10T13:22:29Z</time>
      </trkpt>
      <trkpt lat="43.71443" lon="5.81537">
        <ele>351.29</ele>
        <time>2022-10-10T13:22:30Z</time>
      </trkpt>
      <trkpt lat="43.71435" lon="5.81529">
        <ele>352.32</ele>
        <time>2022-10-10T13:22:31Z</time>
      </trkpt>
      <trkpt lat="43.71425" lon="5.81522">
        <ele>353.14</ele>
        <time>2022-10-10T13:22:32Z</time>
      </trkpt>
      <trkpt lat="43.71414" lon="5.81519">
        <ele>354.1</ele>
        <time>2022-10-10T13:22:33Z</time>
      </trkpt>
      <trkpt lat="43.71402" lon="5.81517">
        <ele>355.11</ele>
        <time>2022-10-10T13:22:34Z</time>
      </trkpt>
      <trkpt lat="43.71364" lon="5.81509">
        <ele>357.64</ele>
        <time>2022-10-10T13:22:37Z</time>
      </trkpt>
      <trkpt lat="43.71337" lon="5.81503">
        <ele>359.9</ele>
        <time>2022-10-10T13:22:39Z</time>
      </trkpt>
      <trkpt lat="43.71297" lon="5.81495">
        <ele>362.07</ele>
        <time>2022-10-10T13:22:42Z</time>
      </trkpt>
      <trkpt lat="43.71256" lon="5.81488">
        <ele>365.02</ele>
        <time>2022-10-10T13:22:45Z</time>
      </trkpt>
      <trkpt lat="43.71242" lon="5.81487">
        <ele>366.62</ele>
        <time>2022-10-10T13:22:46Z</time>
      </trkpt>
      <trkpt lat="43.71229" lon="5.81489">
        <ele>367.38</ele>
        <time>2022-10-10T13:22:47Z</time>
      </trkpt>
      <trkpt lat="43.71215" lon="5.81492">
        <ele>368.54</ele>
        <time>2022-10-10T13:22:48Z</time>
      </trkpt>
      <trkpt lat="43.71202" lon="5.81498">
        <ele>367.76</ele>
        <time>2022-10-10T13:22:49Z</time>
      </trkpt>
      <trkpt lat="43.71189" lon="5.81505">
        <ele>368.72</ele>
        <time>2022-10-10T13:22:50Z</time>
      </trkpt>
      <trkpt lat="43.71175" lon="5.81513">
        <ele>369.61</ele>
        <time>2022-10-10T13:22:51Z</time>
      </trkpt>
      <trkpt lat="43.71161" lon="5.81522">
        <ele>369.69</ele>
        <time>2022-10-10T13:22:52Z</time>
      </trkpt>
      <trkpt lat="43.71136" lon="5.81542">
        <ele>370.9</ele>
        <time>2022-10-10T13:22:54Z</time>
      </trkpt>
      <trkpt lat="43.71109" lon="5.81559">
        <ele>370.94</ele>
        <time>2022-10-10T13:22:56Z</time>
      </trkpt>
      <trkpt lat="43.71096" lon="5.81563">
        <ele>372.55</ele>
        <time>2022-10-10T13:22:57Z</time>
      </trkpt>
      <trkpt lat="43.71083" lon="5.81567">
        <ele>372.62</ele>
        <time>2022-10-10T13:22:58Z</time>
      </trkpt>
      <trkpt lat="43.71002" lon="5.81591">
        <ele>373.49</ele>
        <time>2022-10-10T13:23:06Z</time>
      </trkpt>
      <trkpt lat="43.70995" lon="5.81597">
        <ele>373.49</ele>
        <time>2022-10-10T13:23:07Z</time>
      </trkpt>
      <trkpt lat="43.7099" lon="5.81606">
        <ele>373.5</ele>
        <time>2022-10-10T13:23:08Z</time>
      </trkpt>
      <trkpt lat="43.70987" lon="5.81617">
        <ele>373.48</ele>
        <time>2022-10-10T13:23:09Z</time>
      </trkpt>
      <trkpt lat="43.70984" lon="5.81629">
        <ele>373.41</ele>
        <time>2022-10-10T13:23:10Z</time>
      </trkpt>
      <trkpt lat="43.70982" lon="5.81642">
        <ele>370.98</ele>
        <time>2022-10-10T13:23:11Z</time>
      </trkpt>
      <trkpt lat="43.70972" lon="5.81688">
        <ele>368.83</ele>
        <time>2022-10-10T13:23:14Z</time>
      </trkpt>
      <trkpt lat="43.70963" lon="5.81739">
        <ele>365.6</ele>
        <time>2022-10-10T13:23:17Z</time>
      </trkpt>
      <trkpt lat="43.70962" lon="5.81756">
        <ele>364.71</ele>
        <time>2022-10-10T13:23:18Z</time>
      </trkpt>
      <trkpt lat="43.70963" lon="5.81772">
        <ele>363.64</ele>
        <time>2022-10-10T13:23:19Z</time>
      </trkpt>
      <trkpt lat="43.70966" lon="5.81787">
        <ele>363.57</ele>
        <time>2022-10-10T13:23:20Z</time>
      </trkpt>
      <trkpt lat="43.70967" lon="5.81814">
        <ele>360.36</ele>
        <time>2022-10-10T13:23:22Z</time>
      </trkpt>
      <trkpt lat="43.70965" lon="5.81825">
        <ele>360.36</ele>
        <time>2022-10-10T13:23:23Z</time>
      </trkpt>
      <trkpt lat="43.70959" lon="5.81833">
        <ele>359.3</ele>
        <time>2022-10-10T13:23:24Z</time>
      </trkpt>
      <trkpt lat="43.70951" lon="5.81837">
        <ele>359.15</ele>
        <time>2022-10-10T13:23:25Z</time>
      </trkpt>
      <trkpt lat="43.70944" lon="5.81837">
        <ele>358.39</ele>
        <time>2022-10-10T13:23:26Z</time>
      </trkpt>
      <trkpt lat="43.70935" lon="5.81834">
        <ele>358.47</ele>
        <time>2022-10-10T13:23:27Z</time>
      </trkpt>
      <trkpt lat="43.70927" lon="5.81828">
        <ele>358.41</ele>
        <time>2022-10-10T13:23:28Z</time>
      </trkpt>
      <trkpt lat="43.70919" lon="5.81819">
        <ele>358.41</ele>
        <time>2022-10-10T13:23:29Z</time>
      </trkpt>
      <trkpt lat="43.70911" lon="5.81809">
        <ele>358.47</ele>
        <time>2022-10-10T13:23:30Z</time>
      </trkpt>
      <trkpt lat="43.70904" lon="5.81796">
        <ele>358.35</ele>
        <time>2022-10-10T13:23:31Z</time>
      </trkpt>
      <trkpt lat="43.70897" lon="5.81783">
        <ele>358.38</ele>
        <time>2022-10-10T13:23:32Z</time>
      </trkpt>
      <trkpt lat="43.70891" lon="5.81767">
        <ele>358.34</ele>
        <time>2022-10-10T13:23:33Z</time>
      </trkpt>
      <trkpt lat="43.70857" lon="5.81688">
        <ele>358.84</ele>
        <time>2022-10-10T13:23:38Z</time>
      </trkpt>
      <trkpt lat="43.70847" lon="5.81675">
        <ele>358.84</ele>
        <time>2022-10-10T13:23:39Z</time>
      </trkpt>
      <trkpt lat="43.70835" lon="5.81666">
        <ele>358.84</ele>
        <time>2022-10-10T13:23:40Z</time>
      </trkpt>
      <trkpt lat="43.70822" lon="5.8166">
        <ele>358.83</ele>
        <time>2022-10-10T13:23:41Z</time>
      </trkpt>
      <trkpt lat="43.70811" lon="5.81655">
        <ele>358.84</ele>
        <time>2022-10-10T13:23:42Z</time>
      </trkpt>
      <trkpt lat="43.70792" lon="5.81648">
        <ele>358.85</ele>
        <time>2022-10-10T13:23:44Z</time>
      </trkpt>
      <trkpt lat="43.70783" lon="5.81647">
        <ele>358.83</ele>
        <time>2022-10-10T13:23:45Z</time>
      </trkpt>
      <trkpt lat="43.70775" lon="5.81649">
        <ele>358.83</ele>
        <time>2022-10-10T13:23:46Z</time>
      </trkpt>
      <trkpt lat="43.70768" lon="5.81654">
        <ele>358.82</ele>
        <time>2022-10-10T13:23:47Z</time>
      </trkpt>
      <trkpt lat="43.7076" lon="5.8166">
        <ele>358.81</ele>
        <time>2022-10-10T13:23:48Z</time>
      </trkpt>
      <trkpt lat="43.70753" lon="5.81668">
        <ele>358.8</ele>
        <time>2022-10-10T13:23:49Z</time>
      </trkpt>
      <trkpt lat="43.70739" lon="5.8168">
        <ele>358.83</ele>
        <time>2022-10-10T13:23:51Z</time>
      </trkpt>
      <trkpt lat="43.70731" lon="5.81684">
        <ele>358.8</ele>
        <time>2022-10-10T13:23:52Z</time>
      </trkpt>
      <trkpt lat="43.70723" lon="5.81684">
        <ele>358.8</ele>
        <time>2022-10-10T13:23:53Z</time>
      </trkpt>
      <trkpt lat="43.70716" lon="5.8168">
        <ele>358.82</ele>
        <time>2022-10-10T13:23:54Z</time>
      </trkpt>
      <trkpt lat="43.7071" lon="5.81673">
        <ele>358.81</ele>
        <time>2022-10-10T13:23:55Z</time>
      </trkpt>
      <trkpt lat="43.70704" lon="5.81663">
        <ele>358.83</ele>
        <time>2022-10-10T13:23:56Z</time>
      </trkpt>
      <trkpt lat="43.70701" lon="5.81651">
        <ele>358.84</ele>
        <time>2022-10-10T13:23:57Z</time>
      </trkpt>
      <trkpt lat="43.707" lon="5.81639">
        <ele>358.82</ele>
        <time>2022-10-10T13:23:58Z</time>
      </trkpt>
      <trkpt lat="43.707" lon="5.81627">
        <ele>358.82</ele>
        <time>2022-10-10T13:23:59Z</time>
      </trkpt>
      <trkpt lat="43.70699" lon="5.81615">
        <ele>358.84</ele>
        <time>2022-10-10T13:24:00Z</time>
      </trkpt>
      <trkpt lat="43.70696" lon="5.81604">
        <ele>358.87</ele>
        <time>2022-10-10T13:24:01Z</time>
      </trkpt>
      <trkpt lat="43.70693" lon="5.81594">
        <ele>358.84</ele>
        <time>2022-10-10T13:24:02Z</time>
      </trkpt>
      <trkpt lat="43.70686" lon="5.81584">
        <ele>358.87</ele>
        <time>2022-10-10T13:24:03Z</time>
      </trkpt>
      <trkpt lat="43.70679" lon="5.81577">
        <ele>358.88</ele>
        <time>2022-10-10T13:24:04Z</time>
      </trkpt>
      <trkpt lat="43.70671" lon="5.81572">
        <ele>358.02</ele>
        <time>2022-10-10T13:24:05Z</time>
      </trkpt>
      <trkpt lat="43.70664" lon="5.8157">
        <ele>358.02</ele>
        <time>2022-10-10T13:24:06Z</time>
      </trkpt>
      <trkpt lat="43.70658" lon="5.81568">
        <ele>357.23</ele>
        <time>2022-10-10T13:24:07Z</time>
      </trkpt>
      <trkpt lat="43.70653" lon="5.81569">
        <ele>357.23</ele>
        <time>2022-10-10T13:24:08Z</time>
      </trkpt>
      <trkpt lat="43.70647" lon="5.81571">
        <ele>357.23</ele>
        <time>2022-10-10T13:24:09Z</time>
      </trkpt>
      <trkpt lat="43.70642" lon="5.81576">
        <ele>357.23</ele>
        <time>2022-10-10T13:24:10Z</time>
      </trkpt>
      <trkpt lat="43.70639" lon="5.81586">
        <ele>357.25</ele>
        <time>2022-10-10T13:24:11Z</time>
      </trkpt>
      <trkpt lat="43.70637" lon="5.81598">
        <ele>357.25</ele>
        <time>2022-10-10T13:24:12Z</time>
      </trkpt>
      <trkpt lat="43.70636" lon="5.81612">
        <ele>357.24</ele>
        <time>2022-10-10T13:24:13Z</time>
      </trkpt>
      <trkpt lat="43.70635" lon="5.81628">
        <ele>357.23</ele>
        <time>2022-10-10T13:24:14Z</time>
      </trkpt>
      <trkpt lat="43.70634" lon="5.81678">
        <ele>354.89</ele>
        <time>2022-10-10T13:24:17Z</time>
      </trkpt>
      <trkpt lat="43.7063" lon="5.81727">
        <ele>352.75</ele>
        <time>2022-10-10T13:24:20Z</time>
      </trkpt>
      <trkpt lat="43.70629" lon="5.8177">
        <ele>350.25</ele>
        <time>2022-10-10T13:24:23Z</time>
      </trkpt>
      <trkpt lat="43.70631" lon="5.81784">
        <ele>349.16</ele>
        <time>2022-10-10T13:24:24Z</time>
      </trkpt>
      <trkpt lat="43.70634" lon="5.81797">
        <ele>349.04</ele>
        <time>2022-10-10T13:24:25Z</time>
      </trkpt>
      <trkpt lat="43.70638" lon="5.81811">
        <ele>348.2</ele>
        <time>2022-10-10T13:24:26Z</time>
      </trkpt>
      <trkpt lat="43.7064" lon="5.81826">
        <ele>347.11</ele>
        <time>2022-10-10T13:24:27Z</time>
      </trkpt>
      <trkpt lat="43.70642" lon="5.8184">
        <ele>347.13</ele>
        <time>2022-10-10T13:24:28Z</time>
      </trkpt>
      <trkpt lat="43.70644" lon="5.81853">
        <ele>345.92</ele>
        <time>2022-10-10T13:24:29Z</time>
      </trkpt>
      <trkpt lat="43.70645" lon="5.81867">
        <ele>345.88</ele>
        <time>2022-10-10T13:24:30Z</time>
      </trkpt>
      <trkpt lat="43.70648" lon="5.81894">
        <ele>344.51</ele>
        <time>2022-10-10T13:24:32Z</time>
      </trkpt>
      <trkpt lat="43.70651" lon="5.81908">
        <ele>344.01</ele>
        <time>2022-10-10T13:24:33Z</time>
      </trkpt>
      <trkpt lat="43.70655" lon="5.81922">
        <ele>344.01</ele>
        <time>2022-10-10T13:24:34Z</time>
      </trkpt>
      <trkpt lat="43.7066" lon="5.81937">
        <ele>342.56</ele>
        <time>2022-10-10T13:24:35Z</time>
      </trkpt>
      <trkpt lat="43.70666" lon="5.81952">
        <ele>342.63</ele>
        <time>2022-10-10T13:24:36Z</time>
      </trkpt>
      <trkpt lat="43.70671" lon="5.81969">
        <ele>341.25</ele>
        <time>2022-10-10T13:24:37Z</time>
      </trkpt>
      <trkpt lat="43.70674" lon="5.81986">
        <ele>341.31</ele>
        <time>2022-10-10T13:24:38Z</time>
      </trkpt>
      <trkpt lat="43.70677" lon="5.82005">
        <ele>339.94</ele>
        <time>2022-10-10T13:24:39Z</time>
      </trkpt>
      <trkpt lat="43.70681" lon="5.82041">
        <ele>338.84</ele>
        <time>2022-10-10T13:24:41Z</time>
      </trkpt>
      <trkpt lat="43.70685" lon="5.82077">
        <ele>336.85</ele>
        <time>2022-10-10T13:24:43Z</time>
      </trkpt>
      <trkpt lat="43.70689" lon="5.82111">
        <ele>335.32</ele>
        <time>2022-10-10T13:24:45Z</time>
      </trkpt>
      <trkpt lat="43.70693" lon="5.82145">
        <ele>333.5</ele>
        <time>2022-10-10T13:24:47Z</time>
      </trkpt>
      <trkpt lat="43.70697" lon="5.82196">
        <ele>330.86</ele>
        <time>2022-10-10T13:24:50Z</time>
      </trkpt>
      <trkpt lat="43.70702" lon="5.82279">
        <ele>326.89</ele>
        <time>2022-10-10T13:24:55Z</time>
      </trkpt>
      <trkpt lat="43.70702" lon="5.82293">
        <ele>326.09</ele>
        <time>2022-10-10T13:24:56Z</time>
      </trkpt>
      <trkpt lat="43.70699" lon="5.82306">
        <ele>326.03</ele>
        <time>2022-10-10T13:24:57Z</time>
      </trkpt>
      <trkpt lat="43.70693" lon="5.82318">
        <ele>324.59</ele>
        <time>2022-10-10T13:24:58Z</time>
      </trkpt>
      <trkpt lat="43.70685" lon="5.82327">
        <ele>325.22</ele>
        <time>2022-10-10T13:24:59Z</time>
      </trkpt>
      <trkpt lat="43.70675" lon="5.82333">
        <ele>325.22</ele>
        <time>2022-10-10T13:25:00Z</time>
      </trkpt>
      <trkpt lat="43.70665" lon="5.82338">
        <ele>325.08</ele>
        <time>2022-10-10T13:25:01Z</time>
      </trkpt>
      <trkpt lat="43.70654" lon="5.82342">
        <ele>325.16</ele>
        <time>2022-10-10T13:25:02Z</time>
      </trkpt>
      <trkpt lat="43.70514" lon="5.82403">
        <ele>327.85</ele>
        <time>2022-10-10T13:25:14Z</time>
      </trkpt>
      <trkpt lat="43.70503" lon="5.82413">
        <ele>327.91</ele>
        <time>2022-10-10T13:25:15Z</time>
      </trkpt>
      <trkpt lat="43.70493" lon="5.82424">
        <ele>329.54</ele>
        <time>2022-10-10T13:25:16Z</time>
      </trkpt>
      <trkpt lat="43.70483" lon="5.82437">
        <ele>329.53</ele>
        <time>2022-10-10T13:25:17Z</time>
      </trkpt>
      <trkpt lat="43.70465" lon="5.82464">
        <ele>330.97</ele>
        <time>2022-10-10T13:25:19Z</time>
      </trkpt>
      <trkpt lat="43.70438" lon="5.82503">
        <ele>333.06</ele>
        <time>2022-10-10T13:25:22Z</time>
      </trkpt>
      <trkpt lat="43.70419" lon="5.82531">
        <ele>334.6</ele>
        <time>2022-10-10T13:25:24Z</time>
      </trkpt>
      <trkpt lat="43.70345" lon="5.82678">
        <ele>336.6</ele>
        <time>2022-10-10T13:25:33Z</time>
      </trkpt>
      <trkpt lat="43.70338" lon="5.82695">
        <ele>336.56</ele>
        <time>2022-10-10T13:25:34Z</time>
      </trkpt>
      <trkpt lat="43.70328" lon="5.8271">
        <ele>336.59</ele>
        <time>2022-10-10T13:25:35Z</time>
      </trkpt>
      <trkpt lat="43.70317" lon="5.82722">
        <ele>336.57</ele>
        <time>2022-10-10T13:25:36Z</time>
      </trkpt>
      <trkpt lat="43.70283" lon="5.8276">
        <ele>333.64</ele>
        <time>2022-10-10T13:25:39Z</time>
      </trkpt>
      <trkpt lat="43.70165" lon="5.82861">
        <ele>332.53</ele>
        <time>2022-10-10T13:25:48Z</time>
      </trkpt>
      <trkpt lat="43.70015" lon="5.83007">
        <ele>335.22</ele>
        <time>2022-10-10T13:26:00Z</time>
      </trkpt>
      <trkpt lat="43.70001" lon="5.8302">
        <ele>335.24</ele>
        <time>2022-10-10T13:26:01Z</time>
      </trkpt>
      <trkpt lat="43.69928" lon="5.83087">
        <ele>338.41</ele>
        <time>2022-10-10T13:26:06Z</time>
      </trkpt>
      <trkpt lat="43.69869" lon="5.83141">
        <ele>340.69</ele>
        <time>2022-10-10T13:26:10Z</time>
      </trkpt>
      <trkpt lat="43.69841" lon="5.83167">
        <ele>344.28</ele>
        <time>2022-10-10T13:26:12Z</time>
      </trkpt>
      <trkpt lat="43.69799" lon="5.83205">
        <ele>347.41</ele>
        <time>2022-10-10T13:26:15Z</time>
      </trkpt>
      <trkpt lat="43.69755" lon="5.83245">
        <ele>351.4</ele>
        <time>2022-10-10T13:26:18Z</time>
      </trkpt>
      <trkpt lat="43.6974" lon="5.83259">
        <ele>351.49</ele>
        <time>2022-10-10T13:26:19Z</time>
      </trkpt>
      <trkpt lat="43.69709" lon="5.83288">
        <ele>353.38</ele>
        <time>2022-10-10T13:26:21Z</time>
      </trkpt>
      <trkpt lat="43.69464" lon="5.83513">
        <ele>355.84</ele>
        <time>2022-10-10T13:26:36Z</time>
      </trkpt>
      <trkpt lat="43.69394" lon="5.83568">
        <ele>352.9</ele>
        <time>2022-10-10T13:26:40Z</time>
      </trkpt>
      <trkpt lat="43.69375" lon="5.83578">
        <ele>351.27</ele>
        <time>2022-10-10T13:26:41Z</time>
      </trkpt>
      <trkpt lat="43.69355" lon="5.83587">
        <ele>350.29</ele>
        <time>2022-10-10T13:26:42Z</time>
      </trkpt>
      <trkpt lat="43.69335" lon="5.83593">
        <ele>349.3</ele>
        <time>2022-10-10T13:26:43Z</time>
      </trkpt>
      <trkpt lat="43.69316" lon="5.83598">
        <ele>349.11</ele>
        <time>2022-10-10T13:26:44Z</time>
      </trkpt>
      <trkpt lat="43.69124" lon="5.83634">
        <ele>350.89</ele>
        <time>2022-10-10T13:26:54Z</time>
      </trkpt>
      <trkpt lat="43.69087" lon="5.83643">
        <ele>350.93</ele>
        <time>2022-10-10T13:26:56Z</time>
      </trkpt>
      <trkpt lat="43.69069" lon="5.8365">
        <ele>352.1</ele>
        <time>2022-10-10T13:26:57Z</time>
      </trkpt>
      <trkpt lat="43.69052" lon="5.83659">
        <ele>352.1</ele>
        <time>2022-10-10T13:26:58Z</time>
      </trkpt>
      <trkpt lat="43.68986" lon="5.83698">
        <ele>355.8</ele>
        <time>2022-10-10T13:27:02Z</time>
      </trkpt>
      <trkpt lat="43.68954" lon="5.83716">
        <ele>356.84</ele>
        <time>2022-10-10T13:27:04Z</time>
      </trkpt>
      <trkpt lat="43.68905" lon="5.83743">
        <ele>360.2</ele>
        <time>2022-10-10T13:27:07Z</time>
      </trkpt>
      <trkpt lat="43.68857" lon="5.83773">
        <ele>362.42</ele>
        <time>2022-10-10T13:27:10Z</time>
      </trkpt>
      <trkpt lat="43.6881" lon="5.83809">
        <ele>365.23</ele>
        <time>2022-10-10T13:27:13Z</time>
      </trkpt>
      <trkpt lat="43.6878" lon="5.83835">
        <ele>366.74</ele>
        <time>2022-10-10T13:27:15Z</time>
      </trkpt>
      <trkpt lat="43.68753" lon="5.83865">
        <ele>368.09</ele>
        <time>2022-10-10T13:27:17Z</time>
      </trkpt>
      <trkpt lat="43.68705" lon="5.83918">
        <ele>369.57</ele>
        <time>2022-10-10T13:27:21Z</time>
      </trkpt>
      <trkpt lat="43.68691" lon="5.83929">
        <ele>369.64</ele>
        <time>2022-10-10T13:27:22Z</time>
      </trkpt>
      <trkpt lat="43.68676" lon="5.83938">
        <ele>370.66</ele>
        <time>2022-10-10T13:27:23Z</time>
      </trkpt>
      <trkpt lat="43.68659" lon="5.83944">
        <ele>370.72</ele>
        <time>2022-10-10T13:27:24Z</time>
      </trkpt>
      <trkpt lat="43.68587" lon="5.83963">
        <ele>373.31</ele>
        <time>2022-10-10T13:27:28Z</time>
      </trkpt>
      <trkpt lat="43.68535" lon="5.83977">
        <ele>375.54</ele>
        <time>2022-10-10T13:27:31Z</time>
      </trkpt>
      <trkpt lat="43.68503" lon="5.83988">
        <ele>376.97</ele>
        <time>2022-10-10T13:27:33Z</time>
      </trkpt>
      <trkpt lat="43.68471" lon="5.84002">
        <ele>377</ele>
        <time>2022-10-10T13:27:35Z</time>
      </trkpt>
      <trkpt lat="43.68456" lon="5.84012">
        <ele>376.99</ele>
        <time>2022-10-10T13:27:36Z</time>
      </trkpt>
      <trkpt lat="43.68279" lon="5.84174">
        <ele>376.56</ele>
        <time>2022-10-10T13:27:48Z</time>
      </trkpt>
      <trkpt lat="43.68157" lon="5.84259">
        <ele>378.26</ele>
        <time>2022-10-10T13:27:56Z</time>
      </trkpt>
      <trkpt lat="43.68057" lon="5.84304">
        <ele>381.33</ele>
        <time>2022-10-10T13:28:02Z</time>
      </trkpt>
      <trkpt lat="43.68025" lon="5.84322">
        <ele>382.42</ele>
        <time>2022-10-10T13:28:04Z</time>
      </trkpt>
      <trkpt lat="43.68011" lon="5.84334">
        <ele>383.62</ele>
        <time>2022-10-10T13:28:05Z</time>
      </trkpt>
      <trkpt lat="43.67997" lon="5.84347">
        <ele>383.62</ele>
        <time>2022-10-10T13:28:06Z</time>
      </trkpt>
      <trkpt lat="43.67904" lon="5.84425">
        <ele>384.75</ele>
        <time>2022-10-10T13:28:13Z</time>
      </trkpt>
      <trkpt lat="43.67888" lon="5.8443">
        <ele>385.67</ele>
        <time>2022-10-10T13:28:14Z</time>
      </trkpt>
      <trkpt lat="43.67872" lon="5.84432">
        <ele>386.46</ele>
        <time>2022-10-10T13:28:15Z</time>
      </trkpt>
      <trkpt lat="43.67856" lon="5.84432">
        <ele>386.48</ele>
        <time>2022-10-10T13:28:16Z</time>
      </trkpt>
      <trkpt lat="43.67841" lon="5.84431">
        <ele>387.58</ele>
        <time>2022-10-10T13:28:17Z</time>
      </trkpt>
      <trkpt lat="43.6781" lon="5.84434">
        <ele>388.55</ele>
        <time>2022-10-10T13:28:19Z</time>
      </trkpt>
      <trkpt lat="43.67702" lon="5.84461">
        <ele>391.75</ele>
        <time>2022-10-10T13:28:26Z</time>
      </trkpt>
      <trkpt lat="43.67688" lon="5.8447">
        <ele>392.14</ele>
        <time>2022-10-10T13:28:27Z</time>
      </trkpt>
      <trkpt lat="43.67567" lon="5.84561">
        <ele>396.21</ele>
        <time>2022-10-10T13:28:36Z</time>
      </trkpt>
      <trkpt lat="43.67556" lon="5.84574">
        <ele>396.29</ele>
        <time>2022-10-10T13:28:37Z</time>
      </trkpt>
      <trkpt lat="43.67497" lon="5.84657">
        <ele>397.97</ele>
        <time>2022-10-10T13:28:44Z</time>
      </trkpt>
      <trkpt lat="43.67458" lon="5.84704">
        <ele>397.76</ele>
        <time>2022-10-10T13:28:51Z</time>
      </trkpt>
      <trkpt lat="43.67454" lon="5.8471">
        <ele>397.77</ele>
        <time>2022-10-10T13:28:52Z</time>
      </trkpt>
      <trkpt lat="43.67449" lon="5.84716">
        <ele>398.66</ele>
        <time>2022-10-10T13:28:53Z</time>
      </trkpt>
      <trkpt lat="43.67441" lon="5.8472">
        <ele>398.66</ele>
        <time>2022-10-10T13:28:54Z</time>
      </trkpt>
      <trkpt lat="43.67337" lon="5.84754">
        <ele>400.7</ele>
        <time>2022-10-10T13:29:03Z</time>
      </trkpt>
      <trkpt lat="43.673" lon="5.84766">
        <ele>402.73</ele>
        <time>2022-10-10T13:29:06Z</time>
      </trkpt>
      <trkpt lat="43.67206" lon="5.84784">
        <ele>405.25</ele>
        <time>2022-10-10T13:29:14Z</time>
      </trkpt>
      <trkpt lat="43.67145" lon="5.84793">
        <ele>407.85</ele>
        <time>2022-10-10T13:29:19Z</time>
      </trkpt>
      <trkpt lat="43.6712" lon="5.84798">
        <ele>409.23</ele>
        <time>2022-10-10T13:29:21Z</time>
      </trkpt>
      <trkpt lat="43.67097" lon="5.84805">
        <ele>408.94</ele>
        <time>2022-10-10T13:29:23Z</time>
      </trkpt>
      <trkpt lat="43.67029" lon="5.84841">
        <ele>405.82</ele>
        <time>2022-10-10T13:29:29Z</time>
      </trkpt>
      <trkpt lat="43.67018" lon="5.84849">
        <ele>405.78</ele>
        <time>2022-10-10T13:29:30Z</time>
      </trkpt>
      <trkpt lat="43.66976" lon="5.84885">
        <ele>403.89</ele>
        <time>2022-10-10T13:29:34Z</time>
      </trkpt>
      <trkpt lat="43.66947" lon="5.84914">
        <ele>401.97</ele>
        <time>2022-10-10T13:29:37Z</time>
      </trkpt>
      <trkpt lat="43.66936" lon="5.84922">
        <ele>401.2</ele>
        <time>2022-10-10T13:29:38Z</time>
      </trkpt>
      <trkpt lat="43.66911" lon="5.84935">
        <ele>400.26</ele>
        <time>2022-10-10T13:29:40Z</time>
      </trkpt>
      <trkpt lat="43.66858" lon="5.84964">
        <ele>397.12</ele>
        <time>2022-10-10T13:29:44Z</time>
      </trkpt>
      <trkpt lat="43.66844" lon="5.84971">
        <ele>397.16</ele>
        <time>2022-10-10T13:29:45Z</time>
      </trkpt>
      <trkpt lat="43.66771" lon="5.8501">
        <ele>394.14</ele>
        <time>2022-10-10T13:29:50Z</time>
      </trkpt>
      <trkpt lat="43.66755" lon="5.8502">
        <ele>394.15</ele>
        <time>2022-10-10T13:29:51Z</time>
      </trkpt>
      <trkpt lat="43.66708" lon="5.85052">
        <ele>390.9</ele>
        <time>2022-10-10T13:29:54Z</time>
      </trkpt>
      <trkpt lat="43.66676" lon="5.85074">
        <ele>390.1</ele>
        <time>2022-10-10T13:29:56Z</time>
      </trkpt>
      <trkpt lat="43.66617" lon="5.8512">
        <ele>387.32</ele>
        <time>2022-10-10T13:30:00Z</time>
      </trkpt>
      <trkpt lat="43.66589" lon="5.85147">
        <ele>385.91</ele>
        <time>2022-10-10T13:30:02Z</time>
      </trkpt>
      <trkpt lat="43.66539" lon="5.8521">
        <ele>382.11</ele>
        <time>2022-10-10T13:30:06Z</time>
      </trkpt>
      <trkpt lat="43.66514" lon="5.85241">
        <ele>380.8</ele>
        <time>2022-10-10T13:30:08Z</time>
      </trkpt>
      <trkpt lat="43.66472" lon="5.85279">
        <ele>378.61</ele>
        <time>2022-10-10T13:30:11Z</time>
      </trkpt>
      <trkpt lat="43.66458" lon="5.85288">
        <ele>377.87</ele>
        <time>2022-10-10T13:30:12Z</time>
      </trkpt>
      <trkpt lat="43.66444" lon="5.85293">
        <ele>377.81</ele>
        <time>2022-10-10T13:30:13Z</time>
      </trkpt>
      <trkpt lat="43.66431" lon="5.85296">
        <ele>376.65</ele>
        <time>2022-10-10T13:30:14Z</time>
      </trkpt>
      <trkpt lat="43.66418" lon="5.85296">
        <ele>376.66</ele>
        <time>2022-10-10T13:30:15Z</time>
      </trkpt>
      <trkpt lat="43.66405" lon="5.85292">
        <ele>375.05</ele>
        <time>2022-10-10T13:30:16Z</time>
      </trkpt>
      <trkpt lat="43.66393" lon="5.85284">
        <ele>374.17</ele>
        <time>2022-10-10T13:30:17Z</time>
      </trkpt>
      <trkpt lat="43.66383" lon="5.85273">
        <ele>373.28</ele>
        <time>2022-10-10T13:30:18Z</time>
      </trkpt>
      <trkpt lat="43.66375" lon="5.8526">
        <ele>372.15</ele>
        <time>2022-10-10T13:30:19Z</time>
      </trkpt>
      <trkpt lat="43.66371" lon="5.85243">
        <ele>372.15</ele>
        <time>2022-10-10T13:30:20Z</time>
      </trkpt>
      <trkpt lat="43.66368" lon="5.85226">
        <ele>371</ele>
        <time>2022-10-10T13:30:21Z</time>
      </trkpt>
      <trkpt lat="43.66368" lon="5.85208">
        <ele>369.93</ele>
        <time>2022-10-10T13:30:22Z</time>
      </trkpt>
      <trkpt lat="43.66371" lon="5.8519">
        <ele>369.85</ele>
        <time>2022-10-10T13:30:23Z</time>
      </trkpt>
      <trkpt lat="43.66375" lon="5.85172">
        <ele>369.9</ele>
        <time>2022-10-10T13:30:24Z</time>
      </trkpt>
      <trkpt lat="43.66381" lon="5.85154">
        <ele>368.49</ele>
        <time>2022-10-10T13:30:25Z</time>
      </trkpt>
      <trkpt lat="43.66388" lon="5.85135">
        <ele>368.43</ele>
        <time>2022-10-10T13:30:26Z</time>
      </trkpt>
      <trkpt lat="43.66401" lon="5.85099">
        <ele>366.57</ele>
        <time>2022-10-10T13:30:28Z</time>
      </trkpt>
      <trkpt lat="43.66412" lon="5.85065">
        <ele>365.09</ele>
        <time>2022-10-10T13:30:30Z</time>
      </trkpt>
      <trkpt lat="43.66416" lon="5.85048">
        <ele>363.88</ele>
        <time>2022-10-10T13:30:31Z</time>
      </trkpt>
      <trkpt lat="43.66417" lon="5.85033">
        <ele>363.81</ele>
        <time>2022-10-10T13:30:32Z</time>
      </trkpt>
      <trkpt lat="43.66414" lon="5.85018">
        <ele>362.24</ele>
        <time>2022-10-10T13:30:33Z</time>
      </trkpt>
      <trkpt lat="43.66407" lon="5.85008">
        <ele>362.24</ele>
        <time>2022-10-10T13:30:34Z</time>
      </trkpt>
      <trkpt lat="43.66398" lon="5.85005">
        <ele>360.64</ele>
        <time>2022-10-10T13:30:35Z</time>
      </trkpt>
      <trkpt lat="43.66388" lon="5.85007">
        <ele>360.64</ele>
        <time>2022-10-10T13:30:36Z</time>
      </trkpt>
      <trkpt lat="43.66378" lon="5.85015">
        <ele>361.22</ele>
        <time>2022-10-10T13:30:37Z</time>
      </trkpt>
      <trkpt lat="43.66368" lon="5.85025">
        <ele>359.7</ele>
        <time>2022-10-10T13:30:38Z</time>
      </trkpt>
      <trkpt lat="43.66325" lon="5.85076">
        <ele>355.42</ele>
        <time>2022-10-10T13:30:43Z</time>
      </trkpt>
      <trkpt lat="43.66305" lon="5.85098">
        <ele>352.62</ele>
        <time>2022-10-10T13:30:47Z</time>
      </trkpt>
      <trkpt lat="43.66303" lon="5.85101">
        <ele>351.2</ele>
        <time>2022-10-10T13:30:49Z</time>
      </trkpt>
      <trkpt lat="43.66302" lon="5.85105">
        <ele>351.02</ele>
        <time>2022-10-10T13:31:23Z</time>
      </trkpt>
      <trkpt lat="43.66299" lon="5.85108">
        <ele>351.28</ele>
        <time>2022-10-10T13:32:02Z</time>
      </trkpt>
      <trkpt lat="43.66283" lon="5.85129">
        <ele>351.41</ele>
        <time>2022-10-10T13:32:20Z</time>
      </trkpt>
      <trkpt lat="43.66218" lon="5.85199">
        <ele>348.02</ele>
        <time>2022-10-10T13:32:27Z</time>
      </trkpt>
      <trkpt lat="43.66208" lon="5.85208">
        <ele>347.1</ele>
        <time>2022-10-10T13:32:28Z</time>
      </trkpt>
      <trkpt lat="43.66197" lon="5.85215">
        <ele>346.15</ele>
        <time>2022-10-10T13:32:29Z</time>
      </trkpt>
      <trkpt lat="43.66185" lon="5.85216">
        <ele>346.13</ele>
        <time>2022-10-10T13:32:30Z</time>
      </trkpt>
      <trkpt lat="43.66174" lon="5.85211">
        <ele>344.25</ele>
        <time>2022-10-10T13:32:31Z</time>
      </trkpt>
      <trkpt lat="43.66164" lon="5.85203">
        <ele>343.36</ele>
        <time>2022-10-10T13:32:32Z</time>
      </trkpt>
      <trkpt lat="43.66155" lon="5.85193">
        <ele>343.34</ele>
        <time>2022-10-10T13:32:33Z</time>
      </trkpt>
      <trkpt lat="43.66134" lon="5.85174">
        <ele>342.34</ele>
        <time>2022-10-10T13:32:35Z</time>
      </trkpt>
      <trkpt lat="43.66122" lon="5.85168">
        <ele>342.29</ele>
        <time>2022-10-10T13:32:36Z</time>
      </trkpt>
      <trkpt lat="43.66108" lon="5.85164">
        <ele>342.32</ele>
        <time>2022-10-10T13:32:37Z</time>
      </trkpt>
      <trkpt lat="43.66093" lon="5.85162">
        <ele>340.68</ele>
        <time>2022-10-10T13:32:38Z</time>
      </trkpt>
      <trkpt lat="43.66078" lon="5.85161">
        <ele>340.69</ele>
        <time>2022-10-10T13:32:39Z</time>
      </trkpt>
      <trkpt lat="43.65955" lon="5.8516">
        <ele>338.25</ele>
        <time>2022-10-10T13:32:47Z</time>
      </trkpt>
      <trkpt lat="43.65941" lon="5.85155">
        <ele>337.5</ele>
        <time>2022-10-10T13:32:48Z</time>
      </trkpt>
      <trkpt lat="43.65927" lon="5.85146">
        <ele>336.53</ele>
        <time>2022-10-10T13:32:49Z</time>
      </trkpt>
      <trkpt lat="43.65915" lon="5.85134">
        <ele>336.55</ele>
        <time>2022-10-10T13:32:50Z</time>
      </trkpt>
      <trkpt lat="43.65905" lon="5.85119">
        <ele>336.56</ele>
        <time>2022-10-10T13:32:51Z</time>
      </trkpt>
      <trkpt lat="43.65896" lon="5.85101">
        <ele>336.63</ele>
        <time>2022-10-10T13:32:52Z</time>
      </trkpt>
      <trkpt lat="43.65889" lon="5.85082">
        <ele>336.6</ele>
        <time>2022-10-10T13:32:53Z</time>
      </trkpt>
      <trkpt lat="43.65882" lon="5.85061">
        <ele>336.6</ele>
        <time>2022-10-10T13:32:54Z</time>
      </trkpt>
      <trkpt lat="43.65876" lon="5.8504">
        <ele>336.61</ele>
        <time>2022-10-10T13:32:55Z</time>
      </trkpt>
      <trkpt lat="43.65809" lon="5.84869">
        <ele>336.68</ele>
        <time>2022-10-10T13:33:03Z</time>
      </trkpt>
      <trkpt lat="43.65797" lon="5.84851">
        <ele>336.68</ele>
        <time>2022-10-10T13:33:04Z</time>
      </trkpt>
      <trkpt lat="43.65629" lon="5.8466">
        <ele>334.77</ele>
        <time>2022-10-10T13:33:16Z</time>
      </trkpt>
      <trkpt lat="43.65603" lon="5.84625">
        <ele>333.33</ele>
        <time>2022-10-10T13:33:18Z</time>
      </trkpt>
      <trkpt lat="43.654" lon="5.84327">
        <ele>330.61</ele>
        <time>2022-10-10T13:33:34Z</time>
      </trkpt>
      <trkpt lat="43.65245" lon="5.8419">
        <ele>328.82</ele>
        <time>2022-10-10T13:33:44Z</time>
      </trkpt>
      <trkpt lat="43.65074" lon="5.84054">
        <ele>326.26</ele>
        <time>2022-10-10T13:33:55Z</time>
      </trkpt>
      <trkpt lat="43.64901" lon="5.83906">
        <ele>326.35</ele>
        <time>2022-10-10T13:34:06Z</time>
      </trkpt>
      <trkpt lat="43.64887" lon="5.83887">
        <ele>326.34</ele>
        <time>2022-10-10T13:34:07Z</time>
      </trkpt>
      <trkpt lat="43.64875" lon="5.83865">
        <ele>326.36</ele>
        <time>2022-10-10T13:34:08Z</time>
      </trkpt>
      <trkpt lat="43.64697" lon="5.83516">
        <ele>326.3</ele>
        <time>2022-10-10T13:34:23Z</time>
      </trkpt>
      <trkpt lat="43.64663" lon="5.83448">
        <ele>324.4</ele>
        <time>2022-10-10T13:34:26Z</time>
      </trkpt>
      <trkpt lat="43.64428" lon="5.82988">
        <ele>324.47</ele>
        <time>2022-10-10T13:34:47Z</time>
      </trkpt>
      <trkpt lat="43.64399" lon="5.82919">
        <ele>324.46</ele>
        <time>2022-10-10T13:34:50Z</time>
      </trkpt>
      <trkpt lat="43.64393" lon="5.82894">
        <ele>324.46</ele>
        <time>2022-10-10T13:34:51Z</time>
      </trkpt>
      <trkpt lat="43.64389" lon="5.82869">
        <ele>324.45</ele>
        <time>2022-10-10T13:34:52Z</time>
      </trkpt>
      <trkpt lat="43.64387" lon="5.82843">
        <ele>324.39</ele>
        <time>2022-10-10T13:34:53Z</time>
      </trkpt>
      <trkpt lat="43.64385" lon="5.82816">
        <ele>324.39</ele>
        <time>2022-10-10T13:34:54Z</time>
      </trkpt>
      <trkpt lat="43.64376" lon="5.82655">
        <ele>327.75</ele>
        <time>2022-10-10T13:35:00Z</time>
      </trkpt>
      <trkpt lat="43.64374" lon="5.82628">
        <ele>327.79</ele>
        <time>2022-10-10T13:35:01Z</time>
      </trkpt>
      <trkpt lat="43.6434" lon="5.82095">
        <ele>329.32</ele>
        <time>2022-10-10T13:35:20Z</time>
      </trkpt>
      <trkpt lat="43.64336" lon="5.82037">
        <ele>327.01</ele>
        <time>2022-10-10T13:35:22Z</time>
      </trkpt>
      <trkpt lat="43.64313" lon="5.81819">
        <ele>324.71</ele>
        <time>2022-10-10T13:35:30Z</time>
      </trkpt>
      <trkpt lat="43.64267" lon="5.81575">
        <ele>321.4</ele>
        <time>2022-10-10T13:35:39Z</time>
      </trkpt>
      <trkpt lat="43.64227" lon="5.81274">
        <ele>320.69</ele>
        <time>2022-10-10T13:35:50Z</time>
      </trkpt>
      <trkpt lat="43.64239" lon="5.8095">
        <ele>318.52</ele>
        <time>2022-10-10T13:36:02Z</time>
      </trkpt>
      <trkpt lat="43.64258" lon="5.80765">
        <ele>318.62</ele>
        <time>2022-10-10T13:36:09Z</time>
      </trkpt>
      <trkpt lat="43.64257" lon="5.80739">
        <ele>320.99</ele>
        <time>2022-10-10T13:36:10Z</time>
      </trkpt>
      <trkpt lat="43.64254" lon="5.80714">
        <ele>320.96</ele>
        <time>2022-10-10T13:36:11Z</time>
      </trkpt>
      <trkpt lat="43.64248" lon="5.8069">
        <ele>320.96</ele>
        <time>2022-10-10T13:36:12Z</time>
      </trkpt>
      <trkpt lat="43.64241" lon="5.80667">
        <ele>320.86</ele>
        <time>2022-10-10T13:36:13Z</time>
      </trkpt>
      <trkpt lat="43.64231" lon="5.80646">
        <ele>320.86</ele>
        <time>2022-10-10T13:36:14Z</time>
      </trkpt>
      <trkpt lat="43.64219" lon="5.80628">
        <ele>320.85</ele>
        <time>2022-10-10T13:36:15Z</time>
      </trkpt>
      <trkpt lat="43.64205" lon="5.80613">
        <ele>320.85</ele>
        <time>2022-10-10T13:36:16Z</time>
      </trkpt>
      <trkpt lat="43.6419" lon="5.80601">
        <ele>320.86</ele>
        <time>2022-10-10T13:36:17Z</time>
      </trkpt>
      <trkpt lat="43.64173" lon="5.8059">
        <ele>320.87</ele>
        <time>2022-10-10T13:36:18Z</time>
      </trkpt>
      <trkpt lat="43.64156" lon="5.80582">
        <ele>320.86</ele>
        <time>2022-10-10T13:36:19Z</time>
      </trkpt>
      <trkpt lat="43.64139" lon="5.80576">
        <ele>320.86</ele>
        <time>2022-10-10T13:36:20Z</time>
      </trkpt>
      <trkpt lat="43.64121" lon="5.80571">
        <ele>320.85</ele>
        <time>2022-10-10T13:36:21Z</time>
      </trkpt>
      <trkpt lat="43.64053" lon="5.80553">
        <ele>318.36</ele>
        <time>2022-10-10T13:36:25Z</time>
      </trkpt>
      <trkpt lat="43.64021" lon="5.80542">
        <ele>317.2</ele>
        <time>2022-10-10T13:36:27Z</time>
      </trkpt>
      <trkpt lat="43.64007" lon="5.80532">
        <ele>317.19</ele>
        <time>2022-10-10T13:36:28Z</time>
      </trkpt>
      <trkpt lat="43.63995" lon="5.80518">
        <ele>317.19</ele>
        <time>2022-10-10T13:36:29Z</time>
      </trkpt>
      <trkpt lat="43.63986" lon="5.80501">
        <ele>316.35</ele>
        <time>2022-10-10T13:36:30Z</time>
      </trkpt>
      <trkpt lat="43.63978" lon="5.80481">
        <ele>316.3</ele>
        <time>2022-10-10T13:36:31Z</time>
      </trkpt>
      <trkpt lat="43.63973" lon="5.80459">
        <ele>316.28</ele>
        <time>2022-10-10T13:36:32Z</time>
      </trkpt>
      <trkpt lat="43.63968" lon="5.80437">
        <ele>316.29</ele>
        <time>2022-10-10T13:36:33Z</time>
      </trkpt>
      <trkpt lat="43.63964" lon="5.80413">
        <ele>316.26</ele>
        <time>2022-10-10T13:36:34Z</time>
      </trkpt>
      <trkpt lat="43.63909" lon="5.80254">
        <ele>316.39</ele>
        <time>2022-10-10T13:36:41Z</time>
      </trkpt>
      <trkpt lat="43.63778" lon="5.79966">
        <ele>318.85</ele>
        <time>2022-10-10T13:36:54Z</time>
      </trkpt>
      <trkpt lat="43.63771" lon="5.79943">
        <ele>318.78</ele>
        <time>2022-10-10T13:36:55Z</time>
      </trkpt>
      <trkpt lat="43.63766" lon="5.79918">
        <ele>318.79</ele>
        <time>2022-10-10T13:36:56Z</time>
      </trkpt>
      <trkpt lat="43.6375" lon="5.79739">
        <ele>319.94</ele>
        <time>2022-10-10T13:37:03Z</time>
      </trkpt>
      <trkpt lat="43.63711" lon="5.79446">
        <ele>319.89</ele>
        <time>2022-10-10T13:37:14Z</time>
      </trkpt>
      <trkpt lat="43.63655" lon="5.79012">
        <ele>319.79</ele>
        <time>2022-10-10T13:37:30Z</time>
      </trkpt>
      <trkpt lat="43.63645" lon="5.78959">
        <ele>317.36</ele>
        <time>2022-10-10T13:37:32Z</time>
      </trkpt>
      <trkpt lat="43.63574" lon="5.78757">
        <ele>317.27</ele>
        <time>2022-10-10T13:37:40Z</time>
      </trkpt>
      <trkpt lat="43.63414" lon="5.78314">
        <ele>317.2</ele>
        <time>2022-10-10T13:37:58Z</time>
      </trkpt>
      <trkpt lat="43.63281" lon="5.77968">
        <ele>317.17</ele>
        <time>2022-10-10T13:38:13Z</time>
      </trkpt>
      <trkpt lat="43.63143" lon="5.77641">
        <ele>317.04</ele>
        <time>2022-10-10T13:38:27Z</time>
      </trkpt>
      <trkpt lat="43.63059" lon="5.77398">
        <ele>320.8</ele>
        <time>2022-10-10T13:38:37Z</time>
      </trkpt>
      <trkpt lat="43.63042" lon="5.77351">
        <ele>321.81</ele>
        <time>2022-10-10T13:38:39Z</time>
      </trkpt>
      <trkpt lat="43.62963" lon="5.77215">
        <ele>323.28</ele>
        <time>2022-10-10T13:38:46Z</time>
      </trkpt>
      <trkpt lat="43.62949" lon="5.77198">
        <ele>323.3</ele>
        <time>2022-10-10T13:38:47Z</time>
      </trkpt>
      <trkpt lat="43.62876" lon="5.77111">
        <ele>325.65</ele>
        <time>2022-10-10T13:38:52Z</time>
      </trkpt>
      <trkpt lat="43.62826" lon="5.77028">
        <ele>327.8</ele>
        <time>2022-10-10T13:38:56Z</time>
      </trkpt>
      <trkpt lat="43.62706" lon="5.76823">
        <ele>325.4</ele>
        <time>2022-10-10T13:39:06Z</time>
      </trkpt>
      <trkpt lat="43.62549" lon="5.76681">
        <ele>325.31</ele>
        <time>2022-10-10T13:39:16Z</time>
      </trkpt>
      <trkpt lat="43.62385" lon="5.76558">
        <ele>328.12</ele>
        <time>2022-10-10T13:39:26Z</time>
      </trkpt>
      <trkpt lat="43.62351" lon="5.76537">
        <ele>328.12</ele>
        <time>2022-10-10T13:39:28Z</time>
      </trkpt>
      <trkpt lat="43.62333" lon="5.76533">
        <ele>328.11</ele>
        <time>2022-10-10T13:39:29Z</time>
      </trkpt>
      <trkpt lat="43.62314" lon="5.76534">
        <ele>328.13</ele>
        <time>2022-10-10T13:39:30Z</time>
      </trkpt>
      <trkpt lat="43.62296" lon="5.7654">
        <ele>328.14</ele>
        <time>2022-10-10T13:39:31Z</time>
      </trkpt>
      <trkpt lat="43.62279" lon="5.7655">
        <ele>328.13</ele>
        <time>2022-10-10T13:39:32Z</time>
      </trkpt>
      <trkpt lat="43.62262" lon="5.76562">
        <ele>329.37</ele>
        <time>2022-10-10T13:39:33Z</time>
      </trkpt>
      <trkpt lat="43.62245" lon="5.76574">
        <ele>329.38</ele>
        <time>2022-10-10T13:39:34Z</time>
      </trkpt>
      <trkpt lat="43.6221" lon="5.76593">
        <ele>329.32</ele>
        <time>2022-10-10T13:39:36Z</time>
      </trkpt>
      <trkpt lat="43.62191" lon="5.76599">
        <ele>329.31</ele>
        <time>2022-10-10T13:39:37Z</time>
      </trkpt>
      <trkpt lat="43.62173" lon="5.76601">
        <ele>329.2</ele>
        <time>2022-10-10T13:39:38Z</time>
      </trkpt>
      <trkpt lat="43.62154" lon="5.76599">
        <ele>330.71</ele>
        <time>2022-10-10T13:39:39Z</time>
      </trkpt>
      <trkpt lat="43.62135" lon="5.76595">
        <ele>330.71</ele>
        <time>2022-10-10T13:39:40Z</time>
      </trkpt>
      <trkpt lat="43.62118" lon="5.76587">
        <ele>330.73</ele>
        <time>2022-10-10T13:39:41Z</time>
      </trkpt>
      <trkpt lat="43.621" lon="5.76576">
        <ele>330.72</ele>
        <time>2022-10-10T13:39:42Z</time>
      </trkpt>
      <trkpt lat="43.62084" lon="5.76563">
        <ele>330.71</ele>
        <time>2022-10-10T13:39:43Z</time>
      </trkpt>
      <trkpt lat="43.62067" lon="5.7655">
        <ele>330.72</ele>
        <time>2022-10-10T13:39:44Z</time>
      </trkpt>
      <trkpt lat="43.61999" lon="5.76498">
        <ele>332.44</ele>
        <time>2022-10-10T13:39:48Z</time>
      </trkpt>
      <trkpt lat="43.61931" lon="5.76444">
        <ele>334.17</ele>
        <time>2022-10-10T13:39:52Z</time>
      </trkpt>
      <trkpt lat="43.61824" lon="5.76374">
        <ele>337.49</ele>
        <time>2022-10-10T13:39:58Z</time>
      </trkpt>
      <trkpt lat="43.61805" lon="5.76365">
        <ele>337.47</ele>
        <time>2022-10-10T13:39:59Z</time>
      </trkpt>
      <trkpt lat="43.61727" lon="5.76346">
        <ele>339.06</ele>
        <time>2022-10-10T13:40:03Z</time>
      </trkpt>
      <trkpt lat="43.61649" lon="5.76349">
        <ele>341.69</ele>
        <time>2022-10-10T13:40:07Z</time>
      </trkpt>
      <trkpt lat="43.6159" lon="5.76364">
        <ele>344.86</ele>
        <time>2022-10-10T13:40:10Z</time>
      </trkpt>
      <trkpt lat="43.61571" lon="5.76371">
        <ele>344.92</ele>
        <time>2022-10-10T13:40:11Z</time>
      </trkpt>
      <trkpt lat="43.61532" lon="5.76384">
        <ele>348.17</ele>
        <time>2022-10-10T13:40:13Z</time>
      </trkpt>
      <trkpt lat="43.61475" lon="5.76401">
        <ele>350.08</ele>
        <time>2022-10-10T13:40:16Z</time>
      </trkpt>
      <trkpt lat="43.61437" lon="5.76408">
        <ele>353.3</ele>
        <time>2022-10-10T13:40:18Z</time>
      </trkpt>
      <trkpt lat="43.61418" lon="5.76409">
        <ele>354.28</ele>
        <time>2022-10-10T13:40:19Z</time>
      </trkpt>
      <trkpt lat="43.61399" lon="5.76408">
        <ele>355.52</ele>
        <time>2022-10-10T13:40:20Z</time>
      </trkpt>
      <trkpt lat="43.61381" lon="5.76405">
        <ele>356.83</ele>
        <time>2022-10-10T13:40:21Z</time>
      </trkpt>
      <trkpt lat="43.61363" lon="5.76401">
        <ele>356.83</ele>
        <time>2022-10-10T13:40:22Z</time>
      </trkpt>
      <trkpt lat="43.6131" lon="5.7638">
        <ele>359.87</ele>
        <time>2022-10-10T13:40:25Z</time>
      </trkpt>
      <trkpt lat="43.61294" lon="5.7637">
        <ele>359.98</ele>
        <time>2022-10-10T13:40:26Z</time>
      </trkpt>
      <trkpt lat="43.61196" lon="5.76277">
        <ele>357.66</ele>
        <time>2022-10-10T13:40:33Z</time>
      </trkpt>
      <trkpt lat="43.61161" lon="5.76239">
        <ele>354.96</ele>
        <time>2022-10-10T13:40:36Z</time>
      </trkpt>
      <trkpt lat="43.61084" lon="5.76132">
        <ele>353.2</ele>
        <time>2022-10-10T13:40:44Z</time>
      </trkpt>
      <trkpt lat="43.61079" lon="5.76119">
        <ele>353.19</ele>
        <time>2022-10-10T13:40:45Z</time>
      </trkpt>
      <trkpt lat="43.61076" lon="5.76107">
        <ele>353.21</ele>
        <time>2022-10-10T13:40:46Z</time>
      </trkpt>
      <trkpt lat="43.61074" lon="5.76094">
        <ele>353.2</ele>
        <time>2022-10-10T13:40:47Z</time>
      </trkpt>
      <trkpt lat="43.61073" lon="5.7608">
        <ele>353.22</ele>
        <time>2022-10-10T13:40:48Z</time>
      </trkpt>
      <trkpt lat="43.61067" lon="5.76036">
        <ele>353.25</ele>
        <time>2022-10-10T13:40:51Z</time>
      </trkpt>
      <trkpt lat="43.61066" lon="5.7602">
        <ele>353.39</ele>
        <time>2022-10-10T13:40:52Z</time>
      </trkpt>
      <trkpt lat="43.61067" lon="5.76005">
        <ele>353.4</ele>
        <time>2022-10-10T13:40:53Z</time>
      </trkpt>
      <trkpt lat="43.6107" lon="5.75957">
        <ele>356.03</ele>
        <time>2022-10-10T13:40:56Z</time>
      </trkpt>
      <trkpt lat="43.61074" lon="5.75904">
        <ele>357.66</ele>
        <time>2022-10-10T13:40:59Z</time>
      </trkpt>
      <trkpt lat="43.61088" lon="5.75686">
        <ele>357.66</ele>
        <time>2022-10-10T13:41:11Z</time>
      </trkpt>
      <trkpt lat="43.61081" lon="5.75582">
        <ele>355.35</ele>
        <time>2022-10-10T13:41:16Z</time>
      </trkpt>
      <trkpt lat="43.61045" lon="5.7543">
        <ele>354.5</ele>
        <time>2022-10-10T13:41:25Z</time>
      </trkpt>
      <trkpt lat="43.61034" lon="5.75393">
        <ele>354.49</ele>
        <time>2022-10-10T13:41:28Z</time>
      </trkpt>
      <trkpt lat="43.61032" lon="5.7538">
        <ele>354.49</ele>
        <time>2022-10-10T13:41:29Z</time>
      </trkpt>
      <trkpt lat="43.61029" lon="5.75355">
        <ele>354.46</ele>
        <time>2022-10-10T13:41:31Z</time>
      </trkpt>
      <trkpt lat="43.61024" lon="5.75344">
        <ele>354.48</ele>
        <time>2022-10-10T13:41:32Z</time>
      </trkpt>
      <trkpt lat="43.61015" lon="5.75337">
        <ele>354.49</ele>
        <time>2022-10-10T13:41:33Z</time>
      </trkpt>
      <trkpt lat="43.61006" lon="5.75332">
        <ele>354.47</ele>
        <time>2022-10-10T13:41:34Z</time>
      </trkpt>
      <trkpt lat="43.60998" lon="5.75324">
        <ele>354.49</ele>
        <time>2022-10-10T13:41:35Z</time>
      </trkpt>
      <trkpt lat="43.6099" lon="5.75315">
        <ele>356.81</ele>
        <time>2022-10-10T13:41:36Z</time>
      </trkpt>
      <trkpt lat="43.60982" lon="5.75305">
        <ele>356.89</ele>
        <time>2022-10-10T13:41:37Z</time>
      </trkpt>
      <trkpt lat="43.60883" lon="5.75202">
        <ele>359.9</ele>
        <time>2022-10-10T13:41:47Z</time>
      </trkpt>
      <trkpt lat="43.60827" lon="5.75166">
        <ele>361.66</ele>
        <time>2022-10-10T13:41:51Z</time>
      </trkpt>
      <trkpt lat="43.60765" lon="5.75141">
        <ele>363.57</ele>
        <time>2022-10-10T13:41:55Z</time>
      </trkpt>
      <trkpt lat="43.60667" lon="5.7511">
        <ele>363.54</ele>
        <time>2022-10-10T13:42:03Z</time>
      </trkpt>
      <trkpt lat="43.60658" lon="5.75104">
        <ele>364.39</ele>
        <time>2022-10-10T13:42:04Z</time>
      </trkpt>
      <trkpt lat="43.6065" lon="5.75095">
        <ele>364.41</ele>
        <time>2022-10-10T13:42:05Z</time>
      </trkpt>
      <trkpt lat="43.60642" lon="5.75086">
        <ele>365.69</ele>
        <time>2022-10-10T13:42:06Z</time>
      </trkpt>
      <trkpt lat="43.60634" lon="5.7508">
        <ele>366.3</ele>
        <time>2022-10-10T13:42:07Z</time>
      </trkpt>
      <trkpt lat="43.60625" lon="5.7508">
        <ele>366.3</ele>
        <time>2022-10-10T13:42:08Z</time>
      </trkpt>
      <trkpt lat="43.60616" lon="5.75083">
        <ele>366.3</ele>
        <time>2022-10-10T13:42:09Z</time>
      </trkpt>
      <trkpt lat="43.60606" lon="5.75087">
        <ele>367.19</ele>
        <time>2022-10-10T13:42:10Z</time>
      </trkpt>
      <trkpt lat="43.60596" lon="5.75089">
        <ele>367.19</ele>
        <time>2022-10-10T13:42:11Z</time>
      </trkpt>
      <trkpt lat="43.60585" lon="5.75087">
        <ele>368.19</ele>
        <time>2022-10-10T13:42:12Z</time>
      </trkpt>
      <trkpt lat="43.60575" lon="5.75085">
        <ele>368.16</ele>
        <time>2022-10-10T13:42:13Z</time>
      </trkpt>
      <trkpt lat="43.60528" lon="5.75072">
        <ele>371.75</ele>
        <time>2022-10-10T13:42:17Z</time>
      </trkpt>
      <trkpt lat="43.60516" lon="5.75068">
        <ele>371.76</ele>
        <time>2022-10-10T13:42:18Z</time>
      </trkpt>
      <trkpt lat="43.60488" lon="5.7506">
        <ele>373.86</ele>
        <time>2022-10-10T13:42:20Z</time>
      </trkpt>
      <trkpt lat="43.60459" lon="5.75051">
        <ele>375.38</ele>
        <time>2022-10-10T13:42:22Z</time>
      </trkpt>
      <trkpt lat="43.60413" lon="5.75038">
        <ele>378.02</ele>
        <time>2022-10-10T13:42:25Z</time>
      </trkpt>
      <trkpt lat="43.6033" lon="5.75013">
        <ele>380.84</ele>
        <time>2022-10-10T13:42:30Z</time>
      </trkpt>
      <trkpt lat="43.60207" lon="5.74977">
        <ele>384.13</ele>
        <time>2022-10-10T13:42:37Z</time>
      </trkpt>
      <trkpt lat="43.60135" lon="5.74954">
        <ele>385.49</ele>
        <time>2022-10-10T13:42:41Z</time>
      </trkpt>
      <trkpt lat="43.60081" lon="5.74942">
        <ele>388.13</ele>
        <time>2022-10-10T13:42:44Z</time>
      </trkpt>
      <trkpt lat="43.60063" lon="5.74942">
        <ele>389.22</ele>
        <time>2022-10-10T13:42:45Z</time>
      </trkpt>
      <trkpt lat="43.60045" lon="5.74945">
        <ele>389.26</ele>
        <time>2022-10-10T13:42:46Z</time>
      </trkpt>
      <trkpt lat="43.60028" lon="5.74951">
        <ele>390.14</ele>
        <time>2022-10-10T13:42:47Z</time>
      </trkpt>
      <trkpt lat="43.5994" lon="5.74981">
        <ele>390.15</ele>
        <time>2022-10-10T13:42:52Z</time>
      </trkpt>
      <trkpt lat="43.59922" lon="5.74982">
        <ele>390.19</ele>
        <time>2022-10-10T13:42:53Z</time>
      </trkpt>
      <trkpt lat="43.59904" lon="5.74979">
        <ele>390.16</ele>
        <time>2022-10-10T13:42:54Z</time>
      </trkpt>
      <trkpt lat="43.59717" lon="5.74955">
        <ele>394.04</ele>
        <time>2022-10-10T13:43:04Z</time>
      </trkpt>
      <trkpt lat="43.59698" lon="5.74957">
        <ele>394.01</ele>
        <time>2022-10-10T13:43:05Z</time>
      </trkpt>
      <trkpt lat="43.59659" lon="5.74959">
        <ele>395.82</ele>
        <time>2022-10-10T13:43:07Z</time>
      </trkpt>
      <trkpt lat="43.59564" lon="5.74953">
        <ele>399.2</ele>
        <time>2022-10-10T13:43:12Z</time>
      </trkpt>
      <trkpt lat="43.59545" lon="5.74947">
        <ele>399.29</ele>
        <time>2022-10-10T13:43:13Z</time>
      </trkpt>
      <trkpt lat="43.59487" lon="5.74924">
        <ele>402.16</ele>
        <time>2022-10-10T13:43:16Z</time>
      </trkpt>
      <trkpt lat="43.59448" lon="5.74907">
        <ele>403.71</ele>
        <time>2022-10-10T13:43:18Z</time>
      </trkpt>
      <trkpt lat="43.59389" lon="5.74888">
        <ele>406.45</ele>
        <time>2022-10-10T13:43:21Z</time>
      </trkpt>
      <trkpt lat="43.59369" lon="5.74885">
        <ele>407.89</ele>
        <time>2022-10-10T13:43:22Z</time>
      </trkpt>
      <trkpt lat="43.59348" lon="5.74886">
        <ele>407.86</ele>
        <time>2022-10-10T13:43:23Z</time>
      </trkpt>
      <trkpt lat="43.59328" lon="5.74888">
        <ele>408.93</ele>
        <time>2022-10-10T13:43:24Z</time>
      </trkpt>
      <trkpt lat="43.59229" lon="5.749">
        <ele>412.1</ele>
        <time>2022-10-10T13:43:29Z</time>
      </trkpt>
      <trkpt lat="43.59209" lon="5.74898">
        <ele>412.52</ele>
        <time>2022-10-10T13:43:30Z</time>
      </trkpt>
      <trkpt lat="43.5919" lon="5.74892">
        <ele>414.37</ele>
        <time>2022-10-10T13:43:31Z</time>
      </trkpt>
      <trkpt lat="43.59172" lon="5.74884">
        <ele>415.63</ele>
        <time>2022-10-10T13:43:32Z</time>
      </trkpt>
      <trkpt lat="43.59154" lon="5.74873">
        <ele>416.45</ele>
        <time>2022-10-10T13:43:33Z</time>
      </trkpt>
      <trkpt lat="43.59137" lon="5.74862">
        <ele>417.59</ele>
        <time>2022-10-10T13:43:34Z</time>
      </trkpt>
      <trkpt lat="43.59102" lon="5.74838">
        <ele>418.7</ele>
        <time>2022-10-10T13:43:36Z</time>
      </trkpt>
      <trkpt lat="43.59066" lon="5.74816">
        <ele>420.41</ele>
        <time>2022-10-10T13:43:38Z</time>
      </trkpt>
      <trkpt lat="43.59047" lon="5.74807">
        <ele>422.13</ele>
        <time>2022-10-10T13:43:39Z</time>
      </trkpt>
      <trkpt lat="43.59028" lon="5.74802">
        <ele>423.29</ele>
        <time>2022-10-10T13:43:40Z</time>
      </trkpt>
      <trkpt lat="43.59008" lon="5.74799">
        <ele>424.62</ele>
        <time>2022-10-10T13:43:41Z</time>
      </trkpt>
      <trkpt lat="43.58988" lon="5.748">
        <ele>425.69</ele>
        <time>2022-10-10T13:43:42Z</time>
      </trkpt>
      <trkpt lat="43.58968" lon="5.74804">
        <ele>426.83</ele>
        <time>2022-10-10T13:43:43Z</time>
      </trkpt>
      <trkpt lat="43.58948" lon="5.74812">
        <ele>428.14</ele>
        <time>2022-10-10T13:43:44Z</time>
      </trkpt>
      <trkpt lat="43.58928" lon="5.74822">
        <ele>428.03</ele>
        <time>2022-10-10T13:43:45Z</time>
      </trkpt>
      <trkpt lat="43.58909" lon="5.74834">
        <ele>428.89</ele>
        <time>2022-10-10T13:43:46Z</time>
      </trkpt>
      <trkpt lat="43.58872" lon="5.74859">
        <ele>429.86</ele>
        <time>2022-10-10T13:43:48Z</time>
      </trkpt>
      <trkpt lat="43.58833" lon="5.7488">
        <ele>431.22</ele>
        <time>2022-10-10T13:43:50Z</time>
      </trkpt>
      <trkpt lat="43.58795" lon="5.74893">
        <ele>432.27</ele>
        <time>2022-10-10T13:43:52Z</time>
      </trkpt>
      <trkpt lat="43.58776" lon="5.74896">
        <ele>433.06</ele>
        <time>2022-10-10T13:43:53Z</time>
      </trkpt>
      <trkpt lat="43.58687" lon="5.74906">
        <ele>432.38</ele>
        <time>2022-10-10T13:43:59Z</time>
      </trkpt>
      <trkpt lat="43.58676" lon="5.74904">
        <ele>433.17</ele>
        <time>2022-10-10T13:44:00Z</time>
      </trkpt>
      <trkpt lat="43.58666" lon="5.749">
        <ele>433.19</ele>
        <time>2022-10-10T13:44:01Z</time>
      </trkpt>
      <trkpt lat="43.58657" lon="5.74892">
        <ele>433.19</ele>
        <time>2022-10-10T13:44:02Z</time>
      </trkpt>
      <trkpt lat="43.58649" lon="5.74881">
        <ele>433.2</ele>
        <time>2022-10-10T13:44:03Z</time>
      </trkpt>
      <trkpt lat="43.58643" lon="5.74867">
        <ele>434.06</ele>
        <time>2022-10-10T13:44:04Z</time>
      </trkpt>
      <trkpt lat="43.58638" lon="5.74851">
        <ele>434.06</ele>
        <time>2022-10-10T13:44:05Z</time>
      </trkpt>
      <trkpt lat="43.58633" lon="5.74834">
        <ele>434.89</ele>
        <time>2022-10-10T13:44:06Z</time>
      </trkpt>
      <trkpt lat="43.58605" lon="5.74754">
        <ele>434.91</ele>
        <time>2022-10-10T13:44:11Z</time>
      </trkpt>
      <trkpt lat="43.58598" lon="5.74744">
        <ele>434.96</ele>
        <time>2022-10-10T13:44:12Z</time>
      </trkpt>
      <trkpt lat="43.58588" lon="5.74738">
        <ele>436.66</ele>
        <time>2022-10-10T13:44:13Z</time>
      </trkpt>
      <trkpt lat="43.58576" lon="5.74735">
        <ele>436.69</ele>
        <time>2022-10-10T13:44:14Z</time>
      </trkpt>
      <trkpt lat="43.58563" lon="5.74734">
        <ele>438.21</ele>
        <time>2022-10-10T13:44:15Z</time>
      </trkpt>
      <trkpt lat="43.58549" lon="5.74736">
        <ele>439.12</ele>
        <time>2022-10-10T13:44:16Z</time>
      </trkpt>
      <trkpt lat="43.58535" lon="5.74737">
        <ele>439.14</ele>
        <time>2022-10-10T13:44:17Z</time>
      </trkpt>
      <trkpt lat="43.58489" lon="5.74747">
        <ele>442.5</ele>
        <time>2022-10-10T13:44:20Z</time>
      </trkpt>
      <trkpt lat="43.58473" lon="5.74751">
        <ele>442.55</ele>
        <time>2022-10-10T13:44:21Z</time>
      </trkpt>
      <trkpt lat="43.58427" lon="5.74765">
        <ele>443.77</ele>
        <time>2022-10-10T13:44:24Z</time>
      </trkpt>
      <trkpt lat="43.58316" lon="5.74832">
        <ele>444.78</ele>
        <time>2022-10-10T13:44:32Z</time>
      </trkpt>
      <trkpt lat="43.58258" lon="5.74863">
        <ele>444.71</ele>
        <time>2022-10-10T13:44:36Z</time>
      </trkpt>
      <trkpt lat="43.58243" lon="5.74864">
        <ele>444.68</ele>
        <time>2022-10-10T13:44:37Z</time>
      </trkpt>
      <trkpt lat="43.58227" lon="5.74864">
        <ele>444.67</ele>
        <time>2022-10-10T13:44:38Z</time>
      </trkpt>
      <trkpt lat="43.58048" lon="5.74862">
        <ele>446.35</ele>
        <time>2022-10-10T13:44:50Z</time>
      </trkpt>
      <trkpt lat="43.58003" lon="5.7487">
        <ele>448.07</ele>
        <time>2022-10-10T13:44:53Z</time>
      </trkpt>
      <trkpt lat="43.57888" lon="5.74918">
        <ele>450.04</ele>
        <time>2022-10-10T13:45:01Z</time>
      </trkpt>
      <trkpt lat="43.57791" lon="5.74958">
        <ele>453.08</ele>
        <time>2022-10-10T13:45:08Z</time>
      </trkpt>
      <trkpt lat="43.57749" lon="5.74973">
        <ele>454.38</ele>
        <time>2022-10-10T13:45:11Z</time>
      </trkpt>
      <trkpt lat="43.57692" lon="5.74974">
        <ele>456.32</ele>
        <time>2022-10-10T13:45:15Z</time>
      </trkpt>
      <trkpt lat="43.57677" lon="5.74969">
        <ele>456.31</ele>
        <time>2022-10-10T13:45:16Z</time>
      </trkpt>
      <trkpt lat="43.57566" lon="5.74905">
        <ele>458.69</ele>
        <time>2022-10-10T13:45:24Z</time>
      </trkpt>
      <trkpt lat="43.57538" lon="5.74888">
        <ele>458.68</ele>
        <time>2022-10-10T13:45:26Z</time>
      </trkpt>
      <trkpt lat="43.57523" lon="5.74883">
        <ele>458.68</ele>
        <time>2022-10-10T13:45:27Z</time>
      </trkpt>
      <trkpt lat="43.57508" lon="5.74881">
        <ele>458.65</ele>
        <time>2022-10-10T13:45:28Z</time>
      </trkpt>
      <trkpt lat="43.57493" lon="5.74882">
        <ele>458.59</ele>
        <time>2022-10-10T13:45:29Z</time>
      </trkpt>
      <trkpt lat="43.57479" lon="5.74885">
        <ele>458.53</ele>
        <time>2022-10-10T13:45:30Z</time>
      </trkpt>
      <trkpt lat="43.57453" lon="5.74893">
        <ele>456.04</ele>
        <time>2022-10-10T13:45:32Z</time>
      </trkpt>
      <trkpt lat="43.5743" lon="5.74902">
        <ele>453.88</ele>
        <time>2022-10-10T13:45:34Z</time>
      </trkpt>
      <trkpt lat="43.5742" lon="5.74899">
        <ele>453.88</ele>
        <time>2022-10-10T13:45:35Z</time>
      </trkpt>
      <trkpt lat="43.57412" lon="5.74891">
        <ele>453.85</ele>
        <time>2022-10-10T13:45:36Z</time>
      </trkpt>
      <trkpt lat="43.57405" lon="5.7488">
        <ele>453.92</ele>
        <time>2022-10-10T13:45:37Z</time>
      </trkpt>
      <trkpt lat="43.57398" lon="5.74867">
        <ele>453.68</ele>
        <time>2022-10-10T13:45:38Z</time>
      </trkpt>
      <trkpt lat="43.57389" lon="5.74854">
        <ele>452.36</ele>
        <time>2022-10-10T13:45:39Z</time>
      </trkpt>
      <trkpt lat="43.57378" lon="5.74843">
        <ele>452.35</ele>
        <time>2022-10-10T13:45:40Z</time>
      </trkpt>
      <trkpt lat="43.57366" lon="5.74833">
        <ele>452.63</ele>
        <time>2022-10-10T13:45:41Z</time>
      </trkpt>
      <trkpt lat="43.57318" lon="5.74789">
        <ele>450.49</ele>
        <time>2022-10-10T13:45:45Z</time>
      </trkpt>
      <trkpt lat="43.57308" lon="5.74778">
        <ele>450.53</ele>
        <time>2022-10-10T13:45:46Z</time>
      </trkpt>
      <trkpt lat="43.57297" lon="5.74768">
        <ele>449.46</ele>
        <time>2022-10-10T13:45:47Z</time>
      </trkpt>
      <trkpt lat="43.57284" lon="5.74763">
        <ele>449.42</ele>
        <time>2022-10-10T13:45:48Z</time>
      </trkpt>
      <trkpt lat="43.57271" lon="5.74762">
        <ele>449.42</ele>
        <time>2022-10-10T13:45:49Z</time>
      </trkpt>
      <trkpt lat="43.57258" lon="5.74764">
        <ele>448.37</ele>
        <time>2022-10-10T13:45:50Z</time>
      </trkpt>
      <trkpt lat="43.57245" lon="5.74766">
        <ele>448.33</ele>
        <time>2022-10-10T13:45:51Z</time>
      </trkpt>
      <trkpt lat="43.57233" lon="5.74763">
        <ele>448.33</ele>
        <time>2022-10-10T13:45:52Z</time>
      </trkpt>
      <trkpt lat="43.57222" lon="5.74757">
        <ele>447.18</ele>
        <time>2022-10-10T13:45:53Z</time>
      </trkpt>
      <trkpt lat="43.57213" lon="5.74747">
        <ele>447.18</ele>
        <time>2022-10-10T13:45:54Z</time>
      </trkpt>
      <trkpt lat="43.57209" lon="5.74734">
        <ele>446.03</ele>
        <time>2022-10-10T13:45:55Z</time>
      </trkpt>
      <trkpt lat="43.57207" lon="5.7472">
        <ele>445.98</ele>
        <time>2022-10-10T13:45:56Z</time>
      </trkpt>
      <trkpt lat="43.57207" lon="5.74703">
        <ele>445.97</ele>
        <time>2022-10-10T13:45:57Z</time>
      </trkpt>
      <trkpt lat="43.57206" lon="5.74686">
        <ele>445.16</ele>
        <time>2022-10-10T13:45:58Z</time>
      </trkpt>
      <trkpt lat="43.57201" lon="5.7467">
        <ele>444.2</ele>
        <time>2022-10-10T13:45:59Z</time>
      </trkpt>
      <trkpt lat="43.57192" lon="5.74657">
        <ele>444.15</ele>
        <time>2022-10-10T13:46:00Z</time>
      </trkpt>
      <trkpt lat="43.57181" lon="5.74647">
        <ele>444.11</ele>
        <time>2022-10-10T13:46:01Z</time>
      </trkpt>
      <trkpt lat="43.57169" lon="5.74637">
        <ele>444.11</ele>
        <time>2022-10-10T13:46:02Z</time>
      </trkpt>
      <trkpt lat="43.57157" lon="5.74628">
        <ele>443.32</ele>
        <time>2022-10-10T13:46:03Z</time>
      </trkpt>
      <trkpt lat="43.57032" lon="5.74544">
        <ele>441.41</ele>
        <time>2022-10-10T13:46:12Z</time>
      </trkpt>
      <trkpt lat="43.56971" lon="5.7451">
        <ele>439.32</ele>
        <time>2022-10-10T13:46:16Z</time>
      </trkpt>
      <trkpt lat="43.56924" lon="5.74485">
        <ele>438.05</ele>
        <time>2022-10-10T13:46:19Z</time>
      </trkpt>
      <trkpt lat="43.5691" lon="5.74474">
        <ele>436.86</ele>
        <time>2022-10-10T13:46:20Z</time>
      </trkpt>
      <trkpt lat="43.56897" lon="5.74459">
        <ele>435.88</ele>
        <time>2022-10-10T13:46:21Z</time>
      </trkpt>
      <trkpt lat="43.56886" lon="5.74443">
        <ele>434.71</ele>
        <time>2022-10-10T13:46:22Z</time>
      </trkpt>
      <trkpt lat="43.56876" lon="5.74426">
        <ele>434.67</ele>
        <time>2022-10-10T13:46:23Z</time>
      </trkpt>
      <trkpt lat="43.56846" lon="5.74376">
        <ele>432.95</ele>
        <time>2022-10-10T13:46:26Z</time>
      </trkpt>
      <trkpt lat="43.56791" lon="5.74285">
        <ele>430.95</ele>
        <time>2022-10-10T13:46:32Z</time>
      </trkpt>
      <trkpt lat="43.56786" lon="5.74269">
        <ele>430.01</ele>
        <time>2022-10-10T13:46:33Z</time>
      </trkpt>
      <trkpt lat="43.56784" lon="5.74251">
        <ele>430.01</ele>
        <time>2022-10-10T13:46:34Z</time>
      </trkpt>
      <trkpt lat="43.56786" lon="5.74234">
        <ele>428.64</ele>
        <time>2022-10-10T13:46:35Z</time>
      </trkpt>
      <trkpt lat="43.56791" lon="5.74216">
        <ele>428.76</ele>
        <time>2022-10-10T13:46:36Z</time>
      </trkpt>
      <trkpt lat="43.56798" lon="5.74198">
        <ele>428.76</ele>
        <time>2022-10-10T13:46:37Z</time>
      </trkpt>
      <trkpt lat="43.56806" lon="5.7418">
        <ele>428.71</ele>
        <time>2022-10-10T13:46:38Z</time>
      </trkpt>
      <trkpt lat="43.56861" lon="5.74065">
        <ele>425.38</ele>
        <time>2022-10-10T13:46:45Z</time>
      </trkpt>
      <trkpt lat="43.5687" lon="5.74051">
        <ele>425.36</ele>
        <time>2022-10-10T13:46:46Z</time>
      </trkpt>
      <trkpt lat="43.56902" lon="5.73994">
        <ele>423.56</ele>
        <time>2022-10-10T13:46:50Z</time>
      </trkpt>
      <trkpt lat="43.56907" lon="5.73979">
        <ele>422.45</ele>
        <time>2022-10-10T13:46:51Z</time>
      </trkpt>
      <trkpt lat="43.56909" lon="5.73963">
        <ele>421.47</ele>
        <time>2022-10-10T13:46:52Z</time>
      </trkpt>
      <trkpt lat="43.56907" lon="5.73945">
        <ele>421.53</ele>
        <time>2022-10-10T13:46:53Z</time>
      </trkpt>
      <trkpt lat="43.56901" lon="5.73929">
        <ele>421</ele>
        <time>2022-10-10T13:46:54Z</time>
      </trkpt>
      <trkpt lat="43.56894" lon="5.73912">
        <ele>421</ele>
        <time>2022-10-10T13:46:55Z</time>
      </trkpt>
      <trkpt lat="43.56885" lon="5.73896">
        <ele>421</ele>
        <time>2022-10-10T13:46:56Z</time>
      </trkpt>
      <trkpt lat="43.5687" lon="5.73862">
        <ele>419.71</ele>
        <time>2022-10-10T13:46:58Z</time>
      </trkpt>
      <trkpt lat="43.56852" lon="5.73812">
        <ele>416.65</ele>
        <time>2022-10-10T13:47:01Z</time>
      </trkpt>
      <trkpt lat="43.56842" lon="5.73781">
        <ele>415.69</ele>
        <time>2022-10-10T13:47:03Z</time>
      </trkpt>
      <trkpt lat="43.56832" lon="5.73752">
        <ele>413.77</ele>
        <time>2022-10-10T13:47:05Z</time>
      </trkpt>
      <trkpt lat="43.56824" lon="5.73741">
        <ele>413.77</ele>
        <time>2022-10-10T13:47:06Z</time>
      </trkpt>
      <trkpt lat="43.56813" lon="5.73733">
        <ele>413.71</ele>
        <time>2022-10-10T13:47:07Z</time>
      </trkpt>
      <trkpt lat="43.56801" lon="5.73728">
        <ele>413.74</ele>
        <time>2022-10-10T13:47:08Z</time>
      </trkpt>
      <trkpt lat="43.56788" lon="5.73723">
        <ele>412.38</ele>
        <time>2022-10-10T13:47:09Z</time>
      </trkpt>
      <trkpt lat="43.56776" lon="5.73717">
        <ele>412.4</ele>
        <time>2022-10-10T13:47:10Z</time>
      </trkpt>
      <trkpt lat="43.56764" lon="5.73706">
        <ele>411.37</ele>
        <time>2022-10-10T13:47:11Z</time>
      </trkpt>
      <trkpt lat="43.56753" lon="5.73693">
        <ele>411.32</ele>
        <time>2022-10-10T13:47:12Z</time>
      </trkpt>
      <trkpt lat="43.56689" lon="5.73589">
        <ele>415.08</ele>
        <time>2022-10-10T13:47:19Z</time>
      </trkpt>
      <trkpt lat="43.56681" lon="5.73575">
        <ele>415.07</ele>
        <time>2022-10-10T13:47:20Z</time>
      </trkpt>
      <trkpt lat="43.56673" lon="5.73561">
        <ele>416.18</ele>
        <time>2022-10-10T13:47:21Z</time>
      </trkpt>
      <trkpt lat="43.56669" lon="5.73547">
        <ele>416.2</ele>
        <time>2022-10-10T13:47:22Z</time>
      </trkpt>
      <trkpt lat="43.56669" lon="5.73533">
        <ele>416.21</ele>
        <time>2022-10-10T13:47:23Z</time>
      </trkpt>
      <trkpt lat="43.56672" lon="5.73519">
        <ele>417.18</ele>
        <time>2022-10-10T13:47:24Z</time>
      </trkpt>
      <trkpt lat="43.56675" lon="5.73505">
        <ele>417.2</ele>
        <time>2022-10-10T13:47:25Z</time>
      </trkpt>
      <trkpt lat="43.56677" lon="5.7349">
        <ele>418.2</ele>
        <time>2022-10-10T13:47:26Z</time>
      </trkpt>
      <trkpt lat="43.56676" lon="5.73475">
        <ele>418.21</ele>
        <time>2022-10-10T13:47:27Z</time>
      </trkpt>
      <trkpt lat="43.5667" lon="5.7346">
        <ele>419.39</ele>
        <time>2022-10-10T13:47:28Z</time>
      </trkpt>
      <trkpt lat="43.56662" lon="5.73447">
        <ele>419.39</ele>
        <time>2022-10-10T13:47:29Z</time>
      </trkpt>
      <trkpt lat="43.56652" lon="5.73436">
        <ele>420.23</ele>
        <time>2022-10-10T13:47:30Z</time>
      </trkpt>
      <trkpt lat="43.5664" lon="5.73426">
        <ele>421.25</ele>
        <time>2022-10-10T13:47:31Z</time>
      </trkpt>
      <trkpt lat="43.56629" lon="5.73415">
        <ele>422.18</ele>
        <time>2022-10-10T13:47:32Z</time>
      </trkpt>
      <trkpt lat="43.5662" lon="5.73401">
        <ele>422.26</ele>
        <time>2022-10-10T13:47:33Z</time>
      </trkpt>
      <trkpt lat="43.56601" lon="5.73373">
        <ele>423.51</ele>
        <time>2022-10-10T13:47:35Z</time>
      </trkpt>
      <trkpt lat="43.5659" lon="5.73361">
        <ele>424.52</ele>
        <time>2022-10-10T13:47:36Z</time>
      </trkpt>
      <trkpt lat="43.56578" lon="5.7335">
        <ele>424.6</ele>
        <time>2022-10-10T13:47:37Z</time>
      </trkpt>
      <trkpt lat="43.56567" lon="5.7334">
        <ele>426.01</ele>
        <time>2022-10-10T13:47:38Z</time>
      </trkpt>
      <trkpt lat="43.56557" lon="5.73327">
        <ele>426.07</ele>
        <time>2022-10-10T13:47:39Z</time>
      </trkpt>
      <trkpt lat="43.56549" lon="5.73312">
        <ele>427.08</ele>
        <time>2022-10-10T13:47:40Z</time>
      </trkpt>
      <trkpt lat="43.56542" lon="5.73295">
        <ele>427.08</ele>
        <time>2022-10-10T13:47:41Z</time>
      </trkpt>
      <trkpt lat="43.56535" lon="5.73278">
        <ele>428.41</ele>
        <time>2022-10-10T13:47:42Z</time>
      </trkpt>
      <trkpt lat="43.56527" lon="5.73263">
        <ele>429.44</ele>
        <time>2022-10-10T13:47:43Z</time>
      </trkpt>
      <trkpt lat="43.56518" lon="5.73247">
        <ele>429.7</ele>
        <time>2022-10-10T13:47:44Z</time>
      </trkpt>
      <trkpt lat="43.56486" lon="5.73206">
        <ele>431.41</ele>
        <time>2022-10-10T13:47:47Z</time>
      </trkpt>
      <trkpt lat="43.56452" lon="5.73169">
        <ele>434.02</ele>
        <time>2022-10-10T13:47:50Z</time>
      </trkpt>
      <trkpt lat="43.56415" lon="5.73136">
        <ele>435.88</ele>
        <time>2022-10-10T13:47:53Z</time>
      </trkpt>
      <trkpt lat="43.56401" lon="5.7313">
        <ele>435.88</ele>
        <time>2022-10-10T13:47:54Z</time>
      </trkpt>
      <trkpt lat="43.56387" lon="5.73126">
        <ele>437.72</ele>
        <time>2022-10-10T13:47:55Z</time>
      </trkpt>
      <trkpt lat="43.56358" lon="5.73117">
        <ele>438.83</ele>
        <time>2022-10-10T13:47:57Z</time>
      </trkpt>
      <trkpt lat="43.56345" lon="5.73109">
        <ele>439.77</ele>
        <time>2022-10-10T13:47:58Z</time>
      </trkpt>
      <trkpt lat="43.56307" lon="5.73078">
        <ele>441.21</ele>
        <time>2022-10-10T13:48:01Z</time>
      </trkpt>
      <trkpt lat="43.56241" lon="5.73029">
        <ele>442.8</ele>
        <time>2022-10-10T13:48:06Z</time>
      </trkpt>
      <trkpt lat="43.56227" lon="5.73022">
        <ele>442.74</ele>
        <time>2022-10-10T13:48:07Z</time>
      </trkpt>
      <trkpt lat="43.56049" lon="5.72963">
        <ele>443.45</ele>
        <time>2022-10-10T13:48:19Z</time>
      </trkpt>
      <trkpt lat="43.5592" lon="5.7288">
        <ele>444.55</ele>
        <time>2022-10-10T13:48:29Z</time>
      </trkpt>
      <trkpt lat="43.55866" lon="5.72827">
        <ele>441.22</ele>
        <time>2022-10-10T13:48:34Z</time>
      </trkpt>
      <trkpt lat="43.55855" lon="5.72817">
        <ele>441.23</ele>
        <time>2022-10-10T13:48:35Z</time>
      </trkpt>
      <trkpt lat="43.55833" lon="5.72797">
        <ele>440.15</ele>
        <time>2022-10-10T13:48:37Z</time>
      </trkpt>
      <trkpt lat="43.5582" lon="5.72792">
        <ele>439.37</ele>
        <time>2022-10-10T13:48:38Z</time>
      </trkpt>
      <trkpt lat="43.55807" lon="5.72792">
        <ele>439.33</ele>
        <time>2022-10-10T13:48:39Z</time>
      </trkpt>
      <trkpt lat="43.55792" lon="5.72795">
        <ele>439.39</ele>
        <time>2022-10-10T13:48:40Z</time>
      </trkpt>
      <trkpt lat="43.55777" lon="5.72799">
        <ele>438.58</ele>
        <time>2022-10-10T13:48:41Z</time>
      </trkpt>
      <trkpt lat="43.55746" lon="5.72809">
        <ele>437.47</ele>
        <time>2022-10-10T13:48:43Z</time>
      </trkpt>
      <trkpt lat="43.55681" lon="5.7283">
        <ele>435.36</ele>
        <time>2022-10-10T13:48:47Z</time>
      </trkpt>
      <trkpt lat="43.55624" lon="5.72865">
        <ele>435.39</ele>
        <time>2022-10-10T13:48:51Z</time>
      </trkpt>
      <trkpt lat="43.55613" lon="5.72878">
        <ele>435.43</ele>
        <time>2022-10-10T13:48:52Z</time>
      </trkpt>
      <trkpt lat="43.55604" lon="5.72893">
        <ele>435.49</ele>
        <time>2022-10-10T13:48:53Z</time>
      </trkpt>
      <trkpt lat="43.55596" lon="5.72909">
        <ele>435.48</ele>
        <time>2022-10-10T13:48:54Z</time>
      </trkpt>
      <trkpt lat="43.55588" lon="5.72926">
        <ele>435.54</ele>
        <time>2022-10-10T13:48:55Z</time>
      </trkpt>
      <trkpt lat="43.55582" lon="5.72943">
        <ele>435.59</ele>
        <time>2022-10-10T13:48:56Z</time>
      </trkpt>
      <trkpt lat="43.55577" lon="5.72961">
        <ele>439.25</ele>
        <time>2022-10-10T13:48:57Z</time>
      </trkpt>
      <trkpt lat="43.55572" lon="5.72978">
        <ele>439.25</ele>
        <time>2022-10-10T13:48:58Z</time>
      </trkpt>
      <trkpt lat="43.55563" lon="5.73013">
        <ele>440.97</ele>
        <time>2022-10-10T13:49:00Z</time>
      </trkpt>
      <trkpt lat="43.55553" lon="5.73045">
        <ele>441.81</ele>
        <time>2022-10-10T13:49:02Z</time>
      </trkpt>
      <trkpt lat="43.55545" lon="5.73059">
        <ele>442.66</ele>
        <time>2022-10-10T13:49:03Z</time>
      </trkpt>
      <trkpt lat="43.55536" lon="5.73071">
        <ele>442.71</ele>
        <time>2022-10-10T13:49:04Z</time>
      </trkpt>
      <trkpt lat="43.55524" lon="5.73082">
        <ele>442.73</ele>
        <time>2022-10-10T13:49:05Z</time>
      </trkpt>
      <trkpt lat="43.55512" lon="5.73091">
        <ele>442.77</ele>
        <time>2022-10-10T13:49:06Z</time>
      </trkpt>
      <trkpt lat="43.55498" lon="5.73098">
        <ele>443.71</ele>
        <time>2022-10-10T13:49:07Z</time>
      </trkpt>
      <trkpt lat="43.55484" lon="5.73103">
        <ele>443.71</ele>
        <time>2022-10-10T13:49:08Z</time>
      </trkpt>
      <trkpt lat="43.5547" lon="5.73107">
        <ele>443.74</ele>
        <time>2022-10-10T13:49:09Z</time>
      </trkpt>
      <trkpt lat="43.55455" lon="5.73109">
        <ele>443.73</ele>
        <time>2022-10-10T13:49:10Z</time>
      </trkpt>
      <trkpt lat="43.55441" lon="5.73109">
        <ele>443.74</ele>
        <time>2022-10-10T13:49:11Z</time>
      </trkpt>
      <trkpt lat="43.55427" lon="5.73108">
        <ele>443.75</ele>
        <time>2022-10-10T13:49:12Z</time>
      </trkpt>
      <trkpt lat="43.55413" lon="5.73105">
        <ele>443.62</ele>
        <time>2022-10-10T13:49:13Z</time>
      </trkpt>
      <trkpt lat="43.554" lon="5.73101">
        <ele>443.64</ele>
        <time>2022-10-10T13:49:14Z</time>
      </trkpt>
      <trkpt lat="43.55377" lon="5.73096">
        <ele>439.86</ele>
        <time>2022-10-10T13:49:16Z</time>
      </trkpt>
      <trkpt lat="43.55366" lon="5.73098">
        <ele>438.94</ele>
        <time>2022-10-10T13:49:17Z</time>
      </trkpt>
      <trkpt lat="43.55357" lon="5.73106">
        <ele>438.93</ele>
        <time>2022-10-10T13:49:18Z</time>
      </trkpt>
      <trkpt lat="43.55352" lon="5.73117">
        <ele>438.93</ele>
        <time>2022-10-10T13:49:19Z</time>
      </trkpt>
      <trkpt lat="43.55351" lon="5.73131">
        <ele>438.94</ele>
        <time>2022-10-10T13:49:20Z</time>
      </trkpt>
      <trkpt lat="43.55351" lon="5.73145">
        <ele>438.95</ele>
        <time>2022-10-10T13:49:21Z</time>
      </trkpt>
      <trkpt lat="43.5535" lon="5.73159">
        <ele>438.95</ele>
        <time>2022-10-10T13:49:22Z</time>
      </trkpt>
      <trkpt lat="43.55348" lon="5.73173">
        <ele>438.96</ele>
        <time>2022-10-10T13:49:23Z</time>
      </trkpt>
      <trkpt lat="43.55343" lon="5.73186">
        <ele>441.39</ele>
        <time>2022-10-10T13:49:24Z</time>
      </trkpt>
      <trkpt lat="43.55335" lon="5.73197">
        <ele>441.35</ele>
        <time>2022-10-10T13:49:25Z</time>
      </trkpt>
      <trkpt lat="43.55324" lon="5.73207">
        <ele>441.36</ele>
        <time>2022-10-10T13:49:26Z</time>
      </trkpt>
      <trkpt lat="43.55313" lon="5.73216">
        <ele>442.43</ele>
        <time>2022-10-10T13:49:27Z</time>
      </trkpt>
      <trkpt lat="43.55289" lon="5.73235">
        <ele>443.36</ele>
        <time>2022-10-10T13:49:29Z</time>
      </trkpt>
      <trkpt lat="43.55265" lon="5.73256">
        <ele>444.7</ele>
        <time>2022-10-10T13:49:31Z</time>
      </trkpt>
      <trkpt lat="43.55225" lon="5.73289">
        <ele>447.87</ele>
        <time>2022-10-10T13:49:34Z</time>
      </trkpt>
      <trkpt lat="43.55212" lon="5.73299">
        <ele>447.93</ele>
        <time>2022-10-10T13:49:35Z</time>
      </trkpt>
      <trkpt lat="43.55171" lon="5.73333">
        <ele>450.48</ele>
        <time>2022-10-10T13:49:38Z</time>
      </trkpt>
      <trkpt lat="43.55069" lon="5.73414">
        <ele>453.87</ele>
        <time>2022-10-10T13:49:45Z</time>
      </trkpt>
      <trkpt lat="43.54977" lon="5.73489">
        <ele>457.06</ele>
        <time>2022-10-10T13:49:51Z</time>
      </trkpt>
      <trkpt lat="43.5493" lon="5.73526">
        <ele>458.42</ele>
        <time>2022-10-10T13:49:54Z</time>
      </trkpt>
      <trkpt lat="43.54852" lon="5.73588">
        <ele>461.08</ele>
        <time>2022-10-10T13:49:59Z</time>
      </trkpt>
      <trkpt lat="43.54682" lon="5.73724">
        <ele>463.8</ele>
        <time>2022-10-10T13:50:10Z</time>
      </trkpt>
      <trkpt lat="43.54667" lon="5.73732">
        <ele>463.8</ele>
        <time>2022-10-10T13:50:11Z</time>
      </trkpt>
      <trkpt lat="43.54651" lon="5.73739">
        <ele>465.19</ele>
        <time>2022-10-10T13:50:12Z</time>
      </trkpt>
      <trkpt lat="43.54621" lon="5.73749">
        <ele>466.06</ele>
        <time>2022-10-10T13:50:14Z</time>
      </trkpt>
      <trkpt lat="43.5459" lon="5.73755">
        <ele>468.3</ele>
        <time>2022-10-10T13:50:16Z</time>
      </trkpt>
      <trkpt lat="43.54575" lon="5.73754">
        <ele>468.33</ele>
        <time>2022-10-10T13:50:17Z</time>
      </trkpt>
      <trkpt lat="43.54559" lon="5.7375">
        <ele>469.65</ele>
        <time>2022-10-10T13:50:18Z</time>
      </trkpt>
      <trkpt lat="43.54544" lon="5.73742">
        <ele>469.69</ele>
        <time>2022-10-10T13:50:19Z</time>
      </trkpt>
      <trkpt lat="43.5453" lon="5.73731">
        <ele>470.97</ele>
        <time>2022-10-10T13:50:20Z</time>
      </trkpt>
      <trkpt lat="43.54516" lon="5.73717">
        <ele>472.25</ele>
        <time>2022-10-10T13:50:21Z</time>
      </trkpt>
      <trkpt lat="43.54486" lon="5.73688">
        <ele>475.25</ele>
        <time>2022-10-10T13:50:23Z</time>
      </trkpt>
      <trkpt lat="43.54438" lon="5.73646">
        <ele>478.5</ele>
        <time>2022-10-10T13:50:26Z</time>
      </trkpt>
      <trkpt lat="43.54422" lon="5.73633">
        <ele>478.76</ele>
        <time>2022-10-10T13:50:27Z</time>
      </trkpt>
      <trkpt lat="43.54354" lon="5.73573">
        <ele>480.1</ele>
        <time>2022-10-10T13:50:32Z</time>
      </trkpt>
      <trkpt lat="43.54325" lon="5.73551">
        <ele>481.35</ele>
        <time>2022-10-10T13:50:34Z</time>
      </trkpt>
      <trkpt lat="43.54192" lon="5.73462">
        <ele>479.11</ele>
        <time>2022-10-10T13:50:42Z</time>
      </trkpt>
      <trkpt lat="43.5414" lon="5.73428">
        <ele>475.48</ele>
        <time>2022-10-10T13:50:45Z</time>
      </trkpt>
      <trkpt lat="43.54122" lon="5.73415">
        <ele>475.4</ele>
        <time>2022-10-10T13:50:46Z</time>
      </trkpt>
      <trkpt lat="43.54088" lon="5.73389">
        <ele>473.95</ele>
        <time>2022-10-10T13:50:48Z</time>
      </trkpt>
      <trkpt lat="43.54056" lon="5.73364">
        <ele>471.03</ele>
        <time>2022-10-10T13:50:50Z</time>
      </trkpt>
      <trkpt lat="43.54011" lon="5.73328">
        <ele>466.98</ele>
        <time>2022-10-10T13:50:53Z</time>
      </trkpt>
      <trkpt lat="43.53997" lon="5.73317">
        <ele>466.98</ele>
        <time>2022-10-10T13:50:54Z</time>
      </trkpt>
      <trkpt lat="43.53958" lon="5.73285">
        <ele>463.7</ele>
        <time>2022-10-10T13:50:57Z</time>
      </trkpt>
      <trkpt lat="43.53946" lon="5.73274">
        <ele>463.62</ele>
        <time>2022-10-10T13:50:58Z</time>
      </trkpt>
      <trkpt lat="43.53935" lon="5.73262">
        <ele>462.52</ele>
        <time>2022-10-10T13:50:59Z</time>
      </trkpt>
      <trkpt lat="43.53925" lon="5.73248">
        <ele>462.53</ele>
        <time>2022-10-10T13:51:00Z</time>
      </trkpt>
      <trkpt lat="43.53916" lon="5.73231">
        <ele>461.12</ele>
        <time>2022-10-10T13:51:01Z</time>
      </trkpt>
      <trkpt lat="43.5391" lon="5.73212">
        <ele>461.15</ele>
        <time>2022-10-10T13:51:02Z</time>
      </trkpt>
      <trkpt lat="43.53904" lon="5.73192">
        <ele>461.08</ele>
        <time>2022-10-10T13:51:03Z</time>
      </trkpt>
      <trkpt lat="43.53899" lon="5.7317">
        <ele>461.09</ele>
        <time>2022-10-10T13:51:04Z</time>
      </trkpt>
      <trkpt lat="43.53885" lon="5.7313">
        <ele>459.72</ele>
        <time>2022-10-10T13:51:06Z</time>
      </trkpt>
      <trkpt lat="43.53875" lon="5.73111">
        <ele>459.74</ele>
        <time>2022-10-10T13:51:07Z</time>
      </trkpt>
      <trkpt lat="43.53863" lon="5.73094">
        <ele>458.83</ele>
        <time>2022-10-10T13:51:08Z</time>
      </trkpt>
      <trkpt lat="43.53851" lon="5.73076">
        <ele>458.79</ele>
        <time>2022-10-10T13:51:09Z</time>
      </trkpt>
      <trkpt lat="43.53841" lon="5.73057">
        <ele>457.84</ele>
        <time>2022-10-10T13:51:10Z</time>
      </trkpt>
      <trkpt lat="43.5383" lon="5.73038">
        <ele>457.83</ele>
        <time>2022-10-10T13:51:11Z</time>
      </trkpt>
      <trkpt lat="43.538" lon="5.72984">
        <ele>455.93</ele>
        <time>2022-10-10T13:51:14Z</time>
      </trkpt>
      <trkpt lat="43.53792" lon="5.72964">
        <ele>455.42</ele>
        <time>2022-10-10T13:51:15Z</time>
      </trkpt>
      <trkpt lat="43.53786" lon="5.72944">
        <ele>454.05</ele>
        <time>2022-10-10T13:51:16Z</time>
      </trkpt>
      <trkpt lat="43.53782" lon="5.72924">
        <ele>454.05</ele>
        <time>2022-10-10T13:51:17Z</time>
      </trkpt>
      <trkpt lat="43.53772" lon="5.72889">
        <ele>452.76</ele>
        <time>2022-10-10T13:51:19Z</time>
      </trkpt>
      <trkpt lat="43.53765" lon="5.72875">
        <ele>452.76</ele>
        <time>2022-10-10T13:51:20Z</time>
      </trkpt>
      <trkpt lat="43.53756" lon="5.72866">
        <ele>451.7</ele>
        <time>2022-10-10T13:51:21Z</time>
      </trkpt>
      <trkpt lat="43.53743" lon="5.72861">
        <ele>451.7</ele>
        <time>2022-10-10T13:51:22Z</time>
      </trkpt>
      <trkpt lat="43.53728" lon="5.72858">
        <ele>451.65</ele>
        <time>2022-10-10T13:51:23Z</time>
      </trkpt>
      <trkpt lat="43.5365" lon="5.72852">
        <ele>449.49</ele>
        <time>2022-10-10T13:51:28Z</time>
      </trkpt>
      <trkpt lat="43.53636" lon="5.72857">
        <ele>448.59</ele>
        <time>2022-10-10T13:51:29Z</time>
      </trkpt>
      <trkpt lat="43.53623" lon="5.72866">
        <ele>448.61</ele>
        <time>2022-10-10T13:51:30Z</time>
      </trkpt>
      <trkpt lat="43.53612" lon="5.72881">
        <ele>447.76</ele>
        <time>2022-10-10T13:51:31Z</time>
      </trkpt>
      <trkpt lat="43.53603" lon="5.72898">
        <ele>446.84</ele>
        <time>2022-10-10T13:51:32Z</time>
      </trkpt>
      <trkpt lat="43.53595" lon="5.72916">
        <ele>446.78</ele>
        <time>2022-10-10T13:51:33Z</time>
      </trkpt>
      <trkpt lat="43.53591" lon="5.72936">
        <ele>446.05</ele>
        <time>2022-10-10T13:51:34Z</time>
      </trkpt>
      <trkpt lat="43.53588" lon="5.72955">
        <ele>446.05</ele>
        <time>2022-10-10T13:51:35Z</time>
      </trkpt>
      <trkpt lat="43.53586" lon="5.72972">
        <ele>444.3</ele>
        <time>2022-10-10T13:51:36Z</time>
      </trkpt>
      <trkpt lat="43.53582" lon="5.72985">
        <ele>443.28</ele>
        <time>2022-10-10T13:51:37Z</time>
      </trkpt>
      <trkpt lat="43.53577" lon="5.72994">
        <ele>442.44</ele>
        <time>2022-10-10T13:51:38Z</time>
      </trkpt>
      <trkpt lat="43.53571" lon="5.72998">
        <ele>441.69</ele>
        <time>2022-10-10T13:51:39Z</time>
      </trkpt>
      <trkpt lat="43.53564" lon="5.72994">
        <ele>441.16</ele>
        <time>2022-10-10T13:51:40Z</time>
      </trkpt>
      <trkpt lat="43.53559" lon="5.72985">
        <ele>441.69</ele>
        <time>2022-10-10T13:51:41Z</time>
      </trkpt>
      <trkpt lat="43.53553" lon="5.72975">
        <ele>441.63</ele>
        <time>2022-10-10T13:51:42Z</time>
      </trkpt>
      <trkpt lat="43.53547" lon="5.72964">
        <ele>441.64</ele>
        <time>2022-10-10T13:51:43Z</time>
      </trkpt>
      <trkpt lat="43.5354" lon="5.72955">
        <ele>440.28</ele>
        <time>2022-10-10T13:51:44Z</time>
      </trkpt>
      <trkpt lat="43.5353" lon="5.72948">
        <ele>440.23</ele>
        <time>2022-10-10T13:51:45Z</time>
      </trkpt>
      <trkpt lat="43.5352" lon="5.72944">
        <ele>440.26</ele>
        <time>2022-10-10T13:51:46Z</time>
      </trkpt>
      <trkpt lat="43.53508" lon="5.72943">
        <ele>440.26</ele>
        <time>2022-10-10T13:51:47Z</time>
      </trkpt>
      <trkpt lat="43.53497" lon="5.72945">
        <ele>440.24</ele>
        <time>2022-10-10T13:51:48Z</time>
      </trkpt>
      <trkpt lat="43.53486" lon="5.7295">
        <ele>440.22</ele>
        <time>2022-10-10T13:51:49Z</time>
      </trkpt>
      <trkpt lat="43.53477" lon="5.72958">
        <ele>439.29</ele>
        <time>2022-10-10T13:51:50Z</time>
      </trkpt>
      <trkpt lat="43.53467" lon="5.72968">
        <ele>439.25</ele>
        <time>2022-10-10T13:51:51Z</time>
      </trkpt>
      <trkpt lat="43.53459" lon="5.7298">
        <ele>439.27</ele>
        <time>2022-10-10T13:51:52Z</time>
      </trkpt>
      <trkpt lat="43.5345" lon="5.72992">
        <ele>439.25</ele>
        <time>2022-10-10T13:51:53Z</time>
      </trkpt>
      <trkpt lat="43.53422" lon="5.73041">
        <ele>436.95</ele>
        <time>2022-10-10T13:51:57Z</time>
      </trkpt>
      <trkpt lat="43.53415" lon="5.73049">
        <ele>436.09</ele>
        <time>2022-10-10T13:51:58Z</time>
      </trkpt>
      <trkpt lat="43.53408" lon="5.73053">
        <ele>436.06</ele>
        <time>2022-10-10T13:51:59Z</time>
      </trkpt>
      <trkpt lat="43.53401" lon="5.7305">
        <ele>434.56</ele>
        <time>2022-10-10T13:52:00Z</time>
      </trkpt>
      <trkpt lat="43.53396" lon="5.73043">
        <ele>434.54</ele>
        <time>2022-10-10T13:52:01Z</time>
      </trkpt>
      <trkpt lat="43.5339" lon="5.73035">
        <ele>434.64</ele>
        <time>2022-10-10T13:52:02Z</time>
      </trkpt>
      <trkpt lat="43.53383" lon="5.7303">
        <ele>434.63</ele>
        <time>2022-10-10T13:52:03Z</time>
      </trkpt>
      <trkpt lat="43.53374" lon="5.73031">
        <ele>433.52</ele>
        <time>2022-10-10T13:52:04Z</time>
      </trkpt>
      <trkpt lat="43.53365" lon="5.73037">
        <ele>433.54</ele>
        <time>2022-10-10T13:52:05Z</time>
      </trkpt>
      <trkpt lat="43.53357" lon="5.73046">
        <ele>433.55</ele>
        <time>2022-10-10T13:52:06Z</time>
      </trkpt>
      <trkpt lat="43.5335" lon="5.73054">
        <ele>433.52</ele>
        <time>2022-10-10T13:52:07Z</time>
      </trkpt>
      <trkpt lat="43.53342" lon="5.73062">
        <ele>431.75</ele>
        <time>2022-10-10T13:52:08Z</time>
      </trkpt>
      <trkpt lat="43.53333" lon="5.73067">
        <ele>431.74</ele>
        <time>2022-10-10T13:52:09Z</time>
      </trkpt>
      <trkpt lat="43.53325" lon="5.73068">
        <ele>430.56</ele>
        <time>2022-10-10T13:52:10Z</time>
      </trkpt>
      <trkpt lat="43.53317" lon="5.73065">
        <ele>430.57</ele>
        <time>2022-10-10T13:52:11Z</time>
      </trkpt>
      <trkpt lat="43.53309" lon="5.73063">
        <ele>429.94</ele>
        <time>2022-10-10T13:52:12Z</time>
      </trkpt>
      <trkpt lat="43.533" lon="5.73064">
        <ele>429.9</ele>
        <time>2022-10-10T13:52:13Z</time>
      </trkpt>
      <trkpt lat="43.53294" lon="5.73075">
        <ele>429.9</ele>
        <time>2022-10-10T13:52:14Z</time>
      </trkpt>
      <trkpt lat="43.53291" lon="5.73088">
        <ele>429.91</ele>
        <time>2022-10-10T13:52:15Z</time>
      </trkpt>
      <trkpt lat="43.53292" lon="5.73102">
        <ele>428.57</ele>
        <time>2022-10-10T13:52:16Z</time>
      </trkpt>
      <trkpt lat="43.53296" lon="5.73116">
        <ele>428.58</ele>
        <time>2022-10-10T13:52:17Z</time>
      </trkpt>
      <trkpt lat="43.53298" lon="5.73129">
        <ele>428.56</ele>
        <time>2022-10-10T13:52:18Z</time>
      </trkpt>
      <trkpt lat="43.53298" lon="5.73142">
        <ele>426.29</ele>
        <time>2022-10-10T13:52:19Z</time>
      </trkpt>
      <trkpt lat="43.53295" lon="5.73155">
        <ele>426.23</ele>
        <time>2022-10-10T13:52:20Z</time>
      </trkpt>
      <trkpt lat="43.53289" lon="5.73165">
        <ele>425.24</ele>
        <time>2022-10-10T13:52:21Z</time>
      </trkpt>
      <trkpt lat="43.53283" lon="5.73173">
        <ele>424.41</ele>
        <time>2022-10-10T13:52:22Z</time>
      </trkpt>
      <trkpt lat="43.53275" lon="5.73178">
        <ele>424.39</ele>
        <time>2022-10-10T13:52:23Z</time>
      </trkpt>
      <trkpt lat="43.53268" lon="5.73181">
        <ele>422.95</ele>
        <time>2022-10-10T13:52:24Z</time>
      </trkpt>
      <trkpt lat="43.53261" lon="5.73182">
        <ele>423.02</ele>
        <time>2022-10-10T13:52:25Z</time>
      </trkpt>
      <trkpt lat="43.53253" lon="5.73175">
        <ele>423</ele>
        <time>2022-10-10T13:52:26Z</time>
      </trkpt>
      <trkpt lat="43.53244" lon="5.73169">
        <ele>423</ele>
        <time>2022-10-10T13:52:27Z</time>
      </trkpt>
      <trkpt lat="43.53235" lon="5.73164">
        <ele>421.92</ele>
        <time>2022-10-10T13:52:28Z</time>
      </trkpt>
      <trkpt lat="43.53225" lon="5.73162">
        <ele>421.86</ele>
        <time>2022-10-10T13:52:29Z</time>
      </trkpt>
      <trkpt lat="43.53214" lon="5.73162">
        <ele>420.92</ele>
        <time>2022-10-10T13:52:30Z</time>
      </trkpt>
      <trkpt lat="43.53204" lon="5.73164">
        <ele>420.92</ele>
        <time>2022-10-10T13:52:31Z</time>
      </trkpt>
      <trkpt lat="43.53194" lon="5.73172">
        <ele>420.08</ele>
        <time>2022-10-10T13:52:32Z</time>
      </trkpt>
      <trkpt lat="43.53184" lon="5.73178">
        <ele>420.1</ele>
        <time>2022-10-10T13:52:33Z</time>
      </trkpt>
      <trkpt lat="43.53174" lon="5.73184">
        <ele>419.06</ele>
        <time>2022-10-10T13:52:34Z</time>
      </trkpt>
      <trkpt lat="43.53146" lon="5.73196">
        <ele>417.42</ele>
        <time>2022-10-10T13:52:37Z</time>
      </trkpt>
      <trkpt lat="43.53137" lon="5.73197">
        <ele>416.4</ele>
        <time>2022-10-10T13:52:38Z</time>
      </trkpt>
      <trkpt lat="43.53127" lon="5.73197">
        <ele>416.36</ele>
        <time>2022-10-10T13:52:39Z</time>
      </trkpt>
      <trkpt lat="43.53109" lon="5.73196">
        <ele>415.53</ele>
        <time>2022-10-10T13:52:41Z</time>
      </trkpt>
      <trkpt lat="43.53101" lon="5.73201">
        <ele>414.65</ele>
        <time>2022-10-10T13:52:42Z</time>
      </trkpt>
      <trkpt lat="43.53095" lon="5.73211">
        <ele>414.65</ele>
        <time>2022-10-10T13:52:43Z</time>
      </trkpt>
      <trkpt lat="43.53091" lon="5.73226">
        <ele>413.68</ele>
        <time>2022-10-10T13:52:44Z</time>
      </trkpt>
      <trkpt lat="43.53089" lon="5.73241">
        <ele>413.68</ele>
        <time>2022-10-10T13:52:45Z</time>
      </trkpt>
      <trkpt lat="43.53089" lon="5.73258">
        <ele>412.92</ele>
        <time>2022-10-10T13:52:46Z</time>
      </trkpt>
      <trkpt lat="43.53089" lon="5.73275">
        <ele>412.87</ele>
        <time>2022-10-10T13:52:47Z</time>
      </trkpt>
      <trkpt lat="43.53083" lon="5.73346">
        <ele>408.74</ele>
        <time>2022-10-10T13:52:51Z</time>
      </trkpt>
      <trkpt lat="43.53079" lon="5.73362">
        <ele>407.51</ele>
        <time>2022-10-10T13:52:52Z</time>
      </trkpt>
      <trkpt lat="43.53074" lon="5.73376">
        <ele>406.43</ele>
        <time>2022-10-10T13:52:53Z</time>
      </trkpt>
      <trkpt lat="43.53066" lon="5.73386">
        <ele>405.48</ele>
        <time>2022-10-10T13:52:54Z</time>
      </trkpt>
      <trkpt lat="43.53058" lon="5.73395">
        <ele>404.56</ele>
        <time>2022-10-10T13:52:55Z</time>
      </trkpt>
      <trkpt lat="43.53049" lon="5.73405">
        <ele>404.57</ele>
        <time>2022-10-10T13:52:56Z</time>
      </trkpt>
      <trkpt lat="43.53042" lon="5.73416">
        <ele>403.49</ele>
        <time>2022-10-10T13:52:57Z</time>
      </trkpt>
      <trkpt lat="43.53035" lon="5.73429">
        <ele>403.55</ele>
        <time>2022-10-10T13:52:58Z</time>
      </trkpt>
      <trkpt lat="43.53025" lon="5.73455">
        <ele>402.41</ele>
        <time>2022-10-10T13:53:00Z</time>
      </trkpt>
      <trkpt lat="43.53018" lon="5.73465">
        <ele>401.1</ele>
        <time>2022-10-10T13:53:01Z</time>
      </trkpt>
      <trkpt lat="43.53009" lon="5.73472">
        <ele>399.84</ele>
        <time>2022-10-10T13:53:02Z</time>
      </trkpt>
      <trkpt lat="43.53" lon="5.73479">
        <ele>399.16</ele>
        <time>2022-10-10T13:53:03Z</time>
      </trkpt>
      <trkpt lat="43.52991" lon="5.73482">
        <ele>399.16</ele>
        <time>2022-10-10T13:53:04Z</time>
      </trkpt>
      <trkpt lat="43.5298" lon="5.73482">
        <ele>399.16</ele>
        <time>2022-10-10T13:53:05Z</time>
      </trkpt>
      <trkpt lat="43.52969" lon="5.73482">
        <ele>398.07</ele>
        <time>2022-10-10T13:53:06Z</time>
      </trkpt>
      <trkpt lat="43.52958" lon="5.7348">
        <ele>396.79</ele>
        <time>2022-10-10T13:53:07Z</time>
      </trkpt>
      <trkpt lat="43.52947" lon="5.73476">
        <ele>396.8</ele>
        <time>2022-10-10T13:53:08Z</time>
      </trkpt>
      <trkpt lat="43.52938" lon="5.73468">
        <ele>395.84</ele>
        <time>2022-10-10T13:53:09Z</time>
      </trkpt>
      <trkpt lat="43.5293" lon="5.73458">
        <ele>394.71</ele>
        <time>2022-10-10T13:53:10Z</time>
      </trkpt>
      <trkpt lat="43.52923" lon="5.73448">
        <ele>394.66</ele>
        <time>2022-10-10T13:53:11Z</time>
      </trkpt>
      <trkpt lat="43.52916" lon="5.73438">
        <ele>393.42</ele>
        <time>2022-10-10T13:53:12Z</time>
      </trkpt>
      <trkpt lat="43.52908" lon="5.7343">
        <ele>393.42</ele>
        <time>2022-10-10T13:53:13Z</time>
      </trkpt>
      <trkpt lat="43.52898" lon="5.73425">
        <ele>392.01</ele>
        <time>2022-10-10T13:53:14Z</time>
      </trkpt>
      <trkpt lat="43.52888" lon="5.73425">
        <ele>392.01</ele>
        <time>2022-10-10T13:53:15Z</time>
      </trkpt>
      <trkpt lat="43.5288" lon="5.7343">
        <ele>390.88</ele>
        <time>2022-10-10T13:53:16Z</time>
      </trkpt>
      <trkpt lat="43.52871" lon="5.73436">
        <ele>390.88</ele>
        <time>2022-10-10T13:53:17Z</time>
      </trkpt>
      <trkpt lat="43.52861" lon="5.73443">
        <ele>388.8</ele>
        <time>2022-10-10T13:53:18Z</time>
      </trkpt>
      <trkpt lat="43.52854" lon="5.73447">
        <ele>389</ele>
        <time>2022-10-10T13:53:19Z</time>
      </trkpt>
      <trkpt lat="43.52846" lon="5.73449">
        <ele>386.96</ele>
        <time>2022-10-10T13:53:20Z</time>
      </trkpt>
      <trkpt lat="43.52835" lon="5.73445">
        <ele>386.86</ele>
        <time>2022-10-10T13:53:21Z</time>
      </trkpt>
      <trkpt lat="43.52824" lon="5.73441">
        <ele>385.21</ele>
        <time>2022-10-10T13:53:22Z</time>
      </trkpt>
      <trkpt lat="43.52812" lon="5.7344">
        <ele>385.14</ele>
        <time>2022-10-10T13:53:23Z</time>
      </trkpt>
      <trkpt lat="43.528" lon="5.73444">
        <ele>384.08</ele>
        <time>2022-10-10T13:53:24Z</time>
      </trkpt>
      <trkpt lat="43.52788" lon="5.7345">
        <ele>384.03</ele>
        <time>2022-10-10T13:53:25Z</time>
      </trkpt>
      <trkpt lat="43.52777" lon="5.73458">
        <ele>382.92</ele>
        <time>2022-10-10T13:53:26Z</time>
      </trkpt>
      <trkpt lat="43.52756" lon="5.73471">
        <ele>381.44</ele>
        <time>2022-10-10T13:53:28Z</time>
      </trkpt>
      <trkpt lat="43.52747" lon="5.73478">
        <ele>379.99</ele>
        <time>2022-10-10T13:53:29Z</time>
      </trkpt>
      <trkpt lat="43.52742" lon="5.73487">
        <ele>379.99</ele>
        <time>2022-10-10T13:53:30Z</time>
      </trkpt>
      <trkpt lat="43.52741" lon="5.73498">
        <ele>378.87</ele>
        <time>2022-10-10T13:53:31Z</time>
      </trkpt>
      <trkpt lat="43.52744" lon="5.73509">
        <ele>378.86</ele>
        <time>2022-10-10T13:53:32Z</time>
      </trkpt>
      <trkpt lat="43.52748" lon="5.7352">
        <ele>377.84</ele>
        <time>2022-10-10T13:53:33Z</time>
      </trkpt>
      <trkpt lat="43.5275" lon="5.73531">
        <ele>377.85</ele>
        <time>2022-10-10T13:53:34Z</time>
      </trkpt>
      <trkpt lat="43.5275" lon="5.73543">
        <ele>376.82</ele>
        <time>2022-10-10T13:53:35Z</time>
      </trkpt>
      <trkpt lat="43.52746" lon="5.73554">
        <ele>375.97</ele>
        <time>2022-10-10T13:53:36Z</time>
      </trkpt>
      <trkpt lat="43.52739" lon="5.73563">
        <ele>374.92</ele>
        <time>2022-10-10T13:53:37Z</time>
      </trkpt>
      <trkpt lat="43.52731" lon="5.73571">
        <ele>374.93</ele>
        <time>2022-10-10T13:53:38Z</time>
      </trkpt>
      <trkpt lat="43.52722" lon="5.73575">
        <ele>373.3</ele>
        <time>2022-10-10T13:53:39Z</time>
      </trkpt>
      <trkpt lat="43.52714" lon="5.73576">
        <ele>373.24</ele>
        <time>2022-10-10T13:53:40Z</time>
      </trkpt>
      <trkpt lat="43.52705" lon="5.73572">
        <ele>373.24</ele>
        <time>2022-10-10T13:53:41Z</time>
      </trkpt>
      <trkpt lat="43.52697" lon="5.73562">
        <ele>372.38</ele>
        <time>2022-10-10T13:53:42Z</time>
      </trkpt>
      <trkpt lat="43.5269" lon="5.73551">
        <ele>372.31</ele>
        <time>2022-10-10T13:53:43Z</time>
      </trkpt>
      <trkpt lat="43.52684" lon="5.73536">
        <ele>372.34</ele>
        <time>2022-10-10T13:53:44Z</time>
      </trkpt>
      <trkpt lat="43.52679" lon="5.73521">
        <ele>372.33</ele>
        <time>2022-10-10T13:53:45Z</time>
      </trkpt>
      <trkpt lat="43.52644" lon="5.73456">
        <ele>368.65</ele>
        <time>2022-10-10T13:53:50Z</time>
      </trkpt>
      <trkpt lat="43.52637" lon="5.73445">
        <ele>368.6</ele>
        <time>2022-10-10T13:53:51Z</time>
      </trkpt>
      <trkpt lat="43.52629" lon="5.73435">
        <ele>367.54</ele>
        <time>2022-10-10T13:53:52Z</time>
      </trkpt>
      <trkpt lat="43.5262" lon="5.73429">
        <ele>367.23</ele>
        <time>2022-10-10T13:53:53Z</time>
      </trkpt>
      <trkpt lat="43.52612" lon="5.7343">
        <ele>365.49</ele>
        <time>2022-10-10T13:53:54Z</time>
      </trkpt>
      <trkpt lat="43.52607" lon="5.73436">
        <ele>365.49</ele>
        <time>2022-10-10T13:53:55Z</time>
      </trkpt>
      <trkpt lat="43.52602" lon="5.73446">
        <ele>365.42</ele>
        <time>2022-10-10T13:53:56Z</time>
      </trkpt>
      <trkpt lat="43.52598" lon="5.73458">
        <ele>364.39</ele>
        <time>2022-10-10T13:53:57Z</time>
      </trkpt>
      <trkpt lat="43.52594" lon="5.73469">
        <ele>363.48</ele>
        <time>2022-10-10T13:53:58Z</time>
      </trkpt>
      <trkpt lat="43.5259" lon="5.73481">
        <ele>363.47</ele>
        <time>2022-10-10T13:53:59Z</time>
      </trkpt>
      <trkpt lat="43.5258" lon="5.73516">
        <ele>360.63</ele>
        <time>2022-10-10T13:54:02Z</time>
      </trkpt>
      <trkpt lat="43.52572" lon="5.73523">
        <ele>359.63</ele>
        <time>2022-10-10T13:54:03Z</time>
      </trkpt>
      <trkpt lat="43.52563" lon="5.73524">
        <ele>358.56</ele>
        <time>2022-10-10T13:54:04Z</time>
      </trkpt>
      <trkpt lat="43.52554" lon="5.73522">
        <ele>358.49</ele>
        <time>2022-10-10T13:54:05Z</time>
      </trkpt>
      <trkpt lat="43.52543" lon="5.73517">
        <ele>358.41</ele>
        <time>2022-10-10T13:54:06Z</time>
      </trkpt>
      <trkpt lat="43.52532" lon="5.7351">
        <ele>357.28</ele>
        <time>2022-10-10T13:54:07Z</time>
      </trkpt>
      <trkpt lat="43.52507" lon="5.73498">
        <ele>356.45</ele>
        <time>2022-10-10T13:54:09Z</time>
      </trkpt>
      <trkpt lat="43.52494" lon="5.73495">
        <ele>356.44</ele>
        <time>2022-10-10T13:54:10Z</time>
      </trkpt>
      <trkpt lat="43.52481" lon="5.73495">
        <ele>355.22</ele>
        <time>2022-10-10T13:54:11Z</time>
      </trkpt>
      <trkpt lat="43.52469" lon="5.73496">
        <ele>354.06</ele>
        <time>2022-10-10T13:54:12Z</time>
      </trkpt>
      <trkpt lat="43.52459" lon="5.735">
        <ele>354.13</ele>
        <time>2022-10-10T13:54:13Z</time>
      </trkpt>
      <trkpt lat="43.5245" lon="5.73507">
        <ele>354.06</ele>
        <time>2022-10-10T13:54:14Z</time>
      </trkpt>
      <trkpt lat="43.52442" lon="5.73516">
        <ele>352.33</ele>
        <time>2022-10-10T13:54:15Z</time>
      </trkpt>
      <trkpt lat="43.52435" lon="5.73525">
        <ele>351.28</ele>
        <time>2022-10-10T13:54:16Z</time>
      </trkpt>
      <trkpt lat="43.52427" lon="5.73529">
        <ele>350.19</ele>
        <time>2022-10-10T13:54:17Z</time>
      </trkpt>
      <trkpt lat="43.52417" lon="5.7353">
        <ele>348.47</ele>
        <time>2022-10-10T13:54:18Z</time>
      </trkpt>
      <trkpt lat="43.52409" lon="5.73526">
        <ele>348.38</ele>
        <time>2022-10-10T13:54:19Z</time>
      </trkpt>
      <trkpt lat="43.52401" lon="5.73518">
        <ele>348.39</ele>
        <time>2022-10-10T13:54:20Z</time>
      </trkpt>
      <trkpt lat="43.52393" lon="5.7351">
        <ele>347.34</ele>
        <time>2022-10-10T13:54:21Z</time>
      </trkpt>
      <trkpt lat="43.52384" lon="5.73503">
        <ele>346.48</ele>
        <time>2022-10-10T13:54:22Z</time>
      </trkpt>
      <trkpt lat="43.52373" lon="5.73497">
        <ele>345.64</ele>
        <time>2022-10-10T13:54:23Z</time>
      </trkpt>
      <trkpt lat="43.5236" lon="5.73495">
        <ele>345.64</ele>
        <time>2022-10-10T13:54:24Z</time>
      </trkpt>
      <trkpt lat="43.52347" lon="5.73494">
        <ele>344.29</ele>
        <time>2022-10-10T13:54:25Z</time>
      </trkpt>
      <trkpt lat="43.52334" lon="5.7349">
        <ele>343.3</ele>
        <time>2022-10-10T13:54:26Z</time>
      </trkpt>
      <trkpt lat="43.52323" lon="5.73482">
        <ele>343.21</ele>
        <time>2022-10-10T13:54:27Z</time>
      </trkpt>
      <trkpt lat="43.52313" lon="5.73471">
        <ele>341.5</ele>
        <time>2022-10-10T13:54:28Z</time>
      </trkpt>
      <trkpt lat="43.52304" lon="5.73458">
        <ele>340.59</ele>
        <time>2022-10-10T13:54:29Z</time>
      </trkpt>
      <trkpt lat="43.52295" lon="5.73445">
        <ele>340.52</ele>
        <time>2022-10-10T13:54:30Z</time>
      </trkpt>
      <trkpt lat="43.52272" lon="5.73404">
        <ele>337.68</ele>
        <time>2022-10-10T13:54:33Z</time>
      </trkpt>
      <trkpt lat="43.52265" lon="5.7339">
        <ele>335.8</ele>
        <time>2022-10-10T13:54:34Z</time>
      </trkpt>
      <trkpt lat="43.52258" lon="5.73378">
        <ele>335.73</ele>
        <time>2022-10-10T13:54:35Z</time>
      </trkpt>
      <trkpt lat="43.52248" lon="5.73369">
        <ele>333.97</ele>
        <time>2022-10-10T13:54:36Z</time>
      </trkpt>
      <trkpt lat="43.52238" lon="5.73365">
        <ele>333.91</ele>
        <time>2022-10-10T13:54:37Z</time>
      </trkpt>
      <trkpt lat="43.52226" lon="5.73365">
        <ele>332.64</ele>
        <time>2022-10-10T13:54:38Z</time>
      </trkpt>
      <trkpt lat="43.52215" lon="5.73367">
        <ele>332.63</ele>
        <time>2022-10-10T13:54:39Z</time>
      </trkpt>
      <trkpt lat="43.52203" lon="5.7337">
        <ele>331.74</ele>
        <time>2022-10-10T13:54:40Z</time>
      </trkpt>
      <trkpt lat="43.52111" lon="5.73404">
        <ele>330.11</ele>
        <time>2022-10-10T13:54:48Z</time>
      </trkpt>
      <trkpt lat="43.52007" lon="5.73446">
        <ele>329.34</ele>
        <time>2022-10-10T13:54:56Z</time>
      </trkpt>
      <trkpt lat="43.51993" lon="5.73447">
        <ele>328.26</ele>
        <time>2022-10-10T13:54:57Z</time>
      </trkpt>
      <trkpt lat="43.5198" lon="5.73447">
        <ele>328.28</ele>
        <time>2022-10-10T13:54:58Z</time>
      </trkpt>
      <trkpt lat="43.51954" lon="5.73441">
        <ele>326.12</ele>
        <time>2022-10-10T13:55:00Z</time>
      </trkpt>
      <trkpt lat="43.51941" lon="5.73436">
        <ele>325.29</ele>
        <time>2022-10-10T13:55:01Z</time>
      </trkpt>
      <trkpt lat="43.5193" lon="5.7343">
        <ele>325.28</ele>
        <time>2022-10-10T13:55:02Z</time>
      </trkpt>
      <trkpt lat="43.5192" lon="5.73421">
        <ele>324.32</ele>
        <time>2022-10-10T13:55:03Z</time>
      </trkpt>
      <trkpt lat="43.51913" lon="5.73411">
        <ele>324.36</ele>
        <time>2022-10-10T13:55:04Z</time>
      </trkpt>
      <trkpt lat="43.51909" lon="5.73398">
        <ele>323.4</ele>
        <time>2022-10-10T13:55:05Z</time>
      </trkpt>
      <trkpt lat="43.51907" lon="5.73383">
        <ele>323.46</ele>
        <time>2022-10-10T13:55:06Z</time>
      </trkpt>
      <trkpt lat="43.51908" lon="5.73365">
        <ele>323.77</ele>
        <time>2022-10-10T13:55:07Z</time>
      </trkpt>
      <trkpt lat="43.51909" lon="5.73347">
        <ele>323.73</ele>
        <time>2022-10-10T13:55:08Z</time>
      </trkpt>
      <trkpt lat="43.51911" lon="5.73309">
        <ele>323.76</ele>
        <time>2022-10-10T13:55:10Z</time>
      </trkpt>
      <trkpt lat="43.51909" lon="5.73291">
        <ele>322.79</ele>
        <time>2022-10-10T13:55:11Z</time>
      </trkpt>
      <trkpt lat="43.51905" lon="5.73274">
        <ele>322.75</ele>
        <time>2022-10-10T13:55:12Z</time>
      </trkpt>
      <trkpt lat="43.51899" lon="5.73258">
        <ele>322.75</ele>
        <time>2022-10-10T13:55:13Z</time>
      </trkpt>
      <trkpt lat="43.51891" lon="5.73243">
        <ele>321.53</ele>
        <time>2022-10-10T13:55:14Z</time>
      </trkpt>
      <trkpt lat="43.51881" lon="5.7323">
        <ele>321.54</ele>
        <time>2022-10-10T13:55:15Z</time>
      </trkpt>
      <trkpt lat="43.51871" lon="5.73218">
        <ele>321.5</ele>
        <time>2022-10-10T13:55:16Z</time>
      </trkpt>
      <trkpt lat="43.51859" lon="5.73212">
        <ele>320.26</ele>
        <time>2022-10-10T13:55:17Z</time>
      </trkpt>
      <trkpt lat="43.51846" lon="5.7321">
        <ele>320.26</ele>
        <time>2022-10-10T13:55:18Z</time>
      </trkpt>
      <trkpt lat="43.51834" lon="5.73214">
        <ele>320.25</ele>
        <time>2022-10-10T13:55:19Z</time>
      </trkpt>
      <trkpt lat="43.51821" lon="5.73221">
        <ele>320.26</ele>
        <time>2022-10-10T13:55:20Z</time>
      </trkpt>
      <trkpt lat="43.51808" lon="5.7323">
        <ele>320.27</ele>
        <time>2022-10-10T13:55:21Z</time>
      </trkpt>
      <trkpt lat="43.51738" lon="5.73296">
        <ele>318.4</ele>
        <time>2022-10-10T13:55:27Z</time>
      </trkpt>
      <trkpt lat="43.51726" lon="5.73306">
        <ele>318.43</ele>
        <time>2022-10-10T13:55:28Z</time>
      </trkpt>
      <trkpt lat="43.51713" lon="5.73315">
        <ele>318.4</ele>
        <time>2022-10-10T13:55:29Z</time>
      </trkpt>
      <trkpt lat="43.5167" lon="5.7334">
        <ele>316.81</ele>
        <time>2022-10-10T13:55:32Z</time>
      </trkpt>
      <trkpt lat="43.51603" lon="5.73378">
        <ele>313.78</ele>
        <time>2022-10-10T13:55:37Z</time>
      </trkpt>
      <trkpt lat="43.5159" lon="5.73386">
        <ele>313.75</ele>
        <time>2022-10-10T13:55:38Z</time>
      </trkpt>
      <trkpt lat="43.51577" lon="5.73391">
        <ele>311.9</ele>
        <time>2022-10-10T13:55:39Z</time>
      </trkpt>
      <trkpt lat="43.51564" lon="5.73395">
        <ele>311.9</ele>
        <time>2022-10-10T13:55:40Z</time>
      </trkpt>
      <trkpt lat="43.51551" lon="5.73397">
        <ele>310.57</ele>
        <time>2022-10-10T13:55:41Z</time>
      </trkpt>
      <trkpt lat="43.51538" lon="5.73396">
        <ele>310.58</ele>
        <time>2022-10-10T13:55:42Z</time>
      </trkpt>
      <trkpt lat="43.51524" lon="5.73391">
        <ele>310.58</ele>
        <time>2022-10-10T13:55:43Z</time>
      </trkpt>
      <trkpt lat="43.51511" lon="5.73383">
        <ele>310.54</ele>
        <time>2022-10-10T13:55:44Z</time>
      </trkpt>
      <trkpt lat="43.51397" lon="5.73311">
        <ele>308.77</ele>
        <time>2022-10-10T13:55:52Z</time>
      </trkpt>
      <trkpt lat="43.51382" lon="5.73304">
        <ele>308.75</ele>
        <time>2022-10-10T13:55:53Z</time>
      </trkpt>
      <trkpt lat="43.51368" lon="5.73299">
        <ele>307.97</ele>
        <time>2022-10-10T13:55:54Z</time>
      </trkpt>
      <trkpt lat="43.51353" lon="5.73295">
        <ele>307.94</ele>
        <time>2022-10-10T13:55:55Z</time>
      </trkpt>
      <trkpt lat="43.51256" lon="5.73291">
        <ele>305.95</ele>
        <time>2022-10-10T13:56:02Z</time>
      </trkpt>
      <trkpt lat="43.51243" lon="5.73295">
        <ele>304.97</ele>
        <time>2022-10-10T13:56:03Z</time>
      </trkpt>
      <trkpt lat="43.5123" lon="5.73301">
        <ele>304.99</ele>
        <time>2022-10-10T13:56:04Z</time>
      </trkpt>
      <trkpt lat="43.51183" lon="5.73335">
        <ele>303.17</ele>
        <time>2022-10-10T13:56:08Z</time>
      </trkpt>
      <trkpt lat="43.51161" lon="5.73351">
        <ele>301.6</ele>
        <time>2022-10-10T13:56:10Z</time>
      </trkpt>
      <trkpt lat="43.51151" lon="5.73357">
        <ele>301.59</ele>
        <time>2022-10-10T13:56:11Z</time>
      </trkpt>
      <trkpt lat="43.5114" lon="5.73359">
        <ele>300.6</ele>
        <time>2022-10-10T13:56:12Z</time>
      </trkpt>
      <trkpt lat="43.5113" lon="5.73358">
        <ele>300.6</ele>
        <time>2022-10-10T13:56:13Z</time>
      </trkpt>
      <trkpt lat="43.51119" lon="5.73354">
        <ele>300.6</ele>
        <time>2022-10-10T13:56:14Z</time>
      </trkpt>
      <trkpt lat="43.51107" lon="5.73349">
        <ele>300.57</ele>
        <time>2022-10-10T13:56:15Z</time>
      </trkpt>
      <trkpt lat="43.51012" lon="5.73324">
        <ele>300.57</ele>
        <time>2022-10-10T13:56:23Z</time>
      </trkpt>
      <trkpt lat="43.50881" lon="5.73307">
        <ele>300.7</ele>
        <time>2022-10-10T13:56:35Z</time>
      </trkpt>
      <trkpt lat="43.50858" lon="5.73312">
        <ele>300.7</ele>
        <time>2022-10-10T13:56:37Z</time>
      </trkpt>
      <trkpt lat="43.50848" lon="5.73316">
        <ele>300.7</ele>
        <time>2022-10-10T13:56:38Z</time>
      </trkpt>
      <trkpt lat="43.50742" lon="5.73376">
        <ele>299.88</ele>
        <time>2022-10-10T13:56:50Z</time>
      </trkpt>
      <trkpt lat="43.50648" lon="5.73431">
        <ele>296.74</ele>
        <time>2022-10-10T13:57:00Z</time>
      </trkpt>
      <trkpt lat="43.50639" lon="5.73434">
        <ele>295.86</ele>
        <time>2022-10-10T13:57:01Z</time>
      </trkpt>
      <trkpt lat="43.5063" lon="5.73435">
        <ele>295.87</ele>
        <time>2022-10-10T13:57:02Z</time>
      </trkpt>
      <trkpt lat="43.50621" lon="5.73433">
        <ele>295.84</ele>
        <time>2022-10-10T13:57:03Z</time>
      </trkpt>
      <trkpt lat="43.50613" lon="5.73429">
        <ele>294.93</ele>
        <time>2022-10-10T13:57:04Z</time>
      </trkpt>
      <trkpt lat="43.50604" lon="5.73425">
        <ele>294.94</ele>
        <time>2022-10-10T13:57:05Z</time>
      </trkpt>
      <trkpt lat="43.50523" lon="5.73372">
        <ele>297.53</ele>
        <time>2022-10-10T13:57:17Z</time>
      </trkpt>
      <trkpt lat="43.50518" lon="5.73369">
        <ele>297.65</ele>
        <time>2022-10-10T13:57:18Z</time>
      </trkpt>
      <trkpt lat="43.50513" lon="5.73367">
        <ele>298.76</ele>
        <time>2022-10-10T13:57:19Z</time>
      </trkpt>
      <trkpt lat="43.50507" lon="5.73368">
        <ele>298.61</ele>
        <time>2022-10-10T13:57:20Z</time>
      </trkpt>
      <trkpt lat="43.50501" lon="5.73371">
        <ele>298.61</ele>
        <time>2022-10-10T13:57:21Z</time>
      </trkpt>
      <trkpt lat="43.50497" lon="5.73377">
        <ele>298.64</ele>
        <time>2022-10-10T13:57:22Z</time>
      </trkpt>
      <trkpt lat="43.50492" lon="5.73385">
        <ele>298.64</ele>
        <time>2022-10-10T13:57:23Z</time>
      </trkpt>
      <trkpt lat="43.50488" lon="5.73393">
        <ele>298.64</ele>
        <time>2022-10-10T13:57:24Z</time>
      </trkpt>
      <trkpt lat="43.50459" lon="5.73448">
        <ele>298.63</ele>
        <time>2022-10-10T13:57:31Z</time>
      </trkpt>
      <trkpt lat="43.50454" lon="5.73454">
        <ele>298.63</ele>
        <time>2022-10-10T13:57:32Z</time>
      </trkpt>
      <trkpt lat="43.50448" lon="5.73461">
        <ele>298.61</ele>
        <time>2022-10-10T13:57:33Z</time>
      </trkpt>
      <trkpt lat="43.50432" lon="5.73483">
        <ele>295.89</ele>
        <time>2022-10-10T13:57:36Z</time>
      </trkpt>
      <trkpt lat="43.50409" lon="5.73517">
        <ele>293.13</ele>
        <time>2022-10-10T13:57:41Z</time>
      </trkpt>
      <trkpt lat="43.50399" lon="5.7353">
        <ele>292.1</ele>
        <time>2022-10-10T13:57:43Z</time>
      </trkpt>
      <trkpt lat="43.50342" lon="5.73602">
        <ele>289.12</ele>
        <time>2022-10-10T13:57:54Z</time>
      </trkpt>
      <trkpt lat="43.50336" lon="5.73607">
        <ele>287.97</ele>
        <time>2022-10-10T13:57:55Z</time>
      </trkpt>
      <trkpt lat="43.5033" lon="5.73609">
        <ele>287.97</ele>
        <time>2022-10-10T13:57:56Z</time>
      </trkpt>
      <trkpt lat="43.50323" lon="5.73608">
        <ele>287.97</ele>
        <time>2022-10-10T13:57:57Z</time>
      </trkpt>
      <trkpt lat="43.50316" lon="5.73605">
        <ele>287.95</ele>
        <time>2022-10-10T13:57:58Z</time>
      </trkpt>
      <trkpt lat="43.50311" lon="5.73598">
        <ele>286.75</ele>
        <time>2022-10-10T13:57:59Z</time>
      </trkpt>
      <trkpt lat="43.50308" lon="5.73587">
        <ele>286.79</ele>
        <time>2022-10-10T13:58:00Z</time>
      </trkpt>
      <trkpt lat="43.50308" lon="5.73575">
        <ele>285.85</ele>
        <time>2022-10-10T13:58:01Z</time>
      </trkpt>
      <trkpt lat="43.50308" lon="5.73564">
        <ele>285.84</ele>
        <time>2022-10-10T13:58:02Z</time>
      </trkpt>
      <trkpt lat="43.50309" lon="5.73553">
        <ele>284.67</ele>
        <time>2022-10-10T13:58:03Z</time>
      </trkpt>
      <trkpt lat="43.50309" lon="5.73532">
        <ele>284.64</ele>
        <time>2022-10-10T13:58:05Z</time>
      </trkpt>
      <trkpt lat="43.50307" lon="5.73522">
        <ele>284.66</ele>
        <time>2022-10-10T13:58:06Z</time>
      </trkpt>
      <trkpt lat="43.50304" lon="5.73512">
        <ele>283.63</ele>
        <time>2022-10-10T13:58:07Z</time>
      </trkpt>
      <trkpt lat="43.50301" lon="5.73504">
        <ele>282.71</ele>
        <time>2022-10-10T13:58:08Z</time>
      </trkpt>
      <trkpt lat="43.50296" lon="5.73497">
        <ele>281.51</ele>
        <time>2022-10-10T13:58:09Z</time>
      </trkpt>
      <trkpt lat="43.50291" lon="5.73491">
        <ele>280.15</ele>
        <time>2022-10-10T13:58:10Z</time>
      </trkpt>
      <trkpt lat="43.50285" lon="5.73486">
        <ele>280.15</ele>
        <time>2022-10-10T13:58:11Z</time>
      </trkpt>
      <trkpt lat="43.50245" lon="5.73443">
        <ele>277.13</ele>
        <time>2022-10-10T13:58:18Z</time>
      </trkpt>
      <trkpt lat="43.50193" lon="5.73388">
        <ele>273.55</ele>
        <time>2022-10-10T13:58:26Z</time>
      </trkpt>
      <trkpt lat="43.50184" lon="5.73379">
        <ele>273.61</ele>
        <time>2022-10-10T13:58:27Z</time>
      </trkpt>
      <trkpt lat="43.50148" lon="5.73339">
        <ele>271.54</ele>
        <time>2022-10-10T13:58:32Z</time>
      </trkpt>
      <trkpt lat="43.50143" lon="5.73336">
        <ele>270.47</ele>
        <time>2022-10-10T13:58:33Z</time>
      </trkpt>
      <trkpt lat="43.50137" lon="5.73335">
        <ele>270.47</ele>
        <time>2022-10-10T13:58:34Z</time>
      </trkpt>
      <trkpt lat="43.50131" lon="5.73335">
        <ele>270.47</ele>
        <time>2022-10-10T13:58:35Z</time>
      </trkpt>
      <trkpt lat="43.50124" lon="5.73336">
        <ele>270.43</ele>
        <time>2022-10-10T13:58:36Z</time>
      </trkpt>
      <trkpt lat="43.50104" lon="5.73335">
        <ele>270.43</ele>
        <time>2022-10-10T13:58:38Z</time>
      </trkpt>
      <trkpt lat="43.50092" lon="5.73333">
        <ele>270.39</ele>
        <time>2022-10-10T13:58:39Z</time>
      </trkpt>
      <trkpt lat="43.5008" lon="5.73328">
        <ele>269.58</ele>
        <time>2022-10-10T13:58:40Z</time>
      </trkpt>
      <trkpt lat="43.50045" lon="5.7331">
        <ele>268</ele>
        <time>2022-10-10T13:58:43Z</time>
      </trkpt>
      <trkpt lat="43.49955" lon="5.73268">
        <ele>264.75</ele>
        <time>2022-10-10T13:58:50Z</time>
      </trkpt>
      <trkpt lat="43.4994" lon="5.73261">
        <ele>264.73</ele>
        <time>2022-10-10T13:58:51Z</time>
      </trkpt>
      <trkpt lat="43.4982" lon="5.73208">
        <ele>262.49</ele>
        <time>2022-10-10T13:58:59Z</time>
      </trkpt>
      <trkpt lat="43.49681" lon="5.73134">
        <ele>259.82</ele>
        <time>2022-10-10T13:59:09Z</time>
      </trkpt>
      <trkpt lat="43.4967" lon="5.73122">
        <ele>258.86</ele>
        <time>2022-10-10T13:59:10Z</time>
      </trkpt>
      <trkpt lat="43.4966" lon="5.73108">
        <ele>258.79</ele>
        <time>2022-10-10T13:59:11Z</time>
      </trkpt>
      <trkpt lat="43.49651" lon="5.73093">
        <ele>258.81</ele>
        <time>2022-10-10T13:59:12Z</time>
      </trkpt>
      <trkpt lat="43.49643" lon="5.73077">
        <ele>258.82</ele>
        <time>2022-10-10T13:59:13Z</time>
      </trkpt>
      <trkpt lat="43.49638" lon="5.73059">
        <ele>258.79</ele>
        <time>2022-10-10T13:59:14Z</time>
      </trkpt>
      <trkpt lat="43.49633" lon="5.73041">
        <ele>258.81</ele>
        <time>2022-10-10T13:59:15Z</time>
      </trkpt>
      <trkpt lat="43.49631" lon="5.73021">
        <ele>258.81</ele>
        <time>2022-10-10T13:59:16Z</time>
      </trkpt>
      <trkpt lat="43.49629" lon="5.73002">
        <ele>258.81</ele>
        <time>2022-10-10T13:59:17Z</time>
      </trkpt>
      <trkpt lat="43.49628" lon="5.72982">
        <ele>258.8</ele>
        <time>2022-10-10T13:59:18Z</time>
      </trkpt>
      <trkpt lat="43.49629" lon="5.72962">
        <ele>258.81</ele>
        <time>2022-10-10T13:59:19Z</time>
      </trkpt>
      <trkpt lat="43.49631" lon="5.72942">
        <ele>258.82</ele>
        <time>2022-10-10T13:59:20Z</time>
      </trkpt>
      <trkpt lat="43.49633" lon="5.72923">
        <ele>258.83</ele>
        <time>2022-10-10T13:59:21Z</time>
      </trkpt>
      <trkpt lat="43.49632" lon="5.72903">
        <ele>258.83</ele>
        <time>2022-10-10T13:59:22Z</time>
      </trkpt>
      <trkpt lat="43.49629" lon="5.72884">
        <ele>258.84</ele>
        <time>2022-10-10T13:59:23Z</time>
      </trkpt>
      <trkpt lat="43.49624" lon="5.72865">
        <ele>258.86</ele>
        <time>2022-10-10T13:59:24Z</time>
      </trkpt>
      <trkpt lat="43.49617" lon="5.72847">
        <ele>258.87</ele>
        <time>2022-10-10T13:59:25Z</time>
      </trkpt>
      <trkpt lat="43.49609" lon="5.7283">
        <ele>258.89</ele>
        <time>2022-10-10T13:59:26Z</time>
      </trkpt>
      <trkpt lat="43.496" lon="5.72813">
        <ele>258.89</ele>
        <time>2022-10-10T13:59:27Z</time>
      </trkpt>
      <trkpt lat="43.49557" lon="5.72748">
        <ele>261.36</ele>
        <time>2022-10-10T13:59:31Z</time>
      </trkpt>
      <trkpt lat="43.4951" lon="5.72678">
        <ele>261.38</ele>
        <time>2022-10-10T13:59:35Z</time>
      </trkpt>
      <trkpt lat="43.495" lon="5.72657">
        <ele>262.35</ele>
        <time>2022-10-10T13:59:36Z</time>
      </trkpt>
      <trkpt lat="43.49492" lon="5.72634">
        <ele>262.34</ele>
        <time>2022-10-10T13:59:37Z</time>
      </trkpt>
      <trkpt lat="43.49454" lon="5.72545">
        <ele>264.57</ele>
        <time>2022-10-10T13:59:41Z</time>
      </trkpt>
      <trkpt lat="43.49332" lon="5.7237">
        <ele>264.57</ele>
        <time>2022-10-10T13:59:51Z</time>
      </trkpt>
      <trkpt lat="43.49226" lon="5.72268">
        <ele>261.81</ele>
        <time>2022-10-10T13:59:58Z</time>
      </trkpt>
      <trkpt lat="43.4918" lon="5.72223">
        <ele>260.22</ele>
        <time>2022-10-10T14:00:01Z</time>
      </trkpt>
      <trkpt lat="43.4908" lon="5.72105">
        <ele>258.89</ele>
        <time>2022-10-10T14:00:08Z</time>
      </trkpt>
      <trkpt lat="43.49035" lon="5.72059">
        <ele>257.62</ele>
        <time>2022-10-10T14:00:11Z</time>
      </trkpt>
      <trkpt lat="43.49007" lon="5.72025">
        <ele>256.13</ele>
        <time>2022-10-10T14:00:13Z</time>
      </trkpt>
      <trkpt lat="43.48968" lon="5.71974">
        <ele>254.95</ele>
        <time>2022-10-10T14:00:16Z</time>
      </trkpt>
      <trkpt lat="43.48953" lon="5.71962">
        <ele>254.91</ele>
        <time>2022-10-10T14:00:17Z</time>
      </trkpt>
      <trkpt lat="43.48937" lon="5.71953">
        <ele>255.23</ele>
        <time>2022-10-10T14:00:18Z</time>
      </trkpt>
      <trkpt lat="43.4892" lon="5.71946">
        <ele>253.86</ele>
        <time>2022-10-10T14:00:19Z</time>
      </trkpt>
      <trkpt lat="43.48903" lon="5.7194">
        <ele>253.83</ele>
        <time>2022-10-10T14:00:20Z</time>
      </trkpt>
      <trkpt lat="43.48813" lon="5.71918">
        <ele>250.46</ele>
        <time>2022-10-10T14:00:25Z</time>
      </trkpt>
      <trkpt lat="43.48691" lon="5.71891">
        <ele>247.77</ele>
        <time>2022-10-10T14:00:32Z</time>
      </trkpt>
      <trkpt lat="43.48675" lon="5.71889">
        <ele>246.68</ele>
        <time>2022-10-10T14:00:33Z</time>
      </trkpt>
      <trkpt lat="43.4866" lon="5.71892">
        <ele>246.68</ele>
        <time>2022-10-10T14:00:34Z</time>
      </trkpt>
      <trkpt lat="43.48645" lon="5.71898">
        <ele>246.62</ele>
        <time>2022-10-10T14:00:35Z</time>
      </trkpt>
      <trkpt lat="43.48632" lon="5.71906">
        <ele>246.57</ele>
        <time>2022-10-10T14:00:36Z</time>
      </trkpt>
      <trkpt lat="43.48619" lon="5.71914">
        <ele>245.64</ele>
        <time>2022-10-10T14:00:37Z</time>
      </trkpt>
      <trkpt lat="43.48598" lon="5.71928">
        <ele>244.78</ele>
        <time>2022-10-10T14:00:39Z</time>
      </trkpt>
      <trkpt lat="43.48588" lon="5.71933">
        <ele>243.59</ele>
        <time>2022-10-10T14:00:40Z</time>
      </trkpt>
      <trkpt lat="43.4858" lon="5.71935">
        <ele>243.58</ele>
        <time>2022-10-10T14:00:41Z</time>
      </trkpt>
      <trkpt lat="43.48572" lon="5.71934">
        <ele>243.59</ele>
        <time>2022-10-10T14:00:42Z</time>
      </trkpt>
      <trkpt lat="43.48564" lon="5.71932">
        <ele>243.22</ele>
        <time>2022-10-10T14:00:43Z</time>
      </trkpt>
      <trkpt lat="43.48555" lon="5.71932">
        <ele>243.22</ele>
        <time>2022-10-10T14:00:44Z</time>
      </trkpt>
      <trkpt lat="43.48545" lon="5.71934">
        <ele>243.18</ele>
        <time>2022-10-10T14:00:45Z</time>
      </trkpt>
      <trkpt lat="43.48533" lon="5.71938">
        <ele>243.22</ele>
        <time>2022-10-10T14:00:46Z</time>
      </trkpt>
      <trkpt lat="43.4852" lon="5.7194">
        <ele>243.19</ele>
        <time>2022-10-10T14:00:47Z</time>
      </trkpt>
      <trkpt lat="43.48505" lon="5.71938">
        <ele>245.45</ele>
        <time>2022-10-10T14:00:48Z</time>
      </trkpt>
      <trkpt lat="43.4849" lon="5.71933">
        <ele>245.47</ele>
        <time>2022-10-10T14:00:49Z</time>
      </trkpt>
      <trkpt lat="43.48475" lon="5.71926">
        <ele>245.47</ele>
        <time>2022-10-10T14:00:50Z</time>
      </trkpt>
      <trkpt lat="43.48314" lon="5.71851">
        <ele>247.53</ele>
        <time>2022-10-10T14:01:00Z</time>
      </trkpt>
      <trkpt lat="43.48034" lon="5.7172">
        <ele>245.45</ele>
        <time>2022-10-10T14:01:17Z</time>
      </trkpt>
      <trkpt lat="43.48018" lon="5.71713">
        <ele>245.42</ele>
        <time>2022-10-10T14:01:18Z</time>
      </trkpt>
      <trkpt lat="43.47883" lon="5.71618">
        <ele>248.15</ele>
        <time>2022-10-10T14:01:27Z</time>
      </trkpt>
      <trkpt lat="43.47838" lon="5.71585">
        <ele>250.98</ele>
        <time>2022-10-10T14:01:30Z</time>
      </trkpt>
      <trkpt lat="43.47805" lon="5.71569">
        <ele>252.92</ele>
        <time>2022-10-10T14:01:32Z</time>
      </trkpt>
      <trkpt lat="43.47769" lon="5.71561">
        <ele>254.54</ele>
        <time>2022-10-10T14:01:34Z</time>
      </trkpt>
      <trkpt lat="43.47731" lon="5.71557">
        <ele>256.14</ele>
        <time>2022-10-10T14:01:36Z</time>
      </trkpt>
      <trkpt lat="43.47579" lon="5.71508">
        <ele>255.68</ele>
        <time>2022-10-10T14:01:44Z</time>
      </trkpt>
      <trkpt lat="43.47483" lon="5.71422">
        <ele>257.04</ele>
        <time>2022-10-10T14:01:50Z</time>
      </trkpt>
      <trkpt lat="43.47292" lon="5.71269">
        <ele>253.87</ele>
        <time>2022-10-10T14:02:02Z</time>
      </trkpt>
      <trkpt lat="43.47241" lon="5.71245">
        <ele>250.77</ele>
        <time>2022-10-10T14:02:05Z</time>
      </trkpt>
      <trkpt lat="43.47209" lon="5.71224">
        <ele>248.33</ele>
        <time>2022-10-10T14:02:07Z</time>
      </trkpt>
      <trkpt lat="43.47195" lon="5.7121">
        <ele>248.27</ele>
        <time>2022-10-10T14:02:08Z</time>
      </trkpt>
      <trkpt lat="43.47181" lon="5.71191">
        <ele>247.49</ele>
        <time>2022-10-10T14:02:09Z</time>
      </trkpt>
      <trkpt lat="43.47168" lon="5.7117">
        <ele>247.43</ele>
        <time>2022-10-10T14:02:10Z</time>
      </trkpt>
      <trkpt lat="43.47156" lon="5.71148">
        <ele>247.44</ele>
        <time>2022-10-10T14:02:11Z</time>
      </trkpt>
      <trkpt lat="43.47053" lon="5.70999">
        <ele>245.94</ele>
        <time>2022-10-10T14:02:18Z</time>
      </trkpt>
      <trkpt lat="43.47008" lon="5.70943">
        <ele>244.17</ele>
        <time>2022-10-10T14:02:21Z</time>
      </trkpt>
      <trkpt lat="43.46785" lon="5.70682">
        <ele>241.61</ele>
        <time>2022-10-10T14:02:37Z</time>
      </trkpt>
      <trkpt lat="43.46561" lon="5.7043">
        <ele>240.93</ele>
        <time>2022-10-10T14:02:53Z</time>
      </trkpt>
      <trkpt lat="43.46371" lon="5.70213">
        <ele>240.87</ele>
        <time>2022-10-10T14:03:06Z</time>
      </trkpt>
      <trkpt lat="43.46233" lon="5.70001">
        <ele>237.63</ele>
        <time>2022-10-10T14:03:17Z</time>
      </trkpt>
      <trkpt lat="43.46221" lon="5.69985">
        <ele>237.59</ele>
        <time>2022-10-10T14:03:18Z</time>
      </trkpt>
      <trkpt lat="43.46208" lon="5.69971">
        <ele>237.6</ele>
        <time>2022-10-10T14:03:19Z</time>
      </trkpt>
      <trkpt lat="43.46193" lon="5.6996">
        <ele>237.6</ele>
        <time>2022-10-10T14:03:20Z</time>
      </trkpt>
      <trkpt lat="43.46175" lon="5.69951">
        <ele>237.82</ele>
        <time>2022-10-10T14:03:21Z</time>
      </trkpt>
      <trkpt lat="43.46157" lon="5.69942">
        <ele>237.82</ele>
        <time>2022-10-10T14:03:22Z</time>
      </trkpt>
      <trkpt lat="43.46082" lon="5.69907">
        <ele>240.61</ele>
        <time>2022-10-10T14:03:26Z</time>
      </trkpt>
      <trkpt lat="43.45882" lon="5.69815">
        <ele>241.61</ele>
        <time>2022-10-10T14:03:37Z</time>
      </trkpt>
      <trkpt lat="43.45739" lon="5.69729">
        <ele>242.47</ele>
        <time>2022-10-10T14:03:45Z</time>
      </trkpt>
      <trkpt lat="43.45637" lon="5.69645">
        <ele>244.07</ele>
        <time>2022-10-10T14:03:51Z</time>
      </trkpt>
      <trkpt lat="43.45504" lon="5.69514">
        <ele>241.5</ele>
        <time>2022-10-10T14:03:59Z</time>
      </trkpt>
      <trkpt lat="43.45442" lon="5.6945">
        <ele>240.23</ele>
        <time>2022-10-10T14:04:03Z</time>
      </trkpt>
      <trkpt lat="43.4536" lon="5.69348">
        <ele>238.03</ele>
        <time>2022-10-10T14:04:09Z</time>
      </trkpt>
      <trkpt lat="43.45219" lon="5.69189">
        <ele>236.49</ele>
        <time>2022-10-10T14:04:21Z</time>
      </trkpt>
      <trkpt lat="43.45021" lon="5.68998">
        <ele>236.58</ele>
        <time>2022-10-10T14:04:37Z</time>
      </trkpt>
      <trkpt lat="43.44958" lon="5.68944">
        <ele>235.66</ele>
        <time>2022-10-10T14:04:44Z</time>
      </trkpt>
      <trkpt lat="43.4495" lon="5.68935">
        <ele>234.84</ele>
        <time>2022-10-10T14:04:46Z</time>
      </trkpt>
      <trkpt lat="43.44947" lon="5.6893">
        <ele>234.83</ele>
        <time>2022-10-10T14:04:47Z</time>
      </trkpt>
      <trkpt lat="43.44944" lon="5.68922">
        <ele>234.84</ele>
        <time>2022-10-10T14:04:48Z</time>
      </trkpt>
      <trkpt lat="43.44936" lon="5.68893">
        <ele>234.85</ele>
        <time>2022-10-10T14:04:51Z</time>
      </trkpt>
      <trkpt lat="43.44936" lon="5.68883">
        <ele>234.85</ele>
        <time>2022-10-10T14:04:52Z</time>
      </trkpt>
      <trkpt lat="43.44939" lon="5.68872">
        <ele>234.85</ele>
        <time>2022-10-10T14:04:53Z</time>
      </trkpt>
      <trkpt lat="43.44943" lon="5.68861">
        <ele>234.86</ele>
        <time>2022-10-10T14:04:54Z</time>
      </trkpt>
      <trkpt lat="43.44949" lon="5.68849">
        <ele>234.86</ele>
        <time>2022-10-10T14:04:55Z</time>
      </trkpt>
      <trkpt lat="43.45009" lon="5.68715">
        <ele>237.18</ele>
        <time>2022-10-10T14:05:04Z</time>
      </trkpt>
      <trkpt lat="43.45037" lon="5.68618">
        <ele>234.69</ele>
        <time>2022-10-10T14:05:10Z</time>
      </trkpt>
      <trkpt lat="43.45056" lon="5.68476">
        <ele>232.7</ele>
        <time>2022-10-10T14:05:21Z</time>
      </trkpt>
      <trkpt lat="43.45062" lon="5.6844">
        <ele>231.88</ele>
        <time>2022-10-10T14:05:26Z</time>
      </trkpt>
      <trkpt lat="43.45068" lon="5.68427">
        <ele>231.89</ele>
        <time>2022-10-10T14:05:28Z</time>
      </trkpt>
      <trkpt lat="43.45071" lon="5.68418">
        <ele>231.88</ele>
        <time>2022-10-10T14:05:29Z</time>
      </trkpt>
      <trkpt lat="43.45071" lon="5.68408">
        <ele>231.88</ele>
        <time>2022-10-10T14:05:30Z</time>
      </trkpt>
      <trkpt lat="43.45069" lon="5.68399">
        <ele>231.86</ele>
        <time>2022-10-10T14:05:31Z</time>
      </trkpt>
      <trkpt lat="43.45066" lon="5.68391">
        <ele>231.88</ele>
        <time>2022-10-10T14:05:32Z</time>
      </trkpt>
      <trkpt lat="43.45063" lon="5.68383">
        <ele>231.86</ele>
        <time>2022-10-10T14:05:33Z</time>
      </trkpt>
      <trkpt lat="43.45061" lon="5.68373">
        <ele>231.89</ele>
        <time>2022-10-10T14:05:34Z</time>
      </trkpt>
      <trkpt lat="43.45061" lon="5.68362">
        <ele>231.88</ele>
        <time>2022-10-10T14:05:35Z</time>
      </trkpt>
      <trkpt lat="43.45061" lon="5.68348">
        <ele>231.9</ele>
        <time>2022-10-10T14:05:36Z</time>
      </trkpt>
      <trkpt lat="43.45065" lon="5.68293">
        <ele>234.29</ele>
        <time>2022-10-10T14:05:39Z</time>
      </trkpt>
      <trkpt lat="43.45071" lon="5.68242">
        <ele>236.45</ele>
        <time>2022-10-10T14:05:41Z</time>
      </trkpt>
      <trkpt lat="43.45099" lon="5.68069">
        <ele>236.41</ele>
        <time>2022-10-10T14:05:49Z</time>
      </trkpt>
      <trkpt lat="43.45121" lon="5.6792">
        <ele>236.36</ele>
        <time>2022-10-10T14:05:58Z</time>
      </trkpt>
      <trkpt lat="43.45135" lon="5.67844">
        <ele>236.36</ele>
        <time>2022-10-10T14:06:06Z</time>
      </trkpt>
      <trkpt lat="43.45135" lon="5.67836">
        <ele>236.35</ele>
        <time>2022-10-10T14:06:07Z</time>
      </trkpt>
      <trkpt lat="43.45134" lon="5.67812">
        <ele>236.41</ele>
        <time>2022-10-10T14:06:15Z</time>
      </trkpt>
      <trkpt lat="43.45135" lon="5.67813">
        <ele>236.42</ele>
        <time>2022-10-10T14:06:35Z</time>
      </trkpt>
      <trkpt lat="43.45134" lon="5.67809">
        <ele>236.44</ele>
        <time>2022-10-10T14:06:36Z</time>
      </trkpt>
      <trkpt lat="43.45133" lon="5.67801">
        <ele>236.42</ele>
        <time>2022-10-10T14:06:37Z</time>
      </trkpt>
      <trkpt lat="43.4513" lon="5.67792">
        <ele>237.38</ele>
        <time>2022-10-10T14:06:38Z</time>
      </trkpt>
      <trkpt lat="43.45123" lon="5.67782">
        <ele>238.39</ele>
        <time>2022-10-10T14:06:39Z</time>
      </trkpt>
      <trkpt lat="43.45115" lon="5.67774">
        <ele>238.39</ele>
        <time>2022-10-10T14:06:40Z</time>
      </trkpt>
      <trkpt lat="43.45105" lon="5.67766">
        <ele>239.59</ele>
        <time>2022-10-10T14:06:41Z</time>
      </trkpt>
      <trkpt lat="43.45092" lon="5.67761">
        <ele>239.59</ele>
        <time>2022-10-10T14:06:42Z</time>
      </trkpt>
      <trkpt lat="43.45079" lon="5.67757">
        <ele>239.6</ele>
        <time>2022-10-10T14:06:43Z</time>
      </trkpt>
      <trkpt lat="43.45064" lon="5.67755">
        <ele>240.67</ele>
        <time>2022-10-10T14:06:44Z</time>
      </trkpt>
      <trkpt lat="43.44998" lon="5.67744">
        <ele>241.84</ele>
        <time>2022-10-10T14:06:50Z</time>
      </trkpt>
      <trkpt lat="43.44992" lon="5.6774">
        <ele>241.87</ele>
        <time>2022-10-10T14:06:51Z</time>
      </trkpt>
      <trkpt lat="43.44988" lon="5.67736">
        <ele>241.84</ele>
        <time>2022-10-10T14:06:52Z</time>
      </trkpt>
      <trkpt lat="43.44986" lon="5.67732">
        <ele>241.9</ele>
        <time>2022-10-10T14:06:53Z</time>
      </trkpt>
      <trkpt lat="43.44984" lon="5.67728">
        <ele>241.89</ele>
        <time>2022-10-10T14:06:54Z</time>
      </trkpt>
      <trkpt lat="43.44972" lon="5.67701">
        <ele>243.09</ele>
        <time>2022-10-10T14:06:57Z</time>
      </trkpt>
      <trkpt lat="43.4497" lon="5.67689">
        <ele>243.86</ele>
        <time>2022-10-10T14:06:58Z</time>
      </trkpt>
      <trkpt lat="43.44971" lon="5.67676">
        <ele>243.89</ele>
        <time>2022-10-10T14:06:59Z</time>
      </trkpt>
      <trkpt lat="43.44973" lon="5.67662">
        <ele>245.05</ele>
        <time>2022-10-10T14:07:00Z</time>
      </trkpt>
      <trkpt lat="43.44977" lon="5.67647">
        <ele>245.11</ele>
        <time>2022-10-10T14:07:01Z</time>
      </trkpt>
      <trkpt lat="43.45008" lon="5.67473">
        <ele>246.81</ele>
        <time>2022-10-10T14:07:11Z</time>
      </trkpt>
      <trkpt lat="43.45011" lon="5.67247">
        <ele>248.76</ele>
        <time>2022-10-10T14:07:23Z</time>
      </trkpt>
      <trkpt lat="43.45004" lon="5.67173">
        <ele>252.04</ele>
        <time>2022-10-10T14:07:27Z</time>
      </trkpt>
      <trkpt lat="43.45001" lon="5.67155">
        <ele>252.34</ele>
        <time>2022-10-10T14:07:28Z</time>
      </trkpt>
      <trkpt lat="43.44988" lon="5.6706">
        <ele>254.38</ele>
        <time>2022-10-10T14:07:33Z</time>
      </trkpt>
      <trkpt lat="43.44978" lon="5.67003">
        <ele>255.72</ele>
        <time>2022-10-10T14:07:36Z</time>
      </trkpt>
      <trkpt lat="43.44968" lon="5.66945">
        <ele>257.16</ele>
        <time>2022-10-10T14:07:39Z</time>
      </trkpt>
      <trkpt lat="43.4492" lon="5.66658">
        <ele>260.03</ele>
        <time>2022-10-10T14:07:52Z</time>
      </trkpt>
      <trkpt lat="43.44908" lon="5.66588">
        <ele>261.25</ele>
        <time>2022-10-10T14:07:55Z</time>
      </trkpt>
      <trkpt lat="43.44896" lon="5.66521">
        <ele>263.65</ele>
        <time>2022-10-10T14:07:58Z</time>
      </trkpt>
      <trkpt lat="43.44853" lon="5.66259">
        <ele>262.01</ele>
        <time>2022-10-10T14:08:09Z</time>
      </trkpt>
      <trkpt lat="43.4484" lon="5.66183">
        <ele>260.48</ele>
        <time>2022-10-10T14:08:12Z</time>
      </trkpt>
      <trkpt lat="43.44789" lon="5.65868">
        <ele>259.56</ele>
        <time>2022-10-10T14:08:25Z</time>
      </trkpt>
      <trkpt lat="43.44775" lon="5.65778">
        <ele>257.75</ele>
        <time>2022-10-10T14:08:29Z</time>
      </trkpt>
      <trkpt lat="43.44728" lon="5.65489">
        <ele>257.84</ele>
        <time>2022-10-10T14:08:42Z</time>
      </trkpt>
      <trkpt lat="43.44725" lon="5.65468">
        <ele>257.87</ele>
        <time>2022-10-10T14:08:43Z</time>
      </trkpt>
      <trkpt lat="43.44702" lon="5.6534">
        <ele>261.5</ele>
        <time>2022-10-10T14:08:48Z</time>
      </trkpt>
      <trkpt lat="43.44697" lon="5.65308">
        <ele>261.5</ele>
        <time>2022-10-10T14:08:49Z</time>
      </trkpt>
      <trkpt lat="43.44676" lon="5.65171">
        <ele>264.15</ele>
        <time>2022-10-10T14:08:53Z</time>
      </trkpt>
      <trkpt lat="43.44644" lon="5.64964">
        <ele>265.42</ele>
        <time>2022-10-10T14:09:00Z</time>
      </trkpt>
      <trkpt lat="43.44615" lon="5.64763">
        <ele>267.22</ele>
        <time>2022-10-10T14:09:09Z</time>
      </trkpt>
      <trkpt lat="43.44616" lon="5.64745">
        <ele>267.21</ele>
        <time>2022-10-10T14:09:10Z</time>
      </trkpt>
      <trkpt lat="43.44618" lon="5.64729">
        <ele>267.21</ele>
        <time>2022-10-10T14:09:11Z</time>
      </trkpt>
      <trkpt lat="43.44654" lon="5.64537">
        <ele>267.87</ele>
        <time>2022-10-10T14:09:24Z</time>
      </trkpt>
      <trkpt lat="43.44657" lon="5.64527">
        <ele>267.84</ele>
        <time>2022-10-10T14:09:25Z</time>
      </trkpt>
      <trkpt lat="43.44658" lon="5.64517">
        <ele>267.84</ele>
        <time>2022-10-10T14:09:26Z</time>
      </trkpt>
      <trkpt lat="43.44656" lon="5.64506">
        <ele>267.9</ele>
        <time>2022-10-10T14:09:27Z</time>
      </trkpt>
      <trkpt lat="43.44653" lon="5.64495">
        <ele>267.9</ele>
        <time>2022-10-10T14:09:28Z</time>
      </trkpt>
      <trkpt lat="43.44652" lon="5.64483">
        <ele>268.67</ele>
        <time>2022-10-10T14:09:29Z</time>
      </trkpt>
      <trkpt lat="43.44652" lon="5.6447">
        <ele>268.7</ele>
        <time>2022-10-10T14:09:30Z</time>
      </trkpt>
      <trkpt lat="43.44654" lon="5.64456">
        <ele>268.69</ele>
        <time>2022-10-10T14:09:31Z</time>
      </trkpt>
      <trkpt lat="43.44656" lon="5.64441">
        <ele>268.74</ele>
        <time>2022-10-10T14:09:32Z</time>
      </trkpt>
      <trkpt lat="43.44661" lon="5.6441">
        <ele>270.37</ele>
        <time>2022-10-10T14:09:34Z</time>
      </trkpt>
      <trkpt lat="43.44664" lon="5.64377">
        <ele>271.63</ele>
        <time>2022-10-10T14:09:36Z</time>
      </trkpt>
      <trkpt lat="43.44663" lon="5.6436">
        <ele>271.35</ele>
        <time>2022-10-10T14:09:37Z</time>
      </trkpt>
      <trkpt lat="43.4466" lon="5.64343">
        <ele>272.43</ele>
        <time>2022-10-10T14:09:38Z</time>
      </trkpt>
      <trkpt lat="43.44655" lon="5.64327">
        <ele>272.4</ele>
        <time>2022-10-10T14:09:39Z</time>
      </trkpt>
      <trkpt lat="43.44649" lon="5.64312">
        <ele>272.43</ele>
        <time>2022-10-10T14:09:40Z</time>
      </trkpt>
      <trkpt lat="43.44642" lon="5.64298">
        <ele>273.53</ele>
        <time>2022-10-10T14:09:41Z</time>
      </trkpt>
      <trkpt lat="43.44623" lon="5.64256">
        <ele>274.77</ele>
        <time>2022-10-10T14:09:44Z</time>
      </trkpt>
      <trkpt lat="43.44619" lon="5.64242">
        <ele>274.76</ele>
        <time>2022-10-10T14:09:45Z</time>
      </trkpt>
      <trkpt lat="43.44618" lon="5.64226">
        <ele>274.8</ele>
        <time>2022-10-10T14:09:46Z</time>
      </trkpt>
      <trkpt lat="43.44619" lon="5.64211">
        <ele>274.8</ele>
        <time>2022-10-10T14:09:47Z</time>
      </trkpt>
      <trkpt lat="43.44624" lon="5.64198">
        <ele>276.17</ele>
        <time>2022-10-10T14:09:48Z</time>
      </trkpt>
      <trkpt lat="43.4463" lon="5.64185">
        <ele>276.17</ele>
        <time>2022-10-10T14:09:49Z</time>
      </trkpt>
      <trkpt lat="43.44637" lon="5.64173">
        <ele>277.07</ele>
        <time>2022-10-10T14:09:50Z</time>
      </trkpt>
      <trkpt lat="43.44649" lon="5.64147">
        <ele>278.53</ele>
        <time>2022-10-10T14:09:52Z</time>
      </trkpt>
      <trkpt lat="43.44654" lon="5.64133">
        <ele>278.55</ele>
        <time>2022-10-10T14:09:53Z</time>
      </trkpt>
      <trkpt lat="43.44658" lon="5.64118">
        <ele>279.45</ele>
        <time>2022-10-10T14:09:54Z</time>
      </trkpt>
      <trkpt lat="43.4466" lon="5.64103">
        <ele>279.44</ele>
        <time>2022-10-10T14:09:55Z</time>
      </trkpt>
      <trkpt lat="43.44663" lon="5.64088">
        <ele>279.47</ele>
        <time>2022-10-10T14:09:56Z</time>
      </trkpt>
      <trkpt lat="43.44667" lon="5.64057">
        <ele>280.77</ele>
        <time>2022-10-10T14:09:58Z</time>
      </trkpt>
      <trkpt lat="43.44689" lon="5.63868">
        <ele>282.96</ele>
        <time>2022-10-10T14:10:11Z</time>
      </trkpt>
      <trkpt lat="43.44676" lon="5.63785">
        <ele>282.88</ele>
        <time>2022-10-10T14:10:20Z</time>
      </trkpt>
      <trkpt lat="43.44672" lon="5.63777">
        <ele>282.86</ele>
        <time>2022-10-10T14:10:21Z</time>
      </trkpt>
      <trkpt lat="43.44668" lon="5.6377">
        <ele>280.31</ele>
        <time>2022-10-10T14:10:22Z</time>
      </trkpt>
      <trkpt lat="43.44664" lon="5.63764">
        <ele>280.28</ele>
        <time>2022-10-10T14:10:23Z</time>
      </trkpt>
      <trkpt lat="43.44659" lon="5.63759">
        <ele>280.24</ele>
        <time>2022-10-10T14:10:24Z</time>
      </trkpt>
      <trkpt lat="43.44654" lon="5.63754">
        <ele>280.18</ele>
        <time>2022-10-10T14:10:25Z</time>
      </trkpt>
      <trkpt lat="43.44647" lon="5.6375">
        <ele>279.53</ele>
        <time>2022-10-10T14:10:26Z</time>
      </trkpt>
      <trkpt lat="43.44639" lon="5.63747">
        <ele>279.51</ele>
        <time>2022-10-10T14:10:27Z</time>
      </trkpt>
      <trkpt lat="43.4463" lon="5.63746">
        <ele>279.51</ele>
        <time>2022-10-10T14:10:28Z</time>
      </trkpt>
      <trkpt lat="43.44618" lon="5.63746">
        <ele>279.52</ele>
        <time>2022-10-10T14:10:29Z</time>
      </trkpt>
      <trkpt lat="43.44605" lon="5.63746">
        <ele>279.5</ele>
        <time>2022-10-10T14:10:30Z</time>
      </trkpt>
      <trkpt lat="43.44593" lon="5.63745">
        <ele>279.49</ele>
        <time>2022-10-10T14:10:31Z</time>
      </trkpt>
      <trkpt lat="43.44581" lon="5.63742">
        <ele>279.48</ele>
        <time>2022-10-10T14:10:32Z</time>
      </trkpt>
      <trkpt lat="43.4457" lon="5.63738">
        <ele>279.48</ele>
        <time>2022-10-10T14:10:33Z</time>
      </trkpt>
      <trkpt lat="43.4456" lon="5.6373">
        <ele>277.67</ele>
        <time>2022-10-10T14:10:34Z</time>
      </trkpt>
      <trkpt lat="43.44552" lon="5.63719">
        <ele>277.65</ele>
        <time>2022-10-10T14:10:35Z</time>
      </trkpt>
      <trkpt lat="43.44546" lon="5.63706">
        <ele>277.63</ele>
        <time>2022-10-10T14:10:36Z</time>
      </trkpt>
      <trkpt lat="43.44541" lon="5.63691">
        <ele>277.59</ele>
        <time>2022-10-10T14:10:37Z</time>
      </trkpt>
      <trkpt lat="43.44536" lon="5.63674">
        <ele>277.61</ele>
        <time>2022-10-10T14:10:38Z</time>
      </trkpt>
      <trkpt lat="43.44484" lon="5.6349">
        <ele>280.05</ele>
        <time>2022-10-10T14:10:48Z</time>
      </trkpt>
      <trkpt lat="43.44464" lon="5.63418">
        <ele>281.94</ele>
        <time>2022-10-10T14:10:52Z</time>
      </trkpt>
      <trkpt lat="43.4445" lon="5.63372">
        <ele>282.81</ele>
        <time>2022-10-10T14:10:55Z</time>
      </trkpt>
      <trkpt lat="43.44444" lon="5.6336">
        <ele>283.16</ele>
        <time>2022-10-10T14:10:56Z</time>
      </trkpt>
      <trkpt lat="43.44436" lon="5.63349">
        <ele>283.02</ele>
        <time>2022-10-10T14:10:57Z</time>
      </trkpt>
      <trkpt lat="43.44425" lon="5.63342">
        <ele>285.04</ele>
        <time>2022-10-10T14:10:58Z</time>
      </trkpt>
      <trkpt lat="43.44413" lon="5.63337">
        <ele>285.02</ele>
        <time>2022-10-10T14:10:59Z</time>
      </trkpt>
      <trkpt lat="43.444" lon="5.63333">
        <ele>284.7</ele>
        <time>2022-10-10T14:11:00Z</time>
      </trkpt>
      <trkpt lat="43.44332" lon="5.63324">
        <ele>287.79</ele>
        <time>2022-10-10T14:11:05Z</time>
      </trkpt>
      <trkpt lat="43.44304" lon="5.63321">
        <ele>288.82</ele>
        <time>2022-10-10T14:11:07Z</time>
      </trkpt>
      <trkpt lat="43.4425" lon="5.63305">
        <ele>290.76</ele>
        <time>2022-10-10T14:11:11Z</time>
      </trkpt>
      <trkpt lat="43.44237" lon="5.63297">
        <ele>291.83</ele>
        <time>2022-10-10T14:11:12Z</time>
      </trkpt>
      <trkpt lat="43.44225" lon="5.63287">
        <ele>292.57</ele>
        <time>2022-10-10T14:11:13Z</time>
      </trkpt>
      <trkpt lat="43.44214" lon="5.63277">
        <ele>292.63</ele>
        <time>2022-10-10T14:11:14Z</time>
      </trkpt>
      <trkpt lat="43.44203" lon="5.63265">
        <ele>293.97</ele>
        <time>2022-10-10T14:11:15Z</time>
      </trkpt>
      <trkpt lat="43.44194" lon="5.63252">
        <ele>293.95</ele>
        <time>2022-10-10T14:11:16Z</time>
      </trkpt>
      <trkpt lat="43.44185" lon="5.63237">
        <ele>295.47</ele>
        <time>2022-10-10T14:11:17Z</time>
      </trkpt>
      <trkpt lat="43.44176" lon="5.63222">
        <ele>295.47</ele>
        <time>2022-10-10T14:11:18Z</time>
      </trkpt>
      <trkpt lat="43.44157" lon="5.63192">
        <ele>296.86</ele>
        <time>2022-10-10T14:11:20Z</time>
      </trkpt>
      <trkpt lat="43.44108" lon="5.6314">
        <ele>299.46</ele>
        <time>2022-10-10T14:11:24Z</time>
      </trkpt>
      <trkpt lat="43.4408" lon="5.63114">
        <ele>300.95</ele>
        <time>2022-10-10T14:11:26Z</time>
      </trkpt>
      <trkpt lat="43.44041" lon="5.63066">
        <ele>304</ele>
        <time>2022-10-10T14:11:29Z</time>
      </trkpt>
      <trkpt lat="43.44027" lon="5.63052">
        <ele>305.08</ele>
        <time>2022-10-10T14:11:30Z</time>
      </trkpt>
      <trkpt lat="43.44012" lon="5.63041">
        <ele>306.51</ele>
        <time>2022-10-10T14:11:31Z</time>
      </trkpt>
      <trkpt lat="43.43996" lon="5.63033">
        <ele>307.47</ele>
        <time>2022-10-10T14:11:32Z</time>
      </trkpt>
      <trkpt lat="43.43981" lon="5.63027">
        <ele>307.52</ele>
        <time>2022-10-10T14:11:33Z</time>
      </trkpt>
      <trkpt lat="43.43966" lon="5.63019">
        <ele>308.47</ele>
        <time>2022-10-10T14:11:34Z</time>
      </trkpt>
      <trkpt lat="43.43951" lon="5.6301">
        <ele>308.52</ele>
        <time>2022-10-10T14:11:35Z</time>
      </trkpt>
      <trkpt lat="43.43938" lon="5.63">
        <ele>309.64</ele>
        <time>2022-10-10T14:11:36Z</time>
      </trkpt>
      <trkpt lat="43.43925" lon="5.62987">
        <ele>309.62</ele>
        <time>2022-10-10T14:11:37Z</time>
      </trkpt>
      <trkpt lat="43.43914" lon="5.62973">
        <ele>310.72</ele>
        <time>2022-10-10T14:11:38Z</time>
      </trkpt>
      <trkpt lat="43.43902" lon="5.62959">
        <ele>310.69</ele>
        <time>2022-10-10T14:11:39Z</time>
      </trkpt>
      <trkpt lat="43.43868" lon="5.6292">
        <ele>314.6</ele>
        <time>2022-10-10T14:11:42Z</time>
      </trkpt>
      <trkpt lat="43.43859" lon="5.62907">
        <ele>315.93</ele>
        <time>2022-10-10T14:11:43Z</time>
      </trkpt>
      <trkpt lat="43.43852" lon="5.62893">
        <ele>315.84</ele>
        <time>2022-10-10T14:11:44Z</time>
      </trkpt>
      <trkpt lat="43.43846" lon="5.62882">
        <ele>316.72</ele>
        <time>2022-10-10T14:11:45Z</time>
      </trkpt>
      <trkpt lat="43.43838" lon="5.62873">
        <ele>316.79</ele>
        <time>2022-10-10T14:11:46Z</time>
      </trkpt>
      <trkpt lat="43.43828" lon="5.6287">
        <ele>316.74</ele>
        <time>2022-10-10T14:11:47Z</time>
      </trkpt>
      <trkpt lat="43.43819" lon="5.62869">
        <ele>317.82</ele>
        <time>2022-10-10T14:11:48Z</time>
      </trkpt>
      <trkpt lat="43.43809" lon="5.62871">
        <ele>317.82</ele>
        <time>2022-10-10T14:11:49Z</time>
      </trkpt>
      <trkpt lat="43.43799" lon="5.62872">
        <ele>318.48</ele>
        <time>2022-10-10T14:11:50Z</time>
      </trkpt>
      <trkpt lat="43.43789" lon="5.6287">
        <ele>318.48</ele>
        <time>2022-10-10T14:11:51Z</time>
      </trkpt>
      <trkpt lat="43.4378" lon="5.62866">
        <ele>318.54</ele>
        <time>2022-10-10T14:11:52Z</time>
      </trkpt>
      <trkpt lat="43.43771" lon="5.62857">
        <ele>319.93</ele>
        <time>2022-10-10T14:11:53Z</time>
      </trkpt>
      <trkpt lat="43.43763" lon="5.62846">
        <ele>319.99</ele>
        <time>2022-10-10T14:11:54Z</time>
      </trkpt>
      <trkpt lat="43.43756" lon="5.62833">
        <ele>321.23</ele>
        <time>2022-10-10T14:11:55Z</time>
      </trkpt>
      <trkpt lat="43.4375" lon="5.62819">
        <ele>321.23</ele>
        <time>2022-10-10T14:11:56Z</time>
      </trkpt>
      <trkpt lat="43.43747" lon="5.62803">
        <ele>322.3</ele>
        <time>2022-10-10T14:11:57Z</time>
      </trkpt>
      <trkpt lat="43.43746" lon="5.62787">
        <ele>322.67</ele>
        <time>2022-10-10T14:11:58Z</time>
      </trkpt>
      <trkpt lat="43.43746" lon="5.62757">
        <ele>322.11</ele>
        <time>2022-10-10T14:12:00Z</time>
      </trkpt>
      <trkpt lat="43.43744" lon="5.62742">
        <ele>322.72</ele>
        <time>2022-10-10T14:12:01Z</time>
      </trkpt>
      <trkpt lat="43.43738" lon="5.6273">
        <ele>325.77</ele>
        <time>2022-10-10T14:12:02Z</time>
      </trkpt>
      <trkpt lat="43.4373" lon="5.62721">
        <ele>325.22</ele>
        <time>2022-10-10T14:12:03Z</time>
      </trkpt>
      <trkpt lat="43.4372" lon="5.62714">
        <ele>326.18</ele>
        <time>2022-10-10T14:12:04Z</time>
      </trkpt>
      <trkpt lat="43.43709" lon="5.62713">
        <ele>326.18</ele>
        <time>2022-10-10T14:12:05Z</time>
      </trkpt>
      <trkpt lat="43.43699" lon="5.62717">
        <ele>327.06</ele>
        <time>2022-10-10T14:12:06Z</time>
      </trkpt>
      <trkpt lat="43.43689" lon="5.62725">
        <ele>328.21</ele>
        <time>2022-10-10T14:12:07Z</time>
      </trkpt>
      <trkpt lat="43.4368" lon="5.62734">
        <ele>329.38</ele>
        <time>2022-10-10T14:12:08Z</time>
      </trkpt>
      <trkpt lat="43.43669" lon="5.62746">
        <ele>329.37</ele>
        <time>2022-10-10T14:12:09Z</time>
      </trkpt>
      <trkpt lat="43.43636" lon="5.62779">
        <ele>331.5</ele>
        <time>2022-10-10T14:12:12Z</time>
      </trkpt>
      <trkpt lat="43.43623" lon="5.62787">
        <ele>331.49</ele>
        <time>2022-10-10T14:12:13Z</time>
      </trkpt>
      <trkpt lat="43.4361" lon="5.62792">
        <ele>332.42</ele>
        <time>2022-10-10T14:12:14Z</time>
      </trkpt>
      <trkpt lat="43.43597" lon="5.62796">
        <ele>332.4</ele>
        <time>2022-10-10T14:12:15Z</time>
      </trkpt>
      <trkpt lat="43.43584" lon="5.62796">
        <ele>333.36</ele>
        <time>2022-10-10T14:12:16Z</time>
      </trkpt>
      <trkpt lat="43.43571" lon="5.62794">
        <ele>334.79</ele>
        <time>2022-10-10T14:12:17Z</time>
      </trkpt>
      <trkpt lat="43.43558" lon="5.6279">
        <ele>334.75</ele>
        <time>2022-10-10T14:12:18Z</time>
      </trkpt>
      <trkpt lat="43.43546" lon="5.62784">
        <ele>335.81</ele>
        <time>2022-10-10T14:12:19Z</time>
      </trkpt>
      <trkpt lat="43.43534" lon="5.62777">
        <ele>335.75</ele>
        <time>2022-10-10T14:12:20Z</time>
      </trkpt>
      <trkpt lat="43.43523" lon="5.62767">
        <ele>336.82</ele>
        <time>2022-10-10T14:12:21Z</time>
      </trkpt>
      <trkpt lat="43.43514" lon="5.62754">
        <ele>336.87</ele>
        <time>2022-10-10T14:12:22Z</time>
      </trkpt>
      <trkpt lat="43.43504" lon="5.62741">
        <ele>338.84</ele>
        <time>2022-10-10T14:12:23Z</time>
      </trkpt>
      <trkpt lat="43.43495" lon="5.62726">
        <ele>338.89</ele>
        <time>2022-10-10T14:12:24Z</time>
      </trkpt>
      <trkpt lat="43.43476" lon="5.62699">
        <ele>339.89</ele>
        <time>2022-10-10T14:12:26Z</time>
      </trkpt>
      <trkpt lat="43.43467" lon="5.62689">
        <ele>339.9</ele>
        <time>2022-10-10T14:12:27Z</time>
      </trkpt>
      <trkpt lat="43.43456" lon="5.62681">
        <ele>340.79</ele>
        <time>2022-10-10T14:12:28Z</time>
      </trkpt>
      <trkpt lat="43.43443" lon="5.62679">
        <ele>340.89</ele>
        <time>2022-10-10T14:12:29Z</time>
      </trkpt>
      <trkpt lat="43.43431" lon="5.62681">
        <ele>341.58</ele>
        <time>2022-10-10T14:12:30Z</time>
      </trkpt>
      <trkpt lat="43.43419" lon="5.62686">
        <ele>341.64</ele>
        <time>2022-10-10T14:12:31Z</time>
      </trkpt>
      <trkpt lat="43.43408" lon="5.62692">
        <ele>343.02</ele>
        <time>2022-10-10T14:12:32Z</time>
      </trkpt>
      <trkpt lat="43.43397" lon="5.62696">
        <ele>343.01</ele>
        <time>2022-10-10T14:12:33Z</time>
      </trkpt>
      <trkpt lat="43.43386" lon="5.62699">
        <ele>343.07</ele>
        <time>2022-10-10T14:12:34Z</time>
      </trkpt>
      <trkpt lat="43.43377" lon="5.627">
        <ele>343.05</ele>
        <time>2022-10-10T14:12:35Z</time>
      </trkpt>
      <trkpt lat="43.43369" lon="5.62697">
        <ele>343.11</ele>
        <time>2022-10-10T14:12:36Z</time>
      </trkpt>
      <trkpt lat="43.43361" lon="5.62691">
        <ele>343.96</ele>
        <time>2022-10-10T14:12:37Z</time>
      </trkpt>
      <trkpt lat="43.43355" lon="5.6268">
        <ele>344.12</ele>
        <time>2022-10-10T14:12:38Z</time>
      </trkpt>
      <trkpt lat="43.4335" lon="5.62667">
        <ele>345.26</ele>
        <time>2022-10-10T14:12:39Z</time>
      </trkpt>
      <trkpt lat="43.43346" lon="5.62651">
        <ele>345.25</ele>
        <time>2022-10-10T14:12:40Z</time>
      </trkpt>
      <trkpt lat="43.43337" lon="5.6262">
        <ele>346.57</ele>
        <time>2022-10-10T14:12:42Z</time>
      </trkpt>
      <trkpt lat="43.43332" lon="5.62605">
        <ele>347.76</ele>
        <time>2022-10-10T14:12:43Z</time>
      </trkpt>
      <trkpt lat="43.43325" lon="5.62591">
        <ele>347.75</ele>
        <time>2022-10-10T14:12:44Z</time>
      </trkpt>
      <trkpt lat="43.43315" lon="5.62582">
        <ele>348.52</ele>
        <time>2022-10-10T14:12:45Z</time>
      </trkpt>
      <trkpt lat="43.43305" lon="5.62577">
        <ele>348.56</ele>
        <time>2022-10-10T14:12:46Z</time>
      </trkpt>
      <trkpt lat="43.43295" lon="5.62578">
        <ele>348.56</ele>
        <time>2022-10-10T14:12:47Z</time>
      </trkpt>
      <trkpt lat="43.43285" lon="5.62584">
        <ele>349.87</ele>
        <time>2022-10-10T14:12:48Z</time>
      </trkpt>
      <trkpt lat="43.43276" lon="5.6259">
        <ele>349.92</ele>
        <time>2022-10-10T14:12:49Z</time>
      </trkpt>
      <trkpt lat="43.43267" lon="5.62596">
        <ele>349.92</ele>
        <time>2022-10-10T14:12:50Z</time>
      </trkpt>
      <trkpt lat="43.43259" lon="5.62598">
        <ele>349.9</ele>
        <time>2022-10-10T14:12:51Z</time>
      </trkpt>
      <trkpt lat="43.43251" lon="5.62597">
        <ele>349.95</ele>
        <time>2022-10-10T14:12:52Z</time>
      </trkpt>
      <trkpt lat="43.43244" lon="5.62591">
        <ele>351.13</ele>
        <time>2022-10-10T14:12:53Z</time>
      </trkpt>
      <trkpt lat="43.43238" lon="5.62582">
        <ele>352.25</ele>
        <time>2022-10-10T14:12:54Z</time>
      </trkpt>
      <trkpt lat="43.43232" lon="5.62569">
        <ele>352.3</ele>
        <time>2022-10-10T14:12:55Z</time>
      </trkpt>
      <trkpt lat="43.43226" lon="5.62555">
        <ele>353.61</ele>
        <time>2022-10-10T14:12:56Z</time>
      </trkpt>
      <trkpt lat="43.4322" lon="5.6254">
        <ele>353.66</ele>
        <time>2022-10-10T14:12:57Z</time>
      </trkpt>
      <trkpt lat="43.43207" lon="5.62508">
        <ele>355.14</ele>
        <time>2022-10-10T14:12:59Z</time>
      </trkpt>
      <trkpt lat="43.43184" lon="5.62457">
        <ele>357.32</ele>
        <time>2022-10-10T14:13:02Z</time>
      </trkpt>
      <trkpt lat="43.43173" lon="5.62442">
        <ele>358.98</ele>
        <time>2022-10-10T14:13:03Z</time>
      </trkpt>
      <trkpt lat="43.4316" lon="5.6243">
        <ele>359.04</ele>
        <time>2022-10-10T14:13:04Z</time>
      </trkpt>
      <trkpt lat="43.43146" lon="5.62421">
        <ele>360.13</ele>
        <time>2022-10-10T14:13:05Z</time>
      </trkpt>
      <trkpt lat="43.43132" lon="5.62414">
        <ele>360.18</ele>
        <time>2022-10-10T14:13:06Z</time>
      </trkpt>
      <trkpt lat="43.43104" lon="5.624">
        <ele>361.53</ele>
        <time>2022-10-10T14:13:08Z</time>
      </trkpt>
      <trkpt lat="43.43091" lon="5.6239">
        <ele>363.16</ele>
        <time>2022-10-10T14:13:09Z</time>
      </trkpt>
      <trkpt lat="43.43079" lon="5.62379">
        <ele>363.23</ele>
        <time>2022-10-10T14:13:10Z</time>
      </trkpt>
      <trkpt lat="43.43031" lon="5.62328">
        <ele>366.53</ele>
        <time>2022-10-10T14:13:14Z</time>
      </trkpt>
      <trkpt lat="43.43006" lon="5.62301">
        <ele>367.32</ele>
        <time>2022-10-10T14:13:16Z</time>
      </trkpt>
      <trkpt lat="43.42982" lon="5.62273">
        <ele>370.45</ele>
        <time>2022-10-10T14:13:18Z</time>
      </trkpt>
      <trkpt lat="43.42969" lon="5.62259">
        <ele>370.45</ele>
        <time>2022-10-10T14:13:19Z</time>
      </trkpt>
      <trkpt lat="43.42948" lon="5.62226">
        <ele>371.4</ele>
        <time>2022-10-10T14:13:21Z</time>
      </trkpt>
      <trkpt lat="43.42927" lon="5.62191">
        <ele>373.59</ele>
        <time>2022-10-10T14:13:23Z</time>
      </trkpt>
      <trkpt lat="43.42914" lon="5.62177">
        <ele>375.04</ele>
        <time>2022-10-10T14:13:24Z</time>
      </trkpt>
      <trkpt lat="43.429" lon="5.62165">
        <ele>375.11</ele>
        <time>2022-10-10T14:13:25Z</time>
      </trkpt>
      <trkpt lat="43.42846" lon="5.62116">
        <ele>376.92</ele>
        <time>2022-10-10T14:13:29Z</time>
      </trkpt>
      <trkpt lat="43.42806" lon="5.62077">
        <ele>380.13</ele>
        <time>2022-10-10T14:13:32Z</time>
      </trkpt>
      <trkpt lat="43.42792" lon="5.62064">
        <ele>380.19</ele>
        <time>2022-10-10T14:13:33Z</time>
      </trkpt>
      <trkpt lat="43.42763" lon="5.62039">
        <ele>382.13</ele>
        <time>2022-10-10T14:13:35Z</time>
      </trkpt>
      <trkpt lat="43.42716" lon="5.62008">
        <ele>384.17</ele>
        <time>2022-10-10T14:13:38Z</time>
      </trkpt>
      <trkpt lat="43.42683" lon="5.61992">
        <ele>385.7</ele>
        <time>2022-10-10T14:13:40Z</time>
      </trkpt>
      <trkpt lat="43.42633" lon="5.61973">
        <ele>389.01</ele>
        <time>2022-10-10T14:13:43Z</time>
      </trkpt>
      <trkpt lat="43.42616" lon="5.61965">
        <ele>389.09</ele>
        <time>2022-10-10T14:13:44Z</time>
      </trkpt>
      <trkpt lat="43.42585" lon="5.61949">
        <ele>390.27</ele>
        <time>2022-10-10T14:13:46Z</time>
      </trkpt>
      <trkpt lat="43.42571" lon="5.61938">
        <ele>390.27</ele>
        <time>2022-10-10T14:13:47Z</time>
      </trkpt>
      <trkpt lat="43.42558" lon="5.61924">
        <ele>391.81</ele>
        <time>2022-10-10T14:13:48Z</time>
      </trkpt>
      <trkpt lat="43.42546" lon="5.61909">
        <ele>392.96</ele>
        <time>2022-10-10T14:13:49Z</time>
      </trkpt>
      <trkpt lat="43.42535" lon="5.61892">
        <ele>393.02</ele>
        <time>2022-10-10T14:13:50Z</time>
      </trkpt>
      <trkpt lat="43.42491" lon="5.61822">
        <ele>395.8</ele>
        <time>2022-10-10T14:13:54Z</time>
      </trkpt>
      <trkpt lat="43.42468" lon="5.61787">
        <ele>397.31</ele>
        <time>2022-10-10T14:13:56Z</time>
      </trkpt>
      <trkpt lat="43.42427" lon="5.6174">
        <ele>399.63</ele>
        <time>2022-10-10T14:13:59Z</time>
      </trkpt>
      <trkpt lat="43.42396" lon="5.61716">
        <ele>401.26</ele>
        <time>2022-10-10T14:14:01Z</time>
      </trkpt>
      <trkpt lat="43.42381" lon="5.61707">
        <ele>401.25</ele>
        <time>2022-10-10T14:14:02Z</time>
      </trkpt>
      <trkpt lat="43.42366" lon="5.61702">
        <ele>402.18</ele>
        <time>2022-10-10T14:14:03Z</time>
      </trkpt>
      <trkpt lat="43.42351" lon="5.61701">
        <ele>402.14</ele>
        <time>2022-10-10T14:14:04Z</time>
      </trkpt>
      <trkpt lat="43.42337" lon="5.61704">
        <ele>403.54</ele>
        <time>2022-10-10T14:14:05Z</time>
      </trkpt>
      <trkpt lat="43.42324" lon="5.61711">
        <ele>403.63</ele>
        <time>2022-10-10T14:14:06Z</time>
      </trkpt>
      <trkpt lat="43.42312" lon="5.6172">
        <ele>404.09</ele>
        <time>2022-10-10T14:14:07Z</time>
      </trkpt>
      <trkpt lat="43.42299" lon="5.61731">
        <ele>405</ele>
        <time>2022-10-10T14:14:08Z</time>
      </trkpt>
      <trkpt lat="43.42286" lon="5.61742">
        <ele>405</ele>
        <time>2022-10-10T14:14:09Z</time>
      </trkpt>
      <trkpt lat="43.42272" lon="5.61751">
        <ele>406.27</ele>
        <time>2022-10-10T14:14:10Z</time>
      </trkpt>
      <trkpt lat="43.42257" lon="5.61759">
        <ele>407.02</ele>
        <time>2022-10-10T14:14:11Z</time>
      </trkpt>
      <trkpt lat="43.42242" lon="5.61766">
        <ele>407.84</ele>
        <time>2022-10-10T14:14:12Z</time>
      </trkpt>
      <trkpt lat="43.42227" lon="5.61771">
        <ele>408.65</ele>
        <time>2022-10-10T14:14:13Z</time>
      </trkpt>
      <trkpt lat="43.42211" lon="5.61773">
        <ele>409.42</ele>
        <time>2022-10-10T14:14:14Z</time>
      </trkpt>
      <trkpt lat="43.42196" lon="5.61773">
        <ele>410.37</ele>
        <time>2022-10-10T14:14:15Z</time>
      </trkpt>
      <trkpt lat="43.42179" lon="5.6177">
        <ele>411.22</ele>
        <time>2022-10-10T14:14:16Z</time>
      </trkpt>
      <trkpt lat="43.42163" lon="5.61766">
        <ele>412.09</ele>
        <time>2022-10-10T14:14:17Z</time>
      </trkpt>
      <trkpt lat="43.42147" lon="5.61761">
        <ele>412.93</ele>
        <time>2022-10-10T14:14:18Z</time>
      </trkpt>
      <trkpt lat="43.42131" lon="5.61755">
        <ele>413</ele>
        <time>2022-10-10T14:14:19Z</time>
      </trkpt>
      <trkpt lat="43.42099" lon="5.61738">
        <ele>415.2</ele>
        <time>2022-10-10T14:14:21Z</time>
      </trkpt>
      <trkpt lat="43.42051" lon="5.61705">
        <ele>416.89</ele>
        <time>2022-10-10T14:14:24Z</time>
      </trkpt>
      <trkpt lat="43.42037" lon="5.61691">
        <ele>416.95</ele>
        <time>2022-10-10T14:14:25Z</time>
      </trkpt>
      <trkpt lat="43.42025" lon="5.61675">
        <ele>417.72</ele>
        <time>2022-10-10T14:14:26Z</time>
      </trkpt>
      <trkpt lat="43.42014" lon="5.61658">
        <ele>417.82</ele>
        <time>2022-10-10T14:14:27Z</time>
      </trkpt>
      <trkpt lat="43.42006" lon="5.61641">
        <ele>417.81</ele>
        <time>2022-10-10T14:14:28Z</time>
      </trkpt>
      <trkpt lat="43.41998" lon="5.61622">
        <ele>417.79</ele>
        <time>2022-10-10T14:14:29Z</time>
      </trkpt>
      <trkpt lat="43.41992" lon="5.61602">
        <ele>417.73</ele>
        <time>2022-10-10T14:14:30Z</time>
      </trkpt>
      <trkpt lat="43.41988" lon="5.61582">
        <ele>417.75</ele>
        <time>2022-10-10T14:14:31Z</time>
      </trkpt>
      <trkpt lat="43.41987" lon="5.61561">
        <ele>418.48</ele>
        <time>2022-10-10T14:14:32Z</time>
      </trkpt>
      <trkpt lat="43.41988" lon="5.61539">
        <ele>418.54</ele>
        <time>2022-10-10T14:14:33Z</time>
      </trkpt>
      <trkpt lat="43.41989" lon="5.61517">
        <ele>418.48</ele>
        <time>2022-10-10T14:14:34Z</time>
      </trkpt>
      <trkpt lat="43.42" lon="5.61414">
        <ele>418.54</ele>
        <time>2022-10-10T14:14:39Z</time>
      </trkpt>
      <trkpt lat="43.41999" lon="5.61395">
        <ele>418.54</ele>
        <time>2022-10-10T14:14:40Z</time>
      </trkpt>
      <trkpt lat="43.41997" lon="5.61377">
        <ele>418.51</ele>
        <time>2022-10-10T14:14:41Z</time>
      </trkpt>
      <trkpt lat="43.41992" lon="5.6136">
        <ele>418.52</ele>
        <time>2022-10-10T14:14:42Z</time>
      </trkpt>
      <trkpt lat="43.41986" lon="5.61344">
        <ele>418.51</ele>
        <time>2022-10-10T14:14:43Z</time>
      </trkpt>
      <trkpt lat="43.41977" lon="5.61331">
        <ele>418.5</ele>
        <time>2022-10-10T14:14:44Z</time>
      </trkpt>
      <trkpt lat="43.41967" lon="5.61319">
        <ele>418.5</ele>
        <time>2022-10-10T14:14:45Z</time>
      </trkpt>
      <trkpt lat="43.41957" lon="5.61308">
        <ele>418.48</ele>
        <time>2022-10-10T14:14:46Z</time>
      </trkpt>
      <trkpt lat="43.41947" lon="5.613">
        <ele>418.48</ele>
        <time>2022-10-10T14:14:47Z</time>
      </trkpt>
      <trkpt lat="43.41917" lon="5.61272">
        <ele>418.37</ele>
        <time>2022-10-10T14:14:50Z</time>
      </trkpt>
      <trkpt lat="43.41908" lon="5.6126">
        <ele>418.35</ele>
        <time>2022-10-10T14:14:51Z</time>
      </trkpt>
      <trkpt lat="43.41901" lon="5.61246">
        <ele>418.35</ele>
        <time>2022-10-10T14:14:52Z</time>
      </trkpt>
      <trkpt lat="43.41896" lon="5.6123">
        <ele>418.35</ele>
        <time>2022-10-10T14:14:53Z</time>
      </trkpt>
      <trkpt lat="43.41893" lon="5.61213">
        <ele>418.34</ele>
        <time>2022-10-10T14:14:54Z</time>
      </trkpt>
      <trkpt lat="43.41891" lon="5.61195">
        <ele>416</ele>
        <time>2022-10-10T14:14:55Z</time>
      </trkpt>
      <trkpt lat="43.41889" lon="5.61176">
        <ele>416.02</ele>
        <time>2022-10-10T14:14:56Z</time>
      </trkpt>
      <trkpt lat="43.41884" lon="5.61005">
        <ele>415.3</ele>
        <time>2022-10-10T14:15:06Z</time>
      </trkpt>
      <trkpt lat="43.41876" lon="5.60866">
        <ele>417.73</ele>
        <time>2022-10-10T14:15:14Z</time>
      </trkpt>
      <trkpt lat="43.41876" lon="5.60679">
        <ele>419.88</ele>
        <time>2022-10-10T14:15:22Z</time>
      </trkpt>
      <trkpt lat="43.41901" lon="5.60384">
        <ele>417.21</ele>
        <time>2022-10-10T14:15:34Z</time>
      </trkpt>
      <trkpt lat="43.4191" lon="5.60315">
        <ele>415.01</ele>
        <time>2022-10-10T14:15:37Z</time>
      </trkpt>
      <trkpt lat="43.41918" lon="5.60269">
        <ele>413.37</ele>
        <time>2022-10-10T14:15:39Z</time>
      </trkpt>
      <trkpt lat="43.41931" lon="5.60145">
        <ele>410.89</ele>
        <time>2022-10-10T14:15:44Z</time>
      </trkpt>
      <trkpt lat="43.41932" lon="5.59932">
        <ele>406.91</ele>
        <time>2022-10-10T14:15:52Z</time>
      </trkpt>
      <trkpt lat="43.41931" lon="5.59904">
        <ele>406.85</ele>
        <time>2022-10-10T14:15:53Z</time>
      </trkpt>
      <trkpt lat="43.41933" lon="5.59712">
        <ele>402.77</ele>
        <time>2022-10-10T14:16:00Z</time>
      </trkpt>
      <trkpt lat="43.41931" lon="5.59486">
        <ele>400.84</ele>
        <time>2022-10-10T14:16:09Z</time>
      </trkpt>
      <trkpt lat="43.41926" lon="5.59464">
        <ele>399.74</ele>
        <time>2022-10-10T14:16:10Z</time>
      </trkpt>
      <trkpt lat="43.41918" lon="5.59443">
        <ele>399.71</ele>
        <time>2022-10-10T14:16:11Z</time>
      </trkpt>
      <trkpt lat="43.41908" lon="5.59424">
        <ele>399.74</ele>
        <time>2022-10-10T14:16:12Z</time>
      </trkpt>
      <trkpt lat="43.41896" lon="5.59407">
        <ele>399.71</ele>
        <time>2022-10-10T14:16:13Z</time>
      </trkpt>
      <trkpt lat="43.41883" lon="5.5939">
        <ele>399.69</ele>
        <time>2022-10-10T14:16:14Z</time>
      </trkpt>
      <trkpt lat="43.41834" lon="5.59324">
        <ele>398.3</ele>
        <time>2022-10-10T14:16:18Z</time>
      </trkpt>
      <trkpt lat="43.4176" lon="5.59222">
        <ele>398.27</ele>
        <time>2022-10-10T14:16:23Z</time>
      </trkpt>
      <trkpt lat="43.41747" lon="5.59196">
        <ele>398.26</ele>
        <time>2022-10-10T14:16:24Z</time>
      </trkpt>
      <trkpt lat="43.41689" lon="5.59076">
        <ele>394.83</ele>
        <time>2022-10-10T14:16:29Z</time>
      </trkpt>
      <trkpt lat="43.41659" lon="5.59015">
        <ele>392.96</ele>
        <time>2022-10-10T14:16:32Z</time>
      </trkpt>
      <trkpt lat="43.41616" lon="5.58866">
        <ele>389.83</ele>
        <time>2022-10-10T14:16:39Z</time>
      </trkpt>
      <trkpt lat="43.41612" lon="5.58842">
        <ele>389.78</ele>
        <time>2022-10-10T14:16:40Z</time>
      </trkpt>
      <trkpt lat="43.41603" lon="5.58708">
        <ele>386.76</ele>
        <time>2022-10-10T14:16:45Z</time>
      </trkpt>
      <trkpt lat="43.41599" lon="5.58652">
        <ele>385.95</ele>
        <time>2022-10-10T14:16:47Z</time>
      </trkpt>
      <trkpt lat="43.41593" lon="5.58542">
        <ele>384.51</ele>
        <time>2022-10-10T14:16:51Z</time>
      </trkpt>
      <trkpt lat="43.4159" lon="5.58493">
        <ele>383.27</ele>
        <time>2022-10-10T14:16:53Z</time>
      </trkpt>
      <trkpt lat="43.41588" lon="5.58448">
        <ele>381.29</ele>
        <time>2022-10-10T14:16:55Z</time>
      </trkpt>
      <trkpt lat="43.41586" lon="5.58427">
        <ele>381.28</ele>
        <time>2022-10-10T14:16:56Z</time>
      </trkpt>
      <trkpt lat="43.41582" lon="5.58406">
        <ele>379.87</ele>
        <time>2022-10-10T14:16:57Z</time>
      </trkpt>
      <trkpt lat="43.41574" lon="5.58389">
        <ele>379.87</ele>
        <time>2022-10-10T14:16:58Z</time>
      </trkpt>
      <trkpt lat="43.41563" lon="5.58374">
        <ele>379.91</ele>
        <time>2022-10-10T14:16:59Z</time>
      </trkpt>
      <trkpt lat="43.41549" lon="5.58363">
        <ele>379.88</ele>
        <time>2022-10-10T14:17:00Z</time>
      </trkpt>
      <trkpt lat="43.41533" lon="5.58355">
        <ele>379.85</ele>
        <time>2022-10-10T14:17:01Z</time>
      </trkpt>
      <trkpt lat="43.4149" lon="5.58327">
        <ele>379.95</ele>
        <time>2022-10-10T14:17:04Z</time>
      </trkpt>
      <trkpt lat="43.41479" lon="5.58315">
        <ele>380.2</ele>
        <time>2022-10-10T14:17:05Z</time>
      </trkpt>
      <trkpt lat="43.41472" lon="5.583">
        <ele>378.95</ele>
        <time>2022-10-10T14:17:06Z</time>
      </trkpt>
      <trkpt lat="43.41469" lon="5.58281">
        <ele>377</ele>
        <time>2022-10-10T14:17:07Z</time>
      </trkpt>
      <trkpt lat="43.41471" lon="5.58261">
        <ele>376.97</ele>
        <time>2022-10-10T14:17:08Z</time>
      </trkpt>
      <trkpt lat="43.41478" lon="5.58244">
        <ele>376.96</ele>
        <time>2022-10-10T14:17:09Z</time>
      </trkpt>
      <trkpt lat="43.41488" lon="5.5823">
        <ele>376.16</ele>
        <time>2022-10-10T14:17:10Z</time>
      </trkpt>
      <trkpt lat="43.41501" lon="5.58217">
        <ele>376.17</ele>
        <time>2022-10-10T14:17:11Z</time>
      </trkpt>
      <trkpt lat="43.41515" lon="5.58204">
        <ele>374.81</ele>
        <time>2022-10-10T14:17:12Z</time>
      </trkpt>
      <trkpt lat="43.41528" lon="5.5819">
        <ele>374.78</ele>
        <time>2022-10-10T14:17:13Z</time>
      </trkpt>
      <trkpt lat="43.41567" lon="5.58151">
        <ele>372.75</ele>
        <time>2022-10-10T14:17:16Z</time>
      </trkpt>
      <trkpt lat="43.41605" lon="5.58119">
        <ele>370.89</ele>
        <time>2022-10-10T14:17:19Z</time>
      </trkpt>
      <trkpt lat="43.41619" lon="5.58111">
        <ele>369.18</ele>
        <time>2022-10-10T14:17:20Z</time>
      </trkpt>
      <trkpt lat="43.41634" lon="5.58104">
        <ele>369.19</ele>
        <time>2022-10-10T14:17:21Z</time>
      </trkpt>
      <trkpt lat="43.41661" lon="5.58089">
        <ele>368.08</ele>
        <time>2022-10-10T14:17:23Z</time>
      </trkpt>
      <trkpt lat="43.41672" lon="5.58077">
        <ele>367.3</ele>
        <time>2022-10-10T14:17:24Z</time>
      </trkpt>
      <trkpt lat="43.41681" lon="5.58063">
        <ele>366.03</ele>
        <time>2022-10-10T14:17:25Z</time>
      </trkpt>
      <trkpt lat="43.41688" lon="5.58047">
        <ele>366.07</ele>
        <time>2022-10-10T14:17:26Z</time>
      </trkpt>
      <trkpt lat="43.41691" lon="5.5803">
        <ele>366.07</ele>
        <time>2022-10-10T14:17:27Z</time>
      </trkpt>
      <trkpt lat="43.41692" lon="5.58011">
        <ele>364.31</ele>
        <time>2022-10-10T14:17:28Z</time>
      </trkpt>
      <trkpt lat="43.4169" lon="5.57992">
        <ele>364.31</ele>
        <time>2022-10-10T14:17:29Z</time>
      </trkpt>
      <trkpt lat="43.41687" lon="5.57973">
        <ele>363.81</ele>
        <time>2022-10-10T14:17:30Z</time>
      </trkpt>
      <trkpt lat="43.41682" lon="5.57954">
        <ele>363.81</ele>
        <time>2022-10-10T14:17:31Z</time>
      </trkpt>
      <trkpt lat="43.41675" lon="5.57934">
        <ele>363.81</ele>
        <time>2022-10-10T14:17:32Z</time>
      </trkpt>
      <trkpt lat="43.41668" lon="5.57915">
        <ele>363.76</ele>
        <time>2022-10-10T14:17:33Z</time>
      </trkpt>
      <trkpt lat="43.41652" lon="5.57875">
        <ele>362.54</ele>
        <time>2022-10-10T14:17:35Z</time>
      </trkpt>
      <trkpt lat="43.41634" lon="5.57837">
        <ele>361.19</ele>
        <time>2022-10-10T14:17:37Z</time>
      </trkpt>
      <trkpt lat="43.41614" lon="5.57801">
        <ele>359.39</ele>
        <time>2022-10-10T14:17:39Z</time>
      </trkpt>
      <trkpt lat="43.41577" lon="5.57735">
        <ele>356.62</ele>
        <time>2022-10-10T14:17:43Z</time>
      </trkpt>
      <trkpt lat="43.41549" lon="5.57693">
        <ele>354.24</ele>
        <time>2022-10-10T14:17:46Z</time>
      </trkpt>
      <trkpt lat="43.41539" lon="5.57682">
        <ele>352.72</ele>
        <time>2022-10-10T14:17:47Z</time>
      </trkpt>
      <trkpt lat="43.41529" lon="5.57672">
        <ele>352.66</ele>
        <time>2022-10-10T14:17:48Z</time>
      </trkpt>
      <trkpt lat="43.41512" lon="5.57655">
        <ele>350.49</ele>
        <time>2022-10-10T14:17:50Z</time>
      </trkpt>
      <trkpt lat="43.41504" lon="5.57634">
        <ele>349.56</ele>
        <time>2022-10-10T14:17:52Z</time>
      </trkpt>
      <trkpt lat="43.41478" lon="5.57618">
        <ele>350.13</ele>
        <time>2022-10-10T14:17:56Z</time>
      </trkpt>
      <trkpt lat="43.41468" lon="5.57626">
        <ele>350.07</ele>
        <time>2022-10-10T14:17:57Z</time>
      </trkpt>
      <trkpt lat="43.41456" lon="5.57634">
        <ele>350.13</ele>
        <time>2022-10-10T14:17:58Z</time>
      </trkpt>
      <trkpt lat="43.41441" lon="5.57642">
        <ele>349.2</ele>
        <time>2022-10-10T14:17:59Z</time>
      </trkpt>
      <trkpt lat="43.41426" lon="5.57648">
        <ele>349.21</ele>
        <time>2022-10-10T14:18:00Z</time>
      </trkpt>
      <trkpt lat="43.41353" lon="5.57687">
        <ele>346.71</ele>
        <time>2022-10-10T14:18:04Z</time>
      </trkpt>
      <trkpt lat="43.41318" lon="5.57706">
        <ele>343.69</ele>
        <time>2022-10-10T14:18:06Z</time>
      </trkpt>
      <trkpt lat="43.41284" lon="5.57725">
        <ele>342.82</ele>
        <time>2022-10-10T14:18:08Z</time>
      </trkpt>
      <trkpt lat="43.4125" lon="5.5774">
        <ele>340.82</ele>
        <time>2022-10-10T14:18:10Z</time>
      </trkpt>
      <trkpt lat="43.41199" lon="5.57754">
        <ele>338.64</ele>
        <time>2022-10-10T14:18:13Z</time>
      </trkpt>
      <trkpt lat="43.41152" lon="5.5776">
        <ele>336.8</ele>
        <time>2022-10-10T14:18:16Z</time>
      </trkpt>
      <trkpt lat="43.41094" lon="5.57767">
        <ele>334.01</ele>
        <time>2022-10-10T14:18:20Z</time>
      </trkpt>
      <trkpt lat="43.4102" lon="5.57774">
        <ele>331.75</ele>
        <time>2022-10-10T14:18:25Z</time>
      </trkpt>
      <trkpt lat="43.41006" lon="5.5777">
        <ele>330.6</ele>
        <time>2022-10-10T14:18:26Z</time>
      </trkpt>
      <trkpt lat="43.40992" lon="5.57763">
        <ele>330.61</ele>
        <time>2022-10-10T14:18:27Z</time>
      </trkpt>
      <trkpt lat="43.40979" lon="5.57751">
        <ele>329.59</ele>
        <time>2022-10-10T14:18:28Z</time>
      </trkpt>
      <trkpt lat="43.40967" lon="5.57737">
        <ele>329.54</ele>
        <time>2022-10-10T14:18:29Z</time>
      </trkpt>
      <trkpt lat="43.40954" lon="5.57723">
        <ele>329.55</ele>
        <time>2022-10-10T14:18:30Z</time>
      </trkpt>
      <trkpt lat="43.40941" lon="5.57712">
        <ele>328.06</ele>
        <time>2022-10-10T14:18:31Z</time>
      </trkpt>
      <trkpt lat="43.40926" lon="5.57704">
        <ele>328.05</ele>
        <time>2022-10-10T14:18:32Z</time>
      </trkpt>
      <trkpt lat="43.40911" lon="5.57702">
        <ele>326.71</ele>
        <time>2022-10-10T14:18:33Z</time>
      </trkpt>
      <trkpt lat="43.40896" lon="5.57705">
        <ele>326.67</ele>
        <time>2022-10-10T14:18:34Z</time>
      </trkpt>
      <trkpt lat="43.40882" lon="5.57713">
        <ele>326.67</ele>
        <time>2022-10-10T14:18:35Z</time>
      </trkpt>
      <trkpt lat="43.40868" lon="5.57723">
        <ele>326.64</ele>
        <time>2022-10-10T14:18:36Z</time>
      </trkpt>
      <trkpt lat="43.40839" lon="5.57742">
        <ele>324.17</ele>
        <time>2022-10-10T14:18:38Z</time>
      </trkpt>
      <trkpt lat="43.40823" lon="5.57745">
        <ele>323</ele>
        <time>2022-10-10T14:18:39Z</time>
      </trkpt>
      <trkpt lat="43.40807" lon="5.57744">
        <ele>321.92</ele>
        <time>2022-10-10T14:18:40Z</time>
      </trkpt>
      <trkpt lat="43.40791" lon="5.5774">
        <ele>321.85</ele>
        <time>2022-10-10T14:18:41Z</time>
      </trkpt>
      <trkpt lat="43.40776" lon="5.57732">
        <ele>320.46</ele>
        <time>2022-10-10T14:18:42Z</time>
      </trkpt>
      <trkpt lat="43.40761" lon="5.57724">
        <ele>320.61</ele>
        <time>2022-10-10T14:18:43Z</time>
      </trkpt>
      <trkpt lat="43.40719" lon="5.57697">
        <ele>318.93</ele>
        <time>2022-10-10T14:18:46Z</time>
      </trkpt>
      <trkpt lat="43.40668" lon="5.57666">
        <ele>316.27</ele>
        <time>2022-10-10T14:18:50Z</time>
      </trkpt>
      <trkpt lat="43.40644" lon="5.57652">
        <ele>314.76</ele>
        <time>2022-10-10T14:18:52Z</time>
      </trkpt>
      <trkpt lat="43.40614" lon="5.57632">
        <ele>311.51</ele>
        <time>2022-10-10T14:18:55Z</time>
      </trkpt>
      <trkpt lat="43.40606" lon="5.57625">
        <ele>311.48</ele>
        <time>2022-10-10T14:18:56Z</time>
      </trkpt>
      <trkpt lat="43.40602" lon="5.57614">
        <ele>311.57</ele>
        <time>2022-10-10T14:18:57Z</time>
      </trkpt>
      <trkpt lat="43.406" lon="5.57601">
        <ele>311.51</ele>
        <time>2022-10-10T14:18:58Z</time>
      </trkpt>
      <trkpt lat="43.40601" lon="5.57586">
        <ele>310.39</ele>
        <time>2022-10-10T14:18:59Z</time>
      </trkpt>
      <trkpt lat="43.40602" lon="5.57571">
        <ele>310.37</ele>
        <time>2022-10-10T14:19:00Z</time>
      </trkpt>
      <trkpt lat="43.40611" lon="5.57452">
        <ele>309.67</ele>
        <time>2022-10-10T14:19:07Z</time>
      </trkpt>
      <trkpt lat="43.4061" lon="5.57434">
        <ele>309.31</ele>
        <time>2022-10-10T14:19:08Z</time>
      </trkpt>
      <trkpt lat="43.40606" lon="5.57418">
        <ele>309.37</ele>
        <time>2022-10-10T14:19:09Z</time>
      </trkpt>
      <trkpt lat="43.40599" lon="5.57402">
        <ele>309.44</ele>
        <time>2022-10-10T14:19:10Z</time>
      </trkpt>
      <trkpt lat="43.4059" lon="5.57389">
        <ele>309.65</ele>
        <time>2022-10-10T14:19:11Z</time>
      </trkpt>
      <trkpt lat="43.40581" lon="5.57375">
        <ele>309.65</ele>
        <time>2022-10-10T14:19:12Z</time>
      </trkpt>
      <trkpt lat="43.40557" lon="5.57336">
        <ele>308.2</ele>
        <time>2022-10-10T14:19:15Z</time>
      </trkpt>
      <trkpt lat="43.40543" lon="5.57307">
        <ele>306.81</ele>
        <time>2022-10-10T14:19:17Z</time>
      </trkpt>
      <trkpt lat="43.40538" lon="5.5729">
        <ele>306.75</ele>
        <time>2022-10-10T14:19:18Z</time>
      </trkpt>
      <trkpt lat="43.40498" lon="5.57187">
        <ele>303.55</ele>
        <time>2022-10-10T14:19:24Z</time>
      </trkpt>
      <trkpt lat="43.40474" lon="5.57134">
        <ele>300.34</ele>
        <time>2022-10-10T14:19:27Z</time>
      </trkpt>
      <trkpt lat="43.4046" lon="5.57099">
        <ele>299.46</ele>
        <time>2022-10-10T14:19:29Z</time>
      </trkpt>
      <trkpt lat="43.40447" lon="5.57064">
        <ele>297.93</ele>
        <time>2022-10-10T14:19:31Z</time>
      </trkpt>
      <trkpt lat="43.40444" lon="5.57046">
        <ele>296.58</ele>
        <time>2022-10-10T14:19:32Z</time>
      </trkpt>
      <trkpt lat="43.40444" lon="5.57028">
        <ele>295.5</ele>
        <time>2022-10-10T14:19:33Z</time>
      </trkpt>
      <trkpt lat="43.40447" lon="5.5701">
        <ele>295</ele>
        <time>2022-10-10T14:19:34Z</time>
      </trkpt>
      <trkpt lat="43.40451" lon="5.56993">
        <ele>295</ele>
        <time>2022-10-10T14:19:35Z</time>
      </trkpt>
      <trkpt lat="43.40463" lon="5.56935">
        <ele>293.44</ele>
        <time>2022-10-10T14:19:38Z</time>
      </trkpt>
      <trkpt lat="43.40465" lon="5.56915">
        <ele>293.36</ele>
        <time>2022-10-10T14:19:39Z</time>
      </trkpt>
      <trkpt lat="43.40465" lon="5.56895">
        <ele>292.18</ele>
        <time>2022-10-10T14:19:40Z</time>
      </trkpt>
      <trkpt lat="43.40465" lon="5.56875">
        <ele>292.14</ele>
        <time>2022-10-10T14:19:41Z</time>
      </trkpt>
      <trkpt lat="43.40467" lon="5.56835">
        <ele>289.53</ele>
        <time>2022-10-10T14:19:43Z</time>
      </trkpt>
      <trkpt lat="43.4047" lon="5.56816">
        <ele>288.71</ele>
        <time>2022-10-10T14:19:44Z</time>
      </trkpt>
      <trkpt lat="43.40476" lon="5.56778">
        <ele>287.6</ele>
        <time>2022-10-10T14:19:46Z</time>
      </trkpt>
      <trkpt lat="43.40483" lon="5.56741">
        <ele>285.7</ele>
        <time>2022-10-10T14:19:48Z</time>
      </trkpt>
      <trkpt lat="43.40494" lon="5.56708">
        <ele>283.82</ele>
        <time>2022-10-10T14:19:50Z</time>
      </trkpt>
      <trkpt lat="43.40502" lon="5.56694">
        <ele>283.95</ele>
        <time>2022-10-10T14:19:51Z</time>
      </trkpt>
      <trkpt lat="43.4051" lon="5.56682">
        <ele>282.68</ele>
        <time>2022-10-10T14:19:52Z</time>
      </trkpt>
      <trkpt lat="43.40518" lon="5.56673">
        <ele>282.59</ele>
        <time>2022-10-10T14:19:53Z</time>
      </trkpt>
      <trkpt lat="43.40525" lon="5.56664">
        <ele>281.1</ele>
        <time>2022-10-10T14:19:54Z</time>
      </trkpt>
      <trkpt lat="43.4053" lon="5.56655">
        <ele>280.2</ele>
        <time>2022-10-10T14:19:55Z</time>
      </trkpt>
      <trkpt lat="43.40533" lon="5.56646">
        <ele>280.28</ele>
        <time>2022-10-10T14:19:56Z</time>
      </trkpt>
      <trkpt lat="43.40534" lon="5.56637">
        <ele>280.23</ele>
        <time>2022-10-10T14:19:57Z</time>
      </trkpt>
      <trkpt lat="43.40531" lon="5.56629">
        <ele>280.2</ele>
        <time>2022-10-10T14:19:58Z</time>
      </trkpt>
      <trkpt lat="43.40527" lon="5.56623">
        <ele>280.18</ele>
        <time>2022-10-10T14:19:59Z</time>
      </trkpt>
      <trkpt lat="43.40517" lon="5.56622">
        <ele>280.83</ele>
        <time>2022-10-10T14:20:00Z</time>
      </trkpt>
      <trkpt lat="43.40508" lon="5.56624">
        <ele>280.77</ele>
        <time>2022-10-10T14:20:01Z</time>
      </trkpt>
      <trkpt lat="43.40498" lon="5.56629">
        <ele>280.83</ele>
        <time>2022-10-10T14:20:02Z</time>
      </trkpt>
      <trkpt lat="43.40488" lon="5.56634">
        <ele>280.78</ele>
        <time>2022-10-10T14:20:03Z</time>
      </trkpt>
      <trkpt lat="43.40435" lon="5.5666">
        <ele>278.29</ele>
        <time>2022-10-10T14:20:08Z</time>
      </trkpt>
      <trkpt lat="43.40423" lon="5.56662">
        <ele>278.28</ele>
        <time>2022-10-10T14:20:09Z</time>
      </trkpt>
      <trkpt lat="43.40412" lon="5.56659">
        <ele>276.97</ele>
        <time>2022-10-10T14:20:10Z</time>
      </trkpt>
      <trkpt lat="43.40402" lon="5.56651">
        <ele>277.06</ele>
        <time>2022-10-10T14:20:11Z</time>
      </trkpt>
      <trkpt lat="43.40393" lon="5.56639">
        <ele>277.03</ele>
        <time>2022-10-10T14:20:12Z</time>
      </trkpt>
      <trkpt lat="43.40385" lon="5.56627">
        <ele>276.09</ele>
        <time>2022-10-10T14:20:13Z</time>
      </trkpt>
      <trkpt lat="43.40376" lon="5.56615">
        <ele>276.05</ele>
        <time>2022-10-10T14:20:14Z</time>
      </trkpt>
      <trkpt lat="43.40365" lon="5.56607">
        <ele>275.11</ele>
        <time>2022-10-10T14:20:15Z</time>
      </trkpt>
      <trkpt lat="43.40352" lon="5.56601">
        <ele>275.09</ele>
        <time>2022-10-10T14:20:16Z</time>
      </trkpt>
      <trkpt lat="43.40339" lon="5.56598">
        <ele>275.05</ele>
        <time>2022-10-10T14:20:17Z</time>
      </trkpt>
      <trkpt lat="43.40325" lon="5.56598">
        <ele>274.11</ele>
        <time>2022-10-10T14:20:18Z</time>
      </trkpt>
      <trkpt lat="43.40312" lon="5.56598">
        <ele>274.09</ele>
        <time>2022-10-10T14:20:19Z</time>
      </trkpt>
      <trkpt lat="43.40274" lon="5.56598">
        <ele>270.91</ele>
        <time>2022-10-10T14:20:22Z</time>
      </trkpt>
      <trkpt lat="43.40262" lon="5.56597">
        <ele>270.9</ele>
        <time>2022-10-10T14:20:23Z</time>
      </trkpt>
      <trkpt lat="43.4025" lon="5.56593">
        <ele>270.88</ele>
        <time>2022-10-10T14:20:24Z</time>
      </trkpt>
      <trkpt lat="43.40238" lon="5.56587">
        <ele>269.83</ele>
        <time>2022-10-10T14:20:25Z</time>
      </trkpt>
      <trkpt lat="43.40227" lon="5.56579">
        <ele>269.87</ele>
        <time>2022-10-10T14:20:26Z</time>
      </trkpt>
      <trkpt lat="43.40216" lon="5.56568">
        <ele>269.88</ele>
        <time>2022-10-10T14:20:27Z</time>
      </trkpt>
      <trkpt lat="43.40207" lon="5.56555">
        <ele>269.88</ele>
        <time>2022-10-10T14:20:28Z</time>
      </trkpt>
      <trkpt lat="43.40199" lon="5.5654">
        <ele>268.68</ele>
        <time>2022-10-10T14:20:29Z</time>
      </trkpt>
      <trkpt lat="43.40192" lon="5.56525">
        <ele>268.68</ele>
        <time>2022-10-10T14:20:30Z</time>
      </trkpt>
      <trkpt lat="43.40186" lon="5.5651">
        <ele>267.82</ele>
        <time>2022-10-10T14:20:31Z</time>
      </trkpt>
      <trkpt lat="43.40181" lon="5.56495">
        <ele>266.53</ele>
        <time>2022-10-10T14:20:32Z</time>
      </trkpt>
      <trkpt lat="43.40176" lon="5.5648">
        <ele>266.58</ele>
        <time>2022-10-10T14:20:33Z</time>
      </trkpt>
      <trkpt lat="43.40173" lon="5.56465">
        <ele>265.55</ele>
        <time>2022-10-10T14:20:34Z</time>
      </trkpt>
      <trkpt lat="43.40165" lon="5.56437">
        <ele>265.5</ele>
        <time>2022-10-10T14:20:36Z</time>
      </trkpt>
      <trkpt lat="43.40158" lon="5.56427">
        <ele>264.69</ele>
        <time>2022-10-10T14:20:37Z</time>
      </trkpt>
      <trkpt lat="43.4015" lon="5.56421">
        <ele>264.69</ele>
        <time>2022-10-10T14:20:38Z</time>
      </trkpt>
      <trkpt lat="43.4014" lon="5.56419">
        <ele>264.66</ele>
        <time>2022-10-10T14:20:39Z</time>
      </trkpt>
      <trkpt lat="43.40132" lon="5.56421">
        <ele>263.76</ele>
        <time>2022-10-10T14:20:40Z</time>
      </trkpt>
      <trkpt lat="43.40123" lon="5.56423">
        <ele>263.71</ele>
        <time>2022-10-10T14:20:41Z</time>
      </trkpt>
      <trkpt lat="43.40114" lon="5.56423">
        <ele>262.76</ele>
        <time>2022-10-10T14:20:42Z</time>
      </trkpt>
      <trkpt lat="43.40106" lon="5.56418">
        <ele>262.74</ele>
        <time>2022-10-10T14:20:43Z</time>
      </trkpt>
      <trkpt lat="43.401" lon="5.56408">
        <ele>262.72</ele>
        <time>2022-10-10T14:20:44Z</time>
      </trkpt>
      <trkpt lat="43.40097" lon="5.56397">
        <ele>262.7</ele>
        <time>2022-10-10T14:20:45Z</time>
      </trkpt>
      <trkpt lat="43.40094" lon="5.56385">
        <ele>261.93</ele>
        <time>2022-10-10T14:20:46Z</time>
      </trkpt>
      <trkpt lat="43.40092" lon="5.56372">
        <ele>261.9</ele>
        <time>2022-10-10T14:20:47Z</time>
      </trkpt>
      <trkpt lat="43.40086" lon="5.56326">
        <ele>261.92</ele>
        <time>2022-10-10T14:20:50Z</time>
      </trkpt>
      <trkpt lat="43.40086" lon="5.56309">
        <ele>261.92</ele>
        <time>2022-10-10T14:20:51Z</time>
      </trkpt>
      <trkpt lat="43.40087" lon="5.5626">
        <ele>260.39</ele>
        <time>2022-10-10T14:20:54Z</time>
      </trkpt>
      <trkpt lat="43.40085" lon="5.56243">
        <ele>260.39</ele>
        <time>2022-10-10T14:20:55Z</time>
      </trkpt>
      <trkpt lat="43.40081" lon="5.56226">
        <ele>260.37</ele>
        <time>2022-10-10T14:20:56Z</time>
      </trkpt>
      <trkpt lat="43.40077" lon="5.5621">
        <ele>260.37</ele>
        <time>2022-10-10T14:20:57Z</time>
      </trkpt>
      <trkpt lat="43.40072" lon="5.56194">
        <ele>260.38</ele>
        <time>2022-10-10T14:20:58Z</time>
      </trkpt>
      <trkpt lat="43.40045" lon="5.5611">
        <ele>264.16</ele>
        <time>2022-10-10T14:21:03Z</time>
      </trkpt>
      <trkpt lat="43.40039" lon="5.56093">
        <ele>264.16</ele>
        <time>2022-10-10T14:21:04Z</time>
      </trkpt>
      <trkpt lat="43.40029" lon="5.5606">
        <ele>265.5</ele>
        <time>2022-10-10T14:21:06Z</time>
      </trkpt>
      <trkpt lat="43.40026" lon="5.56043">
        <ele>266.62</ele>
        <time>2022-10-10T14:21:07Z</time>
      </trkpt>
      <trkpt lat="43.40024" lon="5.56026">
        <ele>266.65</ele>
        <time>2022-10-10T14:21:08Z</time>
      </trkpt>
      <trkpt lat="43.40023" lon="5.56008">
        <ele>267.51</ele>
        <time>2022-10-10T14:21:09Z</time>
      </trkpt>
      <trkpt lat="43.40024" lon="5.55991">
        <ele>267.46</ele>
        <time>2022-10-10T14:21:10Z</time>
      </trkpt>
      <trkpt lat="43.40026" lon="5.55973">
        <ele>268.75</ele>
        <time>2022-10-10T14:21:11Z</time>
      </trkpt>
      <trkpt lat="43.40028" lon="5.55956">
        <ele>268.76</ele>
        <time>2022-10-10T14:21:12Z</time>
      </trkpt>
      <trkpt lat="43.40032" lon="5.5592">
        <ele>269.93</ele>
        <time>2022-10-10T14:21:14Z</time>
      </trkpt>
      <trkpt lat="43.40031" lon="5.55902">
        <ele>269.98</ele>
        <time>2022-10-10T14:21:15Z</time>
      </trkpt>
      <trkpt lat="43.40029" lon="5.55885">
        <ele>270.9</ele>
        <time>2022-10-10T14:21:16Z</time>
      </trkpt>
      <trkpt lat="43.40019" lon="5.55814">
        <ele>271.43</ele>
        <time>2022-10-10T14:21:22Z</time>
      </trkpt>
      <trkpt lat="43.40018" lon="5.55797">
        <ele>271.49</ele>
        <time>2022-10-10T14:21:24Z</time>
      </trkpt>
      <trkpt lat="43.40015" lon="5.5579">
        <ele>272.61</ele>
        <time>2022-10-10T14:21:25Z</time>
      </trkpt>
      <trkpt lat="43.40009" lon="5.55784">
        <ele>272.6</ele>
        <time>2022-10-10T14:21:26Z</time>
      </trkpt>
      <trkpt lat="43.40001" lon="5.55781">
        <ele>272.6</ele>
        <time>2022-10-10T14:21:27Z</time>
      </trkpt>
      <trkpt lat="43.39993" lon="5.55776">
        <ele>272.62</ele>
        <time>2022-10-10T14:21:28Z</time>
      </trkpt>
      <trkpt lat="43.39985" lon="5.5577">
        <ele>273.7</ele>
        <time>2022-10-10T14:21:29Z</time>
      </trkpt>
      <trkpt lat="43.39977" lon="5.55761">
        <ele>273.7</ele>
        <time>2022-10-10T14:21:30Z</time>
      </trkpt>
      <trkpt lat="43.39969" lon="5.55753">
        <ele>273.72</ele>
        <time>2022-10-10T14:21:31Z</time>
      </trkpt>
      <trkpt lat="43.39945" lon="5.55724">
        <ele>275.21</ele>
        <time>2022-10-10T14:21:34Z</time>
      </trkpt>
      <trkpt lat="43.39918" lon="5.55689">
        <ele>277.97</ele>
        <time>2022-10-10T14:21:37Z</time>
      </trkpt>
      <trkpt lat="43.39885" lon="5.55654">
        <ele>281.68</ele>
        <time>2022-10-10T14:21:40Z</time>
      </trkpt>
      <trkpt lat="43.39873" lon="5.55644">
        <ele>282.95</ele>
        <time>2022-10-10T14:21:41Z</time>
      </trkpt>
      <trkpt lat="43.39833" lon="5.55616">
        <ele>286.88</ele>
        <time>2022-10-10T14:21:44Z</time>
      </trkpt>
      <trkpt lat="43.3982" lon="5.55606">
        <ele>286.88</ele>
        <time>2022-10-10T14:21:45Z</time>
      </trkpt>
      <trkpt lat="43.39754" lon="5.55559">
        <ele>289.37</ele>
        <time>2022-10-10T14:21:50Z</time>
      </trkpt>
      <trkpt lat="43.39741" lon="5.55548">
        <ele>290.26</ele>
        <time>2022-10-10T14:21:51Z</time>
      </trkpt>
      <trkpt lat="43.39731" lon="5.55537">
        <ele>290.17</ele>
        <time>2022-10-10T14:21:52Z</time>
      </trkpt>
      <trkpt lat="43.39722" lon="5.55524">
        <ele>290.24</ele>
        <time>2022-10-10T14:21:53Z</time>
      </trkpt>
      <trkpt lat="43.39716" lon="5.5551">
        <ele>290.22</ele>
        <time>2022-10-10T14:21:54Z</time>
      </trkpt>
      <trkpt lat="43.39711" lon="5.55495">
        <ele>291.64</ele>
        <time>2022-10-10T14:21:55Z</time>
      </trkpt>
      <trkpt lat="43.39709" lon="5.5548">
        <ele>291.6</ele>
        <time>2022-10-10T14:21:56Z</time>
      </trkpt>
      <trkpt lat="43.39706" lon="5.55467">
        <ele>291.58</ele>
        <time>2022-10-10T14:21:57Z</time>
      </trkpt>
      <trkpt lat="43.39701" lon="5.55456">
        <ele>292.73</ele>
        <time>2022-10-10T14:21:58Z</time>
      </trkpt>
      <trkpt lat="43.39696" lon="5.55446">
        <ele>292.75</ele>
        <time>2022-10-10T14:21:59Z</time>
      </trkpt>
      <trkpt lat="43.39687" lon="5.5544">
        <ele>293.94</ele>
        <time>2022-10-10T14:22:00Z</time>
      </trkpt>
      <trkpt lat="43.39678" lon="5.55438">
        <ele>293.95</ele>
        <time>2022-10-10T14:22:01Z</time>
      </trkpt>
      <trkpt lat="43.39668" lon="5.55437">
        <ele>293.9</ele>
        <time>2022-10-10T14:22:02Z</time>
      </trkpt>
      <trkpt lat="43.39658" lon="5.55434">
        <ele>295.09</ele>
        <time>2022-10-10T14:22:03Z</time>
      </trkpt>
      <trkpt lat="43.39648" lon="5.55428">
        <ele>295.13</ele>
        <time>2022-10-10T14:22:04Z</time>
      </trkpt>
      <trkpt lat="43.39639" lon="5.5542">
        <ele>296.87</ele>
        <time>2022-10-10T14:22:05Z</time>
      </trkpt>
      <trkpt lat="43.39631" lon="5.5541">
        <ele>296.77</ele>
        <time>2022-10-10T14:22:06Z</time>
      </trkpt>
      <trkpt lat="43.39595" lon="5.5537">
        <ele>298.34</ele>
        <time>2022-10-10T14:22:10Z</time>
      </trkpt>
      <trkpt lat="43.39585" lon="5.55364">
        <ele>299.16</ele>
        <time>2022-10-10T14:22:11Z</time>
      </trkpt>
      <trkpt lat="43.39575" lon="5.55359">
        <ele>299.25</ele>
        <time>2022-10-10T14:22:12Z</time>
      </trkpt>
      <trkpt lat="43.39565" lon="5.55356">
        <ele>299.24</ele>
        <time>2022-10-10T14:22:13Z</time>
      </trkpt>
      <trkpt lat="43.39555" lon="5.55356">
        <ele>299.24</ele>
        <time>2022-10-10T14:22:14Z</time>
      </trkpt>
      <trkpt lat="43.39546" lon="5.55357">
        <ele>300.64</ele>
        <time>2022-10-10T14:22:15Z</time>
      </trkpt>
      <trkpt lat="43.39537" lon="5.55359">
        <ele>300.58</ele>
        <time>2022-10-10T14:22:16Z</time>
      </trkpt>
      <trkpt lat="43.39528" lon="5.55362">
        <ele>300.62</ele>
        <time>2022-10-10T14:22:17Z</time>
      </trkpt>
      <trkpt lat="43.39519" lon="5.55367">
        <ele>300.62</ele>
        <time>2022-10-10T14:22:18Z</time>
      </trkpt>
      <trkpt lat="43.3951" lon="5.55374">
        <ele>301.98</ele>
        <time>2022-10-10T14:22:19Z</time>
      </trkpt>
      <trkpt lat="43.395" lon="5.55381">
        <ele>301.98</ele>
        <time>2022-10-10T14:22:20Z</time>
      </trkpt>
      <trkpt lat="43.39466" lon="5.55401">
        <ele>302.92</ele>
        <time>2022-10-10T14:22:24Z</time>
      </trkpt>
      <trkpt lat="43.39457" lon="5.55403">
        <ele>302.98</ele>
        <time>2022-10-10T14:22:25Z</time>
      </trkpt>
      <trkpt lat="43.3945" lon="5.55402">
        <ele>303.71</ele>
        <time>2022-10-10T14:22:26Z</time>
      </trkpt>
      <trkpt lat="43.39443" lon="5.554">
        <ele>303.73</ele>
        <time>2022-10-10T14:22:27Z</time>
      </trkpt>
      <trkpt lat="43.39436" lon="5.55397">
        <ele>303.72</ele>
        <time>2022-10-10T14:22:28Z</time>
      </trkpt>
      <trkpt lat="43.39431" lon="5.55393">
        <ele>304.58</ele>
        <time>2022-10-10T14:22:29Z</time>
      </trkpt>
      <trkpt lat="43.39425" lon="5.55388">
        <ele>304.59</ele>
        <time>2022-10-10T14:22:30Z</time>
      </trkpt>
      <trkpt lat="43.39421" lon="5.5538">
        <ele>304.61</ele>
        <time>2022-10-10T14:22:31Z</time>
      </trkpt>
      <trkpt lat="43.39418" lon="5.5537">
        <ele>305.37</ele>
        <time>2022-10-10T14:22:32Z</time>
      </trkpt>
      <trkpt lat="43.39415" lon="5.5536">
        <ele>305.62</ele>
        <time>2022-10-10T14:22:33Z</time>
      </trkpt>
      <trkpt lat="43.3941" lon="5.55336">
        <ele>306.71</ele>
        <time>2022-10-10T14:22:35Z</time>
      </trkpt>
      <trkpt lat="43.39407" lon="5.55322">
        <ele>308.19</ele>
        <time>2022-10-10T14:22:36Z</time>
      </trkpt>
      <trkpt lat="43.39406" lon="5.55306">
        <ele>308.23</ele>
        <time>2022-10-10T14:22:37Z</time>
      </trkpt>
      <trkpt lat="43.39406" lon="5.55289">
        <ele>309.4</ele>
        <time>2022-10-10T14:22:38Z</time>
      </trkpt>
      <trkpt lat="43.39406" lon="5.55255">
        <ele>310.25</ele>
        <time>2022-10-10T14:22:40Z</time>
      </trkpt>
      <trkpt lat="43.39402" lon="5.55192">
        <ele>312.17</ele>
        <time>2022-10-10T14:22:44Z</time>
      </trkpt>
      <trkpt lat="43.39399" lon="5.55177">
        <ele>312.22</ele>
        <time>2022-10-10T14:22:45Z</time>
      </trkpt>
      <trkpt lat="43.39394" lon="5.55163">
        <ele>313.41</ele>
        <time>2022-10-10T14:22:46Z</time>
      </trkpt>
      <trkpt lat="43.3939" lon="5.5515">
        <ele>313.41</ele>
        <time>2022-10-10T14:22:47Z</time>
      </trkpt>
      <trkpt lat="43.39385" lon="5.55138">
        <ele>313.42</ele>
        <time>2022-10-10T14:22:48Z</time>
      </trkpt>
      <trkpt lat="43.39378" lon="5.5513">
        <ele>313.49</ele>
        <time>2022-10-10T14:22:49Z</time>
      </trkpt>
      <trkpt lat="43.3937" lon="5.55125">
        <ele>313.53</ele>
        <time>2022-10-10T14:22:50Z</time>
      </trkpt>
      <trkpt lat="43.3936" lon="5.55125">
        <ele>313.48</ele>
        <time>2022-10-10T14:22:51Z</time>
      </trkpt>
      <trkpt lat="43.3935" lon="5.55126">
        <ele>314.36</ele>
        <time>2022-10-10T14:22:52Z</time>
      </trkpt>
      <trkpt lat="43.3934" lon="5.55129">
        <ele>314.45</ele>
        <time>2022-10-10T14:22:53Z</time>
      </trkpt>
      <trkpt lat="43.39322" lon="5.55134">
        <ele>315.85</ele>
        <time>2022-10-10T14:22:55Z</time>
      </trkpt>
      <trkpt lat="43.39305" lon="5.55136">
        <ele>317.22</ele>
        <time>2022-10-10T14:22:57Z</time>
      </trkpt>
      <trkpt lat="43.39297" lon="5.55135">
        <ele>317.16</ele>
        <time>2022-10-10T14:22:58Z</time>
      </trkpt>
      <trkpt lat="43.39289" lon="5.55132">
        <ele>318.09</ele>
        <time>2022-10-10T14:22:59Z</time>
      </trkpt>
      <trkpt lat="43.39281" lon="5.55128">
        <ele>318.09</ele>
        <time>2022-10-10T14:23:00Z</time>
      </trkpt>
      <trkpt lat="43.39273" lon="5.55123">
        <ele>319.21</ele>
        <time>2022-10-10T14:23:01Z</time>
      </trkpt>
      <trkpt lat="43.39264" lon="5.55117">
        <ele>320.05</ele>
        <time>2022-10-10T14:23:02Z</time>
      </trkpt>
      <trkpt lat="43.39256" lon="5.55112">
        <ele>320.05</ele>
        <time>2022-10-10T14:23:03Z</time>
      </trkpt>
      <trkpt lat="43.39247" lon="5.55109">
        <ele>321.12</ele>
        <time>2022-10-10T14:23:04Z</time>
      </trkpt>
      <trkpt lat="43.39237" lon="5.55107">
        <ele>321.16</ele>
        <time>2022-10-10T14:23:05Z</time>
      </trkpt>
      <trkpt lat="43.39228" lon="5.55109">
        <ele>322.04</ele>
        <time>2022-10-10T14:23:06Z</time>
      </trkpt>
      <trkpt lat="43.39219" lon="5.55112">
        <ele>322.14</ele>
        <time>2022-10-10T14:23:07Z</time>
      </trkpt>
      <trkpt lat="43.39211" lon="5.55116">
        <ele>322.14</ele>
        <time>2022-10-10T14:23:08Z</time>
      </trkpt>
      <trkpt lat="43.39185" lon="5.55128">
        <ele>323.29</ele>
        <time>2022-10-10T14:23:11Z</time>
      </trkpt>
      <trkpt lat="43.39177" lon="5.5513">
        <ele>323.25</ele>
        <time>2022-10-10T14:23:12Z</time>
      </trkpt>
      <trkpt lat="43.39168" lon="5.55128">
        <ele>324.87</ele>
        <time>2022-10-10T14:23:13Z</time>
      </trkpt>
      <trkpt lat="43.39161" lon="5.55124">
        <ele>324.78</ele>
        <time>2022-10-10T14:23:14Z</time>
      </trkpt>
      <trkpt lat="43.39155" lon="5.55117">
        <ele>324.78</ele>
        <time>2022-10-10T14:23:15Z</time>
      </trkpt>
      <trkpt lat="43.39149" lon="5.55108">
        <ele>325.59</ele>
        <time>2022-10-10T14:23:16Z</time>
      </trkpt>
      <trkpt lat="43.39145" lon="5.55098">
        <ele>325.62</ele>
        <time>2022-10-10T14:23:17Z</time>
      </trkpt>
      <trkpt lat="43.3914" lon="5.55089">
        <ele>326.6</ele>
        <time>2022-10-10T14:23:18Z</time>
      </trkpt>
      <trkpt lat="43.39135" lon="5.55079">
        <ele>326.67</ele>
        <time>2022-10-10T14:23:19Z</time>
      </trkpt>
      <trkpt lat="43.39128" lon="5.55072">
        <ele>327.64</ele>
        <time>2022-10-10T14:23:20Z</time>
      </trkpt>
      <trkpt lat="43.39119" lon="5.55068">
        <ele>327.63</ele>
        <time>2022-10-10T14:23:21Z</time>
      </trkpt>
      <trkpt lat="43.39073" lon="5.55061">
        <ele>330.39</ele>
        <time>2022-10-10T14:23:25Z</time>
      </trkpt>
      <trkpt lat="43.39061" lon="5.55063">
        <ele>331.51</ele>
        <time>2022-10-10T14:23:26Z</time>
      </trkpt>
      <trkpt lat="43.39048" lon="5.55067">
        <ele>332.34</ele>
        <time>2022-10-10T14:23:27Z</time>
      </trkpt>
      <trkpt lat="43.39022" lon="5.55078">
        <ele>333.94</ele>
        <time>2022-10-10T14:23:29Z</time>
      </trkpt>
      <trkpt lat="43.39008" lon="5.55085">
        <ele>334.81</ele>
        <time>2022-10-10T14:23:30Z</time>
      </trkpt>
      <trkpt lat="43.38995" lon="5.55094">
        <ele>334.82</ele>
        <time>2022-10-10T14:23:31Z</time>
      </trkpt>
      <trkpt lat="43.38981" lon="5.55104">
        <ele>336.47</ele>
        <time>2022-10-10T14:23:32Z</time>
      </trkpt>
      <trkpt lat="43.38968" lon="5.55116">
        <ele>337.53</ele>
        <time>2022-10-10T14:23:33Z</time>
      </trkpt>
      <trkpt lat="43.38956" lon="5.55129">
        <ele>338.9</ele>
        <time>2022-10-10T14:23:34Z</time>
      </trkpt>
      <trkpt lat="43.38944" lon="5.55144">
        <ele>339.86</ele>
        <time>2022-10-10T14:23:35Z</time>
      </trkpt>
      <trkpt lat="43.38918" lon="5.55172">
        <ele>340.8</ele>
        <time>2022-10-10T14:23:37Z</time>
      </trkpt>
      <trkpt lat="43.38848" lon="5.55233">
        <ele>344.12</ele>
        <time>2022-10-10T14:23:42Z</time>
      </trkpt>
      <trkpt lat="43.38835" lon="5.55248">
        <ele>345.48</ele>
        <time>2022-10-10T14:23:43Z</time>
      </trkpt>
      <trkpt lat="43.38823" lon="5.55265">
        <ele>346.35</ele>
        <time>2022-10-10T14:23:44Z</time>
      </trkpt>
      <trkpt lat="43.38788" lon="5.55321">
        <ele>348.76</ele>
        <time>2022-10-10T14:23:47Z</time>
      </trkpt>
      <trkpt lat="43.38755" lon="5.55378">
        <ele>352.18</ele>
        <time>2022-10-10T14:23:50Z</time>
      </trkpt>
      <trkpt lat="43.38745" lon="5.55398">
        <ele>352.27</ele>
        <time>2022-10-10T14:23:51Z</time>
      </trkpt>
      <trkpt lat="43.38727" lon="5.55438">
        <ele>353.62</ele>
        <time>2022-10-10T14:23:53Z</time>
      </trkpt>
      <trkpt lat="43.38696" lon="5.55526">
        <ele>356.65</ele>
        <time>2022-10-10T14:23:57Z</time>
      </trkpt>
      <trkpt lat="43.38684" lon="5.55571">
        <ele>357.75</ele>
        <time>2022-10-10T14:23:59Z</time>
      </trkpt>
      <trkpt lat="43.38656" lon="5.55659">
        <ele>360.44</ele>
        <time>2022-10-10T14:24:03Z</time>
      </trkpt>
      <trkpt lat="43.38636" lon="5.557">
        <ele>361.47</ele>
        <time>2022-10-10T14:24:05Z</time>
      </trkpt>
      <trkpt lat="43.38625" lon="5.55718">
        <ele>362.27</ele>
        <time>2022-10-10T14:24:06Z</time>
      </trkpt>
      <trkpt lat="43.38589" lon="5.5577">
        <ele>364.71</ele>
        <time>2022-10-10T14:24:09Z</time>
      </trkpt>
      <trkpt lat="43.38568" lon="5.558">
        <ele>365.96</ele>
        <time>2022-10-10T14:24:11Z</time>
      </trkpt>
      <trkpt lat="43.3856" lon="5.55816">
        <ele>366.03</ele>
        <time>2022-10-10T14:24:12Z</time>
      </trkpt>
      <trkpt lat="43.38554" lon="5.55833">
        <ele>366.87</ele>
        <time>2022-10-10T14:24:13Z</time>
      </trkpt>
      <trkpt lat="43.38551" lon="5.55849">
        <ele>366.94</ele>
        <time>2022-10-10T14:24:14Z</time>
      </trkpt>
      <trkpt lat="43.3855" lon="5.55864">
        <ele>366.9</ele>
        <time>2022-10-10T14:24:15Z</time>
      </trkpt>
      <trkpt lat="43.38549" lon="5.55876">
        <ele>366.87</ele>
        <time>2022-10-10T14:24:16Z</time>
      </trkpt>
      <trkpt lat="43.38548" lon="5.55904">
        <ele>366.46</ele>
        <time>2022-10-10T14:24:19Z</time>
      </trkpt>
      <trkpt lat="43.38546" lon="5.55912">
        <ele>366.43</ele>
        <time>2022-10-10T14:24:20Z</time>
      </trkpt>
      <trkpt lat="43.38543" lon="5.55921">
        <ele>366.46</ele>
        <time>2022-10-10T14:24:21Z</time>
      </trkpt>
      <trkpt lat="43.38539" lon="5.55928">
        <ele>366.43</ele>
        <time>2022-10-10T14:24:22Z</time>
      </trkpt>
      <trkpt lat="43.38533" lon="5.55935">
        <ele>367.53</ele>
        <time>2022-10-10T14:24:23Z</time>
      </trkpt>
      <trkpt lat="43.38528" lon="5.55939">
        <ele>367.56</ele>
        <time>2022-10-10T14:24:24Z</time>
      </trkpt>
      <trkpt lat="43.3852" lon="5.55943">
        <ele>368.81</ele>
        <time>2022-10-10T14:24:25Z</time>
      </trkpt>
      <trkpt lat="43.38511" lon="5.55947">
        <ele>369.6</ele>
        <time>2022-10-10T14:24:26Z</time>
      </trkpt>
      <trkpt lat="43.38501" lon="5.55951">
        <ele>370.57</ele>
        <time>2022-10-10T14:24:27Z</time>
      </trkpt>
      <trkpt lat="43.3849" lon="5.55954">
        <ele>370.57</ele>
        <time>2022-10-10T14:24:28Z</time>
      </trkpt>
      <trkpt lat="43.3846" lon="5.55956">
        <ele>371.36</ele>
        <time>2022-10-10T14:24:31Z</time>
      </trkpt>
      <trkpt lat="43.38452" lon="5.55952">
        <ele>371.34</ele>
        <time>2022-10-10T14:24:32Z</time>
      </trkpt>
      <trkpt lat="43.38445" lon="5.55946">
        <ele>372.56</ele>
        <time>2022-10-10T14:24:33Z</time>
      </trkpt>
      <trkpt lat="43.3844" lon="5.55936">
        <ele>372.61</ele>
        <time>2022-10-10T14:24:34Z</time>
      </trkpt>
      <trkpt lat="43.38436" lon="5.55924">
        <ele>373.74</ele>
        <time>2022-10-10T14:24:35Z</time>
      </trkpt>
      <trkpt lat="43.38432" lon="5.5591">
        <ele>373.73</ele>
        <time>2022-10-10T14:24:36Z</time>
      </trkpt>
      <trkpt lat="43.38423" lon="5.55881">
        <ele>375.23</ele>
        <time>2022-10-10T14:24:38Z</time>
      </trkpt>
      <trkpt lat="43.38399" lon="5.55804">
        <ele>378.42</ele>
        <time>2022-10-10T14:24:43Z</time>
      </trkpt>
      <trkpt lat="43.38388" lon="5.5576">
        <ele>379.28</ele>
        <time>2022-10-10T14:24:46Z</time>
      </trkpt>
      <trkpt lat="43.38388" lon="5.55746">
        <ele>379.32</ele>
        <time>2022-10-10T14:24:47Z</time>
      </trkpt>
      <trkpt lat="43.3839" lon="5.55732">
        <ele>380.56</ele>
        <time>2022-10-10T14:24:48Z</time>
      </trkpt>
      <trkpt lat="43.38394" lon="5.55719">
        <ele>380.55</ele>
        <time>2022-10-10T14:24:49Z</time>
      </trkpt>
      <trkpt lat="43.38423" lon="5.55635">
        <ele>382.76</ele>
        <time>2022-10-10T14:24:55Z</time>
      </trkpt>
      <trkpt lat="43.38427" lon="5.55616">
        <ele>382.78</ele>
        <time>2022-10-10T14:24:56Z</time>
      </trkpt>
      <trkpt lat="43.3843" lon="5.55594">
        <ele>384.32</ele>
        <time>2022-10-10T14:24:57Z</time>
      </trkpt>
      <trkpt lat="43.38429" lon="5.55572">
        <ele>385.03</ele>
        <time>2022-10-10T14:24:58Z</time>
      </trkpt>
      <trkpt lat="43.38425" lon="5.5555">
        <ele>385.16</ele>
        <time>2022-10-10T14:24:59Z</time>
      </trkpt>
      <trkpt lat="43.38421" lon="5.5553">
        <ele>385.1</ele>
        <time>2022-10-10T14:25:00Z</time>
      </trkpt>
      <trkpt lat="43.38416" lon="5.55511">
        <ele>385.11</ele>
        <time>2022-10-10T14:25:01Z</time>
      </trkpt>
      <trkpt lat="43.38413" lon="5.55492">
        <ele>385.11</ele>
        <time>2022-10-10T14:25:02Z</time>
      </trkpt>
      <trkpt lat="43.38413" lon="5.55473">
        <ele>385.12</ele>
        <time>2022-10-10T14:25:03Z</time>
      </trkpt>
      <trkpt lat="43.38415" lon="5.55454">
        <ele>385.06</ele>
        <time>2022-10-10T14:25:04Z</time>
      </trkpt>
      <trkpt lat="43.38418" lon="5.55434">
        <ele>385.1</ele>
        <time>2022-10-10T14:25:05Z</time>
      </trkpt>
      <trkpt lat="43.38422" lon="5.55415">
        <ele>385.85</ele>
        <time>2022-10-10T14:25:06Z</time>
      </trkpt>
      <trkpt lat="43.38434" lon="5.55376">
        <ele>385.57</ele>
        <time>2022-10-10T14:25:08Z</time>
      </trkpt>
      <trkpt lat="43.38441" lon="5.55358">
        <ele>385.59</ele>
        <time>2022-10-10T14:25:09Z</time>
      </trkpt>
      <trkpt lat="43.3845" lon="5.55341">
        <ele>385.57</ele>
        <time>2022-10-10T14:25:10Z</time>
      </trkpt>
      <trkpt lat="43.38468" lon="5.55309">
        <ele>382.85</ele>
        <time>2022-10-10T14:25:12Z</time>
      </trkpt>
      <trkpt lat="43.38483" lon="5.55279">
        <ele>381.18</ele>
        <time>2022-10-10T14:25:14Z</time>
      </trkpt>
      <trkpt lat="43.38488" lon="5.55262">
        <ele>381.17</ele>
        <time>2022-10-10T14:25:15Z</time>
      </trkpt>
      <trkpt lat="43.38489" lon="5.55245">
        <ele>381.16</ele>
        <time>2022-10-10T14:25:16Z</time>
      </trkpt>
      <trkpt lat="43.38487" lon="5.55227">
        <ele>380.33</ele>
        <time>2022-10-10T14:25:17Z</time>
      </trkpt>
      <trkpt lat="43.38482" lon="5.55209">
        <ele>380.31</ele>
        <time>2022-10-10T14:25:18Z</time>
      </trkpt>
      <trkpt lat="43.38477" lon="5.55191">
        <ele>380.26</ele>
        <time>2022-10-10T14:25:19Z</time>
      </trkpt>
      <trkpt lat="43.38447" lon="5.55097">
        <ele>376.89</ele>
        <time>2022-10-10T14:25:24Z</time>
      </trkpt>
      <trkpt lat="43.38441" lon="5.55079">
        <ele>376.81</ele>
        <time>2022-10-10T14:25:25Z</time>
      </trkpt>
      <trkpt lat="43.38432" lon="5.55044">
        <ele>373.99</ele>
        <time>2022-10-10T14:25:27Z</time>
      </trkpt>
      <trkpt lat="43.38431" lon="5.55027">
        <ele>372.96</ele>
        <time>2022-10-10T14:25:28Z</time>
      </trkpt>
      <trkpt lat="43.38434" lon="5.5501">
        <ele>372.94</ele>
        <time>2022-10-10T14:25:29Z</time>
      </trkpt>
      <trkpt lat="43.38442" lon="5.54995">
        <ele>371.68</ele>
        <time>2022-10-10T14:25:30Z</time>
      </trkpt>
      <trkpt lat="43.38452" lon="5.54981">
        <ele>370.85</ele>
        <time>2022-10-10T14:25:31Z</time>
      </trkpt>
      <trkpt lat="43.38463" lon="5.5497">
        <ele>370.26</ele>
        <time>2022-10-10T14:25:32Z</time>
      </trkpt>
      <trkpt lat="43.38474" lon="5.5496">
        <ele>369.81</ele>
        <time>2022-10-10T14:25:33Z</time>
      </trkpt>
      <trkpt lat="43.38485" lon="5.54951">
        <ele>369.81</ele>
        <time>2022-10-10T14:25:34Z</time>
      </trkpt>
      <trkpt lat="43.38495" lon="5.54941">
        <ele>369.75</ele>
        <time>2022-10-10T14:25:35Z</time>
      </trkpt>
      <trkpt lat="43.38501" lon="5.54928">
        <ele>368.42</ele>
        <time>2022-10-10T14:25:36Z</time>
      </trkpt>
      <trkpt lat="43.38502" lon="5.54914">
        <ele>368.42</ele>
        <time>2022-10-10T14:25:37Z</time>
      </trkpt>
      <trkpt lat="43.38497" lon="5.54901">
        <ele>367.33</ele>
        <time>2022-10-10T14:25:38Z</time>
      </trkpt>
      <trkpt lat="43.38488" lon="5.5489">
        <ele>367.33</ele>
        <time>2022-10-10T14:25:39Z</time>
      </trkpt>
      <trkpt lat="43.38476" lon="5.54882">
        <ele>367.33</ele>
        <time>2022-10-10T14:25:40Z</time>
      </trkpt>
      <trkpt lat="43.38463" lon="5.54872">
        <ele>366.38</ele>
        <time>2022-10-10T14:25:41Z</time>
      </trkpt>
      <trkpt lat="43.38452" lon="5.54859">
        <ele>366.33</ele>
        <time>2022-10-10T14:25:42Z</time>
      </trkpt>
      <trkpt lat="43.38442" lon="5.54841">
        <ele>366.33</ele>
        <time>2022-10-10T14:25:43Z</time>
      </trkpt>
      <trkpt lat="43.38434" lon="5.54822">
        <ele>366.2</ele>
        <time>2022-10-10T14:25:44Z</time>
      </trkpt>
      <trkpt lat="43.38425" lon="5.54805">
        <ele>364.68</ele>
        <time>2022-10-10T14:25:45Z</time>
      </trkpt>
      <trkpt lat="43.38414" lon="5.54789">
        <ele>363.66</ele>
        <time>2022-10-10T14:25:46Z</time>
      </trkpt>
      <trkpt lat="43.38402" lon="5.54776">
        <ele>363.62</ele>
        <time>2022-10-10T14:25:47Z</time>
      </trkpt>
      <trkpt lat="43.3839" lon="5.54767">
        <ele>362.08</ele>
        <time>2022-10-10T14:25:48Z</time>
      </trkpt>
      <trkpt lat="43.38378" lon="5.54762">
        <ele>361.97</ele>
        <time>2022-10-10T14:25:49Z</time>
      </trkpt>
      <trkpt lat="43.38366" lon="5.54764">
        <ele>362.02</ele>
        <time>2022-10-10T14:25:50Z</time>
      </trkpt>
      <trkpt lat="43.38356" lon="5.54772">
        <ele>359.99</ele>
        <time>2022-10-10T14:25:51Z</time>
      </trkpt>
      <trkpt lat="43.38347" lon="5.54782">
        <ele>358.74</ele>
        <time>2022-10-10T14:25:52Z</time>
      </trkpt>
      <trkpt lat="43.38337" lon="5.54792">
        <ele>358.69</ele>
        <time>2022-10-10T14:25:53Z</time>
      </trkpt>
      <trkpt lat="43.38327" lon="5.54799">
        <ele>357.48</ele>
        <time>2022-10-10T14:25:54Z</time>
      </trkpt>
      <trkpt lat="43.38317" lon="5.54803">
        <ele>357.48</ele>
        <time>2022-10-10T14:25:55Z</time>
      </trkpt>
      <trkpt lat="43.38308" lon="5.54803">
        <ele>357.53</ele>
        <time>2022-10-10T14:25:56Z</time>
      </trkpt>
      <trkpt lat="43.38297" lon="5.54794">
        <ele>357.57</ele>
        <time>2022-10-10T14:25:57Z</time>
      </trkpt>
      <trkpt lat="43.38286" lon="5.54779">
        <ele>356.67</ele>
        <time>2022-10-10T14:25:58Z</time>
      </trkpt>
      <trkpt lat="43.38277" lon="5.54764">
        <ele>356.71</ele>
        <time>2022-10-10T14:25:59Z</time>
      </trkpt>
      <trkpt lat="43.38273" lon="5.54744">
        <ele>355.86</ele>
        <time>2022-10-10T14:26:00Z</time>
      </trkpt>
      <trkpt lat="43.38272" lon="5.54723">
        <ele>355.81</ele>
        <time>2022-10-10T14:26:01Z</time>
      </trkpt>
      <trkpt lat="43.38273" lon="5.54702">
        <ele>355.85</ele>
        <time>2022-10-10T14:26:02Z</time>
      </trkpt>
      <trkpt lat="43.38273" lon="5.54682">
        <ele>355.02</ele>
        <time>2022-10-10T14:26:03Z</time>
      </trkpt>
      <trkpt lat="43.38271" lon="5.54663">
        <ele>353.23</ele>
        <time>2022-10-10T14:26:04Z</time>
      </trkpt>
      <trkpt lat="43.38265" lon="5.54647">
        <ele>353.24</ele>
        <time>2022-10-10T14:26:05Z</time>
      </trkpt>
      <trkpt lat="43.38256" lon="5.54634">
        <ele>352.07</ele>
        <time>2022-10-10T14:26:06Z</time>
      </trkpt>
      <trkpt lat="43.38244" lon="5.54625">
        <ele>352.02</ele>
        <time>2022-10-10T14:26:07Z</time>
      </trkpt>
      <trkpt lat="43.38232" lon="5.54618">
        <ele>351.06</ele>
        <time>2022-10-10T14:26:08Z</time>
      </trkpt>
      <trkpt lat="43.3822" lon="5.54609">
        <ele>351.02</ele>
        <time>2022-10-10T14:26:09Z</time>
      </trkpt>
      <trkpt lat="43.3821" lon="5.54596">
        <ele>349.62</ele>
        <time>2022-10-10T14:26:10Z</time>
      </trkpt>
      <trkpt lat="43.38201" lon="5.5458">
        <ele>349.62</ele>
        <time>2022-10-10T14:26:11Z</time>
      </trkpt>
      <trkpt lat="43.38161" lon="5.54491">
        <ele>347.09</ele>
        <time>2022-10-10T14:26:16Z</time>
      </trkpt>
      <trkpt lat="43.38142" lon="5.54455">
        <ele>345.59</ele>
        <time>2022-10-10T14:26:18Z</time>
      </trkpt>
      <trkpt lat="43.38131" lon="5.54438">
        <ele>345.57</ele>
        <time>2022-10-10T14:26:19Z</time>
      </trkpt>
      <trkpt lat="43.38117" lon="5.54425">
        <ele>344.39</ele>
        <time>2022-10-10T14:26:20Z</time>
      </trkpt>
      <trkpt lat="43.38102" lon="5.54414">
        <ele>344.43</ele>
        <time>2022-10-10T14:26:21Z</time>
      </trkpt>
      <trkpt lat="43.38086" lon="5.54405">
        <ele>344.38</ele>
        <time>2022-10-10T14:26:22Z</time>
      </trkpt>
      <trkpt lat="43.38071" lon="5.54394">
        <ele>344.34</ele>
        <time>2022-10-10T14:26:23Z</time>
      </trkpt>
      <trkpt lat="43.38058" lon="5.54381">
        <ele>343.02</ele>
        <time>2022-10-10T14:26:24Z</time>
      </trkpt>
      <trkpt lat="43.38046" lon="5.54364">
        <ele>342.18</ele>
        <time>2022-10-10T14:26:25Z</time>
      </trkpt>
      <trkpt lat="43.38035" lon="5.54347">
        <ele>341.19</ele>
        <time>2022-10-10T14:26:26Z</time>
      </trkpt>
      <trkpt lat="43.38026" lon="5.54328">
        <ele>340.19</ele>
        <time>2022-10-10T14:26:27Z</time>
      </trkpt>
      <trkpt lat="43.3802" lon="5.54306">
        <ele>340.14</ele>
        <time>2022-10-10T14:26:28Z</time>
      </trkpt>
      <trkpt lat="43.38016" lon="5.54284">
        <ele>340.09</ele>
        <time>2022-10-10T14:26:29Z</time>
      </trkpt>
      <trkpt lat="43.38012" lon="5.54262">
        <ele>339.25</ele>
        <time>2022-10-10T14:26:30Z</time>
      </trkpt>
      <trkpt lat="43.38005" lon="5.54241">
        <ele>339.23</ele>
        <time>2022-10-10T14:26:31Z</time>
      </trkpt>
      <trkpt lat="43.37996" lon="5.54221">
        <ele>338.24</ele>
        <time>2022-10-10T14:26:32Z</time>
      </trkpt>
      <trkpt lat="43.37984" lon="5.54203">
        <ele>338.25</ele>
        <time>2022-10-10T14:26:33Z</time>
      </trkpt>
      <trkpt lat="43.37971" lon="5.54187">
        <ele>336.7</ele>
        <time>2022-10-10T14:26:34Z</time>
      </trkpt>
      <trkpt lat="43.37956" lon="5.54174">
        <ele>335.47</ele>
        <time>2022-10-10T14:26:35Z</time>
      </trkpt>
      <trkpt lat="43.3794" lon="5.54163">
        <ele>335.45</ele>
        <time>2022-10-10T14:26:36Z</time>
      </trkpt>
      <trkpt lat="43.37924" lon="5.54153">
        <ele>335.34</ele>
        <time>2022-10-10T14:26:37Z</time>
      </trkpt>
      <trkpt lat="43.37908" lon="5.54142">
        <ele>335.44</ele>
        <time>2022-10-10T14:26:38Z</time>
      </trkpt>
      <trkpt lat="43.37893" lon="5.54128">
        <ele>334.03</ele>
        <time>2022-10-10T14:26:39Z</time>
      </trkpt>
      <trkpt lat="43.37879" lon="5.54113">
        <ele>334.03</ele>
        <time>2022-10-10T14:26:40Z</time>
      </trkpt>
      <trkpt lat="43.37867" lon="5.54097">
        <ele>332.94</ele>
        <time>2022-10-10T14:26:41Z</time>
      </trkpt>
      <trkpt lat="43.37856" lon="5.5408">
        <ele>331.9</ele>
        <time>2022-10-10T14:26:42Z</time>
      </trkpt>
      <trkpt lat="43.37848" lon="5.54061">
        <ele>330.52</ele>
        <time>2022-10-10T14:26:43Z</time>
      </trkpt>
      <trkpt lat="43.37843" lon="5.54041">
        <ele>330.48</ele>
        <time>2022-10-10T14:26:44Z</time>
      </trkpt>
      <trkpt lat="43.3784" lon="5.54019">
        <ele>329.68</ele>
        <time>2022-10-10T14:26:45Z</time>
      </trkpt>
      <trkpt lat="43.37839" lon="5.53997">
        <ele>329.7</ele>
        <time>2022-10-10T14:26:46Z</time>
      </trkpt>
      <trkpt lat="43.3784" lon="5.53974">
        <ele>329.11</ele>
        <time>2022-10-10T14:26:47Z</time>
      </trkpt>
      <trkpt lat="43.37842" lon="5.53952">
        <ele>328.22</ele>
        <time>2022-10-10T14:26:48Z</time>
      </trkpt>
      <trkpt lat="43.37844" lon="5.5393">
        <ele>328.15</ele>
        <time>2022-10-10T14:26:49Z</time>
      </trkpt>
      <trkpt lat="43.37844" lon="5.53909">
        <ele>326.3</ele>
        <time>2022-10-10T14:26:50Z</time>
      </trkpt>
      <trkpt lat="43.37841" lon="5.5389">
        <ele>326.3</ele>
        <time>2022-10-10T14:26:51Z</time>
      </trkpt>
      <trkpt lat="43.37834" lon="5.53873">
        <ele>325.16</ele>
        <time>2022-10-10T14:26:52Z</time>
      </trkpt>
      <trkpt lat="43.37823" lon="5.53861">
        <ele>325.1</ele>
        <time>2022-10-10T14:26:53Z</time>
      </trkpt>
      <trkpt lat="43.37809" lon="5.53853">
        <ele>325.1</ele>
        <time>2022-10-10T14:26:54Z</time>
      </trkpt>
      <trkpt lat="43.37793" lon="5.53852">
        <ele>325.05</ele>
        <time>2022-10-10T14:26:55Z</time>
      </trkpt>
      <trkpt lat="43.37779" lon="5.53857">
        <ele>325.05</ele>
        <time>2022-10-10T14:26:56Z</time>
      </trkpt>
      <trkpt lat="43.37767" lon="5.53867">
        <ele>323.86</ele>
        <time>2022-10-10T14:26:57Z</time>
      </trkpt>
      <trkpt lat="43.37755" lon="5.53879">
        <ele>323.85</ele>
        <time>2022-10-10T14:26:58Z</time>
      </trkpt>
      <trkpt lat="43.37743" lon="5.53889">
        <ele>322.19</ele>
        <time>2022-10-10T14:26:59Z</time>
      </trkpt>
      <trkpt lat="43.37731" lon="5.53897">
        <ele>322.21</ele>
        <time>2022-10-10T14:27:00Z</time>
      </trkpt>
      <trkpt lat="43.37717" lon="5.53899">
        <ele>320.99</ele>
        <time>2022-10-10T14:27:01Z</time>
      </trkpt>
      <trkpt lat="43.37702" lon="5.53897">
        <ele>321.02</ele>
        <time>2022-10-10T14:27:02Z</time>
      </trkpt>
      <trkpt lat="43.37687" lon="5.5389">
        <ele>321.05</ele>
        <time>2022-10-10T14:27:03Z</time>
      </trkpt>
      <trkpt lat="43.37671" lon="5.53879">
        <ele>321</ele>
        <time>2022-10-10T14:27:04Z</time>
      </trkpt>
      <trkpt lat="43.3754" lon="5.53768">
        <ele>321.25</ele>
        <time>2022-10-10T14:27:12Z</time>
      </trkpt>
      <trkpt lat="43.37523" lon="5.53756">
        <ele>320.14</ele>
        <time>2022-10-10T14:27:13Z</time>
      </trkpt>
      <trkpt lat="43.37506" lon="5.53746">
        <ele>320.13</ele>
        <time>2022-10-10T14:27:14Z</time>
      </trkpt>
      <trkpt lat="43.37489" lon="5.53738">
        <ele>320.1</ele>
        <time>2022-10-10T14:27:15Z</time>
      </trkpt>
      <trkpt lat="43.37471" lon="5.53733">
        <ele>319.2</ele>
        <time>2022-10-10T14:27:16Z</time>
      </trkpt>
      <trkpt lat="43.37454" lon="5.53733">
        <ele>318.32</ele>
        <time>2022-10-10T14:27:17Z</time>
      </trkpt>
      <trkpt lat="43.37436" lon="5.53737">
        <ele>318.32</ele>
        <time>2022-10-10T14:27:18Z</time>
      </trkpt>
      <trkpt lat="43.3742" lon="5.53744">
        <ele>317.03</ele>
        <time>2022-10-10T14:27:19Z</time>
      </trkpt>
      <trkpt lat="43.37403" lon="5.53752">
        <ele>316.1</ele>
        <time>2022-10-10T14:27:20Z</time>
      </trkpt>
      <trkpt lat="43.37369" lon="5.53767">
        <ele>315.02</ele>
        <time>2022-10-10T14:27:22Z</time>
      </trkpt>
      <trkpt lat="43.37325" lon="5.53778">
        <ele>312.96</ele>
        <time>2022-10-10T14:27:25Z</time>
      </trkpt>
      <trkpt lat="43.37312" lon="5.53776">
        <ele>311.52</ele>
        <time>2022-10-10T14:27:26Z</time>
      </trkpt>
      <trkpt lat="43.373" lon="5.53768">
        <ele>311.48</ele>
        <time>2022-10-10T14:27:27Z</time>
      </trkpt>
      <trkpt lat="43.37291" lon="5.53754">
        <ele>310.35</ele>
        <time>2022-10-10T14:27:28Z</time>
      </trkpt>
      <trkpt lat="43.37284" lon="5.53735">
        <ele>310.3</ele>
        <time>2022-10-10T14:27:29Z</time>
      </trkpt>
      <trkpt lat="43.37277" lon="5.53713">
        <ele>310.26</ele>
        <time>2022-10-10T14:27:30Z</time>
      </trkpt>
      <trkpt lat="43.37246" lon="5.53625">
        <ele>307.1</ele>
        <time>2022-10-10T14:27:34Z</time>
      </trkpt>
      <trkpt lat="43.37239" lon="5.53604">
        <ele>306.97</ele>
        <time>2022-10-10T14:27:35Z</time>
      </trkpt>
      <trkpt lat="43.37221" lon="5.53569">
        <ele>304.72</ele>
        <time>2022-10-10T14:27:37Z</time>
      </trkpt>
      <trkpt lat="43.37207" lon="5.53559">
        <ele>304.78</ele>
        <time>2022-10-10T14:27:38Z</time>
      </trkpt>
      <trkpt lat="43.37191" lon="5.53554">
        <ele>303.72</ele>
        <time>2022-10-10T14:27:39Z</time>
      </trkpt>
      <trkpt lat="43.37161" lon="5.53551">
        <ele>302.66</ele>
        <time>2022-10-10T14:27:41Z</time>
      </trkpt>
      <trkpt lat="43.37146" lon="5.53548">
        <ele>301.33</ele>
        <time>2022-10-10T14:27:42Z</time>
      </trkpt>
      <trkpt lat="43.37133" lon="5.53541">
        <ele>299.98</ele>
        <time>2022-10-10T14:27:43Z</time>
      </trkpt>
      <trkpt lat="43.37122" lon="5.53528">
        <ele>299.14</ele>
        <time>2022-10-10T14:27:44Z</time>
      </trkpt>
      <trkpt lat="43.37114" lon="5.5351">
        <ele>299.21</ele>
        <time>2022-10-10T14:27:45Z</time>
      </trkpt>
      <trkpt lat="43.37109" lon="5.53489">
        <ele>299.15</ele>
        <time>2022-10-10T14:27:46Z</time>
      </trkpt>
      <trkpt lat="43.37106" lon="5.53465">
        <ele>299.08</ele>
        <time>2022-10-10T14:27:47Z</time>
      </trkpt>
      <trkpt lat="43.37104" lon="5.5344">
        <ele>299.08</ele>
        <time>2022-10-10T14:27:48Z</time>
      </trkpt>
      <trkpt lat="43.37104" lon="5.53415">
        <ele>298.96</ele>
        <time>2022-10-10T14:27:49Z</time>
      </trkpt>
      <trkpt lat="43.37105" lon="5.53391">
        <ele>297.01</ele>
        <time>2022-10-10T14:27:50Z</time>
      </trkpt>
      <trkpt lat="43.37105" lon="5.53367">
        <ele>297.04</ele>
        <time>2022-10-10T14:27:51Z</time>
      </trkpt>
      <trkpt lat="43.37103" lon="5.53344">
        <ele>296.05</ele>
        <time>2022-10-10T14:27:52Z</time>
      </trkpt>
      <trkpt lat="43.37098" lon="5.53321">
        <ele>296.12</ele>
        <time>2022-10-10T14:27:53Z</time>
      </trkpt>
      <trkpt lat="43.3709" lon="5.533">
        <ele>294.58</ele>
        <time>2022-10-10T14:27:54Z</time>
      </trkpt>
      <trkpt lat="43.37081" lon="5.53281">
        <ele>294.6</ele>
        <time>2022-10-10T14:27:55Z</time>
      </trkpt>
      <trkpt lat="43.3707" lon="5.53264">
        <ele>293.36</ele>
        <time>2022-10-10T14:27:56Z</time>
      </trkpt>
      <trkpt lat="43.37057" lon="5.53251">
        <ele>293.41</ele>
        <time>2022-10-10T14:27:57Z</time>
      </trkpt>
      <trkpt lat="43.37044" lon="5.5324">
        <ele>293.33</ele>
        <time>2022-10-10T14:27:58Z</time>
      </trkpt>
      <trkpt lat="43.3703" lon="5.53232">
        <ele>291.64</ele>
        <time>2022-10-10T14:27:59Z</time>
      </trkpt>
      <trkpt lat="43.37018" lon="5.53222">
        <ele>291.65</ele>
        <time>2022-10-10T14:28:00Z</time>
      </trkpt>
      <trkpt lat="43.37007" lon="5.53209">
        <ele>290.41</ele>
        <time>2022-10-10T14:28:01Z</time>
      </trkpt>
      <trkpt lat="43.36999" lon="5.53192">
        <ele>290.84</ele>
        <time>2022-10-10T14:28:02Z</time>
      </trkpt>
      <trkpt lat="43.36995" lon="5.5317">
        <ele>290.81</ele>
        <time>2022-10-10T14:28:03Z</time>
      </trkpt>
      <trkpt lat="43.36994" lon="5.53146">
        <ele>290.84</ele>
        <time>2022-10-10T14:28:04Z</time>
      </trkpt>
      <trkpt lat="43.36994" lon="5.5312">
        <ele>290.8</ele>
        <time>2022-10-10T14:28:05Z</time>
      </trkpt>
      <trkpt lat="43.36998" lon="5.52966">
        <ele>288.43</ele>
        <time>2022-10-10T14:28:11Z</time>
      </trkpt>
      <trkpt lat="43.36995" lon="5.52944">
        <ele>287.15</ele>
        <time>2022-10-10T14:28:12Z</time>
      </trkpt>
      <trkpt lat="43.36989" lon="5.52923">
        <ele>287.15</ele>
        <time>2022-10-10T14:28:13Z</time>
      </trkpt>
      <trkpt lat="43.36979" lon="5.52904">
        <ele>287.16</ele>
        <time>2022-10-10T14:28:14Z</time>
      </trkpt>
      <trkpt lat="43.36967" lon="5.52885">
        <ele>287.16</ele>
        <time>2022-10-10T14:28:15Z</time>
      </trkpt>
      <trkpt lat="43.36954" lon="5.52867">
        <ele>287.13</ele>
        <time>2022-10-10T14:28:16Z</time>
      </trkpt>
      <trkpt lat="43.3694" lon="5.52851">
        <ele>286.32</ele>
        <time>2022-10-10T14:28:17Z</time>
      </trkpt>
      <trkpt lat="43.36886" lon="5.52793">
        <ele>285.13</ele>
        <time>2022-10-10T14:28:21Z</time>
      </trkpt>
      <trkpt lat="43.36876" lon="5.52777">
        <ele>283.97</ele>
        <time>2022-10-10T14:28:22Z</time>
      </trkpt>
      <trkpt lat="43.36859" lon="5.52745">
        <ele>282.35</ele>
        <time>2022-10-10T14:28:24Z</time>
      </trkpt>
      <trkpt lat="43.36853" lon="5.52728">
        <ele>281.79</ele>
        <time>2022-10-10T14:28:25Z</time>
      </trkpt>
      <trkpt lat="43.36851" lon="5.5271">
        <ele>281.42</ele>
        <time>2022-10-10T14:28:26Z</time>
      </trkpt>
      <trkpt lat="43.36854" lon="5.52691">
        <ele>280.77</ele>
        <time>2022-10-10T14:28:27Z</time>
      </trkpt>
      <trkpt lat="43.36859" lon="5.52672">
        <ele>280.76</ele>
        <time>2022-10-10T14:28:28Z</time>
      </trkpt>
      <trkpt lat="43.36865" lon="5.52654">
        <ele>279.91</ele>
        <time>2022-10-10T14:28:29Z</time>
      </trkpt>
      <trkpt lat="43.36872" lon="5.52638">
        <ele>279.87</ele>
        <time>2022-10-10T14:28:30Z</time>
      </trkpt>
      <trkpt lat="43.3688" lon="5.52623">
        <ele>279.82</ele>
        <time>2022-10-10T14:28:31Z</time>
      </trkpt>
      <trkpt lat="43.36887" lon="5.52609">
        <ele>278.62</ele>
        <time>2022-10-10T14:28:32Z</time>
      </trkpt>
      <trkpt lat="43.36888" lon="5.52595">
        <ele>277.64</ele>
        <time>2022-10-10T14:28:33Z</time>
      </trkpt>
      <trkpt lat="43.36884" lon="5.52581">
        <ele>276.77</ele>
        <time>2022-10-10T14:28:34Z</time>
      </trkpt>
      <trkpt lat="43.36876" lon="5.52571">
        <ele>276.72</ele>
        <time>2022-10-10T14:28:35Z</time>
      </trkpt>
      <trkpt lat="43.36864" lon="5.52563">
        <ele>276.77</ele>
        <time>2022-10-10T14:28:36Z</time>
      </trkpt>
      <trkpt lat="43.3685" lon="5.52557">
        <ele>276.71</ele>
        <time>2022-10-10T14:28:37Z</time>
      </trkpt>
      <trkpt lat="43.36822" lon="5.52544">
        <ele>275.5</ele>
        <time>2022-10-10T14:28:39Z</time>
      </trkpt>
      <trkpt lat="43.36808" lon="5.5254">
        <ele>274.66</ele>
        <time>2022-10-10T14:28:40Z</time>
      </trkpt>
      <trkpt lat="43.3678" lon="5.52535">
        <ele>272.72</ele>
        <time>2022-10-10T14:28:42Z</time>
      </trkpt>
      <trkpt lat="43.36769" lon="5.52528">
        <ele>272.65</ele>
        <time>2022-10-10T14:28:43Z</time>
      </trkpt>
      <trkpt lat="43.36759" lon="5.52515">
        <ele>271.35</ele>
        <time>2022-10-10T14:28:44Z</time>
      </trkpt>
      <trkpt lat="43.36753" lon="5.52501">
        <ele>270.48</ele>
        <time>2022-10-10T14:28:45Z</time>
      </trkpt>
      <trkpt lat="43.36752" lon="5.52485">
        <ele>269.57</ele>
        <time>2022-10-10T14:28:46Z</time>
      </trkpt>
      <trkpt lat="43.36756" lon="5.52471">
        <ele>268.75</ele>
        <time>2022-10-10T14:28:47Z</time>
      </trkpt>
      <trkpt lat="43.36765" lon="5.52458">
        <ele>268.72</ele>
        <time>2022-10-10T14:28:48Z</time>
      </trkpt>
      <trkpt lat="43.36776" lon="5.52446">
        <ele>268.66</ele>
        <time>2022-10-10T14:28:49Z</time>
      </trkpt>
      <trkpt lat="43.36788" lon="5.52433">
        <ele>268.71</ele>
        <time>2022-10-10T14:28:50Z</time>
      </trkpt>
      <trkpt lat="43.368" lon="5.52418">
        <ele>268.89</ele>
        <time>2022-10-10T14:28:51Z</time>
      </trkpt>
      <trkpt lat="43.3681" lon="5.524">
        <ele>268.25</ele>
        <time>2022-10-10T14:28:52Z</time>
      </trkpt>
      <trkpt lat="43.36818" lon="5.52381">
        <ele>266.68</ele>
        <time>2022-10-10T14:28:53Z</time>
      </trkpt>
      <trkpt lat="43.36824" lon="5.52362">
        <ele>266.62</ele>
        <time>2022-10-10T14:28:54Z</time>
      </trkpt>
      <trkpt lat="43.36827" lon="5.52344">
        <ele>264.75</ele>
        <time>2022-10-10T14:28:55Z</time>
      </trkpt>
      <trkpt lat="43.36825" lon="5.52325">
        <ele>264.68</ele>
        <time>2022-10-10T14:28:56Z</time>
      </trkpt>
      <trkpt lat="43.3682" lon="5.52308">
        <ele>263.63</ele>
        <time>2022-10-10T14:28:57Z</time>
      </trkpt>
      <trkpt lat="43.36814" lon="5.5229">
        <ele>262.87</ele>
        <time>2022-10-10T14:28:58Z</time>
      </trkpt>
      <trkpt lat="43.36812" lon="5.52269">
        <ele>262.81</ele>
        <time>2022-10-10T14:28:59Z</time>
      </trkpt>
      <trkpt lat="43.36813" lon="5.52247">
        <ele>262.76</ele>
        <time>2022-10-10T14:29:00Z</time>
      </trkpt>
      <trkpt lat="43.36817" lon="5.52224">
        <ele>261.66</ele>
        <time>2022-10-10T14:29:01Z</time>
      </trkpt>
      <trkpt lat="43.3683" lon="5.52162">
        <ele>260.11</ele>
        <time>2022-10-10T14:29:04Z</time>
      </trkpt>
      <trkpt lat="43.36837" lon="5.52145">
        <ele>258.31</ele>
        <time>2022-10-10T14:29:05Z</time>
      </trkpt>
      <trkpt lat="43.36846" lon="5.52131">
        <ele>258.26</ele>
        <time>2022-10-10T14:29:06Z</time>
      </trkpt>
      <trkpt lat="43.36864" lon="5.52104">
        <ele>256.97</ele>
        <time>2022-10-10T14:29:08Z</time>
      </trkpt>
      <trkpt lat="43.36868" lon="5.52088">
        <ele>255.7</ele>
        <time>2022-10-10T14:29:09Z</time>
      </trkpt>
      <trkpt lat="43.36866" lon="5.52071">
        <ele>255.65</ele>
        <time>2022-10-10T14:29:10Z</time>
      </trkpt>
      <trkpt lat="43.36859" lon="5.52055">
        <ele>254.7</ele>
        <time>2022-10-10T14:29:11Z</time>
      </trkpt>
      <trkpt lat="43.36848" lon="5.52045">
        <ele>254.76</ele>
        <time>2022-10-10T14:29:12Z</time>
      </trkpt>
      <trkpt lat="43.36836" lon="5.52034">
        <ele>253.71</ele>
        <time>2022-10-10T14:29:13Z</time>
      </trkpt>
      <trkpt lat="43.36825" lon="5.52021">
        <ele>252.95</ele>
        <time>2022-10-10T14:29:14Z</time>
      </trkpt>
      <trkpt lat="43.36819" lon="5.52004">
        <ele>252.89</ele>
        <time>2022-10-10T14:29:15Z</time>
      </trkpt>
      <trkpt lat="43.36816" lon="5.51985">
        <ele>251.61</ele>
        <time>2022-10-10T14:29:16Z</time>
      </trkpt>
      <trkpt lat="43.36818" lon="5.51964">
        <ele>251.63</ele>
        <time>2022-10-10T14:29:17Z</time>
      </trkpt>
      <trkpt lat="43.36823" lon="5.51945">
        <ele>251.55</ele>
        <time>2022-10-10T14:29:18Z</time>
      </trkpt>
      <trkpt lat="43.36828" lon="5.51927">
        <ele>250.73</ele>
        <time>2022-10-10T14:29:19Z</time>
      </trkpt>
      <trkpt lat="43.36834" lon="5.51911">
        <ele>249.24</ele>
        <time>2022-10-10T14:29:20Z</time>
      </trkpt>
      <trkpt lat="43.36842" lon="5.51878">
        <ele>247.57</ele>
        <time>2022-10-10T14:29:22Z</time>
      </trkpt>
      <trkpt lat="43.3684" lon="5.51863">
        <ele>247.07</ele>
        <time>2022-10-10T14:29:23Z</time>
      </trkpt>
      <trkpt lat="43.36833" lon="5.51852">
        <ele>247.07</ele>
        <time>2022-10-10T14:29:24Z</time>
      </trkpt>
      <trkpt lat="43.36822" lon="5.51848">
        <ele>246.94</ele>
        <time>2022-10-10T14:29:25Z</time>
      </trkpt>
      <trkpt lat="43.36813" lon="5.5185">
        <ele>245.67</ele>
        <time>2022-10-10T14:29:26Z</time>
      </trkpt>
      <trkpt lat="43.36805" lon="5.51859">
        <ele>245.73</ele>
        <time>2022-10-10T14:29:27Z</time>
      </trkpt>
      <trkpt lat="43.36799" lon="5.5187">
        <ele>244.31</ele>
        <time>2022-10-10T14:29:28Z</time>
      </trkpt>
      <trkpt lat="43.36794" lon="5.51881">
        <ele>244.32</ele>
        <time>2022-10-10T14:29:29Z</time>
      </trkpt>
      <trkpt lat="43.36787" lon="5.5189">
        <ele>243.12</ele>
        <time>2022-10-10T14:29:30Z</time>
      </trkpt>
      <trkpt lat="43.36779" lon="5.51896">
        <ele>243.18</ele>
        <time>2022-10-10T14:29:31Z</time>
      </trkpt>
      <trkpt lat="43.36769" lon="5.51897">
        <ele>243.12</ele>
        <time>2022-10-10T14:29:32Z</time>
      </trkpt>
      <trkpt lat="43.36759" lon="5.51894">
        <ele>243.13</ele>
        <time>2022-10-10T14:29:33Z</time>
      </trkpt>
      <trkpt lat="43.36749" lon="5.51887">
        <ele>242.28</ele>
        <time>2022-10-10T14:29:34Z</time>
      </trkpt>
      <trkpt lat="43.36741" lon="5.51878">
        <ele>242.22</ele>
        <time>2022-10-10T14:29:35Z</time>
      </trkpt>
      <trkpt lat="43.36737" lon="5.51868">
        <ele>241.29</ele>
        <time>2022-10-10T14:29:36Z</time>
      </trkpt>
      <trkpt lat="43.36738" lon="5.51857">
        <ele>240.23</ele>
        <time>2022-10-10T14:29:37Z</time>
      </trkpt>
      <trkpt lat="43.36742" lon="5.51846">
        <ele>240.3</ele>
        <time>2022-10-10T14:29:38Z</time>
      </trkpt>
      <trkpt lat="43.36749" lon="5.51837">
        <ele>240.23</ele>
        <time>2022-10-10T14:29:39Z</time>
      </trkpt>
      <trkpt lat="43.36758" lon="5.51831">
        <ele>240.22</ele>
        <time>2022-10-10T14:29:40Z</time>
      </trkpt>
      <trkpt lat="43.36768" lon="5.51825">
        <ele>240.23</ele>
        <time>2022-10-10T14:29:41Z</time>
      </trkpt>
      <trkpt lat="43.36779" lon="5.51818">
        <ele>240.22</ele>
        <time>2022-10-10T14:29:42Z</time>
      </trkpt>
      <trkpt lat="43.36789" lon="5.51809">
        <ele>240.22</ele>
        <time>2022-10-10T14:29:43Z</time>
      </trkpt>
      <trkpt lat="43.36795" lon="5.51793">
        <ele>240.24</ele>
        <time>2022-10-10T14:29:44Z</time>
      </trkpt>
      <trkpt lat="43.36801" lon="5.51776">
        <ele>240.29</ele>
        <time>2022-10-10T14:29:45Z</time>
      </trkpt>
      <trkpt lat="43.36808" lon="5.51759">
        <ele>239.59</ele>
        <time>2022-10-10T14:29:46Z</time>
      </trkpt>
      <trkpt lat="43.36816" lon="5.51744">
        <ele>239.59</ele>
        <time>2022-10-10T14:29:47Z</time>
      </trkpt>
      <trkpt lat="43.36825" lon="5.51731">
        <ele>239.56</ele>
        <time>2022-10-10T14:29:48Z</time>
      </trkpt>
      <trkpt lat="43.36834" lon="5.51719">
        <ele>239.55</ele>
        <time>2022-10-10T14:29:49Z</time>
      </trkpt>
      <trkpt lat="43.36845" lon="5.51711">
        <ele>238.45</ele>
        <time>2022-10-10T14:29:50Z</time>
      </trkpt>
      <trkpt lat="43.36856" lon="5.51704">
        <ele>238.44</ele>
        <time>2022-10-10T14:29:51Z</time>
      </trkpt>
      <trkpt lat="43.36866" lon="5.51697">
        <ele>237.63</ele>
        <time>2022-10-10T14:29:52Z</time>
      </trkpt>
      <trkpt lat="43.36875" lon="5.51687">
        <ele>237.63</ele>
        <time>2022-10-10T14:29:53Z</time>
      </trkpt>
      <trkpt lat="43.36882" lon="5.51673">
        <ele>237.63</ele>
        <time>2022-10-10T14:29:54Z</time>
      </trkpt>
      <trkpt lat="43.36884" lon="5.51657">
        <ele>237.6</ele>
        <time>2022-10-10T14:29:55Z</time>
      </trkpt>
      <trkpt lat="43.36882" lon="5.51642">
        <ele>237.61</ele>
        <time>2022-10-10T14:29:56Z</time>
      </trkpt>
      <trkpt lat="43.36876" lon="5.51626">
        <ele>237.58</ele>
        <time>2022-10-10T14:29:57Z</time>
      </trkpt>
      <trkpt lat="43.3687" lon="5.5161">
        <ele>236.48</ele>
        <time>2022-10-10T14:29:58Z</time>
      </trkpt>
      <trkpt lat="43.36865" lon="5.51592">
        <ele>235.64</ele>
        <time>2022-10-10T14:29:59Z</time>
      </trkpt>
      <trkpt lat="43.36862" lon="5.51574">
        <ele>235.62</ele>
        <time>2022-10-10T14:30:00Z</time>
      </trkpt>
      <trkpt lat="43.36859" lon="5.51557">
        <ele>234.75</ele>
        <time>2022-10-10T14:30:01Z</time>
      </trkpt>
      <trkpt lat="43.36856" lon="5.51523">
        <ele>233.87</ele>
        <time>2022-10-10T14:30:03Z</time>
      </trkpt>
      <trkpt lat="43.36858" lon="5.51507">
        <ele>233.78</ele>
        <time>2022-10-10T14:30:04Z</time>
      </trkpt>
      <trkpt lat="43.36861" lon="5.51478">
        <ele>232.97</ele>
        <time>2022-10-10T14:30:06Z</time>
      </trkpt>
      <trkpt lat="43.36857" lon="5.51463">
        <ele>232.96</ele>
        <time>2022-10-10T14:30:07Z</time>
      </trkpt>
      <trkpt lat="43.36851" lon="5.51449">
        <ele>232.9</ele>
        <time>2022-10-10T14:30:08Z</time>
      </trkpt>
      <trkpt lat="43.36807" lon="5.51361">
        <ele>232.21</ele>
        <time>2022-10-10T14:30:14Z</time>
      </trkpt>
      <trkpt lat="43.36798" lon="5.51351">
        <ele>232.21</ele>
        <time>2022-10-10T14:30:15Z</time>
      </trkpt>
      <trkpt lat="43.36788" lon="5.51346">
        <ele>231.03</ele>
        <time>2022-10-10T14:30:16Z</time>
      </trkpt>
      <trkpt lat="43.36779" lon="5.51349">
        <ele>231.03</ele>
        <time>2022-10-10T14:30:17Z</time>
      </trkpt>
      <trkpt lat="43.36772" lon="5.51358">
        <ele>230.19</ele>
        <time>2022-10-10T14:30:18Z</time>
      </trkpt>
      <trkpt lat="43.36768" lon="5.51369">
        <ele>230.19</ele>
        <time>2022-10-10T14:30:19Z</time>
      </trkpt>
      <trkpt lat="43.36767" lon="5.51381">
        <ele>230.16</ele>
        <time>2022-10-10T14:30:20Z</time>
      </trkpt>
      <trkpt lat="43.36767" lon="5.51393">
        <ele>230.19</ele>
        <time>2022-10-10T14:30:21Z</time>
      </trkpt>
      <trkpt lat="43.36766" lon="5.51404">
        <ele>229.13</ele>
        <time>2022-10-10T14:30:22Z</time>
      </trkpt>
      <trkpt lat="43.36762" lon="5.51412">
        <ele>229.14</ele>
        <time>2022-10-10T14:30:23Z</time>
      </trkpt>
      <trkpt lat="43.36756" lon="5.51419">
        <ele>229.13</ele>
        <time>2022-10-10T14:30:24Z</time>
      </trkpt>
      <trkpt lat="43.3675" lon="5.51422">
        <ele>228.16</ele>
        <time>2022-10-10T14:30:25Z</time>
      </trkpt>
      <trkpt lat="43.36743" lon="5.51417">
        <ele>228.16</ele>
        <time>2022-10-10T14:30:26Z</time>
      </trkpt>
      <trkpt lat="43.36738" lon="5.51406">
        <ele>228.15</ele>
        <time>2022-10-10T14:30:27Z</time>
      </trkpt>
      <trkpt lat="43.36734" lon="5.51392">
        <ele>228.15</ele>
        <time>2022-10-10T14:30:28Z</time>
      </trkpt>
      <trkpt lat="43.3673" lon="5.51377">
        <ele>228.11</ele>
        <time>2022-10-10T14:30:29Z</time>
      </trkpt>
      <trkpt lat="43.36728" lon="5.51361">
        <ele>226.97</ele>
        <time>2022-10-10T14:30:30Z</time>
      </trkpt>
      <trkpt lat="43.3673" lon="5.51348">
        <ele>226.98</ele>
        <time>2022-10-10T14:30:31Z</time>
      </trkpt>
      <trkpt lat="43.36734" lon="5.51334">
        <ele>226.96</ele>
        <time>2022-10-10T14:30:32Z</time>
      </trkpt>
      <trkpt lat="43.3674" lon="5.5132">
        <ele>226.93</ele>
        <time>2022-10-10T14:30:33Z</time>
      </trkpt>
      <trkpt lat="43.36759" lon="5.51272">
        <ele>226.93</ele>
        <time>2022-10-10T14:30:36Z</time>
      </trkpt>
      <trkpt lat="43.36768" lon="5.51257">
        <ele>227.12</ele>
        <time>2022-10-10T14:30:37Z</time>
      </trkpt>
      <trkpt lat="43.3678" lon="5.51244">
        <ele>227.12</ele>
        <time>2022-10-10T14:30:38Z</time>
      </trkpt>
      <trkpt lat="43.36793" lon="5.51234">
        <ele>227.09</ele>
        <time>2022-10-10T14:30:39Z</time>
      </trkpt>
      <trkpt lat="43.36808" lon="5.51227">
        <ele>226.26</ele>
        <time>2022-10-10T14:30:40Z</time>
      </trkpt>
      <trkpt lat="43.36823" lon="5.51223">
        <ele>226.23</ele>
        <time>2022-10-10T14:30:41Z</time>
      </trkpt>
      <trkpt lat="43.36839" lon="5.5122">
        <ele>224.97</ele>
        <time>2022-10-10T14:30:42Z</time>
      </trkpt>
      <trkpt lat="43.36854" lon="5.51216">
        <ele>224.96</ele>
        <time>2022-10-10T14:30:43Z</time>
      </trkpt>
      <trkpt lat="43.36869" lon="5.51209">
        <ele>224.95</ele>
        <time>2022-10-10T14:30:44Z</time>
      </trkpt>
      <trkpt lat="43.36883" lon="5.51198">
        <ele>223.87</ele>
        <time>2022-10-10T14:30:45Z</time>
      </trkpt>
      <trkpt lat="43.36895" lon="5.51185">
        <ele>223.82</ele>
        <time>2022-10-10T14:30:46Z</time>
      </trkpt>
      <trkpt lat="43.36905" lon="5.51171">
        <ele>222.99</ele>
        <time>2022-10-10T14:30:47Z</time>
      </trkpt>
      <trkpt lat="43.36915" lon="5.51157">
        <ele>222.95</ele>
        <time>2022-10-10T14:30:48Z</time>
      </trkpt>
      <trkpt lat="43.36934" lon="5.51133">
        <ele>220.51</ele>
        <time>2022-10-10T14:30:50Z</time>
      </trkpt>
      <trkpt lat="43.36945" lon="5.51124">
        <ele>220.38</ele>
        <time>2022-10-10T14:30:51Z</time>
      </trkpt>
      <trkpt lat="43.36956" lon="5.51119">
        <ele>219.4</ele>
        <time>2022-10-10T14:30:52Z</time>
      </trkpt>
      <trkpt lat="43.36966" lon="5.51117">
        <ele>219.41</ele>
        <time>2022-10-10T14:30:53Z</time>
      </trkpt>
      <trkpt lat="43.36977" lon="5.51121">
        <ele>218.4</ele>
        <time>2022-10-10T14:30:54Z</time>
      </trkpt>
      <trkpt lat="43.36986" lon="5.51129">
        <ele>218.38</ele>
        <time>2022-10-10T14:30:55Z</time>
      </trkpt>
      <trkpt lat="43.36995" lon="5.51136">
        <ele>218.39</ele>
        <time>2022-10-10T14:30:56Z</time>
      </trkpt>
      <trkpt lat="43.37006" lon="5.51141">
        <ele>218.38</ele>
        <time>2022-10-10T14:30:57Z</time>
      </trkpt>
      <trkpt lat="43.37017" lon="5.5114">
        <ele>218.36</ele>
        <time>2022-10-10T14:30:58Z</time>
      </trkpt>
      <trkpt lat="43.37025" lon="5.51134">
        <ele>218.31</ele>
        <time>2022-10-10T14:30:59Z</time>
      </trkpt>
      <trkpt lat="43.37033" lon="5.51125">
        <ele>216.88</ele>
        <time>2022-10-10T14:31:00Z</time>
      </trkpt>
      <trkpt lat="43.3704" lon="5.51115">
        <ele>217.23</ele>
        <time>2022-10-10T14:31:01Z</time>
      </trkpt>
      <trkpt lat="43.37074" lon="5.51061">
        <ele>215.52</ele>
        <time>2022-10-10T14:31:06Z</time>
      </trkpt>
      <trkpt lat="43.37078" lon="5.51047">
        <ele>215.46</ele>
        <time>2022-10-10T14:31:07Z</time>
      </trkpt>
      <trkpt lat="43.37078" lon="5.51032">
        <ele>215.49</ele>
        <time>2022-10-10T14:31:08Z</time>
      </trkpt>
      <trkpt lat="43.37077" lon="5.51016">
        <ele>215.47</ele>
        <time>2022-10-10T14:31:09Z</time>
      </trkpt>
      <trkpt lat="43.37076" lon="5.51001">
        <ele>215.46</ele>
        <time>2022-10-10T14:31:10Z</time>
      </trkpt>
      <trkpt lat="43.37076" lon="5.50986">
        <ele>214.5</ele>
        <time>2022-10-10T14:31:11Z</time>
      </trkpt>
      <trkpt lat="43.37079" lon="5.50971">
        <ele>214.52</ele>
        <time>2022-10-10T14:31:12Z</time>
      </trkpt>
      <trkpt lat="43.37084" lon="5.50958">
        <ele>214.5</ele>
        <time>2022-10-10T14:31:13Z</time>
      </trkpt>
      <trkpt lat="43.37089" lon="5.50944">
        <ele>214.48</ele>
        <time>2022-10-10T14:31:14Z</time>
      </trkpt>
      <trkpt lat="43.37096" lon="5.5093">
        <ele>213.66</ele>
        <time>2022-10-10T14:31:15Z</time>
      </trkpt>
      <trkpt lat="43.37122" lon="5.5086">
        <ele>212.74</ele>
        <time>2022-10-10T14:31:20Z</time>
      </trkpt>
      <trkpt lat="43.37125" lon="5.50846">
        <ele>212.72</ele>
        <time>2022-10-10T14:31:21Z</time>
      </trkpt>
      <trkpt lat="43.37124" lon="5.50832">
        <ele>212.71</ele>
        <time>2022-10-10T14:31:22Z</time>
      </trkpt>
      <trkpt lat="43.3712" lon="5.50818">
        <ele>212.71</ele>
        <time>2022-10-10T14:31:23Z</time>
      </trkpt>
      <trkpt lat="43.37113" lon="5.50804">
        <ele>212.67</ele>
        <time>2022-10-10T14:31:24Z</time>
      </trkpt>
      <trkpt lat="43.37108" lon="5.50791">
        <ele>212.69</ele>
        <time>2022-10-10T14:31:25Z</time>
      </trkpt>
      <trkpt lat="43.37104" lon="5.50776">
        <ele>211</ele>
        <time>2022-10-10T14:31:26Z</time>
      </trkpt>
      <trkpt lat="43.37101" lon="5.50762">
        <ele>210.99</ele>
        <time>2022-10-10T14:31:27Z</time>
      </trkpt>
      <trkpt lat="43.37097" lon="5.5075">
        <ele>210.99</ele>
        <time>2022-10-10T14:31:28Z</time>
      </trkpt>
      <trkpt lat="43.3709" lon="5.50739">
        <ele>210.97</ele>
        <time>2022-10-10T14:31:29Z</time>
      </trkpt>
      <trkpt lat="43.37081" lon="5.50728">
        <ele>209.96</ele>
        <time>2022-10-10T14:31:30Z</time>
      </trkpt>
      <trkpt lat="43.37066" lon="5.50708">
        <ele>208.56</ele>
        <time>2022-10-10T14:31:32Z</time>
      </trkpt>
      <trkpt lat="43.37061" lon="5.50695">
        <ele>208.56</ele>
        <time>2022-10-10T14:31:33Z</time>
      </trkpt>
      <trkpt lat="43.37059" lon="5.5068">
        <ele>208.56</ele>
        <time>2022-10-10T14:31:34Z</time>
      </trkpt>
      <trkpt lat="43.37059" lon="5.50665">
        <ele>208.51</ele>
        <time>2022-10-10T14:31:35Z</time>
      </trkpt>
      <trkpt lat="43.3706" lon="5.50649">
        <ele>208.5</ele>
        <time>2022-10-10T14:31:36Z</time>
      </trkpt>
      <trkpt lat="43.37062" lon="5.50545">
        <ele>207.33</ele>
        <time>2022-10-10T14:31:42Z</time>
      </trkpt>
      <trkpt lat="43.3706" lon="5.50529">
        <ele>207.3</ele>
        <time>2022-10-10T14:31:43Z</time>
      </trkpt>
      <trkpt lat="43.37056" lon="5.50513">
        <ele>207.28</ele>
        <time>2022-10-10T14:31:44Z</time>
      </trkpt>
      <trkpt lat="43.3705" lon="5.50498">
        <ele>207.3</ele>
        <time>2022-10-10T14:31:45Z</time>
      </trkpt>
      <trkpt lat="43.37043" lon="5.50485">
        <ele>205.8</ele>
        <time>2022-10-10T14:31:46Z</time>
      </trkpt>
      <trkpt lat="43.37036" lon="5.50473">
        <ele>205.82</ele>
        <time>2022-10-10T14:31:47Z</time>
      </trkpt>
      <trkpt lat="43.37027" lon="5.50464">
        <ele>205.76</ele>
        <time>2022-10-10T14:31:48Z</time>
      </trkpt>
      <trkpt lat="43.37017" lon="5.50462">
        <ele>204.96</ele>
        <time>2022-10-10T14:31:49Z</time>
      </trkpt>
      <trkpt lat="43.37008" lon="5.50464">
        <ele>205.01</ele>
        <time>2022-10-10T14:31:50Z</time>
      </trkpt>
      <trkpt lat="43.37" lon="5.50469">
        <ele>205.01</ele>
        <time>2022-10-10T14:31:51Z</time>
      </trkpt>
      <trkpt lat="43.36993" lon="5.50477">
        <ele>204.17</ele>
        <time>2022-10-10T14:31:52Z</time>
      </trkpt>
      <trkpt lat="43.36986" lon="5.50486">
        <ele>204.36</ele>
        <time>2022-10-10T14:31:53Z</time>
      </trkpt>
      <trkpt lat="43.3698" lon="5.50496">
        <ele>203.59</ele>
        <time>2022-10-10T14:31:54Z</time>
      </trkpt>
      <trkpt lat="43.36965" lon="5.50514">
        <ele>203.54</ele>
        <time>2022-10-10T14:31:56Z</time>
      </trkpt>
      <trkpt lat="43.36957" lon="5.50522">
        <ele>202.01</ele>
        <time>2022-10-10T14:31:57Z</time>
      </trkpt>
      <trkpt lat="43.36947" lon="5.50524">
        <ele>202</ele>
        <time>2022-10-10T14:31:58Z</time>
      </trkpt>
      <trkpt lat="43.36938" lon="5.50518">
        <ele>201.97</ele>
        <time>2022-10-10T14:31:59Z</time>
      </trkpt>
      <trkpt lat="43.36931" lon="5.50508">
        <ele>201.97</ele>
        <time>2022-10-10T14:32:00Z</time>
      </trkpt>
      <trkpt lat="43.36925" lon="5.50494">
        <ele>201.9</ele>
        <time>2022-10-10T14:32:01Z</time>
      </trkpt>
      <trkpt lat="43.3692" lon="5.50479">
        <ele>201.9</ele>
        <time>2022-10-10T14:32:02Z</time>
      </trkpt>
      <trkpt lat="43.36915" lon="5.50465">
        <ele>201.89</ele>
        <time>2022-10-10T14:32:03Z</time>
      </trkpt>
      <trkpt lat="43.36908" lon="5.50451">
        <ele>201.01</ele>
        <time>2022-10-10T14:32:04Z</time>
      </trkpt>
      <trkpt lat="43.36883" lon="5.50402">
        <ele>199.87</ele>
        <time>2022-10-10T14:32:08Z</time>
      </trkpt>
      <trkpt lat="43.36881" lon="5.50389">
        <ele>198.98</ele>
        <time>2022-10-10T14:32:09Z</time>
      </trkpt>
      <trkpt lat="43.3688" lon="5.50375">
        <ele>199</ele>
        <time>2022-10-10T14:32:10Z</time>
      </trkpt>
      <trkpt lat="43.36882" lon="5.5036">
        <ele>198.01</ele>
        <time>2022-10-10T14:32:11Z</time>
      </trkpt>
      <trkpt lat="43.36886" lon="5.50345">
        <ele>198</ele>
        <time>2022-10-10T14:32:12Z</time>
      </trkpt>
      <trkpt lat="43.36891" lon="5.50331">
        <ele>197.89</ele>
        <time>2022-10-10T14:32:13Z</time>
      </trkpt>
      <trkpt lat="43.36898" lon="5.50302">
        <ele>197.96</ele>
        <time>2022-10-10T14:32:15Z</time>
      </trkpt>
      <trkpt lat="43.36899" lon="5.50288">
        <ele>197.95</ele>
        <time>2022-10-10T14:32:16Z</time>
      </trkpt>
      <trkpt lat="43.36896" lon="5.50275">
        <ele>197.94</ele>
        <time>2022-10-10T14:32:17Z</time>
      </trkpt>
      <trkpt lat="43.36891" lon="5.50263">
        <ele>197.28</ele>
        <time>2022-10-10T14:32:18Z</time>
      </trkpt>
      <trkpt lat="43.36883" lon="5.50256">
        <ele>197.25</ele>
        <time>2022-10-10T14:32:19Z</time>
      </trkpt>
      <trkpt lat="43.36874" lon="5.50253">
        <ele>197.25</ele>
        <time>2022-10-10T14:32:20Z</time>
      </trkpt>
      <trkpt lat="43.36863" lon="5.50253">
        <ele>197.24</ele>
        <time>2022-10-10T14:32:21Z</time>
      </trkpt>
      <trkpt lat="43.36853" lon="5.50255">
        <ele>196.39</ele>
        <time>2022-10-10T14:32:22Z</time>
      </trkpt>
      <trkpt lat="43.36832" lon="5.50256">
        <ele>195.43</ele>
        <time>2022-10-10T14:32:24Z</time>
      </trkpt>
      <trkpt lat="43.36822" lon="5.50251">
        <ele>195.37</ele>
        <time>2022-10-10T14:32:25Z</time>
      </trkpt>
      <trkpt lat="43.36815" lon="5.50243">
        <ele>195.4</ele>
        <time>2022-10-10T14:32:26Z</time>
      </trkpt>
      <trkpt lat="43.36808" lon="5.50232">
        <ele>195.4</ele>
        <time>2022-10-10T14:32:27Z</time>
      </trkpt>
      <trkpt lat="43.36801" lon="5.50221">
        <ele>194.06</ele>
        <time>2022-10-10T14:32:28Z</time>
      </trkpt>
      <trkpt lat="43.36794" lon="5.50211">
        <ele>194.05</ele>
        <time>2022-10-10T14:32:29Z</time>
      </trkpt>
      <trkpt lat="43.36786" lon="5.50201">
        <ele>194.04</ele>
        <time>2022-10-10T14:32:30Z</time>
      </trkpt>
      <trkpt lat="43.36776" lon="5.50194">
        <ele>194</ele>
        <time>2022-10-10T14:32:31Z</time>
      </trkpt>
      <trkpt lat="43.36764" lon="5.50192">
        <ele>193.99</ele>
        <time>2022-10-10T14:32:32Z</time>
      </trkpt>
      <trkpt lat="43.36704" lon="5.50193">
        <ele>192.87</ele>
        <time>2022-10-10T14:32:37Z</time>
      </trkpt>
      <trkpt lat="43.36696" lon="5.502">
        <ele>192.86</ele>
        <time>2022-10-10T14:32:38Z</time>
      </trkpt>
      <trkpt lat="43.36689" lon="5.50211">
        <ele>192.81</ele>
        <time>2022-10-10T14:32:39Z</time>
      </trkpt>
      <trkpt lat="43.36683" lon="5.50224">
        <ele>192.84</ele>
        <time>2022-10-10T14:32:40Z</time>
      </trkpt>
      <trkpt lat="43.36677" lon="5.50238">
        <ele>192.81</ele>
        <time>2022-10-10T14:32:41Z</time>
      </trkpt>
      <trkpt lat="43.36666" lon="5.50268">
        <ele>190.17</ele>
        <time>2022-10-10T14:32:43Z</time>
      </trkpt>
      <trkpt lat="43.36662" lon="5.50284">
        <ele>189.33</ele>
        <time>2022-10-10T14:32:44Z</time>
      </trkpt>
      <trkpt lat="43.3666" lon="5.503">
        <ele>189.31</ele>
        <time>2022-10-10T14:32:45Z</time>
      </trkpt>
      <trkpt lat="43.36656" lon="5.50332">
        <ele>187.16</ele>
        <time>2022-10-10T14:32:47Z</time>
      </trkpt>
      <trkpt lat="43.36651" lon="5.50346">
        <ele>187.15</ele>
        <time>2022-10-10T14:32:48Z</time>
      </trkpt>
      <trkpt lat="43.36644" lon="5.50357">
        <ele>185.6</ele>
        <time>2022-10-10T14:32:49Z</time>
      </trkpt>
      <trkpt lat="43.36635" lon="5.50365">
        <ele>185.64</ele>
        <time>2022-10-10T14:32:50Z</time>
      </trkpt>
      <trkpt lat="43.36625" lon="5.5037">
        <ele>185.59</ele>
        <time>2022-10-10T14:32:51Z</time>
      </trkpt>
      <trkpt lat="43.36613" lon="5.50367">
        <ele>184.75</ele>
        <time>2022-10-10T14:32:52Z</time>
      </trkpt>
      <trkpt lat="43.36603" lon="5.50361">
        <ele>184.74</ele>
        <time>2022-10-10T14:32:53Z</time>
      </trkpt>
      <trkpt lat="43.36593" lon="5.50353">
        <ele>183.81</ele>
        <time>2022-10-10T14:32:54Z</time>
      </trkpt>
      <trkpt lat="43.36586" lon="5.50338">
        <ele>183.77</ele>
        <time>2022-10-10T14:32:55Z</time>
      </trkpt>
      <trkpt lat="43.36581" lon="5.50322">
        <ele>182.97</ele>
        <time>2022-10-10T14:32:56Z</time>
      </trkpt>
      <trkpt lat="43.3658" lon="5.50302">
        <ele>182.97</ele>
        <time>2022-10-10T14:32:57Z</time>
      </trkpt>
      <trkpt lat="43.3658" lon="5.50282">
        <ele>182.96</ele>
        <time>2022-10-10T14:32:58Z</time>
      </trkpt>
      <trkpt lat="43.36582" lon="5.50261">
        <ele>182.02</ele>
        <time>2022-10-10T14:32:59Z</time>
      </trkpt>
      <trkpt lat="43.36584" lon="5.50239">
        <ele>182</ele>
        <time>2022-10-10T14:33:00Z</time>
      </trkpt>
      <trkpt lat="43.36583" lon="5.50195">
        <ele>182.03</ele>
        <time>2022-10-10T14:33:02Z</time>
      </trkpt>
      <trkpt lat="43.3658" lon="5.50172">
        <ele>182.01</ele>
        <time>2022-10-10T14:33:03Z</time>
      </trkpt>
      <trkpt lat="43.36573" lon="5.5015">
        <ele>180.78</ele>
        <time>2022-10-10T14:33:04Z</time>
      </trkpt>
      <trkpt lat="43.36565" lon="5.50129">
        <ele>180.8</ele>
        <time>2022-10-10T14:33:05Z</time>
      </trkpt>
      <trkpt lat="43.36556" lon="5.50108">
        <ele>180.88</ele>
        <time>2022-10-10T14:33:06Z</time>
      </trkpt>
      <trkpt lat="43.36546" lon="5.50088">
        <ele>180.18</ele>
        <time>2022-10-10T14:33:07Z</time>
      </trkpt>
      <trkpt lat="43.36504" lon="5.50017">
        <ele>178.07</ele>
        <time>2022-10-10T14:33:11Z</time>
      </trkpt>
      <trkpt lat="43.36482" lon="5.49986">
        <ele>176.82</ele>
        <time>2022-10-10T14:33:13Z</time>
      </trkpt>
      <trkpt lat="43.36457" lon="5.49936">
        <ele>175.64</ele>
        <time>2022-10-10T14:33:16Z</time>
      </trkpt>
      <trkpt lat="43.36421" lon="5.49806">
        <ele>173.67</ele>
        <time>2022-10-10T14:33:23Z</time>
      </trkpt>
      <trkpt lat="43.36416" lon="5.49768">
        <ele>172.83</ele>
        <time>2022-10-10T14:33:25Z</time>
      </trkpt>
      <trkpt lat="43.36407" lon="5.49683">
        <ele>170.17</ele>
        <time>2022-10-10T14:33:30Z</time>
      </trkpt>
      <trkpt lat="43.36404" lon="5.49668">
        <ele>170.49</ele>
        <time>2022-10-10T14:33:31Z</time>
      </trkpt>
      <trkpt lat="43.36398" lon="5.49654">
        <ele>170.46</ele>
        <time>2022-10-10T14:33:32Z</time>
      </trkpt>
      <trkpt lat="43.36391" lon="5.49641">
        <ele>169.68</ele>
        <time>2022-10-10T14:33:33Z</time>
      </trkpt>
      <trkpt lat="43.36383" lon="5.49629">
        <ele>169.65</ele>
        <time>2022-10-10T14:33:34Z</time>
      </trkpt>
      <trkpt lat="43.36374" lon="5.49619">
        <ele>169.62</ele>
        <time>2022-10-10T14:33:35Z</time>
      </trkpt>
      <trkpt lat="43.36364" lon="5.49608">
        <ele>169.62</ele>
        <time>2022-10-10T14:33:36Z</time>
      </trkpt>
      <trkpt lat="43.36315" lon="5.49543">
        <ele>167.44</ele>
        <time>2022-10-10T14:33:42Z</time>
      </trkpt>
      <trkpt lat="43.3631" lon="5.49531">
        <ele>167.4</ele>
        <time>2022-10-10T14:33:43Z</time>
      </trkpt>
      <trkpt lat="43.36307" lon="5.49518">
        <ele>166.65</ele>
        <time>2022-10-10T14:33:44Z</time>
      </trkpt>
      <trkpt lat="43.36305" lon="5.49505">
        <ele>166.64</ele>
        <time>2022-10-10T14:33:45Z</time>
      </trkpt>
      <trkpt lat="43.36303" lon="5.49491">
        <ele>166.65</ele>
        <time>2022-10-10T14:33:46Z</time>
      </trkpt>
      <trkpt lat="43.363" lon="5.49475">
        <ele>166.62</ele>
        <time>2022-10-10T14:33:47Z</time>
      </trkpt>
      <trkpt lat="43.36296" lon="5.49459">
        <ele>166.64</ele>
        <time>2022-10-10T14:33:48Z</time>
      </trkpt>
      <trkpt lat="43.3629" lon="5.49444">
        <ele>166.62</ele>
        <time>2022-10-10T14:33:49Z</time>
      </trkpt>
      <trkpt lat="43.36282" lon="5.4943">
        <ele>166.63</ele>
        <time>2022-10-10T14:33:50Z</time>
      </trkpt>
      <trkpt lat="43.36273" lon="5.49419">
        <ele>166.63</ele>
        <time>2022-10-10T14:33:51Z</time>
      </trkpt>
      <trkpt lat="43.36262" lon="5.4941">
        <ele>166.6</ele>
        <time>2022-10-10T14:33:52Z</time>
      </trkpt>
      <trkpt lat="43.36251" lon="5.49403">
        <ele>166.6</ele>
        <time>2022-10-10T14:33:53Z</time>
      </trkpt>
      <trkpt lat="43.36239" lon="5.49397">
        <ele>165.52</ele>
        <time>2022-10-10T14:33:54Z</time>
      </trkpt>
      <trkpt lat="43.36226" lon="5.49393">
        <ele>165.49</ele>
        <time>2022-10-10T14:33:55Z</time>
      </trkpt>
      <trkpt lat="43.36214" lon="5.49389">
        <ele>164.74</ele>
        <time>2022-10-10T14:33:56Z</time>
      </trkpt>
      <trkpt lat="43.36134" lon="5.49374">
        <ele>163.61</ele>
        <time>2022-10-10T14:34:03Z</time>
      </trkpt>
      <trkpt lat="43.36121" lon="5.49376">
        <ele>163.6</ele>
        <time>2022-10-10T14:34:04Z</time>
      </trkpt>
      <trkpt lat="43.36107" lon="5.49381">
        <ele>162.79</ele>
        <time>2022-10-10T14:34:05Z</time>
      </trkpt>
      <trkpt lat="43.36042" lon="5.49401">
        <ele>161.72</ele>
        <time>2022-10-10T14:34:10Z</time>
      </trkpt>
      <trkpt lat="43.3603" lon="5.49401">
        <ele>160.47</ele>
        <time>2022-10-10T14:34:11Z</time>
      </trkpt>
      <trkpt lat="43.35939" lon="5.49382">
        <ele>158.69</ele>
        <time>2022-10-10T14:34:19Z</time>
      </trkpt>
      <trkpt lat="43.35929" lon="5.49375">
        <ele>157.69</ele>
        <time>2022-10-10T14:34:20Z</time>
      </trkpt>
      <trkpt lat="43.35867" lon="5.49295">
        <ele>155.97</ele>
        <time>2022-10-10T14:34:29Z</time>
      </trkpt>
      <trkpt lat="43.35821" lon="5.49189">
        <ele>155.97</ele>
        <time>2022-10-10T14:34:36Z</time>
      </trkpt>
      <trkpt lat="43.35772" lon="5.49082">
        <ele>154.93</ele>
        <time>2022-10-10T14:34:43Z</time>
      </trkpt>
      <trkpt lat="43.35737" lon="5.4894">
        <ele>153.69</ele>
        <time>2022-10-10T14:34:51Z</time>
      </trkpt>
      <trkpt lat="43.35721" lon="5.48852">
        <ele>150.82</ele>
        <time>2022-10-10T14:34:57Z</time>
      </trkpt>
      <trkpt lat="43.35721" lon="5.48842">
        <ele>150.82</ele>
        <time>2022-10-10T14:34:58Z</time>
      </trkpt>
      <trkpt lat="43.35723" lon="5.48832">
        <ele>150.78</ele>
        <time>2022-10-10T14:34:59Z</time>
      </trkpt>
      <trkpt lat="43.35726" lon="5.48824">
        <ele>150.78</ele>
        <time>2022-10-10T14:35:00Z</time>
      </trkpt>
      <trkpt lat="43.35726" lon="5.48816">
        <ele>150.75</ele>
        <time>2022-10-10T14:35:01Z</time>
      </trkpt>
      <trkpt lat="43.35724" lon="5.48809">
        <ele>150.8</ele>
        <time>2022-10-10T14:35:02Z</time>
      </trkpt>
      <trkpt lat="43.35718" lon="5.48805">
        <ele>150.78</ele>
        <time>2022-10-10T14:35:03Z</time>
      </trkpt>
      <trkpt lat="43.35711" lon="5.48801">
        <ele>150.78</ele>
        <time>2022-10-10T14:35:04Z</time>
      </trkpt>
      <trkpt lat="43.35704" lon="5.48796">
        <ele>150.74</ele>
        <time>2022-10-10T14:35:05Z</time>
      </trkpt>
      <trkpt lat="43.35696" lon="5.48788">
        <ele>150.73</ele>
        <time>2022-10-10T14:35:06Z</time>
      </trkpt>
      <trkpt lat="43.35689" lon="5.4878">
        <ele>149.87</ele>
        <time>2022-10-10T14:35:07Z</time>
      </trkpt>
      <trkpt lat="43.35682" lon="5.48771">
        <ele>149.82</ele>
        <time>2022-10-10T14:35:08Z</time>
      </trkpt>
      <trkpt lat="43.35675" lon="5.48763">
        <ele>148.94</ele>
        <time>2022-10-10T14:35:09Z</time>
      </trkpt>
      <trkpt lat="43.35621" lon="5.48696">
        <ele>147.49</ele>
        <time>2022-10-10T14:35:17Z</time>
      </trkpt>
      <trkpt lat="43.35618" lon="5.4869">
        <ele>147.48</ele>
        <time>2022-10-10T14:35:18Z</time>
      </trkpt>
      <trkpt lat="43.35616" lon="5.48684">
        <ele>147.47</ele>
        <time>2022-10-10T14:35:19Z</time>
      </trkpt>
      <trkpt lat="43.35615" lon="5.48678">
        <ele>147.47</ele>
        <time>2022-10-10T14:35:20Z</time>
      </trkpt>
      <trkpt lat="43.35614" lon="5.48672">
        <ele>147.45</ele>
        <time>2022-10-10T14:35:21Z</time>
      </trkpt>
      <trkpt lat="43.35611" lon="5.48667">
        <ele>147.48</ele>
        <time>2022-10-10T14:35:22Z</time>
      </trkpt>
      <trkpt lat="43.35607" lon="5.48663">
        <ele>147.47</ele>
        <time>2022-10-10T14:35:23Z</time>
      </trkpt>
      <trkpt lat="43.356" lon="5.4866">
        <ele>147.47</ele>
        <time>2022-10-10T14:35:24Z</time>
      </trkpt>
      <trkpt lat="43.35592" lon="5.48655">
        <ele>147.46</ele>
        <time>2022-10-10T14:35:25Z</time>
      </trkpt>
      <trkpt lat="43.35502" lon="5.48596">
        <ele>147.47</ele>
        <time>2022-10-10T14:35:33Z</time>
      </trkpt>
      <trkpt lat="43.35491" lon="5.48587">
        <ele>146.62</ele>
        <time>2022-10-10T14:35:34Z</time>
      </trkpt>
      <trkpt lat="43.35482" lon="5.48578">
        <ele>146.62</ele>
        <time>2022-10-10T14:35:35Z</time>
      </trkpt>
      <trkpt lat="43.35473" lon="5.48567">
        <ele>146.62</ele>
        <time>2022-10-10T14:35:36Z</time>
      </trkpt>
      <trkpt lat="43.35466" lon="5.48556">
        <ele>146.62</ele>
        <time>2022-10-10T14:35:37Z</time>
      </trkpt>
      <trkpt lat="43.35461" lon="5.48545">
        <ele>145.27</ele>
        <time>2022-10-10T14:35:38Z</time>
      </trkpt>
      <trkpt lat="43.35456" lon="5.48535">
        <ele>145.27</ele>
        <time>2022-10-10T14:35:39Z</time>
      </trkpt>
      <trkpt lat="43.35443" lon="5.48503">
        <ele>144.06</ele>
        <time>2022-10-10T14:35:45Z</time>
      </trkpt>
      <trkpt lat="43.35441" lon="5.48492">
        <ele>143.25</ele>
        <time>2022-10-10T14:35:52Z</time>
      </trkpt>
      <trkpt lat="43.35441" lon="5.48486">
        <ele>143.25</ele>
        <time>2022-10-10T14:35:53Z</time>
      </trkpt>
      <trkpt lat="43.35442" lon="5.4848">
        <ele>143.27</ele>
        <time>2022-10-10T14:35:54Z</time>
      </trkpt>
      <trkpt lat="43.35443" lon="5.48473">
        <ele>143.28</ele>
        <time>2022-10-10T14:35:55Z</time>
      </trkpt>
      <trkpt lat="43.35442" lon="5.48466">
        <ele>143.31</ele>
        <time>2022-10-10T14:35:56Z</time>
      </trkpt>
      <trkpt lat="43.35439" lon="5.48461">
        <ele>143.34</ele>
        <time>2022-10-10T14:35:57Z</time>
      </trkpt>
      <trkpt lat="43.35433" lon="5.48457">
        <ele>143.36</ele>
        <time>2022-10-10T14:35:58Z</time>
      </trkpt>
      <trkpt lat="43.35425" lon="5.48455">
        <ele>143.37</ele>
        <time>2022-10-10T14:35:59Z</time>
      </trkpt>
      <trkpt lat="43.35416" lon="5.48452">
        <ele>143.4</ele>
        <time>2022-10-10T14:36:00Z</time>
      </trkpt>
      <trkpt lat="43.35405" lon="5.48447">
        <ele>143.41</ele>
        <time>2022-10-10T14:36:01Z</time>
      </trkpt>
      <trkpt lat="43.35395" lon="5.48441">
        <ele>145.79</ele>
        <time>2022-10-10T14:36:02Z</time>
      </trkpt>
      <trkpt lat="43.35384" lon="5.48435">
        <ele>145.79</ele>
        <time>2022-10-10T14:36:03Z</time>
      </trkpt>
      <trkpt lat="43.35362" lon="5.48419">
        <ele>145.83</ele>
        <time>2022-10-10T14:36:05Z</time>
      </trkpt>
      <trkpt lat="43.35351" lon="5.48409">
        <ele>145.69</ele>
        <time>2022-10-10T14:36:06Z</time>
      </trkpt>
      <trkpt lat="43.35341" lon="5.48397">
        <ele>145.69</ele>
        <time>2022-10-10T14:36:07Z</time>
      </trkpt>
      <trkpt lat="43.35332" lon="5.48385">
        <ele>145.69</ele>
        <time>2022-10-10T14:36:08Z</time>
      </trkpt>
      <trkpt lat="43.35324" lon="5.48373">
        <ele>145.69</ele>
        <time>2022-10-10T14:36:09Z</time>
      </trkpt>
      <trkpt lat="43.35316" lon="5.48361">
        <ele>145.69</ele>
        <time>2022-10-10T14:36:10Z</time>
      </trkpt>
      <trkpt lat="43.3529" lon="5.48304">
        <ele>143.29</ele>
        <time>2022-10-10T14:36:14Z</time>
      </trkpt>
      <trkpt lat="43.35286" lon="5.48287">
        <ele>143.27</ele>
        <time>2022-10-10T14:36:15Z</time>
      </trkpt>
      <trkpt lat="43.3525" lon="5.48133">
        <ele>140.08</ele>
        <time>2022-10-10T14:36:26Z</time>
      </trkpt>
      <trkpt lat="43.35229" lon="5.48038">
        <ele>140.28</ele>
        <time>2022-10-10T14:36:33Z</time>
      </trkpt>
      <trkpt lat="43.35205" lon="5.47861">
        <ele>139.33</ele>
        <time>2022-10-10T14:36:42Z</time>
      </trkpt>
      <trkpt lat="43.35196" lon="5.47639">
        <ele>135.56</ele>
        <time>2022-10-10T14:36:54Z</time>
      </trkpt>
      <trkpt lat="43.35195" lon="5.47628">
        <ele>135.74</ele>
        <time>2022-10-10T14:36:55Z</time>
      </trkpt>
      <trkpt lat="43.35194" lon="5.476">
        <ele>134.4</ele>
        <time>2022-10-10T14:36:58Z</time>
      </trkpt>
      <trkpt lat="43.35191" lon="5.47554">
        <ele>133.13</ele>
        <time>2022-10-10T14:37:02Z</time>
      </trkpt>
      <trkpt lat="43.35187" lon="5.47442">
        <ele>133.01</ele>
        <time>2022-10-10T14:37:10Z</time>
      </trkpt>
      <trkpt lat="43.35186" lon="5.47401">
        <ele>131.7</ele>
        <time>2022-10-10T14:37:14Z</time>
      </trkpt>
      <trkpt lat="43.35179" lon="5.47302">
        <ele>131.91</ele>
        <time>2022-10-10T14:37:21Z</time>
      </trkpt>
      <trkpt lat="43.35176" lon="5.47286">
        <ele>131.9</ele>
        <time>2022-10-10T14:37:22Z</time>
      </trkpt>
      <trkpt lat="43.35171" lon="5.4727">
        <ele>131.88</ele>
        <time>2022-10-10T14:37:23Z</time>
      </trkpt>
      <trkpt lat="43.35165" lon="5.47256">
        <ele>131.88</ele>
        <time>2022-10-10T14:37:24Z</time>
      </trkpt>
      <trkpt lat="43.35159" lon="5.47242">
        <ele>131.85</ele>
        <time>2022-10-10T14:37:25Z</time>
      </trkpt>
      <trkpt lat="43.35151" lon="5.47228">
        <ele>131.83</ele>
        <time>2022-10-10T14:37:26Z</time>
      </trkpt>
      <trkpt lat="43.35143" lon="5.47215">
        <ele>131.04</ele>
        <time>2022-10-10T14:37:27Z</time>
      </trkpt>
      <trkpt lat="43.35135" lon="5.47203">
        <ele>131.03</ele>
        <time>2022-10-10T14:37:28Z</time>
      </trkpt>
      <trkpt lat="43.35019" lon="5.47055">
        <ele>130.22</ele>
        <time>2022-10-10T14:37:40Z</time>
      </trkpt>
      <trkpt lat="43.34951" lon="5.46951">
        <ele>129.23</ele>
        <time>2022-10-10T14:37:50Z</time>
      </trkpt>
      <trkpt lat="43.34942" lon="5.46933">
        <ele>129.22</ele>
        <time>2022-10-10T14:37:52Z</time>
      </trkpt>
      <trkpt lat="43.34939" lon="5.46926">
        <ele>127.91</ele>
        <time>2022-10-10T14:37:53Z</time>
      </trkpt>
      <trkpt lat="43.34937" lon="5.46919">
        <ele>127.89</ele>
        <time>2022-10-10T14:37:54Z</time>
      </trkpt>
      <trkpt lat="43.34927" lon="5.46892">
        <ele>127.07</ele>
        <time>2022-10-10T14:38:01Z</time>
      </trkpt>
      <trkpt lat="43.34911" lon="5.46832">
        <ele>125.61</ele>
        <time>2022-10-10T14:38:09Z</time>
      </trkpt>
      <trkpt lat="43.3491" lon="5.46826">
        <ele>125.61</ele>
        <time>2022-10-10T14:38:10Z</time>
      </trkpt>
      <trkpt lat="43.34889" lon="5.46739">
        <ele>124.5</ele>
        <time>2022-10-10T14:38:19Z</time>
      </trkpt>
      <trkpt lat="43.34857" lon="5.46605">
        <ele>122.65</ele>
        <time>2022-10-10T14:38:31Z</time>
      </trkpt>
      <trkpt lat="43.34821" lon="5.46482">
        <ele>122.73</ele>
        <time>2022-10-10T14:38:43Z</time>
      </trkpt>
      <trkpt lat="43.34787" lon="5.46413">
        <ele>122.77</ele>
        <time>2022-10-10T14:38:53Z</time>
      </trkpt>
      <trkpt lat="43.34774" lon="5.46396">
        <ele>125.39</ele>
        <time>2022-10-10T14:38:56Z</time>
      </trkpt>
      <trkpt lat="43.34752" lon="5.46368">
        <ele>125.44</ele>
        <time>2022-10-10T14:39:01Z</time>
      </trkpt>
      <trkpt lat="43.34751" lon="5.46363">
        <ele>125.44</ele>
        <time>2022-10-10T14:39:02Z</time>
      </trkpt>
      <trkpt lat="43.34752" lon="5.46359">
        <ele>125.45</ele>
        <time>2022-10-10T14:39:03Z</time>
      </trkpt>
      <trkpt lat="43.34753" lon="5.46357">
        <ele>125.4</ele>
        <time>2022-10-10T14:39:04Z</time>
      </trkpt>
      <trkpt lat="43.34754" lon="5.46355">
        <ele>125.48</ele>
        <time>2022-10-10T14:39:05Z</time>
      </trkpt>
      <trkpt lat="43.34755" lon="5.46354">
        <ele>125.31</ele>
        <time>2022-10-10T14:39:06Z</time>
      </trkpt>
      <trkpt lat="43.34757" lon="5.46351">
        <ele>125.32</ele>
        <time>2022-10-10T14:39:07Z</time>
      </trkpt>
      <trkpt lat="43.34791" lon="5.46293">
        <ele>128.24</ele>
        <time>2022-10-10T14:39:15Z</time>
      </trkpt>
      <trkpt lat="43.34822" lon="5.46242">
        <ele>130.52</ele>
        <time>2022-10-10T14:39:21Z</time>
      </trkpt>
      <trkpt lat="43.34828" lon="5.46236">
        <ele>130.55</ele>
        <time>2022-10-10T14:39:22Z</time>
      </trkpt>
      <trkpt lat="43.34839" lon="5.46227">
        <ele>131.94</ele>
        <time>2022-10-10T14:39:24Z</time>
      </trkpt>
      <trkpt lat="43.34844" lon="5.46225">
        <ele>131.98</ele>
        <time>2022-10-10T14:39:25Z</time>
      </trkpt>
      <trkpt lat="43.34848" lon="5.46223">
        <ele>131.92</ele>
        <time>2022-10-10T14:39:26Z</time>
      </trkpt>
      <trkpt lat="43.34853" lon="5.4622">
        <ele>132.75</ele>
        <time>2022-10-10T14:39:27Z</time>
      </trkpt>
      <trkpt lat="43.34857" lon="5.46215">
        <ele>133.86</ele>
        <time>2022-10-10T14:39:28Z</time>
      </trkpt>
      <trkpt lat="43.34861" lon="5.46208">
        <ele>133.89</ele>
        <time>2022-10-10T14:39:29Z</time>
      </trkpt>
      <trkpt lat="43.34866" lon="5.46201">
        <ele>133.88</ele>
        <time>2022-10-10T14:39:30Z</time>
      </trkpt>
      <trkpt lat="43.34872" lon="5.46195">
        <ele>135.08</ele>
        <time>2022-10-10T14:39:31Z</time>
      </trkpt>
      <trkpt lat="43.3488" lon="5.46189">
        <ele>135.9</ele>
        <time>2022-10-10T14:39:32Z</time>
      </trkpt>
      <trkpt lat="43.34896" lon="5.46179">
        <ele>137.23</ele>
        <time>2022-10-10T14:39:34Z</time>
      </trkpt>
      <trkpt lat="43.34917" lon="5.46168">
        <ele>139.02</ele>
        <time>2022-10-10T14:39:40Z</time>
      </trkpt>
      <trkpt lat="43.3492" lon="5.46168">
        <ele>139.03</ele>
        <time>2022-10-10T14:39:45Z</time>
      </trkpt>
      <trkpt lat="43.34922" lon="5.46167">
        <ele>138.98</ele>
        <time>2022-10-10T14:39:46Z</time>
      </trkpt>
      <trkpt lat="43.34926" lon="5.46165">
        <ele>139</ele>
        <time>2022-10-10T14:39:47Z</time>
      </trkpt>
      <trkpt lat="43.34971" lon="5.46129">
        <ele>143.33</ele>
        <time>2022-10-10T14:39:54Z</time>
      </trkpt>
      <trkpt lat="43.35001" lon="5.46096">
        <ele>144.72</ele>
        <time>2022-10-10T14:39:58Z</time>
      </trkpt>
      <trkpt lat="43.35007" lon="5.46086">
        <ele>144.75</ele>
        <time>2022-10-10T14:39:59Z</time>
      </trkpt>
      <trkpt lat="43.35025" lon="5.46052">
        <ele>146.33</ele>
        <time>2022-10-10T14:40:02Z</time>
      </trkpt>
      <trkpt lat="43.35042" lon="5.4602">
        <ele>147.64</ele>
        <time>2022-10-10T14:40:05Z</time>
      </trkpt>
      <trkpt lat="43.35058" lon="5.45993">
        <ele>147.6</ele>
        <time>2022-10-10T14:40:08Z</time>
      </trkpt>
      <trkpt lat="43.3507" lon="5.45978">
        <ele>147.59</ele>
        <time>2022-10-10T14:40:10Z</time>
      </trkpt>
      <trkpt lat="43.35077" lon="5.45971">
        <ele>147.58</ele>
        <time>2022-10-10T14:40:11Z</time>
      </trkpt>
      <trkpt lat="43.35117" lon="5.45928">
        <ele>148.65</ele>
        <time>2022-10-10T14:40:16Z</time>
      </trkpt>
      <trkpt lat="43.35122" lon="5.45917">
        <ele>148.69</ele>
        <time>2022-10-10T14:40:17Z</time>
      </trkpt>
      <trkpt lat="43.35126" lon="5.45905">
        <ele>148.7</ele>
        <time>2022-10-10T14:40:18Z</time>
      </trkpt>
      <trkpt lat="43.35134" lon="5.45883">
        <ele>150.46</ele>
        <time>2022-10-10T14:40:20Z</time>
      </trkpt>
      <trkpt lat="43.3514" lon="5.45875">
        <ele>153.66</ele>
        <time>2022-10-10T14:40:21Z</time>
      </trkpt>
      <trkpt lat="43.35147" lon="5.4587">
        <ele>154.52</ele>
        <time>2022-10-10T14:40:22Z</time>
      </trkpt>
      <trkpt lat="43.35164" lon="5.45859">
        <ele>157.14</ele>
        <time>2022-10-10T14:40:24Z</time>
      </trkpt>
      <trkpt lat="43.35172" lon="5.45851">
        <ele>158.29</ele>
        <time>2022-10-10T14:40:25Z</time>
      </trkpt>
      <trkpt lat="43.35186" lon="5.45835">
        <ele>159.17</ele>
        <time>2022-10-10T14:40:27Z</time>
      </trkpt>
      <trkpt lat="43.35198" lon="5.45819">
        <ele>161.79</ele>
        <time>2022-10-10T14:40:29Z</time>
      </trkpt>
      <trkpt lat="43.35203" lon="5.4581">
        <ele>161.78</ele>
        <time>2022-10-10T14:40:30Z</time>
      </trkpt>
      <trkpt lat="43.35207" lon="5.45799">
        <ele>162.85</ele>
        <time>2022-10-10T14:40:31Z</time>
      </trkpt>
      <trkpt lat="43.35209" lon="5.45788">
        <ele>162.84</ele>
        <time>2022-10-10T14:40:32Z</time>
      </trkpt>
      <trkpt lat="43.35208" lon="5.45776">
        <ele>164.21</ele>
        <time>2022-10-10T14:40:33Z</time>
      </trkpt>
      <trkpt lat="43.35206" lon="5.45765">
        <ele>164.22</ele>
        <time>2022-10-10T14:40:34Z</time>
      </trkpt>
      <trkpt lat="43.35203" lon="5.45754">
        <ele>165.4</ele>
        <time>2022-10-10T14:40:35Z</time>
      </trkpt>
      <trkpt lat="43.35198" lon="5.45733">
        <ele>166.57</ele>
        <time>2022-10-10T14:40:37Z</time>
      </trkpt>
      <trkpt lat="43.35194" lon="5.45713">
        <ele>167.93</ele>
        <time>2022-10-10T14:40:39Z</time>
      </trkpt>
      <trkpt lat="43.3519" lon="5.45695">
        <ele>168.95</ele>
        <time>2022-10-10T14:40:41Z</time>
      </trkpt>
      <trkpt lat="43.3519" lon="5.45688">
        <ele>169.92</ele>
        <time>2022-10-10T14:40:42Z</time>
      </trkpt>
      <trkpt lat="43.3519" lon="5.45682">
        <ele>169.37</ele>
        <time>2022-10-10T14:40:43Z</time>
      </trkpt>
      <trkpt lat="43.3519" lon="5.45661">
        <ele>171.12</ele>
        <time>2022-10-10T14:40:48Z</time>
      </trkpt>
      <trkpt lat="43.35186" lon="5.45655">
        <ele>171.06</ele>
        <time>2022-10-10T14:40:49Z</time>
      </trkpt>
      <trkpt lat="43.3518" lon="5.4565">
        <ele>171.1</ele>
        <time>2022-10-10T14:40:50Z</time>
      </trkpt>
      <trkpt lat="43.35112" lon="5.45614">
        <ele>171.02</ele>
        <time>2022-10-10T14:40:57Z</time>
      </trkpt>
      <trkpt lat="43.35056" lon="5.45591">
        <ele>167.97</ele>
        <time>2022-10-10T14:41:02Z</time>
      </trkpt>
      <trkpt lat="43.35047" lon="5.45587">
        <ele>167.93</ele>
        <time>2022-10-10T14:41:03Z</time>
      </trkpt>
      <trkpt lat="43.35039" lon="5.45583">
        <ele>167.87</ele>
        <time>2022-10-10T14:41:04Z</time>
      </trkpt>
      <trkpt lat="43.35027" lon="5.45574">
        <ele>166.17</ele>
        <time>2022-10-10T14:41:06Z</time>
      </trkpt>
      <trkpt lat="43.34975" lon="5.45534">
        <ele>164.65</ele>
        <time>2022-10-10T14:41:13Z</time>
      </trkpt>
      <trkpt lat="43.3497" lon="5.45529">
        <ele>163.07</ele>
        <time>2022-10-10T14:41:14Z</time>
      </trkpt>
      <trkpt lat="43.34967" lon="5.45525">
        <ele>163.06</ele>
        <time>2022-10-10T14:41:15Z</time>
      </trkpt>
      <trkpt lat="43.34966" lon="5.45521">
        <ele>163.04</ele>
        <time>2022-10-10T14:41:16Z</time>
      </trkpt>
      <trkpt lat="43.34967" lon="5.45518">
        <ele>162.21</ele>
        <time>2022-10-10T14:41:25Z</time>
      </trkpt>
      <trkpt lat="43.34968" lon="5.45518">
        <ele>162.17</ele>
        <time>2022-10-10T14:42:15Z</time>
      </trkpt>
      <trkpt lat="43.3497" lon="5.45516">
        <ele>162.17</ele>
        <time>2022-10-10T14:42:47Z</time>
      </trkpt>
      <trkpt lat="43.34972" lon="5.45513">
        <ele>162.18</ele>
        <time>2022-10-10T14:42:48Z</time>
      </trkpt>
      <trkpt lat="43.34974" lon="5.45507">
        <ele>162.18</ele>
        <time>2022-10-10T14:42:49Z</time>
      </trkpt>
      <trkpt lat="43.34977" lon="5.455">
        <ele>162.19</ele>
        <time>2022-10-10T14:42:50Z</time>
      </trkpt>
      <trkpt lat="43.3498" lon="5.45491">
        <ele>162.17</ele>
        <time>2022-10-10T14:42:51Z</time>
      </trkpt>
      <trkpt lat="43.34996" lon="5.45441">
        <ele>162.18</ele>
        <time>2022-10-10T14:42:59Z</time>
      </trkpt>
      <trkpt lat="43.34996" lon="5.45436">
        <ele>162.13</ele>
        <time>2022-10-10T14:43:09Z</time>
      </trkpt>
      <trkpt lat="43.34996" lon="5.45434">
        <ele>155.73</ele>
        <time>2022-10-10T14:43:36Z</time>
      </trkpt>
      <trkpt lat="43.3498" lon="5.45489">
        <ele>162.31</ele>
        <time>2022-10-10T14:46:06Z</time>
      </trkpt>
      <trkpt lat="43.34969" lon="5.45526">
        <ele>162.32</ele>
        <time>2022-10-10T14:46:16Z</time>
      </trkpt>
      <trkpt lat="43.3497" lon="5.45529">
        <ele>162.3</ele>
        <time>2022-10-10T14:46:17Z</time>
      </trkpt>
      <trkpt lat="43.34974" lon="5.45532">
        <ele>162.31</ele>
        <time>2022-10-10T14:46:18Z</time>
      </trkpt>
      <trkpt lat="43.35011" lon="5.45561">
        <ele>164.92</ele>
        <time>2022-10-10T14:46:25Z</time>
      </trkpt>
      <trkpt lat="43.3504" lon="5.45584">
        <ele>165.68</ele>
        <time>2022-10-10T14:46:31Z</time>
      </trkpt>
      <trkpt lat="43.35045" lon="5.45587">
        <ele>165.67</ele>
        <time>2022-10-10T14:46:32Z</time>
      </trkpt>
      <trkpt lat="43.35051" lon="5.45588">
        <ele>166.72</ele>
        <time>2022-10-10T14:46:33Z</time>
      </trkpt>
      <trkpt lat="43.35078" lon="5.45599">
        <ele>168.03</ele>
        <time>2022-10-10T14:46:39Z</time>
      </trkpt>
      <trkpt lat="43.35082" lon="5.45601">
        <ele>168.02</ele>
        <time>2022-10-10T14:46:40Z</time>
      </trkpt>
      <trkpt lat="43.35091" lon="5.45604">
        <ele>168.03</ele>
        <time>2022-10-10T14:46:42Z</time>
      </trkpt>
      <trkpt lat="43.35096" lon="5.45606">
        <ele>168.01</ele>
        <time>2022-10-10T14:46:43Z</time>
      </trkpt>
      <trkpt lat="43.35106" lon="5.4561">
        <ele>169.41</ele>
        <time>2022-10-10T14:46:45Z</time>
      </trkpt>
      <trkpt lat="43.35127" lon="5.45619">
        <ele>169.39</ele>
        <time>2022-10-10T14:46:49Z</time>
      </trkpt>
      <trkpt lat="43.35162" lon="5.45639">
        <ele>169.25</ele>
        <time>2022-10-10T14:46:56Z</time>
      </trkpt>
      <trkpt lat="43.35175" lon="5.45647">
        <ele>170.31</ele>
        <time>2022-10-10T14:46:59Z</time>
      </trkpt>
      <trkpt lat="43.35179" lon="5.4565">
        <ele>170.31</ele>
        <time>2022-10-10T14:47:00Z</time>
      </trkpt>
      <trkpt lat="43.35183" lon="5.45654">
        <ele>170.31</ele>
        <time>2022-10-10T14:47:01Z</time>
      </trkpt>
      <trkpt lat="43.35186" lon="5.45658">
        <ele>170.3</ele>
        <time>2022-10-10T14:47:02Z</time>
      </trkpt>
      <trkpt lat="43.35188" lon="5.45663">
        <ele>170.29</ele>
        <time>2022-10-10T14:47:03Z</time>
      </trkpt>
      <trkpt lat="43.35188" lon="5.45667">
        <ele>170.29</ele>
        <time>2022-10-10T14:47:04Z</time>
      </trkpt>
      <trkpt lat="43.35188" lon="5.4567">
        <ele>170.28</ele>
        <time>2022-10-10T14:47:05Z</time>
      </trkpt>
      <trkpt lat="43.35187" lon="5.45689">
        <ele>170.26</ele>
        <time>2022-10-10T14:47:10Z</time>
      </trkpt>
      <trkpt lat="43.35204" lon="5.45761">
        <ele>167.52</ele>
        <time>2022-10-10T14:47:17Z</time>
      </trkpt>
      <trkpt lat="43.35206" lon="5.45773">
        <ele>166.1</ele>
        <time>2022-10-10T14:47:18Z</time>
      </trkpt>
      <trkpt lat="43.35206" lon="5.45785">
        <ele>165</ele>
        <time>2022-10-10T14:47:19Z</time>
      </trkpt>
      <trkpt lat="43.35204" lon="5.45796">
        <ele>164.23</ele>
        <time>2022-10-10T14:47:20Z</time>
      </trkpt>
      <trkpt lat="43.35201" lon="5.45807">
        <ele>163.91</ele>
        <time>2022-10-10T14:47:21Z</time>
      </trkpt>
      <trkpt lat="43.35196" lon="5.45816">
        <ele>163.01</ele>
        <time>2022-10-10T14:47:22Z</time>
      </trkpt>
      <trkpt lat="43.3519" lon="5.45825">
        <ele>161.83</ele>
        <time>2022-10-10T14:47:23Z</time>
      </trkpt>
      <trkpt lat="43.35184" lon="5.45833">
        <ele>161.79</ele>
        <time>2022-10-10T14:47:24Z</time>
      </trkpt>
      <trkpt lat="43.35177" lon="5.4584">
        <ele>160.41</ele>
        <time>2022-10-10T14:47:25Z</time>
      </trkpt>
      <trkpt lat="43.3517" lon="5.45847">
        <ele>160.34</ele>
        <time>2022-10-10T14:47:26Z</time>
      </trkpt>
      <trkpt lat="43.35155" lon="5.4586">
        <ele>157.89</ele>
        <time>2022-10-10T14:47:28Z</time>
      </trkpt>
      <trkpt lat="43.3514" lon="5.45868">
        <ele>156.45</ele>
        <time>2022-10-10T14:47:30Z</time>
      </trkpt>
      <trkpt lat="43.35134" lon="5.45874">
        <ele>154.35</ele>
        <time>2022-10-10T14:47:31Z</time>
      </trkpt>
      <trkpt lat="43.35129" lon="5.45883">
        <ele>153.51</ele>
        <time>2022-10-10T14:47:32Z</time>
      </trkpt>
      <trkpt lat="43.35125" lon="5.45893">
        <ele>153.45</ele>
        <time>2022-10-10T14:47:33Z</time>
      </trkpt>
      <trkpt lat="43.35122" lon="5.45904">
        <ele>151.58</ele>
        <time>2022-10-10T14:47:34Z</time>
      </trkpt>
      <trkpt lat="43.35117" lon="5.45915">
        <ele>150.35</ele>
        <time>2022-10-10T14:47:35Z</time>
      </trkpt>
      <trkpt lat="43.35112" lon="5.45925">
        <ele>149.17</ele>
        <time>2022-10-10T14:47:36Z</time>
      </trkpt>
      <trkpt lat="43.35106" lon="5.45934">
        <ele>149.1</ele>
        <time>2022-10-10T14:47:37Z</time>
      </trkpt>
      <trkpt lat="43.35093" lon="5.45949">
        <ele>147.29</ele>
        <time>2022-10-10T14:47:39Z</time>
      </trkpt>
      <trkpt lat="43.35052" lon="5.45988">
        <ele>146.89</ele>
        <time>2022-10-10T14:47:48Z</time>
      </trkpt>
      <trkpt lat="43.35052" lon="5.45991">
        <ele>146.89</ele>
        <time>2022-10-10T14:47:49Z</time>
      </trkpt>
      <trkpt lat="43.35054" lon="5.45991">
        <ele>146.88</ele>
        <time>2022-10-10T14:47:50Z</time>
      </trkpt>
      <trkpt lat="43.35057" lon="5.4599">
        <ele>146.88</ele>
        <time>2022-10-10T14:47:51Z</time>
      </trkpt>
      <trkpt lat="43.35059" lon="5.45987">
        <ele>146.85</ele>
        <time>2022-10-10T14:47:52Z</time>
      </trkpt>
      <trkpt lat="43.35063" lon="5.45983">
        <ele>146.85</ele>
        <time>2022-10-10T14:47:53Z</time>
      </trkpt>
      <trkpt lat="43.35068" lon="5.45978">
        <ele>146.84</ele>
        <time>2022-10-10T14:47:54Z</time>
      </trkpt>
      <trkpt lat="43.35074" lon="5.45973">
        <ele>146.85</ele>
        <time>2022-10-10T14:47:55Z</time>
      </trkpt>
      <trkpt lat="43.35114" lon="5.45934">
        <ele>146.83</ele>
        <time>2022-10-10T14:48:01Z</time>
      </trkpt>
      <trkpt lat="43.35118" lon="5.45926">
        <ele>146.84</ele>
        <time>2022-10-10T14:48:02Z</time>
      </trkpt>
      <trkpt lat="43.35122" lon="5.45917">
        <ele>146.9</ele>
        <time>2022-10-10T14:48:03Z</time>
      </trkpt>
      <trkpt lat="43.35129" lon="5.45897">
        <ele>150.2</ele>
        <time>2022-10-10T14:48:05Z</time>
      </trkpt>
      <trkpt lat="43.35134" lon="5.45887">
        <ele>151.21</ele>
        <time>2022-10-10T14:48:06Z</time>
      </trkpt>
      <trkpt lat="43.3514" lon="5.45879">
        <ele>152.7</ele>
        <time>2022-10-10T14:48:07Z</time>
      </trkpt>
      <trkpt lat="43.35148" lon="5.45874">
        <ele>153.69</ele>
        <time>2022-10-10T14:48:08Z</time>
      </trkpt>
      <trkpt lat="43.35156" lon="5.45869">
        <ele>155.3</ele>
        <time>2022-10-10T14:48:09Z</time>
      </trkpt>
      <trkpt lat="43.35164" lon="5.45862">
        <ele>157.02</ele>
        <time>2022-10-10T14:48:10Z</time>
      </trkpt>
      <trkpt lat="43.35172" lon="5.45855">
        <ele>158.46</ele>
        <time>2022-10-10T14:48:11Z</time>
      </trkpt>
      <trkpt lat="43.35179" lon="5.45847">
        <ele>159.38</ele>
        <time>2022-10-10T14:48:12Z</time>
      </trkpt>
      <trkpt lat="43.35198" lon="5.45823">
        <ele>161.08</ele>
        <time>2022-10-10T14:48:15Z</time>
      </trkpt>
      <trkpt lat="43.35203" lon="5.45814">
        <ele>162.66</ele>
        <time>2022-10-10T14:48:16Z</time>
      </trkpt>
      <trkpt lat="43.35206" lon="5.45803">
        <ele>163.66</ele>
        <time>2022-10-10T14:48:17Z</time>
      </trkpt>
      <trkpt lat="43.35208" lon="5.45791">
        <ele>163.57</ele>
        <time>2022-10-10T14:48:18Z</time>
      </trkpt>
      <trkpt lat="43.35208" lon="5.45779">
        <ele>164.33</ele>
        <time>2022-10-10T14:48:19Z</time>
      </trkpt>
      <trkpt lat="43.35206" lon="5.45768">
        <ele>164.41</ele>
        <time>2022-10-10T14:48:20Z</time>
      </trkpt>
      <trkpt lat="43.35204" lon="5.45757">
        <ele>166.35</ele>
        <time>2022-10-10T14:48:21Z</time>
      </trkpt>
      <trkpt lat="43.35201" lon="5.45746">
        <ele>166.15</ele>
        <time>2022-10-10T14:48:22Z</time>
      </trkpt>
      <trkpt lat="43.35194" lon="5.45711">
        <ele>169.29</ele>
        <time>2022-10-10T14:48:25Z</time>
      </trkpt>
      <trkpt lat="43.35192" lon="5.457">
        <ele>169.27</ele>
        <time>2022-10-10T14:48:26Z</time>
      </trkpt>
      <trkpt lat="43.35191" lon="5.45689">
        <ele>170.58</ele>
        <time>2022-10-10T14:48:27Z</time>
      </trkpt>
      <trkpt lat="43.35191" lon="5.4568">
        <ele>170.56</ele>
        <time>2022-10-10T14:48:28Z</time>
      </trkpt>
      <trkpt lat="43.35191" lon="5.45673">
        <ele>170.6</ele>
        <time>2022-10-10T14:48:29Z</time>
      </trkpt>
      <trkpt lat="43.3519" lon="5.45668">
        <ele>170.57</ele>
        <time>2022-10-10T14:48:30Z</time>
      </trkpt>
      <trkpt lat="43.3519" lon="5.45664">
        <ele>170.51</ele>
        <time>2022-10-10T14:48:31Z</time>
      </trkpt>
      <trkpt lat="43.35188" lon="5.45659">
        <ele>170.05</ele>
        <time>2022-10-10T14:48:32Z</time>
      </trkpt>
      <trkpt lat="43.35185" lon="5.45654">
        <ele>170.51</ele>
        <time>2022-10-10T14:48:33Z</time>
      </trkpt>
      <trkpt lat="43.35179" lon="5.4565">
        <ele>170.53</ele>
        <time>2022-10-10T14:48:34Z</time>
      </trkpt>
      <trkpt lat="43.35173" lon="5.45645">
        <ele>170.05</ele>
        <time>2022-10-10T14:48:35Z</time>
      </trkpt>
      <trkpt lat="43.35108" lon="5.4561">
        <ele>170.01</ele>
        <time>2022-10-10T14:48:44Z</time>
      </trkpt>
      <trkpt lat="43.35101" lon="5.45608">
        <ele>167.48</ele>
        <time>2022-10-10T14:48:46Z</time>
      </trkpt>
      <trkpt lat="43.35091" lon="5.45606">
        <ele>167.46</ele>
        <time>2022-10-10T14:48:48Z</time>
      </trkpt>
      <trkpt lat="43.35085" lon="5.45603">
        <ele>167.45</ele>
        <time>2022-10-10T14:48:49Z</time>
      </trkpt>
      <trkpt lat="43.35079" lon="5.456">
        <ele>167.44</ele>
        <time>2022-10-10T14:48:50Z</time>
      </trkpt>
      <trkpt lat="43.35067" lon="5.45594">
        <ele>167.42</ele>
        <time>2022-10-10T14:48:52Z</time>
      </trkpt>
      <trkpt lat="43.35057" lon="5.45591">
        <ele>167.41</ele>
        <time>2022-10-10T14:48:54Z</time>
      </trkpt>
      <trkpt lat="43.35039" lon="5.45582">
        <ele>166.55</ele>
        <time>2022-10-10T14:48:57Z</time>
      </trkpt>
      <trkpt lat="43.34971" lon="5.45529">
        <ele>163.22</ele>
        <time>2022-10-10T14:49:07Z</time>
      </trkpt>
      <trkpt lat="43.34968" lon="5.45525">
        <ele>163.2</ele>
        <time>2022-10-10T14:49:08Z</time>
      </trkpt>
      <trkpt lat="43.34967" lon="5.45521">
        <ele>163.19</ele>
        <time>2022-10-10T14:49:09Z</time>
      </trkpt>
      <trkpt lat="43.34968" lon="5.45518">
        <ele>163.2</ele>
        <time>2022-10-10T14:49:10Z</time>
      </trkpt>
      <trkpt lat="43.34989" lon="5.4547">
        <ele>163.18</ele>
        <time>2022-10-10T14:49:16Z</time>
      </trkpt>
      <trkpt lat="43.34994" lon="5.45454">
        <ele>163.16</ele>
        <time>2022-10-10T14:49:18Z</time>
      </trkpt>
      <trkpt lat="43.34996" lon="5.45447">
        <ele>163.08</ele>
        <time>2022-10-10T14:49:19Z</time>
      </trkpt>
      <trkpt lat="43.34996" lon="5.45442">
        <ele>163.16</ele>
        <time>2022-10-10T14:49:20Z</time>
      </trkpt>
      <trkpt lat="43.34996" lon="5.45439">
        <ele>163.09</ele>
        <time>2022-10-10T14:49:21Z</time>
      </trkpt>
      <trkpt lat="43.34996" lon="5.45436">
        <ele>162.47</ele>
        <time>2022-10-10T14:49:37Z</time>
      </trkpt>
      <trkpt lat="43.34995" lon="5.45437">
        <ele>161.69</ele>
        <time>2022-10-10T14:49:52Z</time>
      </trkpt>
      <trkpt lat="43.34913" lon="5.45386">
        <ele>161.65</ele>
        <time>2022-10-10T15:08:58Z</time>
      </trkpt>
      <trkpt lat="43.34995" lon="5.45432">
        <ele>158.13</ele>
        <time>2022-10-10T15:09:10Z</time>
      </trkpt>
      <trkpt lat="43.34995" lon="5.45434">
        <ele>154.43</ele>
        <time>2022-10-10T15:09:13Z</time>
      </trkpt>
      <trkpt lat="43.34993" lon="5.45436">
        <ele>152.69</ele>
        <time>2022-10-10T15:09:35Z</time>
      </trkpt>
    </trkseg>
  </trk>
</gpx>